<?xml version="1.0" encoding="UTF-8"?>
<gpx version="1.1" creator="https://www.youtrack.es" xsi:schemaLocation="http://www.topografix.com/GPX/1/1 http://www.topografix.com/GPX/1/1/gpx.xsd http://www.garmin.com/xmlschemas/GpxExtensions/v3 http://www.garmin.com/xmlschemas/GpxExtensionsv3.xsd http://www.garmin.com/xmlschemas/TrackPointExtension/v1 http://www.garmin.com/xmlschemas/TrackPointExtensionv1.xsd" xmlns:gpxtpx="http://www.garmin.com/xmlschemas/TrackPointExtension/v1" xmlns:gpxx="http://www.garmin.com/xmlschemas/GpxExtensions/v3" xmlns:xsi="http://www.w3.org/2001/XMLSchema-instance">
  <metadata>
    <author>
      <name>ruben tacor</name>
      <email id="iphoneruben8" domain="gmail.com"/>
    </author>
    <link href="https://www.youtrack.es">
      <text>YouTrack.es</text>
    </link>
    <time>2026-05-08T22:51:50Z</time>
  </metadata>
  <trk>
    <src>https://www.youtrack.es</src>
    <link href="https://www.youtrack.es/ruta/1200-alfaques-pico-tunte-riscoblanco-taidia-caldera-tajinaste">
      <text>YouTrack.es</text>
    </link>
    <trkseg>
      <trkpt lat="27.985035" lon="-15.522469">
        <ele>810.60</ele>
        <time>2017-12-09T06:46:37Z</time>
      </trkpt>
      <trkpt lat="27.985037" lon="-15.522451">
        <ele>810.60</ele>
        <time>2017-12-09T06:46:38Z</time>
      </trkpt>
      <trkpt lat="27.985042" lon="-15.522411">
        <ele>810.50</ele>
        <time>2017-12-09T06:46:40Z</time>
      </trkpt>
      <trkpt lat="27.985044" lon="-15.522389">
        <ele>810.50</ele>
        <time>2017-12-09T06:46:41Z</time>
      </trkpt>
      <trkpt lat="27.985049" lon="-15.522365">
        <ele>810.50</ele>
        <time>2017-12-09T06:46:42Z</time>
      </trkpt>
      <trkpt lat="27.985052" lon="-15.522341">
        <ele>810.19</ele>
        <time>2017-12-09T06:46:43Z</time>
      </trkpt>
      <trkpt lat="27.985055" lon="-15.522318">
        <ele>810.10</ele>
        <time>2017-12-09T06:46:44Z</time>
      </trkpt>
      <trkpt lat="27.985064" lon="-15.522282">
        <ele>809.89</ele>
        <time>2017-12-09T06:46:46Z</time>
      </trkpt>
      <trkpt lat="27.985069" lon="-15.522262">
        <ele>809.27</ele>
        <time>2017-12-09T06:46:47Z</time>
      </trkpt>
      <trkpt lat="27.985075" lon="-15.522242">
        <ele>809.00</ele>
        <time>2017-12-09T06:46:48Z</time>
      </trkpt>
      <trkpt lat="27.985081" lon="-15.522221">
        <ele>809.00</ele>
        <time>2017-12-09T06:46:49Z</time>
      </trkpt>
      <trkpt lat="27.985084" lon="-15.522194">
        <ele>808.89</ele>
        <time>2017-12-09T06:46:50Z</time>
      </trkpt>
      <trkpt lat="27.985090" lon="-15.522172">
        <ele>808.69</ele>
        <time>2017-12-09T06:46:51Z</time>
      </trkpt>
      <trkpt lat="27.985094" lon="-15.522143">
        <ele>808.60</ele>
        <time>2017-12-09T06:46:52Z</time>
      </trkpt>
      <trkpt lat="27.985098" lon="-15.522118">
        <ele>808.37</ele>
        <time>2017-12-09T06:46:53Z</time>
      </trkpt>
      <trkpt lat="27.985102" lon="-15.522094">
        <ele>808.31</ele>
        <time>2017-12-09T06:46:54Z</time>
      </trkpt>
      <trkpt lat="27.985102" lon="-15.522072">
        <ele>808.40</ele>
        <time>2017-12-09T06:46:55Z</time>
      </trkpt>
      <trkpt lat="27.985103" lon="-15.522050">
        <ele>808.10</ele>
        <time>2017-12-09T06:46:56Z</time>
      </trkpt>
      <trkpt lat="27.985105" lon="-15.522022">
        <ele>807.87</ele>
        <time>2017-12-09T06:46:57Z</time>
      </trkpt>
      <trkpt lat="27.985110" lon="-15.521945">
        <ele>807.20</ele>
        <time>2017-12-09T06:47:00Z</time>
      </trkpt>
      <trkpt lat="27.985109" lon="-15.521921">
        <ele>807.10</ele>
        <time>2017-12-09T06:47:01Z</time>
      </trkpt>
      <trkpt lat="27.985130" lon="-15.521808">
        <ele>806.40</ele>
        <time>2017-12-09T06:47:06Z</time>
      </trkpt>
      <trkpt lat="27.985132" lon="-15.521785">
        <ele>806.30</ele>
        <time>2017-12-09T06:47:07Z</time>
      </trkpt>
      <trkpt lat="27.985133" lon="-15.521757">
        <ele>805.90</ele>
        <time>2017-12-09T06:47:08Z</time>
      </trkpt>
      <trkpt lat="27.985142" lon="-15.521646">
        <ele>805.70</ele>
        <time>2017-12-09T06:47:12Z</time>
      </trkpt>
      <trkpt lat="27.985139" lon="-15.521603">
        <ele>805.77</ele>
        <time>2017-12-09T06:47:14Z</time>
      </trkpt>
      <trkpt lat="27.985137" lon="-15.521578">
        <ele>805.73</ele>
        <time>2017-12-09T06:47:15Z</time>
      </trkpt>
      <trkpt lat="27.985134" lon="-15.521555">
        <ele>805.36</ele>
        <time>2017-12-09T06:47:16Z</time>
      </trkpt>
      <trkpt lat="27.985133" lon="-15.521528">
        <ele>805.20</ele>
        <time>2017-12-09T06:47:17Z</time>
      </trkpt>
      <trkpt lat="27.985135" lon="-15.521501">
        <ele>805.20</ele>
        <time>2017-12-09T06:47:18Z</time>
      </trkpt>
      <trkpt lat="27.985139" lon="-15.521472">
        <ele>805.08</ele>
        <time>2017-12-09T06:47:19Z</time>
      </trkpt>
      <trkpt lat="27.985140" lon="-15.521445">
        <ele>805.00</ele>
        <time>2017-12-09T06:47:20Z</time>
      </trkpt>
      <trkpt lat="27.985140" lon="-15.521416">
        <ele>805.00</ele>
        <time>2017-12-09T06:47:21Z</time>
      </trkpt>
      <trkpt lat="27.985139" lon="-15.521392">
        <ele>804.95</ele>
        <time>2017-12-09T06:47:22Z</time>
      </trkpt>
      <trkpt lat="27.985135" lon="-15.521370">
        <ele>804.90</ele>
        <time>2017-12-09T06:47:23Z</time>
      </trkpt>
      <trkpt lat="27.985135" lon="-15.521333">
        <ele>804.50</ele>
        <time>2017-12-09T06:47:25Z</time>
      </trkpt>
      <trkpt lat="27.985136" lon="-15.521312">
        <ele>804.50</ele>
        <time>2017-12-09T06:47:26Z</time>
      </trkpt>
      <trkpt lat="27.985140" lon="-15.521290">
        <ele>805.11</ele>
        <time>2017-12-09T06:47:27Z</time>
      </trkpt>
      <trkpt lat="27.985138" lon="-15.521264">
        <ele>805.31</ele>
        <time>2017-12-09T06:47:28Z</time>
      </trkpt>
      <trkpt lat="27.985140" lon="-15.521238">
        <ele>804.94</ele>
        <time>2017-12-09T06:47:29Z</time>
      </trkpt>
      <trkpt lat="27.985142" lon="-15.521212">
        <ele>805.18</ele>
        <time>2017-12-09T06:47:30Z</time>
      </trkpt>
      <trkpt lat="27.985143" lon="-15.521186">
        <ele>804.57</ele>
        <time>2017-12-09T06:47:31Z</time>
      </trkpt>
      <trkpt lat="27.985142" lon="-15.521161">
        <ele>804.53</ele>
        <time>2017-12-09T06:47:32Z</time>
      </trkpt>
      <trkpt lat="27.985149" lon="-15.521117">
        <ele>804.20</ele>
        <time>2017-12-09T06:47:34Z</time>
      </trkpt>
      <trkpt lat="27.985150" lon="-15.521094">
        <ele>804.20</ele>
        <time>2017-12-09T06:47:35Z</time>
      </trkpt>
      <trkpt lat="27.985151" lon="-15.521071">
        <ele>804.20</ele>
        <time>2017-12-09T06:47:36Z</time>
      </trkpt>
      <trkpt lat="27.985148" lon="-15.521049">
        <ele>804.25</ele>
        <time>2017-12-09T06:47:37Z</time>
      </trkpt>
      <trkpt lat="27.985148" lon="-15.521028">
        <ele>804.40</ele>
        <time>2017-12-09T06:47:38Z</time>
      </trkpt>
      <trkpt lat="27.985145" lon="-15.520982">
        <ele>804.59</ele>
        <time>2017-12-09T06:47:40Z</time>
      </trkpt>
      <trkpt lat="27.985144" lon="-15.520939">
        <ele>804.77</ele>
        <time>2017-12-09T06:47:42Z</time>
      </trkpt>
      <trkpt lat="27.985148" lon="-15.520900">
        <ele>805.00</ele>
        <time>2017-12-09T06:47:44Z</time>
      </trkpt>
      <trkpt lat="27.985147" lon="-15.520873">
        <ele>805.00</ele>
        <time>2017-12-09T06:47:45Z</time>
      </trkpt>
      <trkpt lat="27.985140" lon="-15.520849">
        <ele>805.00</ele>
        <time>2017-12-09T06:47:46Z</time>
      </trkpt>
      <trkpt lat="27.985140" lon="-15.520826">
        <ele>805.00</ele>
        <time>2017-12-09T06:47:47Z</time>
      </trkpt>
      <trkpt lat="27.985133" lon="-15.520800">
        <ele>805.00</ele>
        <time>2017-12-09T06:47:48Z</time>
      </trkpt>
      <trkpt lat="27.985127" lon="-15.520779">
        <ele>805.03</ele>
        <time>2017-12-09T06:47:49Z</time>
      </trkpt>
      <trkpt lat="27.985116" lon="-15.520762">
        <ele>804.97</ele>
        <time>2017-12-09T06:47:50Z</time>
      </trkpt>
      <trkpt lat="27.985099" lon="-15.520741">
        <ele>804.96</ele>
        <time>2017-12-09T06:47:51Z</time>
      </trkpt>
      <trkpt lat="27.985076" lon="-15.520721">
        <ele>805.85</ele>
        <time>2017-12-09T06:47:52Z</time>
      </trkpt>
      <trkpt lat="27.985056" lon="-15.520706">
        <ele>805.40</ele>
        <time>2017-12-09T06:47:53Z</time>
      </trkpt>
      <trkpt lat="27.985034" lon="-15.520695">
        <ele>805.37</ele>
        <time>2017-12-09T06:47:54Z</time>
      </trkpt>
      <trkpt lat="27.985013" lon="-15.520687">
        <ele>805.30</ele>
        <time>2017-12-09T06:47:55Z</time>
      </trkpt>
      <trkpt lat="27.984988" lon="-15.520683">
        <ele>805.30</ele>
        <time>2017-12-09T06:47:56Z</time>
      </trkpt>
      <trkpt lat="27.984964" lon="-15.520678">
        <ele>805.30</ele>
        <time>2017-12-09T06:47:57Z</time>
      </trkpt>
      <trkpt lat="27.984938" lon="-15.520674">
        <ele>805.30</ele>
        <time>2017-12-09T06:47:58Z</time>
      </trkpt>
      <trkpt lat="27.984913" lon="-15.520673">
        <ele>805.11</ele>
        <time>2017-12-09T06:47:59Z</time>
      </trkpt>
      <trkpt lat="27.984890" lon="-15.520673">
        <ele>804.60</ele>
        <time>2017-12-09T06:48:00Z</time>
      </trkpt>
      <trkpt lat="27.984821" lon="-15.520702">
        <ele>805.68</ele>
        <time>2017-12-09T06:48:03Z</time>
      </trkpt>
      <trkpt lat="27.984799" lon="-15.520713">
        <ele>804.85</ele>
        <time>2017-12-09T06:48:04Z</time>
      </trkpt>
      <trkpt lat="27.984778" lon="-15.520729">
        <ele>805.28</ele>
        <time>2017-12-09T06:48:05Z</time>
      </trkpt>
      <trkpt lat="27.984760" lon="-15.520741">
        <ele>804.70</ele>
        <time>2017-12-09T06:48:06Z</time>
      </trkpt>
      <trkpt lat="27.984737" lon="-15.520753">
        <ele>804.70</ele>
        <time>2017-12-09T06:48:07Z</time>
      </trkpt>
      <trkpt lat="27.984713" lon="-15.520761">
        <ele>804.70</ele>
        <time>2017-12-09T06:48:08Z</time>
      </trkpt>
      <trkpt lat="27.984694" lon="-15.520765">
        <ele>804.70</ele>
        <time>2017-12-09T06:48:09Z</time>
      </trkpt>
      <trkpt lat="27.984671" lon="-15.520779">
        <ele>804.70</ele>
        <time>2017-12-09T06:48:10Z</time>
      </trkpt>
      <trkpt lat="27.984653" lon="-15.520785">
        <ele>804.70</ele>
        <time>2017-12-09T06:48:11Z</time>
      </trkpt>
      <trkpt lat="27.984611" lon="-15.520809">
        <ele>805.00</ele>
        <time>2017-12-09T06:48:13Z</time>
      </trkpt>
      <trkpt lat="27.984590" lon="-15.520822">
        <ele>805.40</ele>
        <time>2017-12-09T06:48:14Z</time>
      </trkpt>
      <trkpt lat="27.984552" lon="-15.520839">
        <ele>805.16</ele>
        <time>2017-12-09T06:48:16Z</time>
      </trkpt>
      <trkpt lat="27.984531" lon="-15.520846">
        <ele>804.60</ele>
        <time>2017-12-09T06:48:17Z</time>
      </trkpt>
      <trkpt lat="27.984509" lon="-15.520854">
        <ele>804.60</ele>
        <time>2017-12-09T06:48:18Z</time>
      </trkpt>
      <trkpt lat="27.984487" lon="-15.520861">
        <ele>804.60</ele>
        <time>2017-12-09T06:48:19Z</time>
      </trkpt>
      <trkpt lat="27.984467" lon="-15.520871">
        <ele>804.60</ele>
        <time>2017-12-09T06:48:20Z</time>
      </trkpt>
      <trkpt lat="27.984447" lon="-15.520881">
        <ele>804.38</ele>
        <time>2017-12-09T06:48:21Z</time>
      </trkpt>
      <trkpt lat="27.984428" lon="-15.520891">
        <ele>803.90</ele>
        <time>2017-12-09T06:48:22Z</time>
      </trkpt>
      <trkpt lat="27.984407" lon="-15.520900">
        <ele>803.87</ele>
        <time>2017-12-09T06:48:23Z</time>
      </trkpt>
      <trkpt lat="27.984387" lon="-15.520908">
        <ele>803.90</ele>
        <time>2017-12-09T06:48:24Z</time>
      </trkpt>
      <trkpt lat="27.984365" lon="-15.520917">
        <ele>804.10</ele>
        <time>2017-12-09T06:48:25Z</time>
      </trkpt>
      <trkpt lat="27.984345" lon="-15.520924">
        <ele>804.10</ele>
        <time>2017-12-09T06:48:26Z</time>
      </trkpt>
      <trkpt lat="27.984326" lon="-15.520928">
        <ele>804.10</ele>
        <time>2017-12-09T06:48:27Z</time>
      </trkpt>
      <trkpt lat="27.984306" lon="-15.520932">
        <ele>804.10</ele>
        <time>2017-12-09T06:48:28Z</time>
      </trkpt>
      <trkpt lat="27.984286" lon="-15.520936">
        <ele>803.87</ele>
        <time>2017-12-09T06:48:29Z</time>
      </trkpt>
      <trkpt lat="27.984268" lon="-15.520941">
        <ele>803.24</ele>
        <time>2017-12-09T06:48:30Z</time>
      </trkpt>
      <trkpt lat="27.984248" lon="-15.520945">
        <ele>802.77</ele>
        <time>2017-12-09T06:48:31Z</time>
      </trkpt>
      <trkpt lat="27.984224" lon="-15.520947">
        <ele>802.50</ele>
        <time>2017-12-09T06:48:32Z</time>
      </trkpt>
      <trkpt lat="27.984202" lon="-15.520948">
        <ele>802.47</ele>
        <time>2017-12-09T06:48:33Z</time>
      </trkpt>
      <trkpt lat="27.984180" lon="-15.520948">
        <ele>802.40</ele>
        <time>2017-12-09T06:48:34Z</time>
      </trkpt>
      <trkpt lat="27.984152" lon="-15.520946">
        <ele>802.40</ele>
        <time>2017-12-09T06:48:35Z</time>
      </trkpt>
      <trkpt lat="27.984128" lon="-15.520944">
        <ele>802.06</ele>
        <time>2017-12-09T06:48:36Z</time>
      </trkpt>
      <trkpt lat="27.984107" lon="-15.520934">
        <ele>800.90</ele>
        <time>2017-12-09T06:48:37Z</time>
      </trkpt>
      <trkpt lat="27.984085" lon="-15.520930">
        <ele>800.90</ele>
        <time>2017-12-09T06:48:38Z</time>
      </trkpt>
      <trkpt lat="27.984064" lon="-15.520922">
        <ele>800.90</ele>
        <time>2017-12-09T06:48:39Z</time>
      </trkpt>
      <trkpt lat="27.984043" lon="-15.520915">
        <ele>800.90</ele>
        <time>2017-12-09T06:48:40Z</time>
      </trkpt>
      <trkpt lat="27.983982" lon="-15.520901">
        <ele>800.47</ele>
        <time>2017-12-09T06:48:43Z</time>
      </trkpt>
      <trkpt lat="27.983930" lon="-15.520882">
        <ele>799.60</ele>
        <time>2017-12-09T06:48:46Z</time>
      </trkpt>
      <trkpt lat="27.983905" lon="-15.520871">
        <ele>799.57</ele>
        <time>2017-12-09T06:48:47Z</time>
      </trkpt>
      <trkpt lat="27.983884" lon="-15.520867">
        <ele>799.22</ele>
        <time>2017-12-09T06:48:48Z</time>
      </trkpt>
      <trkpt lat="27.983866" lon="-15.520862">
        <ele>798.70</ele>
        <time>2017-12-09T06:48:49Z</time>
      </trkpt>
      <trkpt lat="27.983845" lon="-15.520858">
        <ele>798.63</ele>
        <time>2017-12-09T06:48:50Z</time>
      </trkpt>
      <trkpt lat="27.983826" lon="-15.520850">
        <ele>798.50</ele>
        <time>2017-12-09T06:48:51Z</time>
      </trkpt>
      <trkpt lat="27.983807" lon="-15.520847">
        <ele>798.50</ele>
        <time>2017-12-09T06:48:52Z</time>
      </trkpt>
      <trkpt lat="27.983786" lon="-15.520841">
        <ele>798.25</ele>
        <time>2017-12-09T06:48:53Z</time>
      </trkpt>
      <trkpt lat="27.983767" lon="-15.520834">
        <ele>797.80</ele>
        <time>2017-12-09T06:48:54Z</time>
      </trkpt>
      <trkpt lat="27.983748" lon="-15.520827">
        <ele>797.80</ele>
        <time>2017-12-09T06:48:55Z</time>
      </trkpt>
      <trkpt lat="27.983730" lon="-15.520819">
        <ele>797.80</ele>
        <time>2017-12-09T06:48:56Z</time>
      </trkpt>
      <trkpt lat="27.983712" lon="-15.520811">
        <ele>797.80</ele>
        <time>2017-12-09T06:48:57Z</time>
      </trkpt>
      <trkpt lat="27.983690" lon="-15.520805">
        <ele>797.73</ele>
        <time>2017-12-09T06:48:58Z</time>
      </trkpt>
      <trkpt lat="27.983632" lon="-15.520775">
        <ele>795.90</ele>
        <time>2017-12-09T06:49:01Z</time>
      </trkpt>
      <trkpt lat="27.983613" lon="-15.520768">
        <ele>795.90</ele>
        <time>2017-12-09T06:49:02Z</time>
      </trkpt>
      <trkpt lat="27.983594" lon="-15.520756">
        <ele>795.90</ele>
        <time>2017-12-09T06:49:03Z</time>
      </trkpt>
      <trkpt lat="27.983581" lon="-15.520741">
        <ele>796.01</ele>
        <time>2017-12-09T06:49:04Z</time>
      </trkpt>
      <trkpt lat="27.983566" lon="-15.520727">
        <ele>796.20</ele>
        <time>2017-12-09T06:49:05Z</time>
      </trkpt>
      <trkpt lat="27.983552" lon="-15.520711">
        <ele>795.95</ele>
        <time>2017-12-09T06:49:06Z</time>
      </trkpt>
      <trkpt lat="27.983538" lon="-15.520695">
        <ele>795.50</ele>
        <time>2017-12-09T06:49:07Z</time>
      </trkpt>
      <trkpt lat="27.983526" lon="-15.520678">
        <ele>795.46</ele>
        <time>2017-12-09T06:49:08Z</time>
      </trkpt>
      <trkpt lat="27.983515" lon="-15.520660">
        <ele>795.40</ele>
        <time>2017-12-09T06:49:09Z</time>
      </trkpt>
      <trkpt lat="27.983504" lon="-15.520637">
        <ele>795.04</ele>
        <time>2017-12-09T06:49:10Z</time>
      </trkpt>
      <trkpt lat="27.983498" lon="-15.520615">
        <ele>794.40</ele>
        <time>2017-12-09T06:49:11Z</time>
      </trkpt>
      <trkpt lat="27.983492" lon="-15.520593">
        <ele>794.07</ele>
        <time>2017-12-09T06:49:12Z</time>
      </trkpt>
      <trkpt lat="27.983485" lon="-15.520573">
        <ele>793.50</ele>
        <time>2017-12-09T06:49:13Z</time>
      </trkpt>
      <trkpt lat="27.983540" lon="-15.520512">
        <ele>791.52</ele>
        <time>2017-12-09T06:49:21Z</time>
      </trkpt>
      <trkpt lat="27.983559" lon="-15.520506">
        <ele>791.32</ele>
        <time>2017-12-09T06:49:22Z</time>
      </trkpt>
      <trkpt lat="27.983577" lon="-15.520502">
        <ele>791.20</ele>
        <time>2017-12-09T06:49:23Z</time>
      </trkpt>
      <trkpt lat="27.983598" lon="-15.520499">
        <ele>791.20</ele>
        <time>2017-12-09T06:49:24Z</time>
      </trkpt>
      <trkpt lat="27.983619" lon="-15.520494">
        <ele>790.84</ele>
        <time>2017-12-09T06:49:25Z</time>
      </trkpt>
      <trkpt lat="27.983640" lon="-15.520484">
        <ele>790.26</ele>
        <time>2017-12-09T06:49:26Z</time>
      </trkpt>
      <trkpt lat="27.983660" lon="-15.520476">
        <ele>790.20</ele>
        <time>2017-12-09T06:49:27Z</time>
      </trkpt>
      <trkpt lat="27.983684" lon="-15.520473">
        <ele>790.20</ele>
        <time>2017-12-09T06:49:28Z</time>
      </trkpt>
      <trkpt lat="27.983783" lon="-15.520509">
        <ele>789.30</ele>
        <time>2017-12-09T06:49:33Z</time>
      </trkpt>
      <trkpt lat="27.983892" lon="-15.520527">
        <ele>787.60</ele>
        <time>2017-12-09T06:49:38Z</time>
      </trkpt>
      <trkpt lat="27.983930" lon="-15.520527">
        <ele>787.60</ele>
        <time>2017-12-09T06:49:40Z</time>
      </trkpt>
      <trkpt lat="27.983949" lon="-15.520520">
        <ele>787.60</ele>
        <time>2017-12-09T06:49:41Z</time>
      </trkpt>
      <trkpt lat="27.983971" lon="-15.520516">
        <ele>787.60</ele>
        <time>2017-12-09T06:49:43Z</time>
      </trkpt>
      <trkpt lat="27.983980" lon="-15.520492">
        <ele>787.30</ele>
        <time>2017-12-09T06:49:45Z</time>
      </trkpt>
      <trkpt lat="27.984016" lon="-15.520391">
        <ele>788.15</ele>
        <time>2017-12-09T06:49:54Z</time>
      </trkpt>
      <trkpt lat="27.984049" lon="-15.520305">
        <ele>789.63</ele>
        <time>2017-12-09T06:49:58Z</time>
      </trkpt>
      <trkpt lat="27.984058" lon="-15.520276">
        <ele>791.00</ele>
        <time>2017-12-09T06:50:00Z</time>
      </trkpt>
      <trkpt lat="27.984070" lon="-15.520251">
        <ele>791.10</ele>
        <time>2017-12-09T06:50:02Z</time>
      </trkpt>
      <trkpt lat="27.984081" lon="-15.520232">
        <ele>791.19</ele>
        <time>2017-12-09T06:50:04Z</time>
      </trkpt>
      <trkpt lat="27.984085" lon="-15.520204">
        <ele>791.74</ele>
        <time>2017-12-09T06:50:06Z</time>
      </trkpt>
      <trkpt lat="27.984087" lon="-15.520181">
        <ele>792.94</ele>
        <time>2017-12-09T06:50:09Z</time>
      </trkpt>
      <trkpt lat="27.984070" lon="-15.520168">
        <ele>793.40</ele>
        <time>2017-12-09T06:50:11Z</time>
      </trkpt>
      <trkpt lat="27.984041" lon="-15.520168">
        <ele>793.99</ele>
        <time>2017-12-09T06:50:14Z</time>
      </trkpt>
      <trkpt lat="27.984017" lon="-15.520180">
        <ele>794.55</ele>
        <time>2017-12-09T06:50:17Z</time>
      </trkpt>
      <trkpt lat="27.983999" lon="-15.520189">
        <ele>794.89</ele>
        <time>2017-12-09T06:50:19Z</time>
      </trkpt>
      <trkpt lat="27.983975" lon="-15.520190">
        <ele>795.60</ele>
        <time>2017-12-09T06:50:21Z</time>
      </trkpt>
      <trkpt lat="27.983951" lon="-15.520188">
        <ele>796.15</ele>
        <time>2017-12-09T06:50:23Z</time>
      </trkpt>
      <trkpt lat="27.983927" lon="-15.520195">
        <ele>797.00</ele>
        <time>2017-12-09T06:50:26Z</time>
      </trkpt>
      <trkpt lat="27.983910" lon="-15.520209">
        <ele>797.95</ele>
        <time>2017-12-09T06:50:29Z</time>
      </trkpt>
      <trkpt lat="27.983892" lon="-15.520219">
        <ele>798.50</ele>
        <time>2017-12-09T06:50:31Z</time>
      </trkpt>
      <trkpt lat="27.983810" lon="-15.520218">
        <ele>801.21</ele>
        <time>2017-12-09T06:50:39Z</time>
      </trkpt>
      <trkpt lat="27.983783" lon="-15.520227">
        <ele>801.90</ele>
        <time>2017-12-09T06:50:41Z</time>
      </trkpt>
      <trkpt lat="27.983758" lon="-15.520228">
        <ele>802.15</ele>
        <time>2017-12-09T06:50:43Z</time>
      </trkpt>
      <trkpt lat="27.983736" lon="-15.520225">
        <ele>802.51</ele>
        <time>2017-12-09T06:50:45Z</time>
      </trkpt>
      <trkpt lat="27.983713" lon="-15.520221">
        <ele>802.95</ele>
        <time>2017-12-09T06:50:48Z</time>
      </trkpt>
      <trkpt lat="27.983695" lon="-15.520220">
        <ele>804.46</ele>
        <time>2017-12-09T06:50:51Z</time>
      </trkpt>
      <trkpt lat="27.983707" lon="-15.520194">
        <ele>806.21</ele>
        <time>2017-12-09T06:50:57Z</time>
      </trkpt>
      <trkpt lat="27.983718" lon="-15.520173">
        <ele>806.67</ele>
        <time>2017-12-09T06:50:59Z</time>
      </trkpt>
      <trkpt lat="27.983728" lon="-15.520149">
        <ele>807.21</ele>
        <time>2017-12-09T06:51:02Z</time>
      </trkpt>
      <trkpt lat="27.983734" lon="-15.520124">
        <ele>807.77</ele>
        <time>2017-12-09T06:51:05Z</time>
      </trkpt>
      <trkpt lat="27.983736" lon="-15.520100">
        <ele>808.16</ele>
        <time>2017-12-09T06:51:08Z</time>
      </trkpt>
      <trkpt lat="27.983738" lon="-15.520078">
        <ele>809.06</ele>
        <time>2017-12-09T06:51:11Z</time>
      </trkpt>
      <trkpt lat="27.983744" lon="-15.520051">
        <ele>810.32</ele>
        <time>2017-12-09T06:51:14Z</time>
      </trkpt>
      <trkpt lat="27.983748" lon="-15.520031">
        <ele>811.45</ele>
        <time>2017-12-09T06:51:16Z</time>
      </trkpt>
      <trkpt lat="27.983746" lon="-15.520003">
        <ele>812.08</ele>
        <time>2017-12-09T06:51:19Z</time>
      </trkpt>
      <trkpt lat="27.983740" lon="-15.519980">
        <ele>812.42</ele>
        <time>2017-12-09T06:51:21Z</time>
      </trkpt>
      <trkpt lat="27.983727" lon="-15.519960">
        <ele>813.48</ele>
        <time>2017-12-09T06:51:24Z</time>
      </trkpt>
      <trkpt lat="27.983704" lon="-15.519976">
        <ele>814.34</ele>
        <time>2017-12-09T06:51:27Z</time>
      </trkpt>
      <trkpt lat="27.983689" lon="-15.519988">
        <ele>814.96</ele>
        <time>2017-12-09T06:51:29Z</time>
      </trkpt>
      <trkpt lat="27.983673" lon="-15.520005">
        <ele>815.00</ele>
        <time>2017-12-09T06:51:31Z</time>
      </trkpt>
      <trkpt lat="27.983653" lon="-15.520019">
        <ele>815.10</ele>
        <time>2017-12-09T06:51:33Z</time>
      </trkpt>
      <trkpt lat="27.983631" lon="-15.520033">
        <ele>815.10</ele>
        <time>2017-12-09T06:51:35Z</time>
      </trkpt>
      <trkpt lat="27.983609" lon="-15.520042">
        <ele>815.17</ele>
        <time>2017-12-09T06:51:37Z</time>
      </trkpt>
      <trkpt lat="27.983587" lon="-15.520034">
        <ele>815.20</ele>
        <time>2017-12-09T06:51:39Z</time>
      </trkpt>
      <trkpt lat="27.983570" lon="-15.520020">
        <ele>815.60</ele>
        <time>2017-12-09T06:51:41Z</time>
      </trkpt>
      <trkpt lat="27.983552" lon="-15.520002">
        <ele>816.03</ele>
        <time>2017-12-09T06:51:43Z</time>
      </trkpt>
      <trkpt lat="27.983535" lon="-15.519986">
        <ele>816.23</ele>
        <time>2017-12-09T06:51:45Z</time>
      </trkpt>
      <trkpt lat="27.983518" lon="-15.519969">
        <ele>816.90</ele>
        <time>2017-12-09T06:51:47Z</time>
      </trkpt>
      <trkpt lat="27.983501" lon="-15.519952">
        <ele>817.34</ele>
        <time>2017-12-09T06:51:49Z</time>
      </trkpt>
      <trkpt lat="27.983481" lon="-15.519938">
        <ele>817.40</ele>
        <time>2017-12-09T06:51:51Z</time>
      </trkpt>
      <trkpt lat="27.983461" lon="-15.519924">
        <ele>817.87</ele>
        <time>2017-12-09T06:51:53Z</time>
      </trkpt>
      <trkpt lat="27.983438" lon="-15.519910">
        <ele>817.83</ele>
        <time>2017-12-09T06:51:55Z</time>
      </trkpt>
      <trkpt lat="27.983416" lon="-15.519901">
        <ele>817.60</ele>
        <time>2017-12-09T06:51:57Z</time>
      </trkpt>
      <trkpt lat="27.983395" lon="-15.519889">
        <ele>817.60</ele>
        <time>2017-12-09T06:51:59Z</time>
      </trkpt>
      <trkpt lat="27.983371" lon="-15.519878">
        <ele>817.54</ele>
        <time>2017-12-09T06:52:01Z</time>
      </trkpt>
      <trkpt lat="27.983343" lon="-15.519874">
        <ele>817.98</ele>
        <time>2017-12-09T06:52:03Z</time>
      </trkpt>
      <trkpt lat="27.983315" lon="-15.519872">
        <ele>818.20</ele>
        <time>2017-12-09T06:52:05Z</time>
      </trkpt>
      <trkpt lat="27.983287" lon="-15.519869">
        <ele>818.30</ele>
        <time>2017-12-09T06:52:07Z</time>
      </trkpt>
      <trkpt lat="27.983262" lon="-15.519869">
        <ele>820.40</ele>
        <time>2017-12-09T06:52:09Z</time>
      </trkpt>
      <trkpt lat="27.983234" lon="-15.519869">
        <ele>820.53</ele>
        <time>2017-12-09T06:52:11Z</time>
      </trkpt>
      <trkpt lat="27.983205" lon="-15.519867">
        <ele>819.58</ele>
        <time>2017-12-09T06:52:13Z</time>
      </trkpt>
      <trkpt lat="27.983180" lon="-15.519858">
        <ele>819.43</ele>
        <time>2017-12-09T06:52:15Z</time>
      </trkpt>
      <trkpt lat="27.983156" lon="-15.519848">
        <ele>819.40</ele>
        <time>2017-12-09T06:52:17Z</time>
      </trkpt>
      <trkpt lat="27.983127" lon="-15.519847">
        <ele>819.40</ele>
        <time>2017-12-09T06:52:19Z</time>
      </trkpt>
      <trkpt lat="27.983101" lon="-15.519843">
        <ele>819.40</ele>
        <time>2017-12-09T06:52:21Z</time>
      </trkpt>
      <trkpt lat="27.983074" lon="-15.519844">
        <ele>819.81</ele>
        <time>2017-12-09T06:52:23Z</time>
      </trkpt>
      <trkpt lat="27.983045" lon="-15.519842">
        <ele>820.00</ele>
        <time>2017-12-09T06:52:25Z</time>
      </trkpt>
      <trkpt lat="27.983019" lon="-15.519837">
        <ele>819.90</ele>
        <time>2017-12-09T06:52:27Z</time>
      </trkpt>
      <trkpt lat="27.982991" lon="-15.519839">
        <ele>819.90</ele>
        <time>2017-12-09T06:52:29Z</time>
      </trkpt>
      <trkpt lat="27.982967" lon="-15.519836">
        <ele>820.14</ele>
        <time>2017-12-09T06:52:31Z</time>
      </trkpt>
      <trkpt lat="27.982939" lon="-15.519833">
        <ele>820.40</ele>
        <time>2017-12-09T06:52:33Z</time>
      </trkpt>
      <trkpt lat="27.982914" lon="-15.519829">
        <ele>820.60</ele>
        <time>2017-12-09T06:52:35Z</time>
      </trkpt>
      <trkpt lat="27.982887" lon="-15.519824">
        <ele>820.40</ele>
        <time>2017-12-09T06:52:37Z</time>
      </trkpt>
      <trkpt lat="27.982861" lon="-15.519820">
        <ele>820.70</ele>
        <time>2017-12-09T06:52:39Z</time>
      </trkpt>
      <trkpt lat="27.982838" lon="-15.519813">
        <ele>821.20</ele>
        <time>2017-12-09T06:52:41Z</time>
      </trkpt>
      <trkpt lat="27.982814" lon="-15.519807">
        <ele>821.40</ele>
        <time>2017-12-09T06:52:43Z</time>
      </trkpt>
      <trkpt lat="27.982789" lon="-15.519808">
        <ele>821.47</ele>
        <time>2017-12-09T06:52:45Z</time>
      </trkpt>
      <trkpt lat="27.982768" lon="-15.519809">
        <ele>821.47</ele>
        <time>2017-12-09T06:52:47Z</time>
      </trkpt>
      <trkpt lat="27.982748" lon="-15.519802">
        <ele>821.72</ele>
        <time>2017-12-09T06:52:49Z</time>
      </trkpt>
      <trkpt lat="27.982728" lon="-15.519791">
        <ele>821.80</ele>
        <time>2017-12-09T06:52:51Z</time>
      </trkpt>
      <trkpt lat="27.982702" lon="-15.519798">
        <ele>821.80</ele>
        <time>2017-12-09T06:52:53Z</time>
      </trkpt>
      <trkpt lat="27.982680" lon="-15.519802">
        <ele>822.10</ele>
        <time>2017-12-09T06:52:55Z</time>
      </trkpt>
      <trkpt lat="27.982653" lon="-15.519799">
        <ele>822.87</ele>
        <time>2017-12-09T06:52:58Z</time>
      </trkpt>
      <trkpt lat="27.982629" lon="-15.519799">
        <ele>823.53</ele>
        <time>2017-12-09T06:53:00Z</time>
      </trkpt>
      <trkpt lat="27.982600" lon="-15.519805">
        <ele>823.70</ele>
        <time>2017-12-09T06:53:02Z</time>
      </trkpt>
      <trkpt lat="27.982574" lon="-15.519809">
        <ele>823.78</ele>
        <time>2017-12-09T06:53:04Z</time>
      </trkpt>
      <trkpt lat="27.982545" lon="-15.519820">
        <ele>824.00</ele>
        <time>2017-12-09T06:53:06Z</time>
      </trkpt>
      <trkpt lat="27.982518" lon="-15.519835">
        <ele>824.20</ele>
        <time>2017-12-09T06:53:08Z</time>
      </trkpt>
      <trkpt lat="27.982499" lon="-15.519843">
        <ele>824.90</ele>
        <time>2017-12-09T06:53:10Z</time>
      </trkpt>
      <trkpt lat="27.982484" lon="-15.519858">
        <ele>825.08</ele>
        <time>2017-12-09T06:53:12Z</time>
      </trkpt>
      <trkpt lat="27.982464" lon="-15.519874">
        <ele>825.30</ele>
        <time>2017-12-09T06:53:14Z</time>
      </trkpt>
      <trkpt lat="27.982444" lon="-15.519881">
        <ele>825.60</ele>
        <time>2017-12-09T06:53:16Z</time>
      </trkpt>
      <trkpt lat="27.982422" lon="-15.519889">
        <ele>825.78</ele>
        <time>2017-12-09T06:53:18Z</time>
      </trkpt>
      <trkpt lat="27.982399" lon="-15.519896">
        <ele>826.92</ele>
        <time>2017-12-09T06:53:20Z</time>
      </trkpt>
      <trkpt lat="27.982375" lon="-15.519910">
        <ele>827.16</ele>
        <time>2017-12-09T06:53:22Z</time>
      </trkpt>
      <trkpt lat="27.982352" lon="-15.519916">
        <ele>827.78</ele>
        <time>2017-12-09T06:53:24Z</time>
      </trkpt>
      <trkpt lat="27.982329" lon="-15.519920">
        <ele>828.42</ele>
        <time>2017-12-09T06:53:26Z</time>
      </trkpt>
      <trkpt lat="27.982307" lon="-15.519924">
        <ele>828.76</ele>
        <time>2017-12-09T06:53:28Z</time>
      </trkpt>
      <trkpt lat="27.982285" lon="-15.519923">
        <ele>828.90</ele>
        <time>2017-12-09T06:53:30Z</time>
      </trkpt>
      <trkpt lat="27.982257" lon="-15.519925">
        <ele>829.35</ele>
        <time>2017-12-09T06:53:32Z</time>
      </trkpt>
      <trkpt lat="27.982232" lon="-15.519925">
        <ele>829.80</ele>
        <time>2017-12-09T06:53:34Z</time>
      </trkpt>
      <trkpt lat="27.982211" lon="-15.519923">
        <ele>830.08</ele>
        <time>2017-12-09T06:53:36Z</time>
      </trkpt>
      <trkpt lat="27.982184" lon="-15.519925">
        <ele>830.69</ele>
        <time>2017-12-09T06:53:38Z</time>
      </trkpt>
      <trkpt lat="27.982162" lon="-15.519919">
        <ele>831.08</ele>
        <time>2017-12-09T06:53:40Z</time>
      </trkpt>
      <trkpt lat="27.982140" lon="-15.519912">
        <ele>831.37</ele>
        <time>2017-12-09T06:53:42Z</time>
      </trkpt>
      <trkpt lat="27.982118" lon="-15.519901">
        <ele>831.41</ele>
        <time>2017-12-09T06:53:44Z</time>
      </trkpt>
      <trkpt lat="27.982094" lon="-15.519894">
        <ele>832.12</ele>
        <time>2017-12-09T06:53:46Z</time>
      </trkpt>
      <trkpt lat="27.982069" lon="-15.519899">
        <ele>832.50</ele>
        <time>2017-12-09T06:53:48Z</time>
      </trkpt>
      <trkpt lat="27.982050" lon="-15.519900">
        <ele>832.89</ele>
        <time>2017-12-09T06:53:50Z</time>
      </trkpt>
      <trkpt lat="27.982032" lon="-15.519905">
        <ele>833.97</ele>
        <time>2017-12-09T06:53:52Z</time>
      </trkpt>
      <trkpt lat="27.982008" lon="-15.519911">
        <ele>834.19</ele>
        <time>2017-12-09T06:53:54Z</time>
      </trkpt>
      <trkpt lat="27.981990" lon="-15.519908">
        <ele>835.19</ele>
        <time>2017-12-09T06:53:56Z</time>
      </trkpt>
      <trkpt lat="27.981963" lon="-15.519909">
        <ele>835.39</ele>
        <time>2017-12-09T06:53:58Z</time>
      </trkpt>
      <trkpt lat="27.981938" lon="-15.519912">
        <ele>835.84</ele>
        <time>2017-12-09T06:54:00Z</time>
      </trkpt>
      <trkpt lat="27.981911" lon="-15.519916">
        <ele>836.00</ele>
        <time>2017-12-09T06:54:02Z</time>
      </trkpt>
      <trkpt lat="27.981885" lon="-15.519919">
        <ele>836.28</ele>
        <time>2017-12-09T06:54:04Z</time>
      </trkpt>
      <trkpt lat="27.981861" lon="-15.519916">
        <ele>836.99</ele>
        <time>2017-12-09T06:54:06Z</time>
      </trkpt>
      <trkpt lat="27.981841" lon="-15.519913">
        <ele>837.19</ele>
        <time>2017-12-09T06:54:08Z</time>
      </trkpt>
      <trkpt lat="27.981819" lon="-15.519909">
        <ele>837.39</ele>
        <time>2017-12-09T06:54:10Z</time>
      </trkpt>
      <trkpt lat="27.981793" lon="-15.519908">
        <ele>837.89</ele>
        <time>2017-12-09T06:54:12Z</time>
      </trkpt>
      <trkpt lat="27.981767" lon="-15.519905">
        <ele>838.20</ele>
        <time>2017-12-09T06:54:14Z</time>
      </trkpt>
      <trkpt lat="27.981745" lon="-15.519897">
        <ele>838.39</ele>
        <time>2017-12-09T06:54:16Z</time>
      </trkpt>
      <trkpt lat="27.981724" lon="-15.519890">
        <ele>838.77</ele>
        <time>2017-12-09T06:54:18Z</time>
      </trkpt>
      <trkpt lat="27.981703" lon="-15.519882">
        <ele>839.09</ele>
        <time>2017-12-09T06:54:20Z</time>
      </trkpt>
      <trkpt lat="27.981682" lon="-15.519875">
        <ele>839.59</ele>
        <time>2017-12-09T06:54:22Z</time>
      </trkpt>
      <trkpt lat="27.981661" lon="-15.519866">
        <ele>839.78</ele>
        <time>2017-12-09T06:54:24Z</time>
      </trkpt>
      <trkpt lat="27.981636" lon="-15.519863">
        <ele>839.89</ele>
        <time>2017-12-09T06:54:26Z</time>
      </trkpt>
      <trkpt lat="27.981614" lon="-15.519854">
        <ele>839.99</ele>
        <time>2017-12-09T06:54:28Z</time>
      </trkpt>
      <trkpt lat="27.981593" lon="-15.519845">
        <ele>840.10</ele>
        <time>2017-12-09T06:54:30Z</time>
      </trkpt>
      <trkpt lat="27.981569" lon="-15.519843">
        <ele>840.97</ele>
        <time>2017-12-09T06:54:32Z</time>
      </trkpt>
      <trkpt lat="27.981548" lon="-15.519839">
        <ele>841.10</ele>
        <time>2017-12-09T06:54:34Z</time>
      </trkpt>
      <trkpt lat="27.981527" lon="-15.519844">
        <ele>841.69</ele>
        <time>2017-12-09T06:54:36Z</time>
      </trkpt>
      <trkpt lat="27.981505" lon="-15.519852">
        <ele>842.00</ele>
        <time>2017-12-09T06:54:38Z</time>
      </trkpt>
      <trkpt lat="27.981488" lon="-15.519866">
        <ele>842.30</ele>
        <time>2017-12-09T06:54:40Z</time>
      </trkpt>
      <trkpt lat="27.981470" lon="-15.519872">
        <ele>843.07</ele>
        <time>2017-12-09T06:54:42Z</time>
      </trkpt>
      <trkpt lat="27.981459" lon="-15.519898">
        <ele>843.39</ele>
        <time>2017-12-09T06:54:45Z</time>
      </trkpt>
      <trkpt lat="27.981441" lon="-15.519921">
        <ele>843.50</ele>
        <time>2017-12-09T06:54:47Z</time>
      </trkpt>
      <trkpt lat="27.981394" lon="-15.519971">
        <ele>844.40</ele>
        <time>2017-12-09T06:54:53Z</time>
      </trkpt>
      <trkpt lat="27.981378" lon="-15.519991">
        <ele>844.50</ele>
        <time>2017-12-09T06:54:55Z</time>
      </trkpt>
      <trkpt lat="27.981364" lon="-15.520009">
        <ele>844.50</ele>
        <time>2017-12-09T06:54:57Z</time>
      </trkpt>
      <trkpt lat="27.981347" lon="-15.520028">
        <ele>844.60</ele>
        <time>2017-12-09T06:54:59Z</time>
      </trkpt>
      <trkpt lat="27.981326" lon="-15.520038">
        <ele>844.90</ele>
        <time>2017-12-09T06:55:01Z</time>
      </trkpt>
      <trkpt lat="27.981305" lon="-15.520045">
        <ele>845.41</ele>
        <time>2017-12-09T06:55:03Z</time>
      </trkpt>
      <trkpt lat="27.981283" lon="-15.520049">
        <ele>845.81</ele>
        <time>2017-12-09T06:55:06Z</time>
      </trkpt>
      <trkpt lat="27.981264" lon="-15.520050">
        <ele>846.10</ele>
        <time>2017-12-09T06:55:08Z</time>
      </trkpt>
      <trkpt lat="27.981243" lon="-15.520055">
        <ele>846.00</ele>
        <time>2017-12-09T06:55:10Z</time>
      </trkpt>
      <trkpt lat="27.981223" lon="-15.520065">
        <ele>846.10</ele>
        <time>2017-12-09T06:55:12Z</time>
      </trkpt>
      <trkpt lat="27.981194" lon="-15.520094">
        <ele>846.51</ele>
        <time>2017-12-09T06:55:16Z</time>
      </trkpt>
      <trkpt lat="27.981183" lon="-15.520110">
        <ele>846.81</ele>
        <time>2017-12-09T06:55:18Z</time>
      </trkpt>
      <trkpt lat="27.981191" lon="-15.520142">
        <ele>847.41</ele>
        <time>2017-12-09T06:55:21Z</time>
      </trkpt>
      <trkpt lat="27.981199" lon="-15.520163">
        <ele>847.60</ele>
        <time>2017-12-09T06:55:23Z</time>
      </trkpt>
      <trkpt lat="27.981203" lon="-15.520186">
        <ele>848.55</ele>
        <time>2017-12-09T06:55:26Z</time>
      </trkpt>
      <trkpt lat="27.981207" lon="-15.520211">
        <ele>849.81</ele>
        <time>2017-12-09T06:55:29Z</time>
      </trkpt>
      <trkpt lat="27.981208" lon="-15.520239">
        <ele>850.11</ele>
        <time>2017-12-09T06:55:32Z</time>
      </trkpt>
      <trkpt lat="27.981209" lon="-15.520260">
        <ele>850.42</ele>
        <time>2017-12-09T06:55:34Z</time>
      </trkpt>
      <trkpt lat="27.981195" lon="-15.520273">
        <ele>850.81</ele>
        <time>2017-12-09T06:55:37Z</time>
      </trkpt>
      <trkpt lat="27.981168" lon="-15.520268">
        <ele>851.00</ele>
        <time>2017-12-09T06:55:40Z</time>
      </trkpt>
      <trkpt lat="27.981153" lon="-15.520255">
        <ele>851.22</ele>
        <time>2017-12-09T06:55:42Z</time>
      </trkpt>
      <trkpt lat="27.981140" lon="-15.520240">
        <ele>851.70</ele>
        <time>2017-12-09T06:55:44Z</time>
      </trkpt>
      <trkpt lat="27.981129" lon="-15.520222">
        <ele>851.93</ele>
        <time>2017-12-09T06:55:46Z</time>
      </trkpt>
      <trkpt lat="27.981115" lon="-15.520206">
        <ele>852.44</ele>
        <time>2017-12-09T06:55:49Z</time>
      </trkpt>
      <trkpt lat="27.981095" lon="-15.520190">
        <ele>853.44</ele>
        <time>2017-12-09T06:55:58Z</time>
      </trkpt>
      <trkpt lat="27.981070" lon="-15.520182">
        <ele>853.20</ele>
        <time>2017-12-09T06:56:01Z</time>
      </trkpt>
      <trkpt lat="27.981046" lon="-15.520178">
        <ele>853.40</ele>
        <time>2017-12-09T06:56:03Z</time>
      </trkpt>
      <trkpt lat="27.981023" lon="-15.520169">
        <ele>853.52</ele>
        <time>2017-12-09T06:56:05Z</time>
      </trkpt>
      <trkpt lat="27.981002" lon="-15.520174">
        <ele>853.64</ele>
        <time>2017-12-09T06:56:07Z</time>
      </trkpt>
      <trkpt lat="27.980977" lon="-15.520186">
        <ele>853.90</ele>
        <time>2017-12-09T06:56:09Z</time>
      </trkpt>
      <trkpt lat="27.980960" lon="-15.520194">
        <ele>854.40</ele>
        <time>2017-12-09T06:56:11Z</time>
      </trkpt>
      <trkpt lat="27.980934" lon="-15.520207">
        <ele>854.82</ele>
        <time>2017-12-09T06:56:13Z</time>
      </trkpt>
      <trkpt lat="27.980916" lon="-15.520216">
        <ele>855.23</ele>
        <time>2017-12-09T06:56:15Z</time>
      </trkpt>
      <trkpt lat="27.980897" lon="-15.520223">
        <ele>855.98</ele>
        <time>2017-12-09T06:56:17Z</time>
      </trkpt>
      <trkpt lat="27.980880" lon="-15.520235">
        <ele>856.58</ele>
        <time>2017-12-09T06:56:19Z</time>
      </trkpt>
      <trkpt lat="27.980858" lon="-15.520247">
        <ele>856.93</ele>
        <time>2017-12-09T06:56:21Z</time>
      </trkpt>
      <trkpt lat="27.980836" lon="-15.520254">
        <ele>857.31</ele>
        <time>2017-12-09T06:56:23Z</time>
      </trkpt>
      <trkpt lat="27.980818" lon="-15.520259">
        <ele>858.20</ele>
        <time>2017-12-09T06:56:25Z</time>
      </trkpt>
      <trkpt lat="27.980795" lon="-15.520271">
        <ele>858.95</ele>
        <time>2017-12-09T06:56:28Z</time>
      </trkpt>
      <trkpt lat="27.980773" lon="-15.520277">
        <ele>859.47</ele>
        <time>2017-12-09T06:56:30Z</time>
      </trkpt>
      <trkpt lat="27.980749" lon="-15.520282">
        <ele>859.97</ele>
        <time>2017-12-09T06:56:33Z</time>
      </trkpt>
      <trkpt lat="27.980729" lon="-15.520288">
        <ele>860.37</ele>
        <time>2017-12-09T06:56:35Z</time>
      </trkpt>
      <trkpt lat="27.980712" lon="-15.520296">
        <ele>860.64</ele>
        <time>2017-12-09T06:56:37Z</time>
      </trkpt>
      <trkpt lat="27.980693" lon="-15.520296">
        <ele>861.14</ele>
        <time>2017-12-09T06:56:39Z</time>
      </trkpt>
      <trkpt lat="27.980665" lon="-15.520295">
        <ele>861.87</ele>
        <time>2017-12-09T06:56:42Z</time>
      </trkpt>
      <trkpt lat="27.980645" lon="-15.520299">
        <ele>862.94</ele>
        <time>2017-12-09T06:56:44Z</time>
      </trkpt>
      <trkpt lat="27.980618" lon="-15.520305">
        <ele>863.11</ele>
        <time>2017-12-09T06:56:47Z</time>
      </trkpt>
      <trkpt lat="27.980595" lon="-15.520314">
        <ele>863.85</ele>
        <time>2017-12-09T06:56:50Z</time>
      </trkpt>
      <trkpt lat="27.980576" lon="-15.520322">
        <ele>864.18</ele>
        <time>2017-12-09T06:56:52Z</time>
      </trkpt>
      <trkpt lat="27.980551" lon="-15.520339">
        <ele>864.64</ele>
        <time>2017-12-09T06:56:55Z</time>
      </trkpt>
      <trkpt lat="27.980533" lon="-15.520348">
        <ele>865.18</ele>
        <time>2017-12-09T06:56:57Z</time>
      </trkpt>
      <trkpt lat="27.980508" lon="-15.520350">
        <ele>866.18</ele>
        <time>2017-12-09T06:57:00Z</time>
      </trkpt>
      <trkpt lat="27.980489" lon="-15.520355">
        <ele>866.34</ele>
        <time>2017-12-09T06:57:02Z</time>
      </trkpt>
      <trkpt lat="27.980469" lon="-15.520361">
        <ele>866.76</ele>
        <time>2017-12-09T06:57:04Z</time>
      </trkpt>
      <trkpt lat="27.980449" lon="-15.520364">
        <ele>867.04</ele>
        <time>2017-12-09T06:57:06Z</time>
      </trkpt>
      <trkpt lat="27.980432" lon="-15.520375">
        <ele>867.49</ele>
        <time>2017-12-09T06:57:08Z</time>
      </trkpt>
      <trkpt lat="27.980416" lon="-15.520390">
        <ele>868.45</ele>
        <time>2017-12-09T06:57:10Z</time>
      </trkpt>
      <trkpt lat="27.980398" lon="-15.520402">
        <ele>868.89</ele>
        <time>2017-12-09T06:57:12Z</time>
      </trkpt>
      <trkpt lat="27.980380" lon="-15.520414">
        <ele>869.39</ele>
        <time>2017-12-09T06:57:14Z</time>
      </trkpt>
      <trkpt lat="27.980362" lon="-15.520426">
        <ele>870.04</ele>
        <time>2017-12-09T06:57:16Z</time>
      </trkpt>
      <trkpt lat="27.980336" lon="-15.520437">
        <ele>870.80</ele>
        <time>2017-12-09T06:57:19Z</time>
      </trkpt>
      <trkpt lat="27.980317" lon="-15.520445">
        <ele>871.05</ele>
        <time>2017-12-09T06:57:21Z</time>
      </trkpt>
      <trkpt lat="27.980298" lon="-15.520456">
        <ele>871.50</ele>
        <time>2017-12-09T06:57:23Z</time>
      </trkpt>
      <trkpt lat="27.980282" lon="-15.520477">
        <ele>871.78</ele>
        <time>2017-12-09T06:57:25Z</time>
      </trkpt>
      <trkpt lat="27.980263" lon="-15.520490">
        <ele>872.25</ele>
        <time>2017-12-09T06:57:27Z</time>
      </trkpt>
      <trkpt lat="27.980244" lon="-15.520508">
        <ele>872.84</ele>
        <time>2017-12-09T06:57:29Z</time>
      </trkpt>
      <trkpt lat="27.980227" lon="-15.520515">
        <ele>873.25</ele>
        <time>2017-12-09T06:57:31Z</time>
      </trkpt>
      <trkpt lat="27.980208" lon="-15.520523">
        <ele>873.85</ele>
        <time>2017-12-09T06:57:33Z</time>
      </trkpt>
      <trkpt lat="27.980191" lon="-15.520532">
        <ele>874.05</ele>
        <time>2017-12-09T06:57:35Z</time>
      </trkpt>
      <trkpt lat="27.980171" lon="-15.520540">
        <ele>874.95</ele>
        <time>2017-12-09T06:57:37Z</time>
      </trkpt>
      <trkpt lat="27.980156" lon="-15.520553">
        <ele>875.75</ele>
        <time>2017-12-09T06:57:39Z</time>
      </trkpt>
      <trkpt lat="27.980131" lon="-15.520554">
        <ele>876.50</ele>
        <time>2017-12-09T06:57:41Z</time>
      </trkpt>
      <trkpt lat="27.980109" lon="-15.520554">
        <ele>876.76</ele>
        <time>2017-12-09T06:57:43Z</time>
      </trkpt>
      <trkpt lat="27.980088" lon="-15.520553">
        <ele>877.45</ele>
        <time>2017-12-09T06:57:45Z</time>
      </trkpt>
      <trkpt lat="27.980067" lon="-15.520557">
        <ele>877.55</ele>
        <time>2017-12-09T06:57:47Z</time>
      </trkpt>
      <trkpt lat="27.980045" lon="-15.520566">
        <ele>878.24</ele>
        <time>2017-12-09T06:57:50Z</time>
      </trkpt>
      <trkpt lat="27.980023" lon="-15.520576">
        <ele>878.74</ele>
        <time>2017-12-09T06:57:52Z</time>
      </trkpt>
      <trkpt lat="27.980001" lon="-15.520586">
        <ele>879.25</ele>
        <time>2017-12-09T06:57:55Z</time>
      </trkpt>
      <trkpt lat="27.979974" lon="-15.520591">
        <ele>880.30</ele>
        <time>2017-12-09T06:57:58Z</time>
      </trkpt>
      <trkpt lat="27.979954" lon="-15.520601">
        <ele>880.70</ele>
        <time>2017-12-09T06:58:00Z</time>
      </trkpt>
      <trkpt lat="27.979942" lon="-15.520628">
        <ele>881.84</ele>
        <time>2017-12-09T06:58:03Z</time>
      </trkpt>
      <trkpt lat="27.979926" lon="-15.520651">
        <ele>882.40</ele>
        <time>2017-12-09T06:58:06Z</time>
      </trkpt>
      <trkpt lat="27.979909" lon="-15.520666">
        <ele>882.98</ele>
        <time>2017-12-09T06:58:08Z</time>
      </trkpt>
      <trkpt lat="27.979891" lon="-15.520690">
        <ele>883.77</ele>
        <time>2017-12-09T06:58:11Z</time>
      </trkpt>
      <trkpt lat="27.979876" lon="-15.520709">
        <ele>884.30</ele>
        <time>2017-12-09T06:58:13Z</time>
      </trkpt>
      <trkpt lat="27.979862" lon="-15.520726">
        <ele>884.44</ele>
        <time>2017-12-09T06:58:15Z</time>
      </trkpt>
      <trkpt lat="27.979847" lon="-15.520745">
        <ele>884.90</ele>
        <time>2017-12-09T06:58:17Z</time>
      </trkpt>
      <trkpt lat="27.979829" lon="-15.520755">
        <ele>885.33</ele>
        <time>2017-12-09T06:58:20Z</time>
      </trkpt>
      <trkpt lat="27.979805" lon="-15.520756">
        <ele>885.60</ele>
        <time>2017-12-09T06:58:23Z</time>
      </trkpt>
      <trkpt lat="27.979786" lon="-15.520769">
        <ele>886.60</ele>
        <time>2017-12-09T06:58:26Z</time>
      </trkpt>
      <trkpt lat="27.979762" lon="-15.520778">
        <ele>887.34</ele>
        <time>2017-12-09T06:58:29Z</time>
      </trkpt>
      <trkpt lat="27.979742" lon="-15.520785">
        <ele>887.85</ele>
        <time>2017-12-09T06:58:31Z</time>
      </trkpt>
      <trkpt lat="27.979723" lon="-15.520802">
        <ele>888.10</ele>
        <time>2017-12-09T06:58:34Z</time>
      </trkpt>
      <trkpt lat="27.979698" lon="-15.520796">
        <ele>888.95</ele>
        <time>2017-12-09T06:58:37Z</time>
      </trkpt>
      <trkpt lat="27.979678" lon="-15.520801">
        <ele>889.60</ele>
        <time>2017-12-09T06:58:40Z</time>
      </trkpt>
      <trkpt lat="27.979655" lon="-15.520804">
        <ele>890.81</ele>
        <time>2017-12-09T06:58:43Z</time>
      </trkpt>
      <trkpt lat="27.979630" lon="-15.520796">
        <ele>891.30</ele>
        <time>2017-12-09T06:58:46Z</time>
      </trkpt>
      <trkpt lat="27.979607" lon="-15.520802">
        <ele>892.06</ele>
        <time>2017-12-09T06:58:49Z</time>
      </trkpt>
      <trkpt lat="27.979586" lon="-15.520814">
        <ele>893.41</ele>
        <time>2017-12-09T06:58:53Z</time>
      </trkpt>
      <trkpt lat="27.979567" lon="-15.520824">
        <ele>893.40</ele>
        <time>2017-12-09T06:58:56Z</time>
      </trkpt>
      <trkpt lat="27.979547" lon="-15.520832">
        <ele>894.25</ele>
        <time>2017-12-09T06:58:59Z</time>
      </trkpt>
      <trkpt lat="27.979527" lon="-15.520825">
        <ele>895.12</ele>
        <time>2017-12-09T06:59:02Z</time>
      </trkpt>
      <trkpt lat="27.979509" lon="-15.520828">
        <ele>895.50</ele>
        <time>2017-12-09T06:59:04Z</time>
      </trkpt>
      <trkpt lat="27.979485" lon="-15.520833">
        <ele>896.26</ele>
        <time>2017-12-09T06:59:07Z</time>
      </trkpt>
      <trkpt lat="27.979464" lon="-15.520837">
        <ele>896.61</ele>
        <time>2017-12-09T06:59:10Z</time>
      </trkpt>
      <trkpt lat="27.979440" lon="-15.520825">
        <ele>897.32</ele>
        <time>2017-12-09T06:59:13Z</time>
      </trkpt>
      <trkpt lat="27.979415" lon="-15.520820">
        <ele>898.10</ele>
        <time>2017-12-09T06:59:16Z</time>
      </trkpt>
      <trkpt lat="27.979393" lon="-15.520828">
        <ele>898.33</ele>
        <time>2017-12-09T06:59:19Z</time>
      </trkpt>
      <trkpt lat="27.979373" lon="-15.520832">
        <ele>898.61</ele>
        <time>2017-12-09T06:59:21Z</time>
      </trkpt>
      <trkpt lat="27.979352" lon="-15.520833">
        <ele>898.93</ele>
        <time>2017-12-09T06:59:23Z</time>
      </trkpt>
      <trkpt lat="27.979332" lon="-15.520835">
        <ele>899.77</ele>
        <time>2017-12-09T06:59:25Z</time>
      </trkpt>
      <trkpt lat="27.979310" lon="-15.520835">
        <ele>900.02</ele>
        <time>2017-12-09T06:59:27Z</time>
      </trkpt>
      <trkpt lat="27.979292" lon="-15.520833">
        <ele>900.20</ele>
        <time>2017-12-09T06:59:29Z</time>
      </trkpt>
      <trkpt lat="27.979272" lon="-15.520823">
        <ele>900.46</ele>
        <time>2017-12-09T06:59:31Z</time>
      </trkpt>
      <trkpt lat="27.979253" lon="-15.520815">
        <ele>900.76</ele>
        <time>2017-12-09T06:59:33Z</time>
      </trkpt>
      <trkpt lat="27.979235" lon="-15.520824">
        <ele>901.42</ele>
        <time>2017-12-09T06:59:35Z</time>
      </trkpt>
      <trkpt lat="27.979218" lon="-15.520835">
        <ele>901.50</ele>
        <time>2017-12-09T06:59:37Z</time>
      </trkpt>
      <trkpt lat="27.979213" lon="-15.520860">
        <ele>901.70</ele>
        <time>2017-12-09T06:59:39Z</time>
      </trkpt>
      <trkpt lat="27.979207" lon="-15.520882">
        <ele>902.29</ele>
        <time>2017-12-09T06:59:41Z</time>
      </trkpt>
      <trkpt lat="27.979200" lon="-15.520907">
        <ele>902.70</ele>
        <time>2017-12-09T06:59:43Z</time>
      </trkpt>
      <trkpt lat="27.979183" lon="-15.520924">
        <ele>903.59</ele>
        <time>2017-12-09T06:59:46Z</time>
      </trkpt>
      <trkpt lat="27.979158" lon="-15.520929">
        <ele>904.10</ele>
        <time>2017-12-09T06:59:49Z</time>
      </trkpt>
      <trkpt lat="27.979141" lon="-15.520915">
        <ele>904.40</ele>
        <time>2017-12-09T06:59:51Z</time>
      </trkpt>
      <trkpt lat="27.979126" lon="-15.520895">
        <ele>905.27</ele>
        <time>2017-12-09T06:59:54Z</time>
      </trkpt>
      <trkpt lat="27.979103" lon="-15.520898">
        <ele>905.67</ele>
        <time>2017-12-09T06:59:57Z</time>
      </trkpt>
      <trkpt lat="27.979081" lon="-15.520914">
        <ele>906.95</ele>
        <time>2017-12-09T07:00:00Z</time>
      </trkpt>
      <trkpt lat="27.979059" lon="-15.520928">
        <ele>907.40</ele>
        <time>2017-12-09T07:00:03Z</time>
      </trkpt>
      <trkpt lat="27.979036" lon="-15.520935">
        <ele>907.61</ele>
        <time>2017-12-09T07:00:06Z</time>
      </trkpt>
      <trkpt lat="27.979014" lon="-15.520941">
        <ele>908.33</ele>
        <time>2017-12-09T07:00:09Z</time>
      </trkpt>
      <trkpt lat="27.978994" lon="-15.520940">
        <ele>909.10</ele>
        <time>2017-12-09T07:00:11Z</time>
      </trkpt>
      <trkpt lat="27.978971" lon="-15.520940">
        <ele>910.05</ele>
        <time>2017-12-09T07:00:14Z</time>
      </trkpt>
      <trkpt lat="27.978951" lon="-15.520943">
        <ele>910.45</ele>
        <time>2017-12-09T07:00:16Z</time>
      </trkpt>
      <trkpt lat="27.978926" lon="-15.520947">
        <ele>910.75</ele>
        <time>2017-12-09T07:00:19Z</time>
      </trkpt>
      <trkpt lat="27.978908" lon="-15.520953">
        <ele>911.05</ele>
        <time>2017-12-09T07:00:21Z</time>
      </trkpt>
      <trkpt lat="27.978890" lon="-15.520957">
        <ele>911.90</ele>
        <time>2017-12-09T07:00:23Z</time>
      </trkpt>
      <trkpt lat="27.978876" lon="-15.520941">
        <ele>912.12</ele>
        <time>2017-12-09T07:00:26Z</time>
      </trkpt>
      <trkpt lat="27.978870" lon="-15.520919">
        <ele>912.97</ele>
        <time>2017-12-09T07:00:28Z</time>
      </trkpt>
      <trkpt lat="27.978870" lon="-15.520899">
        <ele>913.46</ele>
        <time>2017-12-09T07:00:30Z</time>
      </trkpt>
      <trkpt lat="27.978864" lon="-15.520877">
        <ele>913.66</ele>
        <time>2017-12-09T07:00:32Z</time>
      </trkpt>
      <trkpt lat="27.978846" lon="-15.520864">
        <ele>913.90</ele>
        <time>2017-12-09T07:00:34Z</time>
      </trkpt>
      <trkpt lat="27.978824" lon="-15.520869">
        <ele>914.12</ele>
        <time>2017-12-09T07:00:36Z</time>
      </trkpt>
      <trkpt lat="27.978808" lon="-15.520879">
        <ele>915.06</ele>
        <time>2017-12-09T07:00:39Z</time>
      </trkpt>
      <trkpt lat="27.978783" lon="-15.520885">
        <ele>915.42</ele>
        <time>2017-12-09T07:00:42Z</time>
      </trkpt>
      <trkpt lat="27.978758" lon="-15.520886">
        <ele>917.02</ele>
        <time>2017-12-09T07:00:45Z</time>
      </trkpt>
      <trkpt lat="27.978736" lon="-15.520886">
        <ele>917.20</ele>
        <time>2017-12-09T07:00:48Z</time>
      </trkpt>
      <trkpt lat="27.978713" lon="-15.520890">
        <ele>917.64</ele>
        <time>2017-12-09T07:00:50Z</time>
      </trkpt>
      <trkpt lat="27.978695" lon="-15.520897">
        <ele>918.00</ele>
        <time>2017-12-09T07:00:52Z</time>
      </trkpt>
      <trkpt lat="27.978677" lon="-15.520902">
        <ele>918.26</ele>
        <time>2017-12-09T07:00:54Z</time>
      </trkpt>
      <trkpt lat="27.978649" lon="-15.520908">
        <ele>918.83</ele>
        <time>2017-12-09T07:00:57Z</time>
      </trkpt>
      <trkpt lat="27.978625" lon="-15.520900">
        <ele>919.30</ele>
        <time>2017-12-09T07:01:00Z</time>
      </trkpt>
      <trkpt lat="27.978605" lon="-15.520882">
        <ele>919.97</ele>
        <time>2017-12-09T07:01:03Z</time>
      </trkpt>
      <trkpt lat="27.978587" lon="-15.520866">
        <ele>921.04</ele>
        <time>2017-12-09T07:01:05Z</time>
      </trkpt>
      <trkpt lat="27.978569" lon="-15.520860">
        <ele>921.30</ele>
        <time>2017-12-09T07:01:07Z</time>
      </trkpt>
      <trkpt lat="27.978549" lon="-15.520881">
        <ele>921.47</ele>
        <time>2017-12-09T07:01:10Z</time>
      </trkpt>
      <trkpt lat="27.978539" lon="-15.520897">
        <ele>921.95</ele>
        <time>2017-12-09T07:01:12Z</time>
      </trkpt>
      <trkpt lat="27.978516" lon="-15.520914">
        <ele>922.44</ele>
        <time>2017-12-09T07:01:15Z</time>
      </trkpt>
      <trkpt lat="27.978500" lon="-15.520928">
        <ele>922.71</ele>
        <time>2017-12-09T07:01:18Z</time>
      </trkpt>
      <trkpt lat="27.978484" lon="-15.520947">
        <ele>923.78</ele>
        <time>2017-12-09T07:01:21Z</time>
      </trkpt>
      <trkpt lat="27.978461" lon="-15.520954">
        <ele>924.50</ele>
        <time>2017-12-09T07:01:24Z</time>
      </trkpt>
      <trkpt lat="27.978437" lon="-15.520961">
        <ele>925.22</ele>
        <time>2017-12-09T07:01:27Z</time>
      </trkpt>
      <trkpt lat="27.978415" lon="-15.520948">
        <ele>925.37</ele>
        <time>2017-12-09T07:01:30Z</time>
      </trkpt>
      <trkpt lat="27.978400" lon="-15.520933">
        <ele>926.24</ele>
        <time>2017-12-09T07:01:32Z</time>
      </trkpt>
      <trkpt lat="27.978380" lon="-15.520928">
        <ele>926.30</ele>
        <time>2017-12-09T07:01:34Z</time>
      </trkpt>
      <trkpt lat="27.978354" lon="-15.520934">
        <ele>927.05</ele>
        <time>2017-12-09T07:01:37Z</time>
      </trkpt>
      <trkpt lat="27.978329" lon="-15.520943">
        <ele>927.33</ele>
        <time>2017-12-09T07:01:40Z</time>
      </trkpt>
      <trkpt lat="27.978305" lon="-15.520953">
        <ele>928.65</ele>
        <time>2017-12-09T07:01:43Z</time>
      </trkpt>
      <trkpt lat="27.978286" lon="-15.520956">
        <ele>928.80</ele>
        <time>2017-12-09T07:01:45Z</time>
      </trkpt>
      <trkpt lat="27.978261" lon="-15.520958">
        <ele>929.98</ele>
        <time>2017-12-09T07:01:48Z</time>
      </trkpt>
      <trkpt lat="27.978236" lon="-15.520962">
        <ele>930.20</ele>
        <time>2017-12-09T07:01:51Z</time>
      </trkpt>
      <trkpt lat="27.978210" lon="-15.520968">
        <ele>931.67</ele>
        <time>2017-12-09T07:01:54Z</time>
      </trkpt>
      <trkpt lat="27.978186" lon="-15.520979">
        <ele>932.29</ele>
        <time>2017-12-09T07:01:57Z</time>
      </trkpt>
      <trkpt lat="27.978166" lon="-15.520983">
        <ele>932.80</ele>
        <time>2017-12-09T07:02:00Z</time>
      </trkpt>
      <trkpt lat="27.978147" lon="-15.520978">
        <ele>933.59</ele>
        <time>2017-12-09T07:02:03Z</time>
      </trkpt>
      <trkpt lat="27.978124" lon="-15.520980">
        <ele>934.70</ele>
        <time>2017-12-09T07:02:06Z</time>
      </trkpt>
      <trkpt lat="27.978102" lon="-15.520980">
        <ele>935.00</ele>
        <time>2017-12-09T07:02:09Z</time>
      </trkpt>
      <trkpt lat="27.978079" lon="-15.520974">
        <ele>935.51</ele>
        <time>2017-12-09T07:02:12Z</time>
      </trkpt>
      <trkpt lat="27.978053" lon="-15.520971">
        <ele>936.30</ele>
        <time>2017-12-09T07:02:15Z</time>
      </trkpt>
      <trkpt lat="27.978030" lon="-15.520965">
        <ele>937.00</ele>
        <time>2017-12-09T07:02:18Z</time>
      </trkpt>
      <trkpt lat="27.978008" lon="-15.520958">
        <ele>937.82</ele>
        <time>2017-12-09T07:02:21Z</time>
      </trkpt>
      <trkpt lat="27.977987" lon="-15.520960">
        <ele>938.31</ele>
        <time>2017-12-09T07:02:23Z</time>
      </trkpt>
      <trkpt lat="27.977972" lon="-15.520977">
        <ele>938.73</ele>
        <time>2017-12-09T07:02:26Z</time>
      </trkpt>
      <trkpt lat="27.977960" lon="-15.521005">
        <ele>939.24</ele>
        <time>2017-12-09T07:02:29Z</time>
      </trkpt>
      <trkpt lat="27.977935" lon="-15.521013">
        <ele>940.01</ele>
        <time>2017-12-09T07:02:33Z</time>
      </trkpt>
      <trkpt lat="27.977919" lon="-15.520995">
        <ele>940.31</ele>
        <time>2017-12-09T07:02:36Z</time>
      </trkpt>
      <trkpt lat="27.977901" lon="-15.520969">
        <ele>941.03</ele>
        <time>2017-12-09T07:02:39Z</time>
      </trkpt>
      <trkpt lat="27.977882" lon="-15.520950">
        <ele>941.58</ele>
        <time>2017-12-09T07:02:41Z</time>
      </trkpt>
      <trkpt lat="27.977867" lon="-15.520938">
        <ele>942.11</ele>
        <time>2017-12-09T07:02:43Z</time>
      </trkpt>
      <trkpt lat="27.977847" lon="-15.520929">
        <ele>942.81</ele>
        <time>2017-12-09T07:02:45Z</time>
      </trkpt>
      <trkpt lat="27.977827" lon="-15.520923">
        <ele>942.93</ele>
        <time>2017-12-09T07:02:47Z</time>
      </trkpt>
      <trkpt lat="27.977802" lon="-15.520920">
        <ele>943.57</ele>
        <time>2017-12-09T07:02:49Z</time>
      </trkpt>
      <trkpt lat="27.977793" lon="-15.520950">
        <ele>944.31</ele>
        <time>2017-12-09T07:02:52Z</time>
      </trkpt>
      <trkpt lat="27.977798" lon="-15.520972">
        <ele>944.63</ele>
        <time>2017-12-09T07:02:54Z</time>
      </trkpt>
      <trkpt lat="27.977801" lon="-15.520996">
        <ele>944.98</ele>
        <time>2017-12-09T07:02:57Z</time>
      </trkpt>
      <trkpt lat="27.977786" lon="-15.521013">
        <ele>945.50</ele>
        <time>2017-12-09T07:02:59Z</time>
      </trkpt>
      <trkpt lat="27.977764" lon="-15.521023">
        <ele>945.51</ele>
        <time>2017-12-09T07:03:01Z</time>
      </trkpt>
      <trkpt lat="27.977739" lon="-15.521021">
        <ele>945.81</ele>
        <time>2017-12-09T07:03:04Z</time>
      </trkpt>
      <trkpt lat="27.977735" lon="-15.520991">
        <ele>946.10</ele>
        <time>2017-12-09T07:03:07Z</time>
      </trkpt>
      <trkpt lat="27.977734" lon="-15.520965">
        <ele>947.03</ele>
        <time>2017-12-09T07:03:09Z</time>
      </trkpt>
      <trkpt lat="27.977724" lon="-15.520945">
        <ele>947.82</ele>
        <time>2017-12-09T07:03:11Z</time>
      </trkpt>
      <trkpt lat="27.977705" lon="-15.520937">
        <ele>947.95</ele>
        <time>2017-12-09T07:03:13Z</time>
      </trkpt>
      <trkpt lat="27.977684" lon="-15.520940">
        <ele>948.60</ele>
        <time>2017-12-09T07:03:15Z</time>
      </trkpt>
      <trkpt lat="27.977667" lon="-15.520964">
        <ele>949.12</ele>
        <time>2017-12-09T07:03:18Z</time>
      </trkpt>
      <trkpt lat="27.977664" lon="-15.520985">
        <ele>949.62</ele>
        <time>2017-12-09T07:03:20Z</time>
      </trkpt>
      <trkpt lat="27.977653" lon="-15.521004">
        <ele>950.20</ele>
        <time>2017-12-09T07:03:22Z</time>
      </trkpt>
      <trkpt lat="27.977634" lon="-15.521013">
        <ele>950.22</ele>
        <time>2017-12-09T07:03:24Z</time>
      </trkpt>
      <trkpt lat="27.977608" lon="-15.521006">
        <ele>950.36</ele>
        <time>2017-12-09T07:03:27Z</time>
      </trkpt>
      <trkpt lat="27.977598" lon="-15.520985">
        <ele>950.82</ele>
        <time>2017-12-09T07:03:29Z</time>
      </trkpt>
      <trkpt lat="27.977595" lon="-15.520957">
        <ele>951.52</ele>
        <time>2017-12-09T07:03:31Z</time>
      </trkpt>
      <trkpt lat="27.977595" lon="-15.520935">
        <ele>951.62</ele>
        <time>2017-12-09T07:03:33Z</time>
      </trkpt>
      <trkpt lat="27.977584" lon="-15.520914">
        <ele>951.82</ele>
        <time>2017-12-09T07:03:35Z</time>
      </trkpt>
      <trkpt lat="27.977560" lon="-15.520903">
        <ele>951.99</ele>
        <time>2017-12-09T07:03:37Z</time>
      </trkpt>
      <trkpt lat="27.977543" lon="-15.520924">
        <ele>952.62</ele>
        <time>2017-12-09T07:03:40Z</time>
      </trkpt>
      <trkpt lat="27.977546" lon="-15.520946">
        <ele>952.99</ele>
        <time>2017-12-09T07:03:42Z</time>
      </trkpt>
      <trkpt lat="27.977541" lon="-15.520966">
        <ele>953.70</ele>
        <time>2017-12-09T07:03:44Z</time>
      </trkpt>
      <trkpt lat="27.977524" lon="-15.520979">
        <ele>953.70</ele>
        <time>2017-12-09T07:03:46Z</time>
      </trkpt>
      <trkpt lat="27.977505" lon="-15.520987">
        <ele>954.23</ele>
        <time>2017-12-09T07:03:48Z</time>
      </trkpt>
      <trkpt lat="27.977484" lon="-15.520989">
        <ele>954.70</ele>
        <time>2017-12-09T07:03:50Z</time>
      </trkpt>
      <trkpt lat="27.977466" lon="-15.520966">
        <ele>955.13</ele>
        <time>2017-12-09T07:03:53Z</time>
      </trkpt>
      <trkpt lat="27.977451" lon="-15.520945">
        <ele>955.56</ele>
        <time>2017-12-09T07:03:56Z</time>
      </trkpt>
      <trkpt lat="27.977446" lon="-15.520923">
        <ele>956.00</ele>
        <time>2017-12-09T07:03:58Z</time>
      </trkpt>
      <trkpt lat="27.977444" lon="-15.520899">
        <ele>957.02</ele>
        <time>2017-12-09T07:04:00Z</time>
      </trkpt>
      <trkpt lat="27.977428" lon="-15.520881">
        <ele>957.37</ele>
        <time>2017-12-09T07:04:02Z</time>
      </trkpt>
      <trkpt lat="27.977410" lon="-15.520887">
        <ele>958.03</ele>
        <time>2017-12-09T07:04:04Z</time>
      </trkpt>
      <trkpt lat="27.977393" lon="-15.520909">
        <ele>958.30</ele>
        <time>2017-12-09T07:04:07Z</time>
      </trkpt>
      <trkpt lat="27.977373" lon="-15.520919">
        <ele>959.07</ele>
        <time>2017-12-09T07:04:10Z</time>
      </trkpt>
      <trkpt lat="27.977352" lon="-15.520910">
        <ele>959.87</ele>
        <time>2017-12-09T07:04:13Z</time>
      </trkpt>
      <trkpt lat="27.977347" lon="-15.520887">
        <ele>960.04</ele>
        <time>2017-12-09T07:04:15Z</time>
      </trkpt>
      <trkpt lat="27.977342" lon="-15.520862">
        <ele>960.80</ele>
        <time>2017-12-09T07:04:17Z</time>
      </trkpt>
      <trkpt lat="27.977320" lon="-15.520856">
        <ele>960.90</ele>
        <time>2017-12-09T07:04:20Z</time>
      </trkpt>
      <trkpt lat="27.977316" lon="-15.520884">
        <ele>961.34</ele>
        <time>2017-12-09T07:04:22Z</time>
      </trkpt>
      <trkpt lat="27.977317" lon="-15.520905">
        <ele>961.42</ele>
        <time>2017-12-09T07:04:24Z</time>
      </trkpt>
      <trkpt lat="27.977308" lon="-15.520931">
        <ele>961.78</ele>
        <time>2017-12-09T07:04:27Z</time>
      </trkpt>
      <trkpt lat="27.977280" lon="-15.520943">
        <ele>962.44</ele>
        <time>2017-12-09T07:04:30Z</time>
      </trkpt>
      <trkpt lat="27.977258" lon="-15.520944">
        <ele>963.40</ele>
        <time>2017-12-09T07:04:33Z</time>
      </trkpt>
      <trkpt lat="27.977257" lon="-15.520923">
        <ele>963.99</ele>
        <time>2017-12-09T07:04:37Z</time>
      </trkpt>
      <trkpt lat="27.977262" lon="-15.520898">
        <ele>964.40</ele>
        <time>2017-12-09T07:04:39Z</time>
      </trkpt>
      <trkpt lat="27.977264" lon="-15.520872">
        <ele>964.83</ele>
        <time>2017-12-09T07:04:41Z</time>
      </trkpt>
      <trkpt lat="27.977255" lon="-15.520849">
        <ele>965.38</ele>
        <time>2017-12-09T07:04:43Z</time>
      </trkpt>
      <trkpt lat="27.977236" lon="-15.520835">
        <ele>965.94</ele>
        <time>2017-12-09T07:04:45Z</time>
      </trkpt>
      <trkpt lat="27.977218" lon="-15.520824">
        <ele>966.15</ele>
        <time>2017-12-09T07:04:47Z</time>
      </trkpt>
      <trkpt lat="27.977194" lon="-15.520811">
        <ele>966.70</ele>
        <time>2017-12-09T07:04:50Z</time>
      </trkpt>
      <trkpt lat="27.977168" lon="-15.520810">
        <ele>967.55</ele>
        <time>2017-12-09T07:04:53Z</time>
      </trkpt>
      <trkpt lat="27.977152" lon="-15.520825">
        <ele>968.00</ele>
        <time>2017-12-09T07:04:56Z</time>
      </trkpt>
      <trkpt lat="27.977147" lon="-15.520856">
        <ele>968.60</ele>
        <time>2017-12-09T07:04:59Z</time>
      </trkpt>
      <trkpt lat="27.977143" lon="-15.520878">
        <ele>968.70</ele>
        <time>2017-12-09T07:05:01Z</time>
      </trkpt>
      <trkpt lat="27.977128" lon="-15.520896">
        <ele>969.05</ele>
        <time>2017-12-09T07:05:03Z</time>
      </trkpt>
      <trkpt lat="27.977106" lon="-15.520909">
        <ele>969.55</ele>
        <time>2017-12-09T07:05:05Z</time>
      </trkpt>
      <trkpt lat="27.977086" lon="-15.520910">
        <ele>969.60</ele>
        <time>2017-12-09T07:05:07Z</time>
      </trkpt>
      <trkpt lat="27.977079" lon="-15.520884">
        <ele>970.21</ele>
        <time>2017-12-09T07:05:10Z</time>
      </trkpt>
      <trkpt lat="27.977089" lon="-15.520861">
        <ele>970.50</ele>
        <time>2017-12-09T07:05:12Z</time>
      </trkpt>
      <trkpt lat="27.977097" lon="-15.520836">
        <ele>971.06</ele>
        <time>2017-12-09T07:05:14Z</time>
      </trkpt>
      <trkpt lat="27.977094" lon="-15.520808">
        <ele>971.64</ele>
        <time>2017-12-09T07:05:16Z</time>
      </trkpt>
      <trkpt lat="27.977084" lon="-15.520787">
        <ele>972.02</ele>
        <time>2017-12-09T07:05:18Z</time>
      </trkpt>
      <trkpt lat="27.977072" lon="-15.520769">
        <ele>972.10</ele>
        <time>2017-12-09T07:05:20Z</time>
      </trkpt>
      <trkpt lat="27.977052" lon="-15.520761">
        <ele>972.32</ele>
        <time>2017-12-09T07:05:22Z</time>
      </trkpt>
      <trkpt lat="27.977032" lon="-15.520771">
        <ele>972.50</ele>
        <time>2017-12-09T07:05:24Z</time>
      </trkpt>
      <trkpt lat="27.977023" lon="-15.520798">
        <ele>973.12</ele>
        <time>2017-12-09T07:05:27Z</time>
      </trkpt>
      <trkpt lat="27.977020" lon="-15.520821">
        <ele>973.46</ele>
        <time>2017-12-09T07:05:29Z</time>
      </trkpt>
      <trkpt lat="27.977016" lon="-15.520843">
        <ele>974.10</ele>
        <time>2017-12-09T07:05:32Z</time>
      </trkpt>
      <trkpt lat="27.977000" lon="-15.520856">
        <ele>974.59</ele>
        <time>2017-12-09T07:05:34Z</time>
      </trkpt>
      <trkpt lat="27.976981" lon="-15.520866">
        <ele>975.07</ele>
        <time>2017-12-09T07:05:36Z</time>
      </trkpt>
      <trkpt lat="27.976957" lon="-15.520878">
        <ele>975.23</ele>
        <time>2017-12-09T07:05:38Z</time>
      </trkpt>
      <trkpt lat="27.976934" lon="-15.520879">
        <ele>975.47</ele>
        <time>2017-12-09T07:05:40Z</time>
      </trkpt>
      <trkpt lat="27.976915" lon="-15.520878">
        <ele>976.57</ele>
        <time>2017-12-09T07:05:43Z</time>
      </trkpt>
      <trkpt lat="27.976922" lon="-15.520856">
        <ele>976.87</ele>
        <time>2017-12-09T07:05:46Z</time>
      </trkpt>
      <trkpt lat="27.976929" lon="-15.520831">
        <ele>977.27</ele>
        <time>2017-12-09T07:05:48Z</time>
      </trkpt>
      <trkpt lat="27.976930" lon="-15.520803">
        <ele>977.74</ele>
        <time>2017-12-09T07:05:50Z</time>
      </trkpt>
      <trkpt lat="27.976932" lon="-15.520778">
        <ele>978.23</ele>
        <time>2017-12-09T07:05:52Z</time>
      </trkpt>
      <trkpt lat="27.976926" lon="-15.520757">
        <ele>978.57</ele>
        <time>2017-12-09T07:05:54Z</time>
      </trkpt>
      <trkpt lat="27.976912" lon="-15.520734">
        <ele>978.80</ele>
        <time>2017-12-09T07:05:57Z</time>
      </trkpt>
      <trkpt lat="27.976893" lon="-15.520733">
        <ele>979.27</ele>
        <time>2017-12-09T07:05:59Z</time>
      </trkpt>
      <trkpt lat="27.976880" lon="-15.520747">
        <ele>979.85</ele>
        <time>2017-12-09T07:06:02Z</time>
      </trkpt>
      <trkpt lat="27.976866" lon="-15.520770">
        <ele>980.63</ele>
        <time>2017-12-09T07:06:05Z</time>
      </trkpt>
      <trkpt lat="27.976848" lon="-15.520780">
        <ele>981.11</ele>
        <time>2017-12-09T07:06:07Z</time>
      </trkpt>
      <trkpt lat="27.976828" lon="-15.520794">
        <ele>981.58</ele>
        <time>2017-12-09T07:06:09Z</time>
      </trkpt>
      <trkpt lat="27.976801" lon="-15.520802">
        <ele>982.07</ele>
        <time>2017-12-09T07:06:12Z</time>
      </trkpt>
      <trkpt lat="27.976778" lon="-15.520816">
        <ele>982.38</ele>
        <time>2017-12-09T07:06:15Z</time>
      </trkpt>
      <trkpt lat="27.976760" lon="-15.520826">
        <ele>983.20</ele>
        <time>2017-12-09T07:06:18Z</time>
      </trkpt>
      <trkpt lat="27.976738" lon="-15.520839">
        <ele>983.64</ele>
        <time>2017-12-09T07:06:20Z</time>
      </trkpt>
      <trkpt lat="27.976713" lon="-15.520848">
        <ele>984.08</ele>
        <time>2017-12-09T07:06:23Z</time>
      </trkpt>
      <trkpt lat="27.976692" lon="-15.520862">
        <ele>984.68</ele>
        <time>2017-12-09T07:06:25Z</time>
      </trkpt>
      <trkpt lat="27.976674" lon="-15.520869">
        <ele>985.31</ele>
        <time>2017-12-09T07:06:27Z</time>
      </trkpt>
      <trkpt lat="27.976654" lon="-15.520867">
        <ele>985.88</ele>
        <time>2017-12-09T07:06:30Z</time>
      </trkpt>
      <trkpt lat="27.976655" lon="-15.520839">
        <ele>986.45</ele>
        <time>2017-12-09T07:06:33Z</time>
      </trkpt>
      <trkpt lat="27.976667" lon="-15.520823">
        <ele>986.50</ele>
        <time>2017-12-09T07:06:35Z</time>
      </trkpt>
      <trkpt lat="27.976687" lon="-15.520804">
        <ele>987.10</ele>
        <time>2017-12-09T07:06:37Z</time>
      </trkpt>
      <trkpt lat="27.976699" lon="-15.520778">
        <ele>987.39</ele>
        <time>2017-12-09T07:06:39Z</time>
      </trkpt>
      <trkpt lat="27.976702" lon="-15.520752">
        <ele>988.16</ele>
        <time>2017-12-09T07:06:41Z</time>
      </trkpt>
      <trkpt lat="27.976693" lon="-15.520726">
        <ele>988.29</ele>
        <time>2017-12-09T07:06:43Z</time>
      </trkpt>
      <trkpt lat="27.976672" lon="-15.520713">
        <ele>988.40</ele>
        <time>2017-12-09T07:06:45Z</time>
      </trkpt>
      <trkpt lat="27.976655" lon="-15.520706">
        <ele>988.50</ele>
        <time>2017-12-09T07:06:47Z</time>
      </trkpt>
      <trkpt lat="27.976628" lon="-15.520706">
        <ele>989.50</ele>
        <time>2017-12-09T07:06:50Z</time>
      </trkpt>
      <trkpt lat="27.976611" lon="-15.520718">
        <ele>989.98</ele>
        <time>2017-12-09T07:06:52Z</time>
      </trkpt>
      <trkpt lat="27.976602" lon="-15.520746">
        <ele>990.89</ele>
        <time>2017-12-09T07:06:55Z</time>
      </trkpt>
      <trkpt lat="27.976591" lon="-15.520772">
        <ele>991.49</ele>
        <time>2017-12-09T07:06:58Z</time>
      </trkpt>
      <trkpt lat="27.976572" lon="-15.520784">
        <ele>992.28</ele>
        <time>2017-12-09T07:07:00Z</time>
      </trkpt>
      <trkpt lat="27.976553" lon="-15.520791">
        <ele>992.30</ele>
        <time>2017-12-09T07:07:02Z</time>
      </trkpt>
      <trkpt lat="27.976553" lon="-15.520763">
        <ele>992.58</ele>
        <time>2017-12-09T07:07:05Z</time>
      </trkpt>
      <trkpt lat="27.976564" lon="-15.520746">
        <ele>992.99</ele>
        <time>2017-12-09T07:07:07Z</time>
      </trkpt>
      <trkpt lat="27.976557" lon="-15.520723">
        <ele>993.40</ele>
        <time>2017-12-09T07:07:09Z</time>
      </trkpt>
      <trkpt lat="27.976536" lon="-15.520728">
        <ele>993.80</ele>
        <time>2017-12-09T07:07:12Z</time>
      </trkpt>
      <trkpt lat="27.976523" lon="-15.520752">
        <ele>994.40</ele>
        <time>2017-12-09T07:07:15Z</time>
      </trkpt>
      <trkpt lat="27.976507" lon="-15.520769">
        <ele>994.99</ele>
        <time>2017-12-09T07:07:17Z</time>
      </trkpt>
      <trkpt lat="27.976489" lon="-15.520777">
        <ele>995.70</ele>
        <time>2017-12-09T07:07:19Z</time>
      </trkpt>
      <trkpt lat="27.976486" lon="-15.520752">
        <ele>996.60</ele>
        <time>2017-12-09T07:07:23Z</time>
      </trkpt>
      <trkpt lat="27.976485" lon="-15.520728">
        <ele>996.61</ele>
        <time>2017-12-09T07:07:25Z</time>
      </trkpt>
      <trkpt lat="27.976471" lon="-15.520706">
        <ele>996.91</ele>
        <time>2017-12-09T07:07:27Z</time>
      </trkpt>
      <trkpt lat="27.976450" lon="-15.520698">
        <ele>997.31</ele>
        <time>2017-12-09T07:07:29Z</time>
      </trkpt>
      <trkpt lat="27.976428" lon="-15.520710">
        <ele>997.90</ele>
        <time>2017-12-09T07:07:32Z</time>
      </trkpt>
      <trkpt lat="27.976414" lon="-15.520726">
        <ele>997.90</ele>
        <time>2017-12-09T07:07:34Z</time>
      </trkpt>
      <trkpt lat="27.976396" lon="-15.520736">
        <ele>998.20</ele>
        <time>2017-12-09T07:07:36Z</time>
      </trkpt>
      <trkpt lat="27.976378" lon="-15.520744">
        <ele>998.34</ele>
        <time>2017-12-09T07:07:38Z</time>
      </trkpt>
      <trkpt lat="27.976357" lon="-15.520753">
        <ele>999.70</ele>
        <time>2017-12-09T07:07:41Z</time>
      </trkpt>
      <trkpt lat="27.976338" lon="-15.520749">
        <ele>1000.02</ele>
        <time>2017-12-09T07:07:44Z</time>
      </trkpt>
      <trkpt lat="27.976341" lon="-15.520722">
        <ele>1000.90</ele>
        <time>2017-12-09T07:07:47Z</time>
      </trkpt>
      <trkpt lat="27.976334" lon="-15.520693">
        <ele>1001.73</ele>
        <time>2017-12-09T07:07:50Z</time>
      </trkpt>
      <trkpt lat="27.976317" lon="-15.520679">
        <ele>1002.40</ele>
        <time>2017-12-09T07:07:52Z</time>
      </trkpt>
      <trkpt lat="27.976294" lon="-15.520685">
        <ele>1002.83</ele>
        <time>2017-12-09T07:07:55Z</time>
      </trkpt>
      <trkpt lat="27.976279" lon="-15.520699">
        <ele>1003.07</ele>
        <time>2017-12-09T07:07:57Z</time>
      </trkpt>
      <trkpt lat="27.976261" lon="-15.520715">
        <ele>1003.57</ele>
        <time>2017-12-09T07:07:59Z</time>
      </trkpt>
      <trkpt lat="27.976240" lon="-15.520723">
        <ele>1004.22</ele>
        <time>2017-12-09T07:08:02Z</time>
      </trkpt>
      <trkpt lat="27.976219" lon="-15.520724">
        <ele>1004.90</ele>
        <time>2017-12-09T07:08:04Z</time>
      </trkpt>
      <trkpt lat="27.976197" lon="-15.520712">
        <ele>1005.49</ele>
        <time>2017-12-09T07:08:07Z</time>
      </trkpt>
      <trkpt lat="27.976190" lon="-15.520689">
        <ele>1005.92</ele>
        <time>2017-12-09T07:08:10Z</time>
      </trkpt>
      <trkpt lat="27.976207" lon="-15.520668">
        <ele>1007.40</ele>
        <time>2017-12-09T07:08:13Z</time>
      </trkpt>
      <trkpt lat="27.976221" lon="-15.520650">
        <ele>1007.40</ele>
        <time>2017-12-09T07:08:15Z</time>
      </trkpt>
      <trkpt lat="27.976224" lon="-15.520622">
        <ele>1007.60</ele>
        <time>2017-12-09T07:08:18Z</time>
      </trkpt>
      <trkpt lat="27.976202" lon="-15.520620">
        <ele>1007.76</ele>
        <time>2017-12-09T07:08:21Z</time>
      </trkpt>
      <trkpt lat="27.976183" lon="-15.520631">
        <ele>1008.81</ele>
        <time>2017-12-09T07:08:23Z</time>
      </trkpt>
      <trkpt lat="27.976157" lon="-15.520644">
        <ele>1009.50</ele>
        <time>2017-12-09T07:08:26Z</time>
      </trkpt>
      <trkpt lat="27.976135" lon="-15.520657">
        <ele>1009.50</ele>
        <time>2017-12-09T07:08:28Z</time>
      </trkpt>
      <trkpt lat="27.976110" lon="-15.520661">
        <ele>1010.50</ele>
        <time>2017-12-09T07:08:31Z</time>
      </trkpt>
      <trkpt lat="27.976089" lon="-15.520650">
        <ele>1010.94</ele>
        <time>2017-12-09T07:08:34Z</time>
      </trkpt>
      <trkpt lat="27.976073" lon="-15.520639">
        <ele>1011.44</ele>
        <time>2017-12-09T07:08:36Z</time>
      </trkpt>
      <trkpt lat="27.976047" lon="-15.520633">
        <ele>1012.69</ele>
        <time>2017-12-09T07:08:39Z</time>
      </trkpt>
      <trkpt lat="27.976027" lon="-15.520622">
        <ele>1013.24</ele>
        <time>2017-12-09T07:08:41Z</time>
      </trkpt>
      <trkpt lat="27.976002" lon="-15.520611">
        <ele>1013.60</ele>
        <time>2017-12-09T07:08:44Z</time>
      </trkpt>
      <trkpt lat="27.975985" lon="-15.520604">
        <ele>1014.14</ele>
        <time>2017-12-09T07:08:46Z</time>
      </trkpt>
      <trkpt lat="27.975965" lon="-15.520596">
        <ele>1014.30</ele>
        <time>2017-12-09T07:08:48Z</time>
      </trkpt>
      <trkpt lat="27.975945" lon="-15.520588">
        <ele>1014.40</ele>
        <time>2017-12-09T07:08:50Z</time>
      </trkpt>
      <trkpt lat="27.975927" lon="-15.520580">
        <ele>1014.80</ele>
        <time>2017-12-09T07:08:52Z</time>
      </trkpt>
      <trkpt lat="27.975906" lon="-15.520571">
        <ele>1015.13</ele>
        <time>2017-12-09T07:08:54Z</time>
      </trkpt>
      <trkpt lat="27.975879" lon="-15.520561">
        <ele>1015.90</ele>
        <time>2017-12-09T07:08:57Z</time>
      </trkpt>
      <trkpt lat="27.975848" lon="-15.520550">
        <ele>1016.45</ele>
        <time>2017-12-09T07:09:00Z</time>
      </trkpt>
      <trkpt lat="27.975829" lon="-15.520544">
        <ele>1017.20</ele>
        <time>2017-12-09T07:09:02Z</time>
      </trkpt>
      <trkpt lat="27.975804" lon="-15.520537">
        <ele>1017.51</ele>
        <time>2017-12-09T07:09:05Z</time>
      </trkpt>
      <trkpt lat="27.975787" lon="-15.520522">
        <ele>1018.60</ele>
        <time>2017-12-09T07:09:08Z</time>
      </trkpt>
      <trkpt lat="27.975792" lon="-15.520496">
        <ele>1019.90</ele>
        <time>2017-12-09T07:09:13Z</time>
      </trkpt>
      <trkpt lat="27.975809" lon="-15.520485">
        <ele>1020.80</ele>
        <time>2017-12-09T07:09:16Z</time>
      </trkpt>
      <trkpt lat="27.975820" lon="-15.520467">
        <ele>1021.33</ele>
        <time>2017-12-09T07:09:20Z</time>
      </trkpt>
      <trkpt lat="27.975833" lon="-15.520445">
        <ele>1022.19</ele>
        <time>2017-12-09T07:09:23Z</time>
      </trkpt>
      <trkpt lat="27.975822" lon="-15.520427">
        <ele>1023.02</ele>
        <time>2017-12-09T07:09:26Z</time>
      </trkpt>
      <trkpt lat="27.975798" lon="-15.520420">
        <ele>1023.56</ele>
        <time>2017-12-09T07:09:29Z</time>
      </trkpt>
      <trkpt lat="27.975781" lon="-15.520412">
        <ele>1023.98</ele>
        <time>2017-12-09T07:09:31Z</time>
      </trkpt>
      <trkpt lat="27.975762" lon="-15.520406">
        <ele>1025.16</ele>
        <time>2017-12-09T07:09:34Z</time>
      </trkpt>
      <trkpt lat="27.975741" lon="-15.520397">
        <ele>1025.50</ele>
        <time>2017-12-09T07:09:37Z</time>
      </trkpt>
      <trkpt lat="27.975719" lon="-15.520388">
        <ele>1026.47</ele>
        <time>2017-12-09T07:09:40Z</time>
      </trkpt>
      <trkpt lat="27.975696" lon="-15.520381">
        <ele>1027.45</ele>
        <time>2017-12-09T07:09:43Z</time>
      </trkpt>
      <trkpt lat="27.975674" lon="-15.520372">
        <ele>1027.97</ele>
        <time>2017-12-09T07:09:46Z</time>
      </trkpt>
      <trkpt lat="27.975652" lon="-15.520365">
        <ele>1028.10</ele>
        <time>2017-12-09T07:09:49Z</time>
      </trkpt>
      <trkpt lat="27.975631" lon="-15.520357">
        <ele>1028.80</ele>
        <time>2017-12-09T07:09:52Z</time>
      </trkpt>
      <trkpt lat="27.975607" lon="-15.520341">
        <ele>1029.55</ele>
        <time>2017-12-09T07:09:55Z</time>
      </trkpt>
      <trkpt lat="27.975590" lon="-15.520331">
        <ele>1030.05</ele>
        <time>2017-12-09T07:09:57Z</time>
      </trkpt>
      <trkpt lat="27.975563" lon="-15.520321">
        <ele>1031.53</ele>
        <time>2017-12-09T07:10:00Z</time>
      </trkpt>
      <trkpt lat="27.975545" lon="-15.520315">
        <ele>1031.70</ele>
        <time>2017-12-09T07:10:02Z</time>
      </trkpt>
      <trkpt lat="27.975523" lon="-15.520306">
        <ele>1032.34</ele>
        <time>2017-12-09T07:10:05Z</time>
      </trkpt>
      <trkpt lat="27.975499" lon="-15.520294">
        <ele>1032.76</ele>
        <time>2017-12-09T07:10:08Z</time>
      </trkpt>
      <trkpt lat="27.975475" lon="-15.520283">
        <ele>1033.58</ele>
        <time>2017-12-09T07:10:11Z</time>
      </trkpt>
      <trkpt lat="27.975457" lon="-15.520276">
        <ele>1033.76</ele>
        <time>2017-12-09T07:10:13Z</time>
      </trkpt>
      <trkpt lat="27.975451" lon="-15.520303">
        <ele>1035.04</ele>
        <time>2017-12-09T07:10:17Z</time>
      </trkpt>
      <trkpt lat="27.975467" lon="-15.520326">
        <ele>1036.26</ele>
        <time>2017-12-09T07:10:21Z</time>
      </trkpt>
      <trkpt lat="27.975494" lon="-15.520351">
        <ele>1036.54</ele>
        <time>2017-12-09T07:10:23Z</time>
      </trkpt>
      <trkpt lat="27.975513" lon="-15.520371">
        <ele>1036.93</ele>
        <time>2017-12-09T07:10:25Z</time>
      </trkpt>
      <trkpt lat="27.975494" lon="-15.520364">
        <ele>1037.78</ele>
        <time>2017-12-09T07:10:29Z</time>
      </trkpt>
      <trkpt lat="27.975473" lon="-15.520355">
        <ele>1038.07</ele>
        <time>2017-12-09T07:10:31Z</time>
      </trkpt>
      <trkpt lat="27.975448" lon="-15.520343">
        <ele>1039.00</ele>
        <time>2017-12-09T07:10:34Z</time>
      </trkpt>
      <trkpt lat="27.975426" lon="-15.520325">
        <ele>1040.18</ele>
        <time>2017-12-09T07:10:39Z</time>
      </trkpt>
      <trkpt lat="27.975403" lon="-15.520323">
        <ele>1041.03</ele>
        <time>2017-12-09T07:10:42Z</time>
      </trkpt>
      <trkpt lat="27.975383" lon="-15.520316">
        <ele>1041.50</ele>
        <time>2017-12-09T07:10:45Z</time>
      </trkpt>
      <trkpt lat="27.975358" lon="-15.520305">
        <ele>1042.48</ele>
        <time>2017-12-09T07:10:48Z</time>
      </trkpt>
      <trkpt lat="27.975341" lon="-15.520297">
        <ele>1043.41</ele>
        <time>2017-12-09T07:10:50Z</time>
      </trkpt>
      <trkpt lat="27.975321" lon="-15.520285">
        <ele>1043.80</ele>
        <time>2017-12-09T07:10:53Z</time>
      </trkpt>
      <trkpt lat="27.975304" lon="-15.520275">
        <ele>1044.40</ele>
        <time>2017-12-09T07:10:55Z</time>
      </trkpt>
      <trkpt lat="27.975292" lon="-15.520260">
        <ele>1044.51</ele>
        <time>2017-12-09T07:10:57Z</time>
      </trkpt>
      <trkpt lat="27.975279" lon="-15.520242">
        <ele>1045.60</ele>
        <time>2017-12-09T07:10:59Z</time>
      </trkpt>
      <trkpt lat="27.975261" lon="-15.520225">
        <ele>1045.99</ele>
        <time>2017-12-09T07:11:01Z</time>
      </trkpt>
      <trkpt lat="27.975240" lon="-15.520216">
        <ele>1045.90</ele>
        <time>2017-12-09T07:11:03Z</time>
      </trkpt>
      <trkpt lat="27.975227" lon="-15.520239">
        <ele>1046.81</ele>
        <time>2017-12-09T07:11:06Z</time>
      </trkpt>
      <trkpt lat="27.975210" lon="-15.520251">
        <ele>1047.70</ele>
        <time>2017-12-09T07:11:10Z</time>
      </trkpt>
      <trkpt lat="27.975183" lon="-15.520242">
        <ele>1048.51</ele>
        <time>2017-12-09T07:11:13Z</time>
      </trkpt>
      <trkpt lat="27.975162" lon="-15.520246">
        <ele>1048.91</ele>
        <time>2017-12-09T07:11:15Z</time>
      </trkpt>
      <trkpt lat="27.975140" lon="-15.520256">
        <ele>1049.61</ele>
        <time>2017-12-09T07:11:18Z</time>
      </trkpt>
      <trkpt lat="27.975112" lon="-15.520257">
        <ele>1049.90</ele>
        <time>2017-12-09T07:11:21Z</time>
      </trkpt>
      <trkpt lat="27.975094" lon="-15.520261">
        <ele>1050.10</ele>
        <time>2017-12-09T07:11:23Z</time>
      </trkpt>
      <trkpt lat="27.975073" lon="-15.520254">
        <ele>1051.02</ele>
        <time>2017-12-09T07:11:26Z</time>
      </trkpt>
      <trkpt lat="27.975072" lon="-15.520223">
        <ele>1052.66</ele>
        <time>2017-12-09T07:11:31Z</time>
      </trkpt>
      <trkpt lat="27.975076" lon="-15.520200">
        <ele>1053.14</ele>
        <time>2017-12-09T07:11:33Z</time>
      </trkpt>
      <trkpt lat="27.975066" lon="-15.520182">
        <ele>1053.44</ele>
        <time>2017-12-09T07:11:35Z</time>
      </trkpt>
      <trkpt lat="27.975041" lon="-15.520184">
        <ele>1054.30</ele>
        <time>2017-12-09T07:11:38Z</time>
      </trkpt>
      <trkpt lat="27.975030" lon="-15.520206">
        <ele>1054.61</ele>
        <time>2017-12-09T07:11:41Z</time>
      </trkpt>
      <trkpt lat="27.975015" lon="-15.520222">
        <ele>1055.50</ele>
        <time>2017-12-09T07:11:44Z</time>
      </trkpt>
      <trkpt lat="27.974993" lon="-15.520230">
        <ele>1055.70</ele>
        <time>2017-12-09T07:11:46Z</time>
      </trkpt>
      <trkpt lat="27.974971" lon="-15.520238">
        <ele>1055.83</ele>
        <time>2017-12-09T07:11:48Z</time>
      </trkpt>
      <trkpt lat="27.974952" lon="-15.520236">
        <ele>1055.98</ele>
        <time>2017-12-09T07:11:50Z</time>
      </trkpt>
      <trkpt lat="27.974930" lon="-15.520223">
        <ele>1057.00</ele>
        <time>2017-12-09T07:11:53Z</time>
      </trkpt>
      <trkpt lat="27.974936" lon="-15.520198">
        <ele>1058.02</ele>
        <time>2017-12-09T07:11:56Z</time>
      </trkpt>
      <trkpt lat="27.974950" lon="-15.520180">
        <ele>1058.70</ele>
        <time>2017-12-09T07:11:59Z</time>
      </trkpt>
      <trkpt lat="27.974934" lon="-15.520153">
        <ele>1059.10</ele>
        <time>2017-12-09T07:12:03Z</time>
      </trkpt>
      <trkpt lat="27.974917" lon="-15.520160">
        <ele>1060.28</ele>
        <time>2017-12-09T07:12:06Z</time>
      </trkpt>
      <trkpt lat="27.974901" lon="-15.520175">
        <ele>1061.02</ele>
        <time>2017-12-09T07:12:09Z</time>
      </trkpt>
      <trkpt lat="27.974876" lon="-15.520182">
        <ele>1061.94</ele>
        <time>2017-12-09T07:12:13Z</time>
      </trkpt>
      <trkpt lat="27.974854" lon="-15.520170">
        <ele>1062.16</ele>
        <time>2017-12-09T07:12:16Z</time>
      </trkpt>
      <trkpt lat="27.974861" lon="-15.520149">
        <ele>1062.86</ele>
        <time>2017-12-09T07:12:20Z</time>
      </trkpt>
      <trkpt lat="27.974875" lon="-15.520126">
        <ele>1063.54</ele>
        <time>2017-12-09T07:12:23Z</time>
      </trkpt>
      <trkpt lat="27.974860" lon="-15.520111">
        <ele>1064.16</ele>
        <time>2017-12-09T07:12:26Z</time>
      </trkpt>
      <trkpt lat="27.974841" lon="-15.520112">
        <ele>1064.80</ele>
        <time>2017-12-09T07:12:28Z</time>
      </trkpt>
      <trkpt lat="27.974819" lon="-15.520119">
        <ele>1064.87</ele>
        <time>2017-12-09T07:12:30Z</time>
      </trkpt>
      <trkpt lat="27.974799" lon="-15.520122">
        <ele>1065.20</ele>
        <time>2017-12-09T07:12:32Z</time>
      </trkpt>
      <trkpt lat="27.974793" lon="-15.520141">
        <ele>1065.60</ele>
        <time>2017-12-09T07:12:33Z</time>
      </trkpt>
      <trkpt lat="27.974780" lon="-15.520156">
        <ele>1066.62</ele>
        <time>2017-12-09T07:12:35Z</time>
      </trkpt>
      <trkpt lat="27.974786" lon="-15.520123">
        <ele>1067.63</ele>
        <time>2017-12-09T07:12:42Z</time>
      </trkpt>
      <trkpt lat="27.974782" lon="-15.520053">
        <ele>1069.19</ele>
        <time>2017-12-09T07:12:49Z</time>
      </trkpt>
      <trkpt lat="27.974775" lon="-15.520032">
        <ele>1069.58</ele>
        <time>2017-12-09T07:12:51Z</time>
      </trkpt>
      <trkpt lat="27.974761" lon="-15.520014">
        <ele>1070.16</ele>
        <time>2017-12-09T07:12:53Z</time>
      </trkpt>
      <trkpt lat="27.974745" lon="-15.520001">
        <ele>1070.43</ele>
        <time>2017-12-09T07:12:55Z</time>
      </trkpt>
      <trkpt lat="27.974724" lon="-15.519981">
        <ele>1070.90</ele>
        <time>2017-12-09T07:12:58Z</time>
      </trkpt>
      <trkpt lat="27.974711" lon="-15.519961">
        <ele>1071.70</ele>
        <time>2017-12-09T07:13:00Z</time>
      </trkpt>
      <trkpt lat="27.974704" lon="-15.519940">
        <ele>1072.13</ele>
        <time>2017-12-09T07:13:02Z</time>
      </trkpt>
      <trkpt lat="27.974696" lon="-15.519917">
        <ele>1072.53</ele>
        <time>2017-12-09T07:13:04Z</time>
      </trkpt>
      <trkpt lat="27.974686" lon="-15.519895">
        <ele>1073.01</ele>
        <time>2017-12-09T07:13:06Z</time>
      </trkpt>
      <trkpt lat="27.974669" lon="-15.519883">
        <ele>1073.84</ele>
        <time>2017-12-09T07:13:08Z</time>
      </trkpt>
      <trkpt lat="27.974647" lon="-15.519891">
        <ele>1074.94</ele>
        <time>2017-12-09T07:13:11Z</time>
      </trkpt>
      <trkpt lat="27.974646" lon="-15.519919">
        <ele>1075.04</ele>
        <time>2017-12-09T07:13:14Z</time>
      </trkpt>
      <trkpt lat="27.974659" lon="-15.519941">
        <ele>1075.20</ele>
        <time>2017-12-09T07:13:16Z</time>
      </trkpt>
      <trkpt lat="27.974666" lon="-15.519969">
        <ele>1075.93</ele>
        <time>2017-12-09T07:13:19Z</time>
      </trkpt>
      <trkpt lat="27.974661" lon="-15.519992">
        <ele>1076.54</ele>
        <time>2017-12-09T07:13:22Z</time>
      </trkpt>
      <trkpt lat="27.974642" lon="-15.520002">
        <ele>1077.18</ele>
        <time>2017-12-09T07:13:25Z</time>
      </trkpt>
      <trkpt lat="27.974637" lon="-15.519981">
        <ele>1077.38</ele>
        <time>2017-12-09T07:13:28Z</time>
      </trkpt>
      <trkpt lat="27.974633" lon="-15.519959">
        <ele>1078.70</ele>
        <time>2017-12-09T07:13:30Z</time>
      </trkpt>
      <trkpt lat="27.974622" lon="-15.519942">
        <ele>1078.94</ele>
        <time>2017-12-09T07:13:32Z</time>
      </trkpt>
      <trkpt lat="27.974605" lon="-15.519921">
        <ele>1079.44</ele>
        <time>2017-12-09T07:13:34Z</time>
      </trkpt>
      <trkpt lat="27.974600" lon="-15.519896">
        <ele>1079.83</ele>
        <time>2017-12-09T07:13:37Z</time>
      </trkpt>
      <trkpt lat="27.974586" lon="-15.519880">
        <ele>1080.09</ele>
        <time>2017-12-09T07:13:39Z</time>
      </trkpt>
      <trkpt lat="27.974572" lon="-15.519895">
        <ele>1081.14</ele>
        <time>2017-12-09T07:13:42Z</time>
      </trkpt>
      <trkpt lat="27.974571" lon="-15.519922">
        <ele>1081.95</ele>
        <time>2017-12-09T07:13:45Z</time>
      </trkpt>
      <trkpt lat="27.974555" lon="-15.519938">
        <ele>1082.44</ele>
        <time>2017-12-09T07:13:49Z</time>
      </trkpt>
      <trkpt lat="27.974543" lon="-15.519921">
        <ele>1083.60</ele>
        <time>2017-12-09T07:13:53Z</time>
      </trkpt>
      <trkpt lat="27.974543" lon="-15.519890">
        <ele>1084.45</ele>
        <time>2017-12-09T07:13:56Z</time>
      </trkpt>
      <trkpt lat="27.974538" lon="-15.519864">
        <ele>1084.85</ele>
        <time>2017-12-09T07:13:58Z</time>
      </trkpt>
      <trkpt lat="27.974525" lon="-15.519841">
        <ele>1085.31</ele>
        <time>2017-12-09T07:14:00Z</time>
      </trkpt>
      <trkpt lat="27.974517" lon="-15.519823">
        <ele>1086.01</ele>
        <time>2017-12-09T07:14:02Z</time>
      </trkpt>
      <trkpt lat="27.974507" lon="-15.519800">
        <ele>1086.20</ele>
        <time>2017-12-09T07:14:04Z</time>
      </trkpt>
      <trkpt lat="27.974499" lon="-15.519777">
        <ele>1086.85</ele>
        <time>2017-12-09T07:14:06Z</time>
      </trkpt>
      <trkpt lat="27.974491" lon="-15.519747">
        <ele>1087.20</ele>
        <time>2017-12-09T07:14:09Z</time>
      </trkpt>
      <trkpt lat="27.974480" lon="-15.519724">
        <ele>1087.51</ele>
        <time>2017-12-09T07:14:12Z</time>
      </trkpt>
      <trkpt lat="27.974470" lon="-15.519698">
        <ele>1088.63</ele>
        <time>2017-12-09T07:14:15Z</time>
      </trkpt>
      <trkpt lat="27.974445" lon="-15.519693">
        <ele>1090.01</ele>
        <time>2017-12-09T07:14:19Z</time>
      </trkpt>
      <trkpt lat="27.974432" lon="-15.519719">
        <ele>1090.40</ele>
        <time>2017-12-09T07:14:22Z</time>
      </trkpt>
      <trkpt lat="27.974434" lon="-15.519744">
        <ele>1091.27</ele>
        <time>2017-12-09T07:14:25Z</time>
      </trkpt>
      <trkpt lat="27.974442" lon="-15.519773">
        <ele>1091.74</ele>
        <time>2017-12-09T07:14:28Z</time>
      </trkpt>
      <trkpt lat="27.974435" lon="-15.519792">
        <ele>1092.21</ele>
        <time>2017-12-09T07:14:30Z</time>
      </trkpt>
      <trkpt lat="27.974430" lon="-15.519812">
        <ele>1092.10</ele>
        <time>2017-12-09T07:14:32Z</time>
      </trkpt>
      <trkpt lat="27.974415" lon="-15.519833">
        <ele>1092.47</ele>
        <time>2017-12-09T07:14:34Z</time>
      </trkpt>
      <trkpt lat="27.974402" lon="-15.519850">
        <ele>1092.94</ele>
        <time>2017-12-09T07:14:36Z</time>
      </trkpt>
      <trkpt lat="27.974354" lon="-15.519933">
        <ele>1095.72</ele>
        <time>2017-12-09T07:14:45Z</time>
      </trkpt>
      <trkpt lat="27.974334" lon="-15.519948">
        <ele>1096.00</ele>
        <time>2017-12-09T07:14:47Z</time>
      </trkpt>
      <trkpt lat="27.974313" lon="-15.519955">
        <ele>1096.63</ele>
        <time>2017-12-09T07:14:50Z</time>
      </trkpt>
      <trkpt lat="27.974309" lon="-15.519932">
        <ele>1096.97</ele>
        <time>2017-12-09T07:14:53Z</time>
      </trkpt>
      <trkpt lat="27.974316" lon="-15.519907">
        <ele>1097.10</ele>
        <time>2017-12-09T07:14:55Z</time>
      </trkpt>
      <trkpt lat="27.974323" lon="-15.519882">
        <ele>1097.91</ele>
        <time>2017-12-09T07:14:57Z</time>
      </trkpt>
      <trkpt lat="27.974324" lon="-15.519860">
        <ele>1098.84</ele>
        <time>2017-12-09T07:14:59Z</time>
      </trkpt>
      <trkpt lat="27.974331" lon="-15.519830">
        <ele>1099.20</ele>
        <time>2017-12-09T07:15:02Z</time>
      </trkpt>
      <trkpt lat="27.974336" lon="-15.519807">
        <ele>1099.80</ele>
        <time>2017-12-09T07:15:05Z</time>
      </trkpt>
      <trkpt lat="27.974340" lon="-15.519783">
        <ele>1100.17</ele>
        <time>2017-12-09T07:15:08Z</time>
      </trkpt>
      <trkpt lat="27.974333" lon="-15.519762">
        <ele>1100.33</ele>
        <time>2017-12-09T07:15:10Z</time>
      </trkpt>
      <trkpt lat="27.974325" lon="-15.519740">
        <ele>1101.20</ele>
        <time>2017-12-09T07:15:12Z</time>
      </trkpt>
      <trkpt lat="27.974328" lon="-15.519720">
        <ele>1101.20</ele>
        <time>2017-12-09T07:15:14Z</time>
      </trkpt>
      <trkpt lat="27.974320" lon="-15.519701">
        <ele>1101.95</ele>
        <time>2017-12-09T07:15:17Z</time>
      </trkpt>
      <trkpt lat="27.974304" lon="-15.519710">
        <ele>1102.97</ele>
        <time>2017-12-09T07:15:21Z</time>
      </trkpt>
      <trkpt lat="27.974293" lon="-15.519729">
        <ele>1103.64</ele>
        <time>2017-12-09T07:15:23Z</time>
      </trkpt>
      <trkpt lat="27.974252" lon="-15.519768">
        <ele>1105.10</ele>
        <time>2017-12-09T07:15:30Z</time>
      </trkpt>
      <trkpt lat="27.974206" lon="-15.519816">
        <ele>1107.03</ele>
        <time>2017-12-09T07:15:39Z</time>
      </trkpt>
      <trkpt lat="27.974186" lon="-15.519817">
        <ele>1107.35</ele>
        <time>2017-12-09T07:15:41Z</time>
      </trkpt>
      <trkpt lat="27.974164" lon="-15.519817">
        <ele>1108.00</ele>
        <time>2017-12-09T07:15:44Z</time>
      </trkpt>
      <trkpt lat="27.974145" lon="-15.519821">
        <ele>1108.30</ele>
        <time>2017-12-09T07:15:47Z</time>
      </trkpt>
      <trkpt lat="27.974119" lon="-15.519824">
        <ele>1109.50</ele>
        <time>2017-12-09T07:15:50Z</time>
      </trkpt>
      <trkpt lat="27.974094" lon="-15.519819">
        <ele>1110.08</ele>
        <time>2017-12-09T07:15:53Z</time>
      </trkpt>
      <trkpt lat="27.974070" lon="-15.519813">
        <ele>1110.46</ele>
        <time>2017-12-09T07:15:56Z</time>
      </trkpt>
      <trkpt lat="27.974068" lon="-15.519786">
        <ele>1111.23</ele>
        <time>2017-12-09T07:16:00Z</time>
      </trkpt>
      <trkpt lat="27.974079" lon="-15.519766">
        <ele>1111.64</ele>
        <time>2017-12-09T07:16:03Z</time>
      </trkpt>
      <trkpt lat="27.974089" lon="-15.519746">
        <ele>1112.34</ele>
        <time>2017-12-09T07:16:06Z</time>
      </trkpt>
      <trkpt lat="27.974103" lon="-15.519729">
        <ele>1112.35</ele>
        <time>2017-12-09T07:16:09Z</time>
      </trkpt>
      <trkpt lat="27.974120" lon="-15.519720">
        <ele>1113.61</ele>
        <time>2017-12-09T07:16:12Z</time>
      </trkpt>
      <trkpt lat="27.974129" lon="-15.519695">
        <ele>1114.55</ele>
        <time>2017-12-09T07:16:15Z</time>
      </trkpt>
      <trkpt lat="27.974112" lon="-15.519687">
        <ele>1114.60</ele>
        <time>2017-12-09T07:16:19Z</time>
      </trkpt>
      <trkpt lat="27.974097" lon="-15.519700">
        <ele>1115.48</ele>
        <time>2017-12-09T07:16:23Z</time>
      </trkpt>
      <trkpt lat="27.974073" lon="-15.519706">
        <ele>1116.32</ele>
        <time>2017-12-09T07:16:26Z</time>
      </trkpt>
      <trkpt lat="27.974053" lon="-15.519703">
        <ele>1117.13</ele>
        <time>2017-12-09T07:16:29Z</time>
      </trkpt>
      <trkpt lat="27.974060" lon="-15.519683">
        <ele>1117.20</ele>
        <time>2017-12-09T07:16:33Z</time>
      </trkpt>
      <trkpt lat="27.974062" lon="-15.519662">
        <ele>1117.98</ele>
        <time>2017-12-09T07:16:36Z</time>
      </trkpt>
      <trkpt lat="27.974044" lon="-15.519650">
        <ele>1118.63</ele>
        <time>2017-12-09T07:16:39Z</time>
      </trkpt>
      <trkpt lat="27.974025" lon="-15.519669">
        <ele>1119.30</ele>
        <time>2017-12-09T07:16:42Z</time>
      </trkpt>
      <trkpt lat="27.974011" lon="-15.519683">
        <ele>1119.96</ele>
        <time>2017-12-09T07:16:44Z</time>
      </trkpt>
      <trkpt lat="27.973989" lon="-15.519691">
        <ele>1120.40</ele>
        <time>2017-12-09T07:16:47Z</time>
      </trkpt>
      <trkpt lat="27.973979" lon="-15.519671">
        <ele>1120.59</ele>
        <time>2017-12-09T07:16:51Z</time>
      </trkpt>
      <trkpt lat="27.973987" lon="-15.519651">
        <ele>1121.28</ele>
        <time>2017-12-09T07:16:53Z</time>
      </trkpt>
      <trkpt lat="27.973994" lon="-15.519631">
        <ele>1121.78</ele>
        <time>2017-12-09T07:16:55Z</time>
      </trkpt>
      <trkpt lat="27.973982" lon="-15.519612">
        <ele>1122.47</ele>
        <time>2017-12-09T07:16:58Z</time>
      </trkpt>
      <trkpt lat="27.973955" lon="-15.519624">
        <ele>1123.08</ele>
        <time>2017-12-09T07:17:01Z</time>
      </trkpt>
      <trkpt lat="27.973937" lon="-15.519636">
        <ele>1123.80</ele>
        <time>2017-12-09T07:17:03Z</time>
      </trkpt>
      <trkpt lat="27.973923" lon="-15.519650">
        <ele>1123.90</ele>
        <time>2017-12-09T07:17:05Z</time>
      </trkpt>
      <trkpt lat="27.973901" lon="-15.519655">
        <ele>1124.39</ele>
        <time>2017-12-09T07:17:08Z</time>
      </trkpt>
      <trkpt lat="27.973883" lon="-15.519644">
        <ele>1125.20</ele>
        <time>2017-12-09T07:17:11Z</time>
      </trkpt>
      <trkpt lat="27.973873" lon="-15.519624">
        <ele>1125.70</ele>
        <time>2017-12-09T07:17:14Z</time>
      </trkpt>
      <trkpt lat="27.973876" lon="-15.519597">
        <ele>1126.69</ele>
        <time>2017-12-09T07:17:19Z</time>
      </trkpt>
      <trkpt lat="27.973889" lon="-15.519582">
        <ele>1127.89</ele>
        <time>2017-12-09T07:17:22Z</time>
      </trkpt>
      <trkpt lat="27.973897" lon="-15.519561">
        <ele>1128.00</ele>
        <time>2017-12-09T07:17:25Z</time>
      </trkpt>
      <trkpt lat="27.973880" lon="-15.519546">
        <ele>1128.70</ele>
        <time>2017-12-09T07:17:28Z</time>
      </trkpt>
      <trkpt lat="27.973858" lon="-15.519547">
        <ele>1129.20</ele>
        <time>2017-12-09T07:17:32Z</time>
      </trkpt>
      <trkpt lat="27.973839" lon="-15.519553">
        <ele>1129.99</ele>
        <time>2017-12-09T07:17:35Z</time>
      </trkpt>
      <trkpt lat="27.973820" lon="-15.519564">
        <ele>1130.70</ele>
        <time>2017-12-09T07:17:38Z</time>
      </trkpt>
      <trkpt lat="27.973806" lon="-15.519578">
        <ele>1131.20</ele>
        <time>2017-12-09T07:17:40Z</time>
      </trkpt>
      <trkpt lat="27.973788" lon="-15.519586">
        <ele>1131.50</ele>
        <time>2017-12-09T07:17:43Z</time>
      </trkpt>
      <trkpt lat="27.973770" lon="-15.519576">
        <ele>1132.80</ele>
        <time>2017-12-09T07:18:28Z</time>
      </trkpt>
      <trkpt lat="27.973771" lon="-15.519549">
        <ele>1132.60</ele>
        <time>2017-12-09T07:18:32Z</time>
      </trkpt>
      <trkpt lat="27.973782" lon="-15.519527">
        <ele>1133.98</ele>
        <time>2017-12-09T07:18:35Z</time>
      </trkpt>
      <trkpt lat="27.973797" lon="-15.519504">
        <ele>1134.00</ele>
        <time>2017-12-09T07:18:38Z</time>
      </trkpt>
      <trkpt lat="27.973812" lon="-15.519485">
        <ele>1134.59</ele>
        <time>2017-12-09T07:18:41Z</time>
      </trkpt>
      <trkpt lat="27.973829" lon="-15.519463">
        <ele>1135.40</ele>
        <time>2017-12-09T07:18:44Z</time>
      </trkpt>
      <trkpt lat="27.973839" lon="-15.519446">
        <ele>1135.80</ele>
        <time>2017-12-09T07:18:46Z</time>
      </trkpt>
      <trkpt lat="27.973848" lon="-15.519425">
        <ele>1136.00</ele>
        <time>2017-12-09T07:18:48Z</time>
      </trkpt>
      <trkpt lat="27.973831" lon="-15.519414">
        <ele>1136.49</ele>
        <time>2017-12-09T07:18:51Z</time>
      </trkpt>
      <trkpt lat="27.973806" lon="-15.519421">
        <ele>1138.09</ele>
        <time>2017-12-09T07:18:56Z</time>
      </trkpt>
      <trkpt lat="27.973783" lon="-15.519420">
        <ele>1138.49</ele>
        <time>2017-12-09T07:18:59Z</time>
      </trkpt>
      <trkpt lat="27.973760" lon="-15.519411">
        <ele>1139.80</ele>
        <time>2017-12-09T07:19:03Z</time>
      </trkpt>
      <trkpt lat="27.973756" lon="-15.519384">
        <ele>1140.79</ele>
        <time>2017-12-09T07:19:07Z</time>
      </trkpt>
      <trkpt lat="27.973761" lon="-15.519363">
        <ele>1141.30</ele>
        <time>2017-12-09T07:19:09Z</time>
      </trkpt>
      <trkpt lat="27.973770" lon="-15.519339">
        <ele>1142.00</ele>
        <time>2017-12-09T07:19:11Z</time>
      </trkpt>
      <trkpt lat="27.973780" lon="-15.519317">
        <ele>1142.40</ele>
        <time>2017-12-09T07:19:14Z</time>
      </trkpt>
      <trkpt lat="27.973790" lon="-15.519299">
        <ele>1142.80</ele>
        <time>2017-12-09T07:19:16Z</time>
      </trkpt>
      <trkpt lat="27.973770" lon="-15.519280">
        <ele>1143.10</ele>
        <time>2017-12-09T07:19:20Z</time>
      </trkpt>
      <trkpt lat="27.973757" lon="-15.519298">
        <ele>1143.70</ele>
        <time>2017-12-09T07:19:23Z</time>
      </trkpt>
      <trkpt lat="27.973741" lon="-15.519316">
        <ele>1144.20</ele>
        <time>2017-12-09T07:19:25Z</time>
      </trkpt>
      <trkpt lat="27.973724" lon="-15.519308">
        <ele>1145.20</ele>
        <time>2017-12-09T07:19:28Z</time>
      </trkpt>
      <trkpt lat="27.973725" lon="-15.519280">
        <ele>1145.60</ele>
        <time>2017-12-09T07:19:31Z</time>
      </trkpt>
      <trkpt lat="27.973738" lon="-15.519254">
        <ele>1145.80</ele>
        <time>2017-12-09T07:19:33Z</time>
      </trkpt>
      <trkpt lat="27.973740" lon="-15.519228">
        <ele>1146.69</ele>
        <time>2017-12-09T07:19:35Z</time>
      </trkpt>
      <trkpt lat="27.973737" lon="-15.519204">
        <ele>1146.80</ele>
        <time>2017-12-09T07:19:37Z</time>
      </trkpt>
      <trkpt lat="27.973736" lon="-15.519183">
        <ele>1147.10</ele>
        <time>2017-12-09T07:19:39Z</time>
      </trkpt>
      <trkpt lat="27.973743" lon="-15.519155">
        <ele>1147.60</ele>
        <time>2017-12-09T07:19:41Z</time>
      </trkpt>
      <trkpt lat="27.973742" lon="-15.519133">
        <ele>1148.00</ele>
        <time>2017-12-09T07:19:43Z</time>
      </trkpt>
      <trkpt lat="27.973738" lon="-15.519112">
        <ele>1148.70</ele>
        <time>2017-12-09T07:19:45Z</time>
      </trkpt>
      <trkpt lat="27.973728" lon="-15.519089">
        <ele>1148.90</ele>
        <time>2017-12-09T07:19:47Z</time>
      </trkpt>
      <trkpt lat="27.973706" lon="-15.519101">
        <ele>1149.40</ele>
        <time>2017-12-09T07:19:51Z</time>
      </trkpt>
      <trkpt lat="27.973698" lon="-15.519132">
        <ele>1150.10</ele>
        <time>2017-12-09T07:19:53Z</time>
      </trkpt>
      <trkpt lat="27.973687" lon="-15.519157">
        <ele>1150.80</ele>
        <time>2017-12-09T07:19:55Z</time>
      </trkpt>
      <trkpt lat="27.973668" lon="-15.519178">
        <ele>1151.10</ele>
        <time>2017-12-09T07:19:57Z</time>
      </trkpt>
      <trkpt lat="27.973647" lon="-15.519180">
        <ele>1151.90</ele>
        <time>2017-12-09T07:20:00Z</time>
      </trkpt>
      <trkpt lat="27.973628" lon="-15.519168">
        <ele>1152.20</ele>
        <time>2017-12-09T07:20:03Z</time>
      </trkpt>
      <trkpt lat="27.973622" lon="-15.519141">
        <ele>1152.60</ele>
        <time>2017-12-09T07:20:06Z</time>
      </trkpt>
      <trkpt lat="27.973629" lon="-15.519121">
        <ele>1153.31</ele>
        <time>2017-12-09T07:20:08Z</time>
      </trkpt>
      <trkpt lat="27.973636" lon="-15.519100">
        <ele>1153.90</ele>
        <time>2017-12-09T07:20:10Z</time>
      </trkpt>
      <trkpt lat="27.973639" lon="-15.519072">
        <ele>1153.90</ele>
        <time>2017-12-09T07:20:12Z</time>
      </trkpt>
      <trkpt lat="27.973646" lon="-15.519048">
        <ele>1154.01</ele>
        <time>2017-12-09T07:20:14Z</time>
      </trkpt>
      <trkpt lat="27.973644" lon="-15.519018">
        <ele>1155.00</ele>
        <time>2017-12-09T07:20:16Z</time>
      </trkpt>
      <trkpt lat="27.973643" lon="-15.518988">
        <ele>1155.31</ele>
        <time>2017-12-09T07:20:18Z</time>
      </trkpt>
      <trkpt lat="27.973644" lon="-15.518967">
        <ele>1155.80</ele>
        <time>2017-12-09T07:20:20Z</time>
      </trkpt>
      <trkpt lat="27.973649" lon="-15.518940">
        <ele>1155.90</ele>
        <time>2017-12-09T07:20:22Z</time>
      </trkpt>
      <trkpt lat="27.973654" lon="-15.518916">
        <ele>1156.60</ele>
        <time>2017-12-09T07:20:24Z</time>
      </trkpt>
      <trkpt lat="27.973659" lon="-15.518891">
        <ele>1157.20</ele>
        <time>2017-12-09T07:20:26Z</time>
      </trkpt>
      <trkpt lat="27.973665" lon="-15.518866">
        <ele>1157.61</ele>
        <time>2017-12-09T07:20:28Z</time>
      </trkpt>
      <trkpt lat="27.973667" lon="-15.518838">
        <ele>1158.61</ele>
        <time>2017-12-09T07:20:31Z</time>
      </trkpt>
      <trkpt lat="27.973652" lon="-15.518826">
        <ele>1158.91</ele>
        <time>2017-12-09T07:20:33Z</time>
      </trkpt>
      <trkpt lat="27.973625" lon="-15.518838">
        <ele>1159.34</ele>
        <time>2017-12-09T07:20:36Z</time>
      </trkpt>
      <trkpt lat="27.973608" lon="-15.518860">
        <ele>1160.51</ele>
        <time>2017-12-09T07:20:38Z</time>
      </trkpt>
      <trkpt lat="27.973597" lon="-15.518888">
        <ele>1160.91</ele>
        <time>2017-12-09T07:20:40Z</time>
      </trkpt>
      <trkpt lat="27.973590" lon="-15.518918">
        <ele>1161.60</ele>
        <time>2017-12-09T07:20:43Z</time>
      </trkpt>
      <trkpt lat="27.973571" lon="-15.518932">
        <ele>1161.70</ele>
        <time>2017-12-09T07:20:45Z</time>
      </trkpt>
      <trkpt lat="27.973551" lon="-15.518951">
        <ele>1162.71</ele>
        <time>2017-12-09T07:20:47Z</time>
      </trkpt>
      <trkpt lat="27.973529" lon="-15.518961">
        <ele>1163.00</ele>
        <time>2017-12-09T07:20:49Z</time>
      </trkpt>
      <trkpt lat="27.973511" lon="-15.518972">
        <ele>1163.10</ele>
        <time>2017-12-09T07:20:51Z</time>
      </trkpt>
      <trkpt lat="27.973488" lon="-15.518980">
        <ele>1163.20</ele>
        <time>2017-12-09T07:20:54Z</time>
      </trkpt>
      <trkpt lat="27.973468" lon="-15.518987">
        <ele>1164.20</ele>
        <time>2017-12-09T07:20:56Z</time>
      </trkpt>
      <trkpt lat="27.973445" lon="-15.518993">
        <ele>1164.50</ele>
        <time>2017-12-09T07:20:59Z</time>
      </trkpt>
      <trkpt lat="27.973424" lon="-15.518993">
        <ele>1164.80</ele>
        <time>2017-12-09T07:21:01Z</time>
      </trkpt>
      <trkpt lat="27.973396" lon="-15.518990">
        <ele>1165.80</ele>
        <time>2017-12-09T07:21:04Z</time>
      </trkpt>
      <trkpt lat="27.973378" lon="-15.518976">
        <ele>1165.80</ele>
        <time>2017-12-09T07:21:06Z</time>
      </trkpt>
      <trkpt lat="27.973364" lon="-15.518954">
        <ele>1166.70</ele>
        <time>2017-12-09T07:21:08Z</time>
      </trkpt>
      <trkpt lat="27.973361" lon="-15.518929">
        <ele>1167.30</ele>
        <time>2017-12-09T07:21:10Z</time>
      </trkpt>
      <trkpt lat="27.973369" lon="-15.518905">
        <ele>1167.90</ele>
        <time>2017-12-09T07:21:13Z</time>
      </trkpt>
      <trkpt lat="27.973386" lon="-15.518893">
        <ele>1168.80</ele>
        <time>2017-12-09T07:21:16Z</time>
      </trkpt>
      <trkpt lat="27.973405" lon="-15.518876">
        <ele>1169.00</ele>
        <time>2017-12-09T07:21:18Z</time>
      </trkpt>
      <trkpt lat="27.973417" lon="-15.518856">
        <ele>1170.10</ele>
        <time>2017-12-09T07:21:20Z</time>
      </trkpt>
      <trkpt lat="27.973423" lon="-15.518834">
        <ele>1170.10</ele>
        <time>2017-12-09T07:21:22Z</time>
      </trkpt>
      <trkpt lat="27.973431" lon="-15.518808">
        <ele>1170.40</ele>
        <time>2017-12-09T07:21:24Z</time>
      </trkpt>
      <trkpt lat="27.973440" lon="-15.518787">
        <ele>1170.80</ele>
        <time>2017-12-09T07:21:26Z</time>
      </trkpt>
      <trkpt lat="27.973444" lon="-15.518765">
        <ele>1171.00</ele>
        <time>2017-12-09T07:21:28Z</time>
      </trkpt>
      <trkpt lat="27.973450" lon="-15.518738">
        <ele>1171.30</ele>
        <time>2017-12-09T07:21:30Z</time>
      </trkpt>
      <trkpt lat="27.973460" lon="-15.518720">
        <ele>1172.30</ele>
        <time>2017-12-09T07:21:32Z</time>
      </trkpt>
      <trkpt lat="27.973471" lon="-15.518693">
        <ele>1172.70</ele>
        <time>2017-12-09T07:21:34Z</time>
      </trkpt>
      <trkpt lat="27.973480" lon="-15.518669">
        <ele>1173.10</ele>
        <time>2017-12-09T07:21:36Z</time>
      </trkpt>
      <trkpt lat="27.973465" lon="-15.518652">
        <ele>1173.80</ele>
        <time>2017-12-09T07:21:39Z</time>
      </trkpt>
      <trkpt lat="27.973438" lon="-15.518689">
        <ele>1175.19</ele>
        <time>2017-12-09T07:21:43Z</time>
      </trkpt>
      <trkpt lat="27.973424" lon="-15.518703">
        <ele>1175.60</ele>
        <time>2017-12-09T07:21:45Z</time>
      </trkpt>
      <trkpt lat="27.973400" lon="-15.518723">
        <ele>1176.40</ele>
        <time>2017-12-09T07:21:48Z</time>
      </trkpt>
      <trkpt lat="27.973378" lon="-15.518732">
        <ele>1176.50</ele>
        <time>2017-12-09T07:21:50Z</time>
      </trkpt>
      <trkpt lat="27.973359" lon="-15.518743">
        <ele>1176.80</ele>
        <time>2017-12-09T07:21:52Z</time>
      </trkpt>
      <trkpt lat="27.973338" lon="-15.518749">
        <ele>1177.80</ele>
        <time>2017-12-09T07:21:54Z</time>
      </trkpt>
      <trkpt lat="27.973312" lon="-15.518750">
        <ele>1178.00</ele>
        <time>2017-12-09T07:21:57Z</time>
      </trkpt>
      <trkpt lat="27.973294" lon="-15.518744">
        <ele>1178.11</ele>
        <time>2017-12-09T07:21:59Z</time>
      </trkpt>
      <trkpt lat="27.973287" lon="-15.518716">
        <ele>1179.31</ele>
        <time>2017-12-09T07:22:03Z</time>
      </trkpt>
      <trkpt lat="27.973287" lon="-15.518689">
        <ele>1179.91</ele>
        <time>2017-12-09T07:22:05Z</time>
      </trkpt>
      <trkpt lat="27.973270" lon="-15.518678">
        <ele>1180.40</ele>
        <time>2017-12-09T07:22:07Z</time>
      </trkpt>
      <trkpt lat="27.973249" lon="-15.518679">
        <ele>1180.51</ele>
        <time>2017-12-09T07:22:09Z</time>
      </trkpt>
      <trkpt lat="27.973230" lon="-15.518670">
        <ele>1181.10</ele>
        <time>2017-12-09T07:22:12Z</time>
      </trkpt>
      <trkpt lat="27.973236" lon="-15.518648">
        <ele>1181.20</ele>
        <time>2017-12-09T07:22:14Z</time>
      </trkpt>
      <trkpt lat="27.973248" lon="-15.518633">
        <ele>1181.72</ele>
        <time>2017-12-09T07:22:16Z</time>
      </trkpt>
      <trkpt lat="27.973265" lon="-15.518621">
        <ele>1182.42</ele>
        <time>2017-12-09T07:22:18Z</time>
      </trkpt>
      <trkpt lat="27.973284" lon="-15.518607">
        <ele>1183.11</ele>
        <time>2017-12-09T07:22:20Z</time>
      </trkpt>
      <trkpt lat="27.973299" lon="-15.518586">
        <ele>1183.70</ele>
        <time>2017-12-09T07:22:22Z</time>
      </trkpt>
      <trkpt lat="27.973310" lon="-15.518564">
        <ele>1184.00</ele>
        <time>2017-12-09T07:22:24Z</time>
      </trkpt>
      <trkpt lat="27.973319" lon="-15.518535">
        <ele>1184.01</ele>
        <time>2017-12-09T07:22:26Z</time>
      </trkpt>
      <trkpt lat="27.973327" lon="-15.518512">
        <ele>1184.50</ele>
        <time>2017-12-09T07:22:28Z</time>
      </trkpt>
      <trkpt lat="27.973336" lon="-15.518490">
        <ele>1184.60</ele>
        <time>2017-12-09T07:22:30Z</time>
      </trkpt>
      <trkpt lat="27.973323" lon="-15.518475">
        <ele>1184.90</ele>
        <time>2017-12-09T07:22:32Z</time>
      </trkpt>
      <trkpt lat="27.973299" lon="-15.518489">
        <ele>1186.01</ele>
        <time>2017-12-09T07:22:35Z</time>
      </trkpt>
      <trkpt lat="27.973280" lon="-15.518505">
        <ele>1186.30</ele>
        <time>2017-12-09T07:22:37Z</time>
      </trkpt>
      <trkpt lat="27.973251" lon="-15.518508">
        <ele>1186.90</ele>
        <time>2017-12-09T07:22:40Z</time>
      </trkpt>
      <trkpt lat="27.973234" lon="-15.518499">
        <ele>1187.20</ele>
        <time>2017-12-09T07:22:42Z</time>
      </trkpt>
      <trkpt lat="27.973227" lon="-15.518474">
        <ele>1187.81</ele>
        <time>2017-12-09T07:22:45Z</time>
      </trkpt>
      <trkpt lat="27.973249" lon="-15.518455">
        <ele>1187.91</ele>
        <time>2017-12-09T07:22:48Z</time>
      </trkpt>
      <trkpt lat="27.973266" lon="-15.518432">
        <ele>1188.05</ele>
        <time>2017-12-09T07:22:51Z</time>
      </trkpt>
      <trkpt lat="27.973262" lon="-15.518405">
        <ele>1189.41</ele>
        <time>2017-12-09T07:22:54Z</time>
      </trkpt>
      <trkpt lat="27.973242" lon="-15.518394">
        <ele>1189.74</ele>
        <time>2017-12-09T07:22:57Z</time>
      </trkpt>
      <trkpt lat="27.973257" lon="-15.518370">
        <ele>1191.50</ele>
        <time>2017-12-09T07:23:02Z</time>
      </trkpt>
      <trkpt lat="27.973276" lon="-15.518354">
        <ele>1191.70</ele>
        <time>2017-12-09T07:23:04Z</time>
      </trkpt>
      <trkpt lat="27.973289" lon="-15.518334">
        <ele>1192.13</ele>
        <time>2017-12-09T07:23:06Z</time>
      </trkpt>
      <trkpt lat="27.973302" lon="-15.518314">
        <ele>1192.51</ele>
        <time>2017-12-09T07:23:08Z</time>
      </trkpt>
      <trkpt lat="27.973313" lon="-15.518290">
        <ele>1192.72</ele>
        <time>2017-12-09T07:23:10Z</time>
      </trkpt>
      <trkpt lat="27.973325" lon="-15.518273">
        <ele>1192.95</ele>
        <time>2017-12-09T07:23:12Z</time>
      </trkpt>
      <trkpt lat="27.973335" lon="-15.518250">
        <ele>1193.42</ele>
        <time>2017-12-09T07:23:14Z</time>
      </trkpt>
      <trkpt lat="27.973344" lon="-15.518233">
        <ele>1194.43</ele>
        <time>2017-12-09T07:23:16Z</time>
      </trkpt>
      <trkpt lat="27.973349" lon="-15.518204">
        <ele>1194.93</ele>
        <time>2017-12-09T07:23:19Z</time>
      </trkpt>
      <trkpt lat="27.973359" lon="-15.518182">
        <ele>1195.23</ele>
        <time>2017-12-09T07:23:22Z</time>
      </trkpt>
      <trkpt lat="27.973364" lon="-15.518158">
        <ele>1195.92</ele>
        <time>2017-12-09T07:23:25Z</time>
      </trkpt>
      <trkpt lat="27.973339" lon="-15.518148">
        <ele>1197.30</ele>
        <time>2017-12-09T07:23:28Z</time>
      </trkpt>
      <trkpt lat="27.973323" lon="-15.518161">
        <ele>1197.74</ele>
        <time>2017-12-09T07:23:31Z</time>
      </trkpt>
      <trkpt lat="27.973300" lon="-15.518156">
        <ele>1198.22</ele>
        <time>2017-12-09T07:23:34Z</time>
      </trkpt>
      <trkpt lat="27.973282" lon="-15.518148">
        <ele>1198.52</ele>
        <time>2017-12-09T07:23:36Z</time>
      </trkpt>
      <trkpt lat="27.973267" lon="-15.518127">
        <ele>1199.41</ele>
        <time>2017-12-09T07:23:39Z</time>
      </trkpt>
      <trkpt lat="27.973264" lon="-15.518099">
        <ele>1200.14</ele>
        <time>2017-12-09T07:23:42Z</time>
      </trkpt>
      <trkpt lat="27.973273" lon="-15.518079">
        <ele>1200.79</ele>
        <time>2017-12-09T07:23:44Z</time>
      </trkpt>
      <trkpt lat="27.973290" lon="-15.518068">
        <ele>1201.10</ele>
        <time>2017-12-09T07:23:46Z</time>
      </trkpt>
      <trkpt lat="27.973309" lon="-15.518059">
        <ele>1201.40</ele>
        <time>2017-12-09T07:23:48Z</time>
      </trkpt>
      <trkpt lat="27.973325" lon="-15.518039">
        <ele>1201.73</ele>
        <time>2017-12-09T07:23:50Z</time>
      </trkpt>
      <trkpt lat="27.973338" lon="-15.518013">
        <ele>1202.10</ele>
        <time>2017-12-09T07:23:52Z</time>
      </trkpt>
      <trkpt lat="27.973349" lon="-15.517988">
        <ele>1202.20</ele>
        <time>2017-12-09T07:23:54Z</time>
      </trkpt>
      <trkpt lat="27.973352" lon="-15.517965">
        <ele>1202.34</ele>
        <time>2017-12-09T07:23:56Z</time>
      </trkpt>
      <trkpt lat="27.973347" lon="-15.517937">
        <ele>1202.76</ele>
        <time>2017-12-09T07:23:58Z</time>
      </trkpt>
      <trkpt lat="27.973341" lon="-15.517913">
        <ele>1203.15</ele>
        <time>2017-12-09T07:24:00Z</time>
      </trkpt>
      <trkpt lat="27.973332" lon="-15.517892">
        <ele>1203.93</ele>
        <time>2017-12-09T07:24:02Z</time>
      </trkpt>
      <trkpt lat="27.973324" lon="-15.517866">
        <ele>1204.06</ele>
        <time>2017-12-09T07:24:04Z</time>
      </trkpt>
      <trkpt lat="27.973310" lon="-15.517846">
        <ele>1204.35</ele>
        <time>2017-12-09T07:24:06Z</time>
      </trkpt>
      <trkpt lat="27.973291" lon="-15.517829">
        <ele>1204.83</ele>
        <time>2017-12-09T07:24:08Z</time>
      </trkpt>
      <trkpt lat="27.973272" lon="-15.517816">
        <ele>1205.69</ele>
        <time>2017-12-09T07:24:11Z</time>
      </trkpt>
      <trkpt lat="27.973252" lon="-15.517802">
        <ele>1206.45</ele>
        <time>2017-12-09T07:24:14Z</time>
      </trkpt>
      <trkpt lat="27.973234" lon="-15.517790">
        <ele>1207.16</ele>
        <time>2017-12-09T07:24:17Z</time>
      </trkpt>
      <trkpt lat="27.973211" lon="-15.517780">
        <ele>1208.25</ele>
        <time>2017-12-09T07:24:20Z</time>
      </trkpt>
      <trkpt lat="27.973191" lon="-15.517775">
        <ele>1209.09</ele>
        <time>2017-12-09T07:24:23Z</time>
      </trkpt>
      <trkpt lat="27.973170" lon="-15.517775">
        <ele>1210.46</ele>
        <time>2017-12-09T07:24:26Z</time>
      </trkpt>
      <trkpt lat="27.973153" lon="-15.517764">
        <ele>1210.90</ele>
        <time>2017-12-09T07:24:29Z</time>
      </trkpt>
      <trkpt lat="27.973134" lon="-15.517746">
        <ele>1212.12</ele>
        <time>2017-12-09T07:24:32Z</time>
      </trkpt>
      <trkpt lat="27.973117" lon="-15.517726">
        <ele>1212.63</ele>
        <time>2017-12-09T07:24:35Z</time>
      </trkpt>
      <trkpt lat="27.973106" lon="-15.517700">
        <ele>1213.03</ele>
        <time>2017-12-09T07:24:37Z</time>
      </trkpt>
      <trkpt lat="27.973100" lon="-15.517670">
        <ele>1214.14</ele>
        <time>2017-12-09T07:24:40Z</time>
      </trkpt>
      <trkpt lat="27.973090" lon="-15.517647">
        <ele>1214.83</ele>
        <time>2017-12-09T07:24:42Z</time>
      </trkpt>
      <trkpt lat="27.973078" lon="-15.517629">
        <ele>1215.24</ele>
        <time>2017-12-09T07:24:44Z</time>
      </trkpt>
      <trkpt lat="27.973064" lon="-15.517615">
        <ele>1215.54</ele>
        <time>2017-12-09T07:24:46Z</time>
      </trkpt>
      <trkpt lat="27.973047" lon="-15.517600">
        <ele>1215.74</ele>
        <time>2017-12-09T07:24:48Z</time>
      </trkpt>
      <trkpt lat="27.973032" lon="-15.517582">
        <ele>1216.01</ele>
        <time>2017-12-09T07:24:50Z</time>
      </trkpt>
      <trkpt lat="27.973016" lon="-15.517566">
        <ele>1216.31</ele>
        <time>2017-12-09T07:24:52Z</time>
      </trkpt>
      <trkpt lat="27.973003" lon="-15.517546">
        <ele>1216.70</ele>
        <time>2017-12-09T07:24:54Z</time>
      </trkpt>
      <trkpt lat="27.972989" lon="-15.517519">
        <ele>1217.42</ele>
        <time>2017-12-09T07:24:56Z</time>
      </trkpt>
      <trkpt lat="27.972974" lon="-15.517501">
        <ele>1217.96</ele>
        <time>2017-12-09T07:24:58Z</time>
      </trkpt>
      <trkpt lat="27.972958" lon="-15.517486">
        <ele>1218.30</ele>
        <time>2017-12-09T07:25:00Z</time>
      </trkpt>
      <trkpt lat="27.972942" lon="-15.517476">
        <ele>1218.98</ele>
        <time>2017-12-09T07:25:02Z</time>
      </trkpt>
      <trkpt lat="27.972920" lon="-15.517489">
        <ele>1220.04</ele>
        <time>2017-12-09T07:25:05Z</time>
      </trkpt>
      <trkpt lat="27.972906" lon="-15.517503">
        <ele>1220.25</ele>
        <time>2017-12-09T07:25:08Z</time>
      </trkpt>
      <trkpt lat="27.972888" lon="-15.517504">
        <ele>1220.75</ele>
        <time>2017-12-09T07:25:10Z</time>
      </trkpt>
      <trkpt lat="27.972868" lon="-15.517498">
        <ele>1221.20</ele>
        <time>2017-12-09T07:25:12Z</time>
      </trkpt>
      <trkpt lat="27.972851" lon="-15.517488">
        <ele>1221.70</ele>
        <time>2017-12-09T07:25:14Z</time>
      </trkpt>
      <trkpt lat="27.972834" lon="-15.517482">
        <ele>1221.85</ele>
        <time>2017-12-09T07:25:16Z</time>
      </trkpt>
      <trkpt lat="27.972818" lon="-15.517471">
        <ele>1222.50</ele>
        <time>2017-12-09T07:25:18Z</time>
      </trkpt>
      <trkpt lat="27.972810" lon="-15.517451">
        <ele>1223.40</ele>
        <time>2017-12-09T07:25:22Z</time>
      </trkpt>
      <trkpt lat="27.972823" lon="-15.517430">
        <ele>1224.00</ele>
        <time>2017-12-09T07:25:25Z</time>
      </trkpt>
      <trkpt lat="27.972841" lon="-15.517410">
        <ele>1224.81</ele>
        <time>2017-12-09T07:25:28Z</time>
      </trkpt>
      <trkpt lat="27.972845" lon="-15.517387">
        <ele>1225.00</ele>
        <time>2017-12-09T07:25:30Z</time>
      </trkpt>
      <trkpt lat="27.972836" lon="-15.517368">
        <ele>1225.42</ele>
        <time>2017-12-09T07:25:32Z</time>
      </trkpt>
      <trkpt lat="27.972818" lon="-15.517358">
        <ele>1226.05</ele>
        <time>2017-12-09T07:25:37Z</time>
      </trkpt>
      <trkpt lat="27.972802" lon="-15.517367">
        <ele>1226.52</ele>
        <time>2017-12-09T07:25:39Z</time>
      </trkpt>
      <trkpt lat="27.972778" lon="-15.517383">
        <ele>1227.71</ele>
        <time>2017-12-09T07:25:42Z</time>
      </trkpt>
      <trkpt lat="27.972763" lon="-15.517372">
        <ele>1228.00</ele>
        <time>2017-12-09T07:25:45Z</time>
      </trkpt>
      <trkpt lat="27.972776" lon="-15.517355">
        <ele>1228.67</ele>
        <time>2017-12-09T07:25:48Z</time>
      </trkpt>
      <trkpt lat="27.972792" lon="-15.517341">
        <ele>1229.50</ele>
        <time>2017-12-09T07:25:50Z</time>
      </trkpt>
      <trkpt lat="27.972801" lon="-15.517323">
        <ele>1229.84</ele>
        <time>2017-12-09T07:25:52Z</time>
      </trkpt>
      <trkpt lat="27.972806" lon="-15.517301">
        <ele>1229.84</ele>
        <time>2017-12-09T07:25:54Z</time>
      </trkpt>
      <trkpt lat="27.972803" lon="-15.517276">
        <ele>1230.40</ele>
        <time>2017-12-09T07:25:58Z</time>
      </trkpt>
      <trkpt lat="27.972802" lon="-15.517251">
        <ele>1230.91</ele>
        <time>2017-12-09T07:26:00Z</time>
      </trkpt>
      <trkpt lat="27.972803" lon="-15.517227">
        <ele>1231.41</ele>
        <time>2017-12-09T07:26:03Z</time>
      </trkpt>
      <trkpt lat="27.972784" lon="-15.517218">
        <ele>1232.20</ele>
        <time>2017-12-09T07:26:06Z</time>
      </trkpt>
      <trkpt lat="27.972764" lon="-15.517234">
        <ele>1233.20</ele>
        <time>2017-12-09T07:26:09Z</time>
      </trkpt>
      <trkpt lat="27.972753" lon="-15.517250">
        <ele>1233.71</ele>
        <time>2017-12-09T07:26:11Z</time>
      </trkpt>
      <trkpt lat="27.972736" lon="-15.517270">
        <ele>1234.73</ele>
        <time>2017-12-09T07:26:15Z</time>
      </trkpt>
      <trkpt lat="27.972713" lon="-15.517287">
        <ele>1234.96</ele>
        <time>2017-12-09T07:26:18Z</time>
      </trkpt>
      <trkpt lat="27.972697" lon="-15.517299">
        <ele>1236.43</ele>
        <time>2017-12-09T07:26:20Z</time>
      </trkpt>
      <trkpt lat="27.972676" lon="-15.517301">
        <ele>1237.00</ele>
        <time>2017-12-09T07:26:23Z</time>
      </trkpt>
      <trkpt lat="27.972680" lon="-15.517274">
        <ele>1237.06</ele>
        <time>2017-12-09T07:26:27Z</time>
      </trkpt>
      <trkpt lat="27.972692" lon="-15.517255">
        <ele>1237.48</ele>
        <time>2017-12-09T07:26:30Z</time>
      </trkpt>
      <trkpt lat="27.972700" lon="-15.517236">
        <ele>1238.52</ele>
        <time>2017-12-09T07:26:33Z</time>
      </trkpt>
      <trkpt lat="27.972697" lon="-15.517206">
        <ele>1238.92</ele>
        <time>2017-12-09T07:26:36Z</time>
      </trkpt>
      <trkpt lat="27.972694" lon="-15.517184">
        <ele>1239.58</ele>
        <time>2017-12-09T07:26:38Z</time>
      </trkpt>
      <trkpt lat="27.972690" lon="-15.517160">
        <ele>1239.86</ele>
        <time>2017-12-09T07:26:40Z</time>
      </trkpt>
      <trkpt lat="27.972689" lon="-15.517137">
        <ele>1240.00</ele>
        <time>2017-12-09T07:26:42Z</time>
      </trkpt>
      <trkpt lat="27.972694" lon="-15.517112">
        <ele>1240.86</ele>
        <time>2017-12-09T07:26:44Z</time>
      </trkpt>
      <trkpt lat="27.972703" lon="-15.517087">
        <ele>1241.40</ele>
        <time>2017-12-09T07:26:46Z</time>
      </trkpt>
      <trkpt lat="27.972711" lon="-15.517063">
        <ele>1241.85</ele>
        <time>2017-12-09T07:26:48Z</time>
      </trkpt>
      <trkpt lat="27.972723" lon="-15.517037">
        <ele>1242.00</ele>
        <time>2017-12-09T07:26:50Z</time>
      </trkpt>
      <trkpt lat="27.972734" lon="-15.517012">
        <ele>1242.19</ele>
        <time>2017-12-09T07:26:52Z</time>
      </trkpt>
      <trkpt lat="27.972745" lon="-15.516984">
        <ele>1242.57</ele>
        <time>2017-12-09T07:26:54Z</time>
      </trkpt>
      <trkpt lat="27.972752" lon="-15.516956">
        <ele>1242.60</ele>
        <time>2017-12-09T07:26:56Z</time>
      </trkpt>
      <trkpt lat="27.972750" lon="-15.516933">
        <ele>1242.80</ele>
        <time>2017-12-09T07:26:58Z</time>
      </trkpt>
      <trkpt lat="27.972758" lon="-15.516905">
        <ele>1243.38</ele>
        <time>2017-12-09T07:27:01Z</time>
      </trkpt>
      <trkpt lat="27.972774" lon="-15.516881">
        <ele>1243.94</ele>
        <time>2017-12-09T07:27:04Z</time>
      </trkpt>
      <trkpt lat="27.972788" lon="-15.516863">
        <ele>1244.31</ele>
        <time>2017-12-09T07:27:06Z</time>
      </trkpt>
      <trkpt lat="27.972799" lon="-15.516841">
        <ele>1245.23</ele>
        <time>2017-12-09T07:27:08Z</time>
      </trkpt>
      <trkpt lat="27.972811" lon="-15.516821">
        <ele>1245.62</ele>
        <time>2017-12-09T07:27:10Z</time>
      </trkpt>
      <trkpt lat="27.972827" lon="-15.516797">
        <ele>1246.30</ele>
        <time>2017-12-09T07:27:13Z</time>
      </trkpt>
      <trkpt lat="27.972846" lon="-15.516776">
        <ele>1246.30</ele>
        <time>2017-12-09T07:27:15Z</time>
      </trkpt>
      <trkpt lat="27.972860" lon="-15.516754">
        <ele>1246.48</ele>
        <time>2017-12-09T07:27:17Z</time>
      </trkpt>
      <trkpt lat="27.972873" lon="-15.516730">
        <ele>1247.40</ele>
        <time>2017-12-09T07:27:19Z</time>
      </trkpt>
      <trkpt lat="27.972869" lon="-15.516706">
        <ele>1247.91</ele>
        <time>2017-12-09T07:27:21Z</time>
      </trkpt>
      <trkpt lat="27.972848" lon="-15.516696">
        <ele>1248.00</ele>
        <time>2017-12-09T07:27:24Z</time>
      </trkpt>
      <trkpt lat="27.972825" lon="-15.516712">
        <ele>1248.38</ele>
        <time>2017-12-09T07:27:27Z</time>
      </trkpt>
      <trkpt lat="27.972802" lon="-15.516702">
        <ele>1249.94</ele>
        <time>2017-12-09T07:27:30Z</time>
      </trkpt>
      <trkpt lat="27.972799" lon="-15.516674">
        <ele>1250.38</ele>
        <time>2017-12-09T07:27:33Z</time>
      </trkpt>
      <trkpt lat="27.972805" lon="-15.516651">
        <ele>1251.38</ele>
        <time>2017-12-09T07:27:35Z</time>
      </trkpt>
      <trkpt lat="27.972812" lon="-15.516629">
        <ele>1251.66</ele>
        <time>2017-12-09T07:27:37Z</time>
      </trkpt>
      <trkpt lat="27.972816" lon="-15.516601">
        <ele>1252.05</ele>
        <time>2017-12-09T07:27:39Z</time>
      </trkpt>
      <trkpt lat="27.972813" lon="-15.516575">
        <ele>1252.05</ele>
        <time>2017-12-09T07:27:41Z</time>
      </trkpt>
      <trkpt lat="27.972812" lon="-15.516544">
        <ele>1252.29</ele>
        <time>2017-12-09T07:27:44Z</time>
      </trkpt>
      <trkpt lat="27.972811" lon="-15.516512">
        <ele>1253.60</ele>
        <time>2017-12-09T07:27:46Z</time>
      </trkpt>
      <trkpt lat="27.972810" lon="-15.516482">
        <ele>1253.70</ele>
        <time>2017-12-09T07:27:48Z</time>
      </trkpt>
      <trkpt lat="27.972812" lon="-15.516452">
        <ele>1254.19</ele>
        <time>2017-12-09T07:27:50Z</time>
      </trkpt>
      <trkpt lat="27.972814" lon="-15.516424">
        <ele>1254.39</ele>
        <time>2017-12-09T07:27:52Z</time>
      </trkpt>
      <trkpt lat="27.972809" lon="-15.516393">
        <ele>1254.77</ele>
        <time>2017-12-09T07:27:54Z</time>
      </trkpt>
      <trkpt lat="27.972803" lon="-15.516361">
        <ele>1254.80</ele>
        <time>2017-12-09T07:27:56Z</time>
      </trkpt>
      <trkpt lat="27.972794" lon="-15.516338">
        <ele>1255.20</ele>
        <time>2017-12-09T07:27:58Z</time>
      </trkpt>
      <trkpt lat="27.972784" lon="-15.516320">
        <ele>1255.48</ele>
        <time>2017-12-09T07:28:00Z</time>
      </trkpt>
      <trkpt lat="27.972766" lon="-15.516302">
        <ele>1255.87</ele>
        <time>2017-12-09T07:28:02Z</time>
      </trkpt>
      <trkpt lat="27.972748" lon="-15.516324">
        <ele>1257.10</ele>
        <time>2017-12-09T07:28:06Z</time>
      </trkpt>
      <trkpt lat="27.972748" lon="-15.516352">
        <ele>1257.98</ele>
        <time>2017-12-09T07:28:08Z</time>
      </trkpt>
      <trkpt lat="27.972744" lon="-15.516383">
        <ele>1258.19</ele>
        <time>2017-12-09T07:28:10Z</time>
      </trkpt>
      <trkpt lat="27.972742" lon="-15.516406">
        <ele>1258.99</ele>
        <time>2017-12-09T07:28:12Z</time>
      </trkpt>
      <trkpt lat="27.972730" lon="-15.516429">
        <ele>1259.40</ele>
        <time>2017-12-09T07:28:14Z</time>
      </trkpt>
      <trkpt lat="27.972719" lon="-15.516452">
        <ele>1259.60</ele>
        <time>2017-12-09T07:28:16Z</time>
      </trkpt>
      <trkpt lat="27.972702" lon="-15.516478">
        <ele>1259.80</ele>
        <time>2017-12-09T07:28:19Z</time>
      </trkpt>
      <trkpt lat="27.972680" lon="-15.516499">
        <ele>1260.00</ele>
        <time>2017-12-09T07:28:22Z</time>
      </trkpt>
      <trkpt lat="27.972674" lon="-15.516523">
        <ele>1260.01</ele>
        <time>2017-12-09T07:28:24Z</time>
      </trkpt>
      <trkpt lat="27.972665" lon="-15.516544">
        <ele>1261.10</ele>
        <time>2017-12-09T07:28:26Z</time>
      </trkpt>
      <trkpt lat="27.972651" lon="-15.516565">
        <ele>1261.30</ele>
        <time>2017-12-09T07:28:28Z</time>
      </trkpt>
      <trkpt lat="27.972637" lon="-15.516584">
        <ele>1261.21</ele>
        <time>2017-12-09T07:28:30Z</time>
      </trkpt>
      <trkpt lat="27.972616" lon="-15.516604">
        <ele>1261.70</ele>
        <time>2017-12-09T07:28:33Z</time>
      </trkpt>
      <trkpt lat="27.972599" lon="-15.516618">
        <ele>1262.10</ele>
        <time>2017-12-09T07:28:35Z</time>
      </trkpt>
      <trkpt lat="27.972582" lon="-15.516629">
        <ele>1262.61</ele>
        <time>2017-12-09T07:28:37Z</time>
      </trkpt>
      <trkpt lat="27.972560" lon="-15.516648">
        <ele>1262.91</ele>
        <time>2017-12-09T07:28:39Z</time>
      </trkpt>
      <trkpt lat="27.972543" lon="-15.516657">
        <ele>1263.71</ele>
        <time>2017-12-09T07:28:41Z</time>
      </trkpt>
      <trkpt lat="27.972522" lon="-15.516665">
        <ele>1264.61</ele>
        <time>2017-12-09T07:28:43Z</time>
      </trkpt>
      <trkpt lat="27.972503" lon="-15.516667">
        <ele>1265.20</ele>
        <time>2017-12-09T07:28:45Z</time>
      </trkpt>
      <trkpt lat="27.972480" lon="-15.516669">
        <ele>1265.52</ele>
        <time>2017-12-09T07:28:48Z</time>
      </trkpt>
      <trkpt lat="27.972458" lon="-15.516671">
        <ele>1267.30</ele>
        <time>2017-12-09T07:28:51Z</time>
      </trkpt>
      <trkpt lat="27.972438" lon="-15.516663">
        <ele>1267.70</ele>
        <time>2017-12-09T07:28:53Z</time>
      </trkpt>
      <trkpt lat="27.972419" lon="-15.516661">
        <ele>1268.01</ele>
        <time>2017-12-09T07:28:55Z</time>
      </trkpt>
      <trkpt lat="27.972397" lon="-15.516658">
        <ele>1268.81</ele>
        <time>2017-12-09T07:28:57Z</time>
      </trkpt>
      <trkpt lat="27.972373" lon="-15.516649">
        <ele>1269.00</ele>
        <time>2017-12-09T07:28:59Z</time>
      </trkpt>
      <trkpt lat="27.972348" lon="-15.516642">
        <ele>1269.20</ele>
        <time>2017-12-09T07:29:01Z</time>
      </trkpt>
      <trkpt lat="27.972325" lon="-15.516639">
        <ele>1270.10</ele>
        <time>2017-12-09T07:29:03Z</time>
      </trkpt>
      <trkpt lat="27.972300" lon="-15.516635">
        <ele>1270.20</ele>
        <time>2017-12-09T07:29:05Z</time>
      </trkpt>
      <trkpt lat="27.972273" lon="-15.516626">
        <ele>1270.80</ele>
        <time>2017-12-09T07:29:07Z</time>
      </trkpt>
      <trkpt lat="27.972249" lon="-15.516609">
        <ele>1271.00</ele>
        <time>2017-12-09T07:29:09Z</time>
      </trkpt>
      <trkpt lat="27.972219" lon="-15.516595">
        <ele>1271.10</ele>
        <time>2017-12-09T07:29:11Z</time>
      </trkpt>
      <trkpt lat="27.972190" lon="-15.516580">
        <ele>1271.30</ele>
        <time>2017-12-09T07:29:13Z</time>
      </trkpt>
      <trkpt lat="27.972162" lon="-15.516566">
        <ele>1271.30</ele>
        <time>2017-12-09T07:29:15Z</time>
      </trkpt>
      <trkpt lat="27.972135" lon="-15.516553">
        <ele>1271.40</ele>
        <time>2017-12-09T07:29:17Z</time>
      </trkpt>
      <trkpt lat="27.972108" lon="-15.516543">
        <ele>1271.60</ele>
        <time>2017-12-09T07:29:19Z</time>
      </trkpt>
      <trkpt lat="27.972083" lon="-15.516531">
        <ele>1271.60</ele>
        <time>2017-12-09T07:29:21Z</time>
      </trkpt>
      <trkpt lat="27.972056" lon="-15.516523">
        <ele>1271.70</ele>
        <time>2017-12-09T07:29:23Z</time>
      </trkpt>
      <trkpt lat="27.972029" lon="-15.516513">
        <ele>1272.11</ele>
        <time>2017-12-09T07:29:25Z</time>
      </trkpt>
      <trkpt lat="27.972002" lon="-15.516502">
        <ele>1272.50</ele>
        <time>2017-12-09T07:29:27Z</time>
      </trkpt>
      <trkpt lat="27.971975" lon="-15.516490">
        <ele>1272.50</ele>
        <time>2017-12-09T07:29:29Z</time>
      </trkpt>
      <trkpt lat="27.971950" lon="-15.516482">
        <ele>1272.41</ele>
        <time>2017-12-09T07:29:31Z</time>
      </trkpt>
      <trkpt lat="27.971924" lon="-15.516476">
        <ele>1272.61</ele>
        <time>2017-12-09T07:29:33Z</time>
      </trkpt>
      <trkpt lat="27.971899" lon="-15.516472">
        <ele>1273.10</ele>
        <time>2017-12-09T07:29:35Z</time>
      </trkpt>
      <trkpt lat="27.971874" lon="-15.516467">
        <ele>1273.10</ele>
        <time>2017-12-09T07:29:37Z</time>
      </trkpt>
      <trkpt lat="27.971848" lon="-15.516461">
        <ele>1273.13</ele>
        <time>2017-12-09T07:29:39Z</time>
      </trkpt>
      <trkpt lat="27.971819" lon="-15.516458">
        <ele>1273.52</ele>
        <time>2017-12-09T07:29:41Z</time>
      </trkpt>
      <trkpt lat="27.971792" lon="-15.516458">
        <ele>1273.90</ele>
        <time>2017-12-09T07:29:43Z</time>
      </trkpt>
      <trkpt lat="27.971766" lon="-15.516454">
        <ele>1274.00</ele>
        <time>2017-12-09T07:29:45Z</time>
      </trkpt>
      <trkpt lat="27.971740" lon="-15.516449">
        <ele>1274.31</ele>
        <time>2017-12-09T07:29:47Z</time>
      </trkpt>
      <trkpt lat="27.971714" lon="-15.516446">
        <ele>1274.52</ele>
        <time>2017-12-09T07:29:49Z</time>
      </trkpt>
      <trkpt lat="27.971693" lon="-15.516442">
        <ele>1275.01</ele>
        <time>2017-12-09T07:29:51Z</time>
      </trkpt>
      <trkpt lat="27.971668" lon="-15.516445">
        <ele>1275.12</ele>
        <time>2017-12-09T07:29:53Z</time>
      </trkpt>
      <trkpt lat="27.971643" lon="-15.516447">
        <ele>1275.51</ele>
        <time>2017-12-09T07:29:55Z</time>
      </trkpt>
      <trkpt lat="27.971621" lon="-15.516450">
        <ele>1275.74</ele>
        <time>2017-12-09T07:29:57Z</time>
      </trkpt>
      <trkpt lat="27.971601" lon="-15.516441">
        <ele>1276.31</ele>
        <time>2017-12-09T07:29:59Z</time>
      </trkpt>
      <trkpt lat="27.971582" lon="-15.516435">
        <ele>1276.41</ele>
        <time>2017-12-09T07:30:01Z</time>
      </trkpt>
      <trkpt lat="27.971560" lon="-15.516432">
        <ele>1276.80</ele>
        <time>2017-12-09T07:30:03Z</time>
      </trkpt>
      <trkpt lat="27.971539" lon="-15.516432">
        <ele>1277.64</ele>
        <time>2017-12-09T07:30:05Z</time>
      </trkpt>
      <trkpt lat="27.971521" lon="-15.516428">
        <ele>1278.44</ele>
        <time>2017-12-09T07:30:07Z</time>
      </trkpt>
      <trkpt lat="27.971499" lon="-15.516422">
        <ele>1278.71</ele>
        <time>2017-12-09T07:30:09Z</time>
      </trkpt>
      <trkpt lat="27.971476" lon="-15.516418">
        <ele>1278.84</ele>
        <time>2017-12-09T07:30:11Z</time>
      </trkpt>
      <trkpt lat="27.971456" lon="-15.516412">
        <ele>1279.24</ele>
        <time>2017-12-09T07:30:13Z</time>
      </trkpt>
      <trkpt lat="27.971433" lon="-15.516411">
        <ele>1279.90</ele>
        <time>2017-12-09T07:30:15Z</time>
      </trkpt>
      <trkpt lat="27.971410" lon="-15.516416">
        <ele>1280.72</ele>
        <time>2017-12-09T07:30:17Z</time>
      </trkpt>
      <trkpt lat="27.971392" lon="-15.516412">
        <ele>1280.83</ele>
        <time>2017-12-09T07:30:19Z</time>
      </trkpt>
      <trkpt lat="27.971366" lon="-15.516410">
        <ele>1281.33</ele>
        <time>2017-12-09T07:30:21Z</time>
      </trkpt>
      <trkpt lat="27.971346" lon="-15.516404">
        <ele>1281.92</ele>
        <time>2017-12-09T07:30:23Z</time>
      </trkpt>
      <trkpt lat="27.971326" lon="-15.516395">
        <ele>1282.12</ele>
        <time>2017-12-09T07:30:25Z</time>
      </trkpt>
      <trkpt lat="27.971307" lon="-15.516399">
        <ele>1282.20</ele>
        <time>2017-12-09T07:30:27Z</time>
      </trkpt>
      <trkpt lat="27.971285" lon="-15.516397">
        <ele>1282.82</ele>
        <time>2017-12-09T07:30:29Z</time>
      </trkpt>
      <trkpt lat="27.971262" lon="-15.516398">
        <ele>1283.90</ele>
        <time>2017-12-09T07:30:31Z</time>
      </trkpt>
      <trkpt lat="27.971243" lon="-15.516393">
        <ele>1284.42</ele>
        <time>2017-12-09T07:30:33Z</time>
      </trkpt>
      <trkpt lat="27.971220" lon="-15.516386">
        <ele>1284.71</ele>
        <time>2017-12-09T07:30:35Z</time>
      </trkpt>
      <trkpt lat="27.971198" lon="-15.516376">
        <ele>1285.32</ele>
        <time>2017-12-09T07:30:37Z</time>
      </trkpt>
      <trkpt lat="27.971177" lon="-15.516369">
        <ele>1285.60</ele>
        <time>2017-12-09T07:30:39Z</time>
      </trkpt>
      <trkpt lat="27.971151" lon="-15.516366">
        <ele>1285.89</ele>
        <time>2017-12-09T07:30:41Z</time>
      </trkpt>
      <trkpt lat="27.971130" lon="-15.516361">
        <ele>1286.62</ele>
        <time>2017-12-09T07:30:43Z</time>
      </trkpt>
      <trkpt lat="27.971107" lon="-15.516354">
        <ele>1286.82</ele>
        <time>2017-12-09T07:30:45Z</time>
      </trkpt>
      <trkpt lat="27.971084" lon="-15.516355">
        <ele>1287.12</ele>
        <time>2017-12-09T07:30:47Z</time>
      </trkpt>
      <trkpt lat="27.971060" lon="-15.516359">
        <ele>1287.76</ele>
        <time>2017-12-09T07:30:50Z</time>
      </trkpt>
      <trkpt lat="27.971041" lon="-15.516369">
        <ele>1288.18</ele>
        <time>2017-12-09T07:30:53Z</time>
      </trkpt>
      <trkpt lat="27.971017" lon="-15.516376">
        <ele>1289.10</ele>
        <time>2017-12-09T07:30:56Z</time>
      </trkpt>
      <trkpt lat="27.970999" lon="-15.516377">
        <ele>1289.68</ele>
        <time>2017-12-09T07:30:58Z</time>
      </trkpt>
      <trkpt lat="27.970980" lon="-15.516385">
        <ele>1290.04</ele>
        <time>2017-12-09T07:31:00Z</time>
      </trkpt>
      <trkpt lat="27.970966" lon="-15.516400">
        <ele>1290.62</ele>
        <time>2017-12-09T07:31:02Z</time>
      </trkpt>
      <trkpt lat="27.970947" lon="-15.516396">
        <ele>1291.36</ele>
        <time>2017-12-09T07:31:04Z</time>
      </trkpt>
      <trkpt lat="27.970927" lon="-15.516404">
        <ele>1291.60</ele>
        <time>2017-12-09T07:31:06Z</time>
      </trkpt>
      <trkpt lat="27.970905" lon="-15.516414">
        <ele>1291.90</ele>
        <time>2017-12-09T07:31:08Z</time>
      </trkpt>
      <trkpt lat="27.970885" lon="-15.516429">
        <ele>1291.92</ele>
        <time>2017-12-09T07:31:10Z</time>
      </trkpt>
      <trkpt lat="27.970864" lon="-15.516442">
        <ele>1292.24</ele>
        <time>2017-12-09T07:31:12Z</time>
      </trkpt>
      <trkpt lat="27.970842" lon="-15.516459">
        <ele>1292.40</ele>
        <time>2017-12-09T07:31:14Z</time>
      </trkpt>
      <trkpt lat="27.970823" lon="-15.516475">
        <ele>1292.40</ele>
        <time>2017-12-09T07:31:16Z</time>
      </trkpt>
      <trkpt lat="27.970803" lon="-15.516495">
        <ele>1292.40</ele>
        <time>2017-12-09T07:31:18Z</time>
      </trkpt>
      <trkpt lat="27.970780" lon="-15.516511">
        <ele>1292.30</ele>
        <time>2017-12-09T07:31:20Z</time>
      </trkpt>
      <trkpt lat="27.970757" lon="-15.516526">
        <ele>1292.18</ele>
        <time>2017-12-09T07:31:22Z</time>
      </trkpt>
      <trkpt lat="27.970738" lon="-15.516536">
        <ele>1291.93</ele>
        <time>2017-12-09T07:31:24Z</time>
      </trkpt>
      <trkpt lat="27.970708" lon="-15.516551">
        <ele>1292.68</ele>
        <time>2017-12-09T07:31:26Z</time>
      </trkpt>
      <trkpt lat="27.970689" lon="-15.516559">
        <ele>1293.20</ele>
        <time>2017-12-09T07:31:27Z</time>
      </trkpt>
      <trkpt lat="27.970668" lon="-15.516567">
        <ele>1293.25</ele>
        <time>2017-12-09T07:31:28Z</time>
      </trkpt>
      <trkpt lat="27.970647" lon="-15.516577">
        <ele>1293.40</ele>
        <time>2017-12-09T07:31:29Z</time>
      </trkpt>
      <trkpt lat="27.970630" lon="-15.516588">
        <ele>1293.40</ele>
        <time>2017-12-09T07:31:30Z</time>
      </trkpt>
      <trkpt lat="27.970610" lon="-15.516600">
        <ele>1293.40</ele>
        <time>2017-12-09T07:31:31Z</time>
      </trkpt>
      <trkpt lat="27.970590" lon="-15.516612">
        <ele>1293.37</ele>
        <time>2017-12-09T07:31:32Z</time>
      </trkpt>
      <trkpt lat="27.970571" lon="-15.516626">
        <ele>1293.16</ele>
        <time>2017-12-09T07:31:33Z</time>
      </trkpt>
      <trkpt lat="27.970553" lon="-15.516642">
        <ele>1292.80</ele>
        <time>2017-12-09T07:31:34Z</time>
      </trkpt>
      <trkpt lat="27.970533" lon="-15.516657">
        <ele>1292.80</ele>
        <time>2017-12-09T07:31:35Z</time>
      </trkpt>
      <trkpt lat="27.970514" lon="-15.516672">
        <ele>1292.74</ele>
        <time>2017-12-09T07:31:36Z</time>
      </trkpt>
      <trkpt lat="27.970497" lon="-15.516684">
        <ele>1292.60</ele>
        <time>2017-12-09T07:31:37Z</time>
      </trkpt>
      <trkpt lat="27.970479" lon="-15.516698">
        <ele>1292.60</ele>
        <time>2017-12-09T07:31:38Z</time>
      </trkpt>
      <trkpt lat="27.970462" lon="-15.516713">
        <ele>1292.42</ele>
        <time>2017-12-09T07:31:39Z</time>
      </trkpt>
      <trkpt lat="27.970447" lon="-15.516729">
        <ele>1292.00</ele>
        <time>2017-12-09T07:31:40Z</time>
      </trkpt>
      <trkpt lat="27.970432" lon="-15.516741">
        <ele>1292.00</ele>
        <time>2017-12-09T07:31:41Z</time>
      </trkpt>
      <trkpt lat="27.970406" lon="-15.516760">
        <ele>1292.28</ele>
        <time>2017-12-09T07:31:43Z</time>
      </trkpt>
      <trkpt lat="27.970382" lon="-15.516779">
        <ele>1292.50</ele>
        <time>2017-12-09T07:31:45Z</time>
      </trkpt>
      <trkpt lat="27.970366" lon="-15.516788">
        <ele>1292.65</ele>
        <time>2017-12-09T07:31:46Z</time>
      </trkpt>
      <trkpt lat="27.970348" lon="-15.516793">
        <ele>1292.90</ele>
        <time>2017-12-09T07:31:47Z</time>
      </trkpt>
      <trkpt lat="27.970313" lon="-15.516807">
        <ele>1292.96</ele>
        <time>2017-12-09T07:31:49Z</time>
      </trkpt>
      <trkpt lat="27.970280" lon="-15.516814">
        <ele>1292.90</ele>
        <time>2017-12-09T07:31:51Z</time>
      </trkpt>
      <trkpt lat="27.970262" lon="-15.516819">
        <ele>1292.90</ele>
        <time>2017-12-09T07:31:52Z</time>
      </trkpt>
      <trkpt lat="27.970244" lon="-15.516825">
        <ele>1292.90</ele>
        <time>2017-12-09T07:31:53Z</time>
      </trkpt>
      <trkpt lat="27.970226" lon="-15.516829">
        <ele>1292.90</ele>
        <time>2017-12-09T07:31:54Z</time>
      </trkpt>
      <trkpt lat="27.970192" lon="-15.516839">
        <ele>1292.94</ele>
        <time>2017-12-09T07:31:56Z</time>
      </trkpt>
      <trkpt lat="27.970173" lon="-15.516842">
        <ele>1293.31</ele>
        <time>2017-12-09T07:31:57Z</time>
      </trkpt>
      <trkpt lat="27.970155" lon="-15.516844">
        <ele>1293.80</ele>
        <time>2017-12-09T07:31:58Z</time>
      </trkpt>
      <trkpt lat="27.970136" lon="-15.516844">
        <ele>1293.84</ele>
        <time>2017-12-09T07:31:59Z</time>
      </trkpt>
      <trkpt lat="27.970117" lon="-15.516849">
        <ele>1293.90</ele>
        <time>2017-12-09T07:32:00Z</time>
      </trkpt>
      <trkpt lat="27.970096" lon="-15.516854">
        <ele>1293.90</ele>
        <time>2017-12-09T07:32:01Z</time>
      </trkpt>
      <trkpt lat="27.970062" lon="-15.516859">
        <ele>1293.90</ele>
        <time>2017-12-09T07:32:03Z</time>
      </trkpt>
      <trkpt lat="27.970042" lon="-15.516861">
        <ele>1294.02</ele>
        <time>2017-12-09T07:32:04Z</time>
      </trkpt>
      <trkpt lat="27.970024" lon="-15.516866">
        <ele>1294.20</ele>
        <time>2017-12-09T07:32:05Z</time>
      </trkpt>
      <trkpt lat="27.970004" lon="-15.516873">
        <ele>1294.20</ele>
        <time>2017-12-09T07:32:06Z</time>
      </trkpt>
      <trkpt lat="27.969984" lon="-15.516888">
        <ele>1294.24</ele>
        <time>2017-12-09T07:32:07Z</time>
      </trkpt>
      <trkpt lat="27.969964" lon="-15.516903">
        <ele>1294.42</ele>
        <time>2017-12-09T07:32:08Z</time>
      </trkpt>
      <trkpt lat="27.969949" lon="-15.516917">
        <ele>1294.60</ele>
        <time>2017-12-09T07:32:09Z</time>
      </trkpt>
      <trkpt lat="27.969929" lon="-15.516934">
        <ele>1294.60</ele>
        <time>2017-12-09T07:32:10Z</time>
      </trkpt>
      <trkpt lat="27.969911" lon="-15.516951">
        <ele>1294.60</ele>
        <time>2017-12-09T07:32:11Z</time>
      </trkpt>
      <trkpt lat="27.969895" lon="-15.516970">
        <ele>1294.60</ele>
        <time>2017-12-09T07:32:12Z</time>
      </trkpt>
      <trkpt lat="27.969878" lon="-15.516991">
        <ele>1294.60</ele>
        <time>2017-12-09T07:32:13Z</time>
      </trkpt>
      <trkpt lat="27.969860" lon="-15.517012">
        <ele>1294.60</ele>
        <time>2017-12-09T07:32:14Z</time>
      </trkpt>
      <trkpt lat="27.969844" lon="-15.517035">
        <ele>1294.47</ele>
        <time>2017-12-09T07:32:15Z</time>
      </trkpt>
      <trkpt lat="27.969829" lon="-15.517057">
        <ele>1294.30</ele>
        <time>2017-12-09T07:32:16Z</time>
      </trkpt>
      <trkpt lat="27.969814" lon="-15.517079">
        <ele>1294.30</ele>
        <time>2017-12-09T07:32:17Z</time>
      </trkpt>
      <trkpt lat="27.969800" lon="-15.517100">
        <ele>1294.17</ele>
        <time>2017-12-09T07:32:18Z</time>
      </trkpt>
      <trkpt lat="27.969784" lon="-15.517124">
        <ele>1294.00</ele>
        <time>2017-12-09T07:32:19Z</time>
      </trkpt>
      <trkpt lat="27.969770" lon="-15.517146">
        <ele>1293.82</ele>
        <time>2017-12-09T07:32:20Z</time>
      </trkpt>
      <trkpt lat="27.969755" lon="-15.517166">
        <ele>1293.60</ele>
        <time>2017-12-09T07:32:21Z</time>
      </trkpt>
      <trkpt lat="27.969740" lon="-15.517184">
        <ele>1293.55</ele>
        <time>2017-12-09T07:32:22Z</time>
      </trkpt>
      <trkpt lat="27.969727" lon="-15.517201">
        <ele>1293.50</ele>
        <time>2017-12-09T07:32:23Z</time>
      </trkpt>
      <trkpt lat="27.969711" lon="-15.517218">
        <ele>1293.50</ele>
        <time>2017-12-09T07:32:24Z</time>
      </trkpt>
      <trkpt lat="27.969695" lon="-15.517236">
        <ele>1293.03</ele>
        <time>2017-12-09T07:32:25Z</time>
      </trkpt>
      <trkpt lat="27.969679" lon="-15.517251">
        <ele>1292.50</ele>
        <time>2017-12-09T07:32:26Z</time>
      </trkpt>
      <trkpt lat="27.969663" lon="-15.517268">
        <ele>1292.50</ele>
        <time>2017-12-09T07:32:27Z</time>
      </trkpt>
      <trkpt lat="27.969645" lon="-15.517285">
        <ele>1292.50</ele>
        <time>2017-12-09T07:32:28Z</time>
      </trkpt>
      <trkpt lat="27.969629" lon="-15.517302">
        <ele>1292.50</ele>
        <time>2017-12-09T07:32:29Z</time>
      </trkpt>
      <trkpt lat="27.969616" lon="-15.517320">
        <ele>1292.50</ele>
        <time>2017-12-09T07:32:30Z</time>
      </trkpt>
      <trkpt lat="27.969600" lon="-15.517337">
        <ele>1292.55</ele>
        <time>2017-12-09T07:32:31Z</time>
      </trkpt>
      <trkpt lat="27.969585" lon="-15.517351">
        <ele>1292.84</ele>
        <time>2017-12-09T07:32:32Z</time>
      </trkpt>
      <trkpt lat="27.969567" lon="-15.517367">
        <ele>1292.91</ele>
        <time>2017-12-09T07:32:33Z</time>
      </trkpt>
      <trkpt lat="27.969551" lon="-15.517381">
        <ele>1292.89</ele>
        <time>2017-12-09T07:32:34Z</time>
      </trkpt>
      <trkpt lat="27.969535" lon="-15.517396">
        <ele>1293.05</ele>
        <time>2017-12-09T07:32:35Z</time>
      </trkpt>
      <trkpt lat="27.969521" lon="-15.517410">
        <ele>1293.00</ele>
        <time>2017-12-09T07:32:36Z</time>
      </trkpt>
      <trkpt lat="27.969507" lon="-15.517425">
        <ele>1293.00</ele>
        <time>2017-12-09T07:32:37Z</time>
      </trkpt>
      <trkpt lat="27.969494" lon="-15.517444">
        <ele>1293.05</ele>
        <time>2017-12-09T07:32:38Z</time>
      </trkpt>
      <trkpt lat="27.969480" lon="-15.517458">
        <ele>1293.15</ele>
        <time>2017-12-09T07:32:39Z</time>
      </trkpt>
      <trkpt lat="27.969465" lon="-15.517477">
        <ele>1293.40</ele>
        <time>2017-12-09T07:32:40Z</time>
      </trkpt>
      <trkpt lat="27.969450" lon="-15.517497">
        <ele>1293.65</ele>
        <time>2017-12-09T07:32:41Z</time>
      </trkpt>
      <trkpt lat="27.969437" lon="-15.517522">
        <ele>1293.90</ele>
        <time>2017-12-09T07:32:42Z</time>
      </trkpt>
      <trkpt lat="27.969426" lon="-15.517545">
        <ele>1294.10</ele>
        <time>2017-12-09T07:32:43Z</time>
      </trkpt>
      <trkpt lat="27.969416" lon="-15.517566">
        <ele>1294.10</ele>
        <time>2017-12-09T07:32:44Z</time>
      </trkpt>
      <trkpt lat="27.969404" lon="-15.517591">
        <ele>1294.10</ele>
        <time>2017-12-09T07:32:45Z</time>
      </trkpt>
      <trkpt lat="27.969392" lon="-15.517613">
        <ele>1294.10</ele>
        <time>2017-12-09T07:32:46Z</time>
      </trkpt>
      <trkpt lat="27.969383" lon="-15.517638">
        <ele>1294.05</ele>
        <time>2017-12-09T07:32:47Z</time>
      </trkpt>
      <trkpt lat="27.969376" lon="-15.517665">
        <ele>1293.70</ele>
        <time>2017-12-09T07:32:48Z</time>
      </trkpt>
      <trkpt lat="27.969367" lon="-15.517687">
        <ele>1293.40</ele>
        <time>2017-12-09T07:32:49Z</time>
      </trkpt>
      <trkpt lat="27.969360" lon="-15.517706">
        <ele>1293.40</ele>
        <time>2017-12-09T07:32:50Z</time>
      </trkpt>
      <trkpt lat="27.969351" lon="-15.517725">
        <ele>1293.14</ele>
        <time>2017-12-09T07:32:51Z</time>
      </trkpt>
      <trkpt lat="27.969339" lon="-15.517743">
        <ele>1292.85</ele>
        <time>2017-12-09T07:32:52Z</time>
      </trkpt>
      <trkpt lat="27.969329" lon="-15.517765">
        <ele>1292.80</ele>
        <time>2017-12-09T07:32:53Z</time>
      </trkpt>
      <trkpt lat="27.969306" lon="-15.517796">
        <ele>1293.06</ele>
        <time>2017-12-09T07:32:55Z</time>
      </trkpt>
      <trkpt lat="27.969294" lon="-15.517813">
        <ele>1293.04</ele>
        <time>2017-12-09T07:32:56Z</time>
      </trkpt>
      <trkpt lat="27.969282" lon="-15.517830">
        <ele>1293.06</ele>
        <time>2017-12-09T07:32:57Z</time>
      </trkpt>
      <trkpt lat="27.969267" lon="-15.517845">
        <ele>1293.20</ele>
        <time>2017-12-09T07:32:58Z</time>
      </trkpt>
      <trkpt lat="27.969250" lon="-15.517858">
        <ele>1293.25</ele>
        <time>2017-12-09T07:32:59Z</time>
      </trkpt>
      <trkpt lat="27.969233" lon="-15.517868">
        <ele>1293.30</ele>
        <time>2017-12-09T07:33:00Z</time>
      </trkpt>
      <trkpt lat="27.969214" lon="-15.517877">
        <ele>1293.30</ele>
        <time>2017-12-09T07:33:01Z</time>
      </trkpt>
      <trkpt lat="27.969194" lon="-15.517883">
        <ele>1293.30</ele>
        <time>2017-12-09T07:33:02Z</time>
      </trkpt>
      <trkpt lat="27.969179" lon="-15.517899">
        <ele>1293.35</ele>
        <time>2017-12-09T07:33:03Z</time>
      </trkpt>
      <trkpt lat="27.969169" lon="-15.517918">
        <ele>1293.45</ele>
        <time>2017-12-09T07:33:04Z</time>
      </trkpt>
      <trkpt lat="27.969143" lon="-15.517940">
        <ele>1293.76</ele>
        <time>2017-12-09T07:33:06Z</time>
      </trkpt>
      <trkpt lat="27.969109" lon="-15.517945">
        <ele>1293.60</ele>
        <time>2017-12-09T07:33:08Z</time>
      </trkpt>
      <trkpt lat="27.969082" lon="-15.517951">
        <ele>1293.65</ele>
        <time>2017-12-09T07:33:10Z</time>
      </trkpt>
      <trkpt lat="27.969057" lon="-15.517952">
        <ele>1293.49</ele>
        <time>2017-12-09T07:33:12Z</time>
      </trkpt>
      <trkpt lat="27.969033" lon="-15.517954">
        <ele>1293.05</ele>
        <time>2017-12-09T07:33:14Z</time>
      </trkpt>
      <trkpt lat="27.969013" lon="-15.517956">
        <ele>1290.79</ele>
        <time>2017-12-09T07:33:23Z</time>
      </trkpt>
      <trkpt lat="27.968991" lon="-15.517963">
        <ele>1290.79</ele>
        <time>2017-12-09T07:33:26Z</time>
      </trkpt>
      <trkpt lat="27.968972" lon="-15.517969">
        <ele>1290.70</ele>
        <time>2017-12-09T07:33:28Z</time>
      </trkpt>
      <trkpt lat="27.968952" lon="-15.517978">
        <ele>1290.38</ele>
        <time>2017-12-09T07:33:30Z</time>
      </trkpt>
      <trkpt lat="27.968933" lon="-15.517985">
        <ele>1290.14</ele>
        <time>2017-12-09T07:33:33Z</time>
      </trkpt>
      <trkpt lat="27.968908" lon="-15.517990">
        <ele>1289.64</ele>
        <time>2017-12-09T07:33:36Z</time>
      </trkpt>
      <trkpt lat="27.968884" lon="-15.518000">
        <ele>1289.43</ele>
        <time>2017-12-09T07:33:38Z</time>
      </trkpt>
      <trkpt lat="27.968861" lon="-15.518013">
        <ele>1289.00</ele>
        <time>2017-12-09T07:33:40Z</time>
      </trkpt>
      <trkpt lat="27.968838" lon="-15.518029">
        <ele>1288.53</ele>
        <time>2017-12-09T07:33:42Z</time>
      </trkpt>
      <trkpt lat="27.968818" lon="-15.518047">
        <ele>1287.60</ele>
        <time>2017-12-09T07:33:44Z</time>
      </trkpt>
      <trkpt lat="27.968794" lon="-15.518061">
        <ele>1287.10</ele>
        <time>2017-12-09T07:33:46Z</time>
      </trkpt>
      <trkpt lat="27.968772" lon="-15.518075">
        <ele>1286.74</ele>
        <time>2017-12-09T07:33:48Z</time>
      </trkpt>
      <trkpt lat="27.968754" lon="-15.518086">
        <ele>1286.62</ele>
        <time>2017-12-09T07:33:50Z</time>
      </trkpt>
      <trkpt lat="27.968728" lon="-15.518090">
        <ele>1286.58</ele>
        <time>2017-12-09T07:33:52Z</time>
      </trkpt>
      <trkpt lat="27.968706" lon="-15.518105">
        <ele>1286.56</ele>
        <time>2017-12-09T07:33:54Z</time>
      </trkpt>
      <trkpt lat="27.968691" lon="-15.518123">
        <ele>1286.66</ele>
        <time>2017-12-09T07:33:56Z</time>
      </trkpt>
      <trkpt lat="27.968674" lon="-15.518141">
        <ele>1286.56</ele>
        <time>2017-12-09T07:33:58Z</time>
      </trkpt>
      <trkpt lat="27.968661" lon="-15.518161">
        <ele>1286.60</ele>
        <time>2017-12-09T07:34:00Z</time>
      </trkpt>
      <trkpt lat="27.968645" lon="-15.518185">
        <ele>1286.60</ele>
        <time>2017-12-09T07:34:02Z</time>
      </trkpt>
      <trkpt lat="27.968632" lon="-15.518209">
        <ele>1286.10</ele>
        <time>2017-12-09T07:34:04Z</time>
      </trkpt>
      <trkpt lat="27.968614" lon="-15.518232">
        <ele>1286.10</ele>
        <time>2017-12-09T07:34:06Z</time>
      </trkpt>
      <trkpt lat="27.968600" lon="-15.518261">
        <ele>1286.20</ele>
        <time>2017-12-09T07:34:08Z</time>
      </trkpt>
      <trkpt lat="27.968588" lon="-15.518292">
        <ele>1286.24</ele>
        <time>2017-12-09T07:34:10Z</time>
      </trkpt>
      <trkpt lat="27.968577" lon="-15.518326">
        <ele>1286.26</ele>
        <time>2017-12-09T07:34:12Z</time>
      </trkpt>
      <trkpt lat="27.968562" lon="-15.518352">
        <ele>1286.30</ele>
        <time>2017-12-09T07:34:14Z</time>
      </trkpt>
      <trkpt lat="27.968543" lon="-15.518381">
        <ele>1286.08</ele>
        <time>2017-12-09T07:34:16Z</time>
      </trkpt>
      <trkpt lat="27.968531" lon="-15.518416">
        <ele>1285.90</ele>
        <time>2017-12-09T07:34:18Z</time>
      </trkpt>
      <trkpt lat="27.968515" lon="-15.518450">
        <ele>1285.94</ele>
        <time>2017-12-09T07:34:20Z</time>
      </trkpt>
      <trkpt lat="27.968492" lon="-15.518484">
        <ele>1285.74</ele>
        <time>2017-12-09T07:34:22Z</time>
      </trkpt>
      <trkpt lat="27.968480" lon="-15.518501">
        <ele>1285.60</ele>
        <time>2017-12-09T07:34:23Z</time>
      </trkpt>
      <trkpt lat="27.968468" lon="-15.518517">
        <ele>1285.66</ele>
        <time>2017-12-09T07:34:24Z</time>
      </trkpt>
      <trkpt lat="27.968456" lon="-15.518534">
        <ele>1285.70</ele>
        <time>2017-12-09T07:34:25Z</time>
      </trkpt>
      <trkpt lat="27.968444" lon="-15.518551">
        <ele>1285.31</ele>
        <time>2017-12-09T07:34:26Z</time>
      </trkpt>
      <trkpt lat="27.968432" lon="-15.518567">
        <ele>1285.10</ele>
        <time>2017-12-09T07:34:27Z</time>
      </trkpt>
      <trkpt lat="27.968419" lon="-15.518581">
        <ele>1284.97</ele>
        <time>2017-12-09T07:34:28Z</time>
      </trkpt>
      <trkpt lat="27.968404" lon="-15.518592">
        <ele>1284.90</ele>
        <time>2017-12-09T07:34:29Z</time>
      </trkpt>
      <trkpt lat="27.968389" lon="-15.518606">
        <ele>1284.97</ele>
        <time>2017-12-09T07:34:30Z</time>
      </trkpt>
      <trkpt lat="27.968364" lon="-15.518634">
        <ele>1285.00</ele>
        <time>2017-12-09T07:34:32Z</time>
      </trkpt>
      <trkpt lat="27.968350" lon="-15.518650">
        <ele>1285.07</ele>
        <time>2017-12-09T07:34:33Z</time>
      </trkpt>
      <trkpt lat="27.968325" lon="-15.518677">
        <ele>1285.93</ele>
        <time>2017-12-09T07:34:35Z</time>
      </trkpt>
      <trkpt lat="27.968314" lon="-15.518693">
        <ele>1285.87</ele>
        <time>2017-12-09T07:34:36Z</time>
      </trkpt>
      <trkpt lat="27.968282" lon="-15.518713">
        <ele>1284.95</ele>
        <time>2017-12-09T07:34:38Z</time>
      </trkpt>
      <trkpt lat="27.968251" lon="-15.518729">
        <ele>1284.97</ele>
        <time>2017-12-09T07:34:40Z</time>
      </trkpt>
      <trkpt lat="27.968216" lon="-15.518741">
        <ele>1284.57</ele>
        <time>2017-12-09T07:34:42Z</time>
      </trkpt>
      <trkpt lat="27.968197" lon="-15.518747">
        <ele>1284.60</ele>
        <time>2017-12-09T07:34:43Z</time>
      </trkpt>
      <trkpt lat="27.968178" lon="-15.518753">
        <ele>1284.53</ele>
        <time>2017-12-09T07:34:44Z</time>
      </trkpt>
      <trkpt lat="27.968158" lon="-15.518762">
        <ele>1284.57</ele>
        <time>2017-12-09T07:34:45Z</time>
      </trkpt>
      <trkpt lat="27.968138" lon="-15.518772">
        <ele>1284.47</ele>
        <time>2017-12-09T07:34:46Z</time>
      </trkpt>
      <trkpt lat="27.968123" lon="-15.518784">
        <ele>1284.13</ele>
        <time>2017-12-09T07:34:47Z</time>
      </trkpt>
      <trkpt lat="27.968108" lon="-15.518801">
        <ele>1284.00</ele>
        <time>2017-12-09T07:34:48Z</time>
      </trkpt>
      <trkpt lat="27.968095" lon="-15.518817">
        <ele>1283.80</ele>
        <time>2017-12-09T07:34:49Z</time>
      </trkpt>
      <trkpt lat="27.968069" lon="-15.518850">
        <ele>1283.60</ele>
        <time>2017-12-09T07:34:51Z</time>
      </trkpt>
      <trkpt lat="27.968054" lon="-15.518867">
        <ele>1283.67</ele>
        <time>2017-12-09T07:34:52Z</time>
      </trkpt>
      <trkpt lat="27.968028" lon="-15.518895">
        <ele>1283.63</ele>
        <time>2017-12-09T07:34:54Z</time>
      </trkpt>
      <trkpt lat="27.968003" lon="-15.518918">
        <ele>1283.90</ele>
        <time>2017-12-09T07:34:56Z</time>
      </trkpt>
      <trkpt lat="27.967976" lon="-15.518937">
        <ele>1284.47</ele>
        <time>2017-12-09T07:34:58Z</time>
      </trkpt>
      <trkpt lat="27.967947" lon="-15.518963">
        <ele>1284.70</ele>
        <time>2017-12-09T07:35:00Z</time>
      </trkpt>
      <trkpt lat="27.967920" lon="-15.518984">
        <ele>1285.00</ele>
        <time>2017-12-09T07:35:02Z</time>
      </trkpt>
      <trkpt lat="27.967891" lon="-15.519009">
        <ele>1284.80</ele>
        <time>2017-12-09T07:35:04Z</time>
      </trkpt>
      <trkpt lat="27.967872" lon="-15.519039">
        <ele>1284.96</ele>
        <time>2017-12-09T07:35:06Z</time>
      </trkpt>
      <trkpt lat="27.967850" lon="-15.519063">
        <ele>1284.70</ele>
        <time>2017-12-09T07:35:08Z</time>
      </trkpt>
      <trkpt lat="27.967832" lon="-15.519075">
        <ele>1284.56</ele>
        <time>2017-12-09T07:35:09Z</time>
      </trkpt>
      <trkpt lat="27.967813" lon="-15.519087">
        <ele>1284.57</ele>
        <time>2017-12-09T07:35:10Z</time>
      </trkpt>
      <trkpt lat="27.967797" lon="-15.519098">
        <ele>1284.67</ele>
        <time>2017-12-09T07:35:11Z</time>
      </trkpt>
      <trkpt lat="27.967782" lon="-15.519113">
        <ele>1284.70</ele>
        <time>2017-12-09T07:35:12Z</time>
      </trkpt>
      <trkpt lat="27.967756" lon="-15.519134">
        <ele>1284.70</ele>
        <time>2017-12-09T07:35:14Z</time>
      </trkpt>
      <trkpt lat="27.967726" lon="-15.519146">
        <ele>1284.90</ele>
        <time>2017-12-09T07:35:16Z</time>
      </trkpt>
      <trkpt lat="27.967702" lon="-15.519163">
        <ele>1285.00</ele>
        <time>2017-12-09T07:35:18Z</time>
      </trkpt>
      <trkpt lat="27.967687" lon="-15.519179">
        <ele>1285.07</ele>
        <time>2017-12-09T07:35:20Z</time>
      </trkpt>
      <trkpt lat="27.967667" lon="-15.519200">
        <ele>1285.80</ele>
        <time>2017-12-09T07:35:22Z</time>
      </trkpt>
      <trkpt lat="27.967644" lon="-15.519219">
        <ele>1285.90</ele>
        <time>2017-12-09T07:35:24Z</time>
      </trkpt>
      <trkpt lat="27.967616" lon="-15.519239">
        <ele>1286.00</ele>
        <time>2017-12-09T07:35:26Z</time>
      </trkpt>
      <trkpt lat="27.967591" lon="-15.519271">
        <ele>1286.00</ele>
        <time>2017-12-09T07:35:28Z</time>
      </trkpt>
      <trkpt lat="27.967571" lon="-15.519303">
        <ele>1285.60</ele>
        <time>2017-12-09T07:35:30Z</time>
      </trkpt>
      <trkpt lat="27.967559" lon="-15.519321">
        <ele>1285.87</ele>
        <time>2017-12-09T07:35:31Z</time>
      </trkpt>
      <trkpt lat="27.967529" lon="-15.519339">
        <ele>1285.94</ele>
        <time>2017-12-09T07:35:33Z</time>
      </trkpt>
      <trkpt lat="27.967513" lon="-15.519350">
        <ele>1285.83</ele>
        <time>2017-12-09T07:35:34Z</time>
      </trkpt>
      <trkpt lat="27.967496" lon="-15.519365">
        <ele>1285.70</ele>
        <time>2017-12-09T07:35:35Z</time>
      </trkpt>
      <trkpt lat="27.967481" lon="-15.519377">
        <ele>1285.63</ele>
        <time>2017-12-09T07:35:36Z</time>
      </trkpt>
      <trkpt lat="27.967465" lon="-15.519390">
        <ele>1285.33</ele>
        <time>2017-12-09T07:35:37Z</time>
      </trkpt>
      <trkpt lat="27.967448" lon="-15.519400">
        <ele>1285.13</ele>
        <time>2017-12-09T07:35:38Z</time>
      </trkpt>
      <trkpt lat="27.967430" lon="-15.519412">
        <ele>1285.17</ele>
        <time>2017-12-09T07:35:39Z</time>
      </trkpt>
      <trkpt lat="27.967416" lon="-15.519433">
        <ele>1284.73</ele>
        <time>2017-12-09T07:35:40Z</time>
      </trkpt>
      <trkpt lat="27.967407" lon="-15.519452">
        <ele>1284.50</ele>
        <time>2017-12-09T07:35:41Z</time>
      </trkpt>
      <trkpt lat="27.967394" lon="-15.519479">
        <ele>1284.76</ele>
        <time>2017-12-09T07:35:43Z</time>
      </trkpt>
      <trkpt lat="27.967375" lon="-15.519493">
        <ele>1285.10</ele>
        <time>2017-12-09T07:35:45Z</time>
      </trkpt>
      <trkpt lat="27.967355" lon="-15.519500">
        <ele>1285.43</ele>
        <time>2017-12-09T07:35:47Z</time>
      </trkpt>
      <trkpt lat="27.967336" lon="-15.519504">
        <ele>1285.63</ele>
        <time>2017-12-09T07:35:49Z</time>
      </trkpt>
      <trkpt lat="27.967314" lon="-15.519512">
        <ele>1285.90</ele>
        <time>2017-12-09T07:35:51Z</time>
      </trkpt>
      <trkpt lat="27.967293" lon="-15.519520">
        <ele>1286.43</ele>
        <time>2017-12-09T07:35:54Z</time>
      </trkpt>
      <trkpt lat="27.967271" lon="-15.519516">
        <ele>1288.14</ele>
        <time>2017-12-09T07:35:58Z</time>
      </trkpt>
      <trkpt lat="27.967249" lon="-15.519508">
        <ele>1288.70</ele>
        <time>2017-12-09T07:36:02Z</time>
      </trkpt>
      <trkpt lat="27.967227" lon="-15.519507">
        <ele>1289.30</ele>
        <time>2017-12-09T07:36:06Z</time>
      </trkpt>
      <trkpt lat="27.967205" lon="-15.519503">
        <ele>1289.80</ele>
        <time>2017-12-09T07:36:09Z</time>
      </trkpt>
      <trkpt lat="27.967185" lon="-15.519502">
        <ele>1290.40</ele>
        <time>2017-12-09T07:36:11Z</time>
      </trkpt>
      <trkpt lat="27.967165" lon="-15.519501">
        <ele>1291.20</ele>
        <time>2017-12-09T07:36:13Z</time>
      </trkpt>
      <trkpt lat="27.967144" lon="-15.519499">
        <ele>1291.30</ele>
        <time>2017-12-09T07:36:15Z</time>
      </trkpt>
      <trkpt lat="27.967118" lon="-15.519501">
        <ele>1291.23</ele>
        <time>2017-12-09T07:36:17Z</time>
      </trkpt>
      <trkpt lat="27.967098" lon="-15.519507">
        <ele>1291.30</ele>
        <time>2017-12-09T07:36:19Z</time>
      </trkpt>
      <trkpt lat="27.967076" lon="-15.519507">
        <ele>1291.30</ele>
        <time>2017-12-09T07:36:21Z</time>
      </trkpt>
      <trkpt lat="27.967048" lon="-15.519504">
        <ele>1291.33</ele>
        <time>2017-12-09T07:36:23Z</time>
      </trkpt>
      <trkpt lat="27.967012" lon="-15.519494">
        <ele>1291.70</ele>
        <time>2017-12-09T07:36:25Z</time>
      </trkpt>
      <trkpt lat="27.966991" lon="-15.519488">
        <ele>1291.53</ele>
        <time>2017-12-09T07:36:26Z</time>
      </trkpt>
      <trkpt lat="27.966971" lon="-15.519487">
        <ele>1291.40</ele>
        <time>2017-12-09T07:36:27Z</time>
      </trkpt>
      <trkpt lat="27.966952" lon="-15.519489">
        <ele>1291.73</ele>
        <time>2017-12-09T07:36:28Z</time>
      </trkpt>
      <trkpt lat="27.966930" lon="-15.519491">
        <ele>1291.57</ele>
        <time>2017-12-09T07:36:29Z</time>
      </trkpt>
      <trkpt lat="27.966906" lon="-15.519494">
        <ele>1291.73</ele>
        <time>2017-12-09T07:36:30Z</time>
      </trkpt>
      <trkpt lat="27.966883" lon="-15.519503">
        <ele>1291.57</ele>
        <time>2017-12-09T07:36:31Z</time>
      </trkpt>
      <trkpt lat="27.966861" lon="-15.519514">
        <ele>1291.00</ele>
        <time>2017-12-09T07:36:32Z</time>
      </trkpt>
      <trkpt lat="27.966843" lon="-15.519526">
        <ele>1290.80</ele>
        <time>2017-12-09T07:36:33Z</time>
      </trkpt>
      <trkpt lat="27.966828" lon="-15.519540">
        <ele>1290.80</ele>
        <time>2017-12-09T07:36:34Z</time>
      </trkpt>
      <trkpt lat="27.966811" lon="-15.519554">
        <ele>1290.80</ele>
        <time>2017-12-09T07:36:35Z</time>
      </trkpt>
      <trkpt lat="27.966785" lon="-15.519573">
        <ele>1290.30</ele>
        <time>2017-12-09T07:36:37Z</time>
      </trkpt>
      <trkpt lat="27.966764" lon="-15.519587">
        <ele>1291.17</ele>
        <time>2017-12-09T07:36:39Z</time>
      </trkpt>
      <trkpt lat="27.966739" lon="-15.519598">
        <ele>1291.47</ele>
        <time>2017-12-09T07:36:41Z</time>
      </trkpt>
      <trkpt lat="27.966716" lon="-15.519609">
        <ele>1292.47</ele>
        <time>2017-12-09T07:36:43Z</time>
      </trkpt>
      <trkpt lat="27.966694" lon="-15.519619">
        <ele>1293.44</ele>
        <time>2017-12-09T07:36:45Z</time>
      </trkpt>
      <trkpt lat="27.966669" lon="-15.519632">
        <ele>1293.80</ele>
        <time>2017-12-09T07:36:47Z</time>
      </trkpt>
      <trkpt lat="27.966647" lon="-15.519650">
        <ele>1293.73</ele>
        <time>2017-12-09T07:36:49Z</time>
      </trkpt>
      <trkpt lat="27.966626" lon="-15.519666">
        <ele>1293.63</ele>
        <time>2017-12-09T07:36:51Z</time>
      </trkpt>
      <trkpt lat="27.966600" lon="-15.519677">
        <ele>1293.67</ele>
        <time>2017-12-09T07:36:53Z</time>
      </trkpt>
      <trkpt lat="27.966579" lon="-15.519694">
        <ele>1293.97</ele>
        <time>2017-12-09T07:36:55Z</time>
      </trkpt>
      <trkpt lat="27.966563" lon="-15.519718">
        <ele>1294.30</ele>
        <time>2017-12-09T07:36:57Z</time>
      </trkpt>
      <trkpt lat="27.966549" lon="-15.519743">
        <ele>1294.40</ele>
        <time>2017-12-09T07:36:59Z</time>
      </trkpt>
      <trkpt lat="27.966534" lon="-15.519770">
        <ele>1294.40</ele>
        <time>2017-12-09T07:37:01Z</time>
      </trkpt>
      <trkpt lat="27.966520" lon="-15.519799">
        <ele>1294.47</ele>
        <time>2017-12-09T07:37:03Z</time>
      </trkpt>
      <trkpt lat="27.966516" lon="-15.519819">
        <ele>1294.43</ele>
        <time>2017-12-09T07:37:04Z</time>
      </trkpt>
      <trkpt lat="27.966510" lon="-15.519852">
        <ele>1294.70</ele>
        <time>2017-12-09T07:37:06Z</time>
      </trkpt>
      <trkpt lat="27.966498" lon="-15.519878">
        <ele>1295.00</ele>
        <time>2017-12-09T07:37:08Z</time>
      </trkpt>
      <trkpt lat="27.966482" lon="-15.519902">
        <ele>1295.17</ele>
        <time>2017-12-09T07:37:10Z</time>
      </trkpt>
      <trkpt lat="27.966465" lon="-15.519929">
        <ele>1295.67</ele>
        <time>2017-12-09T07:37:12Z</time>
      </trkpt>
      <trkpt lat="27.966447" lon="-15.519952">
        <ele>1295.80</ele>
        <time>2017-12-09T07:37:14Z</time>
      </trkpt>
      <trkpt lat="27.966427" lon="-15.519974">
        <ele>1295.80</ele>
        <time>2017-12-09T07:37:16Z</time>
      </trkpt>
      <trkpt lat="27.966405" lon="-15.519994">
        <ele>1295.80</ele>
        <time>2017-12-09T07:37:18Z</time>
      </trkpt>
      <trkpt lat="27.966380" lon="-15.520010">
        <ele>1295.80</ele>
        <time>2017-12-09T07:37:20Z</time>
      </trkpt>
      <trkpt lat="27.966356" lon="-15.520027">
        <ele>1296.00</ele>
        <time>2017-12-09T07:37:22Z</time>
      </trkpt>
      <trkpt lat="27.966327" lon="-15.520042">
        <ele>1295.93</ele>
        <time>2017-12-09T07:37:24Z</time>
      </trkpt>
      <trkpt lat="27.966298" lon="-15.520053">
        <ele>1295.70</ele>
        <time>2017-12-09T07:37:26Z</time>
      </trkpt>
      <trkpt lat="27.966269" lon="-15.520070">
        <ele>1295.43</ele>
        <time>2017-12-09T07:37:28Z</time>
      </trkpt>
      <trkpt lat="27.966252" lon="-15.520082">
        <ele>1294.93</ele>
        <time>2017-12-09T07:37:29Z</time>
      </trkpt>
      <trkpt lat="27.966233" lon="-15.520096">
        <ele>1294.57</ele>
        <time>2017-12-09T07:37:30Z</time>
      </trkpt>
      <trkpt lat="27.966216" lon="-15.520111">
        <ele>1294.30</ele>
        <time>2017-12-09T07:37:31Z</time>
      </trkpt>
      <trkpt lat="27.966200" lon="-15.520129">
        <ele>1294.27</ele>
        <time>2017-12-09T07:37:32Z</time>
      </trkpt>
      <trkpt lat="27.966189" lon="-15.520149">
        <ele>1294.23</ele>
        <time>2017-12-09T07:37:33Z</time>
      </trkpt>
      <trkpt lat="27.966174" lon="-15.520166">
        <ele>1293.73</ele>
        <time>2017-12-09T07:37:34Z</time>
      </trkpt>
      <trkpt lat="27.966161" lon="-15.520180">
        <ele>1293.97</ele>
        <time>2017-12-09T07:37:35Z</time>
      </trkpt>
      <trkpt lat="27.966145" lon="-15.520194">
        <ele>1293.74</ele>
        <time>2017-12-09T07:37:36Z</time>
      </trkpt>
      <trkpt lat="27.966128" lon="-15.520209">
        <ele>1293.17</ele>
        <time>2017-12-09T07:37:37Z</time>
      </trkpt>
      <trkpt lat="27.966110" lon="-15.520223">
        <ele>1293.00</ele>
        <time>2017-12-09T07:37:38Z</time>
      </trkpt>
      <trkpt lat="27.966092" lon="-15.520239">
        <ele>1293.00</ele>
        <time>2017-12-09T07:37:39Z</time>
      </trkpt>
      <trkpt lat="27.966074" lon="-15.520251">
        <ele>1293.00</ele>
        <time>2017-12-09T07:37:40Z</time>
      </trkpt>
      <trkpt lat="27.966057" lon="-15.520265">
        <ele>1293.00</ele>
        <time>2017-12-09T07:37:41Z</time>
      </trkpt>
      <trkpt lat="27.966039" lon="-15.520282">
        <ele>1292.74</ele>
        <time>2017-12-09T07:37:42Z</time>
      </trkpt>
      <trkpt lat="27.966026" lon="-15.520304">
        <ele>1292.60</ele>
        <time>2017-12-09T07:37:43Z</time>
      </trkpt>
      <trkpt lat="27.966012" lon="-15.520321">
        <ele>1292.47</ele>
        <time>2017-12-09T07:37:44Z</time>
      </trkpt>
      <trkpt lat="27.965999" lon="-15.520341">
        <ele>1292.40</ele>
        <time>2017-12-09T07:37:45Z</time>
      </trkpt>
      <trkpt lat="27.965985" lon="-15.520356">
        <ele>1292.40</ele>
        <time>2017-12-09T07:37:46Z</time>
      </trkpt>
      <trkpt lat="27.965970" lon="-15.520368">
        <ele>1292.40</ele>
        <time>2017-12-09T07:37:47Z</time>
      </trkpt>
      <trkpt lat="27.965953" lon="-15.520380">
        <ele>1292.27</ele>
        <time>2017-12-09T07:37:48Z</time>
      </trkpt>
      <trkpt lat="27.965925" lon="-15.520394">
        <ele>1292.06</ele>
        <time>2017-12-09T07:37:50Z</time>
      </trkpt>
      <trkpt lat="27.965909" lon="-15.520406">
        <ele>1292.20</ele>
        <time>2017-12-09T07:37:52Z</time>
      </trkpt>
      <trkpt lat="27.965890" lon="-15.520417">
        <ele>1292.20</ele>
        <time>2017-12-09T07:37:54Z</time>
      </trkpt>
      <trkpt lat="27.965870" lon="-15.520426">
        <ele>1293.00</ele>
        <time>2017-12-09T07:37:56Z</time>
      </trkpt>
      <trkpt lat="27.965853" lon="-15.520442">
        <ele>1293.67</ele>
        <time>2017-12-09T07:37:58Z</time>
      </trkpt>
      <trkpt lat="27.965836" lon="-15.520457">
        <ele>1293.77</ele>
        <time>2017-12-09T07:38:00Z</time>
      </trkpt>
      <trkpt lat="27.965818" lon="-15.520475">
        <ele>1294.07</ele>
        <time>2017-12-09T07:38:02Z</time>
      </trkpt>
      <trkpt lat="27.965796" lon="-15.520500">
        <ele>1294.50</ele>
        <time>2017-12-09T07:38:04Z</time>
      </trkpt>
      <trkpt lat="27.965775" lon="-15.520523">
        <ele>1294.60</ele>
        <time>2017-12-09T07:38:06Z</time>
      </trkpt>
      <trkpt lat="27.965751" lon="-15.520542">
        <ele>1294.93</ele>
        <time>2017-12-09T07:38:08Z</time>
      </trkpt>
      <trkpt lat="27.965719" lon="-15.520561">
        <ele>1295.30</ele>
        <time>2017-12-09T07:38:10Z</time>
      </trkpt>
      <trkpt lat="27.965703" lon="-15.520574">
        <ele>1295.43</ele>
        <time>2017-12-09T07:38:11Z</time>
      </trkpt>
      <trkpt lat="27.965686" lon="-15.520586">
        <ele>1295.50</ele>
        <time>2017-12-09T07:38:12Z</time>
      </trkpt>
      <trkpt lat="27.965669" lon="-15.520592">
        <ele>1295.39</ele>
        <time>2017-12-09T07:38:13Z</time>
      </trkpt>
      <trkpt lat="27.965649" lon="-15.520604">
        <ele>1295.13</ele>
        <time>2017-12-09T07:38:14Z</time>
      </trkpt>
      <trkpt lat="27.965630" lon="-15.520614">
        <ele>1294.89</ele>
        <time>2017-12-09T07:38:15Z</time>
      </trkpt>
      <trkpt lat="27.965611" lon="-15.520626">
        <ele>1294.80</ele>
        <time>2017-12-09T07:38:16Z</time>
      </trkpt>
      <trkpt lat="27.965589" lon="-15.520636">
        <ele>1294.69</ele>
        <time>2017-12-09T07:38:17Z</time>
      </trkpt>
      <trkpt lat="27.965567" lon="-15.520649">
        <ele>1294.60</ele>
        <time>2017-12-09T07:38:18Z</time>
      </trkpt>
      <trkpt lat="27.965546" lon="-15.520668">
        <ele>1294.60</ele>
        <time>2017-12-09T07:38:19Z</time>
      </trkpt>
      <trkpt lat="27.965524" lon="-15.520681">
        <ele>1294.21</ele>
        <time>2017-12-09T07:38:20Z</time>
      </trkpt>
      <trkpt lat="27.965504" lon="-15.520694">
        <ele>1294.24</ele>
        <time>2017-12-09T07:38:21Z</time>
      </trkpt>
      <trkpt lat="27.965481" lon="-15.520708">
        <ele>1294.16</ele>
        <time>2017-12-09T07:38:22Z</time>
      </trkpt>
      <trkpt lat="27.965459" lon="-15.520724">
        <ele>1293.73</ele>
        <time>2017-12-09T07:38:23Z</time>
      </trkpt>
      <trkpt lat="27.965440" lon="-15.520736">
        <ele>1293.37</ele>
        <time>2017-12-09T07:38:24Z</time>
      </trkpt>
      <trkpt lat="27.965419" lon="-15.520754">
        <ele>1293.20</ele>
        <time>2017-12-09T07:38:25Z</time>
      </trkpt>
      <trkpt lat="27.965399" lon="-15.520768">
        <ele>1293.20</ele>
        <time>2017-12-09T07:38:26Z</time>
      </trkpt>
      <trkpt lat="27.965379" lon="-15.520782">
        <ele>1293.20</ele>
        <time>2017-12-09T07:38:27Z</time>
      </trkpt>
      <trkpt lat="27.965359" lon="-15.520797">
        <ele>1293.08</ele>
        <time>2017-12-09T07:38:28Z</time>
      </trkpt>
      <trkpt lat="27.965330" lon="-15.520817">
        <ele>1293.21</ele>
        <time>2017-12-09T07:38:30Z</time>
      </trkpt>
      <trkpt lat="27.965315" lon="-15.520828">
        <ele>1293.36</ele>
        <time>2017-12-09T07:38:31Z</time>
      </trkpt>
      <trkpt lat="27.965287" lon="-15.520847">
        <ele>1293.40</ele>
        <time>2017-12-09T07:38:33Z</time>
      </trkpt>
      <trkpt lat="27.965251" lon="-15.520862">
        <ele>1293.66</ele>
        <time>2017-12-09T07:38:35Z</time>
      </trkpt>
      <trkpt lat="27.965233" lon="-15.520871">
        <ele>1293.88</ele>
        <time>2017-12-09T07:38:36Z</time>
      </trkpt>
      <trkpt lat="27.965213" lon="-15.520883">
        <ele>1294.00</ele>
        <time>2017-12-09T07:38:37Z</time>
      </trkpt>
      <trkpt lat="27.965193" lon="-15.520894">
        <ele>1294.06</ele>
        <time>2017-12-09T07:38:38Z</time>
      </trkpt>
      <trkpt lat="27.965172" lon="-15.520908">
        <ele>1294.10</ele>
        <time>2017-12-09T07:38:39Z</time>
      </trkpt>
      <trkpt lat="27.965142" lon="-15.520933">
        <ele>1294.10</ele>
        <time>2017-12-09T07:38:41Z</time>
      </trkpt>
      <trkpt lat="27.965127" lon="-15.520946">
        <ele>1294.28</ele>
        <time>2017-12-09T07:38:42Z</time>
      </trkpt>
      <trkpt lat="27.965113" lon="-15.520964">
        <ele>1294.58</ele>
        <time>2017-12-09T07:38:43Z</time>
      </trkpt>
      <trkpt lat="27.965098" lon="-15.520978">
        <ele>1294.70</ele>
        <time>2017-12-09T07:38:44Z</time>
      </trkpt>
      <trkpt lat="27.965084" lon="-15.520991">
        <ele>1294.76</ele>
        <time>2017-12-09T07:38:45Z</time>
      </trkpt>
      <trkpt lat="27.965068" lon="-15.521004">
        <ele>1294.80</ele>
        <time>2017-12-09T07:38:46Z</time>
      </trkpt>
      <trkpt lat="27.965047" lon="-15.521015">
        <ele>1294.80</ele>
        <time>2017-12-09T07:38:47Z</time>
      </trkpt>
      <trkpt lat="27.965027" lon="-15.521025">
        <ele>1295.23</ele>
        <time>2017-12-09T07:38:48Z</time>
      </trkpt>
      <trkpt lat="27.965009" lon="-15.521033">
        <ele>1295.50</ele>
        <time>2017-12-09T07:38:49Z</time>
      </trkpt>
      <trkpt lat="27.964977" lon="-15.521043">
        <ele>1295.50</ele>
        <time>2017-12-09T07:38:51Z</time>
      </trkpt>
      <trkpt lat="27.964956" lon="-15.521052">
        <ele>1295.00</ele>
        <time>2017-12-09T07:38:52Z</time>
      </trkpt>
      <trkpt lat="27.964938" lon="-15.521061">
        <ele>1294.70</ele>
        <time>2017-12-09T07:38:53Z</time>
      </trkpt>
      <trkpt lat="27.964921" lon="-15.521074">
        <ele>1295.46</ele>
        <time>2017-12-09T07:38:54Z</time>
      </trkpt>
      <trkpt lat="27.964891" lon="-15.521093">
        <ele>1295.90</ele>
        <time>2017-12-09T07:38:56Z</time>
      </trkpt>
      <trkpt lat="27.964862" lon="-15.521097">
        <ele>1296.03</ele>
        <time>2017-12-09T07:38:58Z</time>
      </trkpt>
      <trkpt lat="27.964837" lon="-15.521106">
        <ele>1297.02</ele>
        <time>2017-12-09T07:39:00Z</time>
      </trkpt>
      <trkpt lat="27.964803" lon="-15.521114">
        <ele>1297.30</ele>
        <time>2017-12-09T07:39:02Z</time>
      </trkpt>
      <trkpt lat="27.964772" lon="-15.521124">
        <ele>1297.88</ele>
        <time>2017-12-09T07:39:04Z</time>
      </trkpt>
      <trkpt lat="27.964742" lon="-15.521142">
        <ele>1298.43</ele>
        <time>2017-12-09T07:39:06Z</time>
      </trkpt>
      <trkpt lat="27.964723" lon="-15.521154">
        <ele>1298.88</ele>
        <time>2017-12-09T07:39:08Z</time>
      </trkpt>
      <trkpt lat="27.964702" lon="-15.521163">
        <ele>1299.10</ele>
        <time>2017-12-09T07:39:10Z</time>
      </trkpt>
      <trkpt lat="27.964676" lon="-15.521175">
        <ele>1299.52</ele>
        <time>2017-12-09T07:39:12Z</time>
      </trkpt>
      <trkpt lat="27.964649" lon="-15.521186">
        <ele>1300.16</ele>
        <time>2017-12-09T07:39:14Z</time>
      </trkpt>
      <trkpt lat="27.964624" lon="-15.521198">
        <ele>1300.36</ele>
        <time>2017-12-09T07:39:16Z</time>
      </trkpt>
      <trkpt lat="27.964601" lon="-15.521213">
        <ele>1300.82</ele>
        <time>2017-12-09T07:39:18Z</time>
      </trkpt>
      <trkpt lat="27.964576" lon="-15.521236">
        <ele>1300.81</ele>
        <time>2017-12-09T07:39:20Z</time>
      </trkpt>
      <trkpt lat="27.964555" lon="-15.521252">
        <ele>1300.96</ele>
        <time>2017-12-09T07:39:22Z</time>
      </trkpt>
      <trkpt lat="27.964537" lon="-15.521263">
        <ele>1301.10</ele>
        <time>2017-12-09T07:39:24Z</time>
      </trkpt>
      <trkpt lat="27.964516" lon="-15.521279">
        <ele>1301.06</ele>
        <time>2017-12-09T07:39:26Z</time>
      </trkpt>
      <trkpt lat="27.964492" lon="-15.521294">
        <ele>1301.30</ele>
        <time>2017-12-09T07:39:28Z</time>
      </trkpt>
      <trkpt lat="27.964462" lon="-15.521308">
        <ele>1301.30</ele>
        <time>2017-12-09T07:39:30Z</time>
      </trkpt>
      <trkpt lat="27.964436" lon="-15.521317">
        <ele>1301.37</ele>
        <time>2017-12-09T07:39:32Z</time>
      </trkpt>
      <trkpt lat="27.964410" lon="-15.521306">
        <ele>1301.60</ele>
        <time>2017-12-09T07:39:34Z</time>
      </trkpt>
      <trkpt lat="27.964391" lon="-15.521288">
        <ele>1301.67</ele>
        <time>2017-12-09T07:39:36Z</time>
      </trkpt>
      <trkpt lat="27.964378" lon="-15.521271">
        <ele>1302.03</ele>
        <time>2017-12-09T07:39:38Z</time>
      </trkpt>
      <trkpt lat="27.964369" lon="-15.521248">
        <ele>1302.23</ele>
        <time>2017-12-09T07:39:40Z</time>
      </trkpt>
      <trkpt lat="27.964354" lon="-15.521224">
        <ele>1302.73</ele>
        <time>2017-12-09T07:39:43Z</time>
      </trkpt>
      <trkpt lat="27.964331" lon="-15.521209">
        <ele>1303.27</ele>
        <time>2017-12-09T07:39:46Z</time>
      </trkpt>
      <trkpt lat="27.964310" lon="-15.521202">
        <ele>1303.90</ele>
        <time>2017-12-09T07:39:48Z</time>
      </trkpt>
      <trkpt lat="27.964285" lon="-15.521197">
        <ele>1304.76</ele>
        <time>2017-12-09T07:39:51Z</time>
      </trkpt>
      <trkpt lat="27.964264" lon="-15.521184">
        <ele>1305.10</ele>
        <time>2017-12-09T07:39:53Z</time>
      </trkpt>
      <trkpt lat="27.964246" lon="-15.521174">
        <ele>1305.70</ele>
        <time>2017-12-09T07:39:55Z</time>
      </trkpt>
      <trkpt lat="27.964230" lon="-15.521159">
        <ele>1306.26</ele>
        <time>2017-12-09T07:39:57Z</time>
      </trkpt>
      <trkpt lat="27.964213" lon="-15.521142">
        <ele>1306.60</ele>
        <time>2017-12-09T07:39:59Z</time>
      </trkpt>
      <trkpt lat="27.964196" lon="-15.521125">
        <ele>1307.19</ele>
        <time>2017-12-09T07:40:01Z</time>
      </trkpt>
      <trkpt lat="27.964184" lon="-15.521106">
        <ele>1307.73</ele>
        <time>2017-12-09T07:40:03Z</time>
      </trkpt>
      <trkpt lat="27.964168" lon="-15.521081">
        <ele>1308.20</ele>
        <time>2017-12-09T07:40:06Z</time>
      </trkpt>
      <trkpt lat="27.964150" lon="-15.521055">
        <ele>1308.30</ele>
        <time>2017-12-09T07:40:09Z</time>
      </trkpt>
      <trkpt lat="27.964134" lon="-15.521033">
        <ele>1309.00</ele>
        <time>2017-12-09T07:40:11Z</time>
      </trkpt>
      <trkpt lat="27.964116" lon="-15.521016">
        <ele>1309.33</ele>
        <time>2017-12-09T07:40:13Z</time>
      </trkpt>
      <trkpt lat="27.964095" lon="-15.521000">
        <ele>1309.53</ele>
        <time>2017-12-09T07:40:15Z</time>
      </trkpt>
      <trkpt lat="27.964074" lon="-15.520987">
        <ele>1310.05</ele>
        <time>2017-12-09T07:40:17Z</time>
      </trkpt>
      <trkpt lat="27.964056" lon="-15.520980">
        <ele>1310.49</ele>
        <time>2017-12-09T07:40:19Z</time>
      </trkpt>
      <trkpt lat="27.964033" lon="-15.520976">
        <ele>1310.60</ele>
        <time>2017-12-09T07:40:21Z</time>
      </trkpt>
      <trkpt lat="27.964010" lon="-15.520983">
        <ele>1311.23</ele>
        <time>2017-12-09T07:40:24Z</time>
      </trkpt>
      <trkpt lat="27.963987" lon="-15.520991">
        <ele>1312.46</ele>
        <time>2017-12-09T07:40:26Z</time>
      </trkpt>
      <trkpt lat="27.963966" lon="-15.521002">
        <ele>1312.83</ele>
        <time>2017-12-09T07:40:28Z</time>
      </trkpt>
      <trkpt lat="27.963945" lon="-15.521015">
        <ele>1313.27</ele>
        <time>2017-12-09T07:40:30Z</time>
      </trkpt>
      <trkpt lat="27.963919" lon="-15.521030">
        <ele>1313.37</ele>
        <time>2017-12-09T07:40:32Z</time>
      </trkpt>
      <trkpt lat="27.963895" lon="-15.521038">
        <ele>1313.50</ele>
        <time>2017-12-09T07:40:34Z</time>
      </trkpt>
      <trkpt lat="27.963868" lon="-15.521046">
        <ele>1313.90</ele>
        <time>2017-12-09T07:40:36Z</time>
      </trkpt>
      <trkpt lat="27.963839" lon="-15.521055">
        <ele>1314.16</ele>
        <time>2017-12-09T07:40:38Z</time>
      </trkpt>
      <trkpt lat="27.963808" lon="-15.521078">
        <ele>1314.30</ele>
        <time>2017-12-09T07:40:40Z</time>
      </trkpt>
      <trkpt lat="27.963778" lon="-15.521106">
        <ele>1314.43</ele>
        <time>2017-12-09T07:40:42Z</time>
      </trkpt>
      <trkpt lat="27.963759" lon="-15.521120">
        <ele>1314.69</ele>
        <time>2017-12-09T07:40:43Z</time>
      </trkpt>
      <trkpt lat="27.963725" lon="-15.521143">
        <ele>1315.10</ele>
        <time>2017-12-09T07:40:45Z</time>
      </trkpt>
      <trkpt lat="27.963710" lon="-15.521158">
        <ele>1315.16</ele>
        <time>2017-12-09T07:40:46Z</time>
      </trkpt>
      <trkpt lat="27.963697" lon="-15.521174">
        <ele>1315.33</ele>
        <time>2017-12-09T07:40:47Z</time>
      </trkpt>
      <trkpt lat="27.963687" lon="-15.521195">
        <ele>1315.53</ele>
        <time>2017-12-09T07:40:48Z</time>
      </trkpt>
      <trkpt lat="27.963678" lon="-15.521213">
        <ele>1315.86</ele>
        <time>2017-12-09T07:40:49Z</time>
      </trkpt>
      <trkpt lat="27.963658" lon="-15.521239">
        <ele>1316.00</ele>
        <time>2017-12-09T07:40:51Z</time>
      </trkpt>
      <trkpt lat="27.963642" lon="-15.521252">
        <ele>1316.00</ele>
        <time>2017-12-09T07:40:52Z</time>
      </trkpt>
      <trkpt lat="27.963624" lon="-15.521261">
        <ele>1316.19</ele>
        <time>2017-12-09T07:40:53Z</time>
      </trkpt>
      <trkpt lat="27.963590" lon="-15.521274">
        <ele>1316.50</ele>
        <time>2017-12-09T07:40:55Z</time>
      </trkpt>
      <trkpt lat="27.963570" lon="-15.521281">
        <ele>1316.50</ele>
        <time>2017-12-09T07:40:56Z</time>
      </trkpt>
      <trkpt lat="27.963552" lon="-15.521288">
        <ele>1316.96</ele>
        <time>2017-12-09T07:40:57Z</time>
      </trkpt>
      <trkpt lat="27.963534" lon="-15.521296">
        <ele>1317.20</ele>
        <time>2017-12-09T07:40:58Z</time>
      </trkpt>
      <trkpt lat="27.963500" lon="-15.521309">
        <ele>1317.40</ele>
        <time>2017-12-09T07:41:00Z</time>
      </trkpt>
      <trkpt lat="27.963481" lon="-15.521321">
        <ele>1317.33</ele>
        <time>2017-12-09T07:41:01Z</time>
      </trkpt>
      <trkpt lat="27.963464" lon="-15.521327">
        <ele>1317.30</ele>
        <time>2017-12-09T07:41:02Z</time>
      </trkpt>
      <trkpt lat="27.963447" lon="-15.521335">
        <ele>1317.37</ele>
        <time>2017-12-09T07:41:03Z</time>
      </trkpt>
      <trkpt lat="27.963429" lon="-15.521345">
        <ele>1317.40</ele>
        <time>2017-12-09T07:41:04Z</time>
      </trkpt>
      <trkpt lat="27.963411" lon="-15.521354">
        <ele>1317.20</ele>
        <time>2017-12-09T07:41:05Z</time>
      </trkpt>
      <trkpt lat="27.963395" lon="-15.521367">
        <ele>1317.10</ele>
        <time>2017-12-09T07:41:06Z</time>
      </trkpt>
      <trkpt lat="27.963377" lon="-15.521380">
        <ele>1317.10</ele>
        <time>2017-12-09T07:41:07Z</time>
      </trkpt>
      <trkpt lat="27.963348" lon="-15.521398">
        <ele>1317.71</ele>
        <time>2017-12-09T07:41:09Z</time>
      </trkpt>
      <trkpt lat="27.963332" lon="-15.521408">
        <ele>1317.59</ele>
        <time>2017-12-09T07:41:10Z</time>
      </trkpt>
      <trkpt lat="27.963317" lon="-15.521420">
        <ele>1317.81</ele>
        <time>2017-12-09T07:41:11Z</time>
      </trkpt>
      <trkpt lat="27.963300" lon="-15.521428">
        <ele>1318.07</ele>
        <time>2017-12-09T07:41:12Z</time>
      </trkpt>
      <trkpt lat="27.963282" lon="-15.521437">
        <ele>1318.37</ele>
        <time>2017-12-09T07:41:13Z</time>
      </trkpt>
      <trkpt lat="27.963267" lon="-15.521450">
        <ele>1318.43</ele>
        <time>2017-12-09T07:41:14Z</time>
      </trkpt>
      <trkpt lat="27.963237" lon="-15.521469">
        <ele>1319.09</ele>
        <time>2017-12-09T07:41:16Z</time>
      </trkpt>
      <trkpt lat="27.963216" lon="-15.521474">
        <ele>1319.40</ele>
        <time>2017-12-09T07:41:17Z</time>
      </trkpt>
      <trkpt lat="27.963196" lon="-15.521482">
        <ele>1319.40</ele>
        <time>2017-12-09T07:41:18Z</time>
      </trkpt>
      <trkpt lat="27.963176" lon="-15.521494">
        <ele>1319.33</ele>
        <time>2017-12-09T07:41:19Z</time>
      </trkpt>
      <trkpt lat="27.963140" lon="-15.521506">
        <ele>1319.37</ele>
        <time>2017-12-09T07:41:21Z</time>
      </trkpt>
      <trkpt lat="27.963122" lon="-15.521511">
        <ele>1319.33</ele>
        <time>2017-12-09T07:41:22Z</time>
      </trkpt>
      <trkpt lat="27.963095" lon="-15.521527">
        <ele>1319.40</ele>
        <time>2017-12-09T07:41:24Z</time>
      </trkpt>
      <trkpt lat="27.963070" lon="-15.521545">
        <ele>1319.37</ele>
        <time>2017-12-09T07:41:26Z</time>
      </trkpt>
      <trkpt lat="27.963055" lon="-15.521562">
        <ele>1319.30</ele>
        <time>2017-12-09T07:41:28Z</time>
      </trkpt>
      <trkpt lat="27.963035" lon="-15.521581">
        <ele>1319.75</ele>
        <time>2017-12-09T07:41:30Z</time>
      </trkpt>
      <trkpt lat="27.963009" lon="-15.521598">
        <ele>1320.40</ele>
        <time>2017-12-09T07:41:32Z</time>
      </trkpt>
      <trkpt lat="27.962982" lon="-15.521610">
        <ele>1320.50</ele>
        <time>2017-12-09T07:41:34Z</time>
      </trkpt>
      <trkpt lat="27.962955" lon="-15.521620">
        <ele>1320.42</ele>
        <time>2017-12-09T07:41:36Z</time>
      </trkpt>
      <trkpt lat="27.962928" lon="-15.521633">
        <ele>1320.40</ele>
        <time>2017-12-09T07:41:38Z</time>
      </trkpt>
      <trkpt lat="27.962903" lon="-15.521652">
        <ele>1320.69</ele>
        <time>2017-12-09T07:41:40Z</time>
      </trkpt>
      <trkpt lat="27.962877" lon="-15.521667">
        <ele>1320.80</ele>
        <time>2017-12-09T07:41:42Z</time>
      </trkpt>
      <trkpt lat="27.962849" lon="-15.521663">
        <ele>1320.80</ele>
        <time>2017-12-09T07:41:44Z</time>
      </trkpt>
      <trkpt lat="27.962827" lon="-15.521643">
        <ele>1320.78</ele>
        <time>2017-12-09T07:41:46Z</time>
      </trkpt>
      <trkpt lat="27.962811" lon="-15.521618">
        <ele>1320.80</ele>
        <time>2017-12-09T07:41:48Z</time>
      </trkpt>
      <trkpt lat="27.962800" lon="-15.521587">
        <ele>1320.88</ele>
        <time>2017-12-09T07:41:50Z</time>
      </trkpt>
      <trkpt lat="27.962792" lon="-15.521564">
        <ele>1320.90</ele>
        <time>2017-12-09T07:41:52Z</time>
      </trkpt>
      <trkpt lat="27.962783" lon="-15.521545">
        <ele>1321.00</ele>
        <time>2017-12-09T07:41:54Z</time>
      </trkpt>
      <trkpt lat="27.962775" lon="-15.521524">
        <ele>1321.32</ele>
        <time>2017-12-09T07:41:56Z</time>
      </trkpt>
      <trkpt lat="27.962761" lon="-15.521505">
        <ele>1322.30</ele>
        <time>2017-12-09T07:41:58Z</time>
      </trkpt>
      <trkpt lat="27.962737" lon="-15.521494">
        <ele>1322.96</ele>
        <time>2017-12-09T07:42:01Z</time>
      </trkpt>
      <trkpt lat="27.962712" lon="-15.521492">
        <ele>1324.18</ele>
        <time>2017-12-09T07:42:04Z</time>
      </trkpt>
      <trkpt lat="27.962695" lon="-15.521504">
        <ele>1325.24</ele>
        <time>2017-12-09T07:42:07Z</time>
      </trkpt>
      <trkpt lat="27.962672" lon="-15.521506">
        <ele>1326.22</ele>
        <time>2017-12-09T07:42:11Z</time>
      </trkpt>
      <trkpt lat="27.962650" lon="-15.521495">
        <ele>1327.77</ele>
        <time>2017-12-09T07:42:14Z</time>
      </trkpt>
      <trkpt lat="27.962631" lon="-15.521500">
        <ele>1328.08</ele>
        <time>2017-12-09T07:42:17Z</time>
      </trkpt>
      <trkpt lat="27.962608" lon="-15.521495">
        <ele>1329.10</ele>
        <time>2017-12-09T07:42:20Z</time>
      </trkpt>
      <trkpt lat="27.962583" lon="-15.521479">
        <ele>1330.16</ele>
        <time>2017-12-09T07:42:23Z</time>
      </trkpt>
      <trkpt lat="27.962568" lon="-15.521468">
        <ele>1330.91</ele>
        <time>2017-12-09T07:42:25Z</time>
      </trkpt>
      <trkpt lat="27.962549" lon="-15.521457">
        <ele>1331.38</ele>
        <time>2017-12-09T07:42:27Z</time>
      </trkpt>
      <trkpt lat="27.962526" lon="-15.521446">
        <ele>1332.10</ele>
        <time>2017-12-09T07:42:30Z</time>
      </trkpt>
      <trkpt lat="27.962505" lon="-15.521434">
        <ele>1332.45</ele>
        <time>2017-12-09T07:42:32Z</time>
      </trkpt>
      <trkpt lat="27.962485" lon="-15.521424">
        <ele>1332.67</ele>
        <time>2017-12-09T07:42:34Z</time>
      </trkpt>
      <trkpt lat="27.962464" lon="-15.521421">
        <ele>1333.15</ele>
        <time>2017-12-09T07:42:36Z</time>
      </trkpt>
      <trkpt lat="27.962446" lon="-15.521420">
        <ele>1333.40</ele>
        <time>2017-12-09T07:42:38Z</time>
      </trkpt>
      <trkpt lat="27.962426" lon="-15.521409">
        <ele>1333.79</ele>
        <time>2017-12-09T07:42:40Z</time>
      </trkpt>
      <trkpt lat="27.962406" lon="-15.521401">
        <ele>1334.44</ele>
        <time>2017-12-09T07:42:42Z</time>
      </trkpt>
      <trkpt lat="27.962386" lon="-15.521397">
        <ele>1334.50</ele>
        <time>2017-12-09T07:42:44Z</time>
      </trkpt>
      <trkpt lat="27.962367" lon="-15.521388">
        <ele>1334.40</ele>
        <time>2017-12-09T07:42:46Z</time>
      </trkpt>
      <trkpt lat="27.962351" lon="-15.521378">
        <ele>1335.44</ele>
        <time>2017-12-09T07:42:48Z</time>
      </trkpt>
      <trkpt lat="27.962330" lon="-15.521368">
        <ele>1335.87</ele>
        <time>2017-12-09T07:42:50Z</time>
      </trkpt>
      <trkpt lat="27.962313" lon="-15.521364">
        <ele>1336.00</ele>
        <time>2017-12-09T07:42:52Z</time>
      </trkpt>
      <trkpt lat="27.962290" lon="-15.521354">
        <ele>1336.39</ele>
        <time>2017-12-09T07:42:54Z</time>
      </trkpt>
      <trkpt lat="27.962270" lon="-15.521349">
        <ele>1336.66</ele>
        <time>2017-12-09T07:42:56Z</time>
      </trkpt>
      <trkpt lat="27.962249" lon="-15.521343">
        <ele>1336.96</ele>
        <time>2017-12-09T07:42:58Z</time>
      </trkpt>
      <trkpt lat="27.962225" lon="-15.521334">
        <ele>1337.09</ele>
        <time>2017-12-09T07:43:00Z</time>
      </trkpt>
      <trkpt lat="27.962203" lon="-15.521326">
        <ele>1337.20</ele>
        <time>2017-12-09T07:43:02Z</time>
      </trkpt>
      <trkpt lat="27.962181" lon="-15.521318">
        <ele>1337.38</ele>
        <time>2017-12-09T07:43:04Z</time>
      </trkpt>
      <trkpt lat="27.962156" lon="-15.521315">
        <ele>1337.90</ele>
        <time>2017-12-09T07:43:06Z</time>
      </trkpt>
      <trkpt lat="27.962137" lon="-15.521313">
        <ele>1338.28</ele>
        <time>2017-12-09T07:43:08Z</time>
      </trkpt>
      <trkpt lat="27.962118" lon="-15.521313">
        <ele>1338.50</ele>
        <time>2017-12-09T07:43:10Z</time>
      </trkpt>
      <trkpt lat="27.962098" lon="-15.521314">
        <ele>1338.59</ele>
        <time>2017-12-09T07:43:12Z</time>
      </trkpt>
      <trkpt lat="27.962078" lon="-15.521309">
        <ele>1339.40</ele>
        <time>2017-12-09T07:43:14Z</time>
      </trkpt>
      <trkpt lat="27.962056" lon="-15.521306">
        <ele>1339.79</ele>
        <time>2017-12-09T07:43:16Z</time>
      </trkpt>
      <trkpt lat="27.962033" lon="-15.521296">
        <ele>1339.89</ele>
        <time>2017-12-09T07:43:18Z</time>
      </trkpt>
      <trkpt lat="27.962013" lon="-15.521289">
        <ele>1340.39</ele>
        <time>2017-12-09T07:43:20Z</time>
      </trkpt>
      <trkpt lat="27.961993" lon="-15.521283">
        <ele>1340.97</ele>
        <time>2017-12-09T07:43:22Z</time>
      </trkpt>
      <trkpt lat="27.961974" lon="-15.521275">
        <ele>1341.96</ele>
        <time>2017-12-09T07:43:24Z</time>
      </trkpt>
      <trkpt lat="27.961950" lon="-15.521265">
        <ele>1342.20</ele>
        <time>2017-12-09T07:43:27Z</time>
      </trkpt>
      <trkpt lat="27.961953" lon="-15.521286">
        <ele>1343.10</ele>
        <time>2017-12-09T07:43:34Z</time>
      </trkpt>
      <trkpt lat="27.961963" lon="-15.521305">
        <ele>1343.30</ele>
        <time>2017-12-09T07:43:37Z</time>
      </trkpt>
      <trkpt lat="27.961962" lon="-15.521326">
        <ele>1343.80</ele>
        <time>2017-12-09T07:43:42Z</time>
      </trkpt>
      <trkpt lat="27.961967" lon="-15.521352">
        <ele>1343.70</ele>
        <time>2017-12-09T07:43:44Z</time>
      </trkpt>
      <trkpt lat="27.961974" lon="-15.521381">
        <ele>1343.70</ele>
        <time>2017-12-09T07:43:46Z</time>
      </trkpt>
      <trkpt lat="27.961983" lon="-15.521407">
        <ele>1343.60</ele>
        <time>2017-12-09T07:43:48Z</time>
      </trkpt>
      <trkpt lat="27.961997" lon="-15.521430">
        <ele>1343.11</ele>
        <time>2017-12-09T07:43:50Z</time>
      </trkpt>
      <trkpt lat="27.962015" lon="-15.521450">
        <ele>1343.60</ele>
        <time>2017-12-09T07:43:52Z</time>
      </trkpt>
      <trkpt lat="27.962032" lon="-15.521465">
        <ele>1343.62</ele>
        <time>2017-12-09T07:43:54Z</time>
      </trkpt>
      <trkpt lat="27.962051" lon="-15.521476">
        <ele>1344.20</ele>
        <time>2017-12-09T07:43:56Z</time>
      </trkpt>
      <trkpt lat="27.962072" lon="-15.521485">
        <ele>1344.30</ele>
        <time>2017-12-09T07:43:59Z</time>
      </trkpt>
      <trkpt lat="27.962087" lon="-15.521505">
        <ele>1344.79</ele>
        <time>2017-12-09T07:45:39Z</time>
      </trkpt>
      <trkpt lat="27.962102" lon="-15.521520">
        <ele>1344.60</ele>
        <time>2017-12-09T07:45:41Z</time>
      </trkpt>
      <trkpt lat="27.962114" lon="-15.521537">
        <ele>1344.60</ele>
        <time>2017-12-09T07:45:43Z</time>
      </trkpt>
      <trkpt lat="27.962129" lon="-15.521555">
        <ele>1344.72</ele>
        <time>2017-12-09T07:45:45Z</time>
      </trkpt>
      <trkpt lat="27.962141" lon="-15.521570">
        <ele>1345.30</ele>
        <time>2017-12-09T07:45:47Z</time>
      </trkpt>
      <trkpt lat="27.962152" lon="-15.521590">
        <ele>1345.40</ele>
        <time>2017-12-09T07:45:49Z</time>
      </trkpt>
      <trkpt lat="27.962161" lon="-15.521608">
        <ele>1345.51</ele>
        <time>2017-12-09T07:45:51Z</time>
      </trkpt>
      <trkpt lat="27.962169" lon="-15.521626">
        <ele>1345.81</ele>
        <time>2017-12-09T07:45:53Z</time>
      </trkpt>
      <trkpt lat="27.962185" lon="-15.521644">
        <ele>1346.02</ele>
        <time>2017-12-09T07:45:55Z</time>
      </trkpt>
      <trkpt lat="27.962201" lon="-15.521660">
        <ele>1346.60</ele>
        <time>2017-12-09T07:45:57Z</time>
      </trkpt>
      <trkpt lat="27.962215" lon="-15.521680">
        <ele>1346.73</ele>
        <time>2017-12-09T07:45:59Z</time>
      </trkpt>
      <trkpt lat="27.962229" lon="-15.521702">
        <ele>1347.22</ele>
        <time>2017-12-09T07:46:01Z</time>
      </trkpt>
      <trkpt lat="27.962241" lon="-15.521719">
        <ele>1347.70</ele>
        <time>2017-12-09T07:46:03Z</time>
      </trkpt>
      <trkpt lat="27.962259" lon="-15.521733">
        <ele>1348.21</ele>
        <time>2017-12-09T07:46:05Z</time>
      </trkpt>
      <trkpt lat="27.962278" lon="-15.521745">
        <ele>1348.40</ele>
        <time>2017-12-09T07:46:07Z</time>
      </trkpt>
      <trkpt lat="27.962294" lon="-15.521756">
        <ele>1348.70</ele>
        <time>2017-12-09T07:46:09Z</time>
      </trkpt>
      <trkpt lat="27.962303" lon="-15.521775">
        <ele>1348.90</ele>
        <time>2017-12-09T07:46:11Z</time>
      </trkpt>
      <trkpt lat="27.962312" lon="-15.521796">
        <ele>1348.91</ele>
        <time>2017-12-09T07:46:13Z</time>
      </trkpt>
      <trkpt lat="27.962324" lon="-15.521816">
        <ele>1349.41</ele>
        <time>2017-12-09T07:46:15Z</time>
      </trkpt>
      <trkpt lat="27.962334" lon="-15.521838">
        <ele>1350.00</ele>
        <time>2017-12-09T07:46:17Z</time>
      </trkpt>
      <trkpt lat="27.962340" lon="-15.521860">
        <ele>1350.10</ele>
        <time>2017-12-09T07:46:19Z</time>
      </trkpt>
      <trkpt lat="27.962349" lon="-15.521881">
        <ele>1351.00</ele>
        <time>2017-12-09T07:46:21Z</time>
      </trkpt>
      <trkpt lat="27.962361" lon="-15.521900">
        <ele>1351.30</ele>
        <time>2017-12-09T07:46:23Z</time>
      </trkpt>
      <trkpt lat="27.962369" lon="-15.521922">
        <ele>1351.71</ele>
        <time>2017-12-09T07:46:25Z</time>
      </trkpt>
      <trkpt lat="27.962379" lon="-15.521947">
        <ele>1352.01</ele>
        <time>2017-12-09T07:46:27Z</time>
      </trkpt>
      <trkpt lat="27.962393" lon="-15.521971">
        <ele>1352.40</ele>
        <time>2017-12-09T07:46:29Z</time>
      </trkpt>
      <trkpt lat="27.962408" lon="-15.521993">
        <ele>1352.80</ele>
        <time>2017-12-09T07:46:31Z</time>
      </trkpt>
      <trkpt lat="27.962422" lon="-15.522017">
        <ele>1352.80</ele>
        <time>2017-12-09T07:46:33Z</time>
      </trkpt>
      <trkpt lat="27.962436" lon="-15.522039">
        <ele>1352.80</ele>
        <time>2017-12-09T07:46:35Z</time>
      </trkpt>
      <trkpt lat="27.962450" lon="-15.522061">
        <ele>1352.83</ele>
        <time>2017-12-09T07:46:37Z</time>
      </trkpt>
      <trkpt lat="27.962459" lon="-15.522086">
        <ele>1353.40</ele>
        <time>2017-12-09T07:46:39Z</time>
      </trkpt>
      <trkpt lat="27.962467" lon="-15.522109">
        <ele>1353.40</ele>
        <time>2017-12-09T07:46:41Z</time>
      </trkpt>
      <trkpt lat="27.962464" lon="-15.522140">
        <ele>1353.52</ele>
        <time>2017-12-09T07:46:43Z</time>
      </trkpt>
      <trkpt lat="27.962464" lon="-15.522166">
        <ele>1353.92</ele>
        <time>2017-12-09T07:46:45Z</time>
      </trkpt>
      <trkpt lat="27.962465" lon="-15.522189">
        <ele>1354.00</ele>
        <time>2017-12-09T07:46:47Z</time>
      </trkpt>
      <trkpt lat="27.962466" lon="-15.522217">
        <ele>1354.26</ele>
        <time>2017-12-09T07:46:49Z</time>
      </trkpt>
      <trkpt lat="27.962468" lon="-15.522246">
        <ele>1354.80</ele>
        <time>2017-12-09T07:46:51Z</time>
      </trkpt>
      <trkpt lat="27.962466" lon="-15.522269">
        <ele>1355.24</ele>
        <time>2017-12-09T07:46:53Z</time>
      </trkpt>
      <trkpt lat="27.962468" lon="-15.522294">
        <ele>1355.36</ele>
        <time>2017-12-09T07:46:55Z</time>
      </trkpt>
      <trkpt lat="27.962473" lon="-15.522324">
        <ele>1355.40</ele>
        <time>2017-12-09T07:46:57Z</time>
      </trkpt>
      <trkpt lat="27.962484" lon="-15.522352">
        <ele>1355.47</ele>
        <time>2017-12-09T07:46:59Z</time>
      </trkpt>
      <trkpt lat="27.962493" lon="-15.522375">
        <ele>1356.00</ele>
        <time>2017-12-09T07:47:01Z</time>
      </trkpt>
      <trkpt lat="27.962503" lon="-15.522402">
        <ele>1356.30</ele>
        <time>2017-12-09T07:47:03Z</time>
      </trkpt>
      <trkpt lat="27.962521" lon="-15.522426">
        <ele>1356.60</ele>
        <time>2017-12-09T07:47:05Z</time>
      </trkpt>
      <trkpt lat="27.962536" lon="-15.522443">
        <ele>1356.73</ele>
        <time>2017-12-09T07:47:07Z</time>
      </trkpt>
      <trkpt lat="27.962553" lon="-15.522463">
        <ele>1357.60</ele>
        <time>2017-12-09T07:47:09Z</time>
      </trkpt>
      <trkpt lat="27.962573" lon="-15.522483">
        <ele>1357.60</ele>
        <time>2017-12-09T07:47:11Z</time>
      </trkpt>
      <trkpt lat="27.962600" lon="-15.522508">
        <ele>1357.80</ele>
        <time>2017-12-09T07:47:13Z</time>
      </trkpt>
      <trkpt lat="27.962620" lon="-15.522530">
        <ele>1357.90</ele>
        <time>2017-12-09T07:47:15Z</time>
      </trkpt>
      <trkpt lat="27.962640" lon="-15.522550">
        <ele>1358.36</ele>
        <time>2017-12-09T07:47:17Z</time>
      </trkpt>
      <trkpt lat="27.962654" lon="-15.522576">
        <ele>1358.50</ele>
        <time>2017-12-09T07:47:19Z</time>
      </trkpt>
      <trkpt lat="27.962667" lon="-15.522605">
        <ele>1358.70</ele>
        <time>2017-12-09T07:47:21Z</time>
      </trkpt>
      <trkpt lat="27.962678" lon="-15.522636">
        <ele>1359.24</ele>
        <time>2017-12-09T07:47:23Z</time>
      </trkpt>
      <trkpt lat="27.962687" lon="-15.522666">
        <ele>1359.44</ele>
        <time>2017-12-09T07:47:25Z</time>
      </trkpt>
      <trkpt lat="27.962692" lon="-15.522691">
        <ele>1359.50</ele>
        <time>2017-12-09T07:47:27Z</time>
      </trkpt>
      <trkpt lat="27.962694" lon="-15.522718">
        <ele>1359.50</ele>
        <time>2017-12-09T07:47:29Z</time>
      </trkpt>
      <trkpt lat="27.962698" lon="-15.522748">
        <ele>1359.80</ele>
        <time>2017-12-09T07:47:31Z</time>
      </trkpt>
      <trkpt lat="27.962694" lon="-15.522780">
        <ele>1359.94</ele>
        <time>2017-12-09T07:47:33Z</time>
      </trkpt>
      <trkpt lat="27.962694" lon="-15.522808">
        <ele>1360.04</ele>
        <time>2017-12-09T07:47:35Z</time>
      </trkpt>
      <trkpt lat="27.962692" lon="-15.522831">
        <ele>1360.65</ele>
        <time>2017-12-09T07:47:37Z</time>
      </trkpt>
      <trkpt lat="27.962688" lon="-15.522860">
        <ele>1360.70</ele>
        <time>2017-12-09T07:47:40Z</time>
      </trkpt>
      <trkpt lat="27.962689" lon="-15.522888">
        <ele>1361.40</ele>
        <time>2017-12-09T07:47:42Z</time>
      </trkpt>
      <trkpt lat="27.962697" lon="-15.522916">
        <ele>1361.70</ele>
        <time>2017-12-09T07:47:44Z</time>
      </trkpt>
      <trkpt lat="27.962714" lon="-15.522940">
        <ele>1361.85</ele>
        <time>2017-12-09T07:47:46Z</time>
      </trkpt>
      <trkpt lat="27.962739" lon="-15.522958">
        <ele>1362.01</ele>
        <time>2017-12-09T07:47:48Z</time>
      </trkpt>
      <trkpt lat="27.962761" lon="-15.522966">
        <ele>1362.15</ele>
        <time>2017-12-09T07:47:50Z</time>
      </trkpt>
      <trkpt lat="27.962785" lon="-15.522968">
        <ele>1362.56</ele>
        <time>2017-12-09T07:47:52Z</time>
      </trkpt>
      <trkpt lat="27.962806" lon="-15.522966">
        <ele>1362.70</ele>
        <time>2017-12-09T07:47:54Z</time>
      </trkpt>
      <trkpt lat="27.962828" lon="-15.522964">
        <ele>1362.85</ele>
        <time>2017-12-09T07:47:56Z</time>
      </trkpt>
      <trkpt lat="27.962853" lon="-15.522961">
        <ele>1362.96</ele>
        <time>2017-12-09T07:47:58Z</time>
      </trkpt>
      <trkpt lat="27.962877" lon="-15.522953">
        <ele>1363.31</ele>
        <time>2017-12-09T07:48:00Z</time>
      </trkpt>
      <trkpt lat="27.962900" lon="-15.522944">
        <ele>1363.34</ele>
        <time>2017-12-09T07:48:02Z</time>
      </trkpt>
      <trkpt lat="27.962925" lon="-15.522936">
        <ele>1363.81</ele>
        <time>2017-12-09T07:48:04Z</time>
      </trkpt>
      <trkpt lat="27.962950" lon="-15.522930">
        <ele>1363.90</ele>
        <time>2017-12-09T07:48:06Z</time>
      </trkpt>
      <trkpt lat="27.962976" lon="-15.522922">
        <ele>1363.90</ele>
        <time>2017-12-09T07:48:08Z</time>
      </trkpt>
      <trkpt lat="27.962996" lon="-15.522911">
        <ele>1364.54</ele>
        <time>2017-12-09T07:48:10Z</time>
      </trkpt>
      <trkpt lat="27.963016" lon="-15.522887">
        <ele>1365.06</ele>
        <time>2017-12-09T07:48:12Z</time>
      </trkpt>
      <trkpt lat="27.963038" lon="-15.522868">
        <ele>1365.10</ele>
        <time>2017-12-09T07:48:14Z</time>
      </trkpt>
      <trkpt lat="27.963059" lon="-15.522851">
        <ele>1365.40</ele>
        <time>2017-12-09T07:48:16Z</time>
      </trkpt>
      <trkpt lat="27.963081" lon="-15.522835">
        <ele>1365.73</ele>
        <time>2017-12-09T07:48:18Z</time>
      </trkpt>
      <trkpt lat="27.963105" lon="-15.522820">
        <ele>1365.80</ele>
        <time>2017-12-09T07:48:20Z</time>
      </trkpt>
      <trkpt lat="27.963126" lon="-15.522804">
        <ele>1366.24</ele>
        <time>2017-12-09T07:48:22Z</time>
      </trkpt>
      <trkpt lat="27.963147" lon="-15.522788">
        <ele>1366.37</ele>
        <time>2017-12-09T07:48:24Z</time>
      </trkpt>
      <trkpt lat="27.963174" lon="-15.522770">
        <ele>1366.57</ele>
        <time>2017-12-09T07:48:26Z</time>
      </trkpt>
      <trkpt lat="27.963197" lon="-15.522757">
        <ele>1367.12</ele>
        <time>2017-12-09T07:48:28Z</time>
      </trkpt>
      <trkpt lat="27.963214" lon="-15.522738">
        <ele>1367.20</ele>
        <time>2017-12-09T07:48:30Z</time>
      </trkpt>
      <trkpt lat="27.963230" lon="-15.522710">
        <ele>1367.67</ele>
        <time>2017-12-09T07:48:32Z</time>
      </trkpt>
      <trkpt lat="27.963243" lon="-15.522682">
        <ele>1367.85</ele>
        <time>2017-12-09T07:48:34Z</time>
      </trkpt>
      <trkpt lat="27.963265" lon="-15.522670">
        <ele>1368.15</ele>
        <time>2017-12-09T07:48:36Z</time>
      </trkpt>
      <trkpt lat="27.963288" lon="-15.522659">
        <ele>1368.50</ele>
        <time>2017-12-09T07:48:38Z</time>
      </trkpt>
      <trkpt lat="27.963317" lon="-15.522645">
        <ele>1368.52</ele>
        <time>2017-12-09T07:48:40Z</time>
      </trkpt>
      <trkpt lat="27.963341" lon="-15.522634">
        <ele>1369.25</ele>
        <time>2017-12-09T07:48:42Z</time>
      </trkpt>
      <trkpt lat="27.963365" lon="-15.522626">
        <ele>1368.90</ele>
        <time>2017-12-09T07:48:44Z</time>
      </trkpt>
      <trkpt lat="27.963387" lon="-15.522618">
        <ele>1369.40</ele>
        <time>2017-12-09T07:48:46Z</time>
      </trkpt>
      <trkpt lat="27.963414" lon="-15.522613">
        <ele>1369.90</ele>
        <time>2017-12-09T07:48:48Z</time>
      </trkpt>
      <trkpt lat="27.963440" lon="-15.522612">
        <ele>1370.40</ele>
        <time>2017-12-09T07:48:51Z</time>
      </trkpt>
      <trkpt lat="27.963465" lon="-15.522612">
        <ele>1370.78</ele>
        <time>2017-12-09T07:48:53Z</time>
      </trkpt>
      <trkpt lat="27.963484" lon="-15.522613">
        <ele>1371.04</ele>
        <time>2017-12-09T07:48:54Z</time>
      </trkpt>
      <trkpt lat="27.963505" lon="-15.522618">
        <ele>1371.10</ele>
        <time>2017-12-09T07:48:56Z</time>
      </trkpt>
      <trkpt lat="27.963527" lon="-15.522623">
        <ele>1371.10</ele>
        <time>2017-12-09T07:48:58Z</time>
      </trkpt>
      <trkpt lat="27.963551" lon="-15.522633">
        <ele>1371.35</ele>
        <time>2017-12-09T07:49:00Z</time>
      </trkpt>
      <trkpt lat="27.963571" lon="-15.522648">
        <ele>1371.88</ele>
        <time>2017-12-09T07:49:02Z</time>
      </trkpt>
      <trkpt lat="27.963593" lon="-15.522660">
        <ele>1372.29</ele>
        <time>2017-12-09T07:49:04Z</time>
      </trkpt>
      <trkpt lat="27.963618" lon="-15.522673">
        <ele>1372.49</ele>
        <time>2017-12-09T07:49:06Z</time>
      </trkpt>
      <trkpt lat="27.963642" lon="-15.522689">
        <ele>1372.79</ele>
        <time>2017-12-09T07:49:08Z</time>
      </trkpt>
      <trkpt lat="27.963666" lon="-15.522705">
        <ele>1373.15</ele>
        <time>2017-12-09T07:49:10Z</time>
      </trkpt>
      <trkpt lat="27.963692" lon="-15.522718">
        <ele>1373.30</ele>
        <time>2017-12-09T07:49:12Z</time>
      </trkpt>
      <trkpt lat="27.963715" lon="-15.522730">
        <ele>1373.58</ele>
        <time>2017-12-09T07:49:14Z</time>
      </trkpt>
      <trkpt lat="27.963740" lon="-15.522742">
        <ele>1373.98</ele>
        <time>2017-12-09T07:49:16Z</time>
      </trkpt>
      <trkpt lat="27.963759" lon="-15.522752">
        <ele>1374.09</ele>
        <time>2017-12-09T07:49:18Z</time>
      </trkpt>
      <trkpt lat="27.963783" lon="-15.522760">
        <ele>1374.78</ele>
        <time>2017-12-09T07:49:20Z</time>
      </trkpt>
      <trkpt lat="27.963805" lon="-15.522764">
        <ele>1374.80</ele>
        <time>2017-12-09T07:49:22Z</time>
      </trkpt>
      <trkpt lat="27.963828" lon="-15.522771">
        <ele>1375.49</ele>
        <time>2017-12-09T07:49:24Z</time>
      </trkpt>
      <trkpt lat="27.963850" lon="-15.522782">
        <ele>1375.50</ele>
        <time>2017-12-09T07:49:26Z</time>
      </trkpt>
      <trkpt lat="27.963873" lon="-15.522795">
        <ele>1375.90</ele>
        <time>2017-12-09T07:49:28Z</time>
      </trkpt>
      <trkpt lat="27.963888" lon="-15.522815">
        <ele>1376.30</ele>
        <time>2017-12-09T07:49:30Z</time>
      </trkpt>
      <trkpt lat="27.963902" lon="-15.522839">
        <ele>1376.70</ele>
        <time>2017-12-09T07:49:32Z</time>
      </trkpt>
      <trkpt lat="27.963912" lon="-15.522863">
        <ele>1376.80</ele>
        <time>2017-12-09T07:49:34Z</time>
      </trkpt>
      <trkpt lat="27.963910" lon="-15.522887">
        <ele>1377.30</ele>
        <time>2017-12-09T07:49:36Z</time>
      </trkpt>
      <trkpt lat="27.963892" lon="-15.522910">
        <ele>1377.31</ele>
        <time>2017-12-09T07:49:39Z</time>
      </trkpt>
      <trkpt lat="27.963870" lon="-15.522912">
        <ele>1377.71</ele>
        <time>2017-12-09T07:49:41Z</time>
      </trkpt>
      <trkpt lat="27.963845" lon="-15.522908">
        <ele>1378.30</ele>
        <time>2017-12-09T07:49:43Z</time>
      </trkpt>
      <trkpt lat="27.963822" lon="-15.522903">
        <ele>1378.41</ele>
        <time>2017-12-09T07:49:45Z</time>
      </trkpt>
      <trkpt lat="27.963796" lon="-15.522895">
        <ele>1378.81</ele>
        <time>2017-12-09T07:49:47Z</time>
      </trkpt>
      <trkpt lat="27.963772" lon="-15.522886">
        <ele>1379.33</ele>
        <time>2017-12-09T07:49:49Z</time>
      </trkpt>
      <trkpt lat="27.963749" lon="-15.522878">
        <ele>1379.71</ele>
        <time>2017-12-09T07:49:51Z</time>
      </trkpt>
      <trkpt lat="27.963724" lon="-15.522868">
        <ele>1380.30</ele>
        <time>2017-12-09T07:49:53Z</time>
      </trkpt>
      <trkpt lat="27.963699" lon="-15.522856">
        <ele>1380.50</ele>
        <time>2017-12-09T07:49:55Z</time>
      </trkpt>
      <trkpt lat="27.963677" lon="-15.522848">
        <ele>1380.50</ele>
        <time>2017-12-09T07:49:57Z</time>
      </trkpt>
      <trkpt lat="27.963653" lon="-15.522839">
        <ele>1380.81</ele>
        <time>2017-12-09T07:49:59Z</time>
      </trkpt>
      <trkpt lat="27.963627" lon="-15.522832">
        <ele>1381.21</ele>
        <time>2017-12-09T07:50:01Z</time>
      </trkpt>
      <trkpt lat="27.963601" lon="-15.522827">
        <ele>1381.67</ele>
        <time>2017-12-09T07:50:03Z</time>
      </trkpt>
      <trkpt lat="27.963578" lon="-15.522825">
        <ele>1382.15</ele>
        <time>2017-12-09T07:50:05Z</time>
      </trkpt>
      <trkpt lat="27.963555" lon="-15.522830">
        <ele>1381.90</ele>
        <time>2017-12-09T07:50:07Z</time>
      </trkpt>
      <trkpt lat="27.963532" lon="-15.522839">
        <ele>1381.98</ele>
        <time>2017-12-09T07:50:09Z</time>
      </trkpt>
      <trkpt lat="27.963505" lon="-15.522840">
        <ele>1382.50</ele>
        <time>2017-12-09T07:50:11Z</time>
      </trkpt>
      <trkpt lat="27.963480" lon="-15.522844">
        <ele>1382.63</ele>
        <time>2017-12-09T07:50:13Z</time>
      </trkpt>
      <trkpt lat="27.963455" lon="-15.522852">
        <ele>1382.90</ele>
        <time>2017-12-09T07:50:15Z</time>
      </trkpt>
      <trkpt lat="27.963432" lon="-15.522864">
        <ele>1383.13</ele>
        <time>2017-12-09T07:50:17Z</time>
      </trkpt>
      <trkpt lat="27.963407" lon="-15.522876">
        <ele>1383.33</ele>
        <time>2017-12-09T07:50:19Z</time>
      </trkpt>
      <trkpt lat="27.963385" lon="-15.522892">
        <ele>1383.50</ele>
        <time>2017-12-09T07:50:21Z</time>
      </trkpt>
      <trkpt lat="27.963369" lon="-15.522914">
        <ele>1383.82</ele>
        <time>2017-12-09T07:50:23Z</time>
      </trkpt>
      <trkpt lat="27.963354" lon="-15.522937">
        <ele>1383.90</ele>
        <time>2017-12-09T07:50:25Z</time>
      </trkpt>
      <trkpt lat="27.963337" lon="-15.522962">
        <ele>1384.13</ele>
        <time>2017-12-09T07:50:27Z</time>
      </trkpt>
      <trkpt lat="27.963323" lon="-15.522985">
        <ele>1384.30</ele>
        <time>2017-12-09T07:50:29Z</time>
      </trkpt>
      <trkpt lat="27.963311" lon="-15.523009">
        <ele>1384.60</ele>
        <time>2017-12-09T07:50:31Z</time>
      </trkpt>
      <trkpt lat="27.963297" lon="-15.523034">
        <ele>1384.96</ele>
        <time>2017-12-09T07:50:33Z</time>
      </trkpt>
      <trkpt lat="27.963286" lon="-15.523063">
        <ele>1385.24</ele>
        <time>2017-12-09T07:50:35Z</time>
      </trkpt>
      <trkpt lat="27.963275" lon="-15.523086">
        <ele>1385.42</ele>
        <time>2017-12-09T07:50:37Z</time>
      </trkpt>
      <trkpt lat="27.963265" lon="-15.523113">
        <ele>1385.52</ele>
        <time>2017-12-09T07:50:39Z</time>
      </trkpt>
      <trkpt lat="27.963255" lon="-15.523142">
        <ele>1385.96</ele>
        <time>2017-12-09T07:50:41Z</time>
      </trkpt>
      <trkpt lat="27.963246" lon="-15.523167">
        <ele>1386.32</ele>
        <time>2017-12-09T07:50:43Z</time>
      </trkpt>
      <trkpt lat="27.963239" lon="-15.523189">
        <ele>1386.67</ele>
        <time>2017-12-09T07:50:45Z</time>
      </trkpt>
      <trkpt lat="27.963228" lon="-15.523214">
        <ele>1387.32</ele>
        <time>2017-12-09T07:50:47Z</time>
      </trkpt>
      <trkpt lat="27.963216" lon="-15.523242">
        <ele>1387.45</ele>
        <time>2017-12-09T07:50:49Z</time>
      </trkpt>
      <trkpt lat="27.963204" lon="-15.523266">
        <ele>1387.85</ele>
        <time>2017-12-09T07:50:51Z</time>
      </trkpt>
      <trkpt lat="27.963190" lon="-15.523290">
        <ele>1387.92</ele>
        <time>2017-12-09T07:50:53Z</time>
      </trkpt>
      <trkpt lat="27.963174" lon="-15.523312">
        <ele>1388.50</ele>
        <time>2017-12-09T07:50:55Z</time>
      </trkpt>
      <trkpt lat="27.963159" lon="-15.523336">
        <ele>1388.68</ele>
        <time>2017-12-09T07:50:57Z</time>
      </trkpt>
      <trkpt lat="27.963142" lon="-15.523354">
        <ele>1389.03</ele>
        <time>2017-12-09T07:50:59Z</time>
      </trkpt>
      <trkpt lat="27.963126" lon="-15.523374">
        <ele>1389.43</ele>
        <time>2017-12-09T07:51:01Z</time>
      </trkpt>
      <trkpt lat="27.963108" lon="-15.523394">
        <ele>1389.70</ele>
        <time>2017-12-09T07:51:03Z</time>
      </trkpt>
      <trkpt lat="27.963092" lon="-15.523413">
        <ele>1389.70</ele>
        <time>2017-12-09T07:51:05Z</time>
      </trkpt>
      <trkpt lat="27.963076" lon="-15.523434">
        <ele>1389.89</ele>
        <time>2017-12-09T07:51:07Z</time>
      </trkpt>
      <trkpt lat="27.963057" lon="-15.523451">
        <ele>1390.46</ele>
        <time>2017-12-09T07:51:09Z</time>
      </trkpt>
      <trkpt lat="27.963034" lon="-15.523469">
        <ele>1390.63</ele>
        <time>2017-12-09T07:51:11Z</time>
      </trkpt>
      <trkpt lat="27.963016" lon="-15.523484">
        <ele>1390.90</ele>
        <time>2017-12-09T07:51:13Z</time>
      </trkpt>
      <trkpt lat="27.963000" lon="-15.523501">
        <ele>1391.00</ele>
        <time>2017-12-09T07:51:15Z</time>
      </trkpt>
      <trkpt lat="27.962982" lon="-15.523518">
        <ele>1391.27</ele>
        <time>2017-12-09T07:51:17Z</time>
      </trkpt>
      <trkpt lat="27.962961" lon="-15.523531">
        <ele>1391.80</ele>
        <time>2017-12-09T07:51:19Z</time>
      </trkpt>
      <trkpt lat="27.962940" lon="-15.523551">
        <ele>1392.34</ele>
        <time>2017-12-09T07:51:21Z</time>
      </trkpt>
      <trkpt lat="27.962920" lon="-15.523570">
        <ele>1392.63</ele>
        <time>2017-12-09T07:51:23Z</time>
      </trkpt>
      <trkpt lat="27.962901" lon="-15.523588">
        <ele>1392.74</ele>
        <time>2017-12-09T07:51:25Z</time>
      </trkpt>
      <trkpt lat="27.962884" lon="-15.523607">
        <ele>1393.10</ele>
        <time>2017-12-09T07:51:27Z</time>
      </trkpt>
      <trkpt lat="27.962869" lon="-15.523626">
        <ele>1393.14</ele>
        <time>2017-12-09T07:51:29Z</time>
      </trkpt>
      <trkpt lat="27.962851" lon="-15.523644">
        <ele>1393.37</ele>
        <time>2017-12-09T07:51:31Z</time>
      </trkpt>
      <trkpt lat="27.962831" lon="-15.523664">
        <ele>1393.60</ele>
        <time>2017-12-09T07:51:33Z</time>
      </trkpt>
      <trkpt lat="27.962814" lon="-15.523684">
        <ele>1394.20</ele>
        <time>2017-12-09T07:51:35Z</time>
      </trkpt>
      <trkpt lat="27.962788" lon="-15.523697">
        <ele>1394.20</ele>
        <time>2017-12-09T07:51:37Z</time>
      </trkpt>
      <trkpt lat="27.962764" lon="-15.523712">
        <ele>1394.48</ele>
        <time>2017-12-09T07:51:39Z</time>
      </trkpt>
      <trkpt lat="27.962744" lon="-15.523728">
        <ele>1395.20</ele>
        <time>2017-12-09T07:51:41Z</time>
      </trkpt>
      <trkpt lat="27.962725" lon="-15.523743">
        <ele>1395.24</ele>
        <time>2017-12-09T07:51:43Z</time>
      </trkpt>
      <trkpt lat="27.962704" lon="-15.523759">
        <ele>1395.50</ele>
        <time>2017-12-09T07:51:45Z</time>
      </trkpt>
      <trkpt lat="27.962689" lon="-15.523774">
        <ele>1396.04</ele>
        <time>2017-12-09T07:51:52Z</time>
      </trkpt>
      <trkpt lat="27.962671" lon="-15.523792">
        <ele>1396.14</ele>
        <time>2017-12-09T07:51:54Z</time>
      </trkpt>
      <trkpt lat="27.962653" lon="-15.523808">
        <ele>1396.14</ele>
        <time>2017-12-09T07:51:56Z</time>
      </trkpt>
      <trkpt lat="27.962634" lon="-15.523825">
        <ele>1396.37</ele>
        <time>2017-12-09T07:51:58Z</time>
      </trkpt>
      <trkpt lat="27.962614" lon="-15.523844">
        <ele>1396.78</ele>
        <time>2017-12-09T07:52:00Z</time>
      </trkpt>
      <trkpt lat="27.962597" lon="-15.523863">
        <ele>1397.07</ele>
        <time>2017-12-09T07:52:02Z</time>
      </trkpt>
      <trkpt lat="27.962580" lon="-15.523885">
        <ele>1397.40</ele>
        <time>2017-12-09T07:52:04Z</time>
      </trkpt>
      <trkpt lat="27.962562" lon="-15.523908">
        <ele>1398.13</ele>
        <time>2017-12-09T07:52:06Z</time>
      </trkpt>
      <trkpt lat="27.962547" lon="-15.523929">
        <ele>1398.30</ele>
        <time>2017-12-09T07:52:08Z</time>
      </trkpt>
      <trkpt lat="27.962531" lon="-15.523942">
        <ele>1398.64</ele>
        <time>2017-12-09T07:52:10Z</time>
      </trkpt>
      <trkpt lat="27.962512" lon="-15.523946">
        <ele>1398.80</ele>
        <time>2017-12-09T07:52:12Z</time>
      </trkpt>
      <trkpt lat="27.962490" lon="-15.523949">
        <ele>1398.95</ele>
        <time>2017-12-09T07:52:14Z</time>
      </trkpt>
      <trkpt lat="27.962472" lon="-15.523949">
        <ele>1399.00</ele>
        <time>2017-12-09T07:52:16Z</time>
      </trkpt>
      <trkpt lat="27.962450" lon="-15.523947">
        <ele>1399.74</ele>
        <time>2017-12-09T07:52:18Z</time>
      </trkpt>
      <trkpt lat="27.962426" lon="-15.523949">
        <ele>1400.60</ele>
        <time>2017-12-09T07:52:20Z</time>
      </trkpt>
      <trkpt lat="27.962407" lon="-15.523951">
        <ele>1400.85</ele>
        <time>2017-12-09T07:52:22Z</time>
      </trkpt>
      <trkpt lat="27.962385" lon="-15.523951">
        <ele>1400.90</ele>
        <time>2017-12-09T07:52:24Z</time>
      </trkpt>
      <trkpt lat="27.962364" lon="-15.523954">
        <ele>1401.29</ele>
        <time>2017-12-09T07:52:26Z</time>
      </trkpt>
      <trkpt lat="27.962345" lon="-15.523957">
        <ele>1401.75</ele>
        <time>2017-12-09T07:52:28Z</time>
      </trkpt>
      <trkpt lat="27.962323" lon="-15.523961">
        <ele>1402.30</ele>
        <time>2017-12-09T07:52:30Z</time>
      </trkpt>
      <trkpt lat="27.962300" lon="-15.523966">
        <ele>1402.55</ele>
        <time>2017-12-09T07:52:32Z</time>
      </trkpt>
      <trkpt lat="27.962280" lon="-15.523972">
        <ele>1402.65</ele>
        <time>2017-12-09T07:52:34Z</time>
      </trkpt>
      <trkpt lat="27.962255" lon="-15.523981">
        <ele>1402.95</ele>
        <time>2017-12-09T07:52:36Z</time>
      </trkpt>
      <trkpt lat="27.962234" lon="-15.523985">
        <ele>1403.45</ele>
        <time>2017-12-09T07:52:38Z</time>
      </trkpt>
      <trkpt lat="27.962211" lon="-15.523990">
        <ele>1403.91</ele>
        <time>2017-12-09T07:52:40Z</time>
      </trkpt>
      <trkpt lat="27.962187" lon="-15.523994">
        <ele>1404.45</ele>
        <time>2017-12-09T07:52:42Z</time>
      </trkpt>
      <trkpt lat="27.962167" lon="-15.523998">
        <ele>1404.81</ele>
        <time>2017-12-09T07:52:44Z</time>
      </trkpt>
      <trkpt lat="27.962144" lon="-15.524004">
        <ele>1404.95</ele>
        <time>2017-12-09T07:52:46Z</time>
      </trkpt>
      <trkpt lat="27.962124" lon="-15.524011">
        <ele>1405.26</ele>
        <time>2017-12-09T07:52:48Z</time>
      </trkpt>
      <trkpt lat="27.962105" lon="-15.524014">
        <ele>1405.99</ele>
        <time>2017-12-09T07:52:50Z</time>
      </trkpt>
      <trkpt lat="27.962084" lon="-15.524018">
        <ele>1406.46</ele>
        <time>2017-12-09T07:52:52Z</time>
      </trkpt>
      <trkpt lat="27.962066" lon="-15.524023">
        <ele>1406.67</ele>
        <time>2017-12-09T07:52:54Z</time>
      </trkpt>
      <trkpt lat="27.962047" lon="-15.524026">
        <ele>1407.47</ele>
        <time>2017-12-09T07:52:56Z</time>
      </trkpt>
      <trkpt lat="27.962022" lon="-15.524031">
        <ele>1408.09</ele>
        <time>2017-12-09T07:52:59Z</time>
      </trkpt>
      <trkpt lat="27.961998" lon="-15.524035">
        <ele>1408.88</ele>
        <time>2017-12-09T07:53:02Z</time>
      </trkpt>
      <trkpt lat="27.961976" lon="-15.524037">
        <ele>1409.42</ele>
        <time>2017-12-09T07:53:05Z</time>
      </trkpt>
      <trkpt lat="27.961951" lon="-15.524045">
        <ele>1410.26</ele>
        <time>2017-12-09T07:53:08Z</time>
      </trkpt>
      <trkpt lat="27.961928" lon="-15.524048">
        <ele>1411.60</ele>
        <time>2017-12-09T07:53:11Z</time>
      </trkpt>
      <trkpt lat="27.961905" lon="-15.524052">
        <ele>1412.06</ele>
        <time>2017-12-09T07:53:14Z</time>
      </trkpt>
      <trkpt lat="27.961886" lon="-15.524053">
        <ele>1412.57</ele>
        <time>2017-12-09T07:53:16Z</time>
      </trkpt>
      <trkpt lat="27.961866" lon="-15.524057">
        <ele>1413.43</ele>
        <time>2017-12-09T07:53:19Z</time>
      </trkpt>
      <trkpt lat="27.961843" lon="-15.524053">
        <ele>1413.90</ele>
        <time>2017-12-09T07:53:22Z</time>
      </trkpt>
      <trkpt lat="27.961819" lon="-15.524059">
        <ele>1414.60</ele>
        <time>2017-12-09T07:53:25Z</time>
      </trkpt>
      <trkpt lat="27.961798" lon="-15.524056">
        <ele>1415.69</ele>
        <time>2017-12-09T07:53:28Z</time>
      </trkpt>
      <trkpt lat="27.961778" lon="-15.524054">
        <ele>1416.28</ele>
        <time>2017-12-09T07:53:30Z</time>
      </trkpt>
      <trkpt lat="27.961759" lon="-15.524056">
        <ele>1416.87</ele>
        <time>2017-12-09T07:53:32Z</time>
      </trkpt>
      <trkpt lat="27.961739" lon="-15.524054">
        <ele>1417.76</ele>
        <time>2017-12-09T07:53:35Z</time>
      </trkpt>
      <trkpt lat="27.961720" lon="-15.524050">
        <ele>1418.42</ele>
        <time>2017-12-09T07:53:38Z</time>
      </trkpt>
      <trkpt lat="27.961696" lon="-15.524050">
        <ele>1419.34</ele>
        <time>2017-12-09T07:53:41Z</time>
      </trkpt>
      <trkpt lat="27.961675" lon="-15.524050">
        <ele>1420.12</ele>
        <time>2017-12-09T07:53:45Z</time>
      </trkpt>
      <trkpt lat="27.961656" lon="-15.524052">
        <ele>1420.58</ele>
        <time>2017-12-09T07:53:48Z</time>
      </trkpt>
      <trkpt lat="27.961633" lon="-15.524058">
        <ele>1421.33</ele>
        <time>2017-12-09T07:53:51Z</time>
      </trkpt>
      <trkpt lat="27.961616" lon="-15.524072">
        <ele>1421.40</ele>
        <time>2017-12-09T07:53:53Z</time>
      </trkpt>
      <trkpt lat="27.961605" lon="-15.524093">
        <ele>1422.00</ele>
        <time>2017-12-09T07:53:55Z</time>
      </trkpt>
      <trkpt lat="27.961593" lon="-15.524116">
        <ele>1422.10</ele>
        <time>2017-12-09T07:53:58Z</time>
      </trkpt>
      <trkpt lat="27.961582" lon="-15.524144">
        <ele>1423.04</ele>
        <time>2017-12-09T07:54:01Z</time>
      </trkpt>
      <trkpt lat="27.961575" lon="-15.524165">
        <ele>1423.30</ele>
        <time>2017-12-09T07:54:03Z</time>
      </trkpt>
      <trkpt lat="27.961567" lon="-15.524186">
        <ele>1423.56</ele>
        <time>2017-12-09T07:54:05Z</time>
      </trkpt>
      <trkpt lat="27.961554" lon="-15.524210">
        <ele>1423.68</ele>
        <time>2017-12-09T07:54:08Z</time>
      </trkpt>
      <trkpt lat="27.961540" lon="-15.524228">
        <ele>1424.56</ele>
        <time>2017-12-09T07:54:11Z</time>
      </trkpt>
      <trkpt lat="27.961537" lon="-15.524251">
        <ele>1425.80</ele>
        <time>2017-12-09T07:54:14Z</time>
      </trkpt>
      <trkpt lat="27.961522" lon="-15.524266">
        <ele>1426.07</ele>
        <time>2017-12-09T07:54:17Z</time>
      </trkpt>
      <trkpt lat="27.961505" lon="-15.524280">
        <ele>1426.45</ele>
        <time>2017-12-09T07:54:20Z</time>
      </trkpt>
      <trkpt lat="27.961485" lon="-15.524280">
        <ele>1427.52</ele>
        <time>2017-12-09T07:54:22Z</time>
      </trkpt>
      <trkpt lat="27.961458" lon="-15.524284">
        <ele>1429.64</ele>
        <time>2017-12-09T07:54:25Z</time>
      </trkpt>
      <trkpt lat="27.961442" lon="-15.524295">
        <ele>1429.80</ele>
        <time>2017-12-09T07:54:27Z</time>
      </trkpt>
      <trkpt lat="27.961425" lon="-15.524303">
        <ele>1429.83</ele>
        <time>2017-12-09T07:54:29Z</time>
      </trkpt>
      <trkpt lat="27.961409" lon="-15.524315">
        <ele>1429.88</ele>
        <time>2017-12-09T07:54:31Z</time>
      </trkpt>
      <trkpt lat="27.961403" lon="-15.524345">
        <ele>1430.10</ele>
        <time>2017-12-09T07:54:34Z</time>
      </trkpt>
      <trkpt lat="27.961401" lon="-15.524374">
        <ele>1431.00</ele>
        <time>2017-12-09T07:54:37Z</time>
      </trkpt>
      <trkpt lat="27.961400" lon="-15.524396">
        <ele>1432.25</ele>
        <time>2017-12-09T07:54:39Z</time>
      </trkpt>
      <trkpt lat="27.961405" lon="-15.524423">
        <ele>1432.40</ele>
        <time>2017-12-09T07:54:42Z</time>
      </trkpt>
      <trkpt lat="27.961413" lon="-15.524449">
        <ele>1433.38</ele>
        <time>2017-12-09T07:54:45Z</time>
      </trkpt>
      <trkpt lat="27.961411" lon="-15.524470">
        <ele>1433.59</ele>
        <time>2017-12-09T07:54:47Z</time>
      </trkpt>
      <trkpt lat="27.961397" lon="-15.524491">
        <ele>1434.08</ele>
        <time>2017-12-09T07:54:50Z</time>
      </trkpt>
      <trkpt lat="27.961373" lon="-15.524496">
        <ele>1434.30</ele>
        <time>2017-12-09T07:54:53Z</time>
      </trkpt>
      <trkpt lat="27.961355" lon="-15.524487">
        <ele>1434.80</ele>
        <time>2017-12-09T07:54:55Z</time>
      </trkpt>
      <trkpt lat="27.961337" lon="-15.524479">
        <ele>1435.80</ele>
        <time>2017-12-09T07:54:57Z</time>
      </trkpt>
      <trkpt lat="27.961316" lon="-15.524478">
        <ele>1436.49</ele>
        <time>2017-12-09T07:54:59Z</time>
      </trkpt>
      <trkpt lat="27.961298" lon="-15.524490">
        <ele>1436.99</ele>
        <time>2017-12-09T07:55:01Z</time>
      </trkpt>
      <trkpt lat="27.961280" lon="-15.524507">
        <ele>1437.10</ele>
        <time>2017-12-09T07:55:03Z</time>
      </trkpt>
      <trkpt lat="27.961261" lon="-15.524530">
        <ele>1437.50</ele>
        <time>2017-12-09T07:55:06Z</time>
      </trkpt>
      <trkpt lat="27.961250" lon="-15.524553">
        <ele>1437.50</ele>
        <time>2017-12-09T07:55:09Z</time>
      </trkpt>
      <trkpt lat="27.961240" lon="-15.524578">
        <ele>1438.51</ele>
        <time>2017-12-09T07:55:12Z</time>
      </trkpt>
      <trkpt lat="27.961222" lon="-15.524600">
        <ele>1439.90</ele>
        <time>2017-12-09T07:55:15Z</time>
      </trkpt>
      <trkpt lat="27.961208" lon="-15.524619">
        <ele>1440.00</ele>
        <time>2017-12-09T07:55:18Z</time>
      </trkpt>
      <trkpt lat="27.961195" lon="-15.524635">
        <ele>1440.81</ele>
        <time>2017-12-09T07:55:21Z</time>
      </trkpt>
      <trkpt lat="27.961174" lon="-15.524656">
        <ele>1441.82</ele>
        <time>2017-12-09T07:55:24Z</time>
      </trkpt>
      <trkpt lat="27.961161" lon="-15.524675">
        <ele>1443.09</ele>
        <time>2017-12-09T07:55:28Z</time>
      </trkpt>
      <trkpt lat="27.961168" lon="-15.524695">
        <ele>1443.39</ele>
        <time>2017-12-09T07:55:31Z</time>
      </trkpt>
      <trkpt lat="27.961184" lon="-15.524707">
        <ele>1444.14</ele>
        <time>2017-12-09T07:55:33Z</time>
      </trkpt>
      <trkpt lat="27.961202" lon="-15.524726">
        <ele>1445.14</ele>
        <time>2017-12-09T07:55:36Z</time>
      </trkpt>
      <trkpt lat="27.961217" lon="-15.524743">
        <ele>1446.20</ele>
        <time>2017-12-09T07:55:38Z</time>
      </trkpt>
      <trkpt lat="27.961225" lon="-15.524764">
        <ele>1446.22</ele>
        <time>2017-12-09T07:55:40Z</time>
      </trkpt>
      <trkpt lat="27.961235" lon="-15.524786">
        <ele>1446.30</ele>
        <time>2017-12-09T07:55:42Z</time>
      </trkpt>
      <trkpt lat="27.961214" lon="-15.524796">
        <ele>1447.14</ele>
        <time>2017-12-09T07:55:47Z</time>
      </trkpt>
      <trkpt lat="27.961191" lon="-15.524791">
        <ele>1447.76</ele>
        <time>2017-12-09T07:55:49Z</time>
      </trkpt>
      <trkpt lat="27.961172" lon="-15.524800">
        <ele>1448.14</ele>
        <time>2017-12-09T07:55:52Z</time>
      </trkpt>
      <trkpt lat="27.961173" lon="-15.524822">
        <ele>1448.70</ele>
        <time>2017-12-09T07:55:56Z</time>
      </trkpt>
      <trkpt lat="27.961162" lon="-15.524842">
        <ele>1450.83</ele>
        <time>2017-12-09T07:56:01Z</time>
      </trkpt>
      <trkpt lat="27.961142" lon="-15.524850">
        <ele>1451.33</ele>
        <time>2017-12-09T07:56:04Z</time>
      </trkpt>
      <trkpt lat="27.961128" lon="-15.524869">
        <ele>1452.16</ele>
        <time>2017-12-09T07:56:09Z</time>
      </trkpt>
      <trkpt lat="27.961114" lon="-15.524884">
        <ele>1453.55</ele>
        <time>2017-12-09T07:56:13Z</time>
      </trkpt>
      <trkpt lat="27.961097" lon="-15.524896">
        <ele>1454.23</ele>
        <time>2017-12-09T07:56:16Z</time>
      </trkpt>
      <trkpt lat="27.961101" lon="-15.524919">
        <ele>1454.98</ele>
        <time>2017-12-09T07:56:19Z</time>
      </trkpt>
      <trkpt lat="27.961094" lon="-15.524941">
        <ele>1456.55</ele>
        <time>2017-12-09T07:56:23Z</time>
      </trkpt>
      <trkpt lat="27.961093" lon="-15.524962">
        <ele>1457.33</ele>
        <time>2017-12-09T07:56:26Z</time>
      </trkpt>
      <trkpt lat="27.961091" lon="-15.524985">
        <ele>1458.63</ele>
        <time>2017-12-09T07:56:31Z</time>
      </trkpt>
      <trkpt lat="27.961094" lon="-15.525011">
        <ele>1459.93</ele>
        <time>2017-12-09T07:56:36Z</time>
      </trkpt>
      <trkpt lat="27.961080" lon="-15.525026">
        <ele>1460.49</ele>
        <time>2017-12-09T07:56:41Z</time>
      </trkpt>
      <trkpt lat="27.961071" lon="-15.525048">
        <ele>1461.85</ele>
        <time>2017-12-09T07:56:45Z</time>
      </trkpt>
      <trkpt lat="27.961066" lon="-15.525072">
        <ele>1462.70</ele>
        <time>2017-12-09T07:56:48Z</time>
      </trkpt>
      <trkpt lat="27.961064" lon="-15.525097">
        <ele>1463.51</ele>
        <time>2017-12-09T07:56:51Z</time>
      </trkpt>
      <trkpt lat="27.961054" lon="-15.525114">
        <ele>1464.37</ele>
        <time>2017-12-09T07:56:55Z</time>
      </trkpt>
      <trkpt lat="27.961043" lon="-15.525136">
        <ele>1465.19</ele>
        <time>2017-12-09T07:56:58Z</time>
      </trkpt>
      <trkpt lat="27.961034" lon="-15.525156">
        <ele>1466.53</ele>
        <time>2017-12-09T07:57:01Z</time>
      </trkpt>
      <trkpt lat="27.961022" lon="-15.525172">
        <ele>1467.44</ele>
        <time>2017-12-09T07:57:04Z</time>
      </trkpt>
      <trkpt lat="27.961017" lon="-15.525192">
        <ele>1468.98</ele>
        <time>2017-12-09T07:57:07Z</time>
      </trkpt>
      <trkpt lat="27.961007" lon="-15.525209">
        <ele>1469.16</ele>
        <time>2017-12-09T07:57:10Z</time>
      </trkpt>
      <trkpt lat="27.960998" lon="-15.525232">
        <ele>1470.24</ele>
        <time>2017-12-09T07:57:13Z</time>
      </trkpt>
      <trkpt lat="27.960984" lon="-15.525253">
        <ele>1470.54</ele>
        <time>2017-12-09T07:57:16Z</time>
      </trkpt>
      <trkpt lat="27.960966" lon="-15.525278">
        <ele>1471.39</ele>
        <time>2017-12-09T07:57:19Z</time>
      </trkpt>
      <trkpt lat="27.960954" lon="-15.525302">
        <ele>1471.65</ele>
        <time>2017-12-09T07:57:22Z</time>
      </trkpt>
      <trkpt lat="27.960932" lon="-15.525313">
        <ele>1471.80</ele>
        <time>2017-12-09T07:57:26Z</time>
      </trkpt>
      <trkpt lat="27.960906" lon="-15.525317">
        <ele>1473.11</ele>
        <time>2017-12-09T07:57:29Z</time>
      </trkpt>
      <trkpt lat="27.960882" lon="-15.525320">
        <ele>1473.30</ele>
        <time>2017-12-09T07:57:31Z</time>
      </trkpt>
      <trkpt lat="27.960864" lon="-15.525326">
        <ele>1473.50</ele>
        <time>2017-12-09T07:57:33Z</time>
      </trkpt>
      <trkpt lat="27.960846" lon="-15.525338">
        <ele>1474.40</ele>
        <time>2017-12-09T07:57:35Z</time>
      </trkpt>
      <trkpt lat="27.960828" lon="-15.525347">
        <ele>1474.51</ele>
        <time>2017-12-09T07:57:37Z</time>
      </trkpt>
      <trkpt lat="27.960808" lon="-15.525356">
        <ele>1474.50</ele>
        <time>2017-12-09T07:57:39Z</time>
      </trkpt>
      <trkpt lat="27.960786" lon="-15.525369">
        <ele>1474.62</ele>
        <time>2017-12-09T07:57:41Z</time>
      </trkpt>
      <trkpt lat="27.960762" lon="-15.525384">
        <ele>1475.00</ele>
        <time>2017-12-09T07:57:43Z</time>
      </trkpt>
      <trkpt lat="27.960739" lon="-15.525400">
        <ele>1474.88</ele>
        <time>2017-12-09T07:57:45Z</time>
      </trkpt>
      <trkpt lat="27.960722" lon="-15.525421">
        <ele>1474.89</ele>
        <time>2017-12-09T07:57:47Z</time>
      </trkpt>
      <trkpt lat="27.960707" lon="-15.525440">
        <ele>1475.00</ele>
        <time>2017-12-09T07:57:49Z</time>
      </trkpt>
      <trkpt lat="27.960689" lon="-15.525456">
        <ele>1475.06</ele>
        <time>2017-12-09T07:57:51Z</time>
      </trkpt>
      <trkpt lat="27.960669" lon="-15.525472">
        <ele>1475.30</ele>
        <time>2017-12-09T07:57:53Z</time>
      </trkpt>
      <trkpt lat="27.960652" lon="-15.525482">
        <ele>1475.47</ele>
        <time>2017-12-09T07:57:55Z</time>
      </trkpt>
      <trkpt lat="27.960633" lon="-15.525487">
        <ele>1475.50</ele>
        <time>2017-12-09T07:57:57Z</time>
      </trkpt>
      <trkpt lat="27.960614" lon="-15.525490">
        <ele>1476.07</ele>
        <time>2017-12-09T07:57:59Z</time>
      </trkpt>
      <trkpt lat="27.960596" lon="-15.525493">
        <ele>1476.50</ele>
        <time>2017-12-09T07:58:01Z</time>
      </trkpt>
      <trkpt lat="27.960575" lon="-15.525501">
        <ele>1476.80</ele>
        <time>2017-12-09T07:58:03Z</time>
      </trkpt>
      <trkpt lat="27.960553" lon="-15.525510">
        <ele>1476.94</ele>
        <time>2017-12-09T07:58:05Z</time>
      </trkpt>
      <trkpt lat="27.960528" lon="-15.525521">
        <ele>1477.00</ele>
        <time>2017-12-09T07:58:07Z</time>
      </trkpt>
      <trkpt lat="27.960513" lon="-15.525534">
        <ele>1478.17</ele>
        <time>2017-12-09T07:58:09Z</time>
      </trkpt>
      <trkpt lat="27.960504" lon="-15.525558">
        <ele>1478.57</ele>
        <time>2017-12-09T07:58:12Z</time>
      </trkpt>
      <trkpt lat="27.960507" lon="-15.525579">
        <ele>1479.76</ele>
        <time>2017-12-09T07:58:15Z</time>
      </trkpt>
      <trkpt lat="27.960496" lon="-15.525599">
        <ele>1480.95</ele>
        <time>2017-12-09T07:58:18Z</time>
      </trkpt>
      <trkpt lat="27.960473" lon="-15.525609">
        <ele>1481.54</ele>
        <time>2017-12-09T07:58:22Z</time>
      </trkpt>
      <trkpt lat="27.960457" lon="-15.525621">
        <ele>1482.31</ele>
        <time>2017-12-09T07:58:25Z</time>
      </trkpt>
      <trkpt lat="27.960448" lon="-15.525643">
        <ele>1483.50</ele>
        <time>2017-12-09T07:58:28Z</time>
      </trkpt>
      <trkpt lat="27.960433" lon="-15.525659">
        <ele>1484.20</ele>
        <time>2017-12-09T07:58:32Z</time>
      </trkpt>
      <trkpt lat="27.960423" lon="-15.525678">
        <ele>1485.40</ele>
        <time>2017-12-09T07:58:36Z</time>
      </trkpt>
      <trkpt lat="27.960406" lon="-15.525687">
        <ele>1485.81</ele>
        <time>2017-12-09T07:58:39Z</time>
      </trkpt>
      <trkpt lat="27.960389" lon="-15.525698">
        <ele>1486.06</ele>
        <time>2017-12-09T07:58:41Z</time>
      </trkpt>
      <trkpt lat="27.960370" lon="-15.525714">
        <ele>1487.12</ele>
        <time>2017-12-09T07:58:43Z</time>
      </trkpt>
      <trkpt lat="27.960355" lon="-15.525736">
        <ele>1487.36</ele>
        <time>2017-12-09T07:58:45Z</time>
      </trkpt>
      <trkpt lat="27.960346" lon="-15.525760">
        <ele>1487.70</ele>
        <time>2017-12-09T07:58:47Z</time>
      </trkpt>
      <trkpt lat="27.960339" lon="-15.525789">
        <ele>1487.70</ele>
        <time>2017-12-09T07:58:49Z</time>
      </trkpt>
      <trkpt lat="27.960331" lon="-15.525815">
        <ele>1487.98</ele>
        <time>2017-12-09T07:58:51Z</time>
      </trkpt>
      <trkpt lat="27.960322" lon="-15.525841">
        <ele>1488.56</ele>
        <time>2017-12-09T07:58:53Z</time>
      </trkpt>
      <trkpt lat="27.960309" lon="-15.525864">
        <ele>1488.84</ele>
        <time>2017-12-09T07:58:55Z</time>
      </trkpt>
      <trkpt lat="27.960298" lon="-15.525888">
        <ele>1488.90</ele>
        <time>2017-12-09T07:58:57Z</time>
      </trkpt>
      <trkpt lat="27.960287" lon="-15.525911">
        <ele>1489.76</ele>
        <time>2017-12-09T07:58:59Z</time>
      </trkpt>
      <trkpt lat="27.960276" lon="-15.525935">
        <ele>1489.98</ele>
        <time>2017-12-09T07:59:01Z</time>
      </trkpt>
      <trkpt lat="27.960268" lon="-15.525961">
        <ele>1490.08</ele>
        <time>2017-12-09T07:59:03Z</time>
      </trkpt>
      <trkpt lat="27.960260" lon="-15.525993">
        <ele>1490.54</ele>
        <time>2017-12-09T07:59:05Z</time>
      </trkpt>
      <trkpt lat="27.960255" lon="-15.526020">
        <ele>1490.49</ele>
        <time>2017-12-09T07:59:07Z</time>
      </trkpt>
      <trkpt lat="27.960253" lon="-15.526043">
        <ele>1490.89</ele>
        <time>2017-12-09T07:59:09Z</time>
      </trkpt>
      <trkpt lat="27.960252" lon="-15.526067">
        <ele>1490.99</ele>
        <time>2017-12-09T07:59:11Z</time>
      </trkpt>
      <trkpt lat="27.960251" lon="-15.526092">
        <ele>1491.57</ele>
        <time>2017-12-09T07:59:13Z</time>
      </trkpt>
      <trkpt lat="27.960247" lon="-15.526112">
        <ele>1492.19</ele>
        <time>2017-12-09T07:59:18Z</time>
      </trkpt>
      <trkpt lat="27.960251" lon="-15.526145">
        <ele>1492.40</ele>
        <time>2017-12-09T07:59:20Z</time>
      </trkpt>
      <trkpt lat="27.960260" lon="-15.526176">
        <ele>1492.80</ele>
        <time>2017-12-09T07:59:22Z</time>
      </trkpt>
      <trkpt lat="27.960263" lon="-15.526207">
        <ele>1493.39</ele>
        <time>2017-12-09T07:59:24Z</time>
      </trkpt>
      <trkpt lat="27.960268" lon="-15.526234">
        <ele>1493.40</ele>
        <time>2017-12-09T07:59:26Z</time>
      </trkpt>
      <trkpt lat="27.960273" lon="-15.526264">
        <ele>1493.60</ele>
        <time>2017-12-09T07:59:28Z</time>
      </trkpt>
      <trkpt lat="27.960279" lon="-15.526296">
        <ele>1494.00</ele>
        <time>2017-12-09T07:59:30Z</time>
      </trkpt>
      <trkpt lat="27.960284" lon="-15.526324">
        <ele>1494.20</ele>
        <time>2017-12-09T07:59:32Z</time>
      </trkpt>
      <trkpt lat="27.960286" lon="-15.526354">
        <ele>1494.21</ele>
        <time>2017-12-09T07:59:34Z</time>
      </trkpt>
      <trkpt lat="27.960289" lon="-15.526385">
        <ele>1494.70</ele>
        <time>2017-12-09T07:59:36Z</time>
      </trkpt>
      <trkpt lat="27.960292" lon="-15.526411">
        <ele>1494.90</ele>
        <time>2017-12-09T07:59:38Z</time>
      </trkpt>
      <trkpt lat="27.960295" lon="-15.526440">
        <ele>1495.10</ele>
        <time>2017-12-09T07:59:40Z</time>
      </trkpt>
      <trkpt lat="27.960296" lon="-15.526470">
        <ele>1495.60</ele>
        <time>2017-12-09T07:59:42Z</time>
      </trkpt>
      <trkpt lat="27.960294" lon="-15.526496">
        <ele>1495.70</ele>
        <time>2017-12-09T07:59:44Z</time>
      </trkpt>
      <trkpt lat="27.960295" lon="-15.526525">
        <ele>1495.61</ele>
        <time>2017-12-09T07:59:46Z</time>
      </trkpt>
      <trkpt lat="27.960299" lon="-15.526556">
        <ele>1496.01</ele>
        <time>2017-12-09T07:59:48Z</time>
      </trkpt>
      <trkpt lat="27.960301" lon="-15.526582">
        <ele>1496.20</ele>
        <time>2017-12-09T07:59:50Z</time>
      </trkpt>
      <trkpt lat="27.960300" lon="-15.526609">
        <ele>1496.50</ele>
        <time>2017-12-09T07:59:52Z</time>
      </trkpt>
      <trkpt lat="27.960295" lon="-15.526638">
        <ele>1496.81</ele>
        <time>2017-12-09T07:59:54Z</time>
      </trkpt>
      <trkpt lat="27.960291" lon="-15.526665">
        <ele>1497.24</ele>
        <time>2017-12-09T07:59:56Z</time>
      </trkpt>
      <trkpt lat="27.960289" lon="-15.526694">
        <ele>1497.93</ele>
        <time>2017-12-09T07:59:58Z</time>
      </trkpt>
      <trkpt lat="27.960291" lon="-15.526724">
        <ele>1498.31</ele>
        <time>2017-12-09T08:00:00Z</time>
      </trkpt>
      <trkpt lat="27.960295" lon="-15.526753">
        <ele>1498.50</ele>
        <time>2017-12-09T08:00:02Z</time>
      </trkpt>
      <trkpt lat="27.960303" lon="-15.526780">
        <ele>1498.70</ele>
        <time>2017-12-09T08:00:04Z</time>
      </trkpt>
      <trkpt lat="27.960311" lon="-15.526804">
        <ele>1498.70</ele>
        <time>2017-12-09T08:00:06Z</time>
      </trkpt>
      <trkpt lat="27.960319" lon="-15.526830">
        <ele>1498.41</ele>
        <time>2017-12-09T08:00:08Z</time>
      </trkpt>
      <trkpt lat="27.960324" lon="-15.526855">
        <ele>1498.89</ele>
        <time>2017-12-09T08:00:10Z</time>
      </trkpt>
      <trkpt lat="27.960330" lon="-15.526880">
        <ele>1497.93</ele>
        <time>2017-12-09T08:00:12Z</time>
      </trkpt>
      <trkpt lat="27.960336" lon="-15.526905">
        <ele>1498.89</ele>
        <time>2017-12-09T08:00:14Z</time>
      </trkpt>
      <trkpt lat="27.960344" lon="-15.526931">
        <ele>1498.90</ele>
        <time>2017-12-09T08:00:16Z</time>
      </trkpt>
      <trkpt lat="27.960348" lon="-15.526957">
        <ele>1499.00</ele>
        <time>2017-12-09T08:00:18Z</time>
      </trkpt>
      <trkpt lat="27.960353" lon="-15.526984">
        <ele>1499.00</ele>
        <time>2017-12-09T08:00:20Z</time>
      </trkpt>
      <trkpt lat="27.960355" lon="-15.527013">
        <ele>1499.00</ele>
        <time>2017-12-09T08:00:22Z</time>
      </trkpt>
      <trkpt lat="27.960356" lon="-15.527039">
        <ele>1498.80</ele>
        <time>2017-12-09T08:00:24Z</time>
      </trkpt>
      <trkpt lat="27.960359" lon="-15.527067">
        <ele>1498.70</ele>
        <time>2017-12-09T08:00:26Z</time>
      </trkpt>
      <trkpt lat="27.960359" lon="-15.527092">
        <ele>1498.70</ele>
        <time>2017-12-09T08:00:28Z</time>
      </trkpt>
      <trkpt lat="27.960362" lon="-15.527119">
        <ele>1498.70</ele>
        <time>2017-12-09T08:00:30Z</time>
      </trkpt>
      <trkpt lat="27.960366" lon="-15.527142">
        <ele>1498.71</ele>
        <time>2017-12-09T08:00:32Z</time>
      </trkpt>
      <trkpt lat="27.960371" lon="-15.527171">
        <ele>1499.20</ele>
        <time>2017-12-09T08:00:34Z</time>
      </trkpt>
      <trkpt lat="27.960376" lon="-15.527201">
        <ele>1499.20</ele>
        <time>2017-12-09T08:00:36Z</time>
      </trkpt>
      <trkpt lat="27.960380" lon="-15.527227">
        <ele>1499.71</ele>
        <time>2017-12-09T08:00:38Z</time>
      </trkpt>
      <trkpt lat="27.960382" lon="-15.527251">
        <ele>1499.82</ele>
        <time>2017-12-09T08:00:40Z</time>
      </trkpt>
      <trkpt lat="27.960384" lon="-15.527281">
        <ele>1500.30</ele>
        <time>2017-12-09T08:00:42Z</time>
      </trkpt>
      <trkpt lat="27.960385" lon="-15.527309">
        <ele>1500.31</ele>
        <time>2017-12-09T08:00:44Z</time>
      </trkpt>
      <trkpt lat="27.960388" lon="-15.527337">
        <ele>1500.31</ele>
        <time>2017-12-09T08:00:46Z</time>
      </trkpt>
      <trkpt lat="27.960395" lon="-15.527364">
        <ele>1500.62</ele>
        <time>2017-12-09T08:00:48Z</time>
      </trkpt>
      <trkpt lat="27.960402" lon="-15.527391">
        <ele>1500.91</ele>
        <time>2017-12-09T08:00:50Z</time>
      </trkpt>
      <trkpt lat="27.960409" lon="-15.527423">
        <ele>1501.04</ele>
        <time>2017-12-09T08:00:52Z</time>
      </trkpt>
      <trkpt lat="27.960418" lon="-15.527453">
        <ele>1501.70</ele>
        <time>2017-12-09T08:00:54Z</time>
      </trkpt>
      <trkpt lat="27.960428" lon="-15.527477">
        <ele>1501.70</ele>
        <time>2017-12-09T08:00:56Z</time>
      </trkpt>
      <trkpt lat="27.960438" lon="-15.527503">
        <ele>1501.41</ele>
        <time>2017-12-09T08:00:58Z</time>
      </trkpt>
      <trkpt lat="27.960446" lon="-15.527532">
        <ele>1501.49</ele>
        <time>2017-12-09T08:01:00Z</time>
      </trkpt>
      <trkpt lat="27.960456" lon="-15.527559">
        <ele>1501.56</ele>
        <time>2017-12-09T08:01:02Z</time>
      </trkpt>
      <trkpt lat="27.960464" lon="-15.527586">
        <ele>1502.21</ele>
        <time>2017-12-09T08:01:04Z</time>
      </trkpt>
      <trkpt lat="27.960475" lon="-15.527616">
        <ele>1502.20</ele>
        <time>2017-12-09T08:01:06Z</time>
      </trkpt>
      <trkpt lat="27.960487" lon="-15.527645">
        <ele>1502.39</ele>
        <time>2017-12-09T08:01:08Z</time>
      </trkpt>
      <trkpt lat="27.960497" lon="-15.527674">
        <ele>1503.20</ele>
        <time>2017-12-09T08:01:10Z</time>
      </trkpt>
      <trkpt lat="27.960504" lon="-15.527701">
        <ele>1503.25</ele>
        <time>2017-12-09T08:01:12Z</time>
      </trkpt>
      <trkpt lat="27.960513" lon="-15.527727">
        <ele>1503.47</ele>
        <time>2017-12-09T08:01:14Z</time>
      </trkpt>
      <trkpt lat="27.960520" lon="-15.527756">
        <ele>1503.64</ele>
        <time>2017-12-09T08:01:16Z</time>
      </trkpt>
      <trkpt lat="27.960528" lon="-15.527784">
        <ele>1504.30</ele>
        <time>2017-12-09T08:01:18Z</time>
      </trkpt>
      <trkpt lat="27.960532" lon="-15.527815">
        <ele>1504.30</ele>
        <time>2017-12-09T08:01:20Z</time>
      </trkpt>
      <trkpt lat="27.960536" lon="-15.527845">
        <ele>1504.30</ele>
        <time>2017-12-09T08:01:22Z</time>
      </trkpt>
      <trkpt lat="27.960539" lon="-15.527872">
        <ele>1504.34</ele>
        <time>2017-12-09T08:01:24Z</time>
      </trkpt>
      <trkpt lat="27.960543" lon="-15.527901">
        <ele>1504.04</ele>
        <time>2017-12-09T08:01:26Z</time>
      </trkpt>
      <trkpt lat="27.960546" lon="-15.527932">
        <ele>1503.70</ele>
        <time>2017-12-09T08:01:28Z</time>
      </trkpt>
      <trkpt lat="27.960550" lon="-15.527961">
        <ele>1503.80</ele>
        <time>2017-12-09T08:01:30Z</time>
      </trkpt>
      <trkpt lat="27.960555" lon="-15.527991">
        <ele>1504.27</ele>
        <time>2017-12-09T08:01:32Z</time>
      </trkpt>
      <trkpt lat="27.960557" lon="-15.528018">
        <ele>1504.57</ele>
        <time>2017-12-09T08:01:34Z</time>
      </trkpt>
      <trkpt lat="27.960566" lon="-15.528045">
        <ele>1505.00</ele>
        <time>2017-12-09T08:01:36Z</time>
      </trkpt>
      <trkpt lat="27.960571" lon="-15.528072">
        <ele>1505.12</ele>
        <time>2017-12-09T08:01:38Z</time>
      </trkpt>
      <trkpt lat="27.960575" lon="-15.528103">
        <ele>1505.20</ele>
        <time>2017-12-09T08:01:40Z</time>
      </trkpt>
      <trkpt lat="27.960577" lon="-15.528130">
        <ele>1505.34</ele>
        <time>2017-12-09T08:01:42Z</time>
      </trkpt>
      <trkpt lat="27.960578" lon="-15.528157">
        <ele>1505.73</ele>
        <time>2017-12-09T08:01:44Z</time>
      </trkpt>
      <trkpt lat="27.960578" lon="-15.528186">
        <ele>1505.86</ele>
        <time>2017-12-09T08:01:46Z</time>
      </trkpt>
      <trkpt lat="27.960580" lon="-15.528217">
        <ele>1506.20</ele>
        <time>2017-12-09T08:01:48Z</time>
      </trkpt>
      <trkpt lat="27.960579" lon="-15.528249">
        <ele>1506.43</ele>
        <time>2017-12-09T08:01:50Z</time>
      </trkpt>
      <trkpt lat="27.960577" lon="-15.528280">
        <ele>1506.70</ele>
        <time>2017-12-09T08:01:52Z</time>
      </trkpt>
      <trkpt lat="27.960580" lon="-15.528310">
        <ele>1506.73</ele>
        <time>2017-12-09T08:01:54Z</time>
      </trkpt>
      <trkpt lat="27.960580" lon="-15.528339">
        <ele>1507.00</ele>
        <time>2017-12-09T08:01:56Z</time>
      </trkpt>
      <trkpt lat="27.960582" lon="-15.528369">
        <ele>1507.03</ele>
        <time>2017-12-09T08:01:58Z</time>
      </trkpt>
      <trkpt lat="27.960584" lon="-15.528402">
        <ele>1507.13</ele>
        <time>2017-12-09T08:02:00Z</time>
      </trkpt>
      <trkpt lat="27.960588" lon="-15.528434">
        <ele>1507.30</ele>
        <time>2017-12-09T08:02:02Z</time>
      </trkpt>
      <trkpt lat="27.960595" lon="-15.528463">
        <ele>1507.57</ele>
        <time>2017-12-09T08:02:04Z</time>
      </trkpt>
      <trkpt lat="27.960597" lon="-15.528491">
        <ele>1507.70</ele>
        <time>2017-12-09T08:02:06Z</time>
      </trkpt>
      <trkpt lat="27.960599" lon="-15.528518">
        <ele>1507.90</ele>
        <time>2017-12-09T08:02:08Z</time>
      </trkpt>
      <trkpt lat="27.960605" lon="-15.528544">
        <ele>1508.11</ele>
        <time>2017-12-09T08:02:10Z</time>
      </trkpt>
      <trkpt lat="27.960617" lon="-15.528569">
        <ele>1508.70</ele>
        <time>2017-12-09T08:02:12Z</time>
      </trkpt>
      <trkpt lat="27.960633" lon="-15.528591">
        <ele>1509.11</ele>
        <time>2017-12-09T08:02:14Z</time>
      </trkpt>
      <trkpt lat="27.960651" lon="-15.528614">
        <ele>1509.44</ele>
        <time>2017-12-09T08:02:16Z</time>
      </trkpt>
      <trkpt lat="27.960667" lon="-15.528640">
        <ele>1509.67</ele>
        <time>2017-12-09T08:02:18Z</time>
      </trkpt>
      <trkpt lat="27.960681" lon="-15.528666">
        <ele>1509.76</ele>
        <time>2017-12-09T08:02:20Z</time>
      </trkpt>
      <trkpt lat="27.960690" lon="-15.528693">
        <ele>1509.84</ele>
        <time>2017-12-09T08:02:22Z</time>
      </trkpt>
      <trkpt lat="27.960699" lon="-15.528720">
        <ele>1509.86</ele>
        <time>2017-12-09T08:02:24Z</time>
      </trkpt>
      <trkpt lat="27.960707" lon="-15.528747">
        <ele>1509.69</ele>
        <time>2017-12-09T08:02:26Z</time>
      </trkpt>
      <trkpt lat="27.960713" lon="-15.528776">
        <ele>1509.96</ele>
        <time>2017-12-09T08:02:28Z</time>
      </trkpt>
      <trkpt lat="27.960719" lon="-15.528804">
        <ele>1510.33</ele>
        <time>2017-12-09T08:02:30Z</time>
      </trkpt>
      <trkpt lat="27.960729" lon="-15.528835">
        <ele>1510.00</ele>
        <time>2017-12-09T08:02:32Z</time>
      </trkpt>
      <trkpt lat="27.960739" lon="-15.528864">
        <ele>1510.30</ele>
        <time>2017-12-09T08:02:34Z</time>
      </trkpt>
      <trkpt lat="27.960749" lon="-15.528891">
        <ele>1510.30</ele>
        <time>2017-12-09T08:02:36Z</time>
      </trkpt>
      <trkpt lat="27.960756" lon="-15.528916">
        <ele>1510.34</ele>
        <time>2017-12-09T08:02:38Z</time>
      </trkpt>
      <trkpt lat="27.960763" lon="-15.528945">
        <ele>1510.48</ele>
        <time>2017-12-09T08:02:40Z</time>
      </trkpt>
      <trkpt lat="27.960775" lon="-15.528974">
        <ele>1510.78</ele>
        <time>2017-12-09T08:02:42Z</time>
      </trkpt>
      <trkpt lat="27.960783" lon="-15.529002">
        <ele>1511.18</ele>
        <time>2017-12-09T08:02:44Z</time>
      </trkpt>
      <trkpt lat="27.960788" lon="-15.529030">
        <ele>1511.34</ele>
        <time>2017-12-09T08:02:46Z</time>
      </trkpt>
      <trkpt lat="27.960796" lon="-15.529058">
        <ele>1511.53</ele>
        <time>2017-12-09T08:02:48Z</time>
      </trkpt>
      <trkpt lat="27.960808" lon="-15.529086">
        <ele>1511.90</ele>
        <time>2017-12-09T08:02:50Z</time>
      </trkpt>
      <trkpt lat="27.960817" lon="-15.529113">
        <ele>1512.03</ele>
        <time>2017-12-09T08:02:52Z</time>
      </trkpt>
      <trkpt lat="27.960828" lon="-15.529141">
        <ele>1512.13</ele>
        <time>2017-12-09T08:02:54Z</time>
      </trkpt>
      <trkpt lat="27.960839" lon="-15.529168">
        <ele>1511.80</ele>
        <time>2017-12-09T08:02:56Z</time>
      </trkpt>
      <trkpt lat="27.960850" lon="-15.529194">
        <ele>1512.39</ele>
        <time>2017-12-09T08:02:58Z</time>
      </trkpt>
      <trkpt lat="27.960860" lon="-15.529219">
        <ele>1512.59</ele>
        <time>2017-12-09T08:03:00Z</time>
      </trkpt>
      <trkpt lat="27.960870" lon="-15.529247">
        <ele>1512.75</ele>
        <time>2017-12-09T08:03:02Z</time>
      </trkpt>
      <trkpt lat="27.960880" lon="-15.529275">
        <ele>1512.90</ele>
        <time>2017-12-09T08:03:04Z</time>
      </trkpt>
      <trkpt lat="27.960890" lon="-15.529304">
        <ele>1513.00</ele>
        <time>2017-12-09T08:03:06Z</time>
      </trkpt>
      <trkpt lat="27.960901" lon="-15.529332">
        <ele>1513.00</ele>
        <time>2017-12-09T08:03:08Z</time>
      </trkpt>
      <trkpt lat="27.960912" lon="-15.529360">
        <ele>1512.85</ele>
        <time>2017-12-09T08:03:10Z</time>
      </trkpt>
      <trkpt lat="27.960923" lon="-15.529389">
        <ele>1512.85</ele>
        <time>2017-12-09T08:03:12Z</time>
      </trkpt>
      <trkpt lat="27.960936" lon="-15.529417">
        <ele>1512.80</ele>
        <time>2017-12-09T08:03:14Z</time>
      </trkpt>
      <trkpt lat="27.960946" lon="-15.529445">
        <ele>1512.60</ele>
        <time>2017-12-09T08:03:16Z</time>
      </trkpt>
      <trkpt lat="27.960955" lon="-15.529475">
        <ele>1512.00</ele>
        <time>2017-12-09T08:03:18Z</time>
      </trkpt>
      <trkpt lat="27.960963" lon="-15.529505">
        <ele>1512.00</ele>
        <time>2017-12-09T08:03:20Z</time>
      </trkpt>
      <trkpt lat="27.960971" lon="-15.529534">
        <ele>1512.00</ele>
        <time>2017-12-09T08:03:22Z</time>
      </trkpt>
      <trkpt lat="27.960984" lon="-15.529562">
        <ele>1512.20</ele>
        <time>2017-12-09T08:03:24Z</time>
      </trkpt>
      <trkpt lat="27.960999" lon="-15.529588">
        <ele>1512.20</ele>
        <time>2017-12-09T08:03:26Z</time>
      </trkpt>
      <trkpt lat="27.961012" lon="-15.529615">
        <ele>1512.20</ele>
        <time>2017-12-09T08:03:28Z</time>
      </trkpt>
      <trkpt lat="27.961025" lon="-15.529644">
        <ele>1512.15</ele>
        <time>2017-12-09T08:03:30Z</time>
      </trkpt>
      <trkpt lat="27.961039" lon="-15.529669">
        <ele>1512.15</ele>
        <time>2017-12-09T08:03:32Z</time>
      </trkpt>
      <trkpt lat="27.961054" lon="-15.529695">
        <ele>1512.31</ele>
        <time>2017-12-09T08:03:34Z</time>
      </trkpt>
      <trkpt lat="27.961065" lon="-15.529720">
        <ele>1512.29</ele>
        <time>2017-12-09T08:03:36Z</time>
      </trkpt>
      <trkpt lat="27.961080" lon="-15.529742">
        <ele>1512.25</ele>
        <time>2017-12-09T08:03:38Z</time>
      </trkpt>
      <trkpt lat="27.961102" lon="-15.529765">
        <ele>1512.20</ele>
        <time>2017-12-09T08:03:40Z</time>
      </trkpt>
      <trkpt lat="27.961121" lon="-15.529788">
        <ele>1512.10</ele>
        <time>2017-12-09T08:03:42Z</time>
      </trkpt>
      <trkpt lat="27.961140" lon="-15.529810">
        <ele>1512.10</ele>
        <time>2017-12-09T08:03:44Z</time>
      </trkpt>
      <trkpt lat="27.961160" lon="-15.529829">
        <ele>1512.10</ele>
        <time>2017-12-09T08:03:46Z</time>
      </trkpt>
      <trkpt lat="27.961181" lon="-15.529850">
        <ele>1512.10</ele>
        <time>2017-12-09T08:03:48Z</time>
      </trkpt>
      <trkpt lat="27.961205" lon="-15.529862">
        <ele>1512.10</ele>
        <time>2017-12-09T08:03:50Z</time>
      </trkpt>
      <trkpt lat="27.961218" lon="-15.529880">
        <ele>1512.37</ele>
        <time>2017-12-09T08:03:52Z</time>
      </trkpt>
      <trkpt lat="27.961234" lon="-15.529901">
        <ele>1512.50</ele>
        <time>2017-12-09T08:03:54Z</time>
      </trkpt>
      <trkpt lat="27.961249" lon="-15.529927">
        <ele>1512.70</ele>
        <time>2017-12-09T08:03:56Z</time>
      </trkpt>
      <trkpt lat="27.961266" lon="-15.529948">
        <ele>1513.10</ele>
        <time>2017-12-09T08:03:58Z</time>
      </trkpt>
      <trkpt lat="27.961285" lon="-15.529972">
        <ele>1513.04</ele>
        <time>2017-12-09T08:04:00Z</time>
      </trkpt>
      <trkpt lat="27.961301" lon="-15.529993">
        <ele>1512.25</ele>
        <time>2017-12-09T08:04:02Z</time>
      </trkpt>
      <trkpt lat="27.961316" lon="-15.530021">
        <ele>1512.00</ele>
        <time>2017-12-09T08:04:04Z</time>
      </trkpt>
      <trkpt lat="27.961329" lon="-15.530049">
        <ele>1512.00</ele>
        <time>2017-12-09T08:04:06Z</time>
      </trkpt>
      <trkpt lat="27.961343" lon="-15.530075">
        <ele>1511.77</ele>
        <time>2017-12-09T08:04:08Z</time>
      </trkpt>
      <trkpt lat="27.961358" lon="-15.530100">
        <ele>1511.51</ele>
        <time>2017-12-09T08:04:10Z</time>
      </trkpt>
      <trkpt lat="27.961369" lon="-15.530125">
        <ele>1511.40</ele>
        <time>2017-12-09T08:04:12Z</time>
      </trkpt>
      <trkpt lat="27.961379" lon="-15.530155">
        <ele>1511.50</ele>
        <time>2017-12-09T08:04:14Z</time>
      </trkpt>
      <trkpt lat="27.961392" lon="-15.530185">
        <ele>1511.50</ele>
        <time>2017-12-09T08:04:16Z</time>
      </trkpt>
      <trkpt lat="27.961401" lon="-15.530210">
        <ele>1511.60</ele>
        <time>2017-12-09T08:04:18Z</time>
      </trkpt>
      <trkpt lat="27.961410" lon="-15.530245">
        <ele>1511.80</ele>
        <time>2017-12-09T08:04:20Z</time>
      </trkpt>
      <trkpt lat="27.961420" lon="-15.530275">
        <ele>1512.00</ele>
        <time>2017-12-09T08:04:22Z</time>
      </trkpt>
      <trkpt lat="27.961428" lon="-15.530304">
        <ele>1512.20</ele>
        <time>2017-12-09T08:04:24Z</time>
      </trkpt>
      <trkpt lat="27.961438" lon="-15.530329">
        <ele>1512.47</ele>
        <time>2017-12-09T08:04:26Z</time>
      </trkpt>
      <trkpt lat="27.961444" lon="-15.530355">
        <ele>1512.63</ele>
        <time>2017-12-09T08:04:32Z</time>
      </trkpt>
      <trkpt lat="27.961451" lon="-15.530381">
        <ele>1512.60</ele>
        <time>2017-12-09T08:04:34Z</time>
      </trkpt>
      <trkpt lat="27.961459" lon="-15.530406">
        <ele>1512.60</ele>
        <time>2017-12-09T08:04:36Z</time>
      </trkpt>
      <trkpt lat="27.961468" lon="-15.530436">
        <ele>1512.74</ele>
        <time>2017-12-09T08:04:38Z</time>
      </trkpt>
      <trkpt lat="27.961476" lon="-15.530462">
        <ele>1512.80</ele>
        <time>2017-12-09T08:04:40Z</time>
      </trkpt>
      <trkpt lat="27.961482" lon="-15.530488">
        <ele>1513.00</ele>
        <time>2017-12-09T08:04:42Z</time>
      </trkpt>
      <trkpt lat="27.961488" lon="-15.530516">
        <ele>1512.87</ele>
        <time>2017-12-09T08:04:44Z</time>
      </trkpt>
      <trkpt lat="27.961497" lon="-15.530540">
        <ele>1512.90</ele>
        <time>2017-12-09T08:04:46Z</time>
      </trkpt>
      <trkpt lat="27.961505" lon="-15.530568">
        <ele>1512.77</ele>
        <time>2017-12-09T08:04:48Z</time>
      </trkpt>
      <trkpt lat="27.961515" lon="-15.530596">
        <ele>1513.02</ele>
        <time>2017-12-09T08:04:50Z</time>
      </trkpt>
      <trkpt lat="27.961525" lon="-15.530624">
        <ele>1512.92</ele>
        <time>2017-12-09T08:04:52Z</time>
      </trkpt>
      <trkpt lat="27.961537" lon="-15.530652">
        <ele>1512.90</ele>
        <time>2017-12-09T08:04:54Z</time>
      </trkpt>
      <trkpt lat="27.961548" lon="-15.530681">
        <ele>1512.98</ele>
        <time>2017-12-09T08:04:56Z</time>
      </trkpt>
      <trkpt lat="27.961554" lon="-15.530712">
        <ele>1513.00</ele>
        <time>2017-12-09T08:04:58Z</time>
      </trkpt>
      <trkpt lat="27.961562" lon="-15.530742">
        <ele>1513.00</ele>
        <time>2017-12-09T08:05:00Z</time>
      </trkpt>
      <trkpt lat="27.961569" lon="-15.530772">
        <ele>1512.90</ele>
        <time>2017-12-09T08:05:02Z</time>
      </trkpt>
      <trkpt lat="27.961578" lon="-15.530801">
        <ele>1512.68</ele>
        <time>2017-12-09T08:05:04Z</time>
      </trkpt>
      <trkpt lat="27.961586" lon="-15.530830">
        <ele>1512.70</ele>
        <time>2017-12-09T08:05:06Z</time>
      </trkpt>
      <trkpt lat="27.961596" lon="-15.530857">
        <ele>1513.20</ele>
        <time>2017-12-09T08:05:08Z</time>
      </trkpt>
      <trkpt lat="27.961605" lon="-15.530884">
        <ele>1513.20</ele>
        <time>2017-12-09T08:05:10Z</time>
      </trkpt>
      <trkpt lat="27.961612" lon="-15.530912">
        <ele>1513.38</ele>
        <time>2017-12-09T08:05:12Z</time>
      </trkpt>
      <trkpt lat="27.961617" lon="-15.530941">
        <ele>1513.78</ele>
        <time>2017-12-09T08:05:14Z</time>
      </trkpt>
      <trkpt lat="27.961627" lon="-15.530971">
        <ele>1514.07</ele>
        <time>2017-12-09T08:05:16Z</time>
      </trkpt>
      <trkpt lat="27.961634" lon="-15.531002">
        <ele>1514.35</ele>
        <time>2017-12-09T08:05:18Z</time>
      </trkpt>
      <trkpt lat="27.961638" lon="-15.531034">
        <ele>1514.38</ele>
        <time>2017-12-09T08:05:20Z</time>
      </trkpt>
      <trkpt lat="27.961645" lon="-15.531065">
        <ele>1514.47</ele>
        <time>2017-12-09T08:05:22Z</time>
      </trkpt>
      <trkpt lat="27.961649" lon="-15.531095">
        <ele>1514.76</ele>
        <time>2017-12-09T08:05:24Z</time>
      </trkpt>
      <trkpt lat="27.961644" lon="-15.531125">
        <ele>1514.80</ele>
        <time>2017-12-09T08:05:26Z</time>
      </trkpt>
      <trkpt lat="27.961638" lon="-15.531158">
        <ele>1514.90</ele>
        <time>2017-12-09T08:05:28Z</time>
      </trkpt>
      <trkpt lat="27.961640" lon="-15.531192">
        <ele>1514.99</ele>
        <time>2017-12-09T08:05:30Z</time>
      </trkpt>
      <trkpt lat="27.961641" lon="-15.531219">
        <ele>1515.29</ele>
        <time>2017-12-09T08:05:32Z</time>
      </trkpt>
      <trkpt lat="27.961642" lon="-15.531250">
        <ele>1515.79</ele>
        <time>2017-12-09T08:05:34Z</time>
      </trkpt>
      <trkpt lat="27.961642" lon="-15.531278">
        <ele>1516.07</ele>
        <time>2017-12-09T08:05:36Z</time>
      </trkpt>
      <trkpt lat="27.961642" lon="-15.531309">
        <ele>1516.56</ele>
        <time>2017-12-09T08:05:38Z</time>
      </trkpt>
      <trkpt lat="27.961642" lon="-15.531337">
        <ele>1516.74</ele>
        <time>2017-12-09T08:05:40Z</time>
      </trkpt>
      <trkpt lat="27.961649" lon="-15.531364">
        <ele>1517.20</ele>
        <time>2017-12-09T08:05:42Z</time>
      </trkpt>
      <trkpt lat="27.961659" lon="-15.531388">
        <ele>1517.47</ele>
        <time>2017-12-09T08:05:44Z</time>
      </trkpt>
      <trkpt lat="27.961669" lon="-15.531407">
        <ele>1517.20</ele>
        <time>2017-12-09T08:05:46Z</time>
      </trkpt>
      <trkpt lat="27.961677" lon="-15.531431">
        <ele>1517.99</ele>
        <time>2017-12-09T08:05:49Z</time>
      </trkpt>
      <trkpt lat="27.961689" lon="-15.531453">
        <ele>1518.48</ele>
        <time>2017-12-09T08:05:53Z</time>
      </trkpt>
      <trkpt lat="27.961676" lon="-15.531471">
        <ele>1519.30</ele>
        <time>2017-12-09T08:06:51Z</time>
      </trkpt>
      <trkpt lat="27.961660" lon="-15.531500">
        <ele>1519.34</ele>
        <time>2017-12-09T08:06:54Z</time>
      </trkpt>
      <trkpt lat="27.961662" lon="-15.531526">
        <ele>1519.91</ele>
        <time>2017-12-09T08:06:56Z</time>
      </trkpt>
      <trkpt lat="27.961661" lon="-15.531555">
        <ele>1520.04</ele>
        <time>2017-12-09T08:06:58Z</time>
      </trkpt>
      <trkpt lat="27.961657" lon="-15.531580">
        <ele>1520.45</ele>
        <time>2017-12-09T08:07:01Z</time>
      </trkpt>
      <trkpt lat="27.961650" lon="-15.531609">
        <ele>1520.90</ele>
        <time>2017-12-09T08:07:04Z</time>
      </trkpt>
      <trkpt lat="27.961641" lon="-15.531632">
        <ele>1521.07</ele>
        <time>2017-12-09T08:07:07Z</time>
      </trkpt>
      <trkpt lat="27.961633" lon="-15.531658">
        <ele>1520.80</ele>
        <time>2017-12-09T08:07:10Z</time>
      </trkpt>
      <trkpt lat="27.961619" lon="-15.531676">
        <ele>1520.80</ele>
        <time>2017-12-09T08:07:12Z</time>
      </trkpt>
      <trkpt lat="27.961606" lon="-15.531697">
        <ele>1520.80</ele>
        <time>2017-12-09T08:07:14Z</time>
      </trkpt>
      <trkpt lat="27.961595" lon="-15.531723">
        <ele>1520.80</ele>
        <time>2017-12-09T08:07:16Z</time>
      </trkpt>
      <trkpt lat="27.961581" lon="-15.531747">
        <ele>1520.82</ele>
        <time>2017-12-09T08:07:18Z</time>
      </trkpt>
      <trkpt lat="27.961559" lon="-15.531787">
        <ele>1521.08</ele>
        <time>2017-12-09T08:07:22Z</time>
      </trkpt>
      <trkpt lat="27.961546" lon="-15.531814">
        <ele>1521.54</ele>
        <time>2017-12-09T08:07:24Z</time>
      </trkpt>
      <trkpt lat="27.961535" lon="-15.531831">
        <ele>1522.11</ele>
        <time>2017-12-09T08:07:26Z</time>
      </trkpt>
      <trkpt lat="27.961519" lon="-15.531841">
        <ele>1522.52</ele>
        <time>2017-12-09T08:07:28Z</time>
      </trkpt>
      <trkpt lat="27.961500" lon="-15.531861">
        <ele>1522.87</ele>
        <time>2017-12-09T08:07:31Z</time>
      </trkpt>
      <trkpt lat="27.961495" lon="-15.531905">
        <ele>1523.17</ele>
        <time>2017-12-09T08:07:34Z</time>
      </trkpt>
      <trkpt lat="27.961497" lon="-15.531934">
        <ele>1523.47</ele>
        <time>2017-12-09T08:07:36Z</time>
      </trkpt>
      <trkpt lat="27.961503" lon="-15.531964">
        <ele>1523.82</ele>
        <time>2017-12-09T08:07:38Z</time>
      </trkpt>
      <trkpt lat="27.961513" lon="-15.531990">
        <ele>1524.05</ele>
        <time>2017-12-09T08:07:40Z</time>
      </trkpt>
      <trkpt lat="27.961520" lon="-15.532019">
        <ele>1524.40</ele>
        <time>2017-12-09T08:07:42Z</time>
      </trkpt>
      <trkpt lat="27.961570" lon="-15.532114">
        <ele>1525.53</ele>
        <time>2017-12-09T08:07:49Z</time>
      </trkpt>
      <trkpt lat="27.961586" lon="-15.532220">
        <ele>1526.93</ele>
        <time>2017-12-09T08:07:58Z</time>
      </trkpt>
      <trkpt lat="27.961569" lon="-15.532335">
        <ele>1527.70</ele>
        <time>2017-12-09T08:08:05Z</time>
      </trkpt>
      <trkpt lat="27.961550" lon="-15.532441">
        <ele>1528.30</ele>
        <time>2017-12-09T08:08:13Z</time>
      </trkpt>
      <trkpt lat="27.961516" lon="-15.532542">
        <ele>1528.80</ele>
        <time>2017-12-09T08:08:19Z</time>
      </trkpt>
      <trkpt lat="27.961480" lon="-15.532640">
        <ele>1528.80</ele>
        <time>2017-12-09T08:08:25Z</time>
      </trkpt>
      <trkpt lat="27.961476" lon="-15.532698">
        <ele>1528.90</ele>
        <time>2017-12-09T08:08:30Z</time>
      </trkpt>
      <trkpt lat="27.961469" lon="-15.532729">
        <ele>1529.24</ele>
        <time>2017-12-09T08:08:32Z</time>
      </trkpt>
      <trkpt lat="27.961421" lon="-15.532821">
        <ele>1529.25</ele>
        <time>2017-12-09T08:08:40Z</time>
      </trkpt>
      <trkpt lat="27.961347" lon="-15.532884">
        <ele>1529.20</ele>
        <time>2017-12-09T08:08:47Z</time>
      </trkpt>
      <trkpt lat="27.961271" lon="-15.532955">
        <ele>1528.90</ele>
        <time>2017-12-09T08:08:54Z</time>
      </trkpt>
      <trkpt lat="27.961214" lon="-15.533042">
        <ele>1528.90</ele>
        <time>2017-12-09T08:09:00Z</time>
      </trkpt>
      <trkpt lat="27.961159" lon="-15.533123">
        <ele>1529.00</ele>
        <time>2017-12-09T08:09:08Z</time>
      </trkpt>
      <trkpt lat="27.961129" lon="-15.533230">
        <ele>1528.92</ele>
        <time>2017-12-09T08:09:16Z</time>
      </trkpt>
      <trkpt lat="27.961123" lon="-15.533338">
        <ele>1528.90</ele>
        <time>2017-12-09T08:09:22Z</time>
      </trkpt>
      <trkpt lat="27.961095" lon="-15.533453">
        <ele>1529.23</ele>
        <time>2017-12-09T08:09:29Z</time>
      </trkpt>
      <trkpt lat="27.961040" lon="-15.533537">
        <ele>1529.30</ele>
        <time>2017-12-09T08:09:34Z</time>
      </trkpt>
      <trkpt lat="27.960982" lon="-15.533621">
        <ele>1529.34</ele>
        <time>2017-12-09T08:09:41Z</time>
      </trkpt>
      <trkpt lat="27.960972" lon="-15.533657">
        <ele>1529.50</ele>
        <time>2017-12-09T08:09:43Z</time>
      </trkpt>
      <trkpt lat="27.960971" lon="-15.533692">
        <ele>1530.12</ele>
        <time>2017-12-09T08:09:45Z</time>
      </trkpt>
      <trkpt lat="27.960966" lon="-15.533715">
        <ele>1530.30</ele>
        <time>2017-12-09T08:09:47Z</time>
      </trkpt>
      <trkpt lat="27.960956" lon="-15.533736">
        <ele>1530.50</ele>
        <time>2017-12-09T08:09:49Z</time>
      </trkpt>
      <trkpt lat="27.960958" lon="-15.533769">
        <ele>1531.00</ele>
        <time>2017-12-09T08:09:51Z</time>
      </trkpt>
      <trkpt lat="27.960951" lon="-15.533790">
        <ele>1531.40</ele>
        <time>2017-12-09T08:09:53Z</time>
      </trkpt>
      <trkpt lat="27.960946" lon="-15.533815">
        <ele>1531.58</ele>
        <time>2017-12-09T08:09:55Z</time>
      </trkpt>
      <trkpt lat="27.960938" lon="-15.533847">
        <ele>1531.60</ele>
        <time>2017-12-09T08:09:57Z</time>
      </trkpt>
      <trkpt lat="27.960930" lon="-15.533876">
        <ele>1531.60</ele>
        <time>2017-12-09T08:09:59Z</time>
      </trkpt>
      <trkpt lat="27.960922" lon="-15.533906">
        <ele>1531.60</ele>
        <time>2017-12-09T08:10:01Z</time>
      </trkpt>
      <trkpt lat="27.960919" lon="-15.533938">
        <ele>1531.76</ele>
        <time>2017-12-09T08:10:04Z</time>
      </trkpt>
      <trkpt lat="27.960912" lon="-15.533970">
        <ele>1532.10</ele>
        <time>2017-12-09T08:10:06Z</time>
      </trkpt>
      <trkpt lat="27.960905" lon="-15.534005">
        <ele>1532.30</ele>
        <time>2017-12-09T08:10:08Z</time>
      </trkpt>
      <trkpt lat="27.960897" lon="-15.534043">
        <ele>1532.74</ele>
        <time>2017-12-09T08:10:10Z</time>
      </trkpt>
      <trkpt lat="27.960894" lon="-15.534073">
        <ele>1533.10</ele>
        <time>2017-12-09T08:10:12Z</time>
      </trkpt>
      <trkpt lat="27.960896" lon="-15.534109">
        <ele>1533.52</ele>
        <time>2017-12-09T08:10:14Z</time>
      </trkpt>
      <trkpt lat="27.960901" lon="-15.534144">
        <ele>1533.60</ele>
        <time>2017-12-09T08:10:16Z</time>
      </trkpt>
      <trkpt lat="27.960908" lon="-15.534174">
        <ele>1533.36</ele>
        <time>2017-12-09T08:10:18Z</time>
      </trkpt>
      <trkpt lat="27.960915" lon="-15.534208">
        <ele>1533.28</ele>
        <time>2017-12-09T08:10:20Z</time>
      </trkpt>
      <trkpt lat="27.960926" lon="-15.534237">
        <ele>1533.30</ele>
        <time>2017-12-09T08:10:22Z</time>
      </trkpt>
      <trkpt lat="27.960939" lon="-15.534261">
        <ele>1533.47</ele>
        <time>2017-12-09T08:10:24Z</time>
      </trkpt>
      <trkpt lat="27.960956" lon="-15.534294">
        <ele>1533.50</ele>
        <time>2017-12-09T08:10:26Z</time>
      </trkpt>
      <trkpt lat="27.960976" lon="-15.534342">
        <ele>1532.80</ele>
        <time>2017-12-09T08:10:30Z</time>
      </trkpt>
      <trkpt lat="27.960986" lon="-15.534368">
        <ele>1532.80</ele>
        <time>2017-12-09T08:10:32Z</time>
      </trkpt>
      <trkpt lat="27.960999" lon="-15.534399">
        <ele>1532.80</ele>
        <time>2017-12-09T08:10:34Z</time>
      </trkpt>
      <trkpt lat="27.961008" lon="-15.534419">
        <ele>1532.89</ele>
        <time>2017-12-09T08:10:35Z</time>
      </trkpt>
      <trkpt lat="27.961015" lon="-15.534439">
        <ele>1533.35</ele>
        <time>2017-12-09T08:10:36Z</time>
      </trkpt>
      <trkpt lat="27.961028" lon="-15.534472">
        <ele>1533.41</ele>
        <time>2017-12-09T08:10:38Z</time>
      </trkpt>
      <trkpt lat="27.961036" lon="-15.534503">
        <ele>1533.40</ele>
        <time>2017-12-09T08:10:40Z</time>
      </trkpt>
      <trkpt lat="27.961048" lon="-15.534537">
        <ele>1533.40</ele>
        <time>2017-12-09T08:10:42Z</time>
      </trkpt>
      <trkpt lat="27.961059" lon="-15.534568">
        <ele>1533.00</ele>
        <time>2017-12-09T08:10:44Z</time>
      </trkpt>
      <trkpt lat="27.961063" lon="-15.534596">
        <ele>1533.00</ele>
        <time>2017-12-09T08:10:46Z</time>
      </trkpt>
      <trkpt lat="27.961071" lon="-15.534616">
        <ele>1532.90</ele>
        <time>2017-12-09T08:10:48Z</time>
      </trkpt>
      <trkpt lat="27.961073" lon="-15.534637">
        <ele>1533.00</ele>
        <time>2017-12-09T08:10:49Z</time>
      </trkpt>
      <trkpt lat="27.961075" lon="-15.534674">
        <ele>1533.00</ele>
        <time>2017-12-09T08:10:51Z</time>
      </trkpt>
      <trkpt lat="27.961075" lon="-15.534696">
        <ele>1533.00</ele>
        <time>2017-12-09T08:10:52Z</time>
      </trkpt>
      <trkpt lat="27.961076" lon="-15.534733">
        <ele>1533.00</ele>
        <time>2017-12-09T08:10:54Z</time>
      </trkpt>
      <trkpt lat="27.961084" lon="-15.534760">
        <ele>1533.19</ele>
        <time>2017-12-09T08:10:56Z</time>
      </trkpt>
      <trkpt lat="27.961091" lon="-15.534785">
        <ele>1533.20</ele>
        <time>2017-12-09T08:10:58Z</time>
      </trkpt>
      <trkpt lat="27.961091" lon="-15.534816">
        <ele>1533.21</ele>
        <time>2017-12-09T08:11:00Z</time>
      </trkpt>
      <trkpt lat="27.961081" lon="-15.534834">
        <ele>1533.81</ele>
        <time>2017-12-09T08:11:02Z</time>
      </trkpt>
      <trkpt lat="27.961068" lon="-15.534856">
        <ele>1534.01</ele>
        <time>2017-12-09T08:11:04Z</time>
      </trkpt>
      <trkpt lat="27.961054" lon="-15.534874">
        <ele>1534.50</ele>
        <time>2017-12-09T08:11:06Z</time>
      </trkpt>
      <trkpt lat="27.961034" lon="-15.534891">
        <ele>1534.72</ele>
        <time>2017-12-09T08:11:08Z</time>
      </trkpt>
      <trkpt lat="27.961015" lon="-15.534913">
        <ele>1534.91</ele>
        <time>2017-12-09T08:11:10Z</time>
      </trkpt>
      <trkpt lat="27.960995" lon="-15.534928">
        <ele>1535.15</ele>
        <time>2017-12-09T08:11:12Z</time>
      </trkpt>
      <trkpt lat="27.960981" lon="-15.534945">
        <ele>1536.00</ele>
        <time>2017-12-09T08:11:14Z</time>
      </trkpt>
      <trkpt lat="27.960969" lon="-15.534963">
        <ele>1535.95</ele>
        <time>2017-12-09T08:11:16Z</time>
      </trkpt>
      <trkpt lat="27.960962" lon="-15.534985">
        <ele>1535.29</ele>
        <time>2017-12-09T08:11:18Z</time>
      </trkpt>
      <trkpt lat="27.960957" lon="-15.535010">
        <ele>1535.20</ele>
        <time>2017-12-09T08:11:20Z</time>
      </trkpt>
      <trkpt lat="27.960952" lon="-15.535032">
        <ele>1535.30</ele>
        <time>2017-12-09T08:11:22Z</time>
      </trkpt>
      <trkpt lat="27.960951" lon="-15.535053">
        <ele>1535.20</ele>
        <time>2017-12-09T08:11:24Z</time>
      </trkpt>
      <trkpt lat="27.960949" lon="-15.535077">
        <ele>1535.30</ele>
        <time>2017-12-09T08:11:26Z</time>
      </trkpt>
      <trkpt lat="27.960938" lon="-15.535108">
        <ele>1535.11</ele>
        <time>2017-12-09T08:11:29Z</time>
      </trkpt>
      <trkpt lat="27.960931" lon="-15.535134">
        <ele>1535.39</ele>
        <time>2017-12-09T08:11:31Z</time>
      </trkpt>
      <trkpt lat="27.960925" lon="-15.535162">
        <ele>1535.39</ele>
        <time>2017-12-09T08:11:33Z</time>
      </trkpt>
      <trkpt lat="27.960920" lon="-15.535184">
        <ele>1535.50</ele>
        <time>2017-12-09T08:11:35Z</time>
      </trkpt>
      <trkpt lat="27.960914" lon="-15.535212">
        <ele>1535.60</ele>
        <time>2017-12-09T08:11:37Z</time>
      </trkpt>
      <trkpt lat="27.960910" lon="-15.535238">
        <ele>1535.61</ele>
        <time>2017-12-09T08:11:39Z</time>
      </trkpt>
      <trkpt lat="27.960907" lon="-15.535266">
        <ele>1535.71</ele>
        <time>2017-12-09T08:11:41Z</time>
      </trkpt>
      <trkpt lat="27.960904" lon="-15.535297">
        <ele>1536.61</ele>
        <time>2017-12-09T08:11:43Z</time>
      </trkpt>
      <trkpt lat="27.960898" lon="-15.535334">
        <ele>1536.62</ele>
        <time>2017-12-09T08:11:45Z</time>
      </trkpt>
      <trkpt lat="27.960892" lon="-15.535364">
        <ele>1535.98</ele>
        <time>2017-12-09T08:11:47Z</time>
      </trkpt>
      <trkpt lat="27.960886" lon="-15.535393">
        <ele>1535.97</ele>
        <time>2017-12-09T08:11:49Z</time>
      </trkpt>
      <trkpt lat="27.960884" lon="-15.535423">
        <ele>1535.78</ele>
        <time>2017-12-09T08:11:51Z</time>
      </trkpt>
      <trkpt lat="27.960881" lon="-15.535452">
        <ele>1535.70</ele>
        <time>2017-12-09T08:11:53Z</time>
      </trkpt>
      <trkpt lat="27.960878" lon="-15.535480">
        <ele>1535.70</ele>
        <time>2017-12-09T08:11:55Z</time>
      </trkpt>
      <trkpt lat="27.960872" lon="-15.535506">
        <ele>1535.64</ele>
        <time>2017-12-09T08:11:57Z</time>
      </trkpt>
      <trkpt lat="27.960855" lon="-15.535517">
        <ele>1536.60</ele>
        <time>2017-12-09T08:12:10Z</time>
      </trkpt>
      <trkpt lat="27.960831" lon="-15.535519">
        <ele>1536.70</ele>
        <time>2017-12-09T08:12:12Z</time>
      </trkpt>
      <trkpt lat="27.960802" lon="-15.535521">
        <ele>1536.53</ele>
        <time>2017-12-09T08:12:14Z</time>
      </trkpt>
      <trkpt lat="27.960821" lon="-15.535524">
        <ele>1536.72</ele>
        <time>2017-12-09T08:12:19Z</time>
      </trkpt>
      <trkpt lat="27.960843" lon="-15.535531">
        <ele>1536.82</ele>
        <time>2017-12-09T08:12:22Z</time>
      </trkpt>
      <trkpt lat="27.960858" lon="-15.535542">
        <ele>1537.62</ele>
        <time>2017-12-09T08:12:30Z</time>
      </trkpt>
      <trkpt lat="27.960876" lon="-15.535534">
        <ele>1537.70</ele>
        <time>2017-12-09T08:12:43Z</time>
      </trkpt>
      <trkpt lat="27.960864" lon="-15.535518">
        <ele>1541.10</ele>
        <time>2017-12-09T08:16:22Z</time>
      </trkpt>
      <trkpt lat="27.960858" lon="-15.535496">
        <ele>1541.21</ele>
        <time>2017-12-09T08:16:38Z</time>
      </trkpt>
      <trkpt lat="27.960875" lon="-15.535480">
        <ele>1541.30</ele>
        <time>2017-12-09T08:16:47Z</time>
      </trkpt>
      <trkpt lat="27.960890" lon="-15.535454">
        <ele>1541.30</ele>
        <time>2017-12-09T08:16:49Z</time>
      </trkpt>
      <trkpt lat="27.960900" lon="-15.535423">
        <ele>1541.30</ele>
        <time>2017-12-09T08:16:51Z</time>
      </trkpt>
      <trkpt lat="27.960908" lon="-15.535392">
        <ele>1541.30</ele>
        <time>2017-12-09T08:16:53Z</time>
      </trkpt>
      <trkpt lat="27.960919" lon="-15.535361">
        <ele>1541.10</ele>
        <time>2017-12-09T08:16:55Z</time>
      </trkpt>
      <trkpt lat="27.960930" lon="-15.535335">
        <ele>1540.81</ele>
        <time>2017-12-09T08:16:57Z</time>
      </trkpt>
      <trkpt lat="27.960938" lon="-15.535306">
        <ele>1541.12</ele>
        <time>2017-12-09T08:16:59Z</time>
      </trkpt>
      <trkpt lat="27.960946" lon="-15.535278">
        <ele>1541.80</ele>
        <time>2017-12-09T08:17:01Z</time>
      </trkpt>
      <trkpt lat="27.960954" lon="-15.535248">
        <ele>1541.70</ele>
        <time>2017-12-09T08:17:03Z</time>
      </trkpt>
      <trkpt lat="27.960955" lon="-15.535225">
        <ele>1541.19</ele>
        <time>2017-12-09T08:17:05Z</time>
      </trkpt>
      <trkpt lat="27.960960" lon="-15.535200">
        <ele>1540.90</ele>
        <time>2017-12-09T08:17:07Z</time>
      </trkpt>
      <trkpt lat="27.960966" lon="-15.535175">
        <ele>1540.80</ele>
        <time>2017-12-09T08:17:09Z</time>
      </trkpt>
      <trkpt lat="27.960973" lon="-15.535150">
        <ele>1540.60</ele>
        <time>2017-12-09T08:17:11Z</time>
      </trkpt>
      <trkpt lat="27.960981" lon="-15.535120">
        <ele>1540.39</ele>
        <time>2017-12-09T08:17:13Z</time>
      </trkpt>
      <trkpt lat="27.960987" lon="-15.535089">
        <ele>1540.31</ele>
        <time>2017-12-09T08:17:15Z</time>
      </trkpt>
      <trkpt lat="27.960987" lon="-15.535059">
        <ele>1540.41</ele>
        <time>2017-12-09T08:17:17Z</time>
      </trkpt>
      <trkpt lat="27.960989" lon="-15.535037">
        <ele>1540.60</ele>
        <time>2017-12-09T08:17:19Z</time>
      </trkpt>
      <trkpt lat="27.960992" lon="-15.535012">
        <ele>1540.70</ele>
        <time>2017-12-09T08:17:21Z</time>
      </trkpt>
      <trkpt lat="27.960997" lon="-15.534983">
        <ele>1540.70</ele>
        <time>2017-12-09T08:17:23Z</time>
      </trkpt>
      <trkpt lat="27.961002" lon="-15.534952">
        <ele>1540.70</ele>
        <time>2017-12-09T08:17:25Z</time>
      </trkpt>
      <trkpt lat="27.961014" lon="-15.534924">
        <ele>1540.80</ele>
        <time>2017-12-09T08:17:27Z</time>
      </trkpt>
      <trkpt lat="27.961019" lon="-15.534892">
        <ele>1540.80</ele>
        <time>2017-12-09T08:17:29Z</time>
      </trkpt>
      <trkpt lat="27.961022" lon="-15.534861">
        <ele>1540.70</ele>
        <time>2017-12-09T08:17:31Z</time>
      </trkpt>
      <trkpt lat="27.961026" lon="-15.534832">
        <ele>1540.68</ele>
        <time>2017-12-09T08:17:33Z</time>
      </trkpt>
      <trkpt lat="27.961024" lon="-15.534804">
        <ele>1540.75</ele>
        <time>2017-12-09T08:17:35Z</time>
      </trkpt>
      <trkpt lat="27.961020" lon="-15.534778">
        <ele>1541.32</ele>
        <time>2017-12-09T08:17:37Z</time>
      </trkpt>
      <trkpt lat="27.961014" lon="-15.534752">
        <ele>1541.50</ele>
        <time>2017-12-09T08:17:39Z</time>
      </trkpt>
      <trkpt lat="27.961006" lon="-15.534726">
        <ele>1541.60</ele>
        <time>2017-12-09T08:17:41Z</time>
      </trkpt>
      <trkpt lat="27.960999" lon="-15.534696">
        <ele>1542.00</ele>
        <time>2017-12-09T08:17:43Z</time>
      </trkpt>
      <trkpt lat="27.960988" lon="-15.534668">
        <ele>1542.10</ele>
        <time>2017-12-09T08:17:45Z</time>
      </trkpt>
      <trkpt lat="27.960978" lon="-15.534644">
        <ele>1542.13</ele>
        <time>2017-12-09T08:17:47Z</time>
      </trkpt>
      <trkpt lat="27.960971" lon="-15.534618">
        <ele>1542.33</ele>
        <time>2017-12-09T08:17:49Z</time>
      </trkpt>
      <trkpt lat="27.960958" lon="-15.534597">
        <ele>1542.66</ele>
        <time>2017-12-09T08:17:51Z</time>
      </trkpt>
      <trkpt lat="27.960946" lon="-15.534574">
        <ele>1543.02</ele>
        <time>2017-12-09T08:17:53Z</time>
      </trkpt>
      <trkpt lat="27.960933" lon="-15.534551">
        <ele>1543.72</ele>
        <time>2017-12-09T08:17:55Z</time>
      </trkpt>
      <trkpt lat="27.960922" lon="-15.534522">
        <ele>1543.82</ele>
        <time>2017-12-09T08:17:57Z</time>
      </trkpt>
      <trkpt lat="27.960905" lon="-15.534495">
        <ele>1544.20</ele>
        <time>2017-12-09T08:17:59Z</time>
      </trkpt>
      <trkpt lat="27.960898" lon="-15.534466">
        <ele>1544.35</ele>
        <time>2017-12-09T08:18:01Z</time>
      </trkpt>
      <trkpt lat="27.960886" lon="-15.534434">
        <ele>1544.60</ele>
        <time>2017-12-09T08:18:03Z</time>
      </trkpt>
      <trkpt lat="27.960876" lon="-15.534402">
        <ele>1544.62</ele>
        <time>2017-12-09T08:18:05Z</time>
      </trkpt>
      <trkpt lat="27.960866" lon="-15.534371">
        <ele>1544.93</ele>
        <time>2017-12-09T08:18:07Z</time>
      </trkpt>
      <trkpt lat="27.960860" lon="-15.534344">
        <ele>1545.00</ele>
        <time>2017-12-09T08:18:09Z</time>
      </trkpt>
      <trkpt lat="27.960848" lon="-15.534316">
        <ele>1545.02</ele>
        <time>2017-12-09T08:18:11Z</time>
      </trkpt>
      <trkpt lat="27.960842" lon="-15.534293">
        <ele>1545.32</ele>
        <time>2017-12-09T08:18:13Z</time>
      </trkpt>
      <trkpt lat="27.960831" lon="-15.534273">
        <ele>1545.40</ele>
        <time>2017-12-09T08:18:15Z</time>
      </trkpt>
      <trkpt lat="27.960823" lon="-15.534252">
        <ele>1545.85</ele>
        <time>2017-12-09T08:18:17Z</time>
      </trkpt>
      <trkpt lat="27.960811" lon="-15.534226">
        <ele>1546.39</ele>
        <time>2017-12-09T08:18:19Z</time>
      </trkpt>
      <trkpt lat="27.960793" lon="-15.534195">
        <ele>1546.90</ele>
        <time>2017-12-09T08:18:21Z</time>
      </trkpt>
      <trkpt lat="27.960778" lon="-15.534172">
        <ele>1547.34</ele>
        <time>2017-12-09T08:18:23Z</time>
      </trkpt>
      <trkpt lat="27.960768" lon="-15.534139">
        <ele>1547.70</ele>
        <time>2017-12-09T08:18:25Z</time>
      </trkpt>
      <trkpt lat="27.960766" lon="-15.534118">
        <ele>1548.12</ele>
        <time>2017-12-09T08:18:26Z</time>
      </trkpt>
      <trkpt lat="27.960764" lon="-15.534085">
        <ele>1548.66</ele>
        <time>2017-12-09T08:18:28Z</time>
      </trkpt>
      <trkpt lat="27.960762" lon="-15.534055">
        <ele>1549.00</ele>
        <time>2017-12-09T08:18:30Z</time>
      </trkpt>
      <trkpt lat="27.960762" lon="-15.534027">
        <ele>1549.22</ele>
        <time>2017-12-09T08:18:32Z</time>
      </trkpt>
      <trkpt lat="27.960759" lon="-15.533990">
        <ele>1549.30</ele>
        <time>2017-12-09T08:18:34Z</time>
      </trkpt>
      <trkpt lat="27.960763" lon="-15.533957">
        <ele>1549.50</ele>
        <time>2017-12-09T08:18:36Z</time>
      </trkpt>
      <trkpt lat="27.960769" lon="-15.533924">
        <ele>1549.50</ele>
        <time>2017-12-09T08:18:38Z</time>
      </trkpt>
      <trkpt lat="27.960774" lon="-15.533890">
        <ele>1549.80</ele>
        <time>2017-12-09T08:18:40Z</time>
      </trkpt>
      <trkpt lat="27.960778" lon="-15.533859">
        <ele>1550.12</ele>
        <time>2017-12-09T08:18:42Z</time>
      </trkpt>
      <trkpt lat="27.960783" lon="-15.533831">
        <ele>1550.20</ele>
        <time>2017-12-09T08:18:44Z</time>
      </trkpt>
      <trkpt lat="27.960791" lon="-15.533800">
        <ele>1550.36</ele>
        <time>2017-12-09T08:18:46Z</time>
      </trkpt>
      <trkpt lat="27.960800" lon="-15.533770">
        <ele>1550.69</ele>
        <time>2017-12-09T08:18:48Z</time>
      </trkpt>
      <trkpt lat="27.960811" lon="-15.533740">
        <ele>1551.02</ele>
        <time>2017-12-09T08:18:50Z</time>
      </trkpt>
      <trkpt lat="27.960816" lon="-15.533711">
        <ele>1551.10</ele>
        <time>2017-12-09T08:18:52Z</time>
      </trkpt>
      <trkpt lat="27.960821" lon="-15.533689">
        <ele>1551.22</ele>
        <time>2017-12-09T08:18:54Z</time>
      </trkpt>
      <trkpt lat="27.960826" lon="-15.533661">
        <ele>1551.80</ele>
        <time>2017-12-09T08:18:56Z</time>
      </trkpt>
      <trkpt lat="27.960835" lon="-15.533625">
        <ele>1552.13</ele>
        <time>2017-12-09T08:18:58Z</time>
      </trkpt>
      <trkpt lat="27.960837" lon="-15.533601">
        <ele>1552.38</ele>
        <time>2017-12-09T08:19:00Z</time>
      </trkpt>
      <trkpt lat="27.960841" lon="-15.533574">
        <ele>1552.66</ele>
        <time>2017-12-09T08:19:02Z</time>
      </trkpt>
      <trkpt lat="27.960847" lon="-15.533554">
        <ele>1552.90</ele>
        <time>2017-12-09T08:19:04Z</time>
      </trkpt>
      <trkpt lat="27.960854" lon="-15.533524">
        <ele>1553.12</ele>
        <time>2017-12-09T08:19:06Z</time>
      </trkpt>
      <trkpt lat="27.960852" lon="-15.533489">
        <ele>1553.60</ele>
        <time>2017-12-09T08:19:09Z</time>
      </trkpt>
      <trkpt lat="27.960850" lon="-15.533459">
        <ele>1553.76</ele>
        <time>2017-12-09T08:19:11Z</time>
      </trkpt>
      <trkpt lat="27.960862" lon="-15.533431">
        <ele>1554.26</ele>
        <time>2017-12-09T08:19:13Z</time>
      </trkpt>
      <trkpt lat="27.960866" lon="-15.533406">
        <ele>1554.77</ele>
        <time>2017-12-09T08:19:15Z</time>
      </trkpt>
      <trkpt lat="27.960875" lon="-15.533381">
        <ele>1555.03</ele>
        <time>2017-12-09T08:19:17Z</time>
      </trkpt>
      <trkpt lat="27.960883" lon="-15.533353">
        <ele>1555.33</ele>
        <time>2017-12-09T08:19:19Z</time>
      </trkpt>
      <trkpt lat="27.960893" lon="-15.533331">
        <ele>1555.63</ele>
        <time>2017-12-09T08:19:21Z</time>
      </trkpt>
      <trkpt lat="27.960902" lon="-15.533305">
        <ele>1555.90</ele>
        <time>2017-12-09T08:19:23Z</time>
      </trkpt>
      <trkpt lat="27.960904" lon="-15.533276">
        <ele>1556.43</ele>
        <time>2017-12-09T08:19:25Z</time>
      </trkpt>
      <trkpt lat="27.960902" lon="-15.533246">
        <ele>1556.54</ele>
        <time>2017-12-09T08:19:27Z</time>
      </trkpt>
      <trkpt lat="27.960931" lon="-15.533138">
        <ele>1557.51</ele>
        <time>2017-12-09T08:19:34Z</time>
      </trkpt>
      <trkpt lat="27.960984" lon="-15.533043">
        <ele>1558.12</ele>
        <time>2017-12-09T08:19:40Z</time>
      </trkpt>
      <trkpt lat="27.960989" lon="-15.533005">
        <ele>1558.46</ele>
        <time>2017-12-09T08:19:42Z</time>
      </trkpt>
      <trkpt lat="27.960992" lon="-15.532984">
        <ele>1558.78</ele>
        <time>2017-12-09T08:19:43Z</time>
      </trkpt>
      <trkpt lat="27.960994" lon="-15.532957">
        <ele>1559.48</ele>
        <time>2017-12-09T08:19:45Z</time>
      </trkpt>
      <trkpt lat="27.960993" lon="-15.532924">
        <ele>1559.60</ele>
        <time>2017-12-09T08:19:47Z</time>
      </trkpt>
      <trkpt lat="27.960992" lon="-15.532891">
        <ele>1559.84</ele>
        <time>2017-12-09T08:19:49Z</time>
      </trkpt>
      <trkpt lat="27.960997" lon="-15.532847">
        <ele>1559.70</ele>
        <time>2017-12-09T08:19:52Z</time>
      </trkpt>
      <trkpt lat="27.960998" lon="-15.532821">
        <ele>1559.86</ele>
        <time>2017-12-09T08:19:54Z</time>
      </trkpt>
      <trkpt lat="27.960994" lon="-15.532796">
        <ele>1559.85</ele>
        <time>2017-12-09T08:19:56Z</time>
      </trkpt>
      <trkpt lat="27.960990" lon="-15.532772">
        <ele>1559.80</ele>
        <time>2017-12-09T08:19:57Z</time>
      </trkpt>
      <trkpt lat="27.960978" lon="-15.532752">
        <ele>1559.80</ele>
        <time>2017-12-09T08:19:58Z</time>
      </trkpt>
      <trkpt lat="27.960958" lon="-15.532723">
        <ele>1559.60</ele>
        <time>2017-12-09T08:20:00Z</time>
      </trkpt>
      <trkpt lat="27.960932" lon="-15.532700">
        <ele>1559.41</ele>
        <time>2017-12-09T08:20:02Z</time>
      </trkpt>
      <trkpt lat="27.960899" lon="-15.532690">
        <ele>1559.30</ele>
        <time>2017-12-09T08:20:04Z</time>
      </trkpt>
      <trkpt lat="27.960868" lon="-15.532686">
        <ele>1559.30</ele>
        <time>2017-12-09T08:20:06Z</time>
      </trkpt>
      <trkpt lat="27.960832" lon="-15.532690">
        <ele>1559.30</ele>
        <time>2017-12-09T08:20:08Z</time>
      </trkpt>
      <trkpt lat="27.960803" lon="-15.532696">
        <ele>1559.44</ele>
        <time>2017-12-09T08:20:10Z</time>
      </trkpt>
      <trkpt lat="27.960770" lon="-15.532698">
        <ele>1559.41</ele>
        <time>2017-12-09T08:20:12Z</time>
      </trkpt>
      <trkpt lat="27.960730" lon="-15.532709">
        <ele>1559.10</ele>
        <time>2017-12-09T08:20:14Z</time>
      </trkpt>
      <trkpt lat="27.960710" lon="-15.532721">
        <ele>1559.10</ele>
        <time>2017-12-09T08:20:15Z</time>
      </trkpt>
      <trkpt lat="27.960690" lon="-15.532730">
        <ele>1559.29</ele>
        <time>2017-12-09T08:20:16Z</time>
      </trkpt>
      <trkpt lat="27.960651" lon="-15.532742">
        <ele>1559.35</ele>
        <time>2017-12-09T08:20:18Z</time>
      </trkpt>
      <trkpt lat="27.960628" lon="-15.532755">
        <ele>1559.50</ele>
        <time>2017-12-09T08:20:19Z</time>
      </trkpt>
      <trkpt lat="27.960607" lon="-15.532766">
        <ele>1559.79</ele>
        <time>2017-12-09T08:20:20Z</time>
      </trkpt>
      <trkpt lat="27.960546" lon="-15.532792">
        <ele>1559.96</ele>
        <time>2017-12-09T08:20:23Z</time>
      </trkpt>
      <trkpt lat="27.960524" lon="-15.532806">
        <ele>1559.40</ele>
        <time>2017-12-09T08:20:24Z</time>
      </trkpt>
      <trkpt lat="27.960502" lon="-15.532817">
        <ele>1559.35</ele>
        <time>2017-12-09T08:20:25Z</time>
      </trkpt>
      <trkpt lat="27.960482" lon="-15.532824">
        <ele>1559.30</ele>
        <time>2017-12-09T08:20:26Z</time>
      </trkpt>
      <trkpt lat="27.960435" lon="-15.532848">
        <ele>1559.35</ele>
        <time>2017-12-09T08:20:28Z</time>
      </trkpt>
      <trkpt lat="27.960414" lon="-15.532858">
        <ele>1559.40</ele>
        <time>2017-12-09T08:20:29Z</time>
      </trkpt>
      <trkpt lat="27.960391" lon="-15.532869">
        <ele>1559.30</ele>
        <time>2017-12-09T08:20:30Z</time>
      </trkpt>
      <trkpt lat="27.960370" lon="-15.532872">
        <ele>1559.56</ele>
        <time>2017-12-09T08:20:31Z</time>
      </trkpt>
      <trkpt lat="27.960350" lon="-15.532878">
        <ele>1559.90</ele>
        <time>2017-12-09T08:20:32Z</time>
      </trkpt>
      <trkpt lat="27.960328" lon="-15.532888">
        <ele>1560.36</ele>
        <time>2017-12-09T08:20:33Z</time>
      </trkpt>
      <trkpt lat="27.960306" lon="-15.532897">
        <ele>1560.34</ele>
        <time>2017-12-09T08:20:34Z</time>
      </trkpt>
      <trkpt lat="27.960285" lon="-15.532906">
        <ele>1560.42</ele>
        <time>2017-12-09T08:20:35Z</time>
      </trkpt>
      <trkpt lat="27.960262" lon="-15.532913">
        <ele>1560.38</ele>
        <time>2017-12-09T08:20:36Z</time>
      </trkpt>
      <trkpt lat="27.960239" lon="-15.532922">
        <ele>1560.27</ele>
        <time>2017-12-09T08:20:37Z</time>
      </trkpt>
      <trkpt lat="27.960215" lon="-15.532927">
        <ele>1560.23</ele>
        <time>2017-12-09T08:20:38Z</time>
      </trkpt>
      <trkpt lat="27.960195" lon="-15.532927">
        <ele>1560.27</ele>
        <time>2017-12-09T08:20:39Z</time>
      </trkpt>
      <trkpt lat="27.960174" lon="-15.532928">
        <ele>1560.17</ele>
        <time>2017-12-09T08:20:40Z</time>
      </trkpt>
      <trkpt lat="27.960153" lon="-15.532930">
        <ele>1559.80</ele>
        <time>2017-12-09T08:20:41Z</time>
      </trkpt>
      <trkpt lat="27.960130" lon="-15.532935">
        <ele>1559.80</ele>
        <time>2017-12-09T08:20:42Z</time>
      </trkpt>
      <trkpt lat="27.960086" lon="-15.532940">
        <ele>1559.90</ele>
        <time>2017-12-09T08:20:44Z</time>
      </trkpt>
      <trkpt lat="27.960021" lon="-15.532932">
        <ele>1559.90</ele>
        <time>2017-12-09T08:20:47Z</time>
      </trkpt>
      <trkpt lat="27.960000" lon="-15.532925">
        <ele>1560.66</ele>
        <time>2017-12-09T08:20:48Z</time>
      </trkpt>
      <trkpt lat="27.959974" lon="-15.532916">
        <ele>1560.35</ele>
        <time>2017-12-09T08:20:49Z</time>
      </trkpt>
      <trkpt lat="27.959952" lon="-15.532913">
        <ele>1560.84</ele>
        <time>2017-12-09T08:20:50Z</time>
      </trkpt>
      <trkpt lat="27.959931" lon="-15.532911">
        <ele>1560.37</ele>
        <time>2017-12-09T08:20:51Z</time>
      </trkpt>
      <trkpt lat="27.959912" lon="-15.532910">
        <ele>1560.65</ele>
        <time>2017-12-09T08:20:52Z</time>
      </trkpt>
      <trkpt lat="27.959889" lon="-15.532906">
        <ele>1560.24</ele>
        <time>2017-12-09T08:20:53Z</time>
      </trkpt>
      <trkpt lat="27.959865" lon="-15.532899">
        <ele>1560.67</ele>
        <time>2017-12-09T08:20:54Z</time>
      </trkpt>
      <trkpt lat="27.959841" lon="-15.532890">
        <ele>1560.41</ele>
        <time>2017-12-09T08:20:55Z</time>
      </trkpt>
      <trkpt lat="27.959817" lon="-15.532881">
        <ele>1560.80</ele>
        <time>2017-12-09T08:20:56Z</time>
      </trkpt>
      <trkpt lat="27.959794" lon="-15.532874">
        <ele>1560.39</ele>
        <time>2017-12-09T08:20:57Z</time>
      </trkpt>
      <trkpt lat="27.959769" lon="-15.532871">
        <ele>1560.75</ele>
        <time>2017-12-09T08:20:58Z</time>
      </trkpt>
      <trkpt lat="27.959745" lon="-15.532867">
        <ele>1560.35</ele>
        <time>2017-12-09T08:20:59Z</time>
      </trkpt>
      <trkpt lat="27.959723" lon="-15.532861">
        <ele>1560.68</ele>
        <time>2017-12-09T08:21:00Z</time>
      </trkpt>
      <trkpt lat="27.959698" lon="-15.532853">
        <ele>1560.32</ele>
        <time>2017-12-09T08:21:01Z</time>
      </trkpt>
      <trkpt lat="27.959674" lon="-15.532842">
        <ele>1559.95</ele>
        <time>2017-12-09T08:21:02Z</time>
      </trkpt>
      <trkpt lat="27.959651" lon="-15.532834">
        <ele>1559.90</ele>
        <time>2017-12-09T08:21:03Z</time>
      </trkpt>
      <trkpt lat="27.959629" lon="-15.532826">
        <ele>1559.97</ele>
        <time>2017-12-09T08:21:04Z</time>
      </trkpt>
      <trkpt lat="27.959608" lon="-15.532821">
        <ele>1560.00</ele>
        <time>2017-12-09T08:21:05Z</time>
      </trkpt>
      <trkpt lat="27.959584" lon="-15.532818">
        <ele>1560.00</ele>
        <time>2017-12-09T08:21:06Z</time>
      </trkpt>
      <trkpt lat="27.959545" lon="-15.532809">
        <ele>1560.00</ele>
        <time>2017-12-09T08:21:08Z</time>
      </trkpt>
      <trkpt lat="27.959522" lon="-15.532806">
        <ele>1560.08</ele>
        <time>2017-12-09T08:21:09Z</time>
      </trkpt>
      <trkpt lat="27.959497" lon="-15.532805">
        <ele>1560.02</ele>
        <time>2017-12-09T08:21:10Z</time>
      </trkpt>
      <trkpt lat="27.959472" lon="-15.532801">
        <ele>1560.75</ele>
        <time>2017-12-09T08:21:11Z</time>
      </trkpt>
      <trkpt lat="27.959446" lon="-15.532795">
        <ele>1560.70</ele>
        <time>2017-12-09T08:21:12Z</time>
      </trkpt>
      <trkpt lat="27.959419" lon="-15.532787">
        <ele>1560.60</ele>
        <time>2017-12-09T08:21:13Z</time>
      </trkpt>
      <trkpt lat="27.959398" lon="-15.532786">
        <ele>1560.52</ele>
        <time>2017-12-09T08:21:14Z</time>
      </trkpt>
      <trkpt lat="27.959377" lon="-15.532783">
        <ele>1560.50</ele>
        <time>2017-12-09T08:21:15Z</time>
      </trkpt>
      <trkpt lat="27.959350" lon="-15.532779">
        <ele>1560.50</ele>
        <time>2017-12-09T08:21:16Z</time>
      </trkpt>
      <trkpt lat="27.959326" lon="-15.532775">
        <ele>1560.50</ele>
        <time>2017-12-09T08:21:17Z</time>
      </trkpt>
      <trkpt lat="27.959304" lon="-15.532770">
        <ele>1560.50</ele>
        <time>2017-12-09T08:21:18Z</time>
      </trkpt>
      <trkpt lat="27.959284" lon="-15.532763">
        <ele>1560.04</ele>
        <time>2017-12-09T08:21:19Z</time>
      </trkpt>
      <trkpt lat="27.959259" lon="-15.532757">
        <ele>1560.29</ele>
        <time>2017-12-09T08:21:20Z</time>
      </trkpt>
      <trkpt lat="27.959233" lon="-15.532753">
        <ele>1560.01</ele>
        <time>2017-12-09T08:21:21Z</time>
      </trkpt>
      <trkpt lat="27.959209" lon="-15.532745">
        <ele>1560.29</ele>
        <time>2017-12-09T08:21:22Z</time>
      </trkpt>
      <trkpt lat="27.959181" lon="-15.532736">
        <ele>1560.01</ele>
        <time>2017-12-09T08:21:23Z</time>
      </trkpt>
      <trkpt lat="27.959158" lon="-15.532726">
        <ele>1559.98</ele>
        <time>2017-12-09T08:21:24Z</time>
      </trkpt>
      <trkpt lat="27.959134" lon="-15.532721">
        <ele>1559.76</ele>
        <time>2017-12-09T08:21:25Z</time>
      </trkpt>
      <trkpt lat="27.959114" lon="-15.532716">
        <ele>1559.70</ele>
        <time>2017-12-09T08:21:26Z</time>
      </trkpt>
      <trkpt lat="27.959091" lon="-15.532710">
        <ele>1559.62</ele>
        <time>2017-12-09T08:21:27Z</time>
      </trkpt>
      <trkpt lat="27.959068" lon="-15.532702">
        <ele>1559.44</ele>
        <time>2017-12-09T08:21:28Z</time>
      </trkpt>
      <trkpt lat="27.959047" lon="-15.532698">
        <ele>1559.40</ele>
        <time>2017-12-09T08:21:29Z</time>
      </trkpt>
      <trkpt lat="27.959021" lon="-15.532698">
        <ele>1559.50</ele>
        <time>2017-12-09T08:21:31Z</time>
      </trkpt>
      <trkpt lat="27.959004" lon="-15.532692">
        <ele>1559.50</ele>
        <time>2017-12-09T08:21:33Z</time>
      </trkpt>
      <trkpt lat="27.958982" lon="-15.532686">
        <ele>1559.50</ele>
        <time>2017-12-09T08:21:35Z</time>
      </trkpt>
      <trkpt lat="27.958960" lon="-15.532687">
        <ele>1559.09</ele>
        <time>2017-12-09T08:21:37Z</time>
      </trkpt>
      <trkpt lat="27.958932" lon="-15.532682">
        <ele>1558.90</ele>
        <time>2017-12-09T08:21:39Z</time>
      </trkpt>
      <trkpt lat="27.958906" lon="-15.532676">
        <ele>1558.90</ele>
        <time>2017-12-09T08:21:41Z</time>
      </trkpt>
      <trkpt lat="27.958880" lon="-15.532671">
        <ele>1559.00</ele>
        <time>2017-12-09T08:21:43Z</time>
      </trkpt>
      <trkpt lat="27.958854" lon="-15.532671">
        <ele>1559.40</ele>
        <time>2017-12-09T08:21:45Z</time>
      </trkpt>
      <trkpt lat="27.958827" lon="-15.532666">
        <ele>1559.40</ele>
        <time>2017-12-09T08:21:47Z</time>
      </trkpt>
      <trkpt lat="27.958802" lon="-15.532664">
        <ele>1559.40</ele>
        <time>2017-12-09T08:21:49Z</time>
      </trkpt>
      <trkpt lat="27.958778" lon="-15.532661">
        <ele>1559.40</ele>
        <time>2017-12-09T08:21:51Z</time>
      </trkpt>
      <trkpt lat="27.958749" lon="-15.532657">
        <ele>1558.90</ele>
        <time>2017-12-09T08:21:53Z</time>
      </trkpt>
      <trkpt lat="27.958724" lon="-15.532660">
        <ele>1558.90</ele>
        <time>2017-12-09T08:21:55Z</time>
      </trkpt>
      <trkpt lat="27.958700" lon="-15.532658">
        <ele>1559.00</ele>
        <time>2017-12-09T08:21:57Z</time>
      </trkpt>
      <trkpt lat="27.958675" lon="-15.532659">
        <ele>1559.00</ele>
        <time>2017-12-09T08:21:59Z</time>
      </trkpt>
      <trkpt lat="27.958651" lon="-15.532658">
        <ele>1559.27</ele>
        <time>2017-12-09T08:22:01Z</time>
      </trkpt>
      <trkpt lat="27.958625" lon="-15.532658">
        <ele>1559.38</ele>
        <time>2017-12-09T08:22:03Z</time>
      </trkpt>
      <trkpt lat="27.958601" lon="-15.532659">
        <ele>1559.32</ele>
        <time>2017-12-09T08:22:05Z</time>
      </trkpt>
      <trkpt lat="27.958578" lon="-15.532659">
        <ele>1559.13</ele>
        <time>2017-12-09T08:22:07Z</time>
      </trkpt>
      <trkpt lat="27.958554" lon="-15.532659">
        <ele>1558.32</ele>
        <time>2017-12-09T08:22:09Z</time>
      </trkpt>
      <trkpt lat="27.958527" lon="-15.532664">
        <ele>1558.12</ele>
        <time>2017-12-09T08:22:11Z</time>
      </trkpt>
      <trkpt lat="27.958499" lon="-15.532670">
        <ele>1558.27</ele>
        <time>2017-12-09T08:22:13Z</time>
      </trkpt>
      <trkpt lat="27.958473" lon="-15.532670">
        <ele>1558.40</ele>
        <time>2017-12-09T08:22:15Z</time>
      </trkpt>
      <trkpt lat="27.958447" lon="-15.532670">
        <ele>1558.58</ele>
        <time>2017-12-09T08:22:17Z</time>
      </trkpt>
      <trkpt lat="27.958421" lon="-15.532674">
        <ele>1559.17</ele>
        <time>2017-12-09T08:22:19Z</time>
      </trkpt>
      <trkpt lat="27.958393" lon="-15.532672">
        <ele>1559.03</ele>
        <time>2017-12-09T08:22:21Z</time>
      </trkpt>
      <trkpt lat="27.958368" lon="-15.532677">
        <ele>1559.00</ele>
        <time>2017-12-09T08:22:23Z</time>
      </trkpt>
      <trkpt lat="27.958345" lon="-15.532680">
        <ele>1559.19</ele>
        <time>2017-12-09T08:22:25Z</time>
      </trkpt>
      <trkpt lat="27.958322" lon="-15.532679">
        <ele>1559.37</ele>
        <time>2017-12-09T08:22:27Z</time>
      </trkpt>
      <trkpt lat="27.958301" lon="-15.532680">
        <ele>1559.40</ele>
        <time>2017-12-09T08:22:29Z</time>
      </trkpt>
      <trkpt lat="27.958276" lon="-15.532679">
        <ele>1559.49</ele>
        <time>2017-12-09T08:22:31Z</time>
      </trkpt>
      <trkpt lat="27.958246" lon="-15.532676">
        <ele>1559.40</ele>
        <time>2017-12-09T08:22:33Z</time>
      </trkpt>
      <trkpt lat="27.958219" lon="-15.532683">
        <ele>1559.40</ele>
        <time>2017-12-09T08:22:35Z</time>
      </trkpt>
      <trkpt lat="27.958190" lon="-15.532682">
        <ele>1559.49</ele>
        <time>2017-12-09T08:22:37Z</time>
      </trkpt>
      <trkpt lat="27.958163" lon="-15.532677">
        <ele>1559.41</ele>
        <time>2017-12-09T08:22:39Z</time>
      </trkpt>
      <trkpt lat="27.958135" lon="-15.532679">
        <ele>1559.11</ele>
        <time>2017-12-09T08:22:41Z</time>
      </trkpt>
      <trkpt lat="27.958105" lon="-15.532678">
        <ele>1558.91</ele>
        <time>2017-12-09T08:22:43Z</time>
      </trkpt>
      <trkpt lat="27.958086" lon="-15.532680">
        <ele>1558.81</ele>
        <time>2017-12-09T08:22:44Z</time>
      </trkpt>
      <trkpt lat="27.958055" lon="-15.532680">
        <ele>1558.70</ele>
        <time>2017-12-09T08:22:46Z</time>
      </trkpt>
      <trkpt lat="27.958023" lon="-15.532683">
        <ele>1558.79</ele>
        <time>2017-12-09T08:22:48Z</time>
      </trkpt>
      <trkpt lat="27.957994" lon="-15.532687">
        <ele>1558.62</ele>
        <time>2017-12-09T08:22:50Z</time>
      </trkpt>
      <trkpt lat="27.957976" lon="-15.532685">
        <ele>1558.60</ele>
        <time>2017-12-09T08:22:51Z</time>
      </trkpt>
      <trkpt lat="27.957946" lon="-15.532685">
        <ele>1558.70</ele>
        <time>2017-12-09T08:22:53Z</time>
      </trkpt>
      <trkpt lat="27.957914" lon="-15.532685">
        <ele>1558.61</ele>
        <time>2017-12-09T08:22:55Z</time>
      </trkpt>
      <trkpt lat="27.957889" lon="-15.532687">
        <ele>1558.40</ele>
        <time>2017-12-09T08:22:57Z</time>
      </trkpt>
      <trkpt lat="27.957859" lon="-15.532688">
        <ele>1558.02</ele>
        <time>2017-12-09T08:22:59Z</time>
      </trkpt>
      <trkpt lat="27.957834" lon="-15.532691">
        <ele>1557.90</ele>
        <time>2017-12-09T08:23:01Z</time>
      </trkpt>
      <trkpt lat="27.957807" lon="-15.532695">
        <ele>1557.80</ele>
        <time>2017-12-09T08:23:03Z</time>
      </trkpt>
      <trkpt lat="27.957713" lon="-15.532724">
        <ele>1556.42</ele>
        <time>2017-12-09T08:23:11Z</time>
      </trkpt>
      <trkpt lat="27.957617" lon="-15.532700">
        <ele>1555.60</ele>
        <time>2017-12-09T08:23:16Z</time>
      </trkpt>
      <trkpt lat="27.957511" lon="-15.532670">
        <ele>1555.11</ele>
        <time>2017-12-09T08:23:21Z</time>
      </trkpt>
      <trkpt lat="27.957464" lon="-15.532667">
        <ele>1555.10</ele>
        <time>2017-12-09T08:23:23Z</time>
      </trkpt>
      <trkpt lat="27.957446" lon="-15.532664">
        <ele>1555.10</ele>
        <time>2017-12-09T08:23:24Z</time>
      </trkpt>
      <trkpt lat="27.957426" lon="-15.532663">
        <ele>1554.32</ele>
        <time>2017-12-09T08:23:25Z</time>
      </trkpt>
      <trkpt lat="27.957400" lon="-15.532658">
        <ele>1554.30</ele>
        <time>2017-12-09T08:23:26Z</time>
      </trkpt>
      <trkpt lat="27.957380" lon="-15.532654">
        <ele>1554.30</ele>
        <time>2017-12-09T08:23:27Z</time>
      </trkpt>
      <trkpt lat="27.957358" lon="-15.532649">
        <ele>1553.71</ele>
        <time>2017-12-09T08:23:28Z</time>
      </trkpt>
      <trkpt lat="27.957333" lon="-15.532645">
        <ele>1553.50</ele>
        <time>2017-12-09T08:23:29Z</time>
      </trkpt>
      <trkpt lat="27.957308" lon="-15.532643">
        <ele>1553.40</ele>
        <time>2017-12-09T08:23:30Z</time>
      </trkpt>
      <trkpt lat="27.957286" lon="-15.532644">
        <ele>1553.20</ele>
        <time>2017-12-09T08:23:31Z</time>
      </trkpt>
      <trkpt lat="27.957265" lon="-15.532646">
        <ele>1553.40</ele>
        <time>2017-12-09T08:23:32Z</time>
      </trkpt>
      <trkpt lat="27.957247" lon="-15.532649">
        <ele>1552.81</ele>
        <time>2017-12-09T08:23:33Z</time>
      </trkpt>
      <trkpt lat="27.957226" lon="-15.532650">
        <ele>1552.41</ele>
        <time>2017-12-09T08:23:34Z</time>
      </trkpt>
      <trkpt lat="27.957205" lon="-15.532655">
        <ele>1552.10</ele>
        <time>2017-12-09T08:23:35Z</time>
      </trkpt>
      <trkpt lat="27.957170" lon="-15.532672">
        <ele>1551.21</ele>
        <time>2017-12-09T08:23:37Z</time>
      </trkpt>
      <trkpt lat="27.957151" lon="-15.532679">
        <ele>1551.00</ele>
        <time>2017-12-09T08:23:38Z</time>
      </trkpt>
      <trkpt lat="27.957129" lon="-15.532685">
        <ele>1550.70</ele>
        <time>2017-12-09T08:23:39Z</time>
      </trkpt>
      <trkpt lat="27.957107" lon="-15.532691">
        <ele>1550.10</ele>
        <time>2017-12-09T08:23:40Z</time>
      </trkpt>
      <trkpt lat="27.957088" lon="-15.532696">
        <ele>1549.80</ele>
        <time>2017-12-09T08:23:41Z</time>
      </trkpt>
      <trkpt lat="27.957067" lon="-15.532701">
        <ele>1549.80</ele>
        <time>2017-12-09T08:23:42Z</time>
      </trkpt>
      <trkpt lat="27.957046" lon="-15.532711">
        <ele>1549.80</ele>
        <time>2017-12-09T08:23:43Z</time>
      </trkpt>
      <trkpt lat="27.957024" lon="-15.532713">
        <ele>1549.50</ele>
        <time>2017-12-09T08:23:44Z</time>
      </trkpt>
      <trkpt lat="27.957001" lon="-15.532720">
        <ele>1549.50</ele>
        <time>2017-12-09T08:23:45Z</time>
      </trkpt>
      <trkpt lat="27.956978" lon="-15.532725">
        <ele>1548.80</ele>
        <time>2017-12-09T08:23:46Z</time>
      </trkpt>
      <trkpt lat="27.956953" lon="-15.532725">
        <ele>1548.70</ele>
        <time>2017-12-09T08:23:47Z</time>
      </trkpt>
      <trkpt lat="27.956935" lon="-15.532730">
        <ele>1548.58</ele>
        <time>2017-12-09T08:23:48Z</time>
      </trkpt>
      <trkpt lat="27.956914" lon="-15.532735">
        <ele>1547.50</ele>
        <time>2017-12-09T08:23:49Z</time>
      </trkpt>
      <trkpt lat="27.956894" lon="-15.532742">
        <ele>1547.38</ele>
        <time>2017-12-09T08:23:50Z</time>
      </trkpt>
      <trkpt lat="27.956854" lon="-15.532742">
        <ele>1546.27</ele>
        <time>2017-12-09T08:23:52Z</time>
      </trkpt>
      <trkpt lat="27.956836" lon="-15.532740">
        <ele>1545.50</ele>
        <time>2017-12-09T08:23:53Z</time>
      </trkpt>
      <trkpt lat="27.956809" lon="-15.532740">
        <ele>1545.40</ele>
        <time>2017-12-09T08:23:54Z</time>
      </trkpt>
      <trkpt lat="27.956788" lon="-15.532737">
        <ele>1545.28</ele>
        <time>2017-12-09T08:23:55Z</time>
      </trkpt>
      <trkpt lat="27.956763" lon="-15.532736">
        <ele>1544.89</ele>
        <time>2017-12-09T08:23:56Z</time>
      </trkpt>
      <trkpt lat="27.956742" lon="-15.532734">
        <ele>1544.57</ele>
        <time>2017-12-09T08:23:57Z</time>
      </trkpt>
      <trkpt lat="27.956717" lon="-15.532731">
        <ele>1543.78</ele>
        <time>2017-12-09T08:23:58Z</time>
      </trkpt>
      <trkpt lat="27.956697" lon="-15.532730">
        <ele>1543.33</ele>
        <time>2017-12-09T08:23:59Z</time>
      </trkpt>
      <trkpt lat="27.956674" lon="-15.532728">
        <ele>1541.39</ele>
        <time>2017-12-09T08:24:00Z</time>
      </trkpt>
      <trkpt lat="27.956652" lon="-15.532730">
        <ele>1540.98</ele>
        <time>2017-12-09T08:24:01Z</time>
      </trkpt>
      <trkpt lat="27.956630" lon="-15.532727">
        <ele>1540.17</ele>
        <time>2017-12-09T08:24:02Z</time>
      </trkpt>
      <trkpt lat="27.956608" lon="-15.532726">
        <ele>1539.20</ele>
        <time>2017-12-09T08:24:03Z</time>
      </trkpt>
      <trkpt lat="27.956586" lon="-15.532728">
        <ele>1539.20</ele>
        <time>2017-12-09T08:24:04Z</time>
      </trkpt>
      <trkpt lat="27.956566" lon="-15.532726">
        <ele>1539.19</ele>
        <time>2017-12-09T08:24:05Z</time>
      </trkpt>
      <trkpt lat="27.956542" lon="-15.532730">
        <ele>1538.80</ele>
        <time>2017-12-09T08:24:06Z</time>
      </trkpt>
      <trkpt lat="27.956519" lon="-15.532737">
        <ele>1538.80</ele>
        <time>2017-12-09T08:24:07Z</time>
      </trkpt>
      <trkpt lat="27.956500" lon="-15.532745">
        <ele>1538.80</ele>
        <time>2017-12-09T08:24:08Z</time>
      </trkpt>
      <trkpt lat="27.956478" lon="-15.532756">
        <ele>1538.78</ele>
        <time>2017-12-09T08:24:09Z</time>
      </trkpt>
      <trkpt lat="27.956455" lon="-15.532770">
        <ele>1538.37</ele>
        <time>2017-12-09T08:24:10Z</time>
      </trkpt>
      <trkpt lat="27.956438" lon="-15.532787">
        <ele>1537.80</ele>
        <time>2017-12-09T08:24:11Z</time>
      </trkpt>
      <trkpt lat="27.956419" lon="-15.532806">
        <ele>1537.90</ele>
        <time>2017-12-09T08:24:12Z</time>
      </trkpt>
      <trkpt lat="27.956403" lon="-15.532826">
        <ele>1537.76</ele>
        <time>2017-12-09T08:24:13Z</time>
      </trkpt>
      <trkpt lat="27.956387" lon="-15.532849">
        <ele>1536.80</ele>
        <time>2017-12-09T08:24:14Z</time>
      </trkpt>
      <trkpt lat="27.956376" lon="-15.532868">
        <ele>1536.80</ele>
        <time>2017-12-09T08:24:15Z</time>
      </trkpt>
      <trkpt lat="27.956364" lon="-15.532893">
        <ele>1536.68</ele>
        <time>2017-12-09T08:24:16Z</time>
      </trkpt>
      <trkpt lat="27.956350" lon="-15.532917">
        <ele>1536.29</ele>
        <time>2017-12-09T08:24:17Z</time>
      </trkpt>
      <trkpt lat="27.956336" lon="-15.532939">
        <ele>1535.96</ele>
        <time>2017-12-09T08:24:18Z</time>
      </trkpt>
      <trkpt lat="27.956326" lon="-15.532962">
        <ele>1535.00</ele>
        <time>2017-12-09T08:24:19Z</time>
      </trkpt>
      <trkpt lat="27.956309" lon="-15.532993">
        <ele>1535.00</ele>
        <time>2017-12-09T08:24:20Z</time>
      </trkpt>
      <trkpt lat="27.956298" lon="-15.533017">
        <ele>1535.00</ele>
        <time>2017-12-09T08:24:21Z</time>
      </trkpt>
      <trkpt lat="27.956281" lon="-15.533044">
        <ele>1535.09</ele>
        <time>2017-12-09T08:24:22Z</time>
      </trkpt>
      <trkpt lat="27.956270" lon="-15.533061">
        <ele>1534.90</ele>
        <time>2017-12-09T08:24:23Z</time>
      </trkpt>
      <trkpt lat="27.956257" lon="-15.533085">
        <ele>1534.80</ele>
        <time>2017-12-09T08:24:24Z</time>
      </trkpt>
      <trkpt lat="27.956245" lon="-15.533111">
        <ele>1534.79</ele>
        <time>2017-12-09T08:24:25Z</time>
      </trkpt>
      <trkpt lat="27.956237" lon="-15.533133">
        <ele>1534.57</ele>
        <time>2017-12-09T08:24:26Z</time>
      </trkpt>
      <trkpt lat="27.956225" lon="-15.533158">
        <ele>1533.90</ele>
        <time>2017-12-09T08:24:27Z</time>
      </trkpt>
      <trkpt lat="27.956215" lon="-15.533185">
        <ele>1533.89</ele>
        <time>2017-12-09T08:24:28Z</time>
      </trkpt>
      <trkpt lat="27.956204" lon="-15.533211">
        <ele>1533.71</ele>
        <time>2017-12-09T08:24:29Z</time>
      </trkpt>
      <trkpt lat="27.956191" lon="-15.533236">
        <ele>1533.89</ele>
        <time>2017-12-09T08:24:30Z</time>
      </trkpt>
      <trkpt lat="27.956178" lon="-15.533256">
        <ele>1533.68</ele>
        <time>2017-12-09T08:24:31Z</time>
      </trkpt>
      <trkpt lat="27.956164" lon="-15.533276">
        <ele>1533.19</ele>
        <time>2017-12-09T08:24:32Z</time>
      </trkpt>
      <trkpt lat="27.956151" lon="-15.533296">
        <ele>1532.89</ele>
        <time>2017-12-09T08:24:33Z</time>
      </trkpt>
      <trkpt lat="27.956137" lon="-15.533319">
        <ele>1532.71</ele>
        <time>2017-12-09T08:24:34Z</time>
      </trkpt>
      <trkpt lat="27.956125" lon="-15.533343">
        <ele>1532.88</ele>
        <time>2017-12-09T08:24:35Z</time>
      </trkpt>
      <trkpt lat="27.956115" lon="-15.533371">
        <ele>1532.00</ele>
        <time>2017-12-09T08:24:36Z</time>
      </trkpt>
      <trkpt lat="27.956110" lon="-15.533401">
        <ele>1532.00</ele>
        <time>2017-12-09T08:24:37Z</time>
      </trkpt>
      <trkpt lat="27.956112" lon="-15.533424">
        <ele>1531.96</ele>
        <time>2017-12-09T08:24:38Z</time>
      </trkpt>
      <trkpt lat="27.956114" lon="-15.533475">
        <ele>1530.97</ele>
        <time>2017-12-09T08:24:40Z</time>
      </trkpt>
      <trkpt lat="27.956099" lon="-15.533520">
        <ele>1530.30</ele>
        <time>2017-12-09T08:24:42Z</time>
      </trkpt>
      <trkpt lat="27.956076" lon="-15.533562">
        <ele>1530.33</ele>
        <time>2017-12-09T08:24:44Z</time>
      </trkpt>
      <trkpt lat="27.956051" lon="-15.533598">
        <ele>1531.30</ele>
        <time>2017-12-09T08:24:46Z</time>
      </trkpt>
      <trkpt lat="27.956036" lon="-15.533621">
        <ele>1531.30</ele>
        <time>2017-12-09T08:24:47Z</time>
      </trkpt>
      <trkpt lat="27.956026" lon="-15.533638">
        <ele>1531.30</ele>
        <time>2017-12-09T08:24:48Z</time>
      </trkpt>
      <trkpt lat="27.956016" lon="-15.533661">
        <ele>1531.29</ele>
        <time>2017-12-09T08:24:49Z</time>
      </trkpt>
      <trkpt lat="27.956006" lon="-15.533684">
        <ele>1531.20</ele>
        <time>2017-12-09T08:24:50Z</time>
      </trkpt>
      <trkpt lat="27.955994" lon="-15.533705">
        <ele>1531.18</ele>
        <time>2017-12-09T08:24:51Z</time>
      </trkpt>
      <trkpt lat="27.955985" lon="-15.533724">
        <ele>1530.90</ele>
        <time>2017-12-09T08:24:52Z</time>
      </trkpt>
      <trkpt lat="27.955970" lon="-15.533746">
        <ele>1530.90</ele>
        <time>2017-12-09T08:24:53Z</time>
      </trkpt>
      <trkpt lat="27.955956" lon="-15.533764">
        <ele>1530.90</ele>
        <time>2017-12-09T08:24:54Z</time>
      </trkpt>
      <trkpt lat="27.955927" lon="-15.533798">
        <ele>1530.88</ele>
        <time>2017-12-09T08:24:56Z</time>
      </trkpt>
      <trkpt lat="27.955912" lon="-15.533818">
        <ele>1530.60</ele>
        <time>2017-12-09T08:24:57Z</time>
      </trkpt>
      <trkpt lat="27.955896" lon="-15.533841">
        <ele>1530.54</ele>
        <time>2017-12-09T08:24:58Z</time>
      </trkpt>
      <trkpt lat="27.955880" lon="-15.533867">
        <ele>1529.88</ele>
        <time>2017-12-09T08:24:59Z</time>
      </trkpt>
      <trkpt lat="27.955866" lon="-15.533889">
        <ele>1529.72</ele>
        <time>2017-12-09T08:25:00Z</time>
      </trkpt>
      <trkpt lat="27.955840" lon="-15.533930">
        <ele>1529.90</ele>
        <time>2017-12-09T08:25:02Z</time>
      </trkpt>
      <trkpt lat="27.955787" lon="-15.534027">
        <ele>1529.36</ele>
        <time>2017-12-09T08:25:06Z</time>
      </trkpt>
      <trkpt lat="27.955744" lon="-15.534094">
        <ele>1529.80</ele>
        <time>2017-12-09T08:25:09Z</time>
      </trkpt>
      <trkpt lat="27.955688" lon="-15.534174">
        <ele>1529.70</ele>
        <time>2017-12-09T08:25:13Z</time>
      </trkpt>
      <trkpt lat="27.955657" lon="-15.534213">
        <ele>1528.29</ele>
        <time>2017-12-09T08:25:15Z</time>
      </trkpt>
      <trkpt lat="27.955608" lon="-15.534286">
        <ele>1528.23</ele>
        <time>2017-12-09T08:25:19Z</time>
      </trkpt>
      <trkpt lat="27.955596" lon="-15.534305">
        <ele>1528.40</ele>
        <time>2017-12-09T08:25:20Z</time>
      </trkpt>
      <trkpt lat="27.955583" lon="-15.534325">
        <ele>1528.45</ele>
        <time>2017-12-09T08:25:21Z</time>
      </trkpt>
      <trkpt lat="27.955571" lon="-15.534343">
        <ele>1528.96</ele>
        <time>2017-12-09T08:25:22Z</time>
      </trkpt>
      <trkpt lat="27.955564" lon="-15.534362">
        <ele>1530.00</ele>
        <time>2017-12-09T08:25:23Z</time>
      </trkpt>
      <trkpt lat="27.955553" lon="-15.534382">
        <ele>1529.10</ele>
        <time>2017-12-09T08:25:24Z</time>
      </trkpt>
      <trkpt lat="27.955542" lon="-15.534403">
        <ele>1529.10</ele>
        <time>2017-12-09T08:25:25Z</time>
      </trkpt>
      <trkpt lat="27.955521" lon="-15.534462">
        <ele>1529.14</ele>
        <time>2017-12-09T08:25:28Z</time>
      </trkpt>
      <trkpt lat="27.955499" lon="-15.534501">
        <ele>1529.30</ele>
        <time>2017-12-09T08:25:30Z</time>
      </trkpt>
      <trkpt lat="27.955487" lon="-15.534517">
        <ele>1529.51</ele>
        <time>2017-12-09T08:25:31Z</time>
      </trkpt>
      <trkpt lat="27.955476" lon="-15.534538">
        <ele>1530.15</ele>
        <time>2017-12-09T08:25:32Z</time>
      </trkpt>
      <trkpt lat="27.955453" lon="-15.534575">
        <ele>1530.56</ele>
        <time>2017-12-09T08:25:34Z</time>
      </trkpt>
      <trkpt lat="27.955439" lon="-15.534592">
        <ele>1530.40</ele>
        <time>2017-12-09T08:25:35Z</time>
      </trkpt>
      <trkpt lat="27.955376" lon="-15.534688">
        <ele>1530.50</ele>
        <time>2017-12-09T08:25:41Z</time>
      </trkpt>
      <trkpt lat="27.955354" lon="-15.534788">
        <ele>1530.30</ele>
        <time>2017-12-09T08:25:49Z</time>
      </trkpt>
      <trkpt lat="27.955297" lon="-15.534870">
        <ele>1531.33</ele>
        <time>2017-12-09T08:25:56Z</time>
      </trkpt>
      <trkpt lat="27.955278" lon="-15.534969">
        <ele>1532.23</ele>
        <time>2017-12-09T08:26:02Z</time>
      </trkpt>
      <trkpt lat="27.955266" lon="-15.534996">
        <ele>1532.41</ele>
        <time>2017-12-09T08:26:04Z</time>
      </trkpt>
      <trkpt lat="27.955263" lon="-15.535026">
        <ele>1532.90</ele>
        <time>2017-12-09T08:26:06Z</time>
      </trkpt>
      <trkpt lat="27.955253" lon="-15.535055">
        <ele>1533.23</ele>
        <time>2017-12-09T08:26:08Z</time>
      </trkpt>
      <trkpt lat="27.955243" lon="-15.535075">
        <ele>1534.56</ele>
        <time>2017-12-09T08:26:10Z</time>
      </trkpt>
      <trkpt lat="27.955232" lon="-15.535092">
        <ele>1534.70</ele>
        <time>2017-12-09T08:26:12Z</time>
      </trkpt>
      <trkpt lat="27.955225" lon="-15.535112">
        <ele>1534.58</ele>
        <time>2017-12-09T08:26:14Z</time>
      </trkpt>
      <trkpt lat="27.955219" lon="-15.535133">
        <ele>1534.30</ele>
        <time>2017-12-09T08:26:16Z</time>
      </trkpt>
      <trkpt lat="27.955211" lon="-15.535161">
        <ele>1534.46</ele>
        <time>2017-12-09T08:26:19Z</time>
      </trkpt>
      <trkpt lat="27.955203" lon="-15.535192">
        <ele>1535.06</ele>
        <time>2017-12-09T08:26:22Z</time>
      </trkpt>
      <trkpt lat="27.955200" lon="-15.535217">
        <ele>1535.33</ele>
        <time>2017-12-09T08:26:24Z</time>
      </trkpt>
      <trkpt lat="27.955195" lon="-15.535240">
        <ele>1535.53</ele>
        <time>2017-12-09T08:26:26Z</time>
      </trkpt>
      <trkpt lat="27.955188" lon="-15.535269">
        <ele>1535.73</ele>
        <time>2017-12-09T08:26:28Z</time>
      </trkpt>
      <trkpt lat="27.955174" lon="-15.535297">
        <ele>1536.63</ele>
        <time>2017-12-09T08:26:31Z</time>
      </trkpt>
      <trkpt lat="27.955164" lon="-15.535320">
        <ele>1537.30</ele>
        <time>2017-12-09T08:26:33Z</time>
      </trkpt>
      <trkpt lat="27.955146" lon="-15.535346">
        <ele>1537.43</ele>
        <time>2017-12-09T08:26:35Z</time>
      </trkpt>
      <trkpt lat="27.955131" lon="-15.535370">
        <ele>1537.90</ele>
        <time>2017-12-09T08:26:37Z</time>
      </trkpt>
      <trkpt lat="27.955119" lon="-15.535394">
        <ele>1538.00</ele>
        <time>2017-12-09T08:26:39Z</time>
      </trkpt>
      <trkpt lat="27.955108" lon="-15.535416">
        <ele>1538.11</ele>
        <time>2017-12-09T08:26:41Z</time>
      </trkpt>
      <trkpt lat="27.955095" lon="-15.535443">
        <ele>1538.80</ele>
        <time>2017-12-09T08:26:44Z</time>
      </trkpt>
      <trkpt lat="27.955084" lon="-15.535471">
        <ele>1539.23</ele>
        <time>2017-12-09T08:26:47Z</time>
      </trkpt>
      <trkpt lat="27.955072" lon="-15.535486">
        <ele>1539.33</ele>
        <time>2017-12-09T08:26:49Z</time>
      </trkpt>
      <trkpt lat="27.955054" lon="-15.535502">
        <ele>1539.49</ele>
        <time>2017-12-09T08:26:52Z</time>
      </trkpt>
      <trkpt lat="27.955046" lon="-15.535522">
        <ele>1539.94</ele>
        <time>2017-12-09T08:26:54Z</time>
      </trkpt>
      <trkpt lat="27.955041" lon="-15.535550">
        <ele>1540.36</ele>
        <time>2017-12-09T08:26:56Z</time>
      </trkpt>
      <trkpt lat="27.955030" lon="-15.535568">
        <ele>1540.53</ele>
        <time>2017-12-09T08:26:58Z</time>
      </trkpt>
      <trkpt lat="27.955020" lon="-15.535594">
        <ele>1540.70</ele>
        <time>2017-12-09T08:27:00Z</time>
      </trkpt>
      <trkpt lat="27.955009" lon="-15.535622">
        <ele>1541.03</ele>
        <time>2017-12-09T08:27:02Z</time>
      </trkpt>
      <trkpt lat="27.955008" lon="-15.535653">
        <ele>1541.46</ele>
        <time>2017-12-09T08:27:04Z</time>
      </trkpt>
      <trkpt lat="27.955005" lon="-15.535682">
        <ele>1541.60</ele>
        <time>2017-12-09T08:27:06Z</time>
      </trkpt>
      <trkpt lat="27.955001" lon="-15.535706">
        <ele>1541.70</ele>
        <time>2017-12-09T08:27:08Z</time>
      </trkpt>
      <trkpt lat="27.954992" lon="-15.535728">
        <ele>1541.86</ele>
        <time>2017-12-09T08:27:10Z</time>
      </trkpt>
      <trkpt lat="27.954985" lon="-15.535752">
        <ele>1541.90</ele>
        <time>2017-12-09T08:27:12Z</time>
      </trkpt>
      <trkpt lat="27.954978" lon="-15.535777">
        <ele>1542.20</ele>
        <time>2017-12-09T08:27:14Z</time>
      </trkpt>
      <trkpt lat="27.954965" lon="-15.535806">
        <ele>1542.20</ele>
        <time>2017-12-09T08:27:16Z</time>
      </trkpt>
      <trkpt lat="27.954954" lon="-15.535827">
        <ele>1542.20</ele>
        <time>2017-12-09T08:27:18Z</time>
      </trkpt>
      <trkpt lat="27.954944" lon="-15.535846">
        <ele>1542.51</ele>
        <time>2017-12-09T08:27:20Z</time>
      </trkpt>
      <trkpt lat="27.954931" lon="-15.535872">
        <ele>1542.59</ele>
        <time>2017-12-09T08:27:22Z</time>
      </trkpt>
      <trkpt lat="27.954928" lon="-15.535905">
        <ele>1542.90</ele>
        <time>2017-12-09T08:27:24Z</time>
      </trkpt>
      <trkpt lat="27.954920" lon="-15.535930">
        <ele>1543.10</ele>
        <time>2017-12-09T08:27:26Z</time>
      </trkpt>
      <trkpt lat="27.954909" lon="-15.535956">
        <ele>1543.30</ele>
        <time>2017-12-09T08:27:28Z</time>
      </trkpt>
      <trkpt lat="27.954897" lon="-15.535980">
        <ele>1543.30</ele>
        <time>2017-12-09T08:27:30Z</time>
      </trkpt>
      <trkpt lat="27.954895" lon="-15.536005">
        <ele>1543.40</ele>
        <time>2017-12-09T08:27:32Z</time>
      </trkpt>
      <trkpt lat="27.954891" lon="-15.536030">
        <ele>1543.45</ele>
        <time>2017-12-09T08:27:34Z</time>
      </trkpt>
      <trkpt lat="27.954889" lon="-15.536052">
        <ele>1543.75</ele>
        <time>2017-12-09T08:27:36Z</time>
      </trkpt>
      <trkpt lat="27.954881" lon="-15.536080">
        <ele>1543.95</ele>
        <time>2017-12-09T08:27:39Z</time>
      </trkpt>
      <trkpt lat="27.954872" lon="-15.536100">
        <ele>1544.13</ele>
        <time>2017-12-09T08:27:41Z</time>
      </trkpt>
      <trkpt lat="27.954861" lon="-15.536123">
        <ele>1544.30</ele>
        <time>2017-12-09T08:27:44Z</time>
      </trkpt>
      <trkpt lat="27.954859" lon="-15.536145">
        <ele>1544.80</ele>
        <time>2017-12-09T08:27:46Z</time>
      </trkpt>
      <trkpt lat="27.954860" lon="-15.536169">
        <ele>1545.10</ele>
        <time>2017-12-09T08:27:48Z</time>
      </trkpt>
      <trkpt lat="27.954856" lon="-15.536192">
        <ele>1545.47</ele>
        <time>2017-12-09T08:27:50Z</time>
      </trkpt>
      <trkpt lat="27.954849" lon="-15.536210">
        <ele>1545.60</ele>
        <time>2017-12-09T08:27:52Z</time>
      </trkpt>
      <trkpt lat="27.954845" lon="-15.536237">
        <ele>1546.13</ele>
        <time>2017-12-09T08:27:54Z</time>
      </trkpt>
      <trkpt lat="27.954842" lon="-15.536266">
        <ele>1546.23</ele>
        <time>2017-12-09T08:27:56Z</time>
      </trkpt>
      <trkpt lat="27.954845" lon="-15.536288">
        <ele>1546.36</ele>
        <time>2017-12-09T08:27:58Z</time>
      </trkpt>
      <trkpt lat="27.954841" lon="-15.536318">
        <ele>1546.60</ele>
        <time>2017-12-09T08:28:01Z</time>
      </trkpt>
      <trkpt lat="27.954833" lon="-15.536341">
        <ele>1547.00</ele>
        <time>2017-12-09T08:28:03Z</time>
      </trkpt>
      <trkpt lat="27.954830" lon="-15.536371">
        <ele>1547.13</ele>
        <time>2017-12-09T08:28:05Z</time>
      </trkpt>
      <trkpt lat="27.954831" lon="-15.536398">
        <ele>1547.20</ele>
        <time>2017-12-09T08:28:07Z</time>
      </trkpt>
      <trkpt lat="27.954837" lon="-15.536425">
        <ele>1547.10</ele>
        <time>2017-12-09T08:28:09Z</time>
      </trkpt>
      <trkpt lat="27.954842" lon="-15.536448">
        <ele>1547.80</ele>
        <time>2017-12-09T08:28:11Z</time>
      </trkpt>
      <trkpt lat="27.954849" lon="-15.536474">
        <ele>1547.80</ele>
        <time>2017-12-09T08:28:13Z</time>
      </trkpt>
      <trkpt lat="27.954854" lon="-15.536500">
        <ele>1548.10</ele>
        <time>2017-12-09T08:28:15Z</time>
      </trkpt>
      <trkpt lat="27.954860" lon="-15.536525">
        <ele>1548.09</ele>
        <time>2017-12-09T08:28:17Z</time>
      </trkpt>
      <trkpt lat="27.954862" lon="-15.536550">
        <ele>1548.04</ele>
        <time>2017-12-09T08:28:19Z</time>
      </trkpt>
      <trkpt lat="27.954867" lon="-15.536577">
        <ele>1548.60</ele>
        <time>2017-12-09T08:28:21Z</time>
      </trkpt>
      <trkpt lat="27.954869" lon="-15.536603">
        <ele>1548.76</ele>
        <time>2017-12-09T08:28:23Z</time>
      </trkpt>
      <trkpt lat="27.954869" lon="-15.536630">
        <ele>1549.10</ele>
        <time>2017-12-09T08:28:25Z</time>
      </trkpt>
      <trkpt lat="27.954864" lon="-15.536654">
        <ele>1549.12</ele>
        <time>2017-12-09T08:28:27Z</time>
      </trkpt>
      <trkpt lat="27.954864" lon="-15.536679">
        <ele>1549.20</ele>
        <time>2017-12-09T08:28:29Z</time>
      </trkpt>
      <trkpt lat="27.954862" lon="-15.536707">
        <ele>1549.20</ele>
        <time>2017-12-09T08:28:31Z</time>
      </trkpt>
      <trkpt lat="27.954857" lon="-15.536734">
        <ele>1549.20</ele>
        <time>2017-12-09T08:28:33Z</time>
      </trkpt>
      <trkpt lat="27.954852" lon="-15.536760">
        <ele>1549.18</ele>
        <time>2017-12-09T08:28:35Z</time>
      </trkpt>
      <trkpt lat="27.954851" lon="-15.536786">
        <ele>1549.04</ele>
        <time>2017-12-09T08:28:37Z</time>
      </trkpt>
      <trkpt lat="27.954857" lon="-15.536817">
        <ele>1549.10</ele>
        <time>2017-12-09T08:28:39Z</time>
      </trkpt>
      <trkpt lat="27.954854" lon="-15.536850">
        <ele>1549.10</ele>
        <time>2017-12-09T08:28:41Z</time>
      </trkpt>
      <trkpt lat="27.954854" lon="-15.536888">
        <ele>1549.10</ele>
        <time>2017-12-09T08:28:43Z</time>
      </trkpt>
      <trkpt lat="27.954857" lon="-15.536918">
        <ele>1549.49</ele>
        <time>2017-12-09T08:28:45Z</time>
      </trkpt>
      <trkpt lat="27.954868" lon="-15.536939">
        <ele>1549.75</ele>
        <time>2017-12-09T08:28:47Z</time>
      </trkpt>
      <trkpt lat="27.954879" lon="-15.536969">
        <ele>1549.95</ele>
        <time>2017-12-09T08:28:50Z</time>
      </trkpt>
      <trkpt lat="27.954890" lon="-15.536991">
        <ele>1550.10</ele>
        <time>2017-12-09T08:28:52Z</time>
      </trkpt>
      <trkpt lat="27.954905" lon="-15.537008">
        <ele>1550.85</ele>
        <time>2017-12-09T08:28:54Z</time>
      </trkpt>
      <trkpt lat="27.954906" lon="-15.537037">
        <ele>1551.10</ele>
        <time>2017-12-09T08:28:56Z</time>
      </trkpt>
      <trkpt lat="27.954906" lon="-15.537065">
        <ele>1551.22</ele>
        <time>2017-12-09T08:28:58Z</time>
      </trkpt>
      <trkpt lat="27.954907" lon="-15.537096">
        <ele>1551.30</ele>
        <time>2017-12-09T08:29:00Z</time>
      </trkpt>
      <trkpt lat="27.954903" lon="-15.537129">
        <ele>1551.80</ele>
        <time>2017-12-09T08:29:02Z</time>
      </trkpt>
      <trkpt lat="27.954912" lon="-15.537158">
        <ele>1552.22</ele>
        <time>2017-12-09T08:29:04Z</time>
      </trkpt>
      <trkpt lat="27.954923" lon="-15.537186">
        <ele>1552.30</ele>
        <time>2017-12-09T08:29:06Z</time>
      </trkpt>
      <trkpt lat="27.954930" lon="-15.537208">
        <ele>1552.35</ele>
        <time>2017-12-09T08:29:08Z</time>
      </trkpt>
      <trkpt lat="27.954938" lon="-15.537229">
        <ele>1552.85</ele>
        <time>2017-12-09T08:29:10Z</time>
      </trkpt>
      <trkpt lat="27.954951" lon="-15.537255">
        <ele>1553.00</ele>
        <time>2017-12-09T08:29:13Z</time>
      </trkpt>
      <trkpt lat="27.954964" lon="-15.537279">
        <ele>1553.28</ele>
        <time>2017-12-09T08:29:15Z</time>
      </trkpt>
      <trkpt lat="27.954970" lon="-15.537308">
        <ele>1553.63</ele>
        <time>2017-12-09T08:29:17Z</time>
      </trkpt>
      <trkpt lat="27.954976" lon="-15.537333">
        <ele>1553.78</ele>
        <time>2017-12-09T08:29:19Z</time>
      </trkpt>
      <trkpt lat="27.954980" lon="-15.537355">
        <ele>1554.25</ele>
        <time>2017-12-09T08:29:21Z</time>
      </trkpt>
      <trkpt lat="27.954983" lon="-15.537378">
        <ele>1554.23</ele>
        <time>2017-12-09T08:29:23Z</time>
      </trkpt>
      <trkpt lat="27.954988" lon="-15.537407">
        <ele>1554.75</ele>
        <time>2017-12-09T08:29:25Z</time>
      </trkpt>
      <trkpt lat="27.954993" lon="-15.537435">
        <ele>1555.08</ele>
        <time>2017-12-09T08:29:27Z</time>
      </trkpt>
      <trkpt lat="27.954997" lon="-15.537461">
        <ele>1555.40</ele>
        <time>2017-12-09T08:29:29Z</time>
      </trkpt>
      <trkpt lat="27.955005" lon="-15.537486">
        <ele>1555.30</ele>
        <time>2017-12-09T08:29:31Z</time>
      </trkpt>
      <trkpt lat="27.955006" lon="-15.537512">
        <ele>1555.30</ele>
        <time>2017-12-09T08:29:33Z</time>
      </trkpt>
      <trkpt lat="27.955005" lon="-15.537537">
        <ele>1555.51</ele>
        <time>2017-12-09T08:29:35Z</time>
      </trkpt>
      <trkpt lat="27.955009" lon="-15.537563">
        <ele>1556.08</ele>
        <time>2017-12-09T08:29:37Z</time>
      </trkpt>
      <trkpt lat="27.955017" lon="-15.537585">
        <ele>1556.30</ele>
        <time>2017-12-09T08:29:39Z</time>
      </trkpt>
      <trkpt lat="27.955031" lon="-15.537606">
        <ele>1556.30</ele>
        <time>2017-12-09T08:29:41Z</time>
      </trkpt>
      <trkpt lat="27.955036" lon="-15.537639">
        <ele>1556.80</ele>
        <time>2017-12-09T08:29:44Z</time>
      </trkpt>
      <trkpt lat="27.955037" lon="-15.537672">
        <ele>1557.31</ele>
        <time>2017-12-09T08:29:46Z</time>
      </trkpt>
      <trkpt lat="27.955041" lon="-15.537706">
        <ele>1557.67</ele>
        <time>2017-12-09T08:29:48Z</time>
      </trkpt>
      <trkpt lat="27.955051" lon="-15.537734">
        <ele>1557.50</ele>
        <time>2017-12-09T08:29:50Z</time>
      </trkpt>
      <trkpt lat="27.955063" lon="-15.537758">
        <ele>1557.76</ele>
        <time>2017-12-09T08:29:52Z</time>
      </trkpt>
      <trkpt lat="27.955068" lon="-15.537788">
        <ele>1557.90</ele>
        <time>2017-12-09T08:29:54Z</time>
      </trkpt>
      <trkpt lat="27.955078" lon="-15.537819">
        <ele>1558.66</ele>
        <time>2017-12-09T08:29:56Z</time>
      </trkpt>
      <trkpt lat="27.955087" lon="-15.537844">
        <ele>1558.90</ele>
        <time>2017-12-09T08:29:58Z</time>
      </trkpt>
      <trkpt lat="27.955096" lon="-15.537866">
        <ele>1559.23</ele>
        <time>2017-12-09T08:30:00Z</time>
      </trkpt>
      <trkpt lat="27.955103" lon="-15.537899">
        <ele>1559.73</ele>
        <time>2017-12-09T08:30:02Z</time>
      </trkpt>
      <trkpt lat="27.955111" lon="-15.537928">
        <ele>1559.83</ele>
        <time>2017-12-09T08:30:04Z</time>
      </trkpt>
      <trkpt lat="27.955115" lon="-15.537954">
        <ele>1560.10</ele>
        <time>2017-12-09T08:30:06Z</time>
      </trkpt>
      <trkpt lat="27.955120" lon="-15.537977">
        <ele>1560.10</ele>
        <time>2017-12-09T08:30:08Z</time>
      </trkpt>
      <trkpt lat="27.955122" lon="-15.538004">
        <ele>1560.10</ele>
        <time>2017-12-09T08:30:10Z</time>
      </trkpt>
      <trkpt lat="27.955123" lon="-15.538033">
        <ele>1560.21</ele>
        <time>2017-12-09T08:30:12Z</time>
      </trkpt>
      <trkpt lat="27.955129" lon="-15.538059">
        <ele>1560.57</ele>
        <time>2017-12-09T08:30:14Z</time>
      </trkpt>
      <trkpt lat="27.955133" lon="-15.538091">
        <ele>1560.47</ele>
        <time>2017-12-09T08:30:16Z</time>
      </trkpt>
      <trkpt lat="27.955144" lon="-15.538118">
        <ele>1560.30</ele>
        <time>2017-12-09T08:30:18Z</time>
      </trkpt>
      <trkpt lat="27.955159" lon="-15.538137">
        <ele>1560.30</ele>
        <time>2017-12-09T08:30:20Z</time>
      </trkpt>
      <trkpt lat="27.955165" lon="-15.538168">
        <ele>1560.81</ele>
        <time>2017-12-09T08:30:23Z</time>
      </trkpt>
      <trkpt lat="27.955174" lon="-15.538191">
        <ele>1561.33</ele>
        <time>2017-12-09T08:30:25Z</time>
      </trkpt>
      <trkpt lat="27.955176" lon="-15.538216">
        <ele>1561.70</ele>
        <time>2017-12-09T08:30:27Z</time>
      </trkpt>
      <trkpt lat="27.955183" lon="-15.538240">
        <ele>1561.55</ele>
        <time>2017-12-09T08:30:29Z</time>
      </trkpt>
      <trkpt lat="27.955190" lon="-15.538271">
        <ele>1561.70</ele>
        <time>2017-12-09T08:30:31Z</time>
      </trkpt>
      <trkpt lat="27.955200" lon="-15.538301">
        <ele>1561.87</ele>
        <time>2017-12-09T08:30:33Z</time>
      </trkpt>
      <trkpt lat="27.955210" lon="-15.538329">
        <ele>1562.60</ele>
        <time>2017-12-09T08:30:35Z</time>
      </trkpt>
      <trkpt lat="27.955215" lon="-15.538354">
        <ele>1563.00</ele>
        <time>2017-12-09T08:30:37Z</time>
      </trkpt>
      <trkpt lat="27.955223" lon="-15.538375">
        <ele>1563.00</ele>
        <time>2017-12-09T08:30:39Z</time>
      </trkpt>
      <trkpt lat="27.955221" lon="-15.538406">
        <ele>1563.10</ele>
        <time>2017-12-09T08:30:41Z</time>
      </trkpt>
      <trkpt lat="27.955224" lon="-15.538433">
        <ele>1563.48</ele>
        <time>2017-12-09T08:30:43Z</time>
      </trkpt>
      <trkpt lat="27.955222" lon="-15.538462">
        <ele>1564.13</ele>
        <time>2017-12-09T08:30:45Z</time>
      </trkpt>
      <trkpt lat="27.955230" lon="-15.538490">
        <ele>1564.25</ele>
        <time>2017-12-09T08:30:47Z</time>
      </trkpt>
      <trkpt lat="27.955239" lon="-15.538517">
        <ele>1564.70</ele>
        <time>2017-12-09T08:30:49Z</time>
      </trkpt>
      <trkpt lat="27.955252" lon="-15.538545">
        <ele>1564.93</ele>
        <time>2017-12-09T08:30:51Z</time>
      </trkpt>
      <trkpt lat="27.955263" lon="-15.538569">
        <ele>1565.33</ele>
        <time>2017-12-09T08:30:53Z</time>
      </trkpt>
      <trkpt lat="27.955268" lon="-15.538591">
        <ele>1565.53</ele>
        <time>2017-12-09T08:30:55Z</time>
      </trkpt>
      <trkpt lat="27.955271" lon="-15.538618">
        <ele>1566.12</ele>
        <time>2017-12-09T08:30:57Z</time>
      </trkpt>
      <trkpt lat="27.955270" lon="-15.538646">
        <ele>1566.73</ele>
        <time>2017-12-09T08:30:59Z</time>
      </trkpt>
      <trkpt lat="27.955273" lon="-15.538670">
        <ele>1566.98</ele>
        <time>2017-12-09T08:31:01Z</time>
      </trkpt>
      <trkpt lat="27.955295" lon="-15.538718">
        <ele>1567.66</ele>
        <time>2017-12-09T08:31:05Z</time>
      </trkpt>
      <trkpt lat="27.955302" lon="-15.538750">
        <ele>1568.17</ele>
        <time>2017-12-09T08:31:08Z</time>
      </trkpt>
      <trkpt lat="27.955318" lon="-15.538777">
        <ele>1568.73</ele>
        <time>2017-12-09T08:31:10Z</time>
      </trkpt>
      <trkpt lat="27.955320" lon="-15.538802">
        <ele>1568.93</ele>
        <time>2017-12-09T08:31:12Z</time>
      </trkpt>
      <trkpt lat="27.955329" lon="-15.538825">
        <ele>1569.50</ele>
        <time>2017-12-09T08:31:14Z</time>
      </trkpt>
      <trkpt lat="27.955338" lon="-15.538848">
        <ele>1570.06</ele>
        <time>2017-12-09T08:31:16Z</time>
      </trkpt>
      <trkpt lat="27.955347" lon="-15.538877">
        <ele>1570.37</ele>
        <time>2017-12-09T08:31:18Z</time>
      </trkpt>
      <trkpt lat="27.955357" lon="-15.538900">
        <ele>1570.53</ele>
        <time>2017-12-09T08:31:20Z</time>
      </trkpt>
      <trkpt lat="27.955363" lon="-15.538924">
        <ele>1571.30</ele>
        <time>2017-12-09T08:31:22Z</time>
      </trkpt>
      <trkpt lat="27.955371" lon="-15.538947">
        <ele>1571.27</ele>
        <time>2017-12-09T08:31:24Z</time>
      </trkpt>
      <trkpt lat="27.955382" lon="-15.538969">
        <ele>1571.20</ele>
        <time>2017-12-09T08:31:26Z</time>
      </trkpt>
      <trkpt lat="27.955393" lon="-15.539006">
        <ele>1571.60</ele>
        <time>2017-12-09T08:31:28Z</time>
      </trkpt>
      <trkpt lat="27.955403" lon="-15.539041">
        <ele>1572.13</ele>
        <time>2017-12-09T08:31:30Z</time>
      </trkpt>
      <trkpt lat="27.955412" lon="-15.539070">
        <ele>1572.10</ele>
        <time>2017-12-09T08:31:32Z</time>
      </trkpt>
      <trkpt lat="27.955417" lon="-15.539094">
        <ele>1572.60</ele>
        <time>2017-12-09T08:31:34Z</time>
      </trkpt>
      <trkpt lat="27.955428" lon="-15.539120">
        <ele>1572.60</ele>
        <time>2017-12-09T08:31:36Z</time>
      </trkpt>
      <trkpt lat="27.955440" lon="-15.539147">
        <ele>1572.60</ele>
        <time>2017-12-09T08:31:38Z</time>
      </trkpt>
      <trkpt lat="27.955447" lon="-15.539172">
        <ele>1573.25</ele>
        <time>2017-12-09T08:31:40Z</time>
      </trkpt>
      <trkpt lat="27.955462" lon="-15.539194">
        <ele>1573.90</ele>
        <time>2017-12-09T08:31:42Z</time>
      </trkpt>
      <trkpt lat="27.955470" lon="-15.539212">
        <ele>1574.25</ele>
        <time>2017-12-09T08:31:44Z</time>
      </trkpt>
      <trkpt lat="27.955476" lon="-15.539235">
        <ele>1574.22</ele>
        <time>2017-12-09T08:31:46Z</time>
      </trkpt>
      <trkpt lat="27.955488" lon="-15.539265">
        <ele>1574.62</ele>
        <time>2017-12-09T08:31:48Z</time>
      </trkpt>
      <trkpt lat="27.955499" lon="-15.539293">
        <ele>1575.08</ele>
        <time>2017-12-09T08:31:50Z</time>
      </trkpt>
      <trkpt lat="27.955512" lon="-15.539315">
        <ele>1574.98</ele>
        <time>2017-12-09T08:31:52Z</time>
      </trkpt>
      <trkpt lat="27.955518" lon="-15.539339">
        <ele>1575.12</ele>
        <time>2017-12-09T08:31:54Z</time>
      </trkpt>
      <trkpt lat="27.955529" lon="-15.539364">
        <ele>1575.20</ele>
        <time>2017-12-09T08:31:56Z</time>
      </trkpt>
      <trkpt lat="27.955539" lon="-15.539389">
        <ele>1575.41</ele>
        <time>2017-12-09T08:31:58Z</time>
      </trkpt>
      <trkpt lat="27.955545" lon="-15.539410">
        <ele>1576.40</ele>
        <time>2017-12-09T08:32:00Z</time>
      </trkpt>
      <trkpt lat="27.955554" lon="-15.539432">
        <ele>1576.42</ele>
        <time>2017-12-09T08:32:03Z</time>
      </trkpt>
      <trkpt lat="27.955563" lon="-15.539464">
        <ele>1576.50</ele>
        <time>2017-12-09T08:32:06Z</time>
      </trkpt>
      <trkpt lat="27.955575" lon="-15.539488">
        <ele>1576.26</ele>
        <time>2017-12-09T08:32:08Z</time>
      </trkpt>
      <trkpt lat="27.955586" lon="-15.539524">
        <ele>1577.20</ele>
        <time>2017-12-09T08:32:10Z</time>
      </trkpt>
      <trkpt lat="27.955593" lon="-15.539550">
        <ele>1577.31</ele>
        <time>2017-12-09T08:32:12Z</time>
      </trkpt>
      <trkpt lat="27.955608" lon="-15.539585">
        <ele>1577.82</ele>
        <time>2017-12-09T08:32:14Z</time>
      </trkpt>
      <trkpt lat="27.955649" lon="-15.539682">
        <ele>1578.74</ele>
        <time>2017-12-09T08:32:21Z</time>
      </trkpt>
      <trkpt lat="27.955659" lon="-15.539708">
        <ele>1578.90</ele>
        <time>2017-12-09T08:32:23Z</time>
      </trkpt>
      <trkpt lat="27.955661" lon="-15.539741">
        <ele>1579.46</ele>
        <time>2017-12-09T08:32:25Z</time>
      </trkpt>
      <trkpt lat="27.955672" lon="-15.539767">
        <ele>1580.00</ele>
        <time>2017-12-09T08:32:27Z</time>
      </trkpt>
      <trkpt lat="27.955689" lon="-15.539792">
        <ele>1580.42</ele>
        <time>2017-12-09T08:32:29Z</time>
      </trkpt>
      <trkpt lat="27.955704" lon="-15.539820">
        <ele>1580.58</ele>
        <time>2017-12-09T08:32:31Z</time>
      </trkpt>
      <trkpt lat="27.955707" lon="-15.539848">
        <ele>1580.34</ele>
        <time>2017-12-09T08:32:33Z</time>
      </trkpt>
      <trkpt lat="27.955719" lon="-15.539870">
        <ele>1580.17</ele>
        <time>2017-12-09T08:32:35Z</time>
      </trkpt>
      <trkpt lat="27.955722" lon="-15.539903">
        <ele>1580.50</ele>
        <time>2017-12-09T08:32:37Z</time>
      </trkpt>
      <trkpt lat="27.955721" lon="-15.539924">
        <ele>1580.92</ele>
        <time>2017-12-09T08:32:39Z</time>
      </trkpt>
      <trkpt lat="27.955727" lon="-15.540027">
        <ele>1582.50</ele>
        <time>2017-12-09T08:32:49Z</time>
      </trkpt>
      <trkpt lat="27.955749" lon="-15.540132">
        <ele>1583.62</ele>
        <time>2017-12-09T08:32:58Z</time>
      </trkpt>
      <trkpt lat="27.955785" lon="-15.540229">
        <ele>1585.36</ele>
        <time>2017-12-09T08:33:05Z</time>
      </trkpt>
      <trkpt lat="27.955805" lon="-15.540331">
        <ele>1585.64</ele>
        <time>2017-12-09T08:33:12Z</time>
      </trkpt>
      <trkpt lat="27.955805" lon="-15.540355">
        <ele>1585.80</ele>
        <time>2017-12-09T08:33:13Z</time>
      </trkpt>
      <trkpt lat="27.955804" lon="-15.540380">
        <ele>1585.98</ele>
        <time>2017-12-09T08:33:15Z</time>
      </trkpt>
      <trkpt lat="27.955803" lon="-15.540409">
        <ele>1586.20</ele>
        <time>2017-12-09T08:33:17Z</time>
      </trkpt>
      <trkpt lat="27.955807" lon="-15.540433">
        <ele>1586.38</ele>
        <time>2017-12-09T08:33:19Z</time>
      </trkpt>
      <trkpt lat="27.955813" lon="-15.540466">
        <ele>1587.10</ele>
        <time>2017-12-09T08:33:21Z</time>
      </trkpt>
      <trkpt lat="27.955816" lon="-15.540492">
        <ele>1587.24</ele>
        <time>2017-12-09T08:33:23Z</time>
      </trkpt>
      <trkpt lat="27.955828" lon="-15.540528">
        <ele>1587.72</ele>
        <time>2017-12-09T08:33:25Z</time>
      </trkpt>
      <trkpt lat="27.955835" lon="-15.540556">
        <ele>1587.92</ele>
        <time>2017-12-09T08:33:27Z</time>
      </trkpt>
      <trkpt lat="27.955844" lon="-15.540589">
        <ele>1588.30</ele>
        <time>2017-12-09T08:33:29Z</time>
      </trkpt>
      <trkpt lat="27.955859" lon="-15.540638">
        <ele>1588.70</ele>
        <time>2017-12-09T08:33:33Z</time>
      </trkpt>
      <trkpt lat="27.955869" lon="-15.540683">
        <ele>1589.06</ele>
        <time>2017-12-09T08:33:36Z</time>
      </trkpt>
      <trkpt lat="27.955876" lon="-15.540703">
        <ele>1589.30</ele>
        <time>2017-12-09T08:33:37Z</time>
      </trkpt>
      <trkpt lat="27.955884" lon="-15.540728">
        <ele>1589.30</ele>
        <time>2017-12-09T08:33:39Z</time>
      </trkpt>
      <trkpt lat="27.955895" lon="-15.540770">
        <ele>1589.40</ele>
        <time>2017-12-09T08:33:42Z</time>
      </trkpt>
      <trkpt lat="27.955898" lon="-15.540798">
        <ele>1589.40</ele>
        <time>2017-12-09T08:33:44Z</time>
      </trkpt>
      <trkpt lat="27.955906" lon="-15.540845">
        <ele>1590.16</ele>
        <time>2017-12-09T08:33:48Z</time>
      </trkpt>
      <trkpt lat="27.955914" lon="-15.540874">
        <ele>1590.76</ele>
        <time>2017-12-09T08:33:50Z</time>
      </trkpt>
      <trkpt lat="27.955926" lon="-15.540910">
        <ele>1591.32</ele>
        <time>2017-12-09T08:33:52Z</time>
      </trkpt>
      <trkpt lat="27.955937" lon="-15.540940">
        <ele>1591.46</ele>
        <time>2017-12-09T08:33:53Z</time>
      </trkpt>
      <trkpt lat="27.955944" lon="-15.540960">
        <ele>1591.74</ele>
        <time>2017-12-09T08:33:54Z</time>
      </trkpt>
      <trkpt lat="27.955952" lon="-15.540991">
        <ele>1592.70</ele>
        <time>2017-12-09T08:33:56Z</time>
      </trkpt>
      <trkpt lat="27.955966" lon="-15.541016">
        <ele>1592.86</ele>
        <time>2017-12-09T08:33:58Z</time>
      </trkpt>
      <trkpt lat="27.955979" lon="-15.541044">
        <ele>1592.72</ele>
        <time>2017-12-09T08:34:00Z</time>
      </trkpt>
      <trkpt lat="27.955993" lon="-15.541067">
        <ele>1592.80</ele>
        <time>2017-12-09T08:34:02Z</time>
      </trkpt>
      <trkpt lat="27.956007" lon="-15.541096">
        <ele>1592.80</ele>
        <time>2017-12-09T08:34:04Z</time>
      </trkpt>
      <trkpt lat="27.956024" lon="-15.541197">
        <ele>1593.30</ele>
        <time>2017-12-09T08:34:09Z</time>
      </trkpt>
      <trkpt lat="27.956029" lon="-15.541218">
        <ele>1593.30</ele>
        <time>2017-12-09T08:34:10Z</time>
      </trkpt>
      <trkpt lat="27.956044" lon="-15.541250">
        <ele>1593.62</ele>
        <time>2017-12-09T08:34:12Z</time>
      </trkpt>
      <trkpt lat="27.956054" lon="-15.541274">
        <ele>1594.10</ele>
        <time>2017-12-09T08:34:14Z</time>
      </trkpt>
      <trkpt lat="27.956068" lon="-15.541292">
        <ele>1594.12</ele>
        <time>2017-12-09T08:34:16Z</time>
      </trkpt>
      <trkpt lat="27.956085" lon="-15.541313">
        <ele>1594.30</ele>
        <time>2017-12-09T08:34:18Z</time>
      </trkpt>
      <trkpt lat="27.956106" lon="-15.541339">
        <ele>1594.64</ele>
        <time>2017-12-09T08:34:20Z</time>
      </trkpt>
      <trkpt lat="27.956131" lon="-15.541358">
        <ele>1595.00</ele>
        <time>2017-12-09T08:34:22Z</time>
      </trkpt>
      <trkpt lat="27.956156" lon="-15.541370">
        <ele>1595.56</ele>
        <time>2017-12-09T08:34:24Z</time>
      </trkpt>
      <trkpt lat="27.956172" lon="-15.541395">
        <ele>1595.94</ele>
        <time>2017-12-09T08:34:26Z</time>
      </trkpt>
      <trkpt lat="27.956189" lon="-15.541411">
        <ele>1597.00</ele>
        <time>2017-12-09T08:34:29Z</time>
      </trkpt>
      <trkpt lat="27.956218" lon="-15.541433">
        <ele>1597.08</ele>
        <time>2017-12-09T08:34:31Z</time>
      </trkpt>
      <trkpt lat="27.956232" lon="-15.541458">
        <ele>1597.80</ele>
        <time>2017-12-09T08:34:33Z</time>
      </trkpt>
      <trkpt lat="27.956246" lon="-15.541478">
        <ele>1597.90</ele>
        <time>2017-12-09T08:34:35Z</time>
      </trkpt>
      <trkpt lat="27.956266" lon="-15.541502">
        <ele>1598.13</ele>
        <time>2017-12-09T08:34:37Z</time>
      </trkpt>
      <trkpt lat="27.956279" lon="-15.541516">
        <ele>1598.75</ele>
        <time>2017-12-09T08:34:38Z</time>
      </trkpt>
      <trkpt lat="27.956296" lon="-15.541531">
        <ele>1599.16</ele>
        <time>2017-12-09T08:34:40Z</time>
      </trkpt>
      <trkpt lat="27.956315" lon="-15.541554">
        <ele>1599.42</ele>
        <time>2017-12-09T08:34:42Z</time>
      </trkpt>
      <trkpt lat="27.956346" lon="-15.541574">
        <ele>1600.10</ele>
        <time>2017-12-09T08:34:44Z</time>
      </trkpt>
      <trkpt lat="27.956372" lon="-15.541588">
        <ele>1600.10</ele>
        <time>2017-12-09T08:34:46Z</time>
      </trkpt>
      <trkpt lat="27.956391" lon="-15.541595">
        <ele>1600.16</ele>
        <time>2017-12-09T08:34:47Z</time>
      </trkpt>
      <trkpt lat="27.956414" lon="-15.541606">
        <ele>1600.64</ele>
        <time>2017-12-09T08:34:49Z</time>
      </trkpt>
      <trkpt lat="27.956433" lon="-15.541612">
        <ele>1601.36</ele>
        <time>2017-12-09T08:34:51Z</time>
      </trkpt>
      <trkpt lat="27.956453" lon="-15.541617">
        <ele>1602.20</ele>
        <time>2017-12-09T08:34:55Z</time>
      </trkpt>
      <trkpt lat="27.956467" lon="-15.541640">
        <ele>1602.40</ele>
        <time>2017-12-09T08:34:58Z</time>
      </trkpt>
      <trkpt lat="27.956479" lon="-15.541659">
        <ele>1603.22</ele>
        <time>2017-12-09T08:35:00Z</time>
      </trkpt>
      <trkpt lat="27.956489" lon="-15.541678">
        <ele>1603.62</ele>
        <time>2017-12-09T08:35:02Z</time>
      </trkpt>
      <trkpt lat="27.956501" lon="-15.541703">
        <ele>1604.21</ele>
        <time>2017-12-09T08:35:04Z</time>
      </trkpt>
      <trkpt lat="27.956506" lon="-15.541735">
        <ele>1604.88</ele>
        <time>2017-12-09T08:35:07Z</time>
      </trkpt>
      <trkpt lat="27.956513" lon="-15.541759">
        <ele>1605.60</ele>
        <time>2017-12-09T08:35:09Z</time>
      </trkpt>
      <trkpt lat="27.956522" lon="-15.541785">
        <ele>1606.03</ele>
        <time>2017-12-09T08:35:11Z</time>
      </trkpt>
      <trkpt lat="27.956533" lon="-15.541809">
        <ele>1606.10</ele>
        <time>2017-12-09T08:35:13Z</time>
      </trkpt>
      <trkpt lat="27.956543" lon="-15.541838">
        <ele>1606.80</ele>
        <time>2017-12-09T08:35:16Z</time>
      </trkpt>
      <trkpt lat="27.956550" lon="-15.541860">
        <ele>1606.83</ele>
        <time>2017-12-09T08:35:18Z</time>
      </trkpt>
      <trkpt lat="27.956564" lon="-15.541883">
        <ele>1607.50</ele>
        <time>2017-12-09T08:35:20Z</time>
      </trkpt>
      <trkpt lat="27.956579" lon="-15.541908">
        <ele>1608.21</ele>
        <time>2017-12-09T08:35:23Z</time>
      </trkpt>
      <trkpt lat="27.956586" lon="-15.541931">
        <ele>1608.60</ele>
        <time>2017-12-09T08:35:25Z</time>
      </trkpt>
      <trkpt lat="27.956596" lon="-15.541949">
        <ele>1609.30</ele>
        <time>2017-12-09T08:35:27Z</time>
      </trkpt>
      <trkpt lat="27.956606" lon="-15.541967">
        <ele>1609.72</ele>
        <time>2017-12-09T08:35:29Z</time>
      </trkpt>
      <trkpt lat="27.956615" lon="-15.541990">
        <ele>1610.30</ele>
        <time>2017-12-09T08:35:31Z</time>
      </trkpt>
      <trkpt lat="27.956624" lon="-15.542010">
        <ele>1610.40</ele>
        <time>2017-12-09T08:35:33Z</time>
      </trkpt>
      <trkpt lat="27.956644" lon="-15.542024">
        <ele>1610.52</ele>
        <time>2017-12-09T08:35:35Z</time>
      </trkpt>
      <trkpt lat="27.956660" lon="-15.542038">
        <ele>1611.11</ele>
        <time>2017-12-09T08:35:37Z</time>
      </trkpt>
      <trkpt lat="27.956673" lon="-15.542054">
        <ele>1611.52</ele>
        <time>2017-12-09T08:35:39Z</time>
      </trkpt>
      <trkpt lat="27.956693" lon="-15.542070">
        <ele>1612.40</ele>
        <time>2017-12-09T08:35:42Z</time>
      </trkpt>
      <trkpt lat="27.956699" lon="-15.542091">
        <ele>1613.80</ele>
        <time>2017-12-09T08:35:45Z</time>
      </trkpt>
      <trkpt lat="27.956710" lon="-15.542120">
        <ele>1614.70</ele>
        <time>2017-12-09T08:35:48Z</time>
      </trkpt>
      <trkpt lat="27.956720" lon="-15.542144">
        <ele>1615.20</ele>
        <time>2017-12-09T08:35:51Z</time>
      </trkpt>
      <trkpt lat="27.956728" lon="-15.542165">
        <ele>1615.20</ele>
        <time>2017-12-09T08:35:53Z</time>
      </trkpt>
      <trkpt lat="27.956740" lon="-15.542188">
        <ele>1615.70</ele>
        <time>2017-12-09T08:35:56Z</time>
      </trkpt>
      <trkpt lat="27.956755" lon="-15.542204">
        <ele>1616.31</ele>
        <time>2017-12-09T08:35:59Z</time>
      </trkpt>
      <trkpt lat="27.956775" lon="-15.542218">
        <ele>1617.61</ele>
        <time>2017-12-09T08:36:02Z</time>
      </trkpt>
      <trkpt lat="27.956791" lon="-15.542233">
        <ele>1618.70</ele>
        <time>2017-12-09T08:36:05Z</time>
      </trkpt>
      <trkpt lat="27.956813" lon="-15.542243">
        <ele>1619.10</ele>
        <time>2017-12-09T08:36:08Z</time>
      </trkpt>
      <trkpt lat="27.956836" lon="-15.542258">
        <ele>1619.50</ele>
        <time>2017-12-09T08:36:11Z</time>
      </trkpt>
      <trkpt lat="27.956853" lon="-15.542268">
        <ele>1619.91</ele>
        <time>2017-12-09T08:36:13Z</time>
      </trkpt>
      <trkpt lat="27.956876" lon="-15.542268">
        <ele>1620.61</ele>
        <time>2017-12-09T08:36:15Z</time>
      </trkpt>
      <trkpt lat="27.956905" lon="-15.542259">
        <ele>1621.11</ele>
        <time>2017-12-09T08:36:18Z</time>
      </trkpt>
      <trkpt lat="27.956923" lon="-15.542249">
        <ele>1621.70</ele>
        <time>2017-12-09T08:36:20Z</time>
      </trkpt>
      <trkpt lat="27.956938" lon="-15.542268">
        <ele>1623.15</ele>
        <time>2017-12-09T08:36:25Z</time>
      </trkpt>
      <trkpt lat="27.956957" lon="-15.542277">
        <ele>1623.60</ele>
        <time>2017-12-09T08:36:27Z</time>
      </trkpt>
      <trkpt lat="27.956984" lon="-15.542274">
        <ele>1624.32</ele>
        <time>2017-12-09T08:36:30Z</time>
      </trkpt>
      <trkpt lat="27.957004" lon="-15.542259">
        <ele>1625.42</ele>
        <time>2017-12-09T08:36:33Z</time>
      </trkpt>
      <trkpt lat="27.957027" lon="-15.542247">
        <ele>1626.40</ele>
        <time>2017-12-09T08:36:36Z</time>
      </trkpt>
      <trkpt lat="27.957044" lon="-15.542224">
        <ele>1626.56</ele>
        <time>2017-12-09T08:36:39Z</time>
      </trkpt>
      <trkpt lat="27.957045" lon="-15.542194">
        <ele>1627.03</ele>
        <time>2017-12-09T08:36:42Z</time>
      </trkpt>
      <trkpt lat="27.957060" lon="-15.542175">
        <ele>1627.97</ele>
        <time>2017-12-09T08:36:46Z</time>
      </trkpt>
      <trkpt lat="27.957078" lon="-15.542171">
        <ele>1628.60</ele>
        <time>2017-12-09T08:36:48Z</time>
      </trkpt>
      <trkpt lat="27.957086" lon="-15.542190">
        <ele>1629.10</ele>
        <time>2017-12-09T08:36:51Z</time>
      </trkpt>
      <trkpt lat="27.957098" lon="-15.542216">
        <ele>1629.80</ele>
        <time>2017-12-09T08:36:55Z</time>
      </trkpt>
      <trkpt lat="27.957114" lon="-15.542235">
        <ele>1630.39</ele>
        <time>2017-12-09T08:36:58Z</time>
      </trkpt>
      <trkpt lat="27.957130" lon="-15.542254">
        <ele>1631.34</ele>
        <time>2017-12-09T08:37:01Z</time>
      </trkpt>
      <trkpt lat="27.957144" lon="-15.542269">
        <ele>1632.00</ele>
        <time>2017-12-09T08:37:05Z</time>
      </trkpt>
      <trkpt lat="27.957159" lon="-15.542249">
        <ele>1632.13</ele>
        <time>2017-12-09T08:37:08Z</time>
      </trkpt>
      <trkpt lat="27.957173" lon="-15.542235">
        <ele>1632.40</ele>
        <time>2017-12-09T08:37:10Z</time>
      </trkpt>
      <trkpt lat="27.957186" lon="-15.542220">
        <ele>1634.00</ele>
        <time>2017-12-09T08:37:12Z</time>
      </trkpt>
      <trkpt lat="27.957201" lon="-15.542202">
        <ele>1634.63</ele>
        <time>2017-12-09T08:37:14Z</time>
      </trkpt>
      <trkpt lat="27.957222" lon="-15.542183">
        <ele>1634.70</ele>
        <time>2017-12-09T08:37:17Z</time>
      </trkpt>
      <trkpt lat="27.957245" lon="-15.542168">
        <ele>1635.33</ele>
        <time>2017-12-09T08:37:20Z</time>
      </trkpt>
      <trkpt lat="27.957258" lon="-15.542154">
        <ele>1636.04</ele>
        <time>2017-12-09T08:37:22Z</time>
      </trkpt>
      <trkpt lat="27.957271" lon="-15.542131">
        <ele>1636.31</ele>
        <time>2017-12-09T08:37:25Z</time>
      </trkpt>
      <trkpt lat="27.957289" lon="-15.542115">
        <ele>1637.30</ele>
        <time>2017-12-09T08:37:28Z</time>
      </trkpt>
      <trkpt lat="27.957306" lon="-15.542106">
        <ele>1637.87</ele>
        <time>2017-12-09T08:37:31Z</time>
      </trkpt>
      <trkpt lat="27.957320" lon="-15.542126">
        <ele>1638.61</ele>
        <time>2017-12-09T08:37:35Z</time>
      </trkpt>
      <trkpt lat="27.957319" lon="-15.542153">
        <ele>1639.20</ele>
        <time>2017-12-09T08:37:38Z</time>
      </trkpt>
      <trkpt lat="27.957314" lon="-15.542175">
        <ele>1640.21</ele>
        <time>2017-12-09T08:37:41Z</time>
      </trkpt>
      <trkpt lat="27.957316" lon="-15.542202">
        <ele>1640.70</ele>
        <time>2017-12-09T08:37:44Z</time>
      </trkpt>
      <trkpt lat="27.957328" lon="-15.542220">
        <ele>1640.96</ele>
        <time>2017-12-09T08:37:49Z</time>
      </trkpt>
      <trkpt lat="27.957344" lon="-15.542238">
        <ele>1641.47</ele>
        <time>2017-12-09T08:37:52Z</time>
      </trkpt>
      <trkpt lat="27.957361" lon="-15.542254">
        <ele>1642.93</ele>
        <time>2017-12-09T08:37:55Z</time>
      </trkpt>
      <trkpt lat="27.957365" lon="-15.542275">
        <ele>1643.63</ele>
        <time>2017-12-09T08:37:57Z</time>
      </trkpt>
      <trkpt lat="27.957373" lon="-15.542294">
        <ele>1643.67</ele>
        <time>2017-12-09T08:37:59Z</time>
      </trkpt>
      <trkpt lat="27.957384" lon="-15.542318">
        <ele>1644.77</ele>
        <time>2017-12-09T08:38:03Z</time>
      </trkpt>
      <trkpt lat="27.957380" lon="-15.542338">
        <ele>1645.40</ele>
        <time>2017-12-09T08:38:06Z</time>
      </trkpt>
      <trkpt lat="27.957388" lon="-15.542362">
        <ele>1646.30</ele>
        <time>2017-12-09T08:38:09Z</time>
      </trkpt>
      <trkpt lat="27.957408" lon="-15.542367">
        <ele>1646.70</ele>
        <time>2017-12-09T08:38:12Z</time>
      </trkpt>
      <trkpt lat="27.957433" lon="-15.542357">
        <ele>1647.59</ele>
        <time>2017-12-09T08:38:15Z</time>
      </trkpt>
      <trkpt lat="27.957450" lon="-15.542346">
        <ele>1648.69</ele>
        <time>2017-12-09T08:38:20Z</time>
      </trkpt>
      <trkpt lat="27.957472" lon="-15.542328">
        <ele>1649.70</ele>
        <time>2017-12-09T08:38:23Z</time>
      </trkpt>
      <trkpt lat="27.957490" lon="-15.542312">
        <ele>1649.82</ele>
        <time>2017-12-09T08:38:25Z</time>
      </trkpt>
      <trkpt lat="27.957507" lon="-15.542302">
        <ele>1649.90</ele>
        <time>2017-12-09T08:38:27Z</time>
      </trkpt>
      <trkpt lat="27.957526" lon="-15.542292">
        <ele>1650.28</ele>
        <time>2017-12-09T08:38:29Z</time>
      </trkpt>
      <trkpt lat="27.957547" lon="-15.542284">
        <ele>1650.60</ele>
        <time>2017-12-09T08:38:31Z</time>
      </trkpt>
      <trkpt lat="27.957568" lon="-15.542272">
        <ele>1652.16</ele>
        <time>2017-12-09T08:38:34Z</time>
      </trkpt>
      <trkpt lat="27.957585" lon="-15.542263">
        <ele>1652.30</ele>
        <time>2017-12-09T08:38:36Z</time>
      </trkpt>
      <trkpt lat="27.957606" lon="-15.542254">
        <ele>1652.42</ele>
        <time>2017-12-09T08:38:38Z</time>
      </trkpt>
      <trkpt lat="27.957624" lon="-15.542237">
        <ele>1653.13</ele>
        <time>2017-12-09T08:38:41Z</time>
      </trkpt>
      <trkpt lat="27.957639" lon="-15.542219">
        <ele>1653.56</ele>
        <time>2017-12-09T08:38:44Z</time>
      </trkpt>
      <trkpt lat="27.957657" lon="-15.542210">
        <ele>1654.13</ele>
        <time>2017-12-09T08:38:47Z</time>
      </trkpt>
      <trkpt lat="27.957679" lon="-15.542209">
        <ele>1655.20</ele>
        <time>2017-12-09T08:38:51Z</time>
      </trkpt>
      <trkpt lat="27.957702" lon="-15.542214">
        <ele>1656.37</ele>
        <time>2017-12-09T08:38:55Z</time>
      </trkpt>
      <trkpt lat="27.957719" lon="-15.542225">
        <ele>1656.70</ele>
        <time>2017-12-09T08:38:57Z</time>
      </trkpt>
      <trkpt lat="27.957738" lon="-15.542242">
        <ele>1657.43</ele>
        <time>2017-12-09T08:39:00Z</time>
      </trkpt>
      <trkpt lat="27.957756" lon="-15.542251">
        <ele>1657.90</ele>
        <time>2017-12-09T08:39:04Z</time>
      </trkpt>
      <trkpt lat="27.957776" lon="-15.542260">
        <ele>1658.90</ele>
        <time>2017-12-09T08:39:07Z</time>
      </trkpt>
      <trkpt lat="27.957795" lon="-15.542274">
        <ele>1659.30</ele>
        <time>2017-12-09T08:39:10Z</time>
      </trkpt>
      <trkpt lat="27.957821" lon="-15.542282">
        <ele>1659.90</ele>
        <time>2017-12-09T08:39:13Z</time>
      </trkpt>
      <trkpt lat="27.957843" lon="-15.542282">
        <ele>1660.50</ele>
        <time>2017-12-09T08:39:16Z</time>
      </trkpt>
      <trkpt lat="27.957868" lon="-15.542285">
        <ele>1661.20</ele>
        <time>2017-12-09T08:39:20Z</time>
      </trkpt>
      <trkpt lat="27.957883" lon="-15.542300">
        <ele>1661.47</ele>
        <time>2017-12-09T08:39:23Z</time>
      </trkpt>
      <trkpt lat="27.957902" lon="-15.542305">
        <ele>1662.54</ele>
        <time>2017-12-09T08:39:25Z</time>
      </trkpt>
      <trkpt lat="27.957989" lon="-15.542314">
        <ele>1664.74</ele>
        <time>2017-12-09T08:39:37Z</time>
      </trkpt>
      <trkpt lat="27.958007" lon="-15.542332">
        <ele>1665.04</ele>
        <time>2017-12-09T08:39:39Z</time>
      </trkpt>
      <trkpt lat="27.958032" lon="-15.542348">
        <ele>1665.34</ele>
        <time>2017-12-09T08:39:41Z</time>
      </trkpt>
      <trkpt lat="27.958046" lon="-15.542361">
        <ele>1665.63</ele>
        <time>2017-12-09T08:39:43Z</time>
      </trkpt>
      <trkpt lat="27.958070" lon="-15.542366">
        <ele>1665.90</ele>
        <time>2017-12-09T08:39:45Z</time>
      </trkpt>
      <trkpt lat="27.958093" lon="-15.542364">
        <ele>1666.20</ele>
        <time>2017-12-09T08:39:47Z</time>
      </trkpt>
      <trkpt lat="27.958117" lon="-15.542359">
        <ele>1666.47</ele>
        <time>2017-12-09T08:39:49Z</time>
      </trkpt>
      <trkpt lat="27.958138" lon="-15.542355">
        <ele>1666.90</ele>
        <time>2017-12-09T08:39:51Z</time>
      </trkpt>
      <trkpt lat="27.958162" lon="-15.542349">
        <ele>1667.63</ele>
        <time>2017-12-09T08:39:53Z</time>
      </trkpt>
      <trkpt lat="27.958180" lon="-15.542354">
        <ele>1667.77</ele>
        <time>2017-12-09T08:39:55Z</time>
      </trkpt>
      <trkpt lat="27.958204" lon="-15.542349">
        <ele>1667.93</ele>
        <time>2017-12-09T08:39:57Z</time>
      </trkpt>
      <trkpt lat="27.958225" lon="-15.542347">
        <ele>1668.80</ele>
        <time>2017-12-09T08:39:59Z</time>
      </trkpt>
      <trkpt lat="27.958247" lon="-15.542352">
        <ele>1669.30</ele>
        <time>2017-12-09T08:40:01Z</time>
      </trkpt>
      <trkpt lat="27.958272" lon="-15.542352">
        <ele>1669.51</ele>
        <time>2017-12-09T08:40:03Z</time>
      </trkpt>
      <trkpt lat="27.958302" lon="-15.542351">
        <ele>1669.81</ele>
        <time>2017-12-09T08:40:05Z</time>
      </trkpt>
      <trkpt lat="27.958327" lon="-15.542331">
        <ele>1670.50</ele>
        <time>2017-12-09T08:40:07Z</time>
      </trkpt>
      <trkpt lat="27.958347" lon="-15.542324">
        <ele>1670.53</ele>
        <time>2017-12-09T08:40:09Z</time>
      </trkpt>
      <trkpt lat="27.958374" lon="-15.542319">
        <ele>1671.08</ele>
        <time>2017-12-09T08:40:11Z</time>
      </trkpt>
      <trkpt lat="27.958394" lon="-15.542322">
        <ele>1672.06</ele>
        <time>2017-12-09T08:40:13Z</time>
      </trkpt>
      <trkpt lat="27.958414" lon="-15.542332">
        <ele>1672.10</ele>
        <time>2017-12-09T08:40:15Z</time>
      </trkpt>
      <trkpt lat="27.958435" lon="-15.542344">
        <ele>1672.20</ele>
        <time>2017-12-09T08:40:17Z</time>
      </trkpt>
      <trkpt lat="27.958452" lon="-15.542361">
        <ele>1672.20</ele>
        <time>2017-12-09T08:40:19Z</time>
      </trkpt>
      <trkpt lat="27.958472" lon="-15.542382">
        <ele>1672.26</ele>
        <time>2017-12-09T08:40:21Z</time>
      </trkpt>
      <trkpt lat="27.958491" lon="-15.542399">
        <ele>1672.44</ele>
        <time>2017-12-09T08:40:23Z</time>
      </trkpt>
      <trkpt lat="27.958510" lon="-15.542424">
        <ele>1672.51</ele>
        <time>2017-12-09T08:40:25Z</time>
      </trkpt>
      <trkpt lat="27.958527" lon="-15.542443">
        <ele>1672.70</ele>
        <time>2017-12-09T08:40:27Z</time>
      </trkpt>
      <trkpt lat="27.958552" lon="-15.542464">
        <ele>1672.40</ele>
        <time>2017-12-09T08:40:30Z</time>
      </trkpt>
      <trkpt lat="27.958575" lon="-15.542485">
        <ele>1672.30</ele>
        <time>2017-12-09T08:40:32Z</time>
      </trkpt>
      <trkpt lat="27.958600" lon="-15.542505">
        <ele>1672.41</ele>
        <time>2017-12-09T08:40:34Z</time>
      </trkpt>
      <trkpt lat="27.958622" lon="-15.542530">
        <ele>1672.80</ele>
        <time>2017-12-09T08:40:36Z</time>
      </trkpt>
      <trkpt lat="27.958647" lon="-15.542549">
        <ele>1672.93</ele>
        <time>2017-12-09T08:40:38Z</time>
      </trkpt>
      <trkpt lat="27.958674" lon="-15.542566">
        <ele>1673.13</ele>
        <time>2017-12-09T08:40:40Z</time>
      </trkpt>
      <trkpt lat="27.958698" lon="-15.542584">
        <ele>1673.03</ele>
        <time>2017-12-09T08:40:42Z</time>
      </trkpt>
      <trkpt lat="27.958722" lon="-15.542600">
        <ele>1673.23</ele>
        <time>2017-12-09T08:40:44Z</time>
      </trkpt>
      <trkpt lat="27.958742" lon="-15.542621">
        <ele>1673.43</ele>
        <time>2017-12-09T08:40:46Z</time>
      </trkpt>
      <trkpt lat="27.958767" lon="-15.542645">
        <ele>1673.50</ele>
        <time>2017-12-09T08:40:48Z</time>
      </trkpt>
      <trkpt lat="27.958793" lon="-15.542662">
        <ele>1673.60</ele>
        <time>2017-12-09T08:40:50Z</time>
      </trkpt>
      <trkpt lat="27.958815" lon="-15.542674">
        <ele>1673.71</ele>
        <time>2017-12-09T08:40:52Z</time>
      </trkpt>
      <trkpt lat="27.958840" lon="-15.542691">
        <ele>1674.06</ele>
        <time>2017-12-09T08:40:54Z</time>
      </trkpt>
      <trkpt lat="27.958865" lon="-15.542706">
        <ele>1674.90</ele>
        <time>2017-12-09T08:40:56Z</time>
      </trkpt>
      <trkpt lat="27.958883" lon="-15.542729">
        <ele>1674.93</ele>
        <time>2017-12-09T08:40:58Z</time>
      </trkpt>
      <trkpt lat="27.958903" lon="-15.542750">
        <ele>1675.03</ele>
        <time>2017-12-09T08:41:00Z</time>
      </trkpt>
      <trkpt lat="27.958925" lon="-15.542764">
        <ele>1675.10</ele>
        <time>2017-12-09T08:41:02Z</time>
      </trkpt>
      <trkpt lat="27.958946" lon="-15.542776">
        <ele>1675.07</ele>
        <time>2017-12-09T08:41:04Z</time>
      </trkpt>
      <trkpt lat="27.958970" lon="-15.542791">
        <ele>1674.80</ele>
        <time>2017-12-09T08:41:06Z</time>
      </trkpt>
      <trkpt lat="27.958989" lon="-15.542812">
        <ele>1674.77</ele>
        <time>2017-12-09T08:41:08Z</time>
      </trkpt>
      <trkpt lat="27.959012" lon="-15.542830">
        <ele>1674.86</ele>
        <time>2017-12-09T08:41:10Z</time>
      </trkpt>
      <trkpt lat="27.959035" lon="-15.542845">
        <ele>1675.00</ele>
        <time>2017-12-09T08:41:12Z</time>
      </trkpt>
      <trkpt lat="27.959056" lon="-15.542858">
        <ele>1674.57</ele>
        <time>2017-12-09T08:41:14Z</time>
      </trkpt>
      <trkpt lat="27.959073" lon="-15.542869">
        <ele>1674.60</ele>
        <time>2017-12-09T08:41:16Z</time>
      </trkpt>
      <trkpt lat="27.959094" lon="-15.542883">
        <ele>1674.76</ele>
        <time>2017-12-09T08:41:18Z</time>
      </trkpt>
      <trkpt lat="27.959116" lon="-15.542899">
        <ele>1675.62</ele>
        <time>2017-12-09T08:41:20Z</time>
      </trkpt>
      <trkpt lat="27.959137" lon="-15.542914">
        <ele>1676.10</ele>
        <time>2017-12-09T08:41:22Z</time>
      </trkpt>
      <trkpt lat="27.959160" lon="-15.542927">
        <ele>1676.23</ele>
        <time>2017-12-09T08:41:24Z</time>
      </trkpt>
      <trkpt lat="27.959185" lon="-15.542940">
        <ele>1676.23</ele>
        <time>2017-12-09T08:41:26Z</time>
      </trkpt>
      <trkpt lat="27.959210" lon="-15.542961">
        <ele>1676.27</ele>
        <time>2017-12-09T08:41:28Z</time>
      </trkpt>
      <trkpt lat="27.959236" lon="-15.542977">
        <ele>1676.30</ele>
        <time>2017-12-09T08:41:30Z</time>
      </trkpt>
      <trkpt lat="27.959260" lon="-15.542990">
        <ele>1676.70</ele>
        <time>2017-12-09T08:41:32Z</time>
      </trkpt>
      <trkpt lat="27.959281" lon="-15.543001">
        <ele>1676.70</ele>
        <time>2017-12-09T08:41:34Z</time>
      </trkpt>
      <trkpt lat="27.959307" lon="-15.543010">
        <ele>1676.86</ele>
        <time>2017-12-09T08:41:36Z</time>
      </trkpt>
      <trkpt lat="27.959329" lon="-15.543024">
        <ele>1677.16</ele>
        <time>2017-12-09T08:41:38Z</time>
      </trkpt>
      <trkpt lat="27.959350" lon="-15.543041">
        <ele>1677.53</ele>
        <time>2017-12-09T08:41:40Z</time>
      </trkpt>
      <trkpt lat="27.959368" lon="-15.543062">
        <ele>1677.70</ele>
        <time>2017-12-09T08:41:42Z</time>
      </trkpt>
      <trkpt lat="27.959388" lon="-15.543080">
        <ele>1678.16</ele>
        <time>2017-12-09T08:41:44Z</time>
      </trkpt>
      <trkpt lat="27.959414" lon="-15.543104">
        <ele>1678.52</ele>
        <time>2017-12-09T08:41:46Z</time>
      </trkpt>
      <trkpt lat="27.959442" lon="-15.543129">
        <ele>1678.90</ele>
        <time>2017-12-09T08:41:48Z</time>
      </trkpt>
      <trkpt lat="27.959464" lon="-15.543144">
        <ele>1678.90</ele>
        <time>2017-12-09T08:41:50Z</time>
      </trkpt>
      <trkpt lat="27.959481" lon="-15.543165">
        <ele>1678.96</ele>
        <time>2017-12-09T08:41:52Z</time>
      </trkpt>
      <trkpt lat="27.959492" lon="-15.543182">
        <ele>1679.10</ele>
        <time>2017-12-09T08:41:53Z</time>
      </trkpt>
      <trkpt lat="27.959536" lon="-15.543256">
        <ele>1679.13</ele>
        <time>2017-12-09T08:41:59Z</time>
      </trkpt>
      <trkpt lat="27.959546" lon="-15.543293">
        <ele>1679.63</ele>
        <time>2017-12-09T08:42:01Z</time>
      </trkpt>
      <trkpt lat="27.959557" lon="-15.543319">
        <ele>1679.99</ele>
        <time>2017-12-09T08:42:03Z</time>
      </trkpt>
      <trkpt lat="27.959616" lon="-15.543415">
        <ele>1680.77</ele>
        <time>2017-12-09T08:42:10Z</time>
      </trkpt>
      <trkpt lat="27.959645" lon="-15.543448">
        <ele>1680.80</ele>
        <time>2017-12-09T08:42:13Z</time>
      </trkpt>
      <trkpt lat="27.959660" lon="-15.543475">
        <ele>1680.90</ele>
        <time>2017-12-09T08:42:15Z</time>
      </trkpt>
      <trkpt lat="27.959707" lon="-15.543573">
        <ele>1681.43</ele>
        <time>2017-12-09T08:42:22Z</time>
      </trkpt>
      <trkpt lat="27.959718" lon="-15.543590">
        <ele>1681.62</ele>
        <time>2017-12-09T08:42:23Z</time>
      </trkpt>
      <trkpt lat="27.959805" lon="-15.543648">
        <ele>1682.07</ele>
        <time>2017-12-09T08:42:30Z</time>
      </trkpt>
      <trkpt lat="27.959908" lon="-15.543665">
        <ele>1682.93</ele>
        <time>2017-12-09T08:42:37Z</time>
      </trkpt>
      <trkpt lat="27.959939" lon="-15.543666">
        <ele>1683.12</ele>
        <time>2017-12-09T08:42:39Z</time>
      </trkpt>
      <trkpt lat="27.960035" lon="-15.543652">
        <ele>1684.10</ele>
        <time>2017-12-09T08:42:47Z</time>
      </trkpt>
      <trkpt lat="27.960121" lon="-15.543671">
        <ele>1685.35</ele>
        <time>2017-12-09T08:42:54Z</time>
      </trkpt>
      <trkpt lat="27.960148" lon="-15.543687">
        <ele>1685.80</ele>
        <time>2017-12-09T08:42:56Z</time>
      </trkpt>
      <trkpt lat="27.960170" lon="-15.543706">
        <ele>1685.95</ele>
        <time>2017-12-09T08:42:58Z</time>
      </trkpt>
      <trkpt lat="27.960190" lon="-15.543727">
        <ele>1685.80</ele>
        <time>2017-12-09T08:43:01Z</time>
      </trkpt>
      <trkpt lat="27.960206" lon="-15.543753">
        <ele>1686.32</ele>
        <time>2017-12-09T08:43:03Z</time>
      </trkpt>
      <trkpt lat="27.960231" lon="-15.543770">
        <ele>1686.63</ele>
        <time>2017-12-09T08:43:05Z</time>
      </trkpt>
      <trkpt lat="27.960242" lon="-15.543802">
        <ele>1686.85</ele>
        <time>2017-12-09T08:43:07Z</time>
      </trkpt>
      <trkpt lat="27.960255" lon="-15.543828">
        <ele>1687.66</ele>
        <time>2017-12-09T08:43:09Z</time>
      </trkpt>
      <trkpt lat="27.960266" lon="-15.543857">
        <ele>1687.83</ele>
        <time>2017-12-09T08:43:11Z</time>
      </trkpt>
      <trkpt lat="27.960283" lon="-15.543895">
        <ele>1687.90</ele>
        <time>2017-12-09T08:43:14Z</time>
      </trkpt>
      <trkpt lat="27.960303" lon="-15.543933">
        <ele>1687.91</ele>
        <time>2017-12-09T08:43:17Z</time>
      </trkpt>
      <trkpt lat="27.960312" lon="-15.543961">
        <ele>1688.20</ele>
        <time>2017-12-09T08:43:19Z</time>
      </trkpt>
      <trkpt lat="27.960328" lon="-15.543986">
        <ele>1688.49</ele>
        <time>2017-12-09T08:43:21Z</time>
      </trkpt>
      <trkpt lat="27.960346" lon="-15.543992">
        <ele>1688.61</ele>
        <time>2017-12-09T08:43:22Z</time>
      </trkpt>
      <trkpt lat="27.960372" lon="-15.544008">
        <ele>1688.85</ele>
        <time>2017-12-09T08:43:24Z</time>
      </trkpt>
      <trkpt lat="27.960385" lon="-15.544031">
        <ele>1689.20</ele>
        <time>2017-12-09T08:43:26Z</time>
      </trkpt>
      <trkpt lat="27.960406" lon="-15.544052">
        <ele>1689.17</ele>
        <time>2017-12-09T08:43:28Z</time>
      </trkpt>
      <trkpt lat="27.960424" lon="-15.544064">
        <ele>1689.13</ele>
        <time>2017-12-09T08:43:30Z</time>
      </trkpt>
      <trkpt lat="27.960441" lon="-15.544084">
        <ele>1688.70</ele>
        <time>2017-12-09T08:43:32Z</time>
      </trkpt>
      <trkpt lat="27.960454" lon="-15.544115">
        <ele>1688.96</ele>
        <time>2017-12-09T08:43:34Z</time>
      </trkpt>
      <trkpt lat="27.960466" lon="-15.544141">
        <ele>1689.93</ele>
        <time>2017-12-09T08:43:36Z</time>
      </trkpt>
      <trkpt lat="27.960475" lon="-15.544168">
        <ele>1689.93</ele>
        <time>2017-12-09T08:43:38Z</time>
      </trkpt>
      <trkpt lat="27.960481" lon="-15.544193">
        <ele>1690.13</ele>
        <time>2017-12-09T08:43:40Z</time>
      </trkpt>
      <trkpt lat="27.960488" lon="-15.544220">
        <ele>1691.06</ele>
        <time>2017-12-09T08:43:42Z</time>
      </trkpt>
      <trkpt lat="27.960489" lon="-15.544243">
        <ele>1691.40</ele>
        <time>2017-12-09T08:43:44Z</time>
      </trkpt>
      <trkpt lat="27.960490" lon="-15.544270">
        <ele>1691.53</ele>
        <time>2017-12-09T08:43:46Z</time>
      </trkpt>
      <trkpt lat="27.960490" lon="-15.544297">
        <ele>1691.70</ele>
        <time>2017-12-09T08:43:48Z</time>
      </trkpt>
      <trkpt lat="27.960491" lon="-15.544325">
        <ele>1691.80</ele>
        <time>2017-12-09T08:43:50Z</time>
      </trkpt>
      <trkpt lat="27.960490" lon="-15.544354">
        <ele>1692.10</ele>
        <time>2017-12-09T08:43:52Z</time>
      </trkpt>
      <trkpt lat="27.960484" lon="-15.544382">
        <ele>1692.43</ele>
        <time>2017-12-09T08:43:54Z</time>
      </trkpt>
      <trkpt lat="27.960479" lon="-15.544406">
        <ele>1693.03</ele>
        <time>2017-12-09T08:43:56Z</time>
      </trkpt>
      <trkpt lat="27.960474" lon="-15.544433">
        <ele>1693.10</ele>
        <time>2017-12-09T08:43:58Z</time>
      </trkpt>
      <trkpt lat="27.960468" lon="-15.544465">
        <ele>1693.67</ele>
        <time>2017-12-09T08:44:00Z</time>
      </trkpt>
      <trkpt lat="27.960470" lon="-15.544494">
        <ele>1693.87</ele>
        <time>2017-12-09T08:44:02Z</time>
      </trkpt>
      <trkpt lat="27.960476" lon="-15.544523">
        <ele>1694.00</ele>
        <time>2017-12-09T08:44:04Z</time>
      </trkpt>
      <trkpt lat="27.960475" lon="-15.544551">
        <ele>1694.30</ele>
        <time>2017-12-09T08:44:06Z</time>
      </trkpt>
      <trkpt lat="27.960461" lon="-15.544576">
        <ele>1694.59</ele>
        <time>2017-12-09T08:44:08Z</time>
      </trkpt>
      <trkpt lat="27.960446" lon="-15.544599">
        <ele>1695.60</ele>
        <time>2017-12-09T08:44:10Z</time>
      </trkpt>
      <trkpt lat="27.960429" lon="-15.544622">
        <ele>1695.56</ele>
        <time>2017-12-09T08:44:12Z</time>
      </trkpt>
      <trkpt lat="27.960415" lon="-15.544646">
        <ele>1695.26</ele>
        <time>2017-12-09T08:44:14Z</time>
      </trkpt>
      <trkpt lat="27.960404" lon="-15.544678">
        <ele>1695.30</ele>
        <time>2017-12-09T08:44:16Z</time>
      </trkpt>
      <trkpt lat="27.960390" lon="-15.544702">
        <ele>1695.30</ele>
        <time>2017-12-09T08:44:18Z</time>
      </trkpt>
      <trkpt lat="27.960377" lon="-15.544722">
        <ele>1695.44</ele>
        <time>2017-12-09T08:44:20Z</time>
      </trkpt>
      <trkpt lat="27.960361" lon="-15.544745">
        <ele>1695.70</ele>
        <time>2017-12-09T08:44:22Z</time>
      </trkpt>
      <trkpt lat="27.960350" lon="-15.544767">
        <ele>1695.88</ele>
        <time>2017-12-09T08:44:24Z</time>
      </trkpt>
      <trkpt lat="27.960339" lon="-15.544793">
        <ele>1696.10</ele>
        <time>2017-12-09T08:44:26Z</time>
      </trkpt>
      <trkpt lat="27.960329" lon="-15.544830">
        <ele>1696.10</ele>
        <time>2017-12-09T08:44:28Z</time>
      </trkpt>
      <trkpt lat="27.960320" lon="-15.544863">
        <ele>1696.71</ele>
        <time>2017-12-09T08:44:30Z</time>
      </trkpt>
      <trkpt lat="27.960307" lon="-15.544887">
        <ele>1697.35</ele>
        <time>2017-12-09T08:44:32Z</time>
      </trkpt>
      <trkpt lat="27.960300" lon="-15.544920">
        <ele>1697.64</ele>
        <time>2017-12-09T08:44:34Z</time>
      </trkpt>
      <trkpt lat="27.960288" lon="-15.544950">
        <ele>1697.90</ele>
        <time>2017-12-09T08:44:36Z</time>
      </trkpt>
      <trkpt lat="27.960270" lon="-15.544981">
        <ele>1698.10</ele>
        <time>2017-12-09T08:44:38Z</time>
      </trkpt>
      <trkpt lat="27.960254" lon="-15.545008">
        <ele>1698.55</ele>
        <time>2017-12-09T08:44:40Z</time>
      </trkpt>
      <trkpt lat="27.960245" lon="-15.545036">
        <ele>1698.75</ele>
        <time>2017-12-09T08:44:42Z</time>
      </trkpt>
      <trkpt lat="27.960231" lon="-15.545064">
        <ele>1699.20</ele>
        <time>2017-12-09T08:44:44Z</time>
      </trkpt>
      <trkpt lat="27.960217" lon="-15.545087">
        <ele>1699.50</ele>
        <time>2017-12-09T08:44:46Z</time>
      </trkpt>
      <trkpt lat="27.960195" lon="-15.545108">
        <ele>1699.35</ele>
        <time>2017-12-09T08:44:48Z</time>
      </trkpt>
      <trkpt lat="27.960174" lon="-15.545126">
        <ele>1699.55</ele>
        <time>2017-12-09T08:44:50Z</time>
      </trkpt>
      <trkpt lat="27.960154" lon="-15.545142">
        <ele>1699.91</ele>
        <time>2017-12-09T08:44:52Z</time>
      </trkpt>
      <trkpt lat="27.960131" lon="-15.545155">
        <ele>1700.35</ele>
        <time>2017-12-09T08:44:54Z</time>
      </trkpt>
      <trkpt lat="27.960111" lon="-15.545167">
        <ele>1700.40</ele>
        <time>2017-12-09T08:44:56Z</time>
      </trkpt>
      <trkpt lat="27.960090" lon="-15.545176">
        <ele>1700.40</ele>
        <time>2017-12-09T08:44:58Z</time>
      </trkpt>
      <trkpt lat="27.960065" lon="-15.545179">
        <ele>1700.35</ele>
        <time>2017-12-09T08:45:00Z</time>
      </trkpt>
      <trkpt lat="27.960036" lon="-15.545180">
        <ele>1700.40</ele>
        <time>2017-12-09T08:45:02Z</time>
      </trkpt>
      <trkpt lat="27.960007" lon="-15.545174">
        <ele>1700.45</ele>
        <time>2017-12-09T08:45:04Z</time>
      </trkpt>
      <trkpt lat="27.959980" lon="-15.545155">
        <ele>1700.60</ele>
        <time>2017-12-09T08:45:06Z</time>
      </trkpt>
      <trkpt lat="27.959954" lon="-15.545142">
        <ele>1701.22</ele>
        <time>2017-12-09T08:45:08Z</time>
      </trkpt>
      <trkpt lat="27.959929" lon="-15.545129">
        <ele>1701.24</ele>
        <time>2017-12-09T08:45:10Z</time>
      </trkpt>
      <trkpt lat="27.959904" lon="-15.545118">
        <ele>1701.20</ele>
        <time>2017-12-09T08:45:12Z</time>
      </trkpt>
      <trkpt lat="27.959874" lon="-15.545107">
        <ele>1700.88</ele>
        <time>2017-12-09T08:45:14Z</time>
      </trkpt>
      <trkpt lat="27.959854" lon="-15.545094">
        <ele>1700.30</ele>
        <time>2017-12-09T08:45:16Z</time>
      </trkpt>
      <trkpt lat="27.959825" lon="-15.545079">
        <ele>1700.10</ele>
        <time>2017-12-09T08:45:18Z</time>
      </trkpt>
      <trkpt lat="27.959805" lon="-15.545072">
        <ele>1700.10</ele>
        <time>2017-12-09T08:45:20Z</time>
      </trkpt>
      <trkpt lat="27.959784" lon="-15.545061">
        <ele>1700.32</ele>
        <time>2017-12-09T08:45:22Z</time>
      </trkpt>
      <trkpt lat="27.959762" lon="-15.545049">
        <ele>1701.06</ele>
        <time>2017-12-09T08:45:24Z</time>
      </trkpt>
      <trkpt lat="27.959739" lon="-15.545038">
        <ele>1701.61</ele>
        <time>2017-12-09T08:45:26Z</time>
      </trkpt>
      <trkpt lat="27.959722" lon="-15.545011">
        <ele>1702.09</ele>
        <time>2017-12-09T08:45:31Z</time>
      </trkpt>
      <trkpt lat="27.959720" lon="-15.545032">
        <ele>1702.00</ele>
        <time>2017-12-09T08:45:38Z</time>
      </trkpt>
      <trkpt lat="27.959713" lon="-15.545055">
        <ele>1702.00</ele>
        <time>2017-12-09T08:45:44Z</time>
      </trkpt>
      <trkpt lat="27.959704" lon="-15.545077">
        <ele>1701.85</ele>
        <time>2017-12-09T08:45:50Z</time>
      </trkpt>
      <trkpt lat="27.959685" lon="-15.545068">
        <ele>1701.40</ele>
        <time>2017-12-09T08:45:58Z</time>
      </trkpt>
      <trkpt lat="27.959672" lon="-15.545083">
        <ele>1701.40</ele>
        <time>2017-12-09T08:46:02Z</time>
      </trkpt>
      <trkpt lat="27.959655" lon="-15.545107">
        <ele>1701.45</ele>
        <time>2017-12-09T08:46:10Z</time>
      </trkpt>
      <trkpt lat="27.959638" lon="-15.545121">
        <ele>1701.70</ele>
        <time>2017-12-09T08:46:14Z</time>
      </trkpt>
      <trkpt lat="27.959634" lon="-15.545101">
        <ele>1701.40</ele>
        <time>2017-12-09T08:46:21Z</time>
      </trkpt>
      <trkpt lat="27.959655" lon="-15.545070">
        <ele>1701.50</ele>
        <time>2017-12-09T08:46:26Z</time>
      </trkpt>
      <trkpt lat="27.959672" lon="-15.545050">
        <ele>1701.97</ele>
        <time>2017-12-09T08:46:27Z</time>
      </trkpt>
      <trkpt lat="27.959689" lon="-15.545035">
        <ele>1702.50</ele>
        <time>2017-12-09T08:46:51Z</time>
      </trkpt>
      <trkpt lat="27.959671" lon="-15.545034">
        <ele>1703.50</ele>
        <time>2017-12-09T08:47:02Z</time>
      </trkpt>
      <trkpt lat="27.959647" lon="-15.545028">
        <ele>1703.40</ele>
        <time>2017-12-09T08:47:05Z</time>
      </trkpt>
      <trkpt lat="27.959624" lon="-15.545034">
        <ele>1703.46</ele>
        <time>2017-12-09T08:47:07Z</time>
      </trkpt>
      <trkpt lat="27.959600" lon="-15.545047">
        <ele>1704.36</ele>
        <time>2017-12-09T08:47:10Z</time>
      </trkpt>
      <trkpt lat="27.959583" lon="-15.545065">
        <ele>1704.50</ele>
        <time>2017-12-09T08:47:13Z</time>
      </trkpt>
      <trkpt lat="27.959574" lon="-15.545083">
        <ele>1704.56</ele>
        <time>2017-12-09T08:47:15Z</time>
      </trkpt>
      <trkpt lat="27.959563" lon="-15.545103">
        <ele>1704.60</ele>
        <time>2017-12-09T08:47:17Z</time>
      </trkpt>
      <trkpt lat="27.959555" lon="-15.545130">
        <ele>1704.90</ele>
        <time>2017-12-09T08:47:19Z</time>
      </trkpt>
      <trkpt lat="27.959539" lon="-15.545154">
        <ele>1704.96</ele>
        <time>2017-12-09T08:47:21Z</time>
      </trkpt>
      <trkpt lat="27.959525" lon="-15.545172">
        <ele>1705.10</ele>
        <time>2017-12-09T08:47:23Z</time>
      </trkpt>
      <trkpt lat="27.959502" lon="-15.545194">
        <ele>1705.20</ele>
        <time>2017-12-09T08:47:25Z</time>
      </trkpt>
      <trkpt lat="27.959493" lon="-15.545218">
        <ele>1705.63</ele>
        <time>2017-12-09T08:47:27Z</time>
      </trkpt>
      <trkpt lat="27.959471" lon="-15.545279">
        <ele>1705.93</ele>
        <time>2017-12-09T08:47:30Z</time>
      </trkpt>
      <trkpt lat="27.959465" lon="-15.545312">
        <ele>1706.20</ele>
        <time>2017-12-09T08:47:32Z</time>
      </trkpt>
      <trkpt lat="27.959458" lon="-15.545340">
        <ele>1706.74</ele>
        <time>2017-12-09T08:47:34Z</time>
      </trkpt>
      <trkpt lat="27.959429" lon="-15.545381">
        <ele>1708.46</ele>
        <time>2017-12-09T08:47:39Z</time>
      </trkpt>
      <trkpt lat="27.959432" lon="-15.545405">
        <ele>1708.50</ele>
        <time>2017-12-09T08:47:41Z</time>
      </trkpt>
      <trkpt lat="27.959426" lon="-15.545434">
        <ele>1709.00</ele>
        <time>2017-12-09T08:47:43Z</time>
      </trkpt>
      <trkpt lat="27.959425" lon="-15.545462">
        <ele>1709.67</ele>
        <time>2017-12-09T08:47:45Z</time>
      </trkpt>
      <trkpt lat="27.959416" lon="-15.545515">
        <ele>1710.50</ele>
        <time>2017-12-09T08:47:50Z</time>
      </trkpt>
      <trkpt lat="27.959430" lon="-15.545540">
        <ele>1710.80</ele>
        <time>2017-12-09T08:47:53Z</time>
      </trkpt>
      <trkpt lat="27.959422" lon="-15.545570">
        <ele>1711.34</ele>
        <time>2017-12-09T08:47:56Z</time>
      </trkpt>
      <trkpt lat="27.959419" lon="-15.545593">
        <ele>1711.67</ele>
        <time>2017-12-09T08:47:58Z</time>
      </trkpt>
      <trkpt lat="27.959412" lon="-15.545621">
        <ele>1712.57</ele>
        <time>2017-12-09T08:48:01Z</time>
      </trkpt>
      <trkpt lat="27.959405" lon="-15.545646">
        <ele>1713.05</ele>
        <time>2017-12-09T08:48:03Z</time>
      </trkpt>
      <trkpt lat="27.959389" lon="-15.545667">
        <ele>1713.27</ele>
        <time>2017-12-09T08:48:05Z</time>
      </trkpt>
      <trkpt lat="27.959376" lon="-15.545684">
        <ele>1713.80</ele>
        <time>2017-12-09T08:48:07Z</time>
      </trkpt>
      <trkpt lat="27.959357" lon="-15.545706">
        <ele>1713.80</ele>
        <time>2017-12-09T08:48:09Z</time>
      </trkpt>
      <trkpt lat="27.959344" lon="-15.545725">
        <ele>1713.70</ele>
        <time>2017-12-09T08:48:11Z</time>
      </trkpt>
      <trkpt lat="27.959321" lon="-15.545772">
        <ele>1713.80</ele>
        <time>2017-12-09T08:48:15Z</time>
      </trkpt>
      <trkpt lat="27.959310" lon="-15.545791">
        <ele>1713.80</ele>
        <time>2017-12-09T08:48:17Z</time>
      </trkpt>
      <trkpt lat="27.959300" lon="-15.545822">
        <ele>1713.89</ele>
        <time>2017-12-09T08:48:19Z</time>
      </trkpt>
      <trkpt lat="27.959289" lon="-15.545845">
        <ele>1714.08</ele>
        <time>2017-12-09T08:48:21Z</time>
      </trkpt>
      <trkpt lat="27.959279" lon="-15.545878">
        <ele>1714.00</ele>
        <time>2017-12-09T08:48:23Z</time>
      </trkpt>
      <trkpt lat="27.959274" lon="-15.545899">
        <ele>1714.00</ele>
        <time>2017-12-09T08:48:25Z</time>
      </trkpt>
      <trkpt lat="27.959272" lon="-15.545921">
        <ele>1714.10</ele>
        <time>2017-12-09T08:48:27Z</time>
      </trkpt>
      <trkpt lat="27.959267" lon="-15.545960">
        <ele>1714.37</ele>
        <time>2017-12-09T08:48:29Z</time>
      </trkpt>
      <trkpt lat="27.959254" lon="-15.545985">
        <ele>1714.50</ele>
        <time>2017-12-09T08:48:31Z</time>
      </trkpt>
      <trkpt lat="27.959240" lon="-15.546011">
        <ele>1714.65</ele>
        <time>2017-12-09T08:48:33Z</time>
      </trkpt>
      <trkpt lat="27.959217" lon="-15.546040">
        <ele>1716.40</ele>
        <time>2017-12-09T08:48:37Z</time>
      </trkpt>
      <trkpt lat="27.959203" lon="-15.546070">
        <ele>1717.05</ele>
        <time>2017-12-09T08:48:40Z</time>
      </trkpt>
      <trkpt lat="27.959202" lon="-15.546090">
        <ele>1717.58</ele>
        <time>2017-12-09T08:48:42Z</time>
      </trkpt>
      <trkpt lat="27.959190" lon="-15.546116">
        <ele>1718.63</ele>
        <time>2017-12-09T08:48:45Z</time>
      </trkpt>
      <trkpt lat="27.959186" lon="-15.546142">
        <ele>1719.13</ele>
        <time>2017-12-09T08:48:47Z</time>
      </trkpt>
      <trkpt lat="27.959174" lon="-15.546173">
        <ele>1719.94</ele>
        <time>2017-12-09T08:48:50Z</time>
      </trkpt>
      <trkpt lat="27.959159" lon="-15.546196">
        <ele>1720.00</ele>
        <time>2017-12-09T08:48:52Z</time>
      </trkpt>
      <trkpt lat="27.959157" lon="-15.546219">
        <ele>1720.18</ele>
        <time>2017-12-09T08:48:54Z</time>
      </trkpt>
      <trkpt lat="27.959147" lon="-15.546247">
        <ele>1720.58</ele>
        <time>2017-12-09T08:48:56Z</time>
      </trkpt>
      <trkpt lat="27.959138" lon="-15.546280">
        <ele>1720.68</ele>
        <time>2017-12-09T08:48:58Z</time>
      </trkpt>
      <trkpt lat="27.959116" lon="-15.546298">
        <ele>1720.92</ele>
        <time>2017-12-09T08:49:01Z</time>
      </trkpt>
      <trkpt lat="27.959096" lon="-15.546319">
        <ele>1721.45</ele>
        <time>2017-12-09T08:49:03Z</time>
      </trkpt>
      <trkpt lat="27.959083" lon="-15.546335">
        <ele>1721.70</ele>
        <time>2017-12-09T08:49:05Z</time>
      </trkpt>
      <trkpt lat="27.959065" lon="-15.546357">
        <ele>1721.78</ele>
        <time>2017-12-09T08:49:07Z</time>
      </trkpt>
      <trkpt lat="27.959056" lon="-15.546382">
        <ele>1722.50</ele>
        <time>2017-12-09T08:49:10Z</time>
      </trkpt>
      <trkpt lat="27.959045" lon="-15.546410">
        <ele>1723.64</ele>
        <time>2017-12-09T08:49:12Z</time>
      </trkpt>
      <trkpt lat="27.959040" lon="-15.546438">
        <ele>1724.06</ele>
        <time>2017-12-09T08:49:14Z</time>
      </trkpt>
      <trkpt lat="27.959044" lon="-15.546474">
        <ele>1724.36</ele>
        <time>2017-12-09T08:49:16Z</time>
      </trkpt>
      <trkpt lat="27.959046" lon="-15.546503">
        <ele>1725.62</ele>
        <time>2017-12-09T08:49:19Z</time>
      </trkpt>
      <trkpt lat="27.959041" lon="-15.546527">
        <ele>1726.28</ele>
        <time>2017-12-09T08:49:23Z</time>
      </trkpt>
      <trkpt lat="27.959040" lon="-15.546550">
        <ele>1727.23</ele>
        <time>2017-12-09T08:49:25Z</time>
      </trkpt>
      <trkpt lat="27.959044" lon="-15.546577">
        <ele>1727.59</ele>
        <time>2017-12-09T08:49:27Z</time>
      </trkpt>
      <trkpt lat="27.959032" lon="-15.546596">
        <ele>1728.70</ele>
        <time>2017-12-09T08:49:29Z</time>
      </trkpt>
      <trkpt lat="27.959024" lon="-15.546615">
        <ele>1728.80</ele>
        <time>2017-12-09T08:49:31Z</time>
      </trkpt>
      <trkpt lat="27.959021" lon="-15.546638">
        <ele>1728.80</ele>
        <time>2017-12-09T08:49:33Z</time>
      </trkpt>
      <trkpt lat="27.959014" lon="-15.546670">
        <ele>1729.20</ele>
        <time>2017-12-09T08:49:35Z</time>
      </trkpt>
      <trkpt lat="27.959010" lon="-15.546709">
        <ele>1729.50</ele>
        <time>2017-12-09T08:49:37Z</time>
      </trkpt>
      <trkpt lat="27.959011" lon="-15.546730">
        <ele>1729.40</ele>
        <time>2017-12-09T08:49:38Z</time>
      </trkpt>
      <trkpt lat="27.959011" lon="-15.546764">
        <ele>1729.59</ele>
        <time>2017-12-09T08:49:40Z</time>
      </trkpt>
      <trkpt lat="27.959014" lon="-15.546790">
        <ele>1729.41</ele>
        <time>2017-12-09T08:49:41Z</time>
      </trkpt>
      <trkpt lat="27.959018" lon="-15.546826">
        <ele>1729.40</ele>
        <time>2017-12-09T08:49:43Z</time>
      </trkpt>
      <trkpt lat="27.959022" lon="-15.546862">
        <ele>1729.50</ele>
        <time>2017-12-09T08:49:45Z</time>
      </trkpt>
      <trkpt lat="27.959029" lon="-15.546900">
        <ele>1729.50</ele>
        <time>2017-12-09T08:49:47Z</time>
      </trkpt>
      <trkpt lat="27.959038" lon="-15.546936">
        <ele>1729.50</ele>
        <time>2017-12-09T08:49:49Z</time>
      </trkpt>
      <trkpt lat="27.959041" lon="-15.546962">
        <ele>1729.61</ele>
        <time>2017-12-09T08:49:51Z</time>
      </trkpt>
      <trkpt lat="27.959047" lon="-15.546990">
        <ele>1730.00</ele>
        <time>2017-12-09T08:49:53Z</time>
      </trkpt>
      <trkpt lat="27.959051" lon="-15.547017">
        <ele>1730.30</ele>
        <time>2017-12-09T08:49:55Z</time>
      </trkpt>
      <trkpt lat="27.959055" lon="-15.547041">
        <ele>1730.31</ele>
        <time>2017-12-09T08:49:57Z</time>
      </trkpt>
      <trkpt lat="27.959056" lon="-15.547063">
        <ele>1730.31</ele>
        <time>2017-12-09T08:49:59Z</time>
      </trkpt>
      <trkpt lat="27.959049" lon="-15.547097">
        <ele>1731.11</ele>
        <time>2017-12-09T08:50:02Z</time>
      </trkpt>
      <trkpt lat="27.959026" lon="-15.547200">
        <ele>1732.53</ele>
        <time>2017-12-09T08:50:10Z</time>
      </trkpt>
      <trkpt lat="27.959024" lon="-15.547228">
        <ele>1732.98</ele>
        <time>2017-12-09T08:50:12Z</time>
      </trkpt>
      <trkpt lat="27.959035" lon="-15.547273">
        <ele>1734.14</ele>
        <time>2017-12-09T08:50:15Z</time>
      </trkpt>
      <trkpt lat="27.959041" lon="-15.547304">
        <ele>1734.51</ele>
        <time>2017-12-09T08:50:17Z</time>
      </trkpt>
      <trkpt lat="27.959045" lon="-15.547338">
        <ele>1734.51</ele>
        <time>2017-12-09T08:50:19Z</time>
      </trkpt>
      <trkpt lat="27.959049" lon="-15.547360">
        <ele>1734.60</ele>
        <time>2017-12-09T08:50:20Z</time>
      </trkpt>
      <trkpt lat="27.959055" lon="-15.547397">
        <ele>1734.59</ele>
        <time>2017-12-09T08:50:22Z</time>
      </trkpt>
      <trkpt lat="27.959060" lon="-15.547429">
        <ele>1734.57</ele>
        <time>2017-12-09T08:50:24Z</time>
      </trkpt>
      <trkpt lat="27.959062" lon="-15.547468">
        <ele>1734.60</ele>
        <time>2017-12-09T08:50:26Z</time>
      </trkpt>
      <trkpt lat="27.959062" lon="-15.547502">
        <ele>1734.39</ele>
        <time>2017-12-09T08:50:28Z</time>
      </trkpt>
      <trkpt lat="27.959063" lon="-15.547535">
        <ele>1734.30</ele>
        <time>2017-12-09T08:50:30Z</time>
      </trkpt>
      <trkpt lat="27.959064" lon="-15.547565">
        <ele>1734.30</ele>
        <time>2017-12-09T08:50:32Z</time>
      </trkpt>
      <trkpt lat="27.959081" lon="-15.547596">
        <ele>1733.86</ele>
        <time>2017-12-09T08:50:34Z</time>
      </trkpt>
      <trkpt lat="27.959094" lon="-15.547614">
        <ele>1733.59</ele>
        <time>2017-12-09T08:50:36Z</time>
      </trkpt>
      <trkpt lat="27.959110" lon="-15.547635">
        <ele>1733.51</ele>
        <time>2017-12-09T08:50:38Z</time>
      </trkpt>
      <trkpt lat="27.959126" lon="-15.547656">
        <ele>1733.90</ele>
        <time>2017-12-09T08:50:40Z</time>
      </trkpt>
      <trkpt lat="27.959140" lon="-15.547680">
        <ele>1734.83</ele>
        <time>2017-12-09T08:50:42Z</time>
      </trkpt>
      <trkpt lat="27.959154" lon="-15.547706">
        <ele>1735.51</ele>
        <time>2017-12-09T08:50:44Z</time>
      </trkpt>
      <trkpt lat="27.959169" lon="-15.547727">
        <ele>1736.10</ele>
        <time>2017-12-09T08:50:46Z</time>
      </trkpt>
      <trkpt lat="27.959190" lon="-15.547747">
        <ele>1736.24</ele>
        <time>2017-12-09T08:50:48Z</time>
      </trkpt>
      <trkpt lat="27.959196" lon="-15.547773">
        <ele>1736.44</ele>
        <time>2017-12-09T08:50:50Z</time>
      </trkpt>
      <trkpt lat="27.959205" lon="-15.547793">
        <ele>1737.62</ele>
        <time>2017-12-09T08:50:52Z</time>
      </trkpt>
      <trkpt lat="27.959216" lon="-15.547820">
        <ele>1738.24</ele>
        <time>2017-12-09T08:50:54Z</time>
      </trkpt>
      <trkpt lat="27.959233" lon="-15.547838">
        <ele>1738.70</ele>
        <time>2017-12-09T08:50:56Z</time>
      </trkpt>
      <trkpt lat="27.959239" lon="-15.547858">
        <ele>1738.74</ele>
        <time>2017-12-09T08:50:58Z</time>
      </trkpt>
      <trkpt lat="27.959209" lon="-15.547903">
        <ele>1739.25</ele>
        <time>2017-12-09T08:51:02Z</time>
      </trkpt>
      <trkpt lat="27.959193" lon="-15.547913">
        <ele>1739.33</ele>
        <time>2017-12-09T08:51:03Z</time>
      </trkpt>
      <trkpt lat="27.959180" lon="-15.547929">
        <ele>1740.10</ele>
        <time>2017-12-09T08:51:04Z</time>
      </trkpt>
      <trkpt lat="27.959149" lon="-15.547954">
        <ele>1739.91</ele>
        <time>2017-12-09T08:51:07Z</time>
      </trkpt>
      <trkpt lat="27.959130" lon="-15.547966">
        <ele>1739.17</ele>
        <time>2017-12-09T08:51:09Z</time>
      </trkpt>
      <trkpt lat="27.959120" lon="-15.547988">
        <ele>1739.77</ele>
        <time>2017-12-09T08:51:11Z</time>
      </trkpt>
      <trkpt lat="27.959103" lon="-15.548004">
        <ele>1740.10</ele>
        <time>2017-12-09T08:51:13Z</time>
      </trkpt>
      <trkpt lat="27.959071" lon="-15.548018">
        <ele>1740.60</ele>
        <time>2017-12-09T08:51:15Z</time>
      </trkpt>
      <trkpt lat="27.959050" lon="-15.548031">
        <ele>1740.60</ele>
        <time>2017-12-09T08:51:16Z</time>
      </trkpt>
      <trkpt lat="27.959032" lon="-15.548040">
        <ele>1740.60</ele>
        <time>2017-12-09T08:51:17Z</time>
      </trkpt>
      <trkpt lat="27.959014" lon="-15.548053">
        <ele>1740.60</ele>
        <time>2017-12-09T08:51:18Z</time>
      </trkpt>
      <trkpt lat="27.958999" lon="-15.548066">
        <ele>1740.60</ele>
        <time>2017-12-09T08:51:19Z</time>
      </trkpt>
      <trkpt lat="27.958971" lon="-15.548092">
        <ele>1740.63</ele>
        <time>2017-12-09T08:51:21Z</time>
      </trkpt>
      <trkpt lat="27.958950" lon="-15.548114">
        <ele>1740.37</ele>
        <time>2017-12-09T08:51:23Z</time>
      </trkpt>
      <trkpt lat="27.958928" lon="-15.548138">
        <ele>1740.30</ele>
        <time>2017-12-09T08:51:25Z</time>
      </trkpt>
      <trkpt lat="27.958901" lon="-15.548160">
        <ele>1740.30</ele>
        <time>2017-12-09T08:51:27Z</time>
      </trkpt>
      <trkpt lat="27.958874" lon="-15.548186">
        <ele>1740.27</ele>
        <time>2017-12-09T08:51:29Z</time>
      </trkpt>
      <trkpt lat="27.958849" lon="-15.548207">
        <ele>1740.20</ele>
        <time>2017-12-09T08:51:31Z</time>
      </trkpt>
      <trkpt lat="27.958830" lon="-15.548232">
        <ele>1740.20</ele>
        <time>2017-12-09T08:51:33Z</time>
      </trkpt>
      <trkpt lat="27.958806" lon="-15.548252">
        <ele>1740.30</ele>
        <time>2017-12-09T08:51:35Z</time>
      </trkpt>
      <trkpt lat="27.958783" lon="-15.548270">
        <ele>1740.30</ele>
        <time>2017-12-09T08:51:37Z</time>
      </trkpt>
      <trkpt lat="27.958769" lon="-15.548284">
        <ele>1740.39</ele>
        <time>2017-12-09T08:51:38Z</time>
      </trkpt>
      <trkpt lat="27.958754" lon="-15.548300">
        <ele>1740.82</ele>
        <time>2017-12-09T08:51:39Z</time>
      </trkpt>
      <trkpt lat="27.958742" lon="-15.548319">
        <ele>1740.90</ele>
        <time>2017-12-09T08:51:40Z</time>
      </trkpt>
      <trkpt lat="27.958728" lon="-15.548346">
        <ele>1740.90</ele>
        <time>2017-12-09T08:51:42Z</time>
      </trkpt>
      <trkpt lat="27.958724" lon="-15.548367">
        <ele>1740.87</ele>
        <time>2017-12-09T08:51:44Z</time>
      </trkpt>
      <trkpt lat="27.958725" lon="-15.548403">
        <ele>1740.85</ele>
        <time>2017-12-09T08:51:46Z</time>
      </trkpt>
      <trkpt lat="27.958710" lon="-15.548424">
        <ele>1741.19</ele>
        <time>2017-12-09T08:51:48Z</time>
      </trkpt>
      <trkpt lat="27.958696" lon="-15.548449">
        <ele>1741.60</ele>
        <time>2017-12-09T08:51:50Z</time>
      </trkpt>
      <trkpt lat="27.958681" lon="-15.548470">
        <ele>1741.95</ele>
        <time>2017-12-09T08:51:52Z</time>
      </trkpt>
      <trkpt lat="27.958664" lon="-15.548493">
        <ele>1742.60</ele>
        <time>2017-12-09T08:51:54Z</time>
      </trkpt>
      <trkpt lat="27.958644" lon="-15.548522">
        <ele>1742.66</ele>
        <time>2017-12-09T08:51:56Z</time>
      </trkpt>
      <trkpt lat="27.958619" lon="-15.548557">
        <ele>1743.00</ele>
        <time>2017-12-09T08:51:58Z</time>
      </trkpt>
      <trkpt lat="27.958603" lon="-15.548574">
        <ele>1742.95</ele>
        <time>2017-12-09T08:51:59Z</time>
      </trkpt>
      <trkpt lat="27.958586" lon="-15.548597">
        <ele>1742.76</ele>
        <time>2017-12-09T08:52:00Z</time>
      </trkpt>
      <trkpt lat="27.958548" lon="-15.548639">
        <ele>1742.70</ele>
        <time>2017-12-09T08:52:02Z</time>
      </trkpt>
      <trkpt lat="27.958528" lon="-15.548664">
        <ele>1742.65</ele>
        <time>2017-12-09T08:52:03Z</time>
      </trkpt>
      <trkpt lat="27.958512" lon="-15.548681">
        <ele>1742.40</ele>
        <time>2017-12-09T08:52:04Z</time>
      </trkpt>
      <trkpt lat="27.958498" lon="-15.548697">
        <ele>1742.40</ele>
        <time>2017-12-09T08:52:05Z</time>
      </trkpt>
      <trkpt lat="27.958483" lon="-15.548715">
        <ele>1742.40</ele>
        <time>2017-12-09T08:52:06Z</time>
      </trkpt>
      <trkpt lat="27.958474" lon="-15.548735">
        <ele>1742.42</ele>
        <time>2017-12-09T08:52:07Z</time>
      </trkpt>
      <trkpt lat="27.958455" lon="-15.548757">
        <ele>1742.20</ele>
        <time>2017-12-09T08:52:09Z</time>
      </trkpt>
      <trkpt lat="27.958432" lon="-15.548779">
        <ele>1742.70</ele>
        <time>2017-12-09T08:52:11Z</time>
      </trkpt>
      <trkpt lat="27.958417" lon="-15.548804">
        <ele>1742.70</ele>
        <time>2017-12-09T08:52:13Z</time>
      </trkpt>
      <trkpt lat="27.958403" lon="-15.548835">
        <ele>1742.72</ele>
        <time>2017-12-09T08:52:15Z</time>
      </trkpt>
      <trkpt lat="27.958386" lon="-15.548867">
        <ele>1742.84</ele>
        <time>2017-12-09T08:52:17Z</time>
      </trkpt>
      <trkpt lat="27.958372" lon="-15.548899">
        <ele>1743.05</ele>
        <time>2017-12-09T08:52:19Z</time>
      </trkpt>
      <trkpt lat="27.958360" lon="-15.548926">
        <ele>1743.20</ele>
        <time>2017-12-09T08:52:21Z</time>
      </trkpt>
      <trkpt lat="27.958346" lon="-15.548950">
        <ele>1743.30</ele>
        <time>2017-12-09T08:52:23Z</time>
      </trkpt>
      <trkpt lat="27.958332" lon="-15.548973">
        <ele>1743.30</ele>
        <time>2017-12-09T08:52:25Z</time>
      </trkpt>
      <trkpt lat="27.958318" lon="-15.548989">
        <ele>1743.45</ele>
        <time>2017-12-09T08:52:27Z</time>
      </trkpt>
      <trkpt lat="27.958304" lon="-15.549008">
        <ele>1743.63</ele>
        <time>2017-12-09T08:52:29Z</time>
      </trkpt>
      <trkpt lat="27.958293" lon="-15.549036">
        <ele>1743.88</ele>
        <time>2017-12-09T08:52:31Z</time>
      </trkpt>
      <trkpt lat="27.958277" lon="-15.549066">
        <ele>1743.98</ele>
        <time>2017-12-09T08:52:33Z</time>
      </trkpt>
      <trkpt lat="27.958254" lon="-15.549095">
        <ele>1743.99</ele>
        <time>2017-12-09T08:52:35Z</time>
      </trkpt>
      <trkpt lat="27.958236" lon="-15.549116">
        <ele>1744.17</ele>
        <time>2017-12-09T08:52:36Z</time>
      </trkpt>
      <trkpt lat="27.958225" lon="-15.549138">
        <ele>1744.16</ele>
        <time>2017-12-09T08:52:37Z</time>
      </trkpt>
      <trkpt lat="27.958212" lon="-15.549155">
        <ele>1744.24</ele>
        <time>2017-12-09T08:52:38Z</time>
      </trkpt>
      <trkpt lat="27.958198" lon="-15.549172">
        <ele>1744.13</ele>
        <time>2017-12-09T08:52:39Z</time>
      </trkpt>
      <trkpt lat="27.958181" lon="-15.549205">
        <ele>1744.30</ele>
        <time>2017-12-09T08:52:41Z</time>
      </trkpt>
      <trkpt lat="27.958172" lon="-15.549225">
        <ele>1744.30</ele>
        <time>2017-12-09T08:52:42Z</time>
      </trkpt>
      <trkpt lat="27.958157" lon="-15.549261">
        <ele>1744.27</ele>
        <time>2017-12-09T08:52:44Z</time>
      </trkpt>
      <trkpt lat="27.958146" lon="-15.549286">
        <ele>1744.20</ele>
        <time>2017-12-09T08:52:45Z</time>
      </trkpt>
      <trkpt lat="27.958139" lon="-15.549318">
        <ele>1744.07</ele>
        <time>2017-12-09T08:52:46Z</time>
      </trkpt>
      <trkpt lat="27.958131" lon="-15.549340">
        <ele>1743.77</ele>
        <time>2017-12-09T08:52:47Z</time>
      </trkpt>
      <trkpt lat="27.958122" lon="-15.549371">
        <ele>1743.63</ele>
        <time>2017-12-09T08:52:49Z</time>
      </trkpt>
      <trkpt lat="27.958113" lon="-15.549395">
        <ele>1743.30</ele>
        <time>2017-12-09T08:52:51Z</time>
      </trkpt>
      <trkpt lat="27.958112" lon="-15.549430">
        <ele>1743.73</ele>
        <time>2017-12-09T08:52:53Z</time>
      </trkpt>
      <trkpt lat="27.958113" lon="-15.549456">
        <ele>1743.80</ele>
        <time>2017-12-09T08:52:55Z</time>
      </trkpt>
      <trkpt lat="27.958115" lon="-15.549485">
        <ele>1744.22</ele>
        <time>2017-12-09T08:52:57Z</time>
      </trkpt>
      <trkpt lat="27.958112" lon="-15.549509">
        <ele>1745.10</ele>
        <time>2017-12-09T08:52:59Z</time>
      </trkpt>
      <trkpt lat="27.958107" lon="-15.549544">
        <ele>1745.40</ele>
        <time>2017-12-09T08:53:01Z</time>
      </trkpt>
      <trkpt lat="27.958104" lon="-15.549572">
        <ele>1745.59</ele>
        <time>2017-12-09T08:53:03Z</time>
      </trkpt>
      <trkpt lat="27.958098" lon="-15.549619">
        <ele>1745.91</ele>
        <time>2017-12-09T08:53:07Z</time>
      </trkpt>
      <trkpt lat="27.958104" lon="-15.549651">
        <ele>1746.40</ele>
        <time>2017-12-09T08:53:09Z</time>
      </trkpt>
      <trkpt lat="27.958130" lon="-15.549730">
        <ele>1747.44</ele>
        <time>2017-12-09T08:53:14Z</time>
      </trkpt>
      <trkpt lat="27.958144" lon="-15.549766">
        <ele>1747.70</ele>
        <time>2017-12-09T08:53:16Z</time>
      </trkpt>
      <trkpt lat="27.958144" lon="-15.549807">
        <ele>1747.93</ele>
        <time>2017-12-09T08:53:18Z</time>
      </trkpt>
      <trkpt lat="27.958167" lon="-15.549834">
        <ele>1748.79</ele>
        <time>2017-12-09T08:53:21Z</time>
      </trkpt>
      <trkpt lat="27.958173" lon="-15.549859">
        <ele>1750.74</ele>
        <time>2017-12-09T08:53:25Z</time>
      </trkpt>
      <trkpt lat="27.958171" lon="-15.549926">
        <ele>1752.59</ele>
        <time>2017-12-09T08:53:33Z</time>
      </trkpt>
      <trkpt lat="27.958169" lon="-15.549954">
        <ele>1753.55</ele>
        <time>2017-12-09T08:53:36Z</time>
      </trkpt>
      <trkpt lat="27.958172" lon="-15.549977">
        <ele>1753.60</ele>
        <time>2017-12-09T08:53:38Z</time>
      </trkpt>
      <trkpt lat="27.958176" lon="-15.549998">
        <ele>1753.90</ele>
        <time>2017-12-09T08:53:40Z</time>
      </trkpt>
      <trkpt lat="27.958196" lon="-15.550101">
        <ele>1756.26</ele>
        <time>2017-12-09T08:53:49Z</time>
      </trkpt>
      <trkpt lat="27.958203" lon="-15.550125">
        <ele>1756.50</ele>
        <time>2017-12-09T08:53:51Z</time>
      </trkpt>
      <trkpt lat="27.958195" lon="-15.550163">
        <ele>1757.25</ele>
        <time>2017-12-09T08:53:55Z</time>
      </trkpt>
      <trkpt lat="27.958183" lon="-15.550188">
        <ele>1757.61</ele>
        <time>2017-12-09T08:53:58Z</time>
      </trkpt>
      <trkpt lat="27.958182" lon="-15.550223">
        <ele>1758.61</ele>
        <time>2017-12-09T08:54:01Z</time>
      </trkpt>
      <trkpt lat="27.958183" lon="-15.550243">
        <ele>1758.95</ele>
        <time>2017-12-09T08:54:03Z</time>
      </trkpt>
      <trkpt lat="27.958192" lon="-15.550268">
        <ele>1759.05</ele>
        <time>2017-12-09T08:54:05Z</time>
      </trkpt>
      <trkpt lat="27.958198" lon="-15.550292">
        <ele>1759.82</ele>
        <time>2017-12-09T08:54:07Z</time>
      </trkpt>
      <trkpt lat="27.958210" lon="-15.550314">
        <ele>1760.60</ele>
        <time>2017-12-09T08:54:09Z</time>
      </trkpt>
      <trkpt lat="27.958224" lon="-15.550334">
        <ele>1760.83</ele>
        <time>2017-12-09T08:54:11Z</time>
      </trkpt>
      <trkpt lat="27.958239" lon="-15.550351">
        <ele>1761.40</ele>
        <time>2017-12-09T08:54:13Z</time>
      </trkpt>
      <trkpt lat="27.958253" lon="-15.550370">
        <ele>1761.50</ele>
        <time>2017-12-09T08:54:15Z</time>
      </trkpt>
      <trkpt lat="27.958263" lon="-15.550389">
        <ele>1762.57</ele>
        <time>2017-12-09T08:54:17Z</time>
      </trkpt>
      <trkpt lat="27.958270" lon="-15.550414">
        <ele>1763.22</ele>
        <time>2017-12-09T08:54:20Z</time>
      </trkpt>
      <trkpt lat="27.958278" lon="-15.550434">
        <ele>1763.96</ele>
        <time>2017-12-09T08:54:22Z</time>
      </trkpt>
      <trkpt lat="27.958296" lon="-15.550454">
        <ele>1764.30</ele>
        <time>2017-12-09T08:54:25Z</time>
      </trkpt>
      <trkpt lat="27.958305" lon="-15.550479">
        <ele>1765.43</ele>
        <time>2017-12-09T08:54:27Z</time>
      </trkpt>
      <trkpt lat="27.958307" lon="-15.550500">
        <ele>1765.50</ele>
        <time>2017-12-09T08:54:29Z</time>
      </trkpt>
      <trkpt lat="27.958314" lon="-15.550526">
        <ele>1766.00</ele>
        <time>2017-12-09T08:54:31Z</time>
      </trkpt>
      <trkpt lat="27.958321" lon="-15.550549">
        <ele>1766.73</ele>
        <time>2017-12-09T08:54:33Z</time>
      </trkpt>
      <trkpt lat="27.958333" lon="-15.550577">
        <ele>1767.62</ele>
        <time>2017-12-09T08:54:36Z</time>
      </trkpt>
      <trkpt lat="27.958345" lon="-15.550596">
        <ele>1767.99</ele>
        <time>2017-12-09T08:54:38Z</time>
      </trkpt>
      <trkpt lat="27.958360" lon="-15.550619">
        <ele>1768.10</ele>
        <time>2017-12-09T08:54:40Z</time>
      </trkpt>
      <trkpt lat="27.958370" lon="-15.550638">
        <ele>1769.00</ele>
        <time>2017-12-09T08:54:42Z</time>
      </trkpt>
      <trkpt lat="27.958380" lon="-15.550662">
        <ele>1770.00</ele>
        <time>2017-12-09T08:54:45Z</time>
      </trkpt>
      <trkpt lat="27.958397" lon="-15.550686">
        <ele>1770.37</ele>
        <time>2017-12-09T08:54:48Z</time>
      </trkpt>
      <trkpt lat="27.958412" lon="-15.550707">
        <ele>1770.77</ele>
        <time>2017-12-09T08:54:50Z</time>
      </trkpt>
      <trkpt lat="27.958428" lon="-15.550725">
        <ele>1771.61</ele>
        <time>2017-12-09T08:54:52Z</time>
      </trkpt>
      <trkpt lat="27.958440" lon="-15.550745">
        <ele>1772.71</ele>
        <time>2017-12-09T08:54:54Z</time>
      </trkpt>
      <trkpt lat="27.958460" lon="-15.550766">
        <ele>1773.00</ele>
        <time>2017-12-09T08:54:56Z</time>
      </trkpt>
      <trkpt lat="27.958480" lon="-15.550781">
        <ele>1774.03</ele>
        <time>2017-12-09T08:54:58Z</time>
      </trkpt>
      <trkpt lat="27.958501" lon="-15.550807">
        <ele>1774.74</ele>
        <time>2017-12-09T08:55:01Z</time>
      </trkpt>
      <trkpt lat="27.958516" lon="-15.550832">
        <ele>1775.39</ele>
        <time>2017-12-09T08:55:03Z</time>
      </trkpt>
      <trkpt lat="27.958533" lon="-15.550847">
        <ele>1775.93</ele>
        <time>2017-12-09T08:55:05Z</time>
      </trkpt>
      <trkpt lat="27.958546" lon="-15.550863">
        <ele>1776.93</ele>
        <time>2017-12-09T08:55:07Z</time>
      </trkpt>
      <trkpt lat="27.958563" lon="-15.550877">
        <ele>1777.20</ele>
        <time>2017-12-09T08:55:09Z</time>
      </trkpt>
      <trkpt lat="27.958576" lon="-15.550900">
        <ele>1777.71</ele>
        <time>2017-12-09T08:55:12Z</time>
      </trkpt>
      <trkpt lat="27.958594" lon="-15.550912">
        <ele>1778.30</ele>
        <time>2017-12-09T08:55:14Z</time>
      </trkpt>
      <trkpt lat="27.958603" lon="-15.550931">
        <ele>1778.85</ele>
        <time>2017-12-09T08:55:16Z</time>
      </trkpt>
      <trkpt lat="27.958615" lon="-15.550947">
        <ele>1779.15</ele>
        <time>2017-12-09T08:55:18Z</time>
      </trkpt>
      <trkpt lat="27.958629" lon="-15.550963">
        <ele>1779.28</ele>
        <time>2017-12-09T08:55:20Z</time>
      </trkpt>
      <trkpt lat="27.958648" lon="-15.550984">
        <ele>1780.34</ele>
        <time>2017-12-09T08:55:23Z</time>
      </trkpt>
      <trkpt lat="27.958662" lon="-15.550998">
        <ele>1780.68</ele>
        <time>2017-12-09T08:55:26Z</time>
      </trkpt>
      <trkpt lat="27.958680" lon="-15.551010">
        <ele>1781.44</ele>
        <time>2017-12-09T08:55:29Z</time>
      </trkpt>
      <trkpt lat="27.958697" lon="-15.551031">
        <ele>1781.70</ele>
        <time>2017-12-09T08:55:32Z</time>
      </trkpt>
      <trkpt lat="27.958717" lon="-15.551039">
        <ele>1782.70</ele>
        <time>2017-12-09T08:55:35Z</time>
      </trkpt>
      <trkpt lat="27.958736" lon="-15.551046">
        <ele>1782.70</ele>
        <time>2017-12-09T08:55:37Z</time>
      </trkpt>
      <trkpt lat="27.958759" lon="-15.551049">
        <ele>1783.30</ele>
        <time>2017-12-09T08:55:40Z</time>
      </trkpt>
      <trkpt lat="27.958782" lon="-15.551055">
        <ele>1784.30</ele>
        <time>2017-12-09T08:55:43Z</time>
      </trkpt>
      <trkpt lat="27.958794" lon="-15.551071">
        <ele>1784.47</ele>
        <time>2017-12-09T08:55:45Z</time>
      </trkpt>
      <trkpt lat="27.958810" lon="-15.551083">
        <ele>1785.59</ele>
        <time>2017-12-09T08:55:48Z</time>
      </trkpt>
      <trkpt lat="27.958827" lon="-15.551093">
        <ele>1786.25</ele>
        <time>2017-12-09T08:55:50Z</time>
      </trkpt>
      <trkpt lat="27.958845" lon="-15.551110">
        <ele>1786.80</ele>
        <time>2017-12-09T08:55:54Z</time>
      </trkpt>
      <trkpt lat="27.958864" lon="-15.551123">
        <ele>1787.40</ele>
        <time>2017-12-09T08:55:58Z</time>
      </trkpt>
      <trkpt lat="27.958882" lon="-15.551150">
        <ele>1788.67</ele>
        <time>2017-12-09T08:56:00Z</time>
      </trkpt>
      <trkpt lat="27.958893" lon="-15.551180">
        <ele>1788.79</ele>
        <time>2017-12-09T08:56:02Z</time>
      </trkpt>
      <trkpt lat="27.958907" lon="-15.551204">
        <ele>1789.57</ele>
        <time>2017-12-09T08:56:04Z</time>
      </trkpt>
      <trkpt lat="27.958921" lon="-15.551227">
        <ele>1790.00</ele>
        <time>2017-12-09T08:56:06Z</time>
      </trkpt>
      <trkpt lat="27.958937" lon="-15.551247">
        <ele>1790.00</ele>
        <time>2017-12-09T08:56:08Z</time>
      </trkpt>
      <trkpt lat="27.958960" lon="-15.551269">
        <ele>1789.90</ele>
        <time>2017-12-09T08:56:10Z</time>
      </trkpt>
      <trkpt lat="27.958983" lon="-15.551283">
        <ele>1790.19</ele>
        <time>2017-12-09T08:56:12Z</time>
      </trkpt>
      <trkpt lat="27.959001" lon="-15.551303">
        <ele>1791.09</ele>
        <time>2017-12-09T08:56:14Z</time>
      </trkpt>
      <trkpt lat="27.959021" lon="-15.551318">
        <ele>1791.30</ele>
        <time>2017-12-09T08:56:16Z</time>
      </trkpt>
      <trkpt lat="27.959042" lon="-15.551331">
        <ele>1791.40</ele>
        <time>2017-12-09T08:56:18Z</time>
      </trkpt>
      <trkpt lat="27.959060" lon="-15.551343">
        <ele>1791.80</ele>
        <time>2017-12-09T08:56:20Z</time>
      </trkpt>
      <trkpt lat="27.959074" lon="-15.551361">
        <ele>1792.10</ele>
        <time>2017-12-09T08:56:23Z</time>
      </trkpt>
      <trkpt lat="27.959090" lon="-15.551385">
        <ele>1792.60</ele>
        <time>2017-12-09T08:56:25Z</time>
      </trkpt>
      <trkpt lat="27.959098" lon="-15.551408">
        <ele>1793.10</ele>
        <time>2017-12-09T08:56:27Z</time>
      </trkpt>
      <trkpt lat="27.959111" lon="-15.551432">
        <ele>1793.50</ele>
        <time>2017-12-09T08:56:29Z</time>
      </trkpt>
      <trkpt lat="27.959129" lon="-15.551459">
        <ele>1793.72</ele>
        <time>2017-12-09T08:56:31Z</time>
      </trkpt>
      <trkpt lat="27.959154" lon="-15.551482">
        <ele>1793.70</ele>
        <time>2017-12-09T08:56:33Z</time>
      </trkpt>
      <trkpt lat="27.959186" lon="-15.551497">
        <ele>1794.31</ele>
        <time>2017-12-09T08:56:35Z</time>
      </trkpt>
      <trkpt lat="27.959202" lon="-15.551507">
        <ele>1794.61</ele>
        <time>2017-12-09T08:56:37Z</time>
      </trkpt>
      <trkpt lat="27.959221" lon="-15.551518">
        <ele>1794.80</ele>
        <time>2017-12-09T08:56:39Z</time>
      </trkpt>
      <trkpt lat="27.959245" lon="-15.551533">
        <ele>1795.00</ele>
        <time>2017-12-09T08:56:41Z</time>
      </trkpt>
      <trkpt lat="27.959273" lon="-15.551541">
        <ele>1795.90</ele>
        <time>2017-12-09T08:56:44Z</time>
      </trkpt>
      <trkpt lat="27.959289" lon="-15.551550">
        <ele>1796.30</ele>
        <time>2017-12-09T08:56:46Z</time>
      </trkpt>
      <trkpt lat="27.959305" lon="-15.551563">
        <ele>1796.80</ele>
        <time>2017-12-09T08:56:48Z</time>
      </trkpt>
      <trkpt lat="27.959323" lon="-15.551576">
        <ele>1796.95</ele>
        <time>2017-12-09T08:56:50Z</time>
      </trkpt>
      <trkpt lat="27.959343" lon="-15.551587">
        <ele>1797.51</ele>
        <time>2017-12-09T08:56:52Z</time>
      </trkpt>
      <trkpt lat="27.959363" lon="-15.551595">
        <ele>1797.92</ele>
        <time>2017-12-09T08:56:54Z</time>
      </trkpt>
      <trkpt lat="27.959389" lon="-15.551608">
        <ele>1798.10</ele>
        <time>2017-12-09T08:56:56Z</time>
      </trkpt>
      <trkpt lat="27.959407" lon="-15.551614">
        <ele>1798.10</ele>
        <time>2017-12-09T08:56:58Z</time>
      </trkpt>
      <trkpt lat="27.959422" lon="-15.551626">
        <ele>1798.13</ele>
        <time>2017-12-09T08:57:00Z</time>
      </trkpt>
      <trkpt lat="27.959446" lon="-15.551632">
        <ele>1798.34</ele>
        <time>2017-12-09T08:57:02Z</time>
      </trkpt>
      <trkpt lat="27.959464" lon="-15.551637">
        <ele>1799.23</ele>
        <time>2017-12-09T08:57:05Z</time>
      </trkpt>
      <trkpt lat="27.959488" lon="-15.551644">
        <ele>1799.80</ele>
        <time>2017-12-09T08:57:07Z</time>
      </trkpt>
      <trkpt lat="27.959506" lon="-15.551660">
        <ele>1800.52</ele>
        <time>2017-12-09T08:57:09Z</time>
      </trkpt>
      <trkpt lat="27.959521" lon="-15.551672">
        <ele>1800.70</ele>
        <time>2017-12-09T08:57:11Z</time>
      </trkpt>
      <trkpt lat="27.959535" lon="-15.551692">
        <ele>1801.17</ele>
        <time>2017-12-09T08:57:13Z</time>
      </trkpt>
      <trkpt lat="27.959549" lon="-15.551716">
        <ele>1801.49</ele>
        <time>2017-12-09T08:57:15Z</time>
      </trkpt>
      <trkpt lat="27.959569" lon="-15.551743">
        <ele>1801.82</ele>
        <time>2017-12-09T08:57:17Z</time>
      </trkpt>
      <trkpt lat="27.959589" lon="-15.551765">
        <ele>1801.80</ele>
        <time>2017-12-09T08:57:19Z</time>
      </trkpt>
      <trkpt lat="27.959611" lon="-15.551790">
        <ele>1802.53</ele>
        <time>2017-12-09T08:57:21Z</time>
      </trkpt>
      <trkpt lat="27.959628" lon="-15.551811">
        <ele>1802.60</ele>
        <time>2017-12-09T08:57:23Z</time>
      </trkpt>
      <trkpt lat="27.959649" lon="-15.551833">
        <ele>1802.53</ele>
        <time>2017-12-09T08:57:25Z</time>
      </trkpt>
      <trkpt lat="27.959671" lon="-15.551850">
        <ele>1802.94</ele>
        <time>2017-12-09T08:57:27Z</time>
      </trkpt>
      <trkpt lat="27.959688" lon="-15.551867">
        <ele>1803.30</ele>
        <time>2017-12-09T08:57:29Z</time>
      </trkpt>
      <trkpt lat="27.959709" lon="-15.551878">
        <ele>1803.30</ele>
        <time>2017-12-09T08:57:31Z</time>
      </trkpt>
      <trkpt lat="27.959730" lon="-15.551889">
        <ele>1803.70</ele>
        <time>2017-12-09T08:57:33Z</time>
      </trkpt>
      <trkpt lat="27.959750" lon="-15.551900">
        <ele>1803.63</ele>
        <time>2017-12-09T08:57:35Z</time>
      </trkpt>
      <trkpt lat="27.959768" lon="-15.551915">
        <ele>1803.79</ele>
        <time>2017-12-09T08:57:37Z</time>
      </trkpt>
      <trkpt lat="27.959786" lon="-15.551932">
        <ele>1804.93</ele>
        <time>2017-12-09T08:57:39Z</time>
      </trkpt>
      <trkpt lat="27.959807" lon="-15.551948">
        <ele>1805.63</ele>
        <time>2017-12-09T08:57:41Z</time>
      </trkpt>
      <trkpt lat="27.959828" lon="-15.551963">
        <ele>1805.70</ele>
        <time>2017-12-09T08:57:43Z</time>
      </trkpt>
      <trkpt lat="27.959844" lon="-15.551980">
        <ele>1805.83</ele>
        <time>2017-12-09T08:57:45Z</time>
      </trkpt>
      <trkpt lat="27.959859" lon="-15.551998">
        <ele>1806.29</ele>
        <time>2017-12-09T08:57:47Z</time>
      </trkpt>
      <trkpt lat="27.959875" lon="-15.552022">
        <ele>1806.87</ele>
        <time>2017-12-09T08:57:49Z</time>
      </trkpt>
      <trkpt lat="27.959888" lon="-15.552044">
        <ele>1807.14</ele>
        <time>2017-12-09T08:57:51Z</time>
      </trkpt>
      <trkpt lat="27.959902" lon="-15.552071">
        <ele>1807.34</ele>
        <time>2017-12-09T08:57:53Z</time>
      </trkpt>
      <trkpt lat="27.959918" lon="-15.552091">
        <ele>1807.61</ele>
        <time>2017-12-09T08:57:55Z</time>
      </trkpt>
      <trkpt lat="27.959933" lon="-15.552116">
        <ele>1808.00</ele>
        <time>2017-12-09T08:57:57Z</time>
      </trkpt>
      <trkpt lat="27.959943" lon="-15.552142">
        <ele>1808.00</ele>
        <time>2017-12-09T08:57:59Z</time>
      </trkpt>
      <trkpt lat="27.959954" lon="-15.552177">
        <ele>1808.00</ele>
        <time>2017-12-09T08:58:01Z</time>
      </trkpt>
      <trkpt lat="27.959961" lon="-15.552215">
        <ele>1808.23</ele>
        <time>2017-12-09T08:58:03Z</time>
      </trkpt>
      <trkpt lat="27.959966" lon="-15.552237">
        <ele>1808.50</ele>
        <time>2017-12-09T08:58:04Z</time>
      </trkpt>
      <trkpt lat="27.959969" lon="-15.552259">
        <ele>1808.50</ele>
        <time>2017-12-09T08:58:05Z</time>
      </trkpt>
      <trkpt lat="27.959974" lon="-15.552280">
        <ele>1808.64</ele>
        <time>2017-12-09T08:58:06Z</time>
      </trkpt>
      <trkpt lat="27.959982" lon="-15.552304">
        <ele>1808.80</ele>
        <time>2017-12-09T08:58:07Z</time>
      </trkpt>
      <trkpt lat="27.959993" lon="-15.552334">
        <ele>1808.80</ele>
        <time>2017-12-09T08:58:08Z</time>
      </trkpt>
      <trkpt lat="27.960006" lon="-15.552362">
        <ele>1808.90</ele>
        <time>2017-12-09T08:58:09Z</time>
      </trkpt>
      <trkpt lat="27.960018" lon="-15.552389">
        <ele>1808.90</ele>
        <time>2017-12-09T08:58:10Z</time>
      </trkpt>
      <trkpt lat="27.960027" lon="-15.552408">
        <ele>1808.90</ele>
        <time>2017-12-09T08:58:11Z</time>
      </trkpt>
      <trkpt lat="27.960039" lon="-15.552428">
        <ele>1809.00</ele>
        <time>2017-12-09T08:58:12Z</time>
      </trkpt>
      <trkpt lat="27.960049" lon="-15.552446">
        <ele>1809.00</ele>
        <time>2017-12-09T08:58:13Z</time>
      </trkpt>
      <trkpt lat="27.960066" lon="-15.552479">
        <ele>1809.10</ele>
        <time>2017-12-09T08:58:15Z</time>
      </trkpt>
      <trkpt lat="27.960082" lon="-15.552511">
        <ele>1809.10</ele>
        <time>2017-12-09T08:58:17Z</time>
      </trkpt>
      <trkpt lat="27.960095" lon="-15.552540">
        <ele>1809.10</ele>
        <time>2017-12-09T08:58:19Z</time>
      </trkpt>
      <trkpt lat="27.960106" lon="-15.552569">
        <ele>1809.10</ele>
        <time>2017-12-09T08:58:21Z</time>
      </trkpt>
      <trkpt lat="27.960117" lon="-15.552598">
        <ele>1809.15</ele>
        <time>2017-12-09T08:58:23Z</time>
      </trkpt>
      <trkpt lat="27.960134" lon="-15.552630">
        <ele>1809.30</ele>
        <time>2017-12-09T08:58:25Z</time>
      </trkpt>
      <trkpt lat="27.960144" lon="-15.552647">
        <ele>1809.30</ele>
        <time>2017-12-09T08:58:26Z</time>
      </trkpt>
      <trkpt lat="27.960161" lon="-15.552677">
        <ele>1809.35</ele>
        <time>2017-12-09T08:58:28Z</time>
      </trkpt>
      <trkpt lat="27.960174" lon="-15.552702">
        <ele>1809.66</ele>
        <time>2017-12-09T08:58:30Z</time>
      </trkpt>
      <trkpt lat="27.960190" lon="-15.552726">
        <ele>1809.80</ele>
        <time>2017-12-09T08:58:32Z</time>
      </trkpt>
      <trkpt lat="27.960207" lon="-15.552754">
        <ele>1810.16</ele>
        <time>2017-12-09T08:58:34Z</time>
      </trkpt>
      <trkpt lat="27.960221" lon="-15.552781">
        <ele>1810.20</ele>
        <time>2017-12-09T08:58:36Z</time>
      </trkpt>
      <trkpt lat="27.960237" lon="-15.552810">
        <ele>1810.20</ele>
        <time>2017-12-09T08:58:38Z</time>
      </trkpt>
      <trkpt lat="27.960248" lon="-15.552837">
        <ele>1810.30</ele>
        <time>2017-12-09T08:58:40Z</time>
      </trkpt>
      <trkpt lat="27.960263" lon="-15.552863">
        <ele>1810.83</ele>
        <time>2017-12-09T08:58:42Z</time>
      </trkpt>
      <trkpt lat="27.960279" lon="-15.552885">
        <ele>1811.16</ele>
        <time>2017-12-09T08:58:44Z</time>
      </trkpt>
      <trkpt lat="27.960294" lon="-15.552910">
        <ele>1811.20</ele>
        <time>2017-12-09T08:58:46Z</time>
      </trkpt>
      <trkpt lat="27.960311" lon="-15.552935">
        <ele>1811.32</ele>
        <time>2017-12-09T08:58:48Z</time>
      </trkpt>
      <trkpt lat="27.960327" lon="-15.552957">
        <ele>1811.59</ele>
        <time>2017-12-09T08:58:50Z</time>
      </trkpt>
      <trkpt lat="27.960344" lon="-15.552983">
        <ele>1811.70</ele>
        <time>2017-12-09T08:58:52Z</time>
      </trkpt>
      <trkpt lat="27.960358" lon="-15.553001">
        <ele>1811.90</ele>
        <time>2017-12-09T08:58:54Z</time>
      </trkpt>
      <trkpt lat="27.960376" lon="-15.553017">
        <ele>1812.03</ele>
        <time>2017-12-09T08:58:56Z</time>
      </trkpt>
      <trkpt lat="27.960396" lon="-15.553035">
        <ele>1812.30</ele>
        <time>2017-12-09T08:58:58Z</time>
      </trkpt>
      <trkpt lat="27.960419" lon="-15.553055">
        <ele>1812.77</ele>
        <time>2017-12-09T08:59:00Z</time>
      </trkpt>
      <trkpt lat="27.960435" lon="-15.553075">
        <ele>1813.20</ele>
        <time>2017-12-09T08:59:02Z</time>
      </trkpt>
      <trkpt lat="27.960450" lon="-15.553090">
        <ele>1813.41</ele>
        <time>2017-12-09T08:59:04Z</time>
      </trkpt>
      <trkpt lat="27.960470" lon="-15.553109">
        <ele>1813.77</ele>
        <time>2017-12-09T08:59:06Z</time>
      </trkpt>
      <trkpt lat="27.960492" lon="-15.553124">
        <ele>1814.19</ele>
        <time>2017-12-09T08:59:08Z</time>
      </trkpt>
      <trkpt lat="27.960510" lon="-15.553141">
        <ele>1814.67</ele>
        <time>2017-12-09T08:59:10Z</time>
      </trkpt>
      <trkpt lat="27.960528" lon="-15.553161">
        <ele>1814.92</ele>
        <time>2017-12-09T08:59:12Z</time>
      </trkpt>
      <trkpt lat="27.960549" lon="-15.553182">
        <ele>1815.07</ele>
        <time>2017-12-09T08:59:14Z</time>
      </trkpt>
      <trkpt lat="27.960569" lon="-15.553205">
        <ele>1815.39</ele>
        <time>2017-12-09T08:59:16Z</time>
      </trkpt>
      <trkpt lat="27.960591" lon="-15.553225">
        <ele>1815.65</ele>
        <time>2017-12-09T08:59:18Z</time>
      </trkpt>
      <trkpt lat="27.960615" lon="-15.553241">
        <ele>1816.35</ele>
        <time>2017-12-09T08:59:20Z</time>
      </trkpt>
      <trkpt lat="27.960639" lon="-15.553256">
        <ele>1816.63</ele>
        <time>2017-12-09T08:59:22Z</time>
      </trkpt>
      <trkpt lat="27.960661" lon="-15.553269">
        <ele>1816.80</ele>
        <time>2017-12-09T08:59:24Z</time>
      </trkpt>
      <trkpt lat="27.960678" lon="-15.553282">
        <ele>1817.18</ele>
        <time>2017-12-09T08:59:26Z</time>
      </trkpt>
      <trkpt lat="27.960702" lon="-15.553290">
        <ele>1817.48</ele>
        <time>2017-12-09T08:59:28Z</time>
      </trkpt>
      <trkpt lat="27.960724" lon="-15.553305">
        <ele>1817.88</ele>
        <time>2017-12-09T08:59:30Z</time>
      </trkpt>
      <trkpt lat="27.960744" lon="-15.553314">
        <ele>1819.10</ele>
        <time>2017-12-09T08:59:32Z</time>
      </trkpt>
      <trkpt lat="27.960764" lon="-15.553328">
        <ele>1819.56</ele>
        <time>2017-12-09T08:59:34Z</time>
      </trkpt>
      <trkpt lat="27.960784" lon="-15.553336">
        <ele>1820.00</ele>
        <time>2017-12-09T08:59:36Z</time>
      </trkpt>
      <trkpt lat="27.960809" lon="-15.553347">
        <ele>1820.99</ele>
        <time>2017-12-09T08:59:39Z</time>
      </trkpt>
      <trkpt lat="27.960823" lon="-15.553362">
        <ele>1821.36</ele>
        <time>2017-12-09T08:59:41Z</time>
      </trkpt>
      <trkpt lat="27.960840" lon="-15.553382">
        <ele>1821.88</ele>
        <time>2017-12-09T08:59:43Z</time>
      </trkpt>
      <trkpt lat="27.960860" lon="-15.553404">
        <ele>1822.32</ele>
        <time>2017-12-09T08:59:45Z</time>
      </trkpt>
      <trkpt lat="27.960876" lon="-15.553427">
        <ele>1822.66</ele>
        <time>2017-12-09T08:59:47Z</time>
      </trkpt>
      <trkpt lat="27.960888" lon="-15.553452">
        <ele>1822.96</ele>
        <time>2017-12-09T08:59:49Z</time>
      </trkpt>
      <trkpt lat="27.960899" lon="-15.553476">
        <ele>1823.00</ele>
        <time>2017-12-09T08:59:51Z</time>
      </trkpt>
      <trkpt lat="27.960911" lon="-15.553505">
        <ele>1823.64</ele>
        <time>2017-12-09T08:59:53Z</time>
      </trkpt>
      <trkpt lat="27.960921" lon="-15.553533">
        <ele>1823.98</ele>
        <time>2017-12-09T08:59:55Z</time>
      </trkpt>
      <trkpt lat="27.960929" lon="-15.553561">
        <ele>1824.18</ele>
        <time>2017-12-09T08:59:57Z</time>
      </trkpt>
      <trkpt lat="27.960932" lon="-15.553585">
        <ele>1824.10</ele>
        <time>2017-12-09T08:59:59Z</time>
      </trkpt>
      <trkpt lat="27.960936" lon="-15.553614">
        <ele>1824.10</ele>
        <time>2017-12-09T09:00:01Z</time>
      </trkpt>
      <trkpt lat="27.960938" lon="-15.553643">
        <ele>1824.38</ele>
        <time>2017-12-09T09:00:03Z</time>
      </trkpt>
      <trkpt lat="27.960941" lon="-15.553670">
        <ele>1824.50</ele>
        <time>2017-12-09T09:00:05Z</time>
      </trkpt>
      <trkpt lat="27.960939" lon="-15.553696">
        <ele>1824.72</ele>
        <time>2017-12-09T09:00:07Z</time>
      </trkpt>
      <trkpt lat="27.960936" lon="-15.553725">
        <ele>1824.99</ele>
        <time>2017-12-09T09:00:09Z</time>
      </trkpt>
      <trkpt lat="27.960928" lon="-15.553749">
        <ele>1826.05</ele>
        <time>2017-12-09T09:00:11Z</time>
      </trkpt>
      <trkpt lat="27.960915" lon="-15.553769">
        <ele>1826.90</ele>
        <time>2017-12-09T09:00:13Z</time>
      </trkpt>
      <trkpt lat="27.960899" lon="-15.553795">
        <ele>1826.30</ele>
        <time>2017-12-09T09:00:15Z</time>
      </trkpt>
      <trkpt lat="27.960889" lon="-15.553825">
        <ele>1826.40</ele>
        <time>2017-12-09T09:00:17Z</time>
      </trkpt>
      <trkpt lat="27.960879" lon="-15.553853">
        <ele>1826.40</ele>
        <time>2017-12-09T09:00:19Z</time>
      </trkpt>
      <trkpt lat="27.960864" lon="-15.553876">
        <ele>1826.67</ele>
        <time>2017-12-09T09:00:21Z</time>
      </trkpt>
      <trkpt lat="27.960855" lon="-15.553903">
        <ele>1827.22</ele>
        <time>2017-12-09T09:00:23Z</time>
      </trkpt>
      <trkpt lat="27.960854" lon="-15.553931">
        <ele>1827.54</ele>
        <time>2017-12-09T09:00:25Z</time>
      </trkpt>
      <trkpt lat="27.960852" lon="-15.553960">
        <ele>1827.60</ele>
        <time>2017-12-09T09:00:27Z</time>
      </trkpt>
      <trkpt lat="27.960845" lon="-15.553985">
        <ele>1827.87</ele>
        <time>2017-12-09T09:00:29Z</time>
      </trkpt>
      <trkpt lat="27.960843" lon="-15.554010">
        <ele>1828.36</ele>
        <time>2017-12-09T09:00:31Z</time>
      </trkpt>
      <trkpt lat="27.960843" lon="-15.554042">
        <ele>1828.70</ele>
        <time>2017-12-09T09:00:33Z</time>
      </trkpt>
      <trkpt lat="27.960836" lon="-15.554067">
        <ele>1828.85</ele>
        <time>2017-12-09T09:00:35Z</time>
      </trkpt>
      <trkpt lat="27.960829" lon="-15.554093">
        <ele>1828.97</ele>
        <time>2017-12-09T09:00:37Z</time>
      </trkpt>
      <trkpt lat="27.960819" lon="-15.554118">
        <ele>1828.93</ele>
        <time>2017-12-09T09:00:39Z</time>
      </trkpt>
      <trkpt lat="27.960807" lon="-15.554142">
        <ele>1828.93</ele>
        <time>2017-12-09T09:00:41Z</time>
      </trkpt>
      <trkpt lat="27.960797" lon="-15.554170">
        <ele>1828.83</ele>
        <time>2017-12-09T09:00:43Z</time>
      </trkpt>
      <trkpt lat="27.960786" lon="-15.554194">
        <ele>1828.80</ele>
        <time>2017-12-09T09:00:45Z</time>
      </trkpt>
      <trkpt lat="27.960771" lon="-15.554224">
        <ele>1828.65</ele>
        <time>2017-12-09T09:00:47Z</time>
      </trkpt>
      <trkpt lat="27.960759" lon="-15.554256">
        <ele>1828.25</ele>
        <time>2017-12-09T09:00:49Z</time>
      </trkpt>
      <trkpt lat="27.960750" lon="-15.554288">
        <ele>1828.10</ele>
        <time>2017-12-09T09:00:51Z</time>
      </trkpt>
      <trkpt lat="27.960742" lon="-15.554316">
        <ele>1827.79</ele>
        <time>2017-12-09T09:00:53Z</time>
      </trkpt>
      <trkpt lat="27.960739" lon="-15.554343">
        <ele>1828.01</ele>
        <time>2017-12-09T09:00:55Z</time>
      </trkpt>
      <trkpt lat="27.960733" lon="-15.554372">
        <ele>1828.18</ele>
        <time>2017-12-09T09:00:57Z</time>
      </trkpt>
      <trkpt lat="27.960727" lon="-15.554396">
        <ele>1828.78</ele>
        <time>2017-12-09T09:00:59Z</time>
      </trkpt>
      <trkpt lat="27.960715" lon="-15.554423">
        <ele>1829.23</ele>
        <time>2017-12-09T09:01:01Z</time>
      </trkpt>
      <trkpt lat="27.960705" lon="-15.554449">
        <ele>1829.30</ele>
        <time>2017-12-09T09:01:03Z</time>
      </trkpt>
      <trkpt lat="27.960694" lon="-15.554477">
        <ele>1829.70</ele>
        <time>2017-12-09T09:01:05Z</time>
      </trkpt>
      <trkpt lat="27.960680" lon="-15.554504">
        <ele>1830.01</ele>
        <time>2017-12-09T09:01:07Z</time>
      </trkpt>
      <trkpt lat="27.960668" lon="-15.554528">
        <ele>1830.30</ele>
        <time>2017-12-09T09:01:09Z</time>
      </trkpt>
      <trkpt lat="27.960650" lon="-15.554556">
        <ele>1830.20</ele>
        <time>2017-12-09T09:01:11Z</time>
      </trkpt>
      <trkpt lat="27.960636" lon="-15.554580">
        <ele>1830.20</ele>
        <time>2017-12-09T09:01:13Z</time>
      </trkpt>
      <trkpt lat="27.960631" lon="-15.554610">
        <ele>1829.52</ele>
        <time>2017-12-09T09:01:15Z</time>
      </trkpt>
      <trkpt lat="27.960624" lon="-15.554634">
        <ele>1828.96</ele>
        <time>2017-12-09T09:01:17Z</time>
      </trkpt>
      <trkpt lat="27.960612" lon="-15.554656">
        <ele>1828.52</ele>
        <time>2017-12-09T09:01:19Z</time>
      </trkpt>
      <trkpt lat="27.960604" lon="-15.554681">
        <ele>1828.40</ele>
        <time>2017-12-09T09:01:21Z</time>
      </trkpt>
      <trkpt lat="27.960589" lon="-15.554704">
        <ele>1828.10</ele>
        <time>2017-12-09T09:01:24Z</time>
      </trkpt>
      <trkpt lat="27.960582" lon="-15.554724">
        <ele>1827.85</ele>
        <time>2017-12-09T09:01:28Z</time>
      </trkpt>
      <trkpt lat="27.960592" lon="-15.554745">
        <ele>1827.50</ele>
        <time>2017-12-09T09:01:30Z</time>
      </trkpt>
      <trkpt lat="27.960576" lon="-15.554774">
        <ele>1827.80</ele>
        <time>2017-12-09T09:01:35Z</time>
      </trkpt>
      <trkpt lat="27.960565" lon="-15.554791">
        <ele>1827.80</ele>
        <time>2017-12-09T09:01:36Z</time>
      </trkpt>
      <trkpt lat="27.960552" lon="-15.554814">
        <ele>1827.80</ele>
        <time>2017-12-09T09:01:37Z</time>
      </trkpt>
      <trkpt lat="27.960537" lon="-15.554834">
        <ele>1827.36</ele>
        <time>2017-12-09T09:01:38Z</time>
      </trkpt>
      <trkpt lat="27.960523" lon="-15.554854">
        <ele>1825.41</ele>
        <time>2017-12-09T09:01:39Z</time>
      </trkpt>
      <trkpt lat="27.960514" lon="-15.554872">
        <ele>1825.00</ele>
        <time>2017-12-09T09:01:40Z</time>
      </trkpt>
      <trkpt lat="27.960496" lon="-15.554896">
        <ele>1825.60</ele>
        <time>2017-12-09T09:01:43Z</time>
      </trkpt>
      <trkpt lat="27.960484" lon="-15.554912">
        <ele>1825.60</ele>
        <time>2017-12-09T09:01:44Z</time>
      </trkpt>
      <trkpt lat="27.960473" lon="-15.554932">
        <ele>1825.22</ele>
        <time>2017-12-09T09:01:45Z</time>
      </trkpt>
      <trkpt lat="27.960462" lon="-15.554954">
        <ele>1825.20</ele>
        <time>2017-12-09T09:01:46Z</time>
      </trkpt>
      <trkpt lat="27.960450" lon="-15.555010">
        <ele>1824.91</ele>
        <time>2017-12-09T09:01:48Z</time>
      </trkpt>
      <trkpt lat="27.960442" lon="-15.555039">
        <ele>1824.71</ele>
        <time>2017-12-09T09:01:49Z</time>
      </trkpt>
      <trkpt lat="27.960438" lon="-15.555063">
        <ele>1824.40</ele>
        <time>2017-12-09T09:01:50Z</time>
      </trkpt>
      <trkpt lat="27.960444" lon="-15.555094">
        <ele>1823.64</ele>
        <time>2017-12-09T09:01:52Z</time>
      </trkpt>
      <trkpt lat="27.960431" lon="-15.555116">
        <ele>1823.60</ele>
        <time>2017-12-09T09:01:54Z</time>
      </trkpt>
      <trkpt lat="27.960423" lon="-15.555135">
        <ele>1823.60</ele>
        <time>2017-12-09T09:01:56Z</time>
      </trkpt>
      <trkpt lat="27.960429" lon="-15.555155">
        <ele>1823.16</ele>
        <time>2017-12-09T09:01:58Z</time>
      </trkpt>
      <trkpt lat="27.960443" lon="-15.555173">
        <ele>1823.10</ele>
        <time>2017-12-09T09:02:00Z</time>
      </trkpt>
      <trkpt lat="27.960444" lon="-15.555198">
        <ele>1823.60</ele>
        <time>2017-12-09T09:02:08Z</time>
      </trkpt>
      <trkpt lat="27.960426" lon="-15.555209">
        <ele>1823.50</ele>
        <time>2017-12-09T09:02:10Z</time>
      </trkpt>
      <trkpt lat="27.960375" lon="-15.555170">
        <ele>1823.39</ele>
        <time>2017-12-09T09:02:20Z</time>
      </trkpt>
      <trkpt lat="27.960355" lon="-15.555174">
        <ele>1823.40</ele>
        <time>2017-12-09T09:02:23Z</time>
      </trkpt>
      <trkpt lat="27.960336" lon="-15.555185">
        <ele>1823.39</ele>
        <time>2017-12-09T09:02:25Z</time>
      </trkpt>
      <trkpt lat="27.960315" lon="-15.555189">
        <ele>1823.90</ele>
        <time>2017-12-09T09:02:29Z</time>
      </trkpt>
      <trkpt lat="27.960296" lon="-15.555191">
        <ele>1823.90</ele>
        <time>2017-12-09T09:02:31Z</time>
      </trkpt>
      <trkpt lat="27.960281" lon="-15.555203">
        <ele>1824.00</ele>
        <time>2017-12-09T09:02:33Z</time>
      </trkpt>
      <trkpt lat="27.960262" lon="-15.555209">
        <ele>1825.09</ele>
        <time>2017-12-09T09:02:36Z</time>
      </trkpt>
      <trkpt lat="27.960243" lon="-15.555222">
        <ele>1827.20</ele>
        <time>2017-12-09T09:02:39Z</time>
      </trkpt>
      <trkpt lat="27.960225" lon="-15.555239">
        <ele>1827.60</ele>
        <time>2017-12-09T09:02:41Z</time>
      </trkpt>
      <trkpt lat="27.960206" lon="-15.555251">
        <ele>1827.60</ele>
        <time>2017-12-09T09:02:43Z</time>
      </trkpt>
      <trkpt lat="27.960185" lon="-15.555266">
        <ele>1827.70</ele>
        <time>2017-12-09T09:02:45Z</time>
      </trkpt>
      <trkpt lat="27.960175" lon="-15.555284">
        <ele>1827.30</ele>
        <time>2017-12-09T09:02:47Z</time>
      </trkpt>
      <trkpt lat="27.960160" lon="-15.555305">
        <ele>1828.10</ele>
        <time>2017-12-09T09:02:50Z</time>
      </trkpt>
      <trkpt lat="27.960151" lon="-15.555329">
        <ele>1828.70</ele>
        <time>2017-12-09T09:02:53Z</time>
      </trkpt>
      <trkpt lat="27.960150" lon="-15.555356">
        <ele>1828.81</ele>
        <time>2017-12-09T09:02:55Z</time>
      </trkpt>
      <trkpt lat="27.960140" lon="-15.555381">
        <ele>1830.20</ele>
        <time>2017-12-09T09:02:58Z</time>
      </trkpt>
      <trkpt lat="27.960132" lon="-15.555406">
        <ele>1830.91</ele>
        <time>2017-12-09T09:03:01Z</time>
      </trkpt>
      <trkpt lat="27.960114" lon="-15.555425">
        <ele>1832.20</ele>
        <time>2017-12-09T09:03:05Z</time>
      </trkpt>
      <trkpt lat="27.960089" lon="-15.555438">
        <ele>1832.40</ele>
        <time>2017-12-09T09:03:08Z</time>
      </trkpt>
      <trkpt lat="27.960072" lon="-15.555446">
        <ele>1832.90</ele>
        <time>2017-12-09T09:03:10Z</time>
      </trkpt>
      <trkpt lat="27.960044" lon="-15.555450">
        <ele>1834.10</ele>
        <time>2017-12-09T09:03:12Z</time>
      </trkpt>
      <trkpt lat="27.960014" lon="-15.555453">
        <ele>1834.19</ele>
        <time>2017-12-09T09:03:14Z</time>
      </trkpt>
      <trkpt lat="27.959990" lon="-15.555463">
        <ele>1834.09</ele>
        <time>2017-12-09T09:03:16Z</time>
      </trkpt>
      <trkpt lat="27.959972" lon="-15.555476">
        <ele>1833.99</ele>
        <time>2017-12-09T09:03:18Z</time>
      </trkpt>
      <trkpt lat="27.959957" lon="-15.555492">
        <ele>1834.00</ele>
        <time>2017-12-09T09:03:20Z</time>
      </trkpt>
      <trkpt lat="27.959942" lon="-15.555510">
        <ele>1834.80</ele>
        <time>2017-12-09T09:03:22Z</time>
      </trkpt>
      <trkpt lat="27.959926" lon="-15.555524">
        <ele>1835.11</ele>
        <time>2017-12-09T09:03:24Z</time>
      </trkpt>
      <trkpt lat="27.959913" lon="-15.555541">
        <ele>1835.30</ele>
        <time>2017-12-09T09:03:26Z</time>
      </trkpt>
      <trkpt lat="27.959901" lon="-15.555563">
        <ele>1835.31</ele>
        <time>2017-12-09T09:03:28Z</time>
      </trkpt>
      <trkpt lat="27.959893" lon="-15.555583">
        <ele>1836.20</ele>
        <time>2017-12-09T09:03:30Z</time>
      </trkpt>
      <trkpt lat="27.959885" lon="-15.555604">
        <ele>1836.70</ele>
        <time>2017-12-09T09:03:32Z</time>
      </trkpt>
      <trkpt lat="27.959871" lon="-15.555631">
        <ele>1837.20</ele>
        <time>2017-12-09T09:03:35Z</time>
      </trkpt>
      <trkpt lat="27.959881" lon="-15.555657">
        <ele>1837.64</ele>
        <time>2017-12-09T09:03:38Z</time>
      </trkpt>
      <trkpt lat="27.959895" lon="-15.555675">
        <ele>1838.54</ele>
        <time>2017-12-09T09:03:41Z</time>
      </trkpt>
      <trkpt lat="27.959905" lon="-15.555696">
        <ele>1839.90</ele>
        <time>2017-12-09T09:03:44Z</time>
      </trkpt>
      <trkpt lat="27.959913" lon="-15.555715">
        <ele>1841.46</ele>
        <time>2017-12-09T09:03:47Z</time>
      </trkpt>
      <trkpt lat="27.959913" lon="-15.555743">
        <ele>1842.06</ele>
        <time>2017-12-09T09:03:51Z</time>
      </trkpt>
      <trkpt lat="27.959902" lon="-15.555760">
        <ele>1842.97</ele>
        <time>2017-12-09T09:03:53Z</time>
      </trkpt>
      <trkpt lat="27.959902" lon="-15.555791">
        <ele>1842.89</ele>
        <time>2017-12-09T09:03:56Z</time>
      </trkpt>
      <trkpt lat="27.959896" lon="-15.555814">
        <ele>1843.60</ele>
        <time>2017-12-09T09:03:59Z</time>
      </trkpt>
      <trkpt lat="27.959892" lon="-15.555839">
        <ele>1844.10</ele>
        <time>2017-12-09T09:04:02Z</time>
      </trkpt>
      <trkpt lat="27.959886" lon="-15.555867">
        <ele>1844.25</ele>
        <time>2017-12-09T09:04:04Z</time>
      </trkpt>
      <trkpt lat="27.959878" lon="-15.555888">
        <ele>1845.34</ele>
        <time>2017-12-09T09:04:06Z</time>
      </trkpt>
      <trkpt lat="27.959868" lon="-15.555911">
        <ele>1845.93</ele>
        <time>2017-12-09T09:04:08Z</time>
      </trkpt>
      <trkpt lat="27.959854" lon="-15.555940">
        <ele>1847.51</ele>
        <time>2017-12-09T09:04:11Z</time>
      </trkpt>
      <trkpt lat="27.959843" lon="-15.555958">
        <ele>1848.03</ele>
        <time>2017-12-09T09:04:13Z</time>
      </trkpt>
      <trkpt lat="27.959827" lon="-15.555982">
        <ele>1848.73</ele>
        <time>2017-12-09T09:04:16Z</time>
      </trkpt>
      <trkpt lat="27.959819" lon="-15.556002">
        <ele>1849.34</ele>
        <time>2017-12-09T09:04:18Z</time>
      </trkpt>
      <trkpt lat="27.959803" lon="-15.556025">
        <ele>1850.11</ele>
        <time>2017-12-09T09:04:21Z</time>
      </trkpt>
      <trkpt lat="27.959786" lon="-15.556041">
        <ele>1850.20</ele>
        <time>2017-12-09T09:04:23Z</time>
      </trkpt>
      <trkpt lat="27.959770" lon="-15.556059">
        <ele>1850.40</ele>
        <time>2017-12-09T09:04:25Z</time>
      </trkpt>
      <trkpt lat="27.959756" lon="-15.556082">
        <ele>1850.59</ele>
        <time>2017-12-09T09:04:27Z</time>
      </trkpt>
      <trkpt lat="27.959745" lon="-15.556105">
        <ele>1850.50</ele>
        <time>2017-12-09T09:04:29Z</time>
      </trkpt>
      <trkpt lat="27.959732" lon="-15.556124">
        <ele>1850.36</ele>
        <time>2017-12-09T09:04:31Z</time>
      </trkpt>
      <trkpt lat="27.959708" lon="-15.556139">
        <ele>1850.40</ele>
        <time>2017-12-09T09:04:33Z</time>
      </trkpt>
      <trkpt lat="27.959687" lon="-15.556160">
        <ele>1850.43</ele>
        <time>2017-12-09T09:04:35Z</time>
      </trkpt>
      <trkpt lat="27.959670" lon="-15.556179">
        <ele>1850.73</ele>
        <time>2017-12-09T09:04:37Z</time>
      </trkpt>
      <trkpt lat="27.959656" lon="-15.556204">
        <ele>1851.21</ele>
        <time>2017-12-09T09:04:39Z</time>
      </trkpt>
      <trkpt lat="27.959646" lon="-15.556225">
        <ele>1851.50</ele>
        <time>2017-12-09T09:04:41Z</time>
      </trkpt>
      <trkpt lat="27.959634" lon="-15.556249">
        <ele>1851.47</ele>
        <time>2017-12-09T09:04:43Z</time>
      </trkpt>
      <trkpt lat="27.959623" lon="-15.556272">
        <ele>1850.99</ele>
        <time>2017-12-09T09:04:45Z</time>
      </trkpt>
      <trkpt lat="27.959608" lon="-15.556294">
        <ele>1850.90</ele>
        <time>2017-12-09T09:04:47Z</time>
      </trkpt>
      <trkpt lat="27.959595" lon="-15.556312">
        <ele>1851.80</ele>
        <time>2017-12-09T09:04:51Z</time>
      </trkpt>
      <trkpt lat="27.959585" lon="-15.556331">
        <ele>1850.79</ele>
        <time>2017-12-09T09:04:57Z</time>
      </trkpt>
      <trkpt lat="27.959569" lon="-15.556342">
        <ele>1848.50</ele>
        <time>2017-12-09T09:05:08Z</time>
      </trkpt>
      <trkpt lat="27.959568" lon="-15.556368">
        <ele>1848.30</ele>
        <time>2017-12-09T09:05:14Z</time>
      </trkpt>
      <trkpt lat="27.959564" lon="-15.556391">
        <ele>1847.30</ele>
        <time>2017-12-09T09:05:20Z</time>
      </trkpt>
      <trkpt lat="27.959548" lon="-15.556376">
        <ele>1846.95</ele>
        <time>2017-12-09T09:05:27Z</time>
      </trkpt>
      <trkpt lat="27.959527" lon="-15.556375">
        <ele>1846.50</ele>
        <time>2017-12-09T09:05:31Z</time>
      </trkpt>
      <trkpt lat="27.959507" lon="-15.556380">
        <ele>1845.29</ele>
        <time>2017-12-09T09:05:34Z</time>
      </trkpt>
      <trkpt lat="27.959495" lon="-15.556397">
        <ele>1845.06</ele>
        <time>2017-12-09T09:05:36Z</time>
      </trkpt>
      <trkpt lat="27.959477" lon="-15.556423">
        <ele>1844.60</ele>
        <time>2017-12-09T09:05:38Z</time>
      </trkpt>
      <trkpt lat="27.959457" lon="-15.556438">
        <ele>1844.20</ele>
        <time>2017-12-09T09:05:40Z</time>
      </trkpt>
      <trkpt lat="27.959439" lon="-15.556436">
        <ele>1844.37</ele>
        <time>2017-12-09T09:05:42Z</time>
      </trkpt>
      <trkpt lat="27.959418" lon="-15.556419">
        <ele>1844.41</ele>
        <time>2017-12-09T09:05:44Z</time>
      </trkpt>
      <trkpt lat="27.959400" lon="-15.556403">
        <ele>1844.50</ele>
        <time>2017-12-09T09:05:46Z</time>
      </trkpt>
      <trkpt lat="27.959380" lon="-15.556386">
        <ele>1844.61</ele>
        <time>2017-12-09T09:05:48Z</time>
      </trkpt>
      <trkpt lat="27.959353" lon="-15.556374">
        <ele>1844.69</ele>
        <time>2017-12-09T09:05:50Z</time>
      </trkpt>
      <trkpt lat="27.959324" lon="-15.556359">
        <ele>1843.40</ele>
        <time>2017-12-09T09:05:52Z</time>
      </trkpt>
      <trkpt lat="27.959299" lon="-15.556346">
        <ele>1843.70</ele>
        <time>2017-12-09T09:05:54Z</time>
      </trkpt>
      <trkpt lat="27.959265" lon="-15.556343">
        <ele>1843.73</ele>
        <time>2017-12-09T09:05:56Z</time>
      </trkpt>
      <trkpt lat="27.959248" lon="-15.556352">
        <ele>1843.91</ele>
        <time>2017-12-09T09:05:57Z</time>
      </trkpt>
      <trkpt lat="27.959223" lon="-15.556373">
        <ele>1844.09</ele>
        <time>2017-12-09T09:05:59Z</time>
      </trkpt>
      <trkpt lat="27.959196" lon="-15.556388">
        <ele>1844.27</ele>
        <time>2017-12-09T09:06:01Z</time>
      </trkpt>
      <trkpt lat="27.959174" lon="-15.556407">
        <ele>1844.72</ele>
        <time>2017-12-09T09:06:03Z</time>
      </trkpt>
      <trkpt lat="27.959152" lon="-15.556425">
        <ele>1844.82</ele>
        <time>2017-12-09T09:06:05Z</time>
      </trkpt>
      <trkpt lat="27.959125" lon="-15.556431">
        <ele>1844.91</ele>
        <time>2017-12-09T09:06:07Z</time>
      </trkpt>
      <trkpt lat="27.959105" lon="-15.556431">
        <ele>1844.48</ele>
        <time>2017-12-09T09:06:09Z</time>
      </trkpt>
      <trkpt lat="27.959076" lon="-15.556427">
        <ele>1845.03</ele>
        <time>2017-12-09T09:06:11Z</time>
      </trkpt>
      <trkpt lat="27.959057" lon="-15.556435">
        <ele>1845.34</ele>
        <time>2017-12-09T09:06:13Z</time>
      </trkpt>
      <trkpt lat="27.959035" lon="-15.556439">
        <ele>1845.27</ele>
        <time>2017-12-09T09:06:15Z</time>
      </trkpt>
      <trkpt lat="27.959006" lon="-15.556450">
        <ele>1845.70</ele>
        <time>2017-12-09T09:06:17Z</time>
      </trkpt>
      <trkpt lat="27.958981" lon="-15.556462">
        <ele>1845.71</ele>
        <time>2017-12-09T09:06:19Z</time>
      </trkpt>
      <trkpt lat="27.958963" lon="-15.556476">
        <ele>1845.80</ele>
        <time>2017-12-09T09:06:21Z</time>
      </trkpt>
      <trkpt lat="27.958938" lon="-15.556487">
        <ele>1845.83</ele>
        <time>2017-12-09T09:06:23Z</time>
      </trkpt>
      <trkpt lat="27.958914" lon="-15.556497">
        <ele>1846.40</ele>
        <time>2017-12-09T09:06:25Z</time>
      </trkpt>
      <trkpt lat="27.958891" lon="-15.556509">
        <ele>1846.40</ele>
        <time>2017-12-09T09:06:27Z</time>
      </trkpt>
      <trkpt lat="27.958867" lon="-15.556518">
        <ele>1846.60</ele>
        <time>2017-12-09T09:06:29Z</time>
      </trkpt>
      <trkpt lat="27.958842" lon="-15.556520">
        <ele>1847.07</ele>
        <time>2017-12-09T09:06:32Z</time>
      </trkpt>
      <trkpt lat="27.958823" lon="-15.556528">
        <ele>1847.53</ele>
        <time>2017-12-09T09:06:34Z</time>
      </trkpt>
      <trkpt lat="27.958800" lon="-15.556531">
        <ele>1847.77</ele>
        <time>2017-12-09T09:06:36Z</time>
      </trkpt>
      <trkpt lat="27.958779" lon="-15.556534">
        <ele>1848.30</ele>
        <time>2017-12-09T09:06:38Z</time>
      </trkpt>
      <trkpt lat="27.958758" lon="-15.556540">
        <ele>1848.34</ele>
        <time>2017-12-09T09:06:40Z</time>
      </trkpt>
      <trkpt lat="27.958737" lon="-15.556543">
        <ele>1848.61</ele>
        <time>2017-12-09T09:06:42Z</time>
      </trkpt>
      <trkpt lat="27.958715" lon="-15.556552">
        <ele>1848.71</ele>
        <time>2017-12-09T09:06:44Z</time>
      </trkpt>
      <trkpt lat="27.958693" lon="-15.556559">
        <ele>1848.81</ele>
        <time>2017-12-09T09:06:46Z</time>
      </trkpt>
      <trkpt lat="27.958668" lon="-15.556564">
        <ele>1848.91</ele>
        <time>2017-12-09T09:06:48Z</time>
      </trkpt>
      <trkpt lat="27.958642" lon="-15.556571">
        <ele>1849.41</ele>
        <time>2017-12-09T09:06:50Z</time>
      </trkpt>
      <trkpt lat="27.958618" lon="-15.556580">
        <ele>1849.50</ele>
        <time>2017-12-09T09:06:52Z</time>
      </trkpt>
      <trkpt lat="27.958596" lon="-15.556590">
        <ele>1849.50</ele>
        <time>2017-12-09T09:06:54Z</time>
      </trkpt>
      <trkpt lat="27.958571" lon="-15.556604">
        <ele>1849.73</ele>
        <time>2017-12-09T09:06:56Z</time>
      </trkpt>
      <trkpt lat="27.958546" lon="-15.556618">
        <ele>1850.30</ele>
        <time>2017-12-09T09:06:58Z</time>
      </trkpt>
      <trkpt lat="27.958523" lon="-15.556632">
        <ele>1850.40</ele>
        <time>2017-12-09T09:07:00Z</time>
      </trkpt>
      <trkpt lat="27.958501" lon="-15.556644">
        <ele>1850.40</ele>
        <time>2017-12-09T09:07:02Z</time>
      </trkpt>
      <trkpt lat="27.958476" lon="-15.556655">
        <ele>1850.40</ele>
        <time>2017-12-09T09:07:04Z</time>
      </trkpt>
      <trkpt lat="27.958452" lon="-15.556665">
        <ele>1850.45</ele>
        <time>2017-12-09T09:07:06Z</time>
      </trkpt>
      <trkpt lat="27.958432" lon="-15.556683">
        <ele>1850.83</ele>
        <time>2017-12-09T09:07:08Z</time>
      </trkpt>
      <trkpt lat="27.958413" lon="-15.556696">
        <ele>1851.61</ele>
        <time>2017-12-09T09:07:10Z</time>
      </trkpt>
      <trkpt lat="27.958387" lon="-15.556711">
        <ele>1851.79</ele>
        <time>2017-12-09T09:07:12Z</time>
      </trkpt>
      <trkpt lat="27.958364" lon="-15.556723">
        <ele>1852.30</ele>
        <time>2017-12-09T09:07:14Z</time>
      </trkpt>
      <trkpt lat="27.958344" lon="-15.556728">
        <ele>1852.30</ele>
        <time>2017-12-09T09:07:16Z</time>
      </trkpt>
      <trkpt lat="27.958320" lon="-15.556741">
        <ele>1852.31</ele>
        <time>2017-12-09T09:07:18Z</time>
      </trkpt>
      <trkpt lat="27.958298" lon="-15.556754">
        <ele>1852.90</ele>
        <time>2017-12-09T09:07:20Z</time>
      </trkpt>
      <trkpt lat="27.958273" lon="-15.556764">
        <ele>1853.00</ele>
        <time>2017-12-09T09:07:22Z</time>
      </trkpt>
      <trkpt lat="27.958252" lon="-15.556779">
        <ele>1853.42</ele>
        <time>2017-12-09T09:07:24Z</time>
      </trkpt>
      <trkpt lat="27.958229" lon="-15.556790">
        <ele>1853.89</ele>
        <time>2017-12-09T09:07:26Z</time>
      </trkpt>
      <trkpt lat="27.958205" lon="-15.556802">
        <ele>1854.84</ele>
        <time>2017-12-09T09:07:28Z</time>
      </trkpt>
      <trkpt lat="27.958183" lon="-15.556813">
        <ele>1855.20</ele>
        <time>2017-12-09T09:07:30Z</time>
      </trkpt>
      <trkpt lat="27.958163" lon="-15.556822">
        <ele>1855.60</ele>
        <time>2017-12-09T09:07:32Z</time>
      </trkpt>
      <trkpt lat="27.958142" lon="-15.556834">
        <ele>1855.71</ele>
        <time>2017-12-09T09:07:34Z</time>
      </trkpt>
      <trkpt lat="27.958123" lon="-15.556842">
        <ele>1856.20</ele>
        <time>2017-12-09T09:07:36Z</time>
      </trkpt>
      <trkpt lat="27.958102" lon="-15.556849">
        <ele>1856.22</ele>
        <time>2017-12-09T09:07:38Z</time>
      </trkpt>
      <trkpt lat="27.958077" lon="-15.556862">
        <ele>1856.44</ele>
        <time>2017-12-09T09:07:40Z</time>
      </trkpt>
      <trkpt lat="27.958057" lon="-15.556876">
        <ele>1857.90</ele>
        <time>2017-12-09T09:07:42Z</time>
      </trkpt>
      <trkpt lat="27.958038" lon="-15.556890">
        <ele>1857.95</ele>
        <time>2017-12-09T09:07:44Z</time>
      </trkpt>
      <trkpt lat="27.958020" lon="-15.556909">
        <ele>1858.40</ele>
        <time>2017-12-09T09:07:46Z</time>
      </trkpt>
      <trkpt lat="27.958010" lon="-15.556927">
        <ele>1858.90</ele>
        <time>2017-12-09T09:07:48Z</time>
      </trkpt>
      <trkpt lat="27.957993" lon="-15.556947">
        <ele>1859.22</ele>
        <time>2017-12-09T09:07:50Z</time>
      </trkpt>
      <trkpt lat="27.957986" lon="-15.556974">
        <ele>1859.67</ele>
        <time>2017-12-09T09:07:52Z</time>
      </trkpt>
      <trkpt lat="27.957984" lon="-15.557000">
        <ele>1860.72</ele>
        <time>2017-12-09T09:07:54Z</time>
      </trkpt>
      <trkpt lat="27.957979" lon="-15.557027">
        <ele>1861.50</ele>
        <time>2017-12-09T09:07:56Z</time>
      </trkpt>
      <trkpt lat="27.957975" lon="-15.557056">
        <ele>1861.61</ele>
        <time>2017-12-09T09:07:58Z</time>
      </trkpt>
      <trkpt lat="27.957976" lon="-15.557082">
        <ele>1862.20</ele>
        <time>2017-12-09T09:08:00Z</time>
      </trkpt>
      <trkpt lat="27.957977" lon="-15.557107">
        <ele>1862.29</ele>
        <time>2017-12-09T09:08:02Z</time>
      </trkpt>
      <trkpt lat="27.957974" lon="-15.557129">
        <ele>1862.35</ele>
        <time>2017-12-09T09:08:04Z</time>
      </trkpt>
      <trkpt lat="27.957971" lon="-15.557154">
        <ele>1862.27</ele>
        <time>2017-12-09T09:08:06Z</time>
      </trkpt>
      <trkpt lat="27.957967" lon="-15.557184">
        <ele>1862.63</ele>
        <time>2017-12-09T09:08:08Z</time>
      </trkpt>
      <trkpt lat="27.957963" lon="-15.557210">
        <ele>1862.70</ele>
        <time>2017-12-09T09:08:10Z</time>
      </trkpt>
      <trkpt lat="27.957958" lon="-15.557235">
        <ele>1862.73</ele>
        <time>2017-12-09T09:08:12Z</time>
      </trkpt>
      <trkpt lat="27.957950" lon="-15.557259">
        <ele>1863.20</ele>
        <time>2017-12-09T09:08:14Z</time>
      </trkpt>
      <trkpt lat="27.957945" lon="-15.557288">
        <ele>1863.34</ele>
        <time>2017-12-09T09:08:16Z</time>
      </trkpt>
      <trkpt lat="27.957940" lon="-15.557315">
        <ele>1863.60</ele>
        <time>2017-12-09T09:08:18Z</time>
      </trkpt>
      <trkpt lat="27.957936" lon="-15.557339">
        <ele>1864.24</ele>
        <time>2017-12-09T09:08:20Z</time>
      </trkpt>
      <trkpt lat="27.957932" lon="-15.557368">
        <ele>1864.41</ele>
        <time>2017-12-09T09:08:22Z</time>
      </trkpt>
      <trkpt lat="27.957927" lon="-15.557396">
        <ele>1864.68</ele>
        <time>2017-12-09T09:08:24Z</time>
      </trkpt>
      <trkpt lat="27.957917" lon="-15.557420">
        <ele>1865.50</ele>
        <time>2017-12-09T09:08:26Z</time>
      </trkpt>
      <trkpt lat="27.957909" lon="-15.557448">
        <ele>1865.83</ele>
        <time>2017-12-09T09:08:28Z</time>
      </trkpt>
      <trkpt lat="27.957909" lon="-15.557476">
        <ele>1866.26</ele>
        <time>2017-12-09T09:08:30Z</time>
      </trkpt>
      <trkpt lat="27.957912" lon="-15.557503">
        <ele>1866.31</ele>
        <time>2017-12-09T09:08:32Z</time>
      </trkpt>
      <trkpt lat="27.957912" lon="-15.557530">
        <ele>1866.64</ele>
        <time>2017-12-09T09:08:34Z</time>
      </trkpt>
      <trkpt lat="27.957911" lon="-15.557561">
        <ele>1866.65</ele>
        <time>2017-12-09T09:08:36Z</time>
      </trkpt>
      <trkpt lat="27.957912" lon="-15.557591">
        <ele>1867.11</ele>
        <time>2017-12-09T09:08:38Z</time>
      </trkpt>
      <trkpt lat="27.957912" lon="-15.557620">
        <ele>1867.85</ele>
        <time>2017-12-09T09:08:40Z</time>
      </trkpt>
      <trkpt lat="27.957913" lon="-15.557646">
        <ele>1868.22</ele>
        <time>2017-12-09T09:08:42Z</time>
      </trkpt>
      <trkpt lat="27.957918" lon="-15.557678">
        <ele>1868.42</ele>
        <time>2017-12-09T09:08:44Z</time>
      </trkpt>
      <trkpt lat="27.957922" lon="-15.557707">
        <ele>1869.10</ele>
        <time>2017-12-09T09:08:46Z</time>
      </trkpt>
      <trkpt lat="27.957929" lon="-15.557734">
        <ele>1869.14</ele>
        <time>2017-12-09T09:08:48Z</time>
      </trkpt>
      <trkpt lat="27.957935" lon="-15.557759">
        <ele>1869.85</ele>
        <time>2017-12-09T09:08:50Z</time>
      </trkpt>
      <trkpt lat="27.957939" lon="-15.557787">
        <ele>1870.42</ele>
        <time>2017-12-09T09:08:52Z</time>
      </trkpt>
      <trkpt lat="27.957942" lon="-15.557813">
        <ele>1870.10</ele>
        <time>2017-12-09T09:08:54Z</time>
      </trkpt>
      <trkpt lat="27.957946" lon="-15.557844">
        <ele>1870.08</ele>
        <time>2017-12-09T09:08:56Z</time>
      </trkpt>
      <trkpt lat="27.957943" lon="-15.557874">
        <ele>1869.92</ele>
        <time>2017-12-09T09:08:58Z</time>
      </trkpt>
      <trkpt lat="27.957939" lon="-15.557904">
        <ele>1869.10</ele>
        <time>2017-12-09T09:09:00Z</time>
      </trkpt>
      <trkpt lat="27.957939" lon="-15.557930">
        <ele>1869.02</ele>
        <time>2017-12-09T09:09:02Z</time>
      </trkpt>
      <trkpt lat="27.957944" lon="-15.557959">
        <ele>1867.80</ele>
        <time>2017-12-09T09:09:05Z</time>
      </trkpt>
      <trkpt lat="27.957958" lon="-15.557979">
        <ele>1867.84</ele>
        <time>2017-12-09T09:09:07Z</time>
      </trkpt>
      <trkpt lat="27.957979" lon="-15.558003">
        <ele>1868.09</ele>
        <time>2017-12-09T09:09:09Z</time>
      </trkpt>
      <trkpt lat="27.957997" lon="-15.558024">
        <ele>1869.00</ele>
        <time>2017-12-09T09:09:11Z</time>
      </trkpt>
      <trkpt lat="27.958012" lon="-15.558046">
        <ele>1869.00</ele>
        <time>2017-12-09T09:09:12Z</time>
      </trkpt>
      <trkpt lat="27.958028" lon="-15.558070">
        <ele>1869.00</ele>
        <time>2017-12-09T09:09:13Z</time>
      </trkpt>
      <trkpt lat="27.958042" lon="-15.558090">
        <ele>1869.00</ele>
        <time>2017-12-09T09:09:14Z</time>
      </trkpt>
      <trkpt lat="27.958057" lon="-15.558112">
        <ele>1868.93</ele>
        <time>2017-12-09T09:09:15Z</time>
      </trkpt>
      <trkpt lat="27.958073" lon="-15.558134">
        <ele>1868.70</ele>
        <time>2017-12-09T09:09:16Z</time>
      </trkpt>
      <trkpt lat="27.958088" lon="-15.558155">
        <ele>1868.70</ele>
        <time>2017-12-09T09:09:17Z</time>
      </trkpt>
      <trkpt lat="27.958108" lon="-15.558183">
        <ele>1868.70</ele>
        <time>2017-12-09T09:09:18Z</time>
      </trkpt>
      <trkpt lat="27.958126" lon="-15.558209">
        <ele>1868.70</ele>
        <time>2017-12-09T09:09:19Z</time>
      </trkpt>
      <trkpt lat="27.958144" lon="-15.558235">
        <ele>1868.70</ele>
        <time>2017-12-09T09:09:20Z</time>
      </trkpt>
      <trkpt lat="27.958161" lon="-15.558261">
        <ele>1868.63</ele>
        <time>2017-12-09T09:09:21Z</time>
      </trkpt>
      <trkpt lat="27.958178" lon="-15.558285">
        <ele>1868.47</ele>
        <time>2017-12-09T09:09:22Z</time>
      </trkpt>
      <trkpt lat="27.958195" lon="-15.558305">
        <ele>1868.63</ele>
        <time>2017-12-09T09:09:23Z</time>
      </trkpt>
      <trkpt lat="27.958211" lon="-15.558322">
        <ele>1868.40</ele>
        <time>2017-12-09T09:09:24Z</time>
      </trkpt>
      <trkpt lat="27.958229" lon="-15.558339">
        <ele>1868.33</ele>
        <time>2017-12-09T09:09:25Z</time>
      </trkpt>
      <trkpt lat="27.958244" lon="-15.558354">
        <ele>1868.10</ele>
        <time>2017-12-09T09:09:26Z</time>
      </trkpt>
      <trkpt lat="27.958261" lon="-15.558370">
        <ele>1868.10</ele>
        <time>2017-12-09T09:09:27Z</time>
      </trkpt>
      <trkpt lat="27.958278" lon="-15.558387">
        <ele>1868.12</ele>
        <time>2017-12-09T09:09:28Z</time>
      </trkpt>
      <trkpt lat="27.958296" lon="-15.558405">
        <ele>1868.03</ele>
        <time>2017-12-09T09:09:29Z</time>
      </trkpt>
      <trkpt lat="27.958313" lon="-15.558423">
        <ele>1867.62</ele>
        <time>2017-12-09T09:09:30Z</time>
      </trkpt>
      <trkpt lat="27.958333" lon="-15.558443">
        <ele>1867.90</ele>
        <time>2017-12-09T09:09:31Z</time>
      </trkpt>
      <trkpt lat="27.958348" lon="-15.558460">
        <ele>1867.60</ele>
        <time>2017-12-09T09:09:32Z</time>
      </trkpt>
      <trkpt lat="27.958364" lon="-15.558480">
        <ele>1867.60</ele>
        <time>2017-12-09T09:09:33Z</time>
      </trkpt>
      <trkpt lat="27.958377" lon="-15.558502">
        <ele>1867.60</ele>
        <time>2017-12-09T09:09:34Z</time>
      </trkpt>
      <trkpt lat="27.958389" lon="-15.558526">
        <ele>1867.60</ele>
        <time>2017-12-09T09:09:35Z</time>
      </trkpt>
      <trkpt lat="27.958402" lon="-15.558550">
        <ele>1867.60</ele>
        <time>2017-12-09T09:09:36Z</time>
      </trkpt>
      <trkpt lat="27.958412" lon="-15.558567">
        <ele>1867.60</ele>
        <time>2017-12-09T09:09:37Z</time>
      </trkpt>
      <trkpt lat="27.958426" lon="-15.558597">
        <ele>1867.42</ele>
        <time>2017-12-09T09:09:39Z</time>
      </trkpt>
      <trkpt lat="27.958440" lon="-15.558630">
        <ele>1867.71</ele>
        <time>2017-12-09T09:09:41Z</time>
      </trkpt>
      <trkpt lat="27.958448" lon="-15.558650">
        <ele>1868.27</ele>
        <time>2017-12-09T09:09:42Z</time>
      </trkpt>
      <trkpt lat="27.958458" lon="-15.558671">
        <ele>1868.23</ele>
        <time>2017-12-09T09:09:43Z</time>
      </trkpt>
      <trkpt lat="27.958465" lon="-15.558690">
        <ele>1868.30</ele>
        <time>2017-12-09T09:09:44Z</time>
      </trkpt>
      <trkpt lat="27.958477" lon="-15.558727">
        <ele>1868.30</ele>
        <time>2017-12-09T09:09:46Z</time>
      </trkpt>
      <trkpt lat="27.958490" lon="-15.558766">
        <ele>1868.30</ele>
        <time>2017-12-09T09:09:48Z</time>
      </trkpt>
      <trkpt lat="27.958503" lon="-15.558802">
        <ele>1868.30</ele>
        <time>2017-12-09T09:09:50Z</time>
      </trkpt>
      <trkpt lat="27.958516" lon="-15.558841">
        <ele>1868.65</ele>
        <time>2017-12-09T09:09:52Z</time>
      </trkpt>
      <trkpt lat="27.958530" lon="-15.558874">
        <ele>1868.84</ele>
        <time>2017-12-09T09:09:54Z</time>
      </trkpt>
      <trkpt lat="27.958550" lon="-15.558908">
        <ele>1869.39</ele>
        <time>2017-12-09T09:09:56Z</time>
      </trkpt>
      <trkpt lat="27.958563" lon="-15.558925">
        <ele>1869.87</ele>
        <time>2017-12-09T09:09:57Z</time>
      </trkpt>
      <trkpt lat="27.958575" lon="-15.558943">
        <ele>1869.65</ele>
        <time>2017-12-09T09:09:58Z</time>
      </trkpt>
      <trkpt lat="27.958589" lon="-15.558959">
        <ele>1870.14</ele>
        <time>2017-12-09T09:09:59Z</time>
      </trkpt>
      <trkpt lat="27.958617" lon="-15.558993">
        <ele>1869.80</ele>
        <time>2017-12-09T09:10:01Z</time>
      </trkpt>
      <trkpt lat="27.958641" lon="-15.559024">
        <ele>1869.80</ele>
        <time>2017-12-09T09:10:03Z</time>
      </trkpt>
      <trkpt lat="27.958655" lon="-15.559041">
        <ele>1869.80</ele>
        <time>2017-12-09T09:10:04Z</time>
      </trkpt>
      <trkpt lat="27.958676" lon="-15.559069">
        <ele>1870.04</ele>
        <time>2017-12-09T09:10:06Z</time>
      </trkpt>
      <trkpt lat="27.958701" lon="-15.559100">
        <ele>1871.30</ele>
        <time>2017-12-09T09:10:08Z</time>
      </trkpt>
      <trkpt lat="27.958712" lon="-15.559117">
        <ele>1870.90</ele>
        <time>2017-12-09T09:10:09Z</time>
      </trkpt>
      <trkpt lat="27.958727" lon="-15.559134">
        <ele>1871.63</ele>
        <time>2017-12-09T09:10:10Z</time>
      </trkpt>
      <trkpt lat="27.958750" lon="-15.559161">
        <ele>1871.70</ele>
        <time>2017-12-09T09:10:12Z</time>
      </trkpt>
      <trkpt lat="27.958775" lon="-15.559188">
        <ele>1871.70</ele>
        <time>2017-12-09T09:10:14Z</time>
      </trkpt>
      <trkpt lat="27.958799" lon="-15.559211">
        <ele>1871.70</ele>
        <time>2017-12-09T09:10:16Z</time>
      </trkpt>
      <trkpt lat="27.958811" lon="-15.559231">
        <ele>1872.60</ele>
        <time>2017-12-09T09:10:18Z</time>
      </trkpt>
      <trkpt lat="27.958826" lon="-15.559256">
        <ele>1871.93</ele>
        <time>2017-12-09T09:10:20Z</time>
      </trkpt>
      <trkpt lat="27.958842" lon="-15.559284">
        <ele>1872.00</ele>
        <time>2017-12-09T09:10:22Z</time>
      </trkpt>
      <trkpt lat="27.958856" lon="-15.559302">
        <ele>1871.90</ele>
        <time>2017-12-09T09:10:24Z</time>
      </trkpt>
      <trkpt lat="27.958871" lon="-15.559321">
        <ele>1872.20</ele>
        <time>2017-12-09T09:10:26Z</time>
      </trkpt>
      <trkpt lat="27.958884" lon="-15.559341">
        <ele>1872.50</ele>
        <time>2017-12-09T09:10:28Z</time>
      </trkpt>
      <trkpt lat="27.958905" lon="-15.559364">
        <ele>1872.60</ele>
        <time>2017-12-09T09:10:30Z</time>
      </trkpt>
      <trkpt lat="27.958922" lon="-15.559393">
        <ele>1872.60</ele>
        <time>2017-12-09T09:10:32Z</time>
      </trkpt>
      <trkpt lat="27.958940" lon="-15.559418">
        <ele>1872.91</ele>
        <time>2017-12-09T09:10:34Z</time>
      </trkpt>
      <trkpt lat="27.958959" lon="-15.559438">
        <ele>1873.90</ele>
        <time>2017-12-09T09:10:36Z</time>
      </trkpt>
      <trkpt lat="27.958975" lon="-15.559470">
        <ele>1874.30</ele>
        <time>2017-12-09T09:10:38Z</time>
      </trkpt>
      <trkpt lat="27.958993" lon="-15.559492">
        <ele>1874.70</ele>
        <time>2017-12-09T09:10:40Z</time>
      </trkpt>
      <trkpt lat="27.959006" lon="-15.559511">
        <ele>1874.70</ele>
        <time>2017-12-09T09:10:42Z</time>
      </trkpt>
      <trkpt lat="27.959020" lon="-15.559535">
        <ele>1874.88</ele>
        <time>2017-12-09T09:10:44Z</time>
      </trkpt>
      <trkpt lat="27.959031" lon="-15.559560">
        <ele>1875.27</ele>
        <time>2017-12-09T09:10:46Z</time>
      </trkpt>
      <trkpt lat="27.959042" lon="-15.559585">
        <ele>1875.44</ele>
        <time>2017-12-09T09:10:48Z</time>
      </trkpt>
      <trkpt lat="27.959049" lon="-15.559607">
        <ele>1875.44</ele>
        <time>2017-12-09T09:10:50Z</time>
      </trkpt>
      <trkpt lat="27.959064" lon="-15.559630">
        <ele>1875.97</ele>
        <time>2017-12-09T09:10:52Z</time>
      </trkpt>
      <trkpt lat="27.959081" lon="-15.559650">
        <ele>1876.54</ele>
        <time>2017-12-09T09:10:54Z</time>
      </trkpt>
      <trkpt lat="27.959098" lon="-15.559671">
        <ele>1876.60</ele>
        <time>2017-12-09T09:10:56Z</time>
      </trkpt>
      <trkpt lat="27.959116" lon="-15.559695">
        <ele>1876.60</ele>
        <time>2017-12-09T09:10:58Z</time>
      </trkpt>
      <trkpt lat="27.959132" lon="-15.559720">
        <ele>1876.74</ele>
        <time>2017-12-09T09:11:00Z</time>
      </trkpt>
      <trkpt lat="27.959148" lon="-15.559742">
        <ele>1877.14</ele>
        <time>2017-12-09T09:11:02Z</time>
      </trkpt>
      <trkpt lat="27.959168" lon="-15.559769">
        <ele>1877.79</ele>
        <time>2017-12-09T09:11:04Z</time>
      </trkpt>
      <trkpt lat="27.959181" lon="-15.559796">
        <ele>1878.65</ele>
        <time>2017-12-09T09:11:06Z</time>
      </trkpt>
      <trkpt lat="27.959200" lon="-15.559816">
        <ele>1878.86</ele>
        <time>2017-12-09T09:11:08Z</time>
      </trkpt>
      <trkpt lat="27.959212" lon="-15.559831">
        <ele>1878.94</ele>
        <time>2017-12-09T09:11:10Z</time>
      </trkpt>
      <trkpt lat="27.959224" lon="-15.559858">
        <ele>1879.04</ele>
        <time>2017-12-09T09:11:12Z</time>
      </trkpt>
      <trkpt lat="27.959235" lon="-15.559889">
        <ele>1879.40</ele>
        <time>2017-12-09T09:11:14Z</time>
      </trkpt>
      <trkpt lat="27.959238" lon="-15.559910">
        <ele>1879.44</ele>
        <time>2017-12-09T09:11:15Z</time>
      </trkpt>
      <trkpt lat="27.959248" lon="-15.559943">
        <ele>1879.53</ele>
        <time>2017-12-09T09:11:17Z</time>
      </trkpt>
      <trkpt lat="27.959260" lon="-15.559972">
        <ele>1879.90</ele>
        <time>2017-12-09T09:11:19Z</time>
      </trkpt>
      <trkpt lat="27.959271" lon="-15.560001">
        <ele>1879.90</ele>
        <time>2017-12-09T09:11:21Z</time>
      </trkpt>
      <trkpt lat="27.959279" lon="-15.560027">
        <ele>1880.00</ele>
        <time>2017-12-09T09:11:23Z</time>
      </trkpt>
      <trkpt lat="27.959284" lon="-15.560050">
        <ele>1880.07</ele>
        <time>2017-12-09T09:11:25Z</time>
      </trkpt>
      <trkpt lat="27.959289" lon="-15.560077">
        <ele>1880.03</ele>
        <time>2017-12-09T09:11:27Z</time>
      </trkpt>
      <trkpt lat="27.959293" lon="-15.560107">
        <ele>1880.20</ele>
        <time>2017-12-09T09:11:29Z</time>
      </trkpt>
      <trkpt lat="27.959297" lon="-15.560136">
        <ele>1880.43</ele>
        <time>2017-12-09T09:11:31Z</time>
      </trkpt>
      <trkpt lat="27.959305" lon="-15.560164">
        <ele>1880.79</ele>
        <time>2017-12-09T09:11:33Z</time>
      </trkpt>
      <trkpt lat="27.959308" lon="-15.560194">
        <ele>1881.00</ele>
        <time>2017-12-09T09:11:35Z</time>
      </trkpt>
      <trkpt lat="27.959316" lon="-15.560218">
        <ele>1881.09</ele>
        <time>2017-12-09T09:11:37Z</time>
      </trkpt>
      <trkpt lat="27.959327" lon="-15.560245">
        <ele>1881.30</ele>
        <time>2017-12-09T09:11:39Z</time>
      </trkpt>
      <trkpt lat="27.959340" lon="-15.560273">
        <ele>1881.48</ele>
        <time>2017-12-09T09:11:41Z</time>
      </trkpt>
      <trkpt lat="27.959357" lon="-15.560304">
        <ele>1882.16</ele>
        <time>2017-12-09T09:11:43Z</time>
      </trkpt>
      <trkpt lat="27.959378" lon="-15.560331">
        <ele>1882.27</ele>
        <time>2017-12-09T09:11:45Z</time>
      </trkpt>
      <trkpt lat="27.959400" lon="-15.560349">
        <ele>1882.49</ele>
        <time>2017-12-09T09:11:47Z</time>
      </trkpt>
      <trkpt lat="27.959426" lon="-15.560366">
        <ele>1882.56</ele>
        <time>2017-12-09T09:11:49Z</time>
      </trkpt>
      <trkpt lat="27.959451" lon="-15.560379">
        <ele>1882.73</ele>
        <time>2017-12-09T09:11:51Z</time>
      </trkpt>
      <trkpt lat="27.959473" lon="-15.560394">
        <ele>1882.80</ele>
        <time>2017-12-09T09:11:53Z</time>
      </trkpt>
      <trkpt lat="27.959491" lon="-15.560406">
        <ele>1882.73</ele>
        <time>2017-12-09T09:11:55Z</time>
      </trkpt>
      <trkpt lat="27.959516" lon="-15.560419">
        <ele>1882.79</ele>
        <time>2017-12-09T09:11:57Z</time>
      </trkpt>
      <trkpt lat="27.959548" lon="-15.560424">
        <ele>1882.86</ele>
        <time>2017-12-09T09:11:59Z</time>
      </trkpt>
      <trkpt lat="27.959574" lon="-15.560441">
        <ele>1883.03</ele>
        <time>2017-12-09T09:12:01Z</time>
      </trkpt>
      <trkpt lat="27.959623" lon="-15.560470">
        <ele>1883.19</ele>
        <time>2017-12-09T09:12:05Z</time>
      </trkpt>
      <trkpt lat="27.959642" lon="-15.560480">
        <ele>1883.86</ele>
        <time>2017-12-09T09:12:07Z</time>
      </trkpt>
      <trkpt lat="27.959670" lon="-15.560490">
        <ele>1884.50</ele>
        <time>2017-12-09T09:12:10Z</time>
      </trkpt>
      <trkpt lat="27.959700" lon="-15.560497">
        <ele>1884.93</ele>
        <time>2017-12-09T09:12:12Z</time>
      </trkpt>
      <trkpt lat="27.959724" lon="-15.560510">
        <ele>1885.20</ele>
        <time>2017-12-09T09:12:14Z</time>
      </trkpt>
      <trkpt lat="27.959746" lon="-15.560522">
        <ele>1885.45</ele>
        <time>2017-12-09T09:12:16Z</time>
      </trkpt>
      <trkpt lat="27.959777" lon="-15.560536">
        <ele>1885.60</ele>
        <time>2017-12-09T09:12:18Z</time>
      </trkpt>
      <trkpt lat="27.959803" lon="-15.560547">
        <ele>1885.60</ele>
        <time>2017-12-09T09:12:20Z</time>
      </trkpt>
      <trkpt lat="27.959822" lon="-15.560559">
        <ele>1885.50</ele>
        <time>2017-12-09T09:12:22Z</time>
      </trkpt>
      <trkpt lat="27.959846" lon="-15.560569">
        <ele>1885.50</ele>
        <time>2017-12-09T09:12:24Z</time>
      </trkpt>
      <trkpt lat="27.959869" lon="-15.560579">
        <ele>1885.60</ele>
        <time>2017-12-09T09:12:26Z</time>
      </trkpt>
      <trkpt lat="27.959894" lon="-15.560584">
        <ele>1885.93</ele>
        <time>2017-12-09T09:12:28Z</time>
      </trkpt>
      <trkpt lat="27.959914" lon="-15.560598">
        <ele>1886.10</ele>
        <time>2017-12-09T09:12:30Z</time>
      </trkpt>
      <trkpt lat="27.959935" lon="-15.560614">
        <ele>1886.63</ele>
        <time>2017-12-09T09:12:32Z</time>
      </trkpt>
      <trkpt lat="27.959958" lon="-15.560632">
        <ele>1886.95</ele>
        <time>2017-12-09T09:12:34Z</time>
      </trkpt>
      <trkpt lat="27.959978" lon="-15.560655">
        <ele>1887.27</ele>
        <time>2017-12-09T09:12:36Z</time>
      </trkpt>
      <trkpt lat="27.959997" lon="-15.560671">
        <ele>1888.32</ele>
        <time>2017-12-09T09:12:38Z</time>
      </trkpt>
      <trkpt lat="27.960016" lon="-15.560688">
        <ele>1889.00</ele>
        <time>2017-12-09T09:12:40Z</time>
      </trkpt>
      <trkpt lat="27.960033" lon="-15.560705">
        <ele>1888.98</ele>
        <time>2017-12-09T09:12:42Z</time>
      </trkpt>
      <trkpt lat="27.960050" lon="-15.560727">
        <ele>1888.90</ele>
        <time>2017-12-09T09:12:44Z</time>
      </trkpt>
      <trkpt lat="27.960066" lon="-15.560747">
        <ele>1888.90</ele>
        <time>2017-12-09T09:12:46Z</time>
      </trkpt>
      <trkpt lat="27.960089" lon="-15.560773">
        <ele>1888.92</ele>
        <time>2017-12-09T09:12:48Z</time>
      </trkpt>
      <trkpt lat="27.960108" lon="-15.560793">
        <ele>1889.40</ele>
        <time>2017-12-09T09:12:50Z</time>
      </trkpt>
      <trkpt lat="27.960129" lon="-15.560820">
        <ele>1889.60</ele>
        <time>2017-12-09T09:12:52Z</time>
      </trkpt>
      <trkpt lat="27.960150" lon="-15.560847">
        <ele>1889.92</ele>
        <time>2017-12-09T09:12:54Z</time>
      </trkpt>
      <trkpt lat="27.960167" lon="-15.560872">
        <ele>1890.40</ele>
        <time>2017-12-09T09:12:56Z</time>
      </trkpt>
      <trkpt lat="27.960183" lon="-15.560898">
        <ele>1890.47</ele>
        <time>2017-12-09T09:12:58Z</time>
      </trkpt>
      <trkpt lat="27.960199" lon="-15.560922">
        <ele>1891.09</ele>
        <time>2017-12-09T09:13:00Z</time>
      </trkpt>
      <trkpt lat="27.960217" lon="-15.560947">
        <ele>1891.52</ele>
        <time>2017-12-09T09:13:02Z</time>
      </trkpt>
      <trkpt lat="27.960234" lon="-15.560971">
        <ele>1891.72</ele>
        <time>2017-12-09T09:13:04Z</time>
      </trkpt>
      <trkpt lat="27.960247" lon="-15.560997">
        <ele>1892.10</ele>
        <time>2017-12-09T09:13:06Z</time>
      </trkpt>
      <trkpt lat="27.960262" lon="-15.561019">
        <ele>1892.10</ele>
        <time>2017-12-09T09:13:08Z</time>
      </trkpt>
      <trkpt lat="27.960279" lon="-15.561039">
        <ele>1892.20</ele>
        <time>2017-12-09T09:13:10Z</time>
      </trkpt>
      <trkpt lat="27.960297" lon="-15.561068">
        <ele>1892.96</ele>
        <time>2017-12-09T09:13:12Z</time>
      </trkpt>
      <trkpt lat="27.960313" lon="-15.561091">
        <ele>1893.22</ele>
        <time>2017-12-09T09:13:14Z</time>
      </trkpt>
      <trkpt lat="27.960336" lon="-15.561119">
        <ele>1893.60</ele>
        <time>2017-12-09T09:13:16Z</time>
      </trkpt>
      <trkpt lat="27.960351" lon="-15.561135">
        <ele>1893.68</ele>
        <time>2017-12-09T09:13:17Z</time>
      </trkpt>
      <trkpt lat="27.960375" lon="-15.561161">
        <ele>1894.21</ele>
        <time>2017-12-09T09:13:19Z</time>
      </trkpt>
      <trkpt lat="27.960394" lon="-15.561184">
        <ele>1894.70</ele>
        <time>2017-12-09T09:13:21Z</time>
      </trkpt>
      <trkpt lat="27.960413" lon="-15.561203">
        <ele>1894.70</ele>
        <time>2017-12-09T09:13:23Z</time>
      </trkpt>
      <trkpt lat="27.960434" lon="-15.561228">
        <ele>1894.70</ele>
        <time>2017-12-09T09:13:25Z</time>
      </trkpt>
      <trkpt lat="27.960449" lon="-15.561252">
        <ele>1894.64</ele>
        <time>2017-12-09T09:13:27Z</time>
      </trkpt>
      <trkpt lat="27.960460" lon="-15.561277">
        <ele>1894.60</ele>
        <time>2017-12-09T09:13:29Z</time>
      </trkpt>
      <trkpt lat="27.960471" lon="-15.561298">
        <ele>1894.50</ele>
        <time>2017-12-09T09:13:31Z</time>
      </trkpt>
      <trkpt lat="27.960487" lon="-15.561326">
        <ele>1894.14</ele>
        <time>2017-12-09T09:13:34Z</time>
      </trkpt>
      <trkpt lat="27.960501" lon="-15.561344">
        <ele>1894.50</ele>
        <time>2017-12-09T09:13:35Z</time>
      </trkpt>
      <trkpt lat="27.960516" lon="-15.561377">
        <ele>1894.61</ele>
        <time>2017-12-09T09:13:37Z</time>
      </trkpt>
      <trkpt lat="27.960528" lon="-15.561404">
        <ele>1894.80</ele>
        <time>2017-12-09T09:13:39Z</time>
      </trkpt>
      <trkpt lat="27.960542" lon="-15.561436">
        <ele>1894.80</ele>
        <time>2017-12-09T09:13:41Z</time>
      </trkpt>
      <trkpt lat="27.960555" lon="-15.561468">
        <ele>1894.80</ele>
        <time>2017-12-09T09:13:43Z</time>
      </trkpt>
      <trkpt lat="27.960571" lon="-15.561500">
        <ele>1894.80</ele>
        <time>2017-12-09T09:13:45Z</time>
      </trkpt>
      <trkpt lat="27.960587" lon="-15.561530">
        <ele>1894.68</ele>
        <time>2017-12-09T09:13:47Z</time>
      </trkpt>
      <trkpt lat="27.960592" lon="-15.561559">
        <ele>1894.29</ele>
        <time>2017-12-09T09:13:49Z</time>
      </trkpt>
      <trkpt lat="27.960603" lon="-15.561593">
        <ele>1894.19</ele>
        <time>2017-12-09T09:13:51Z</time>
      </trkpt>
      <trkpt lat="27.960616" lon="-15.561624">
        <ele>1894.12</ele>
        <time>2017-12-09T09:13:53Z</time>
      </trkpt>
      <trkpt lat="27.960629" lon="-15.561654">
        <ele>1894.46</ele>
        <time>2017-12-09T09:13:55Z</time>
      </trkpt>
      <trkpt lat="27.960673" lon="-15.561751">
        <ele>1894.66</ele>
        <time>2017-12-09T09:14:02Z</time>
      </trkpt>
      <trkpt lat="27.960690" lon="-15.561800">
        <ele>1894.20</ele>
        <time>2017-12-09T09:14:05Z</time>
      </trkpt>
      <trkpt lat="27.960700" lon="-15.561825">
        <ele>1893.50</ele>
        <time>2017-12-09T09:14:07Z</time>
      </trkpt>
      <trkpt lat="27.960714" lon="-15.561850">
        <ele>1893.60</ele>
        <time>2017-12-09T09:14:09Z</time>
      </trkpt>
      <trkpt lat="27.960739" lon="-15.561876">
        <ele>1893.60</ele>
        <time>2017-12-09T09:14:12Z</time>
      </trkpt>
      <trkpt lat="27.960760" lon="-15.561903">
        <ele>1893.59</ele>
        <time>2017-12-09T09:14:14Z</time>
      </trkpt>
      <trkpt lat="27.960807" lon="-15.561990">
        <ele>1892.50</ele>
        <time>2017-12-09T09:14:20Z</time>
      </trkpt>
      <trkpt lat="27.960871" lon="-15.562057">
        <ele>1892.40</ele>
        <time>2017-12-09T09:14:25Z</time>
      </trkpt>
      <trkpt lat="27.960885" lon="-15.562076">
        <ele>1892.30</ele>
        <time>2017-12-09T09:14:26Z</time>
      </trkpt>
      <trkpt lat="27.960896" lon="-15.562095">
        <ele>1892.40</ele>
        <time>2017-12-09T09:14:27Z</time>
      </trkpt>
      <trkpt lat="27.960917" lon="-15.562122">
        <ele>1892.90</ele>
        <time>2017-12-09T09:14:29Z</time>
      </trkpt>
      <trkpt lat="27.960934" lon="-15.562151">
        <ele>1892.40</ele>
        <time>2017-12-09T09:14:31Z</time>
      </trkpt>
      <trkpt lat="27.960955" lon="-15.562172">
        <ele>1892.80</ele>
        <time>2017-12-09T09:14:33Z</time>
      </trkpt>
      <trkpt lat="27.960975" lon="-15.562198">
        <ele>1892.60</ele>
        <time>2017-12-09T09:14:35Z</time>
      </trkpt>
      <trkpt lat="27.960991" lon="-15.562221">
        <ele>1892.80</ele>
        <time>2017-12-09T09:14:37Z</time>
      </trkpt>
      <trkpt lat="27.961006" lon="-15.562244">
        <ele>1893.10</ele>
        <time>2017-12-09T09:14:39Z</time>
      </trkpt>
      <trkpt lat="27.961026" lon="-15.562264">
        <ele>1892.90</ele>
        <time>2017-12-09T09:14:41Z</time>
      </trkpt>
      <trkpt lat="27.961045" lon="-15.562284">
        <ele>1892.49</ele>
        <time>2017-12-09T09:14:43Z</time>
      </trkpt>
      <trkpt lat="27.961061" lon="-15.562306">
        <ele>1891.79</ele>
        <time>2017-12-09T09:14:45Z</time>
      </trkpt>
      <trkpt lat="27.961077" lon="-15.562339">
        <ele>1890.90</ele>
        <time>2017-12-09T09:14:48Z</time>
      </trkpt>
      <trkpt lat="27.961108" lon="-15.562389">
        <ele>1890.50</ele>
        <time>2017-12-09T09:14:52Z</time>
      </trkpt>
      <trkpt lat="27.961129" lon="-15.562420">
        <ele>1890.50</ele>
        <time>2017-12-09T09:14:54Z</time>
      </trkpt>
      <trkpt lat="27.961151" lon="-15.562447">
        <ele>1890.90</ele>
        <time>2017-12-09T09:14:56Z</time>
      </trkpt>
      <trkpt lat="27.961167" lon="-15.562472">
        <ele>1891.90</ele>
        <time>2017-12-09T09:14:58Z</time>
      </trkpt>
      <trkpt lat="27.961167" lon="-15.562501">
        <ele>1892.30</ele>
        <time>2017-12-09T09:15:00Z</time>
      </trkpt>
      <trkpt lat="27.961157" lon="-15.562524">
        <ele>1892.99</ele>
        <time>2017-12-09T09:15:02Z</time>
      </trkpt>
      <trkpt lat="27.961150" lon="-15.562549">
        <ele>1893.00</ele>
        <time>2017-12-09T09:15:04Z</time>
      </trkpt>
      <trkpt lat="27.961140" lon="-15.562573">
        <ele>1893.00</ele>
        <time>2017-12-09T09:15:06Z</time>
      </trkpt>
      <trkpt lat="27.961135" lon="-15.562600">
        <ele>1892.22</ele>
        <time>2017-12-09T09:15:08Z</time>
      </trkpt>
      <trkpt lat="27.961133" lon="-15.562626">
        <ele>1891.51</ele>
        <time>2017-12-09T09:15:10Z</time>
      </trkpt>
      <trkpt lat="27.961132" lon="-15.562654">
        <ele>1891.40</ele>
        <time>2017-12-09T09:15:12Z</time>
      </trkpt>
      <trkpt lat="27.961129" lon="-15.562683">
        <ele>1891.40</ele>
        <time>2017-12-09T09:15:14Z</time>
      </trkpt>
      <trkpt lat="27.961126" lon="-15.562709">
        <ele>1891.40</ele>
        <time>2017-12-09T09:15:16Z</time>
      </trkpt>
      <trkpt lat="27.961127" lon="-15.562735">
        <ele>1891.69</ele>
        <time>2017-12-09T09:15:18Z</time>
      </trkpt>
      <trkpt lat="27.961130" lon="-15.562766">
        <ele>1891.81</ele>
        <time>2017-12-09T09:15:20Z</time>
      </trkpt>
      <trkpt lat="27.961127" lon="-15.562793">
        <ele>1891.99</ele>
        <time>2017-12-09T09:15:22Z</time>
      </trkpt>
      <trkpt lat="27.961130" lon="-15.562823">
        <ele>1892.48</ele>
        <time>2017-12-09T09:15:24Z</time>
      </trkpt>
      <trkpt lat="27.961133" lon="-15.562852">
        <ele>1892.90</ele>
        <time>2017-12-09T09:15:26Z</time>
      </trkpt>
      <trkpt lat="27.961135" lon="-15.562877">
        <ele>1893.09</ele>
        <time>2017-12-09T09:15:28Z</time>
      </trkpt>
      <trkpt lat="27.961140" lon="-15.562903">
        <ele>1893.58</ele>
        <time>2017-12-09T09:15:30Z</time>
      </trkpt>
      <trkpt lat="27.961141" lon="-15.562930">
        <ele>1893.60</ele>
        <time>2017-12-09T09:15:32Z</time>
      </trkpt>
      <trkpt lat="27.961149" lon="-15.562962">
        <ele>1893.97</ele>
        <time>2017-12-09T09:15:34Z</time>
      </trkpt>
      <trkpt lat="27.961158" lon="-15.562989">
        <ele>1894.29</ele>
        <time>2017-12-09T09:15:36Z</time>
      </trkpt>
      <trkpt lat="27.961158" lon="-15.563018">
        <ele>1894.50</ele>
        <time>2017-12-09T09:15:39Z</time>
      </trkpt>
      <trkpt lat="27.961157" lon="-15.563052">
        <ele>1895.69</ele>
        <time>2017-12-09T09:15:42Z</time>
      </trkpt>
      <trkpt lat="27.961153" lon="-15.563084">
        <ele>1896.20</ele>
        <time>2017-12-09T09:15:45Z</time>
      </trkpt>
      <trkpt lat="27.961145" lon="-15.563109">
        <ele>1896.69</ele>
        <time>2017-12-09T09:15:47Z</time>
      </trkpt>
      <trkpt lat="27.961136" lon="-15.563136">
        <ele>1897.38</ele>
        <time>2017-12-09T09:15:49Z</time>
      </trkpt>
      <trkpt lat="27.961129" lon="-15.563162">
        <ele>1897.40</ele>
        <time>2017-12-09T09:15:51Z</time>
      </trkpt>
      <trkpt lat="27.961132" lon="-15.563185">
        <ele>1898.27</ele>
        <time>2017-12-09T09:15:53Z</time>
      </trkpt>
      <trkpt lat="27.961133" lon="-15.563213">
        <ele>1898.40</ele>
        <time>2017-12-09T09:15:55Z</time>
      </trkpt>
      <trkpt lat="27.961139" lon="-15.563236">
        <ele>1898.60</ele>
        <time>2017-12-09T09:15:57Z</time>
      </trkpt>
      <trkpt lat="27.961133" lon="-15.563263">
        <ele>1898.60</ele>
        <time>2017-12-09T09:15:59Z</time>
      </trkpt>
      <trkpt lat="27.961130" lon="-15.563297">
        <ele>1898.89</ele>
        <time>2017-12-09T09:16:01Z</time>
      </trkpt>
      <trkpt lat="27.961127" lon="-15.563326">
        <ele>1899.37</ele>
        <time>2017-12-09T09:16:03Z</time>
      </trkpt>
      <trkpt lat="27.961121" lon="-15.563358">
        <ele>1900.48</ele>
        <time>2017-12-09T09:16:06Z</time>
      </trkpt>
      <trkpt lat="27.961120" lon="-15.563382">
        <ele>1900.99</ele>
        <time>2017-12-09T09:16:08Z</time>
      </trkpt>
      <trkpt lat="27.961109" lon="-15.563411">
        <ele>1902.07</ele>
        <time>2017-12-09T09:16:11Z</time>
      </trkpt>
      <trkpt lat="27.961098" lon="-15.563436">
        <ele>1902.19</ele>
        <time>2017-12-09T09:16:13Z</time>
      </trkpt>
      <trkpt lat="27.961093" lon="-15.563461">
        <ele>1902.29</ele>
        <time>2017-12-09T09:16:15Z</time>
      </trkpt>
      <trkpt lat="27.961086" lon="-15.563493">
        <ele>1902.40</ele>
        <time>2017-12-09T09:16:17Z</time>
      </trkpt>
      <trkpt lat="27.961081" lon="-15.563516">
        <ele>1902.70</ele>
        <time>2017-12-09T09:16:19Z</time>
      </trkpt>
      <trkpt lat="27.961078" lon="-15.563540">
        <ele>1903.07</ele>
        <time>2017-12-09T09:16:21Z</time>
      </trkpt>
      <trkpt lat="27.961068" lon="-15.563570">
        <ele>1903.10</ele>
        <time>2017-12-09T09:16:23Z</time>
      </trkpt>
      <trkpt lat="27.961055" lon="-15.563596">
        <ele>1903.09</ele>
        <time>2017-12-09T09:16:25Z</time>
      </trkpt>
      <trkpt lat="27.961049" lon="-15.563620">
        <ele>1903.10</ele>
        <time>2017-12-09T09:16:27Z</time>
      </trkpt>
      <trkpt lat="27.961039" lon="-15.563637">
        <ele>1903.09</ele>
        <time>2017-12-09T09:16:29Z</time>
      </trkpt>
      <trkpt lat="27.961033" lon="-15.563659">
        <ele>1903.38</ele>
        <time>2017-12-09T09:16:31Z</time>
      </trkpt>
      <trkpt lat="27.961023" lon="-15.563687">
        <ele>1903.10</ele>
        <time>2017-12-09T09:16:33Z</time>
      </trkpt>
      <trkpt lat="27.961015" lon="-15.563715">
        <ele>1903.40</ele>
        <time>2017-12-09T09:16:35Z</time>
      </trkpt>
      <trkpt lat="27.961003" lon="-15.563741">
        <ele>1903.97</ele>
        <time>2017-12-09T09:16:37Z</time>
      </trkpt>
      <trkpt lat="27.960996" lon="-15.563764">
        <ele>1904.19</ele>
        <time>2017-12-09T09:16:39Z</time>
      </trkpt>
      <trkpt lat="27.960987" lon="-15.563785">
        <ele>1904.20</ele>
        <time>2017-12-09T09:16:41Z</time>
      </trkpt>
      <trkpt lat="27.960984" lon="-15.563808">
        <ele>1904.51</ele>
        <time>2017-12-09T09:16:43Z</time>
      </trkpt>
      <trkpt lat="27.960985" lon="-15.563833">
        <ele>1905.40</ele>
        <time>2017-12-09T09:16:45Z</time>
      </trkpt>
      <trkpt lat="27.960987" lon="-15.563856">
        <ele>1905.50</ele>
        <time>2017-12-09T09:16:47Z</time>
      </trkpt>
      <trkpt lat="27.960990" lon="-15.563877">
        <ele>1905.82</ele>
        <time>2017-12-09T09:16:49Z</time>
      </trkpt>
      <trkpt lat="27.960990" lon="-15.563899">
        <ele>1906.52</ele>
        <time>2017-12-09T09:16:51Z</time>
      </trkpt>
      <trkpt lat="27.960988" lon="-15.563921">
        <ele>1907.41</ele>
        <time>2017-12-09T09:16:53Z</time>
      </trkpt>
      <trkpt lat="27.960999" lon="-15.563947">
        <ele>1908.02</ele>
        <time>2017-12-09T09:16:55Z</time>
      </trkpt>
      <trkpt lat="27.961008" lon="-15.563972">
        <ele>1909.20</ele>
        <time>2017-12-09T09:16:57Z</time>
      </trkpt>
      <trkpt lat="27.961028" lon="-15.563996">
        <ele>1909.32</ele>
        <time>2017-12-09T09:16:59Z</time>
      </trkpt>
      <trkpt lat="27.961043" lon="-15.564014">
        <ele>1910.60</ele>
        <time>2017-12-09T09:17:01Z</time>
      </trkpt>
      <trkpt lat="27.961056" lon="-15.564032">
        <ele>1911.01</ele>
        <time>2017-12-09T09:17:03Z</time>
      </trkpt>
      <trkpt lat="27.961073" lon="-15.564054">
        <ele>1911.31</ele>
        <time>2017-12-09T09:17:05Z</time>
      </trkpt>
      <trkpt lat="27.961085" lon="-15.564069">
        <ele>1912.31</ele>
        <time>2017-12-09T09:17:07Z</time>
      </trkpt>
      <trkpt lat="27.961099" lon="-15.564084">
        <ele>1912.61</ele>
        <time>2017-12-09T09:17:09Z</time>
      </trkpt>
      <trkpt lat="27.961112" lon="-15.564100">
        <ele>1913.20</ele>
        <time>2017-12-09T09:17:11Z</time>
      </trkpt>
      <trkpt lat="27.961128" lon="-15.564120">
        <ele>1913.22</ele>
        <time>2017-12-09T09:17:13Z</time>
      </trkpt>
      <trkpt lat="27.961148" lon="-15.564140">
        <ele>1914.10</ele>
        <time>2017-12-09T09:17:15Z</time>
      </trkpt>
      <trkpt lat="27.961165" lon="-15.564156">
        <ele>1914.30</ele>
        <time>2017-12-09T09:17:17Z</time>
      </trkpt>
      <trkpt lat="27.961177" lon="-15.564175">
        <ele>1914.20</ele>
        <time>2017-12-09T09:17:19Z</time>
      </trkpt>
      <trkpt lat="27.961193" lon="-15.564197">
        <ele>1914.51</ele>
        <time>2017-12-09T09:17:21Z</time>
      </trkpt>
      <trkpt lat="27.961203" lon="-15.564219">
        <ele>1915.10</ele>
        <time>2017-12-09T09:17:23Z</time>
      </trkpt>
      <trkpt lat="27.961214" lon="-15.564237">
        <ele>1915.10</ele>
        <time>2017-12-09T09:17:25Z</time>
      </trkpt>
      <trkpt lat="27.961225" lon="-15.564257">
        <ele>1915.10</ele>
        <time>2017-12-09T09:17:27Z</time>
      </trkpt>
      <trkpt lat="27.961244" lon="-15.564281">
        <ele>1916.10</ele>
        <time>2017-12-09T09:17:30Z</time>
      </trkpt>
      <trkpt lat="27.961261" lon="-15.564303">
        <ele>1916.20</ele>
        <time>2017-12-09T09:17:32Z</time>
      </trkpt>
      <trkpt lat="27.961279" lon="-15.564327">
        <ele>1916.40</ele>
        <time>2017-12-09T09:17:34Z</time>
      </trkpt>
      <trkpt lat="27.961302" lon="-15.564347">
        <ele>1916.99</ele>
        <time>2017-12-09T09:17:36Z</time>
      </trkpt>
      <trkpt lat="27.961325" lon="-15.564365">
        <ele>1917.47</ele>
        <time>2017-12-09T09:17:38Z</time>
      </trkpt>
      <trkpt lat="27.961346" lon="-15.564377">
        <ele>1917.78</ele>
        <time>2017-12-09T09:17:40Z</time>
      </trkpt>
      <trkpt lat="27.961360" lon="-15.564396">
        <ele>1917.90</ele>
        <time>2017-12-09T09:17:42Z</time>
      </trkpt>
      <trkpt lat="27.961378" lon="-15.564417">
        <ele>1918.40</ele>
        <time>2017-12-09T09:17:44Z</time>
      </trkpt>
      <trkpt lat="27.961396" lon="-15.564438">
        <ele>1918.40</ele>
        <time>2017-12-09T09:17:46Z</time>
      </trkpt>
      <trkpt lat="27.961412" lon="-15.564449">
        <ele>1918.40</ele>
        <time>2017-12-09T09:17:48Z</time>
      </trkpt>
      <trkpt lat="27.961418" lon="-15.564474">
        <ele>1918.50</ele>
        <time>2017-12-09T09:17:50Z</time>
      </trkpt>
      <trkpt lat="27.961423" lon="-15.564509">
        <ele>1918.60</ele>
        <time>2017-12-09T09:17:52Z</time>
      </trkpt>
      <trkpt lat="27.961435" lon="-15.564535">
        <ele>1919.51</ele>
        <time>2017-12-09T09:17:54Z</time>
      </trkpt>
      <trkpt lat="27.961452" lon="-15.564557">
        <ele>1919.70</ele>
        <time>2017-12-09T09:17:56Z</time>
      </trkpt>
      <trkpt lat="27.961468" lon="-15.564579">
        <ele>1919.80</ele>
        <time>2017-12-09T09:17:58Z</time>
      </trkpt>
      <trkpt lat="27.961486" lon="-15.564594">
        <ele>1920.00</ele>
        <time>2017-12-09T09:18:00Z</time>
      </trkpt>
      <trkpt lat="27.961502" lon="-15.564610">
        <ele>1920.30</ele>
        <time>2017-12-09T09:18:02Z</time>
      </trkpt>
      <trkpt lat="27.961525" lon="-15.564633">
        <ele>1920.77</ele>
        <time>2017-12-09T09:18:04Z</time>
      </trkpt>
      <trkpt lat="27.961550" lon="-15.564654">
        <ele>1921.29</ele>
        <time>2017-12-09T09:18:06Z</time>
      </trkpt>
      <trkpt lat="27.961569" lon="-15.564668">
        <ele>1921.30</ele>
        <time>2017-12-09T09:18:08Z</time>
      </trkpt>
      <trkpt lat="27.961590" lon="-15.564689">
        <ele>1921.30</ele>
        <time>2017-12-09T09:18:10Z</time>
      </trkpt>
      <trkpt lat="27.961599" lon="-15.564708">
        <ele>1921.30</ele>
        <time>2017-12-09T09:18:12Z</time>
      </trkpt>
      <trkpt lat="27.961607" lon="-15.564732">
        <ele>1921.99</ele>
        <time>2017-12-09T09:18:14Z</time>
      </trkpt>
      <trkpt lat="27.961612" lon="-15.564752">
        <ele>1922.39</ele>
        <time>2017-12-09T09:18:16Z</time>
      </trkpt>
      <trkpt lat="27.961607" lon="-15.564776">
        <ele>1922.79</ele>
        <time>2017-12-09T09:18:18Z</time>
      </trkpt>
      <trkpt lat="27.961605" lon="-15.564803">
        <ele>1922.99</ele>
        <time>2017-12-09T09:18:20Z</time>
      </trkpt>
      <trkpt lat="27.961613" lon="-15.564830">
        <ele>1923.39</ele>
        <time>2017-12-09T09:18:22Z</time>
      </trkpt>
      <trkpt lat="27.961608" lon="-15.564853">
        <ele>1923.50</ele>
        <time>2017-12-09T09:18:24Z</time>
      </trkpt>
      <trkpt lat="27.961601" lon="-15.564877">
        <ele>1923.70</ele>
        <time>2017-12-09T09:18:26Z</time>
      </trkpt>
      <trkpt lat="27.961594" lon="-15.564903">
        <ele>1923.99</ele>
        <time>2017-12-09T09:18:28Z</time>
      </trkpt>
      <trkpt lat="27.961592" lon="-15.564924">
        <ele>1924.20</ele>
        <time>2017-12-09T09:18:30Z</time>
      </trkpt>
      <trkpt lat="27.961588" lon="-15.564954">
        <ele>1924.89</ele>
        <time>2017-12-09T09:18:33Z</time>
      </trkpt>
      <trkpt lat="27.961584" lon="-15.564981">
        <ele>1925.47</ele>
        <time>2017-12-09T09:18:35Z</time>
      </trkpt>
      <trkpt lat="27.961580" lon="-15.565009">
        <ele>1925.59</ele>
        <time>2017-12-09T09:18:37Z</time>
      </trkpt>
      <trkpt lat="27.961575" lon="-15.565035">
        <ele>1925.80</ele>
        <time>2017-12-09T09:18:39Z</time>
      </trkpt>
      <trkpt lat="27.961555" lon="-15.565052">
        <ele>1925.99</ele>
        <time>2017-12-09T09:18:41Z</time>
      </trkpt>
      <trkpt lat="27.961538" lon="-15.565073">
        <ele>1925.80</ele>
        <time>2017-12-09T09:18:43Z</time>
      </trkpt>
      <trkpt lat="27.961524" lon="-15.565099">
        <ele>1925.80</ele>
        <time>2017-12-09T09:18:45Z</time>
      </trkpt>
      <trkpt lat="27.961516" lon="-15.565127">
        <ele>1926.56</ele>
        <time>2017-12-09T09:18:47Z</time>
      </trkpt>
      <trkpt lat="27.961514" lon="-15.565150">
        <ele>1926.51</ele>
        <time>2017-12-09T09:18:48Z</time>
      </trkpt>
      <trkpt lat="27.961506" lon="-15.565187">
        <ele>1926.69</ele>
        <time>2017-12-09T09:18:50Z</time>
      </trkpt>
      <trkpt lat="27.961499" lon="-15.565225">
        <ele>1926.82</ele>
        <time>2017-12-09T09:18:52Z</time>
      </trkpt>
      <trkpt lat="27.961494" lon="-15.565248">
        <ele>1927.09</ele>
        <time>2017-12-09T09:18:53Z</time>
      </trkpt>
      <trkpt lat="27.961489" lon="-15.565278">
        <ele>1927.20</ele>
        <time>2017-12-09T09:18:55Z</time>
      </trkpt>
      <trkpt lat="27.961481" lon="-15.565304">
        <ele>1927.20</ele>
        <time>2017-12-09T09:18:57Z</time>
      </trkpt>
      <trkpt lat="27.961466" lon="-15.565337">
        <ele>1926.51</ele>
        <time>2017-12-09T09:18:59Z</time>
      </trkpt>
      <trkpt lat="27.961454" lon="-15.565374">
        <ele>1926.30</ele>
        <time>2017-12-09T09:19:01Z</time>
      </trkpt>
      <trkpt lat="27.961453" lon="-15.565397">
        <ele>1925.81</ele>
        <time>2017-12-09T09:19:03Z</time>
      </trkpt>
      <trkpt lat="27.961452" lon="-15.565422">
        <ele>1925.70</ele>
        <time>2017-12-09T09:19:05Z</time>
      </trkpt>
      <trkpt lat="27.961450" lon="-15.565446">
        <ele>1925.70</ele>
        <time>2017-12-09T09:19:07Z</time>
      </trkpt>
      <trkpt lat="27.961449" lon="-15.565473">
        <ele>1925.60</ele>
        <time>2017-12-09T09:19:09Z</time>
      </trkpt>
      <trkpt lat="27.961452" lon="-15.565498">
        <ele>1925.60</ele>
        <time>2017-12-09T09:19:11Z</time>
      </trkpt>
      <trkpt lat="27.961454" lon="-15.565521">
        <ele>1925.60</ele>
        <time>2017-12-09T09:19:13Z</time>
      </trkpt>
      <trkpt lat="27.961456" lon="-15.565547">
        <ele>1925.13</ele>
        <time>2017-12-09T09:19:15Z</time>
      </trkpt>
      <trkpt lat="27.961445" lon="-15.565580">
        <ele>1924.91</ele>
        <time>2017-12-09T09:19:17Z</time>
      </trkpt>
      <trkpt lat="27.961433" lon="-15.565618">
        <ele>1924.80</ele>
        <time>2017-12-09T09:19:19Z</time>
      </trkpt>
      <trkpt lat="27.961431" lon="-15.565650">
        <ele>1924.80</ele>
        <time>2017-12-09T09:19:21Z</time>
      </trkpt>
      <trkpt lat="27.961432" lon="-15.565671">
        <ele>1924.80</ele>
        <time>2017-12-09T09:19:22Z</time>
      </trkpt>
      <trkpt lat="27.961434" lon="-15.565704">
        <ele>1924.80</ele>
        <time>2017-12-09T09:19:24Z</time>
      </trkpt>
      <trkpt lat="27.961433" lon="-15.565738">
        <ele>1924.40</ele>
        <time>2017-12-09T09:19:26Z</time>
      </trkpt>
      <trkpt lat="27.961439" lon="-15.565772">
        <ele>1924.31</ele>
        <time>2017-12-09T09:19:28Z</time>
      </trkpt>
      <trkpt lat="27.961442" lon="-15.565807">
        <ele>1924.40</ele>
        <time>2017-12-09T09:19:30Z</time>
      </trkpt>
      <trkpt lat="27.961445" lon="-15.565837">
        <ele>1924.19</ele>
        <time>2017-12-09T09:19:32Z</time>
      </trkpt>
      <trkpt lat="27.961453" lon="-15.565866">
        <ele>1924.10</ele>
        <time>2017-12-09T09:19:34Z</time>
      </trkpt>
      <trkpt lat="27.961465" lon="-15.565899">
        <ele>1924.10</ele>
        <time>2017-12-09T09:19:36Z</time>
      </trkpt>
      <trkpt lat="27.961473" lon="-15.565919">
        <ele>1924.10</ele>
        <time>2017-12-09T09:19:37Z</time>
      </trkpt>
      <trkpt lat="27.961484" lon="-15.565943">
        <ele>1924.10</ele>
        <time>2017-12-09T09:19:38Z</time>
      </trkpt>
      <trkpt lat="27.961497" lon="-15.565966">
        <ele>1924.10</ele>
        <time>2017-12-09T09:19:39Z</time>
      </trkpt>
      <trkpt lat="27.961506" lon="-15.565987">
        <ele>1924.10</ele>
        <time>2017-12-09T09:19:40Z</time>
      </trkpt>
      <trkpt lat="27.961517" lon="-15.566011">
        <ele>1924.10</ele>
        <time>2017-12-09T09:19:41Z</time>
      </trkpt>
      <trkpt lat="27.961529" lon="-15.566033">
        <ele>1924.54</ele>
        <time>2017-12-09T09:19:42Z</time>
      </trkpt>
      <trkpt lat="27.961538" lon="-15.566052">
        <ele>1924.60</ele>
        <time>2017-12-09T09:19:43Z</time>
      </trkpt>
      <trkpt lat="27.961551" lon="-15.566077">
        <ele>1924.98</ele>
        <time>2017-12-09T09:19:45Z</time>
      </trkpt>
      <trkpt lat="27.961558" lon="-15.566101">
        <ele>1924.11</ele>
        <time>2017-12-09T09:19:47Z</time>
      </trkpt>
      <trkpt lat="27.961569" lon="-15.566123">
        <ele>1922.82</ele>
        <time>2017-12-09T09:19:50Z</time>
      </trkpt>
      <trkpt lat="27.961578" lon="-15.566142">
        <ele>1922.80</ele>
        <time>2017-12-09T09:19:52Z</time>
      </trkpt>
      <trkpt lat="27.961589" lon="-15.566168">
        <ele>1923.16</ele>
        <time>2017-12-09T09:19:54Z</time>
      </trkpt>
      <trkpt lat="27.961606" lon="-15.566195">
        <ele>1923.46</ele>
        <time>2017-12-09T09:19:56Z</time>
      </trkpt>
      <trkpt lat="27.961625" lon="-15.566220">
        <ele>1923.50</ele>
        <time>2017-12-09T09:19:58Z</time>
      </trkpt>
      <trkpt lat="27.961639" lon="-15.566237">
        <ele>1923.41</ele>
        <time>2017-12-09T09:19:59Z</time>
      </trkpt>
      <trkpt lat="27.961654" lon="-15.566253">
        <ele>1923.31</ele>
        <time>2017-12-09T09:20:00Z</time>
      </trkpt>
      <trkpt lat="27.961669" lon="-15.566277">
        <ele>1923.31</ele>
        <time>2017-12-09T09:20:02Z</time>
      </trkpt>
      <trkpt lat="27.961693" lon="-15.566306">
        <ele>1923.30</ele>
        <time>2017-12-09T09:20:04Z</time>
      </trkpt>
      <trkpt lat="27.961704" lon="-15.566323">
        <ele>1923.56</ele>
        <time>2017-12-09T09:20:05Z</time>
      </trkpt>
      <trkpt lat="27.961719" lon="-15.566341">
        <ele>1923.86</ele>
        <time>2017-12-09T09:20:06Z</time>
      </trkpt>
      <trkpt lat="27.961729" lon="-15.566361">
        <ele>1923.90</ele>
        <time>2017-12-09T09:20:07Z</time>
      </trkpt>
      <trkpt lat="27.961744" lon="-15.566384">
        <ele>1923.90</ele>
        <time>2017-12-09T09:20:08Z</time>
      </trkpt>
      <trkpt lat="27.961761" lon="-15.566405">
        <ele>1923.90</ele>
        <time>2017-12-09T09:20:09Z</time>
      </trkpt>
      <trkpt lat="27.961777" lon="-15.566426">
        <ele>1924.16</ele>
        <time>2017-12-09T09:20:10Z</time>
      </trkpt>
      <trkpt lat="27.961795" lon="-15.566446">
        <ele>1924.20</ele>
        <time>2017-12-09T09:20:11Z</time>
      </trkpt>
      <trkpt lat="27.961811" lon="-15.566463">
        <ele>1923.68</ele>
        <time>2017-12-09T09:20:12Z</time>
      </trkpt>
      <trkpt lat="27.961827" lon="-15.566482">
        <ele>1923.69</ele>
        <time>2017-12-09T09:20:13Z</time>
      </trkpt>
      <trkpt lat="27.961844" lon="-15.566498">
        <ele>1923.53</ele>
        <time>2017-12-09T09:20:14Z</time>
      </trkpt>
      <trkpt lat="27.961866" lon="-15.566519">
        <ele>1923.50</ele>
        <time>2017-12-09T09:20:15Z</time>
      </trkpt>
      <trkpt lat="27.961882" lon="-15.566538">
        <ele>1923.50</ele>
        <time>2017-12-09T09:20:16Z</time>
      </trkpt>
      <trkpt lat="27.961902" lon="-15.566559">
        <ele>1923.50</ele>
        <time>2017-12-09T09:20:17Z</time>
      </trkpt>
      <trkpt lat="27.961917" lon="-15.566575">
        <ele>1923.07</ele>
        <time>2017-12-09T09:20:18Z</time>
      </trkpt>
      <trkpt lat="27.961931" lon="-15.566592">
        <ele>1923.00</ele>
        <time>2017-12-09T09:20:19Z</time>
      </trkpt>
      <trkpt lat="27.961946" lon="-15.566613">
        <ele>1922.83</ele>
        <time>2017-12-09T09:20:20Z</time>
      </trkpt>
      <trkpt lat="27.961961" lon="-15.566633">
        <ele>1922.89</ele>
        <time>2017-12-09T09:20:21Z</time>
      </trkpt>
      <trkpt lat="27.961975" lon="-15.566653">
        <ele>1922.81</ele>
        <time>2017-12-09T09:20:22Z</time>
      </trkpt>
      <trkpt lat="27.961987" lon="-15.566668">
        <ele>1922.80</ele>
        <time>2017-12-09T09:20:23Z</time>
      </trkpt>
      <trkpt lat="27.962000" lon="-15.566685">
        <ele>1922.80</ele>
        <time>2017-12-09T09:20:24Z</time>
      </trkpt>
      <trkpt lat="27.962012" lon="-15.566700">
        <ele>1922.45</ele>
        <time>2017-12-09T09:20:25Z</time>
      </trkpt>
      <trkpt lat="27.962025" lon="-15.566718">
        <ele>1922.49</ele>
        <time>2017-12-09T09:20:26Z</time>
      </trkpt>
      <trkpt lat="27.962040" lon="-15.566738">
        <ele>1922.50</ele>
        <time>2017-12-09T09:20:27Z</time>
      </trkpt>
      <trkpt lat="27.962055" lon="-15.566754">
        <ele>1922.50</ele>
        <time>2017-12-09T09:20:28Z</time>
      </trkpt>
      <trkpt lat="27.962073" lon="-15.566771">
        <ele>1922.50</ele>
        <time>2017-12-09T09:20:29Z</time>
      </trkpt>
      <trkpt lat="27.962089" lon="-15.566788">
        <ele>1922.50</ele>
        <time>2017-12-09T09:20:30Z</time>
      </trkpt>
      <trkpt lat="27.962106" lon="-15.566804">
        <ele>1922.50</ele>
        <time>2017-12-09T09:20:31Z</time>
      </trkpt>
      <trkpt lat="27.962125" lon="-15.566820">
        <ele>1921.61</ele>
        <time>2017-12-09T09:20:32Z</time>
      </trkpt>
      <trkpt lat="27.962140" lon="-15.566833">
        <ele>1921.59</ele>
        <time>2017-12-09T09:20:33Z</time>
      </trkpt>
      <trkpt lat="27.962157" lon="-15.566849">
        <ele>1921.96</ele>
        <time>2017-12-09T09:20:34Z</time>
      </trkpt>
      <trkpt lat="27.962170" lon="-15.566864">
        <ele>1922.00</ele>
        <time>2017-12-09T09:20:35Z</time>
      </trkpt>
      <trkpt lat="27.962189" lon="-15.566879">
        <ele>1922.00</ele>
        <time>2017-12-09T09:20:36Z</time>
      </trkpt>
      <trkpt lat="27.962205" lon="-15.566897">
        <ele>1922.00</ele>
        <time>2017-12-09T09:20:37Z</time>
      </trkpt>
      <trkpt lat="27.962222" lon="-15.566913">
        <ele>1921.91</ele>
        <time>2017-12-09T09:20:38Z</time>
      </trkpt>
      <trkpt lat="27.962239" lon="-15.566929">
        <ele>1921.99</ele>
        <time>2017-12-09T09:20:39Z</time>
      </trkpt>
      <trkpt lat="27.962253" lon="-15.566945">
        <ele>1922.00</ele>
        <time>2017-12-09T09:20:40Z</time>
      </trkpt>
      <trkpt lat="27.962268" lon="-15.566958">
        <ele>1921.54</ele>
        <time>2017-12-09T09:20:41Z</time>
      </trkpt>
      <trkpt lat="27.962283" lon="-15.566972">
        <ele>1921.50</ele>
        <time>2017-12-09T09:20:42Z</time>
      </trkpt>
      <trkpt lat="27.962297" lon="-15.566991">
        <ele>1921.50</ele>
        <time>2017-12-09T09:20:43Z</time>
      </trkpt>
      <trkpt lat="27.962313" lon="-15.567012">
        <ele>1921.59</ele>
        <time>2017-12-09T09:20:44Z</time>
      </trkpt>
      <trkpt lat="27.962333" lon="-15.567033">
        <ele>1921.60</ele>
        <time>2017-12-09T09:20:45Z</time>
      </trkpt>
      <trkpt lat="27.962343" lon="-15.567054">
        <ele>1921.60</ele>
        <time>2017-12-09T09:20:46Z</time>
      </trkpt>
      <trkpt lat="27.962363" lon="-15.567074">
        <ele>1921.23</ele>
        <time>2017-12-09T09:20:47Z</time>
      </trkpt>
      <trkpt lat="27.962375" lon="-15.567093">
        <ele>1921.01</ele>
        <time>2017-12-09T09:20:48Z</time>
      </trkpt>
      <trkpt lat="27.962394" lon="-15.567113">
        <ele>1920.82</ele>
        <time>2017-12-09T09:20:49Z</time>
      </trkpt>
      <trkpt lat="27.962411" lon="-15.567127">
        <ele>1920.25</ele>
        <time>2017-12-09T09:20:50Z</time>
      </trkpt>
      <trkpt lat="27.962428" lon="-15.567140">
        <ele>1920.20</ele>
        <time>2017-12-09T09:20:51Z</time>
      </trkpt>
      <trkpt lat="27.962448" lon="-15.567173">
        <ele>1920.40</ele>
        <time>2017-12-09T09:20:53Z</time>
      </trkpt>
      <trkpt lat="27.962463" lon="-15.567194">
        <ele>1920.40</ele>
        <time>2017-12-09T09:20:54Z</time>
      </trkpt>
      <trkpt lat="27.962476" lon="-15.567211">
        <ele>1921.51</ele>
        <time>2017-12-09T09:20:55Z</time>
      </trkpt>
      <trkpt lat="27.962491" lon="-15.567232">
        <ele>1921.69</ele>
        <time>2017-12-09T09:20:56Z</time>
      </trkpt>
      <trkpt lat="27.962507" lon="-15.567252">
        <ele>1921.98</ele>
        <time>2017-12-09T09:20:57Z</time>
      </trkpt>
      <trkpt lat="27.962523" lon="-15.567269">
        <ele>1921.72</ele>
        <time>2017-12-09T09:20:58Z</time>
      </trkpt>
      <trkpt lat="27.962537" lon="-15.567286">
        <ele>1921.89</ele>
        <time>2017-12-09T09:20:59Z</time>
      </trkpt>
      <trkpt lat="27.962547" lon="-15.567305">
        <ele>1921.71</ele>
        <time>2017-12-09T09:21:00Z</time>
      </trkpt>
      <trkpt lat="27.962563" lon="-15.567335">
        <ele>1921.50</ele>
        <time>2017-12-09T09:21:02Z</time>
      </trkpt>
      <trkpt lat="27.962576" lon="-15.567354">
        <ele>1921.59</ele>
        <time>2017-12-09T09:21:03Z</time>
      </trkpt>
      <trkpt lat="27.962605" lon="-15.567392">
        <ele>1921.41</ele>
        <time>2017-12-09T09:21:05Z</time>
      </trkpt>
      <trkpt lat="27.962641" lon="-15.567461">
        <ele>1922.09</ele>
        <time>2017-12-09T09:21:09Z</time>
      </trkpt>
      <trkpt lat="27.962668" lon="-15.567516">
        <ele>1922.60</ele>
        <time>2017-12-09T09:21:13Z</time>
      </trkpt>
      <trkpt lat="27.962708" lon="-15.567609">
        <ele>1922.70</ele>
        <time>2017-12-09T09:21:18Z</time>
      </trkpt>
      <trkpt lat="27.962723" lon="-15.567649">
        <ele>1922.90</ele>
        <time>2017-12-09T09:21:20Z</time>
      </trkpt>
      <trkpt lat="27.962731" lon="-15.567668">
        <ele>1922.99</ele>
        <time>2017-12-09T09:21:21Z</time>
      </trkpt>
      <trkpt lat="27.962748" lon="-15.567706">
        <ele>1923.38</ele>
        <time>2017-12-09T09:21:23Z</time>
      </trkpt>
      <trkpt lat="27.962756" lon="-15.567726">
        <ele>1923.59</ele>
        <time>2017-12-09T09:21:24Z</time>
      </trkpt>
      <trkpt lat="27.962772" lon="-15.567760">
        <ele>1923.60</ele>
        <time>2017-12-09T09:21:26Z</time>
      </trkpt>
      <trkpt lat="27.962782" lon="-15.567778">
        <ele>1923.60</ele>
        <time>2017-12-09T09:21:27Z</time>
      </trkpt>
      <trkpt lat="27.962793" lon="-15.567799">
        <ele>1923.60</ele>
        <time>2017-12-09T09:21:28Z</time>
      </trkpt>
      <trkpt lat="27.962802" lon="-15.567818">
        <ele>1923.70</ele>
        <time>2017-12-09T09:21:29Z</time>
      </trkpt>
      <trkpt lat="27.962810" lon="-15.567837">
        <ele>1923.70</ele>
        <time>2017-12-09T09:21:30Z</time>
      </trkpt>
      <trkpt lat="27.962816" lon="-15.567858">
        <ele>1923.60</ele>
        <time>2017-12-09T09:21:31Z</time>
      </trkpt>
      <trkpt lat="27.962827" lon="-15.567883">
        <ele>1923.41</ele>
        <time>2017-12-09T09:21:32Z</time>
      </trkpt>
      <trkpt lat="27.962835" lon="-15.567906">
        <ele>1923.30</ele>
        <time>2017-12-09T09:21:33Z</time>
      </trkpt>
      <trkpt lat="27.962861" lon="-15.567959">
        <ele>1923.40</ele>
        <time>2017-12-09T09:21:36Z</time>
      </trkpt>
      <trkpt lat="27.962868" lon="-15.567982">
        <ele>1923.40</ele>
        <time>2017-12-09T09:21:37Z</time>
      </trkpt>
      <trkpt lat="27.962876" lon="-15.568001">
        <ele>1923.78</ele>
        <time>2017-12-09T09:21:38Z</time>
      </trkpt>
      <trkpt lat="27.962881" lon="-15.568026">
        <ele>1923.80</ele>
        <time>2017-12-09T09:21:39Z</time>
      </trkpt>
      <trkpt lat="27.962890" lon="-15.568047">
        <ele>1924.37</ele>
        <time>2017-12-09T09:21:40Z</time>
      </trkpt>
      <trkpt lat="27.962898" lon="-15.568071">
        <ele>1924.12</ele>
        <time>2017-12-09T09:21:41Z</time>
      </trkpt>
      <trkpt lat="27.962904" lon="-15.568094">
        <ele>1924.10</ele>
        <time>2017-12-09T09:21:42Z</time>
      </trkpt>
      <trkpt lat="27.962914" lon="-15.568120">
        <ele>1924.19</ele>
        <time>2017-12-09T09:21:43Z</time>
      </trkpt>
      <trkpt lat="27.962917" lon="-15.568147">
        <ele>1924.20</ele>
        <time>2017-12-09T09:21:44Z</time>
      </trkpt>
      <trkpt lat="27.962926" lon="-15.568169">
        <ele>1924.20</ele>
        <time>2017-12-09T09:21:45Z</time>
      </trkpt>
      <trkpt lat="27.962939" lon="-15.568198">
        <ele>1924.20</ele>
        <time>2017-12-09T09:21:46Z</time>
      </trkpt>
      <trkpt lat="27.962946" lon="-15.568225">
        <ele>1924.20</ele>
        <time>2017-12-09T09:21:47Z</time>
      </trkpt>
      <trkpt lat="27.962955" lon="-15.568250">
        <ele>1924.10</ele>
        <time>2017-12-09T09:21:48Z</time>
      </trkpt>
      <trkpt lat="27.962967" lon="-15.568272">
        <ele>1925.23</ele>
        <time>2017-12-09T09:21:49Z</time>
      </trkpt>
      <trkpt lat="27.962988" lon="-15.568311">
        <ele>1925.34</ele>
        <time>2017-12-09T09:21:51Z</time>
      </trkpt>
      <trkpt lat="27.962999" lon="-15.568340">
        <ele>1925.02</ele>
        <time>2017-12-09T09:21:52Z</time>
      </trkpt>
      <trkpt lat="27.963008" lon="-15.568369">
        <ele>1925.00</ele>
        <time>2017-12-09T09:21:53Z</time>
      </trkpt>
      <trkpt lat="27.963024" lon="-15.568418">
        <ele>1925.00</ele>
        <time>2017-12-09T09:21:55Z</time>
      </trkpt>
      <trkpt lat="27.963035" lon="-15.568437">
        <ele>1925.09</ele>
        <time>2017-12-09T09:21:56Z</time>
      </trkpt>
      <trkpt lat="27.963043" lon="-15.568458">
        <ele>1925.10</ele>
        <time>2017-12-09T09:21:57Z</time>
      </trkpt>
      <trkpt lat="27.963052" lon="-15.568477">
        <ele>1925.10</ele>
        <time>2017-12-09T09:21:58Z</time>
      </trkpt>
      <trkpt lat="27.963065" lon="-15.568500">
        <ele>1924.34</ele>
        <time>2017-12-09T09:21:59Z</time>
      </trkpt>
      <trkpt lat="27.963076" lon="-15.568524">
        <ele>1926.18</ele>
        <time>2017-12-09T09:22:00Z</time>
      </trkpt>
      <trkpt lat="27.963086" lon="-15.568550">
        <ele>1924.41</ele>
        <time>2017-12-09T09:22:01Z</time>
      </trkpt>
      <trkpt lat="27.963089" lon="-15.568573">
        <ele>1926.20</ele>
        <time>2017-12-09T09:22:02Z</time>
      </trkpt>
      <trkpt lat="27.963097" lon="-15.568596">
        <ele>1924.50</ele>
        <time>2017-12-09T09:22:03Z</time>
      </trkpt>
      <trkpt lat="27.963106" lon="-15.568617">
        <ele>1926.19</ele>
        <time>2017-12-09T09:22:04Z</time>
      </trkpt>
      <trkpt lat="27.963114" lon="-15.568643">
        <ele>1924.69</ele>
        <time>2017-12-09T09:22:05Z</time>
      </trkpt>
      <trkpt lat="27.963126" lon="-15.568666">
        <ele>1924.60</ele>
        <time>2017-12-09T09:22:06Z</time>
      </trkpt>
      <trkpt lat="27.963134" lon="-15.568685">
        <ele>1924.69</ele>
        <time>2017-12-09T09:22:07Z</time>
      </trkpt>
      <trkpt lat="27.963148" lon="-15.568704">
        <ele>1924.70</ele>
        <time>2017-12-09T09:22:08Z</time>
      </trkpt>
      <trkpt lat="27.963159" lon="-15.568730">
        <ele>1924.70</ele>
        <time>2017-12-09T09:22:09Z</time>
      </trkpt>
      <trkpt lat="27.963169" lon="-15.568749">
        <ele>1924.70</ele>
        <time>2017-12-09T09:22:10Z</time>
      </trkpt>
      <trkpt lat="27.963176" lon="-15.568768">
        <ele>1924.70</ele>
        <time>2017-12-09T09:22:11Z</time>
      </trkpt>
      <trkpt lat="27.963191" lon="-15.568792">
        <ele>1924.51</ele>
        <time>2017-12-09T09:22:12Z</time>
      </trkpt>
      <trkpt lat="27.963208" lon="-15.568809">
        <ele>1926.11</ele>
        <time>2017-12-09T09:22:13Z</time>
      </trkpt>
      <trkpt lat="27.963220" lon="-15.568829">
        <ele>1924.87</ele>
        <time>2017-12-09T09:22:14Z</time>
      </trkpt>
      <trkpt lat="27.963222" lon="-15.568851">
        <ele>1926.13</ele>
        <time>2017-12-09T09:22:15Z</time>
      </trkpt>
      <trkpt lat="27.963220" lon="-15.568874">
        <ele>1926.96</ele>
        <time>2017-12-09T09:22:16Z</time>
      </trkpt>
      <trkpt lat="27.963216" lon="-15.568901">
        <ele>1927.00</ele>
        <time>2017-12-09T09:22:17Z</time>
      </trkpt>
      <trkpt lat="27.963213" lon="-15.568926">
        <ele>1926.81</ele>
        <time>2017-12-09T09:22:18Z</time>
      </trkpt>
      <trkpt lat="27.963208" lon="-15.568951">
        <ele>1926.89</ele>
        <time>2017-12-09T09:22:19Z</time>
      </trkpt>
      <trkpt lat="27.963206" lon="-15.568978">
        <ele>1926.05</ele>
        <time>2017-12-09T09:22:20Z</time>
      </trkpt>
      <trkpt lat="27.963204" lon="-15.569003">
        <ele>1926.00</ele>
        <time>2017-12-09T09:22:21Z</time>
      </trkpt>
      <trkpt lat="27.963211" lon="-15.569027">
        <ele>1926.00</ele>
        <time>2017-12-09T09:22:22Z</time>
      </trkpt>
      <trkpt lat="27.963217" lon="-15.569068">
        <ele>1925.40</ele>
        <time>2017-12-09T09:22:24Z</time>
      </trkpt>
      <trkpt lat="27.963223" lon="-15.569093">
        <ele>1925.40</ele>
        <time>2017-12-09T09:22:25Z</time>
      </trkpt>
      <trkpt lat="27.963229" lon="-15.569115">
        <ele>1925.40</ele>
        <time>2017-12-09T09:22:26Z</time>
      </trkpt>
      <trkpt lat="27.963234" lon="-15.569138">
        <ele>1925.49</ele>
        <time>2017-12-09T09:22:27Z</time>
      </trkpt>
      <trkpt lat="27.963239" lon="-15.569160">
        <ele>1926.64</ele>
        <time>2017-12-09T09:22:28Z</time>
      </trkpt>
      <trkpt lat="27.963244" lon="-15.569191">
        <ele>1925.57</ele>
        <time>2017-12-09T09:22:29Z</time>
      </trkpt>
      <trkpt lat="27.963247" lon="-15.569218">
        <ele>1926.35</ele>
        <time>2017-12-09T09:22:30Z</time>
      </trkpt>
      <trkpt lat="27.963252" lon="-15.569245">
        <ele>1925.55</ele>
        <time>2017-12-09T09:22:31Z</time>
      </trkpt>
      <trkpt lat="27.963259" lon="-15.569268">
        <ele>1925.31</ele>
        <time>2017-12-09T09:22:32Z</time>
      </trkpt>
      <trkpt lat="27.963266" lon="-15.569293">
        <ele>1925.30</ele>
        <time>2017-12-09T09:22:33Z</time>
      </trkpt>
      <trkpt lat="27.963278" lon="-15.569316">
        <ele>1926.15</ele>
        <time>2017-12-09T09:22:34Z</time>
      </trkpt>
      <trkpt lat="27.963290" lon="-15.569338">
        <ele>1926.20</ele>
        <time>2017-12-09T09:22:35Z</time>
      </trkpt>
      <trkpt lat="27.963303" lon="-15.569363">
        <ele>1926.20</ele>
        <time>2017-12-09T09:22:36Z</time>
      </trkpt>
      <trkpt lat="27.963320" lon="-15.569388">
        <ele>1926.20</ele>
        <time>2017-12-09T09:22:37Z</time>
      </trkpt>
      <trkpt lat="27.963336" lon="-15.569413">
        <ele>1926.20</ele>
        <time>2017-12-09T09:22:38Z</time>
      </trkpt>
      <trkpt lat="27.963355" lon="-15.569434">
        <ele>1927.71</ele>
        <time>2017-12-09T09:22:39Z</time>
      </trkpt>
      <trkpt lat="27.963374" lon="-15.569454">
        <ele>1926.30</ele>
        <time>2017-12-09T09:22:40Z</time>
      </trkpt>
      <trkpt lat="27.963387" lon="-15.569469">
        <ele>1925.82</ele>
        <time>2017-12-09T09:22:41Z</time>
      </trkpt>
      <trkpt lat="27.963402" lon="-15.569487">
        <ele>1925.89</ele>
        <time>2017-12-09T09:22:42Z</time>
      </trkpt>
      <trkpt lat="27.963416" lon="-15.569506">
        <ele>1925.90</ele>
        <time>2017-12-09T09:22:43Z</time>
      </trkpt>
      <trkpt lat="27.963426" lon="-15.569524">
        <ele>1925.90</ele>
        <time>2017-12-09T09:22:44Z</time>
      </trkpt>
      <trkpt lat="27.963449" lon="-15.569551">
        <ele>1925.90</ele>
        <time>2017-12-09T09:22:46Z</time>
      </trkpt>
      <trkpt lat="27.963474" lon="-15.569574">
        <ele>1926.09</ele>
        <time>2017-12-09T09:22:48Z</time>
      </trkpt>
      <trkpt lat="27.963502" lon="-15.569600">
        <ele>1927.03</ele>
        <time>2017-12-09T09:22:50Z</time>
      </trkpt>
      <trkpt lat="27.963517" lon="-15.569613">
        <ele>1926.07</ele>
        <time>2017-12-09T09:22:51Z</time>
      </trkpt>
      <trkpt lat="27.963524" lon="-15.569632">
        <ele>1927.03</ele>
        <time>2017-12-09T09:22:52Z</time>
      </trkpt>
      <trkpt lat="27.963551" lon="-15.569660">
        <ele>1927.10</ele>
        <time>2017-12-09T09:22:54Z</time>
      </trkpt>
      <trkpt lat="27.963566" lon="-15.569676">
        <ele>1927.29</ele>
        <time>2017-12-09T09:22:55Z</time>
      </trkpt>
      <trkpt lat="27.963583" lon="-15.569691">
        <ele>1927.30</ele>
        <time>2017-12-09T09:22:56Z</time>
      </trkpt>
      <trkpt lat="27.963596" lon="-15.569707">
        <ele>1927.68</ele>
        <time>2017-12-09T09:22:57Z</time>
      </trkpt>
      <trkpt lat="27.963601" lon="-15.569728">
        <ele>1927.70</ele>
        <time>2017-12-09T09:22:58Z</time>
      </trkpt>
      <trkpt lat="27.963629" lon="-15.569833">
        <ele>1927.70</ele>
        <time>2017-12-09T09:23:03Z</time>
      </trkpt>
      <trkpt lat="27.963672" lon="-15.569925">
        <ele>1927.61</ele>
        <time>2017-12-09T09:23:07Z</time>
      </trkpt>
      <trkpt lat="27.963712" lon="-15.570017">
        <ele>1927.80</ele>
        <time>2017-12-09T09:23:11Z</time>
      </trkpt>
      <trkpt lat="27.963761" lon="-15.570104">
        <ele>1928.85</ele>
        <time>2017-12-09T09:23:15Z</time>
      </trkpt>
      <trkpt lat="27.963799" lon="-15.570218">
        <ele>1929.20</ele>
        <time>2017-12-09T09:23:20Z</time>
      </trkpt>
      <trkpt lat="27.963843" lon="-15.570318">
        <ele>1929.20</ele>
        <time>2017-12-09T09:23:24Z</time>
      </trkpt>
      <trkpt lat="27.963879" lon="-15.570441">
        <ele>1929.20</ele>
        <time>2017-12-09T09:23:29Z</time>
      </trkpt>
      <trkpt lat="27.963917" lon="-15.570549">
        <ele>1929.20</ele>
        <time>2017-12-09T09:23:33Z</time>
      </trkpt>
      <trkpt lat="27.963966" lon="-15.570646">
        <ele>1928.72</ele>
        <time>2017-12-09T09:23:38Z</time>
      </trkpt>
      <trkpt lat="27.964001" lon="-15.570750">
        <ele>1928.70</ele>
        <time>2017-12-09T09:23:42Z</time>
      </trkpt>
      <trkpt lat="27.964027" lon="-15.570851">
        <ele>1928.60</ele>
        <time>2017-12-09T09:23:46Z</time>
      </trkpt>
      <trkpt lat="27.964065" lon="-15.570944">
        <ele>1928.84</ele>
        <time>2017-12-09T09:23:50Z</time>
      </trkpt>
      <trkpt lat="27.964114" lon="-15.571061">
        <ele>1928.30</ele>
        <time>2017-12-09T09:23:55Z</time>
      </trkpt>
      <trkpt lat="27.964170" lon="-15.571147">
        <ele>1928.40</ele>
        <time>2017-12-09T09:23:59Z</time>
      </trkpt>
      <trkpt lat="27.964225" lon="-15.571230">
        <ele>1928.40</ele>
        <time>2017-12-09T09:24:03Z</time>
      </trkpt>
      <trkpt lat="27.964243" lon="-15.571343">
        <ele>1928.60</ele>
        <time>2017-12-09T09:24:07Z</time>
      </trkpt>
      <trkpt lat="27.964258" lon="-15.571458">
        <ele>1927.66</ele>
        <time>2017-12-09T09:24:11Z</time>
      </trkpt>
      <trkpt lat="27.964276" lon="-15.571565">
        <ele>1928.50</ele>
        <time>2017-12-09T09:24:16Z</time>
      </trkpt>
      <trkpt lat="27.964277" lon="-15.571589">
        <ele>1928.10</ele>
        <time>2017-12-09T09:24:17Z</time>
      </trkpt>
      <trkpt lat="27.964280" lon="-15.571642">
        <ele>1928.10</ele>
        <time>2017-12-09T09:24:19Z</time>
      </trkpt>
      <trkpt lat="27.964292" lon="-15.571668">
        <ele>1928.10</ele>
        <time>2017-12-09T09:24:20Z</time>
      </trkpt>
      <trkpt lat="27.964297" lon="-15.571689">
        <ele>1928.10</ele>
        <time>2017-12-09T09:24:21Z</time>
      </trkpt>
      <trkpt lat="27.964297" lon="-15.571733">
        <ele>1928.39</ele>
        <time>2017-12-09T09:24:23Z</time>
      </trkpt>
      <trkpt lat="27.964283" lon="-15.571770">
        <ele>1929.50</ele>
        <time>2017-12-09T09:24:25Z</time>
      </trkpt>
      <trkpt lat="27.964269" lon="-15.571806">
        <ele>1929.50</ele>
        <time>2017-12-09T09:24:27Z</time>
      </trkpt>
      <trkpt lat="27.964268" lon="-15.571827">
        <ele>1929.50</ele>
        <time>2017-12-09T09:24:28Z</time>
      </trkpt>
      <trkpt lat="27.964260" lon="-15.571851">
        <ele>1929.50</ele>
        <time>2017-12-09T09:24:29Z</time>
      </trkpt>
      <trkpt lat="27.964241" lon="-15.571886">
        <ele>1929.56</ele>
        <time>2017-12-09T09:24:31Z</time>
      </trkpt>
      <trkpt lat="27.964207" lon="-15.571917">
        <ele>1929.80</ele>
        <time>2017-12-09T09:24:33Z</time>
      </trkpt>
      <trkpt lat="27.964192" lon="-15.571930">
        <ele>1930.09</ele>
        <time>2017-12-09T09:24:34Z</time>
      </trkpt>
      <trkpt lat="27.964168" lon="-15.571950">
        <ele>1930.34</ele>
        <time>2017-12-09T09:24:36Z</time>
      </trkpt>
      <trkpt lat="27.964103" lon="-15.571990">
        <ele>1930.40</ele>
        <time>2017-12-09T09:24:40Z</time>
      </trkpt>
      <trkpt lat="27.964086" lon="-15.572002">
        <ele>1930.57</ele>
        <time>2017-12-09T09:24:41Z</time>
      </trkpt>
      <trkpt lat="27.964072" lon="-15.572015">
        <ele>1931.29</ele>
        <time>2017-12-09T09:24:43Z</time>
      </trkpt>
      <trkpt lat="27.964054" lon="-15.572023">
        <ele>1931.50</ele>
        <time>2017-12-09T09:24:45Z</time>
      </trkpt>
      <trkpt lat="27.964026" lon="-15.572051">
        <ele>1931.96</ele>
        <time>2017-12-09T09:24:48Z</time>
      </trkpt>
      <trkpt lat="27.964005" lon="-15.572072">
        <ele>1932.06</ele>
        <time>2017-12-09T09:24:50Z</time>
      </trkpt>
      <trkpt lat="27.963982" lon="-15.572084">
        <ele>1932.67</ele>
        <time>2017-12-09T09:24:52Z</time>
      </trkpt>
      <trkpt lat="27.963958" lon="-15.572102">
        <ele>1932.97</ele>
        <time>2017-12-09T09:24:54Z</time>
      </trkpt>
      <trkpt lat="27.963938" lon="-15.572121">
        <ele>1933.00</ele>
        <time>2017-12-09T09:24:56Z</time>
      </trkpt>
      <trkpt lat="27.963916" lon="-15.572138">
        <ele>1933.00</ele>
        <time>2017-12-09T09:24:58Z</time>
      </trkpt>
      <trkpt lat="27.963895" lon="-15.572152">
        <ele>1933.27</ele>
        <time>2017-12-09T09:25:00Z</time>
      </trkpt>
      <trkpt lat="27.963877" lon="-15.572165">
        <ele>1933.87</ele>
        <time>2017-12-09T09:25:02Z</time>
      </trkpt>
      <trkpt lat="27.963857" lon="-15.572175">
        <ele>1934.00</ele>
        <time>2017-12-09T09:25:04Z</time>
      </trkpt>
      <trkpt lat="27.963848" lon="-15.572206">
        <ele>1934.00</ele>
        <time>2017-12-09T09:25:06Z</time>
      </trkpt>
      <trkpt lat="27.963828" lon="-15.572219">
        <ele>1934.14</ele>
        <time>2017-12-09T09:25:08Z</time>
      </trkpt>
      <trkpt lat="27.963805" lon="-15.572229">
        <ele>1934.70</ele>
        <time>2017-12-09T09:25:10Z</time>
      </trkpt>
      <trkpt lat="27.963782" lon="-15.572237">
        <ele>1935.30</ele>
        <time>2017-12-09T09:25:12Z</time>
      </trkpt>
      <trkpt lat="27.963759" lon="-15.572255">
        <ele>1935.33</ele>
        <time>2017-12-09T09:25:14Z</time>
      </trkpt>
      <trkpt lat="27.963736" lon="-15.572264">
        <ele>1935.30</ele>
        <time>2017-12-09T09:25:16Z</time>
      </trkpt>
      <trkpt lat="27.963713" lon="-15.572274">
        <ele>1935.37</ele>
        <time>2017-12-09T09:25:18Z</time>
      </trkpt>
      <trkpt lat="27.963690" lon="-15.572282">
        <ele>1935.78</ele>
        <time>2017-12-09T09:25:20Z</time>
      </trkpt>
      <trkpt lat="27.963668" lon="-15.572295">
        <ele>1936.50</ele>
        <time>2017-12-09T09:25:22Z</time>
      </trkpt>
      <trkpt lat="27.963646" lon="-15.572308">
        <ele>1936.81</ele>
        <time>2017-12-09T09:25:24Z</time>
      </trkpt>
      <trkpt lat="27.963634" lon="-15.572332">
        <ele>1937.03</ele>
        <time>2017-12-09T09:25:27Z</time>
      </trkpt>
      <trkpt lat="27.963617" lon="-15.572339">
        <ele>1937.20</ele>
        <time>2017-12-09T09:25:29Z</time>
      </trkpt>
      <trkpt lat="27.963600" lon="-15.572345">
        <ele>1937.64</ele>
        <time>2017-12-09T09:25:33Z</time>
      </trkpt>
      <trkpt lat="27.963592" lon="-15.572365">
        <ele>1936.65</ele>
        <time>2017-12-09T09:25:43Z</time>
      </trkpt>
      <trkpt lat="27.963576" lon="-15.572372">
        <ele>1935.80</ele>
        <time>2017-12-09T09:25:49Z</time>
      </trkpt>
      <trkpt lat="27.963554" lon="-15.572417">
        <ele>1939.40</ele>
        <time>2018-06-22T19:12:01Z</time>
      </trkpt>
      <trkpt lat="27.963523" lon="-15.572412">
        <ele>1940.40</ele>
        <time>2018-06-22T19:12:02Z</time>
      </trkpt>
      <trkpt lat="27.963497" lon="-15.572406">
        <ele>1939.40</ele>
        <time>2018-06-22T19:12:03Z</time>
      </trkpt>
      <trkpt lat="27.963476" lon="-15.572400">
        <ele>1939.40</ele>
        <time>2018-06-22T19:12:04Z</time>
      </trkpt>
      <trkpt lat="27.963456" lon="-15.572391">
        <ele>1939.00</ele>
        <time>2018-06-22T19:12:05Z</time>
      </trkpt>
      <trkpt lat="27.963436" lon="-15.572375">
        <ele>1940.40</ele>
        <time>2018-06-22T19:12:06Z</time>
      </trkpt>
      <trkpt lat="27.963416" lon="-15.572360">
        <ele>1939.00</ele>
        <time>2018-06-22T19:12:07Z</time>
      </trkpt>
      <trkpt lat="27.963396" lon="-15.572347">
        <ele>1938.80</ele>
        <time>2018-06-22T19:12:08Z</time>
      </trkpt>
      <trkpt lat="27.963377" lon="-15.572336">
        <ele>1938.80</ele>
        <time>2018-06-22T19:12:09Z</time>
      </trkpt>
      <trkpt lat="27.963356" lon="-15.572324">
        <ele>1939.00</ele>
        <time>2018-06-22T19:12:10Z</time>
      </trkpt>
      <trkpt lat="27.963336" lon="-15.572314">
        <ele>1939.00</ele>
        <time>2018-06-22T19:12:11Z</time>
      </trkpt>
      <trkpt lat="27.963316" lon="-15.572302">
        <ele>1939.20</ele>
        <time>2018-06-22T19:12:12Z</time>
      </trkpt>
      <trkpt lat="27.963297" lon="-15.572291">
        <ele>1939.20</ele>
        <time>2018-06-22T19:12:13Z</time>
      </trkpt>
      <trkpt lat="27.963273" lon="-15.572276">
        <ele>1940.40</ele>
        <time>2018-06-22T19:12:14Z</time>
      </trkpt>
      <trkpt lat="27.963249" lon="-15.572263">
        <ele>1941.60</ele>
        <time>2018-06-22T19:12:15Z</time>
      </trkpt>
      <trkpt lat="27.963221" lon="-15.572249">
        <ele>1941.00</ele>
        <time>2018-06-22T19:12:16Z</time>
      </trkpt>
      <trkpt lat="27.963193" lon="-15.572234">
        <ele>1941.40</ele>
        <time>2018-06-22T19:12:17Z</time>
      </trkpt>
      <trkpt lat="27.963167" lon="-15.572219">
        <ele>1941.40</ele>
        <time>2018-06-22T19:12:18Z</time>
      </trkpt>
      <trkpt lat="27.963146" lon="-15.572207">
        <ele>1941.40</ele>
        <time>2018-06-22T19:12:19Z</time>
      </trkpt>
      <trkpt lat="27.963126" lon="-15.572199">
        <ele>1941.40</ele>
        <time>2018-06-22T19:12:20Z</time>
      </trkpt>
      <trkpt lat="27.963103" lon="-15.572188">
        <ele>1941.60</ele>
        <time>2018-06-22T19:12:21Z</time>
      </trkpt>
      <trkpt lat="27.963081" lon="-15.572178">
        <ele>1941.60</ele>
        <time>2018-06-22T19:12:22Z</time>
      </trkpt>
      <trkpt lat="27.963057" lon="-15.572170">
        <ele>1941.80</ele>
        <time>2018-06-22T19:12:23Z</time>
      </trkpt>
      <trkpt lat="27.963034" lon="-15.572160">
        <ele>1942.00</ele>
        <time>2018-06-22T19:12:24Z</time>
      </trkpt>
      <trkpt lat="27.963012" lon="-15.572157">
        <ele>1942.00</ele>
        <time>2018-06-22T19:12:25Z</time>
      </trkpt>
      <trkpt lat="27.962995" lon="-15.572149">
        <ele>1942.60</ele>
        <time>2018-06-22T19:12:26Z</time>
      </trkpt>
      <trkpt lat="27.962977" lon="-15.572141">
        <ele>1942.60</ele>
        <time>2018-06-22T19:12:27Z</time>
      </trkpt>
      <trkpt lat="27.962948" lon="-15.572132">
        <ele>1943.80</ele>
        <time>2018-06-22T19:12:29Z</time>
      </trkpt>
      <trkpt lat="27.962928" lon="-15.572123">
        <ele>1943.80</ele>
        <time>2018-06-22T19:12:30Z</time>
      </trkpt>
      <trkpt lat="27.962907" lon="-15.572111">
        <ele>1944.80</ele>
        <time>2018-06-22T19:12:31Z</time>
      </trkpt>
      <trkpt lat="27.962888" lon="-15.572099">
        <ele>1945.20</ele>
        <time>2018-06-22T19:12:32Z</time>
      </trkpt>
      <trkpt lat="27.962860" lon="-15.572084">
        <ele>1945.20</ele>
        <time>2018-06-22T19:12:34Z</time>
      </trkpt>
      <trkpt lat="27.962838" lon="-15.572074">
        <ele>1945.60</ele>
        <time>2018-06-22T19:12:35Z</time>
      </trkpt>
      <trkpt lat="27.962819" lon="-15.572063">
        <ele>1945.80</ele>
        <time>2018-06-22T19:12:36Z</time>
      </trkpt>
      <trkpt lat="27.962799" lon="-15.572056">
        <ele>1946.00</ele>
        <time>2018-06-22T19:12:37Z</time>
      </trkpt>
      <trkpt lat="27.962771" lon="-15.572044">
        <ele>1946.60</ele>
        <time>2018-06-22T19:12:39Z</time>
      </trkpt>
      <trkpt lat="27.962753" lon="-15.572039">
        <ele>1946.60</ele>
        <time>2018-06-22T19:12:40Z</time>
      </trkpt>
      <trkpt lat="27.962732" lon="-15.572034">
        <ele>1946.60</ele>
        <time>2018-06-22T19:12:41Z</time>
      </trkpt>
      <trkpt lat="27.962708" lon="-15.572032">
        <ele>1946.80</ele>
        <time>2018-06-22T19:12:42Z</time>
      </trkpt>
      <trkpt lat="27.962686" lon="-15.572030">
        <ele>1947.80</ele>
        <time>2018-06-22T19:12:43Z</time>
      </trkpt>
      <trkpt lat="27.962658" lon="-15.572029">
        <ele>1948.20</ele>
        <time>2018-06-22T19:12:44Z</time>
      </trkpt>
      <trkpt lat="27.962639" lon="-15.572025">
        <ele>1948.20</ele>
        <time>2018-06-22T19:12:45Z</time>
      </trkpt>
      <trkpt lat="27.962559" lon="-15.572075">
        <ele>1940.40</ele>
        <time>2018-06-22T18:34:42Z</time>
      </trkpt>
      <trkpt lat="27.962539" lon="-15.572083">
        <ele>1940.40</ele>
        <time>2018-06-22T18:34:43Z</time>
      </trkpt>
      <trkpt lat="27.962515" lon="-15.572075">
        <ele>1940.60</ele>
        <time>2018-06-22T18:34:45Z</time>
      </trkpt>
      <trkpt lat="27.962493" lon="-15.572062">
        <ele>1940.60</ele>
        <time>2018-06-22T18:34:47Z</time>
      </trkpt>
      <trkpt lat="27.962471" lon="-15.572049">
        <ele>1940.60</ele>
        <time>2018-06-22T18:34:49Z</time>
      </trkpt>
      <trkpt lat="27.962447" lon="-15.572041">
        <ele>1940.20</ele>
        <time>2018-06-22T18:34:52Z</time>
      </trkpt>
      <trkpt lat="27.962427" lon="-15.572048">
        <ele>1940.60</ele>
        <time>2018-06-22T18:34:54Z</time>
      </trkpt>
      <trkpt lat="27.962398" lon="-15.572048">
        <ele>1940.60</ele>
        <time>2018-06-22T18:34:56Z</time>
      </trkpt>
      <trkpt lat="27.962380" lon="-15.572046">
        <ele>1941.00</ele>
        <time>2018-06-22T18:34:58Z</time>
      </trkpt>
      <trkpt lat="27.962362" lon="-15.572044">
        <ele>1941.40</ele>
        <time>2018-06-22T18:35:00Z</time>
      </trkpt>
      <trkpt lat="27.962337" lon="-15.572046">
        <ele>1941.20</ele>
        <time>2018-06-22T18:35:03Z</time>
      </trkpt>
      <trkpt lat="27.962322" lon="-15.572057">
        <ele>1940.60</ele>
        <time>2018-06-22T18:35:06Z</time>
      </trkpt>
      <trkpt lat="27.962307" lon="-15.572074">
        <ele>1940.20</ele>
        <time>2018-06-22T18:35:08Z</time>
      </trkpt>
      <trkpt lat="27.962301" lon="-15.572102">
        <ele>1940.20</ele>
        <time>2018-06-22T18:35:11Z</time>
      </trkpt>
      <trkpt lat="27.962289" lon="-15.572127">
        <ele>1939.40</ele>
        <time>2018-06-22T18:35:14Z</time>
      </trkpt>
      <trkpt lat="27.962279" lon="-15.572144">
        <ele>1939.00</ele>
        <time>2018-06-22T18:35:16Z</time>
      </trkpt>
      <trkpt lat="27.962252" lon="-15.572148">
        <ele>1937.40</ele>
        <time>2018-06-22T18:35:20Z</time>
      </trkpt>
      <trkpt lat="27.962256" lon="-15.572172">
        <ele>1937.20</ele>
        <time>2018-06-22T18:35:24Z</time>
      </trkpt>
      <trkpt lat="27.962278" lon="-15.572190">
        <ele>1936.40</ele>
        <time>2018-06-22T18:35:27Z</time>
      </trkpt>
      <trkpt lat="27.962286" lon="-15.572215">
        <ele>1936.00</ele>
        <time>2018-06-22T18:35:30Z</time>
      </trkpt>
      <trkpt lat="27.962276" lon="-15.572234">
        <ele>1936.00</ele>
        <time>2018-06-22T18:35:32Z</time>
      </trkpt>
      <trkpt lat="27.962259" lon="-15.572246">
        <ele>1935.80</ele>
        <time>2018-06-22T18:35:35Z</time>
      </trkpt>
      <trkpt lat="27.962244" lon="-15.572263">
        <ele>1935.40</ele>
        <time>2018-06-22T18:35:37Z</time>
      </trkpt>
      <trkpt lat="27.962227" lon="-15.572287">
        <ele>1935.20</ele>
        <time>2018-06-22T18:35:39Z</time>
      </trkpt>
      <trkpt lat="27.962210" lon="-15.572295">
        <ele>1935.20</ele>
        <time>2018-06-22T18:35:41Z</time>
      </trkpt>
      <trkpt lat="27.962187" lon="-15.572301">
        <ele>1933.60</ele>
        <time>2018-06-22T18:35:44Z</time>
      </trkpt>
      <trkpt lat="27.962167" lon="-15.572311">
        <ele>1933.20</ele>
        <time>2018-06-22T18:35:48Z</time>
      </trkpt>
      <trkpt lat="27.962155" lon="-15.572331">
        <ele>1932.20</ele>
        <time>2018-06-22T18:35:54Z</time>
      </trkpt>
      <trkpt lat="27.962167" lon="-15.572348">
        <ele>1932.20</ele>
        <time>2018-06-22T18:35:56Z</time>
      </trkpt>
      <trkpt lat="27.962177" lon="-15.572372">
        <ele>1932.00</ele>
        <time>2018-06-22T18:35:59Z</time>
      </trkpt>
      <trkpt lat="27.962189" lon="-15.572396">
        <ele>1931.60</ele>
        <time>2018-06-22T18:36:03Z</time>
      </trkpt>
      <trkpt lat="27.962212" lon="-15.572404">
        <ele>1930.80</ele>
        <time>2018-06-22T18:36:06Z</time>
      </trkpt>
      <trkpt lat="27.962234" lon="-15.572399">
        <ele>1930.80</ele>
        <time>2018-06-22T18:36:08Z</time>
      </trkpt>
      <trkpt lat="27.962261" lon="-15.572402">
        <ele>1930.20</ele>
        <time>2018-06-22T18:36:10Z</time>
      </trkpt>
      <trkpt lat="27.962285" lon="-15.572410">
        <ele>1929.20</ele>
        <time>2018-06-22T18:36:13Z</time>
      </trkpt>
      <trkpt lat="27.962304" lon="-15.572418">
        <ele>1928.80</ele>
        <time>2018-06-22T18:36:16Z</time>
      </trkpt>
      <trkpt lat="27.962310" lon="-15.572438">
        <ele>1927.80</ele>
        <time>2018-06-22T18:36:19Z</time>
      </trkpt>
      <trkpt lat="27.962299" lon="-15.572464">
        <ele>1927.80</ele>
        <time>2018-06-22T18:36:22Z</time>
      </trkpt>
      <trkpt lat="27.962277" lon="-15.572478">
        <ele>1928.00</ele>
        <time>2018-06-22T18:36:25Z</time>
      </trkpt>
      <trkpt lat="27.962271" lon="-15.572499">
        <ele>1927.80</ele>
        <time>2018-06-22T18:36:29Z</time>
      </trkpt>
      <trkpt lat="27.962255" lon="-15.572512">
        <ele>1927.80</ele>
        <time>2018-06-22T18:36:32Z</time>
      </trkpt>
      <trkpt lat="27.962238" lon="-15.572527">
        <ele>1925.40</ele>
        <time>2018-06-22T18:36:36Z</time>
      </trkpt>
      <trkpt lat="27.962252" lon="-15.572543">
        <ele>1927.40</ele>
        <time>2018-06-22T18:36:39Z</time>
      </trkpt>
      <trkpt lat="27.962268" lon="-15.572560">
        <ele>1928.00</ele>
        <time>2018-06-22T18:36:42Z</time>
      </trkpt>
      <trkpt lat="27.962282" lon="-15.572578">
        <ele>1928.20</ele>
        <time>2018-06-22T18:36:53Z</time>
      </trkpt>
      <trkpt lat="27.962300" lon="-15.572575">
        <ele>1924.20</ele>
        <time>2018-06-22T18:37:04Z</time>
      </trkpt>
      <trkpt lat="27.962319" lon="-15.572589">
        <ele>1922.80</ele>
        <time>2018-06-22T18:37:07Z</time>
      </trkpt>
      <trkpt lat="27.962331" lon="-15.572605">
        <ele>1922.80</ele>
        <time>2018-06-22T18:37:10Z</time>
      </trkpt>
      <trkpt lat="27.962343" lon="-15.572626">
        <ele>1921.40</ele>
        <time>2018-06-22T18:37:17Z</time>
      </trkpt>
      <trkpt lat="27.962355" lon="-15.572642">
        <ele>1919.80</ele>
        <time>2018-06-22T18:37:27Z</time>
      </trkpt>
      <trkpt lat="27.962334" lon="-15.572653">
        <ele>1918.00</ele>
        <time>2018-06-22T18:37:30Z</time>
      </trkpt>
      <trkpt lat="27.962327" lon="-15.572673">
        <ele>1917.40</ele>
        <time>2018-06-22T18:37:34Z</time>
      </trkpt>
      <trkpt lat="27.962322" lon="-15.572698">
        <ele>1917.80</ele>
        <time>2018-06-22T18:37:38Z</time>
      </trkpt>
      <trkpt lat="27.962319" lon="-15.572718">
        <ele>1916.80</ele>
        <time>2018-06-22T18:37:41Z</time>
      </trkpt>
      <trkpt lat="27.962323" lon="-15.572739">
        <ele>1915.40</ele>
        <time>2018-06-22T18:37:48Z</time>
      </trkpt>
      <trkpt lat="27.962322" lon="-15.572761">
        <ele>1916.80</ele>
        <time>2018-06-22T18:37:51Z</time>
      </trkpt>
      <trkpt lat="27.962312" lon="-15.572783">
        <ele>1916.40</ele>
        <time>2018-06-22T18:37:56Z</time>
      </trkpt>
      <trkpt lat="27.962321" lon="-15.572803">
        <ele>1915.60</ele>
        <time>2018-06-22T18:37:58Z</time>
      </trkpt>
      <trkpt lat="27.962331" lon="-15.572820">
        <ele>1915.80</ele>
        <time>2018-06-22T18:38:00Z</time>
      </trkpt>
      <trkpt lat="27.962339" lon="-15.572841">
        <ele>1915.20</ele>
        <time>2018-06-22T18:38:02Z</time>
      </trkpt>
      <trkpt lat="27.962349" lon="-15.572867">
        <ele>1913.60</ele>
        <time>2018-06-22T18:38:05Z</time>
      </trkpt>
      <trkpt lat="27.962355" lon="-15.572890">
        <ele>1913.60</ele>
        <time>2018-06-22T18:38:07Z</time>
      </trkpt>
      <trkpt lat="27.962358" lon="-15.572914">
        <ele>1914.20</ele>
        <time>2018-06-22T18:38:10Z</time>
      </trkpt>
      <trkpt lat="27.962362" lon="-15.572935">
        <ele>1914.20</ele>
        <time>2018-06-22T18:38:12Z</time>
      </trkpt>
      <trkpt lat="27.962363" lon="-15.572962">
        <ele>1912.80</ele>
        <time>2018-06-22T18:38:15Z</time>
      </trkpt>
      <trkpt lat="27.962369" lon="-15.572990">
        <ele>1912.00</ele>
        <time>2018-06-22T18:38:17Z</time>
      </trkpt>
      <trkpt lat="27.962373" lon="-15.573019">
        <ele>1911.40</ele>
        <time>2018-06-22T18:38:19Z</time>
      </trkpt>
      <trkpt lat="27.962374" lon="-15.573046">
        <ele>1910.00</ele>
        <time>2018-06-22T18:38:22Z</time>
      </trkpt>
      <trkpt lat="27.962380" lon="-15.573074">
        <ele>1909.80</ele>
        <time>2018-06-22T18:38:26Z</time>
      </trkpt>
      <trkpt lat="27.962386" lon="-15.573101">
        <ele>1910.00</ele>
        <time>2018-06-22T18:38:29Z</time>
      </trkpt>
      <trkpt lat="27.962386" lon="-15.573126">
        <ele>1910.00</ele>
        <time>2018-06-22T18:38:31Z</time>
      </trkpt>
      <trkpt lat="27.962387" lon="-15.573148">
        <ele>1908.80</ele>
        <time>2018-06-22T18:38:33Z</time>
      </trkpt>
      <trkpt lat="27.962396" lon="-15.573166">
        <ele>1908.80</ele>
        <time>2018-06-22T18:38:35Z</time>
      </trkpt>
      <trkpt lat="27.962411" lon="-15.573183">
        <ele>1908.00</ele>
        <time>2018-06-22T18:38:37Z</time>
      </trkpt>
      <trkpt lat="27.962427" lon="-15.573200">
        <ele>1908.00</ele>
        <time>2018-06-22T18:38:39Z</time>
      </trkpt>
      <trkpt lat="27.962446" lon="-15.573219">
        <ele>1908.00</ele>
        <time>2018-06-22T18:38:41Z</time>
      </trkpt>
      <trkpt lat="27.962462" lon="-15.573243">
        <ele>1908.00</ele>
        <time>2018-06-22T18:38:43Z</time>
      </trkpt>
      <trkpt lat="27.962474" lon="-15.573272">
        <ele>1907.40</ele>
        <time>2018-06-22T18:38:45Z</time>
      </trkpt>
      <trkpt lat="27.962484" lon="-15.573302">
        <ele>1907.20</ele>
        <time>2018-06-22T18:38:47Z</time>
      </trkpt>
      <trkpt lat="27.962491" lon="-15.573327">
        <ele>1907.20</ele>
        <time>2018-06-22T18:38:50Z</time>
      </trkpt>
      <trkpt lat="27.962499" lon="-15.573346">
        <ele>1907.20</ele>
        <time>2018-06-22T18:38:52Z</time>
      </trkpt>
      <trkpt lat="27.962502" lon="-15.573367">
        <ele>1906.00</ele>
        <time>2018-06-22T18:38:55Z</time>
      </trkpt>
      <trkpt lat="27.962516" lon="-15.573386">
        <ele>1905.20</ele>
        <time>2018-06-22T18:38:58Z</time>
      </trkpt>
      <trkpt lat="27.962530" lon="-15.573406">
        <ele>1905.20</ele>
        <time>2018-06-22T18:39:00Z</time>
      </trkpt>
      <trkpt lat="27.962539" lon="-15.573431">
        <ele>1905.00</ele>
        <time>2018-06-22T18:39:02Z</time>
      </trkpt>
      <trkpt lat="27.962549" lon="-15.573452">
        <ele>1905.00</ele>
        <time>2018-06-22T18:39:04Z</time>
      </trkpt>
      <trkpt lat="27.962562" lon="-15.573479">
        <ele>1904.40</ele>
        <time>2018-06-22T18:39:07Z</time>
      </trkpt>
      <trkpt lat="27.962578" lon="-15.573502">
        <ele>1904.60</ele>
        <time>2018-06-22T18:39:09Z</time>
      </trkpt>
      <trkpt lat="27.962586" lon="-15.573528">
        <ele>1904.40</ele>
        <time>2018-06-22T18:39:11Z</time>
      </trkpt>
      <trkpt lat="27.962580" lon="-15.573562">
        <ele>1904.60</ele>
        <time>2018-06-22T18:39:13Z</time>
      </trkpt>
      <trkpt lat="27.962567" lon="-15.573586">
        <ele>1904.60</ele>
        <time>2018-06-22T18:39:15Z</time>
      </trkpt>
      <trkpt lat="27.962556" lon="-15.573612">
        <ele>1905.20</ele>
        <time>2018-06-22T18:39:17Z</time>
      </trkpt>
      <trkpt lat="27.962540" lon="-15.573641">
        <ele>1904.20</ele>
        <time>2018-06-22T18:39:19Z</time>
      </trkpt>
      <trkpt lat="27.962524" lon="-15.573670">
        <ele>1904.00</ele>
        <time>2018-06-22T18:39:22Z</time>
      </trkpt>
      <trkpt lat="27.962516" lon="-15.573695">
        <ele>1903.40</ele>
        <time>2018-06-22T18:39:24Z</time>
      </trkpt>
      <trkpt lat="27.962511" lon="-15.573718">
        <ele>1903.40</ele>
        <time>2018-06-22T18:39:26Z</time>
      </trkpt>
      <trkpt lat="27.962515" lon="-15.573740">
        <ele>1900.20</ele>
        <time>2018-06-22T18:39:29Z</time>
      </trkpt>
      <trkpt lat="27.962506" lon="-15.573759">
        <ele>1899.80</ele>
        <time>2018-06-22T18:39:32Z</time>
      </trkpt>
      <trkpt lat="27.962510" lon="-15.573786">
        <ele>1902.40</ele>
        <time>2018-06-22T18:39:35Z</time>
      </trkpt>
      <trkpt lat="27.962507" lon="-15.573811">
        <ele>1902.40</ele>
        <time>2018-06-22T18:39:37Z</time>
      </trkpt>
      <trkpt lat="27.962495" lon="-15.573830">
        <ele>1902.80</ele>
        <time>2018-06-22T18:39:39Z</time>
      </trkpt>
      <trkpt lat="27.962483" lon="-15.573855">
        <ele>1903.00</ele>
        <time>2018-06-22T18:39:41Z</time>
      </trkpt>
      <trkpt lat="27.962468" lon="-15.573873">
        <ele>1902.80</ele>
        <time>2018-06-22T18:39:43Z</time>
      </trkpt>
      <trkpt lat="27.962448" lon="-15.573876">
        <ele>1901.20</ele>
        <time>2018-06-22T18:39:45Z</time>
      </trkpt>
      <trkpt lat="27.962429" lon="-15.573879">
        <ele>1900.20</ele>
        <time>2018-06-22T18:39:47Z</time>
      </trkpt>
      <trkpt lat="27.962406" lon="-15.573877">
        <ele>1900.20</ele>
        <time>2018-06-22T18:39:50Z</time>
      </trkpt>
      <trkpt lat="27.962384" lon="-15.573879">
        <ele>1898.60</ele>
        <time>2018-06-22T18:39:53Z</time>
      </trkpt>
      <trkpt lat="27.962377" lon="-15.573902">
        <ele>1897.80</ele>
        <time>2018-06-22T18:39:55Z</time>
      </trkpt>
      <trkpt lat="27.962373" lon="-15.573926">
        <ele>1897.40</ele>
        <time>2018-06-22T18:39:57Z</time>
      </trkpt>
      <trkpt lat="27.962367" lon="-15.573953">
        <ele>1897.20</ele>
        <time>2018-06-22T18:39:59Z</time>
      </trkpt>
      <trkpt lat="27.962366" lon="-15.573982">
        <ele>1896.60</ele>
        <time>2018-06-22T18:40:01Z</time>
      </trkpt>
      <trkpt lat="27.962362" lon="-15.574004">
        <ele>1897.00</ele>
        <time>2018-06-22T18:40:03Z</time>
      </trkpt>
      <trkpt lat="27.962358" lon="-15.574028">
        <ele>1897.00</ele>
        <time>2018-06-22T18:40:05Z</time>
      </trkpt>
      <trkpt lat="27.962350" lon="-15.574052">
        <ele>1897.00</ele>
        <time>2018-06-22T18:40:07Z</time>
      </trkpt>
      <trkpt lat="27.962344" lon="-15.574080">
        <ele>1895.80</ele>
        <time>2018-06-22T18:40:10Z</time>
      </trkpt>
      <trkpt lat="27.962350" lon="-15.574101">
        <ele>1895.20</ele>
        <time>2018-06-22T18:40:12Z</time>
      </trkpt>
      <trkpt lat="27.962343" lon="-15.574123">
        <ele>1895.20</ele>
        <time>2018-06-22T18:40:14Z</time>
      </trkpt>
      <trkpt lat="27.962335" lon="-15.574144">
        <ele>1895.00</ele>
        <time>2018-06-22T18:40:16Z</time>
      </trkpt>
      <trkpt lat="27.962323" lon="-15.574164">
        <ele>1895.20</ele>
        <time>2018-06-22T18:40:18Z</time>
      </trkpt>
      <trkpt lat="27.962314" lon="-15.574186">
        <ele>1895.00</ele>
        <time>2018-06-22T18:40:21Z</time>
      </trkpt>
      <trkpt lat="27.962317" lon="-15.574210">
        <ele>1894.80</ele>
        <time>2018-06-22T18:40:23Z</time>
      </trkpt>
      <trkpt lat="27.962326" lon="-15.574237">
        <ele>1893.00</ele>
        <time>2018-06-22T18:40:25Z</time>
      </trkpt>
      <trkpt lat="27.962337" lon="-15.574262">
        <ele>1892.80</ele>
        <time>2018-06-22T18:40:27Z</time>
      </trkpt>
      <trkpt lat="27.962349" lon="-15.574281">
        <ele>1892.20</ele>
        <time>2018-06-22T18:40:29Z</time>
      </trkpt>
      <trkpt lat="27.962368" lon="-15.574301">
        <ele>1891.20</ele>
        <time>2018-06-22T18:40:31Z</time>
      </trkpt>
      <trkpt lat="27.962382" lon="-15.574325">
        <ele>1891.20</ele>
        <time>2018-06-22T18:40:33Z</time>
      </trkpt>
      <trkpt lat="27.962393" lon="-15.574343">
        <ele>1891.20</ele>
        <time>2018-06-22T18:40:35Z</time>
      </trkpt>
      <trkpt lat="27.962397" lon="-15.574369">
        <ele>1891.20</ele>
        <time>2018-06-22T18:40:37Z</time>
      </trkpt>
      <trkpt lat="27.962398" lon="-15.574397">
        <ele>1891.20</ele>
        <time>2018-06-22T18:40:39Z</time>
      </trkpt>
      <trkpt lat="27.962397" lon="-15.574421">
        <ele>1891.20</ele>
        <time>2018-06-22T18:40:41Z</time>
      </trkpt>
      <trkpt lat="27.962393" lon="-15.574444">
        <ele>1890.00</ele>
        <time>2018-06-22T18:40:43Z</time>
      </trkpt>
      <trkpt lat="27.962396" lon="-15.574469">
        <ele>1890.00</ele>
        <time>2018-06-22T18:40:45Z</time>
      </trkpt>
      <trkpt lat="27.962396" lon="-15.574499">
        <ele>1889.00</ele>
        <time>2018-06-22T18:40:47Z</time>
      </trkpt>
      <trkpt lat="27.962392" lon="-15.574523">
        <ele>1889.00</ele>
        <time>2018-06-22T18:40:49Z</time>
      </trkpt>
      <trkpt lat="27.962391" lon="-15.574546">
        <ele>1888.80</ele>
        <time>2018-06-22T18:40:51Z</time>
      </trkpt>
      <trkpt lat="27.962394" lon="-15.574572">
        <ele>1889.60</ele>
        <time>2018-06-22T18:40:53Z</time>
      </trkpt>
      <trkpt lat="27.962398" lon="-15.574596">
        <ele>1888.80</ele>
        <time>2018-06-22T18:40:55Z</time>
      </trkpt>
      <trkpt lat="27.962398" lon="-15.574621">
        <ele>1889.40</ele>
        <time>2018-06-22T18:40:57Z</time>
      </trkpt>
      <trkpt lat="27.962401" lon="-15.574643">
        <ele>1887.80</ele>
        <time>2018-06-22T18:40:59Z</time>
      </trkpt>
      <trkpt lat="27.962408" lon="-15.574672">
        <ele>1887.80</ele>
        <time>2018-06-22T18:41:02Z</time>
      </trkpt>
      <trkpt lat="27.962421" lon="-15.574691">
        <ele>1887.80</ele>
        <time>2018-06-22T18:41:04Z</time>
      </trkpt>
      <trkpt lat="27.962437" lon="-15.574713">
        <ele>1887.80</ele>
        <time>2018-06-22T18:41:06Z</time>
      </trkpt>
      <trkpt lat="27.962444" lon="-15.574742">
        <ele>1888.00</ele>
        <time>2018-06-22T18:41:08Z</time>
      </trkpt>
      <trkpt lat="27.962442" lon="-15.574767">
        <ele>1886.40</ele>
        <time>2018-06-22T18:41:10Z</time>
      </trkpt>
      <trkpt lat="27.962440" lon="-15.574790">
        <ele>1886.00</ele>
        <time>2018-06-22T18:41:12Z</time>
      </trkpt>
      <trkpt lat="27.962441" lon="-15.574820">
        <ele>1885.80</ele>
        <time>2018-06-22T18:41:14Z</time>
      </trkpt>
      <trkpt lat="27.962443" lon="-15.574843">
        <ele>1885.40</ele>
        <time>2018-06-22T18:41:16Z</time>
      </trkpt>
      <trkpt lat="27.962446" lon="-15.574872">
        <ele>1883.40</ele>
        <time>2018-06-22T18:41:18Z</time>
      </trkpt>
      <trkpt lat="27.962441" lon="-15.574899">
        <ele>1883.40</ele>
        <time>2018-06-22T18:41:20Z</time>
      </trkpt>
      <trkpt lat="27.962444" lon="-15.574922">
        <ele>1883.40</ele>
        <time>2018-06-22T18:41:22Z</time>
      </trkpt>
      <trkpt lat="27.962440" lon="-15.574952">
        <ele>1884.00</ele>
        <time>2018-06-22T18:41:25Z</time>
      </trkpt>
      <trkpt lat="27.962442" lon="-15.574977">
        <ele>1886.00</ele>
        <time>2018-06-22T18:41:28Z</time>
      </trkpt>
      <trkpt lat="27.962443" lon="-15.575008">
        <ele>1886.20</ele>
        <time>2018-06-22T18:41:30Z</time>
      </trkpt>
      <trkpt lat="27.962452" lon="-15.575041">
        <ele>1886.20</ele>
        <time>2018-06-22T18:41:32Z</time>
      </trkpt>
      <trkpt lat="27.962452" lon="-15.575070">
        <ele>1886.00</ele>
        <time>2018-06-22T18:41:34Z</time>
      </trkpt>
      <trkpt lat="27.962445" lon="-15.575097">
        <ele>1885.60</ele>
        <time>2018-06-22T18:41:36Z</time>
      </trkpt>
      <trkpt lat="27.962433" lon="-15.575120">
        <ele>1885.00</ele>
        <time>2018-06-22T18:41:38Z</time>
      </trkpt>
      <trkpt lat="27.962422" lon="-15.575146">
        <ele>1884.80</ele>
        <time>2018-06-22T18:41:40Z</time>
      </trkpt>
      <trkpt lat="27.962408" lon="-15.575171">
        <ele>1884.00</ele>
        <time>2018-06-22T18:41:44Z</time>
      </trkpt>
      <trkpt lat="27.962418" lon="-15.575193">
        <ele>1883.60</ele>
        <time>2018-06-22T18:41:47Z</time>
      </trkpt>
      <trkpt lat="27.962420" lon="-15.575218">
        <ele>1883.00</ele>
        <time>2018-06-22T18:41:49Z</time>
      </trkpt>
      <trkpt lat="27.962413" lon="-15.575238">
        <ele>1883.00</ele>
        <time>2018-06-22T18:41:51Z</time>
      </trkpt>
      <trkpt lat="27.962406" lon="-15.575258">
        <ele>1883.40</ele>
        <time>2018-06-22T18:41:53Z</time>
      </trkpt>
      <trkpt lat="27.962397" lon="-15.575282">
        <ele>1883.00</ele>
        <time>2018-06-22T18:41:55Z</time>
      </trkpt>
      <trkpt lat="27.962390" lon="-15.575308">
        <ele>1881.80</ele>
        <time>2018-06-22T18:41:58Z</time>
      </trkpt>
      <trkpt lat="27.962386" lon="-15.575333">
        <ele>1881.60</ele>
        <time>2018-06-22T18:42:00Z</time>
      </trkpt>
      <trkpt lat="27.962384" lon="-15.575354">
        <ele>1881.40</ele>
        <time>2018-06-22T18:42:02Z</time>
      </trkpt>
      <trkpt lat="27.962391" lon="-15.575382">
        <ele>1880.80</ele>
        <time>2018-06-22T18:42:05Z</time>
      </trkpt>
      <trkpt lat="27.962382" lon="-15.575403">
        <ele>1880.20</ele>
        <time>2018-06-22T18:42:08Z</time>
      </trkpt>
      <trkpt lat="27.962379" lon="-15.575423">
        <ele>1880.00</ele>
        <time>2018-06-22T18:42:10Z</time>
      </trkpt>
      <trkpt lat="27.962378" lon="-15.575452">
        <ele>1879.20</ele>
        <time>2018-06-22T18:42:13Z</time>
      </trkpt>
      <trkpt lat="27.962370" lon="-15.575477">
        <ele>1878.20</ele>
        <time>2018-06-22T18:42:16Z</time>
      </trkpt>
      <trkpt lat="27.962360" lon="-15.575497">
        <ele>1878.00</ele>
        <time>2018-06-22T18:42:19Z</time>
      </trkpt>
      <trkpt lat="27.962354" lon="-15.575520">
        <ele>1878.00</ele>
        <time>2018-06-22T18:42:21Z</time>
      </trkpt>
      <trkpt lat="27.962354" lon="-15.575548">
        <ele>1877.60</ele>
        <time>2018-06-22T18:42:24Z</time>
      </trkpt>
      <trkpt lat="27.962353" lon="-15.575574">
        <ele>1876.40</ele>
        <time>2018-06-22T18:42:27Z</time>
      </trkpt>
      <trkpt lat="27.962345" lon="-15.575597">
        <ele>1876.40</ele>
        <time>2018-06-22T18:42:30Z</time>
      </trkpt>
      <trkpt lat="27.962346" lon="-15.575619">
        <ele>1875.80</ele>
        <time>2018-06-22T18:42:32Z</time>
      </trkpt>
      <trkpt lat="27.962338" lon="-15.575644">
        <ele>1875.80</ele>
        <time>2018-06-22T18:42:34Z</time>
      </trkpt>
      <trkpt lat="27.962336" lon="-15.575664">
        <ele>1875.40</ele>
        <time>2018-06-22T18:42:36Z</time>
      </trkpt>
      <trkpt lat="27.962335" lon="-15.575685">
        <ele>1875.00</ele>
        <time>2018-06-22T18:42:38Z</time>
      </trkpt>
      <trkpt lat="27.962334" lon="-15.575712">
        <ele>1874.60</ele>
        <time>2018-06-22T18:42:40Z</time>
      </trkpt>
      <trkpt lat="27.962325" lon="-15.575742">
        <ele>1874.20</ele>
        <time>2018-06-22T18:42:43Z</time>
      </trkpt>
      <trkpt lat="27.962320" lon="-15.575768">
        <ele>1874.00</ele>
        <time>2018-06-22T18:42:46Z</time>
      </trkpt>
      <trkpt lat="27.962318" lon="-15.575790">
        <ele>1874.00</ele>
        <time>2018-06-22T18:42:49Z</time>
      </trkpt>
      <trkpt lat="27.962315" lon="-15.575811">
        <ele>1873.80</ele>
        <time>2018-06-22T18:42:51Z</time>
      </trkpt>
      <trkpt lat="27.962306" lon="-15.575840">
        <ele>1873.40</ele>
        <time>2018-06-22T18:42:53Z</time>
      </trkpt>
      <trkpt lat="27.962297" lon="-15.575863">
        <ele>1872.60</ele>
        <time>2018-06-22T18:42:55Z</time>
      </trkpt>
      <trkpt lat="27.962296" lon="-15.575886">
        <ele>1872.60</ele>
        <time>2018-06-22T18:42:57Z</time>
      </trkpt>
      <trkpt lat="27.962297" lon="-15.575916">
        <ele>1872.60</ele>
        <time>2018-06-22T18:42:59Z</time>
      </trkpt>
      <trkpt lat="27.962279" lon="-15.575940">
        <ele>1872.00</ele>
        <time>2018-06-22T18:43:02Z</time>
      </trkpt>
      <trkpt lat="27.962263" lon="-15.575951">
        <ele>1871.80</ele>
        <time>2018-06-22T18:43:05Z</time>
      </trkpt>
      <trkpt lat="27.962242" lon="-15.575950">
        <ele>1870.20</ele>
        <time>2018-06-22T18:43:10Z</time>
      </trkpt>
      <trkpt lat="27.962232" lon="-15.575968">
        <ele>1869.80</ele>
        <time>2018-06-22T18:43:12Z</time>
      </trkpt>
      <trkpt lat="27.962231" lon="-15.575991">
        <ele>1869.60</ele>
        <time>2018-06-22T18:43:14Z</time>
      </trkpt>
      <trkpt lat="27.962223" lon="-15.576010">
        <ele>1869.00</ele>
        <time>2018-06-22T18:43:16Z</time>
      </trkpt>
      <trkpt lat="27.962206" lon="-15.576024">
        <ele>1868.60</ele>
        <time>2018-06-22T18:43:19Z</time>
      </trkpt>
      <trkpt lat="27.962189" lon="-15.576035">
        <ele>1867.80</ele>
        <time>2018-06-22T18:43:23Z</time>
      </trkpt>
      <trkpt lat="27.962170" lon="-15.576042">
        <ele>1866.60</ele>
        <time>2018-06-22T18:43:28Z</time>
      </trkpt>
      <trkpt lat="27.962148" lon="-15.576053">
        <ele>1866.40</ele>
        <time>2018-06-22T18:43:31Z</time>
      </trkpt>
      <trkpt lat="27.962133" lon="-15.576066">
        <ele>1866.20</ele>
        <time>2018-06-22T18:43:33Z</time>
      </trkpt>
      <trkpt lat="27.962115" lon="-15.576085">
        <ele>1865.40</ele>
        <time>2018-06-22T18:43:36Z</time>
      </trkpt>
      <trkpt lat="27.962100" lon="-15.576108">
        <ele>1865.00</ele>
        <time>2018-06-22T18:43:39Z</time>
      </trkpt>
      <trkpt lat="27.962081" lon="-15.576125">
        <ele>1864.20</ele>
        <time>2018-06-22T18:43:42Z</time>
      </trkpt>
      <trkpt lat="27.962072" lon="-15.576148">
        <ele>1863.60</ele>
        <time>2018-06-22T18:43:46Z</time>
      </trkpt>
      <trkpt lat="27.962058" lon="-15.576164">
        <ele>1862.80</ele>
        <time>2018-06-22T18:43:49Z</time>
      </trkpt>
      <trkpt lat="27.962044" lon="-15.576177">
        <ele>1862.40</ele>
        <time>2018-06-22T18:43:52Z</time>
      </trkpt>
      <trkpt lat="27.962025" lon="-15.576186">
        <ele>1861.60</ele>
        <time>2018-06-22T18:43:55Z</time>
      </trkpt>
      <trkpt lat="27.962005" lon="-15.576201">
        <ele>1861.20</ele>
        <time>2018-06-22T18:43:58Z</time>
      </trkpt>
      <trkpt lat="27.961986" lon="-15.576206">
        <ele>1861.00</ele>
        <time>2018-06-22T18:44:00Z</time>
      </trkpt>
      <trkpt lat="27.961965" lon="-15.576220">
        <ele>1860.60</ele>
        <time>2018-06-22T18:44:03Z</time>
      </trkpt>
      <trkpt lat="27.961950" lon="-15.576233">
        <ele>1858.80</ele>
        <time>2018-06-22T18:44:08Z</time>
      </trkpt>
      <trkpt lat="27.961931" lon="-15.576251">
        <ele>1858.60</ele>
        <time>2018-06-22T18:44:11Z</time>
      </trkpt>
      <trkpt lat="27.961911" lon="-15.576269">
        <ele>1858.00</ele>
        <time>2018-06-22T18:44:14Z</time>
      </trkpt>
      <trkpt lat="27.961899" lon="-15.576291">
        <ele>1857.80</ele>
        <time>2018-06-22T18:44:17Z</time>
      </trkpt>
      <trkpt lat="27.961879" lon="-15.576307">
        <ele>1857.20</ele>
        <time>2018-06-22T18:44:20Z</time>
      </trkpt>
      <trkpt lat="27.961859" lon="-15.576322">
        <ele>1857.00</ele>
        <time>2018-06-22T18:44:23Z</time>
      </trkpt>
      <trkpt lat="27.961852" lon="-15.576343">
        <ele>1854.80</ele>
        <time>2018-06-22T18:44:25Z</time>
      </trkpt>
      <trkpt lat="27.961846" lon="-15.576371">
        <ele>1854.60</ele>
        <time>2018-06-22T18:44:28Z</time>
      </trkpt>
      <trkpt lat="27.961841" lon="-15.576394">
        <ele>1854.60</ele>
        <time>2018-06-22T18:44:30Z</time>
      </trkpt>
      <trkpt lat="27.961826" lon="-15.576411">
        <ele>1854.80</ele>
        <time>2018-06-22T18:44:32Z</time>
      </trkpt>
      <trkpt lat="27.961813" lon="-15.576426">
        <ele>1854.80</ele>
        <time>2018-06-22T18:44:34Z</time>
      </trkpt>
      <trkpt lat="27.961799" lon="-15.576444">
        <ele>1854.80</ele>
        <time>2018-06-22T18:44:36Z</time>
      </trkpt>
      <trkpt lat="27.961790" lon="-15.576464">
        <ele>1854.60</ele>
        <time>2018-06-22T18:44:38Z</time>
      </trkpt>
      <trkpt lat="27.961776" lon="-15.576486">
        <ele>1854.40</ele>
        <time>2018-06-22T18:44:40Z</time>
      </trkpt>
      <trkpt lat="27.961752" lon="-15.576499">
        <ele>1853.60</ele>
        <time>2018-06-22T18:44:42Z</time>
      </trkpt>
      <trkpt lat="27.961734" lon="-15.576507">
        <ele>1853.40</ele>
        <time>2018-06-22T18:44:44Z</time>
      </trkpt>
      <trkpt lat="27.961718" lon="-15.576520">
        <ele>1853.00</ele>
        <time>2018-06-22T18:44:46Z</time>
      </trkpt>
      <trkpt lat="27.961701" lon="-15.576535">
        <ele>1851.60</ele>
        <time>2018-06-22T18:44:49Z</time>
      </trkpt>
      <trkpt lat="27.961690" lon="-15.576556">
        <ele>1851.60</ele>
        <time>2018-06-22T18:44:52Z</time>
      </trkpt>
      <trkpt lat="27.961674" lon="-15.576566">
        <ele>1851.00</ele>
        <time>2018-06-22T18:44:55Z</time>
      </trkpt>
      <trkpt lat="27.961653" lon="-15.576575">
        <ele>1850.00</ele>
        <time>2018-06-22T18:44:58Z</time>
      </trkpt>
      <trkpt lat="27.961631" lon="-15.576589">
        <ele>1850.00</ele>
        <time>2018-06-22T18:45:02Z</time>
      </trkpt>
      <trkpt lat="27.961613" lon="-15.576587">
        <ele>1849.20</ele>
        <time>2018-06-22T18:45:05Z</time>
      </trkpt>
      <trkpt lat="27.961602" lon="-15.576606">
        <ele>1848.00</ele>
        <time>2018-06-22T18:45:10Z</time>
      </trkpt>
      <trkpt lat="27.961600" lon="-15.576627">
        <ele>1847.00</ele>
        <time>2018-06-22T18:45:13Z</time>
      </trkpt>
      <trkpt lat="27.961581" lon="-15.576643">
        <ele>1846.00</ele>
        <time>2018-06-22T18:45:16Z</time>
      </trkpt>
      <trkpt lat="27.961566" lon="-15.576662">
        <ele>1846.40</ele>
        <time>2018-06-22T18:45:19Z</time>
      </trkpt>
      <trkpt lat="27.961551" lon="-15.576678">
        <ele>1846.40</ele>
        <time>2018-06-22T18:45:22Z</time>
      </trkpt>
      <trkpt lat="27.961534" lon="-15.576685">
        <ele>1845.20</ele>
        <time>2018-06-22T18:45:25Z</time>
      </trkpt>
      <trkpt lat="27.961528" lon="-15.576705">
        <ele>1844.60</ele>
        <time>2018-06-22T18:45:28Z</time>
      </trkpt>
      <trkpt lat="27.961519" lon="-15.576734">
        <ele>1843.60</ele>
        <time>2018-06-22T18:45:31Z</time>
      </trkpt>
      <trkpt lat="27.961516" lon="-15.576758">
        <ele>1842.60</ele>
        <time>2018-06-22T18:45:35Z</time>
      </trkpt>
      <trkpt lat="27.961522" lon="-15.576780">
        <ele>1841.60</ele>
        <time>2018-06-22T18:45:39Z</time>
      </trkpt>
      <trkpt lat="27.961513" lon="-15.576805">
        <ele>1840.60</ele>
        <time>2018-06-22T18:45:42Z</time>
      </trkpt>
      <trkpt lat="27.961505" lon="-15.576824">
        <ele>1839.80</ele>
        <time>2018-06-22T18:45:45Z</time>
      </trkpt>
      <trkpt lat="27.961500" lon="-15.576844">
        <ele>1839.20</ele>
        <time>2018-06-22T18:45:48Z</time>
      </trkpt>
      <trkpt lat="27.961502" lon="-15.576871">
        <ele>1838.00</ele>
        <time>2018-06-22T18:45:51Z</time>
      </trkpt>
      <trkpt lat="27.961490" lon="-15.576897">
        <ele>1837.80</ele>
        <time>2018-06-22T18:45:55Z</time>
      </trkpt>
      <trkpt lat="27.961472" lon="-15.576911">
        <ele>1837.60</ele>
        <time>2018-06-22T18:45:57Z</time>
      </trkpt>
      <trkpt lat="27.961463" lon="-15.576931">
        <ele>1836.20</ele>
        <time>2018-06-22T18:46:00Z</time>
      </trkpt>
      <trkpt lat="27.961448" lon="-15.576952">
        <ele>1836.00</ele>
        <time>2018-06-22T18:46:03Z</time>
      </trkpt>
      <trkpt lat="27.961436" lon="-15.576972">
        <ele>1835.40</ele>
        <time>2018-06-22T18:46:06Z</time>
      </trkpt>
      <trkpt lat="27.961415" lon="-15.576981">
        <ele>1834.00</ele>
        <time>2018-06-22T18:46:09Z</time>
      </trkpt>
      <trkpt lat="27.961401" lon="-15.576996">
        <ele>1833.20</ele>
        <time>2018-06-22T18:46:12Z</time>
      </trkpt>
      <trkpt lat="27.961392" lon="-15.577018">
        <ele>1833.20</ele>
        <time>2018-06-22T18:46:16Z</time>
      </trkpt>
      <trkpt lat="27.961384" lon="-15.577037">
        <ele>1833.00</ele>
        <time>2018-06-22T18:46:19Z</time>
      </trkpt>
      <trkpt lat="27.961364" lon="-15.577052">
        <ele>1832.60</ele>
        <time>2018-06-22T18:46:22Z</time>
      </trkpt>
      <trkpt lat="27.961352" lon="-15.577074">
        <ele>1831.80</ele>
        <time>2018-06-22T18:46:25Z</time>
      </trkpt>
      <trkpt lat="27.961347" lon="-15.577101">
        <ele>1830.80</ele>
        <time>2018-06-22T18:46:28Z</time>
      </trkpt>
      <trkpt lat="27.961334" lon="-15.577122">
        <ele>1830.00</ele>
        <time>2018-06-22T18:46:31Z</time>
      </trkpt>
      <trkpt lat="27.961321" lon="-15.577146">
        <ele>1828.80</ele>
        <time>2018-06-22T18:46:34Z</time>
      </trkpt>
      <trkpt lat="27.961307" lon="-15.577159">
        <ele>1828.40</ele>
        <time>2018-06-22T18:46:36Z</time>
      </trkpt>
      <trkpt lat="27.961288" lon="-15.577176">
        <ele>1828.00</ele>
        <time>2018-06-22T18:46:39Z</time>
      </trkpt>
      <trkpt lat="27.961276" lon="-15.577202">
        <ele>1827.20</ele>
        <time>2018-06-22T18:46:42Z</time>
      </trkpt>
      <trkpt lat="27.961270" lon="-15.577226">
        <ele>1827.00</ele>
        <time>2018-06-22T18:46:44Z</time>
      </trkpt>
      <trkpt lat="27.961264" lon="-15.577247">
        <ele>1825.40</ele>
        <time>2018-06-22T18:46:46Z</time>
      </trkpt>
      <trkpt lat="27.961264" lon="-15.577268">
        <ele>1824.80</ele>
        <time>2018-06-22T18:46:48Z</time>
      </trkpt>
      <trkpt lat="27.961258" lon="-15.577295">
        <ele>1824.40</ele>
        <time>2018-06-22T18:46:51Z</time>
      </trkpt>
      <trkpt lat="27.961244" lon="-15.577314">
        <ele>1823.80</ele>
        <time>2018-06-22T18:46:53Z</time>
      </trkpt>
      <trkpt lat="27.961221" lon="-15.577324">
        <ele>1823.00</ele>
        <time>2018-06-22T18:46:56Z</time>
      </trkpt>
      <trkpt lat="27.961204" lon="-15.577332">
        <ele>1822.80</ele>
        <time>2018-06-22T18:46:58Z</time>
      </trkpt>
      <trkpt lat="27.961186" lon="-15.577339">
        <ele>1822.40</ele>
        <time>2018-06-22T18:47:00Z</time>
      </trkpt>
      <trkpt lat="27.961170" lon="-15.577349">
        <ele>1822.00</ele>
        <time>2018-06-22T18:47:02Z</time>
      </trkpt>
      <trkpt lat="27.961150" lon="-15.577355">
        <ele>1821.60</ele>
        <time>2018-06-22T18:47:04Z</time>
      </trkpt>
      <trkpt lat="27.961127" lon="-15.577366">
        <ele>1822.40</ele>
        <time>2018-06-22T18:47:07Z</time>
      </trkpt>
      <trkpt lat="27.961110" lon="-15.577375">
        <ele>1822.40</ele>
        <time>2018-06-22T18:47:09Z</time>
      </trkpt>
      <trkpt lat="27.961091" lon="-15.577383">
        <ele>1822.60</ele>
        <time>2018-06-22T18:47:11Z</time>
      </trkpt>
      <trkpt lat="27.961072" lon="-15.577387">
        <ele>1822.40</ele>
        <time>2018-06-22T18:47:13Z</time>
      </trkpt>
      <trkpt lat="27.961052" lon="-15.577401">
        <ele>1822.00</ele>
        <time>2018-06-22T18:47:15Z</time>
      </trkpt>
      <trkpt lat="27.961032" lon="-15.577422">
        <ele>1821.80</ele>
        <time>2018-06-22T18:47:18Z</time>
      </trkpt>
      <trkpt lat="27.961039" lon="-15.577442">
        <ele>1820.60</ele>
        <time>2018-06-22T18:47:21Z</time>
      </trkpt>
      <trkpt lat="27.961064" lon="-15.577456">
        <ele>1820.60</ele>
        <time>2018-06-22T18:47:23Z</time>
      </trkpt>
      <trkpt lat="27.961086" lon="-15.577458">
        <ele>1820.60</ele>
        <time>2018-06-22T18:47:25Z</time>
      </trkpt>
      <trkpt lat="27.961107" lon="-15.577460">
        <ele>1820.40</ele>
        <time>2018-06-22T18:47:27Z</time>
      </trkpt>
      <trkpt lat="27.961134" lon="-15.577470">
        <ele>1820.20</ele>
        <time>2018-06-22T18:47:29Z</time>
      </trkpt>
      <trkpt lat="27.961161" lon="-15.577473">
        <ele>1819.60</ele>
        <time>2018-06-22T18:47:31Z</time>
      </trkpt>
      <trkpt lat="27.961186" lon="-15.577479">
        <ele>1819.60</ele>
        <time>2018-06-22T18:47:33Z</time>
      </trkpt>
      <trkpt lat="27.961211" lon="-15.577489">
        <ele>1819.40</ele>
        <time>2018-06-22T18:47:35Z</time>
      </trkpt>
      <trkpt lat="27.961234" lon="-15.577498">
        <ele>1819.40</ele>
        <time>2018-06-22T18:47:37Z</time>
      </trkpt>
      <trkpt lat="27.961256" lon="-15.577498">
        <ele>1819.40</ele>
        <time>2018-06-22T18:47:39Z</time>
      </trkpt>
      <trkpt lat="27.961277" lon="-15.577504">
        <ele>1819.40</ele>
        <time>2018-06-22T18:47:41Z</time>
      </trkpt>
      <trkpt lat="27.961297" lon="-15.577509">
        <ele>1819.40</ele>
        <time>2018-06-22T18:47:43Z</time>
      </trkpt>
      <trkpt lat="27.961317" lon="-15.577516">
        <ele>1819.20</ele>
        <time>2018-06-22T18:47:45Z</time>
      </trkpt>
      <trkpt lat="27.961341" lon="-15.577523">
        <ele>1818.60</ele>
        <time>2018-06-22T18:47:47Z</time>
      </trkpt>
      <trkpt lat="27.961362" lon="-15.577521">
        <ele>1818.60</ele>
        <time>2018-06-22T18:47:49Z</time>
      </trkpt>
      <trkpt lat="27.961385" lon="-15.577524">
        <ele>1818.00</ele>
        <time>2018-06-22T18:47:51Z</time>
      </trkpt>
      <trkpt lat="27.961406" lon="-15.577524">
        <ele>1818.00</ele>
        <time>2018-06-22T18:47:53Z</time>
      </trkpt>
      <trkpt lat="27.961424" lon="-15.577526">
        <ele>1817.00</ele>
        <time>2018-06-22T18:47:55Z</time>
      </trkpt>
      <trkpt lat="27.961444" lon="-15.577524">
        <ele>1817.00</ele>
        <time>2018-06-22T18:47:57Z</time>
      </trkpt>
      <trkpt lat="27.961472" lon="-15.577519">
        <ele>1817.00</ele>
        <time>2018-06-22T18:48:00Z</time>
      </trkpt>
      <trkpt lat="27.961492" lon="-15.577516">
        <ele>1816.40</ele>
        <time>2018-06-22T18:48:02Z</time>
      </trkpt>
      <trkpt lat="27.961514" lon="-15.577516">
        <ele>1816.00</ele>
        <time>2018-06-22T18:48:04Z</time>
      </trkpt>
      <trkpt lat="27.961538" lon="-15.577522">
        <ele>1815.40</ele>
        <time>2018-06-22T18:48:06Z</time>
      </trkpt>
      <trkpt lat="27.961557" lon="-15.577538">
        <ele>1814.80</ele>
        <time>2018-06-22T18:48:09Z</time>
      </trkpt>
      <trkpt lat="27.961576" lon="-15.577549">
        <ele>1814.20</ele>
        <time>2018-06-22T18:48:12Z</time>
      </trkpt>
      <trkpt lat="27.961597" lon="-15.577558">
        <ele>1814.20</ele>
        <time>2018-06-22T18:48:15Z</time>
      </trkpt>
      <trkpt lat="27.961618" lon="-15.577572">
        <ele>1813.00</ele>
        <time>2018-06-22T18:48:18Z</time>
      </trkpt>
      <trkpt lat="27.961638" lon="-15.577583">
        <ele>1812.40</ele>
        <time>2018-06-22T18:48:21Z</time>
      </trkpt>
      <trkpt lat="27.961658" lon="-15.577591">
        <ele>1811.80</ele>
        <time>2018-06-22T18:48:24Z</time>
      </trkpt>
      <trkpt lat="27.961676" lon="-15.577601">
        <ele>1811.60</ele>
        <time>2018-06-22T18:48:26Z</time>
      </trkpt>
      <trkpt lat="27.961696" lon="-15.577613">
        <ele>1811.40</ele>
        <time>2018-06-22T18:48:28Z</time>
      </trkpt>
      <trkpt lat="27.961706" lon="-15.577641">
        <ele>1810.20</ele>
        <time>2018-06-22T18:48:31Z</time>
      </trkpt>
      <trkpt lat="27.961714" lon="-15.577668">
        <ele>1810.00</ele>
        <time>2018-06-22T18:48:35Z</time>
      </trkpt>
      <trkpt lat="27.961718" lon="-15.577690">
        <ele>1808.80</ele>
        <time>2018-06-22T18:48:38Z</time>
      </trkpt>
      <trkpt lat="27.961713" lon="-15.577713">
        <ele>1807.00</ele>
        <time>2018-06-22T18:48:42Z</time>
      </trkpt>
      <trkpt lat="27.961708" lon="-15.577742">
        <ele>1806.80</ele>
        <time>2018-06-22T18:48:45Z</time>
      </trkpt>
      <trkpt lat="27.961688" lon="-15.577749">
        <ele>1806.20</ele>
        <time>2018-06-22T18:48:49Z</time>
      </trkpt>
      <trkpt lat="27.961679" lon="-15.577770">
        <ele>1805.40</ele>
        <time>2018-06-22T18:48:55Z</time>
      </trkpt>
      <trkpt lat="27.961700" lon="-15.577785">
        <ele>1804.80</ele>
        <time>2018-06-22T18:48:58Z</time>
      </trkpt>
      <trkpt lat="27.961692" lon="-15.577807">
        <ele>1804.20</ele>
        <time>2018-06-22T18:49:01Z</time>
      </trkpt>
      <trkpt lat="27.961682" lon="-15.577825">
        <ele>1803.80</ele>
        <time>2018-06-22T18:49:05Z</time>
      </trkpt>
      <trkpt lat="27.961682" lon="-15.577849">
        <ele>1802.40</ele>
        <time>2018-06-22T18:49:12Z</time>
      </trkpt>
      <trkpt lat="27.961683" lon="-15.577873">
        <ele>1801.40</ele>
        <time>2018-06-22T18:49:15Z</time>
      </trkpt>
      <trkpt lat="27.961679" lon="-15.577897">
        <ele>1800.60</ele>
        <time>2018-06-22T18:49:18Z</time>
      </trkpt>
      <trkpt lat="27.961682" lon="-15.577923">
        <ele>1800.40</ele>
        <time>2018-06-22T18:49:22Z</time>
      </trkpt>
      <trkpt lat="27.961692" lon="-15.577943">
        <ele>1799.60</ele>
        <time>2018-06-22T18:49:25Z</time>
      </trkpt>
      <trkpt lat="27.961696" lon="-15.577972">
        <ele>1798.20</ele>
        <time>2018-06-22T18:49:28Z</time>
      </trkpt>
      <trkpt lat="27.961697" lon="-15.577994">
        <ele>1797.60</ele>
        <time>2018-06-22T18:49:30Z</time>
      </trkpt>
      <trkpt lat="27.961697" lon="-15.578023">
        <ele>1797.40</ele>
        <time>2018-06-22T18:49:32Z</time>
      </trkpt>
      <trkpt lat="27.961688" lon="-15.578048">
        <ele>1796.60</ele>
        <time>2018-06-22T18:49:34Z</time>
      </trkpt>
      <trkpt lat="27.961678" lon="-15.578067">
        <ele>1796.20</ele>
        <time>2018-06-22T18:49:36Z</time>
      </trkpt>
      <trkpt lat="27.961663" lon="-15.578090">
        <ele>1796.00</ele>
        <time>2018-06-22T18:49:40Z</time>
      </trkpt>
      <trkpt lat="27.961662" lon="-15.578118">
        <ele>1795.00</ele>
        <time>2018-06-22T18:49:42Z</time>
      </trkpt>
      <trkpt lat="27.961657" lon="-15.578141">
        <ele>1794.40</ele>
        <time>2018-06-22T18:49:44Z</time>
      </trkpt>
      <trkpt lat="27.961648" lon="-15.578168">
        <ele>1793.20</ele>
        <time>2018-06-22T18:49:47Z</time>
      </trkpt>
      <trkpt lat="27.961630" lon="-15.578180">
        <ele>1793.00</ele>
        <time>2018-06-22T18:49:50Z</time>
      </trkpt>
      <trkpt lat="27.961611" lon="-15.578185">
        <ele>1792.80</ele>
        <time>2018-06-22T18:49:53Z</time>
      </trkpt>
      <trkpt lat="27.961589" lon="-15.578187">
        <ele>1791.60</ele>
        <time>2018-06-22T18:49:56Z</time>
      </trkpt>
      <trkpt lat="27.961565" lon="-15.578197">
        <ele>1791.20</ele>
        <time>2018-06-22T18:49:59Z</time>
      </trkpt>
      <trkpt lat="27.961548" lon="-15.578205">
        <ele>1790.60</ele>
        <time>2018-06-22T18:50:02Z</time>
      </trkpt>
      <trkpt lat="27.961530" lon="-15.578215">
        <ele>1790.00</ele>
        <time>2018-06-22T18:50:05Z</time>
      </trkpt>
      <trkpt lat="27.961515" lon="-15.578227">
        <ele>1789.40</ele>
        <time>2018-06-22T18:50:08Z</time>
      </trkpt>
      <trkpt lat="27.961511" lon="-15.578250">
        <ele>1788.60</ele>
        <time>2018-06-22T18:50:12Z</time>
      </trkpt>
      <trkpt lat="27.961508" lon="-15.578278">
        <ele>1788.00</ele>
        <time>2018-06-22T18:50:15Z</time>
      </trkpt>
      <trkpt lat="27.961495" lon="-15.578301">
        <ele>1788.00</ele>
        <time>2018-06-22T18:50:18Z</time>
      </trkpt>
      <trkpt lat="27.961477" lon="-15.578320">
        <ele>1787.60</ele>
        <time>2018-06-22T18:50:21Z</time>
      </trkpt>
      <trkpt lat="27.961471" lon="-15.578344">
        <ele>1787.00</ele>
        <time>2018-06-22T18:50:24Z</time>
      </trkpt>
      <trkpt lat="27.961472" lon="-15.578370">
        <ele>1785.60</ele>
        <time>2018-06-22T18:50:27Z</time>
      </trkpt>
      <trkpt lat="27.961477" lon="-15.578396">
        <ele>1785.00</ele>
        <time>2018-06-22T18:50:30Z</time>
      </trkpt>
      <trkpt lat="27.961479" lon="-15.578416">
        <ele>1785.00</ele>
        <time>2018-06-22T18:50:32Z</time>
      </trkpt>
      <trkpt lat="27.961477" lon="-15.578437">
        <ele>1784.80</ele>
        <time>2018-06-22T18:50:34Z</time>
      </trkpt>
      <trkpt lat="27.961475" lon="-15.578457">
        <ele>1784.00</ele>
        <time>2018-06-22T18:50:36Z</time>
      </trkpt>
      <trkpt lat="27.961462" lon="-15.578482">
        <ele>1783.20</ele>
        <time>2018-06-22T18:50:39Z</time>
      </trkpt>
      <trkpt lat="27.961456" lon="-15.578506">
        <ele>1783.20</ele>
        <time>2018-06-22T18:50:42Z</time>
      </trkpt>
      <trkpt lat="27.961451" lon="-15.578530">
        <ele>1782.40</ele>
        <time>2018-06-22T18:50:46Z</time>
      </trkpt>
      <trkpt lat="27.961438" lon="-15.578550">
        <ele>1781.20</ele>
        <time>2018-06-22T18:50:50Z</time>
      </trkpt>
      <trkpt lat="27.961431" lon="-15.578573">
        <ele>1780.60</ele>
        <time>2018-06-22T18:50:53Z</time>
      </trkpt>
      <trkpt lat="27.961433" lon="-15.578603">
        <ele>1780.60</ele>
        <time>2018-06-22T18:50:56Z</time>
      </trkpt>
      <trkpt lat="27.961424" lon="-15.578623">
        <ele>1780.20</ele>
        <time>2018-06-22T18:50:59Z</time>
      </trkpt>
      <trkpt lat="27.961421" lon="-15.578649">
        <ele>1779.60</ele>
        <time>2018-06-22T18:51:02Z</time>
      </trkpt>
      <trkpt lat="27.961422" lon="-15.578672">
        <ele>1779.20</ele>
        <time>2018-06-22T18:51:04Z</time>
      </trkpt>
      <trkpt lat="27.961420" lon="-15.578696">
        <ele>1778.60</ele>
        <time>2018-06-22T18:51:07Z</time>
      </trkpt>
      <trkpt lat="27.961426" lon="-15.578725">
        <ele>1778.00</ele>
        <time>2018-06-22T18:51:10Z</time>
      </trkpt>
      <trkpt lat="27.961432" lon="-15.578748">
        <ele>1777.60</ele>
        <time>2018-06-22T18:51:12Z</time>
      </trkpt>
      <trkpt lat="27.961437" lon="-15.578769">
        <ele>1776.40</ele>
        <time>2018-06-22T18:51:14Z</time>
      </trkpt>
      <trkpt lat="27.961442" lon="-15.578797">
        <ele>1776.20</ele>
        <time>2018-06-22T18:51:17Z</time>
      </trkpt>
      <trkpt lat="27.961451" lon="-15.578819">
        <ele>1776.00</ele>
        <time>2018-06-22T18:51:20Z</time>
      </trkpt>
      <trkpt lat="27.961456" lon="-15.578840">
        <ele>1775.80</ele>
        <time>2018-06-22T18:51:22Z</time>
      </trkpt>
      <trkpt lat="27.961457" lon="-15.578861">
        <ele>1775.60</ele>
        <time>2018-06-22T18:51:24Z</time>
      </trkpt>
      <trkpt lat="27.961460" lon="-15.578882">
        <ele>1774.80</ele>
        <time>2018-06-22T18:51:26Z</time>
      </trkpt>
      <trkpt lat="27.961478" lon="-15.578902">
        <ele>1774.20</ele>
        <time>2018-06-22T18:51:29Z</time>
      </trkpt>
      <trkpt lat="27.961486" lon="-15.578925">
        <ele>1774.20</ele>
        <time>2018-06-22T18:51:31Z</time>
      </trkpt>
      <trkpt lat="27.961491" lon="-15.578952">
        <ele>1774.00</ele>
        <time>2018-06-22T18:51:33Z</time>
      </trkpt>
      <trkpt lat="27.961498" lon="-15.578984">
        <ele>1773.00</ele>
        <time>2018-06-22T18:51:36Z</time>
      </trkpt>
      <trkpt lat="27.961507" lon="-15.579010">
        <ele>1772.60</ele>
        <time>2018-06-22T18:51:39Z</time>
      </trkpt>
      <trkpt lat="27.961524" lon="-15.579030">
        <ele>1772.40</ele>
        <time>2018-06-22T18:51:41Z</time>
      </trkpt>
      <trkpt lat="27.961530" lon="-15.579055">
        <ele>1772.20</ele>
        <time>2018-06-22T18:51:43Z</time>
      </trkpt>
      <trkpt lat="27.961541" lon="-15.579089">
        <ele>1771.80</ele>
        <time>2018-06-22T18:51:45Z</time>
      </trkpt>
      <trkpt lat="27.961556" lon="-15.579110">
        <ele>1771.60</ele>
        <time>2018-06-22T18:51:47Z</time>
      </trkpt>
      <trkpt lat="27.961557" lon="-15.579136">
        <ele>1771.00</ele>
        <time>2018-06-22T18:51:51Z</time>
      </trkpt>
      <trkpt lat="27.961560" lon="-15.579162">
        <ele>1770.80</ele>
        <time>2018-06-22T18:51:53Z</time>
      </trkpt>
      <trkpt lat="27.961571" lon="-15.579183">
        <ele>1770.60</ele>
        <time>2018-06-22T18:51:55Z</time>
      </trkpt>
      <trkpt lat="27.961577" lon="-15.579210">
        <ele>1770.40</ele>
        <time>2018-06-22T18:51:58Z</time>
      </trkpt>
      <trkpt lat="27.961595" lon="-15.579234">
        <ele>1770.60</ele>
        <time>2018-06-22T18:52:01Z</time>
      </trkpt>
      <trkpt lat="27.961613" lon="-15.579253">
        <ele>1770.00</ele>
        <time>2018-06-22T18:52:03Z</time>
      </trkpt>
      <trkpt lat="27.961628" lon="-15.579275">
        <ele>1769.80</ele>
        <time>2018-06-22T18:52:05Z</time>
      </trkpt>
      <trkpt lat="27.961647" lon="-15.579302">
        <ele>1769.80</ele>
        <time>2018-06-22T18:52:07Z</time>
      </trkpt>
      <trkpt lat="27.961661" lon="-15.579318">
        <ele>1769.60</ele>
        <time>2018-06-22T18:52:08Z</time>
      </trkpt>
      <trkpt lat="27.961676" lon="-15.579345">
        <ele>1769.40</ele>
        <time>2018-06-22T18:52:10Z</time>
      </trkpt>
      <trkpt lat="27.961690" lon="-15.579365">
        <ele>1768.80</ele>
        <time>2018-06-22T18:52:12Z</time>
      </trkpt>
      <trkpt lat="27.961720" lon="-15.579377">
        <ele>1768.40</ele>
        <time>2018-06-22T18:52:14Z</time>
      </trkpt>
      <trkpt lat="27.961816" lon="-15.579410">
        <ele>1766.60</ele>
        <time>2018-06-22T18:52:23Z</time>
      </trkpt>
      <trkpt lat="27.961821" lon="-15.579438">
        <ele>1766.40</ele>
        <time>2018-06-22T18:52:26Z</time>
      </trkpt>
      <trkpt lat="27.961833" lon="-15.579460">
        <ele>1766.40</ele>
        <time>2018-06-22T18:52:28Z</time>
      </trkpt>
      <trkpt lat="27.961846" lon="-15.579484">
        <ele>1766.00</ele>
        <time>2018-06-22T18:52:30Z</time>
      </trkpt>
      <trkpt lat="27.961853" lon="-15.579508">
        <ele>1765.60</ele>
        <time>2018-06-22T18:52:33Z</time>
      </trkpt>
      <trkpt lat="27.961848" lon="-15.579530">
        <ele>1764.40</ele>
        <time>2018-06-22T18:52:35Z</time>
      </trkpt>
      <trkpt lat="27.961855" lon="-15.579549">
        <ele>1764.40</ele>
        <time>2018-06-22T18:52:37Z</time>
      </trkpt>
      <trkpt lat="27.961864" lon="-15.579578">
        <ele>1763.80</ele>
        <time>2018-06-22T18:52:39Z</time>
      </trkpt>
      <trkpt lat="27.961884" lon="-15.579606">
        <ele>1763.00</ele>
        <time>2018-06-22T18:52:42Z</time>
      </trkpt>
      <trkpt lat="27.961894" lon="-15.579630">
        <ele>1762.80</ele>
        <time>2018-06-22T18:52:44Z</time>
      </trkpt>
      <trkpt lat="27.961911" lon="-15.579654">
        <ele>1762.80</ele>
        <time>2018-06-22T18:52:46Z</time>
      </trkpt>
      <trkpt lat="27.961913" lon="-15.579675">
        <ele>1762.60</ele>
        <time>2018-06-22T18:52:49Z</time>
      </trkpt>
      <trkpt lat="27.961908" lon="-15.579701">
        <ele>1761.60</ele>
        <time>2018-06-22T18:52:52Z</time>
      </trkpt>
      <trkpt lat="27.961914" lon="-15.579722">
        <ele>1761.00</ele>
        <time>2018-06-22T18:52:55Z</time>
      </trkpt>
      <trkpt lat="27.961918" lon="-15.579744">
        <ele>1760.00</ele>
        <time>2018-06-22T18:52:59Z</time>
      </trkpt>
      <trkpt lat="27.961924" lon="-15.579766">
        <ele>1759.20</ele>
        <time>2018-06-22T18:53:02Z</time>
      </trkpt>
      <trkpt lat="27.961929" lon="-15.579786">
        <ele>1758.80</ele>
        <time>2018-06-22T18:53:04Z</time>
      </trkpt>
      <trkpt lat="27.961937" lon="-15.579810">
        <ele>1758.40</ele>
        <time>2018-06-22T18:53:07Z</time>
      </trkpt>
      <trkpt lat="27.961944" lon="-15.579832">
        <ele>1757.80</ele>
        <time>2018-06-22T18:53:09Z</time>
      </trkpt>
      <trkpt lat="27.961952" lon="-15.579855">
        <ele>1756.80</ele>
        <time>2018-06-22T18:53:12Z</time>
      </trkpt>
      <trkpt lat="27.961955" lon="-15.579879">
        <ele>1756.80</ele>
        <time>2018-06-22T18:53:14Z</time>
      </trkpt>
      <trkpt lat="27.961955" lon="-15.579901">
        <ele>1756.40</ele>
        <time>2018-06-22T18:53:16Z</time>
      </trkpt>
      <trkpt lat="27.961964" lon="-15.579921">
        <ele>1756.20</ele>
        <time>2018-06-22T18:53:18Z</time>
      </trkpt>
      <trkpt lat="27.961977" lon="-15.579944">
        <ele>1755.40</ele>
        <time>2018-06-22T18:53:20Z</time>
      </trkpt>
      <trkpt lat="27.961986" lon="-15.579969">
        <ele>1755.20</ele>
        <time>2018-06-22T18:53:22Z</time>
      </trkpt>
      <trkpt lat="27.961980" lon="-15.579998">
        <ele>1755.20</ele>
        <time>2018-06-22T18:53:25Z</time>
      </trkpt>
      <trkpt lat="27.961975" lon="-15.580029">
        <ele>1754.80</ele>
        <time>2018-06-22T18:53:28Z</time>
      </trkpt>
      <trkpt lat="27.961975" lon="-15.580059">
        <ele>1753.80</ele>
        <time>2018-06-22T18:53:32Z</time>
      </trkpt>
      <trkpt lat="27.961963" lon="-15.580079">
        <ele>1753.60</ele>
        <time>2018-06-22T18:53:36Z</time>
      </trkpt>
      <trkpt lat="27.961952" lon="-15.580100">
        <ele>1752.80</ele>
        <time>2018-06-22T18:53:39Z</time>
      </trkpt>
      <trkpt lat="27.961948" lon="-15.580122">
        <ele>1752.60</ele>
        <time>2018-06-22T18:53:42Z</time>
      </trkpt>
      <trkpt lat="27.961937" lon="-15.580142">
        <ele>1751.80</ele>
        <time>2018-06-22T18:53:45Z</time>
      </trkpt>
      <trkpt lat="27.961922" lon="-15.580162">
        <ele>1751.80</ele>
        <time>2018-06-22T18:53:48Z</time>
      </trkpt>
      <trkpt lat="27.961908" lon="-15.580182">
        <ele>1750.80</ele>
        <time>2018-06-22T18:53:51Z</time>
      </trkpt>
      <trkpt lat="27.961898" lon="-15.580201">
        <ele>1750.00</ele>
        <time>2018-06-22T18:53:55Z</time>
      </trkpt>
      <trkpt lat="27.961897" lon="-15.580221">
        <ele>1749.40</ele>
        <time>2018-06-22T18:53:57Z</time>
      </trkpt>
      <trkpt lat="27.961892" lon="-15.580245">
        <ele>1749.00</ele>
        <time>2018-06-22T18:54:00Z</time>
      </trkpt>
      <trkpt lat="27.961895" lon="-15.580267">
        <ele>1748.20</ele>
        <time>2018-06-22T18:54:03Z</time>
      </trkpt>
      <trkpt lat="27.961894" lon="-15.580289">
        <ele>1747.80</ele>
        <time>2018-06-22T18:54:06Z</time>
      </trkpt>
      <trkpt lat="27.961880" lon="-15.580311">
        <ele>1748.00</ele>
        <time>2018-06-22T18:54:09Z</time>
      </trkpt>
      <trkpt lat="27.961875" lon="-15.580337">
        <ele>1747.60</ele>
        <time>2018-06-22T18:54:11Z</time>
      </trkpt>
      <trkpt lat="27.961871" lon="-15.580366">
        <ele>1747.40</ele>
        <time>2018-06-22T18:54:13Z</time>
      </trkpt>
      <trkpt lat="27.961871" lon="-15.580395">
        <ele>1747.20</ele>
        <time>2018-06-22T18:54:15Z</time>
      </trkpt>
      <trkpt lat="27.961873" lon="-15.580423">
        <ele>1747.00</ele>
        <time>2018-06-22T18:54:17Z</time>
      </trkpt>
      <trkpt lat="27.961863" lon="-15.580446">
        <ele>1746.60</ele>
        <time>2018-06-22T18:54:20Z</time>
      </trkpt>
      <trkpt lat="27.961849" lon="-15.580469">
        <ele>1745.80</ele>
        <time>2018-06-22T18:54:23Z</time>
      </trkpt>
      <trkpt lat="27.961840" lon="-15.580487">
        <ele>1745.20</ele>
        <time>2018-06-22T18:54:26Z</time>
      </trkpt>
      <trkpt lat="27.961823" lon="-15.580500">
        <ele>1744.80</ele>
        <time>2018-06-22T18:54:30Z</time>
      </trkpt>
      <trkpt lat="27.961816" lon="-15.580521">
        <ele>1744.80</ele>
        <time>2018-06-22T18:54:33Z</time>
      </trkpt>
      <trkpt lat="27.961806" lon="-15.580539">
        <ele>1744.40</ele>
        <time>2018-06-22T18:54:36Z</time>
      </trkpt>
      <trkpt lat="27.961802" lon="-15.580560">
        <ele>1744.20</ele>
        <time>2018-06-22T18:54:40Z</time>
      </trkpt>
      <trkpt lat="27.961792" lon="-15.580578">
        <ele>1743.20</ele>
        <time>2018-06-22T18:54:43Z</time>
      </trkpt>
      <trkpt lat="27.961784" lon="-15.580605">
        <ele>1743.00</ele>
        <time>2018-06-22T18:54:47Z</time>
      </trkpt>
      <trkpt lat="27.961781" lon="-15.580627">
        <ele>1743.00</ele>
        <time>2018-06-22T18:54:50Z</time>
      </trkpt>
      <trkpt lat="27.961773" lon="-15.580649">
        <ele>1743.20</ele>
        <time>2018-06-22T18:54:52Z</time>
      </trkpt>
      <trkpt lat="27.961771" lon="-15.580673">
        <ele>1743.00</ele>
        <time>2018-06-22T18:54:54Z</time>
      </trkpt>
      <trkpt lat="27.961766" lon="-15.580694">
        <ele>1742.20</ele>
        <time>2018-06-22T18:54:56Z</time>
      </trkpt>
      <trkpt lat="27.961759" lon="-15.580714">
        <ele>1741.40</ele>
        <time>2018-06-22T18:54:58Z</time>
      </trkpt>
      <trkpt lat="27.961751" lon="-15.580741">
        <ele>1741.20</ele>
        <time>2018-06-22T18:55:01Z</time>
      </trkpt>
      <trkpt lat="27.961749" lon="-15.580768">
        <ele>1741.20</ele>
        <time>2018-06-22T18:55:03Z</time>
      </trkpt>
      <trkpt lat="27.961743" lon="-15.580809">
        <ele>1741.20</ele>
        <time>2018-06-22T18:55:05Z</time>
      </trkpt>
      <trkpt lat="27.961709" lon="-15.580868">
        <ele>1740.40</ele>
        <time>2018-06-22T18:55:10Z</time>
      </trkpt>
      <trkpt lat="27.961691" lon="-15.580872">
        <ele>1740.40</ele>
        <time>2018-06-22T18:55:12Z</time>
      </trkpt>
      <trkpt lat="27.961671" lon="-15.580873">
        <ele>1740.40</ele>
        <time>2018-06-22T18:55:14Z</time>
      </trkpt>
      <trkpt lat="27.961652" lon="-15.580881">
        <ele>1740.40</ele>
        <time>2018-06-22T18:55:16Z</time>
      </trkpt>
      <trkpt lat="27.961630" lon="-15.580893">
        <ele>1739.80</ele>
        <time>2018-06-22T18:55:20Z</time>
      </trkpt>
      <trkpt lat="27.961605" lon="-15.580900">
        <ele>1739.80</ele>
        <time>2018-06-22T18:55:23Z</time>
      </trkpt>
      <trkpt lat="27.961583" lon="-15.580916">
        <ele>1738.80</ele>
        <time>2018-06-22T18:55:26Z</time>
      </trkpt>
      <trkpt lat="27.961570" lon="-15.580932">
        <ele>1738.60</ele>
        <time>2018-06-22T18:55:28Z</time>
      </trkpt>
      <trkpt lat="27.961563" lon="-15.580954">
        <ele>1738.60</ele>
        <time>2018-06-22T18:55:30Z</time>
      </trkpt>
      <trkpt lat="27.961554" lon="-15.580974">
        <ele>1738.40</ele>
        <time>2018-06-22T18:55:32Z</time>
      </trkpt>
      <trkpt lat="27.961547" lon="-15.580998">
        <ele>1738.40</ele>
        <time>2018-06-22T18:55:34Z</time>
      </trkpt>
      <trkpt lat="27.961545" lon="-15.581026">
        <ele>1737.60</ele>
        <time>2018-06-22T18:55:37Z</time>
      </trkpt>
      <trkpt lat="27.961541" lon="-15.581048">
        <ele>1737.40</ele>
        <time>2018-06-22T18:55:39Z</time>
      </trkpt>
      <trkpt lat="27.961536" lon="-15.581077">
        <ele>1737.00</ele>
        <time>2018-06-22T18:55:41Z</time>
      </trkpt>
      <trkpt lat="27.961544" lon="-15.581108">
        <ele>1737.00</ele>
        <time>2018-06-22T18:55:43Z</time>
      </trkpt>
      <trkpt lat="27.961547" lon="-15.581137">
        <ele>1736.60</ele>
        <time>2018-06-22T18:55:45Z</time>
      </trkpt>
      <trkpt lat="27.961551" lon="-15.581163">
        <ele>1736.40</ele>
        <time>2018-06-22T18:55:47Z</time>
      </trkpt>
      <trkpt lat="27.961552" lon="-15.581193">
        <ele>1736.40</ele>
        <time>2018-06-22T18:55:49Z</time>
      </trkpt>
      <trkpt lat="27.961544" lon="-15.581223">
        <ele>1735.60</ele>
        <time>2018-06-22T18:55:52Z</time>
      </trkpt>
      <trkpt lat="27.961540" lon="-15.581245">
        <ele>1735.40</ele>
        <time>2018-06-22T18:55:54Z</time>
      </trkpt>
      <trkpt lat="27.961529" lon="-15.581265">
        <ele>1735.40</ele>
        <time>2018-06-22T18:55:56Z</time>
      </trkpt>
      <trkpt lat="27.961517" lon="-15.581287">
        <ele>1735.40</ele>
        <time>2018-06-22T18:55:58Z</time>
      </trkpt>
      <trkpt lat="27.961518" lon="-15.581312">
        <ele>1734.40</ele>
        <time>2018-06-22T18:56:00Z</time>
      </trkpt>
      <trkpt lat="27.961500" lon="-15.581337">
        <ele>1734.20</ele>
        <time>2018-06-22T18:56:02Z</time>
      </trkpt>
      <trkpt lat="27.961481" lon="-15.581364">
        <ele>1733.80</ele>
        <time>2018-06-22T18:56:04Z</time>
      </trkpt>
      <trkpt lat="27.961470" lon="-15.581388">
        <ele>1733.80</ele>
        <time>2018-06-22T18:56:06Z</time>
      </trkpt>
      <trkpt lat="27.961457" lon="-15.581409">
        <ele>1733.60</ele>
        <time>2018-06-22T18:56:08Z</time>
      </trkpt>
      <trkpt lat="27.961449" lon="-15.581437">
        <ele>1733.80</ele>
        <time>2018-06-22T18:56:10Z</time>
      </trkpt>
      <trkpt lat="27.961433" lon="-15.581460">
        <ele>1734.40</ele>
        <time>2018-06-22T18:56:12Z</time>
      </trkpt>
      <trkpt lat="27.961422" lon="-15.581489">
        <ele>1734.60</ele>
        <time>2018-06-22T18:56:14Z</time>
      </trkpt>
      <trkpt lat="27.961413" lon="-15.581518">
        <ele>1734.60</ele>
        <time>2018-06-22T18:56:16Z</time>
      </trkpt>
      <trkpt lat="27.961408" lon="-15.581543">
        <ele>1734.40</ele>
        <time>2018-06-22T18:56:18Z</time>
      </trkpt>
      <trkpt lat="27.961407" lon="-15.581576">
        <ele>1733.20</ele>
        <time>2018-06-22T18:56:20Z</time>
      </trkpt>
      <trkpt lat="27.961400" lon="-15.581611">
        <ele>1732.00</ele>
        <time>2018-06-22T18:56:22Z</time>
      </trkpt>
      <trkpt lat="27.961392" lon="-15.581639">
        <ele>1732.00</ele>
        <time>2018-06-22T18:56:24Z</time>
      </trkpt>
      <trkpt lat="27.961367" lon="-15.581746">
        <ele>1732.60</ele>
        <time>2018-06-22T18:56:33Z</time>
      </trkpt>
      <trkpt lat="27.961368" lon="-15.581772">
        <ele>1731.80</ele>
        <time>2018-06-22T18:56:37Z</time>
      </trkpt>
      <trkpt lat="27.961358" lon="-15.581794">
        <ele>1731.40</ele>
        <time>2018-06-22T18:56:39Z</time>
      </trkpt>
      <trkpt lat="27.961346" lon="-15.581815">
        <ele>1731.20</ele>
        <time>2018-06-22T18:56:41Z</time>
      </trkpt>
      <trkpt lat="27.961335" lon="-15.581832">
        <ele>1731.00</ele>
        <time>2018-06-22T18:56:43Z</time>
      </trkpt>
      <trkpt lat="27.961319" lon="-15.581857">
        <ele>1730.60</ele>
        <time>2018-06-22T18:56:46Z</time>
      </trkpt>
      <trkpt lat="27.961307" lon="-15.581912">
        <ele>1730.00</ele>
        <time>2018-06-22T18:56:50Z</time>
      </trkpt>
      <trkpt lat="27.961306" lon="-15.581935">
        <ele>1730.40</ele>
        <time>2018-06-22T18:56:52Z</time>
      </trkpt>
      <trkpt lat="27.961298" lon="-15.581960">
        <ele>1729.60</ele>
        <time>2018-06-22T18:56:54Z</time>
      </trkpt>
      <trkpt lat="27.961289" lon="-15.581987">
        <ele>1730.20</ele>
        <time>2018-06-22T18:56:57Z</time>
      </trkpt>
      <trkpt lat="27.961286" lon="-15.582014">
        <ele>1729.80</ele>
        <time>2018-06-22T18:56:59Z</time>
      </trkpt>
      <trkpt lat="27.961278" lon="-15.582039">
        <ele>1729.80</ele>
        <time>2018-06-22T18:57:01Z</time>
      </trkpt>
      <trkpt lat="27.961272" lon="-15.582068">
        <ele>1729.40</ele>
        <time>2018-06-22T18:57:03Z</time>
      </trkpt>
      <trkpt lat="27.961267" lon="-15.582088">
        <ele>1729.20</ele>
        <time>2018-06-22T18:57:05Z</time>
      </trkpt>
      <trkpt lat="27.961253" lon="-15.582105">
        <ele>1729.20</ele>
        <time>2018-06-22T18:57:07Z</time>
      </trkpt>
      <trkpt lat="27.961237" lon="-15.582120">
        <ele>1728.40</ele>
        <time>2018-06-22T18:57:09Z</time>
      </trkpt>
      <trkpt lat="27.961226" lon="-15.582139">
        <ele>1728.40</ele>
        <time>2018-06-22T18:57:11Z</time>
      </trkpt>
      <trkpt lat="27.961216" lon="-15.582175">
        <ele>1728.20</ele>
        <time>2018-06-22T18:57:14Z</time>
      </trkpt>
      <trkpt lat="27.961204" lon="-15.582190">
        <ele>1727.40</ele>
        <time>2018-06-22T18:57:16Z</time>
      </trkpt>
      <trkpt lat="27.961179" lon="-15.582272">
        <ele>1725.60</ele>
        <time>2018-06-22T18:57:26Z</time>
      </trkpt>
      <trkpt lat="27.961178" lon="-15.582294">
        <ele>1725.40</ele>
        <time>2018-06-22T18:57:29Z</time>
      </trkpt>
      <trkpt lat="27.961170" lon="-15.582322">
        <ele>1725.00</ele>
        <time>2018-06-22T18:57:32Z</time>
      </trkpt>
      <trkpt lat="27.961153" lon="-15.582339">
        <ele>1724.40</ele>
        <time>2018-06-22T18:57:34Z</time>
      </trkpt>
      <trkpt lat="27.961100" lon="-15.582425">
        <ele>1723.00</ele>
        <time>2018-06-22T18:57:44Z</time>
      </trkpt>
      <trkpt lat="27.961047" lon="-15.582522">
        <ele>1721.00</ele>
        <time>2018-06-22T18:57:55Z</time>
      </trkpt>
      <trkpt lat="27.961044" lon="-15.582554">
        <ele>1720.00</ele>
        <time>2018-06-22T18:58:00Z</time>
      </trkpt>
      <trkpt lat="27.961036" lon="-15.582588">
        <ele>1719.80</ele>
        <time>2018-06-22T18:58:02Z</time>
      </trkpt>
      <trkpt lat="27.961018" lon="-15.582613">
        <ele>1719.20</ele>
        <time>2018-06-22T18:58:04Z</time>
      </trkpt>
      <trkpt lat="27.961008" lon="-15.582632">
        <ele>1719.20</ele>
        <time>2018-06-22T18:58:06Z</time>
      </trkpt>
      <trkpt lat="27.960996" lon="-15.582660">
        <ele>1719.40</ele>
        <time>2018-06-22T18:58:09Z</time>
      </trkpt>
      <trkpt lat="27.960990" lon="-15.582687">
        <ele>1719.20</ele>
        <time>2018-06-22T18:58:12Z</time>
      </trkpt>
      <trkpt lat="27.960994" lon="-15.582708">
        <ele>1718.40</ele>
        <time>2018-06-22T18:58:14Z</time>
      </trkpt>
      <trkpt lat="27.960993" lon="-15.582731">
        <ele>1717.60</ele>
        <time>2018-06-22T18:58:16Z</time>
      </trkpt>
      <trkpt lat="27.960993" lon="-15.582752">
        <ele>1716.40</ele>
        <time>2018-06-22T18:58:18Z</time>
      </trkpt>
      <trkpt lat="27.960994" lon="-15.582774">
        <ele>1716.40</ele>
        <time>2018-06-22T18:58:20Z</time>
      </trkpt>
      <trkpt lat="27.961001" lon="-15.582796">
        <ele>1716.20</ele>
        <time>2018-06-22T18:58:23Z</time>
      </trkpt>
      <trkpt lat="27.960983" lon="-15.582806">
        <ele>1714.20</ele>
        <time>2018-06-22T18:58:30Z</time>
      </trkpt>
      <trkpt lat="27.960990" lon="-15.582825">
        <ele>1713.40</ele>
        <time>2018-06-22T18:58:33Z</time>
      </trkpt>
      <trkpt lat="27.960997" lon="-15.582847">
        <ele>1713.00</ele>
        <time>2018-06-22T18:58:36Z</time>
      </trkpt>
      <trkpt lat="27.960987" lon="-15.582870">
        <ele>1712.60</ele>
        <time>2018-06-22T18:58:41Z</time>
      </trkpt>
      <trkpt lat="27.960979" lon="-15.582896">
        <ele>1711.80</ele>
        <time>2018-06-22T18:58:44Z</time>
      </trkpt>
      <trkpt lat="27.960976" lon="-15.582918">
        <ele>1711.80</ele>
        <time>2018-06-22T18:58:46Z</time>
      </trkpt>
      <trkpt lat="27.960970" lon="-15.582947">
        <ele>1711.60</ele>
        <time>2018-06-22T18:58:48Z</time>
      </trkpt>
      <trkpt lat="27.960969" lon="-15.582977">
        <ele>1711.60</ele>
        <time>2018-06-22T18:58:50Z</time>
      </trkpt>
      <trkpt lat="27.960962" lon="-15.583011">
        <ele>1710.20</ele>
        <time>2018-06-22T18:58:54Z</time>
      </trkpt>
      <trkpt lat="27.960956" lon="-15.583031">
        <ele>1710.00</ele>
        <time>2018-06-22T18:58:57Z</time>
      </trkpt>
      <trkpt lat="27.960934" lon="-15.583089">
        <ele>1708.60</ele>
        <time>2018-06-22T18:59:04Z</time>
      </trkpt>
      <trkpt lat="27.960923" lon="-15.583117">
        <ele>1708.40</ele>
        <time>2018-06-22T18:59:06Z</time>
      </trkpt>
      <trkpt lat="27.960907" lon="-15.583137">
        <ele>1708.20</ele>
        <time>2018-06-22T18:59:08Z</time>
      </trkpt>
      <trkpt lat="27.960896" lon="-15.583161">
        <ele>1707.00</ele>
        <time>2018-06-22T18:59:13Z</time>
      </trkpt>
      <trkpt lat="27.960892" lon="-15.583237">
        <ele>1705.20</ele>
        <time>2018-06-22T18:59:21Z</time>
      </trkpt>
      <trkpt lat="27.960904" lon="-15.583269">
        <ele>1704.40</ele>
        <time>2018-06-22T18:59:25Z</time>
      </trkpt>
      <trkpt lat="27.960913" lon="-15.583293">
        <ele>1702.40</ele>
        <time>2018-06-22T18:59:28Z</time>
      </trkpt>
      <trkpt lat="27.960919" lon="-15.583312">
        <ele>1702.20</ele>
        <time>2018-06-22T18:59:30Z</time>
      </trkpt>
      <trkpt lat="27.960925" lon="-15.583339">
        <ele>1702.20</ele>
        <time>2018-06-22T18:59:33Z</time>
      </trkpt>
      <trkpt lat="27.960932" lon="-15.583359">
        <ele>1702.00</ele>
        <time>2018-06-22T18:59:36Z</time>
      </trkpt>
      <trkpt lat="27.960938" lon="-15.583380">
        <ele>1700.60</ele>
        <time>2018-06-22T18:59:45Z</time>
      </trkpt>
      <trkpt lat="27.960969" lon="-15.583411">
        <ele>1699.80</ele>
        <time>2018-06-22T18:59:51Z</time>
      </trkpt>
      <trkpt lat="27.960977" lon="-15.583431">
        <ele>1699.60</ele>
        <time>2018-06-22T18:59:53Z</time>
      </trkpt>
      <trkpt lat="27.960994" lon="-15.583451">
        <ele>1699.00</ele>
        <time>2018-06-22T18:59:56Z</time>
      </trkpt>
      <trkpt lat="27.961009" lon="-15.583467">
        <ele>1698.20</ele>
        <time>2018-06-22T18:59:58Z</time>
      </trkpt>
      <trkpt lat="27.961023" lon="-15.583484">
        <ele>1698.40</ele>
        <time>2018-06-22T19:00:00Z</time>
      </trkpt>
      <trkpt lat="27.961035" lon="-15.583501">
        <ele>1698.00</ele>
        <time>2018-06-22T19:00:02Z</time>
      </trkpt>
      <trkpt lat="27.961052" lon="-15.583521">
        <ele>1697.60</ele>
        <time>2018-06-22T19:00:04Z</time>
      </trkpt>
      <trkpt lat="27.961069" lon="-15.583554">
        <ele>1696.60</ele>
        <time>2018-06-22T19:00:07Z</time>
      </trkpt>
      <trkpt lat="27.961109" lon="-15.583617">
        <ele>1696.40</ele>
        <time>2018-06-22T19:00:13Z</time>
      </trkpt>
      <trkpt lat="27.961148" lon="-15.583719">
        <ele>1695.40</ele>
        <time>2018-06-22T19:00:21Z</time>
      </trkpt>
      <trkpt lat="27.961158" lon="-15.583781">
        <ele>1695.00</ele>
        <time>2018-06-22T19:00:25Z</time>
      </trkpt>
      <trkpt lat="27.961162" lon="-15.583812">
        <ele>1694.20</ele>
        <time>2018-06-22T19:00:27Z</time>
      </trkpt>
      <trkpt lat="27.961201" lon="-15.583919">
        <ele>1693.60</ele>
        <time>2018-06-22T19:00:36Z</time>
      </trkpt>
      <trkpt lat="27.961225" lon="-15.584025">
        <ele>1693.00</ele>
        <time>2018-06-22T19:00:43Z</time>
      </trkpt>
      <trkpt lat="27.961223" lon="-15.584098">
        <ele>1691.80</ele>
        <time>2018-06-22T19:00:50Z</time>
      </trkpt>
      <trkpt lat="27.961228" lon="-15.584123">
        <ele>1691.20</ele>
        <time>2018-06-22T19:00:52Z</time>
      </trkpt>
      <trkpt lat="27.961237" lon="-15.584154">
        <ele>1691.00</ele>
        <time>2018-06-22T19:00:54Z</time>
      </trkpt>
      <trkpt lat="27.961247" lon="-15.584181">
        <ele>1691.20</ele>
        <time>2018-06-22T19:00:56Z</time>
      </trkpt>
      <trkpt lat="27.961248" lon="-15.584206">
        <ele>1691.00</ele>
        <time>2018-06-22T19:00:58Z</time>
      </trkpt>
      <trkpt lat="27.961251" lon="-15.584236">
        <ele>1690.20</ele>
        <time>2018-06-22T19:01:01Z</time>
      </trkpt>
      <trkpt lat="27.961251" lon="-15.584258">
        <ele>1689.80</ele>
        <time>2018-06-22T19:01:03Z</time>
      </trkpt>
      <trkpt lat="27.961247" lon="-15.584282">
        <ele>1689.60</ele>
        <time>2018-06-22T19:01:08Z</time>
      </trkpt>
      <trkpt lat="27.961177" lon="-15.584388">
        <ele>1681.10</ele>
        <time>2018-02-24T15:07:00Z</time>
      </trkpt>
      <trkpt lat="27.961152" lon="-15.584404">
        <ele>1680.85</ele>
        <time>2018-02-24T15:07:01Z</time>
      </trkpt>
      <trkpt lat="27.961134" lon="-15.584421">
        <ele>1680.80</ele>
        <time>2018-02-24T15:07:03Z</time>
      </trkpt>
      <trkpt lat="27.961115" lon="-15.584438">
        <ele>1680.55</ele>
        <time>2018-02-24T15:07:06Z</time>
      </trkpt>
      <trkpt lat="27.961105" lon="-15.584463">
        <ele>1680.00</ele>
        <time>2018-02-24T15:07:09Z</time>
      </trkpt>
      <trkpt lat="27.961086" lon="-15.584530">
        <ele>1680.10</ele>
        <time>2018-02-24T15:07:13Z</time>
      </trkpt>
      <trkpt lat="27.961133" lon="-15.584626">
        <ele>1680.25</ele>
        <time>2018-02-24T15:07:17Z</time>
      </trkpt>
      <trkpt lat="27.961143" lon="-15.584652">
        <ele>1680.30</ele>
        <time>2018-02-24T15:07:18Z</time>
      </trkpt>
      <trkpt lat="27.961153" lon="-15.584673">
        <ele>1680.35</ele>
        <time>2018-02-24T15:07:19Z</time>
      </trkpt>
      <trkpt lat="27.961169" lon="-15.584700">
        <ele>1680.65</ele>
        <time>2018-02-24T15:07:21Z</time>
      </trkpt>
      <trkpt lat="27.961177" lon="-15.584729">
        <ele>1681.15</ele>
        <time>2018-02-24T15:07:23Z</time>
      </trkpt>
      <trkpt lat="27.961192" lon="-15.584755">
        <ele>1681.30</ele>
        <time>2018-02-24T15:07:25Z</time>
      </trkpt>
      <trkpt lat="27.961206" lon="-15.584785">
        <ele>1682.30</ele>
        <time>2018-02-24T15:07:28Z</time>
      </trkpt>
      <trkpt lat="27.961228" lon="-15.584801">
        <ele>1682.95</ele>
        <time>2018-02-24T15:07:30Z</time>
      </trkpt>
      <trkpt lat="27.961248" lon="-15.584815">
        <ele>1683.25</ele>
        <time>2018-02-24T15:07:32Z</time>
      </trkpt>
      <trkpt lat="27.961269" lon="-15.584827">
        <ele>1683.60</ele>
        <time>2018-02-24T15:07:34Z</time>
      </trkpt>
      <trkpt lat="27.961279" lon="-15.584886">
        <ele>1683.90</ele>
        <time>2018-02-24T15:07:38Z</time>
      </trkpt>
      <trkpt lat="27.961276" lon="-15.584923">
        <ele>1684.05</ele>
        <time>2018-02-24T15:07:40Z</time>
      </trkpt>
      <trkpt lat="27.961276" lon="-15.584945">
        <ele>1684.30</ele>
        <time>2018-02-24T15:07:42Z</time>
      </trkpt>
      <trkpt lat="27.961272" lon="-15.584968">
        <ele>1684.40</ele>
        <time>2018-02-24T15:07:44Z</time>
      </trkpt>
      <trkpt lat="27.961268" lon="-15.584989">
        <ele>1684.55</ele>
        <time>2018-02-24T15:07:48Z</time>
      </trkpt>
      <trkpt lat="27.961253" lon="-15.585003">
        <ele>1684.80</ele>
        <time>2018-02-24T15:07:52Z</time>
      </trkpt>
      <trkpt lat="27.961255" lon="-15.585026">
        <ele>1685.40</ele>
        <time>2018-02-24T15:07:55Z</time>
      </trkpt>
      <trkpt lat="27.961245" lon="-15.585046">
        <ele>1686.15</ele>
        <time>2018-02-24T15:07:57Z</time>
      </trkpt>
      <trkpt lat="27.961230" lon="-15.585067">
        <ele>1687.10</ele>
        <time>2018-02-24T15:08:00Z</time>
      </trkpt>
      <trkpt lat="27.961227" lon="-15.585097">
        <ele>1687.30</ele>
        <time>2018-02-24T15:08:02Z</time>
      </trkpt>
      <trkpt lat="27.961233" lon="-15.585128">
        <ele>1687.95</ele>
        <time>2018-02-24T15:08:04Z</time>
      </trkpt>
      <trkpt lat="27.961230" lon="-15.585159">
        <ele>1688.70</ele>
        <time>2018-02-24T15:08:06Z</time>
      </trkpt>
      <trkpt lat="27.961212" lon="-15.585179">
        <ele>1689.20</ele>
        <time>2018-02-24T15:08:09Z</time>
      </trkpt>
      <trkpt lat="27.961202" lon="-15.585202">
        <ele>1690.20</ele>
        <time>2018-02-24T15:08:13Z</time>
      </trkpt>
      <trkpt lat="27.961177" lon="-15.585219">
        <ele>1690.80</ele>
        <time>2018-02-24T15:08:18Z</time>
      </trkpt>
      <trkpt lat="27.961153" lon="-15.585220">
        <ele>1691.15</ele>
        <time>2018-02-24T15:08:20Z</time>
      </trkpt>
      <trkpt lat="27.961131" lon="-15.585240">
        <ele>1691.65</ele>
        <time>2018-02-24T15:08:22Z</time>
      </trkpt>
      <trkpt lat="27.961116" lon="-15.585257">
        <ele>1692.00</ele>
        <time>2018-02-24T15:08:24Z</time>
      </trkpt>
      <trkpt lat="27.961105" lon="-15.585275">
        <ele>1692.45</ele>
        <time>2018-02-24T15:08:26Z</time>
      </trkpt>
      <trkpt lat="27.961084" lon="-15.585287">
        <ele>1692.75</ele>
        <time>2018-02-24T15:08:28Z</time>
      </trkpt>
      <trkpt lat="27.961064" lon="-15.585294">
        <ele>1692.80</ele>
        <time>2018-02-24T15:08:30Z</time>
      </trkpt>
      <trkpt lat="27.961038" lon="-15.585305">
        <ele>1693.40</ele>
        <time>2018-02-24T15:08:33Z</time>
      </trkpt>
      <trkpt lat="27.961012" lon="-15.585312">
        <ele>1693.55</ele>
        <time>2018-02-24T15:08:35Z</time>
      </trkpt>
      <trkpt lat="27.960992" lon="-15.585310">
        <ele>1693.90</ele>
        <time>2018-02-24T15:08:37Z</time>
      </trkpt>
      <trkpt lat="27.960968" lon="-15.585307">
        <ele>1694.05</ele>
        <time>2018-02-24T15:08:39Z</time>
      </trkpt>
      <trkpt lat="27.960944" lon="-15.585303">
        <ele>1694.25</ele>
        <time>2018-02-24T15:08:41Z</time>
      </trkpt>
      <trkpt lat="27.960923" lon="-15.585305">
        <ele>1694.85</ele>
        <time>2018-02-24T15:08:44Z</time>
      </trkpt>
      <trkpt lat="27.960901" lon="-15.585303">
        <ele>1694.80</ele>
        <time>2018-02-24T15:08:46Z</time>
      </trkpt>
      <trkpt lat="27.960881" lon="-15.585300">
        <ele>1695.10</ele>
        <time>2018-02-24T15:08:48Z</time>
      </trkpt>
      <trkpt lat="27.960854" lon="-15.585302">
        <ele>1696.00</ele>
        <time>2018-02-24T15:08:50Z</time>
      </trkpt>
      <trkpt lat="27.960835" lon="-15.585308">
        <ele>1696.35</ele>
        <time>2018-02-24T15:08:52Z</time>
      </trkpt>
      <trkpt lat="27.960813" lon="-15.585313">
        <ele>1696.50</ele>
        <time>2018-02-24T15:08:54Z</time>
      </trkpt>
      <trkpt lat="27.960786" lon="-15.585313">
        <ele>1696.80</ele>
        <time>2018-02-24T15:08:57Z</time>
      </trkpt>
      <trkpt lat="27.960763" lon="-15.585308">
        <ele>1696.80</ele>
        <time>2018-02-24T15:08:59Z</time>
      </trkpt>
      <trkpt lat="27.960736" lon="-15.585311">
        <ele>1697.15</ele>
        <time>2018-02-24T15:09:02Z</time>
      </trkpt>
      <trkpt lat="27.960713" lon="-15.585301">
        <ele>1697.30</ele>
        <time>2018-02-24T15:09:04Z</time>
      </trkpt>
      <trkpt lat="27.960695" lon="-15.585293">
        <ele>1697.80</ele>
        <time>2018-02-24T15:09:06Z</time>
      </trkpt>
      <trkpt lat="27.960674" lon="-15.585289">
        <ele>1698.20</ele>
        <time>2018-02-24T15:09:08Z</time>
      </trkpt>
      <trkpt lat="27.960653" lon="-15.585289">
        <ele>1698.50</ele>
        <time>2018-02-24T15:09:10Z</time>
      </trkpt>
      <trkpt lat="27.960629" lon="-15.585287">
        <ele>1699.25</ele>
        <time>2018-02-24T15:09:13Z</time>
      </trkpt>
      <trkpt lat="27.960608" lon="-15.585282">
        <ele>1699.75</ele>
        <time>2018-02-24T15:09:16Z</time>
      </trkpt>
      <trkpt lat="27.960583" lon="-15.585276">
        <ele>1700.10</ele>
        <time>2018-02-24T15:09:18Z</time>
      </trkpt>
      <trkpt lat="27.960564" lon="-15.585273">
        <ele>1700.10</ele>
        <time>2018-02-24T15:09:20Z</time>
      </trkpt>
      <trkpt lat="27.960543" lon="-15.585270">
        <ele>1700.25</ele>
        <time>2018-02-24T15:09:22Z</time>
      </trkpt>
      <trkpt lat="27.960522" lon="-15.585262">
        <ele>1700.90</ele>
        <time>2018-02-24T15:09:24Z</time>
      </trkpt>
      <trkpt lat="27.960495" lon="-15.585270">
        <ele>1701.75</ele>
        <time>2018-02-24T15:09:27Z</time>
      </trkpt>
      <trkpt lat="27.960479" lon="-15.585278">
        <ele>1702.15</ele>
        <time>2018-02-24T15:09:29Z</time>
      </trkpt>
      <trkpt lat="27.960460" lon="-15.585286">
        <ele>1702.45</ele>
        <time>2018-02-24T15:09:31Z</time>
      </trkpt>
      <trkpt lat="27.960439" lon="-15.585292">
        <ele>1702.70</ele>
        <time>2018-02-24T15:09:34Z</time>
      </trkpt>
      <trkpt lat="27.960423" lon="-15.585279">
        <ele>1702.60</ele>
        <time>2018-02-24T15:09:40Z</time>
      </trkpt>
      <trkpt lat="27.960404" lon="-15.585282">
        <ele>1702.95</ele>
        <time>2018-02-24T15:09:43Z</time>
      </trkpt>
      <trkpt lat="27.960386" lon="-15.585291">
        <ele>1703.05</ele>
        <time>2018-02-24T15:09:45Z</time>
      </trkpt>
      <trkpt lat="27.960362" lon="-15.585293">
        <ele>1703.55</ele>
        <time>2018-02-24T15:09:47Z</time>
      </trkpt>
      <trkpt lat="27.960344" lon="-15.585295">
        <ele>1704.20</ele>
        <time>2018-02-24T15:09:49Z</time>
      </trkpt>
      <trkpt lat="27.960320" lon="-15.585295">
        <ele>1704.60</ele>
        <time>2018-02-24T15:09:52Z</time>
      </trkpt>
      <trkpt lat="27.960297" lon="-15.585297">
        <ele>1705.00</ele>
        <time>2018-02-24T15:09:56Z</time>
      </trkpt>
      <trkpt lat="27.960278" lon="-15.585312">
        <ele>1706.25</ele>
        <time>2018-02-24T15:09:59Z</time>
      </trkpt>
      <trkpt lat="27.960262" lon="-15.585326">
        <ele>1706.50</ele>
        <time>2018-02-24T15:10:01Z</time>
      </trkpt>
      <trkpt lat="27.960250" lon="-15.585349">
        <ele>1706.50</ele>
        <time>2018-02-24T15:10:03Z</time>
      </trkpt>
      <trkpt lat="27.960244" lon="-15.585374">
        <ele>1706.50</ele>
        <time>2018-02-24T15:10:05Z</time>
      </trkpt>
      <trkpt lat="27.960241" lon="-15.585397">
        <ele>1706.60</ele>
        <time>2018-02-24T15:10:07Z</time>
      </trkpt>
      <trkpt lat="27.960234" lon="-15.585423">
        <ele>1706.70</ele>
        <time>2018-02-24T15:10:10Z</time>
      </trkpt>
      <trkpt lat="27.960218" lon="-15.585434">
        <ele>1706.70</ele>
        <time>2018-02-24T15:10:13Z</time>
      </trkpt>
      <trkpt lat="27.960203" lon="-15.585448">
        <ele>1706.75</ele>
        <time>2018-02-24T15:10:15Z</time>
      </trkpt>
      <trkpt lat="27.960193" lon="-15.585470">
        <ele>1706.80</ele>
        <time>2018-02-24T15:10:17Z</time>
      </trkpt>
      <trkpt lat="27.960177" lon="-15.585482">
        <ele>1706.70</ele>
        <time>2018-02-24T15:10:19Z</time>
      </trkpt>
      <trkpt lat="27.960157" lon="-15.585488">
        <ele>1707.05</ele>
        <time>2018-02-24T15:10:22Z</time>
      </trkpt>
      <trkpt lat="27.960136" lon="-15.585497">
        <ele>1707.50</ele>
        <time>2018-02-24T15:10:25Z</time>
      </trkpt>
      <trkpt lat="27.960118" lon="-15.585509">
        <ele>1707.30</ele>
        <time>2018-02-24T15:10:27Z</time>
      </trkpt>
      <trkpt lat="27.960104" lon="-15.585530">
        <ele>1707.85</ele>
        <time>2018-02-24T15:10:30Z</time>
      </trkpt>
      <trkpt lat="27.960088" lon="-15.585547">
        <ele>1708.35</ele>
        <time>2018-02-24T15:10:32Z</time>
      </trkpt>
      <trkpt lat="27.960076" lon="-15.585568">
        <ele>1708.80</ele>
        <time>2018-02-24T15:10:34Z</time>
      </trkpt>
      <trkpt lat="27.960069" lon="-15.585596">
        <ele>1708.60</ele>
        <time>2018-02-24T15:10:36Z</time>
      </trkpt>
      <trkpt lat="27.960065" lon="-15.585632">
        <ele>1708.65</ele>
        <time>2018-02-24T15:10:38Z</time>
      </trkpt>
      <trkpt lat="27.960060" lon="-15.585664">
        <ele>1708.60</ele>
        <time>2018-02-24T15:10:40Z</time>
      </trkpt>
      <trkpt lat="27.960060" lon="-15.585693">
        <ele>1708.80</ele>
        <time>2018-02-24T15:10:42Z</time>
      </trkpt>
      <trkpt lat="27.960054" lon="-15.585722">
        <ele>1709.74</ele>
        <time>2018-02-24T15:10:44Z</time>
      </trkpt>
      <trkpt lat="27.960048" lon="-15.585756">
        <ele>1710.10</ele>
        <time>2018-02-24T15:10:46Z</time>
      </trkpt>
      <trkpt lat="27.960044" lon="-15.585784">
        <ele>1710.10</ele>
        <time>2018-02-24T15:10:48Z</time>
      </trkpt>
      <trkpt lat="27.960031" lon="-15.585810">
        <ele>1710.35</ele>
        <time>2018-02-24T15:10:50Z</time>
      </trkpt>
      <trkpt lat="27.960034" lon="-15.585838">
        <ele>1710.35</ele>
        <time>2018-02-24T15:10:52Z</time>
      </trkpt>
      <trkpt lat="27.960040" lon="-15.585869">
        <ele>1710.30</ele>
        <time>2018-02-24T15:10:54Z</time>
      </trkpt>
      <trkpt lat="27.960044" lon="-15.585897">
        <ele>1710.60</ele>
        <time>2018-02-24T15:10:56Z</time>
      </trkpt>
      <trkpt lat="27.960050" lon="-15.585922">
        <ele>1710.60</ele>
        <time>2018-02-24T15:10:58Z</time>
      </trkpt>
      <trkpt lat="27.960041" lon="-15.585949">
        <ele>1710.50</ele>
        <time>2018-02-24T15:11:00Z</time>
      </trkpt>
      <trkpt lat="27.960026" lon="-15.585968">
        <ele>1710.30</ele>
        <time>2018-02-24T15:11:02Z</time>
      </trkpt>
      <trkpt lat="27.960009" lon="-15.585986">
        <ele>1709.90</ele>
        <time>2018-02-24T15:11:04Z</time>
      </trkpt>
      <trkpt lat="27.959990" lon="-15.586012">
        <ele>1709.90</ele>
        <time>2018-02-24T15:11:06Z</time>
      </trkpt>
      <trkpt lat="27.959973" lon="-15.586037">
        <ele>1709.65</ele>
        <time>2018-02-24T15:11:08Z</time>
      </trkpt>
      <trkpt lat="27.959956" lon="-15.586063">
        <ele>1709.60</ele>
        <time>2018-02-24T15:11:10Z</time>
      </trkpt>
      <trkpt lat="27.959933" lon="-15.586086">
        <ele>1709.50</ele>
        <time>2018-02-24T15:11:12Z</time>
      </trkpt>
      <trkpt lat="27.959909" lon="-15.586105">
        <ele>1709.45</ele>
        <time>2018-02-24T15:11:14Z</time>
      </trkpt>
      <trkpt lat="27.959880" lon="-15.586125">
        <ele>1709.35</ele>
        <time>2018-02-24T15:11:16Z</time>
      </trkpt>
      <trkpt lat="27.959850" lon="-15.586136">
        <ele>1709.35</ele>
        <time>2018-02-24T15:11:18Z</time>
      </trkpt>
      <trkpt lat="27.959837" lon="-15.586150">
        <ele>1709.30</ele>
        <time>2018-02-24T15:11:19Z</time>
      </trkpt>
      <trkpt lat="27.959812" lon="-15.586169">
        <ele>1709.45</ele>
        <time>2018-02-24T15:11:21Z</time>
      </trkpt>
      <trkpt lat="27.959789" lon="-15.586180">
        <ele>1709.60</ele>
        <time>2018-02-24T15:11:23Z</time>
      </trkpt>
      <trkpt lat="27.959765" lon="-15.586184">
        <ele>1709.00</ele>
        <time>2018-02-24T15:11:25Z</time>
      </trkpt>
      <trkpt lat="27.959747" lon="-15.586184">
        <ele>1708.40</ele>
        <time>2018-02-24T15:11:27Z</time>
      </trkpt>
      <trkpt lat="27.959718" lon="-15.586183">
        <ele>1708.40</ele>
        <time>2018-02-24T15:11:29Z</time>
      </trkpt>
      <trkpt lat="27.959692" lon="-15.586189">
        <ele>1708.40</ele>
        <time>2018-02-24T15:11:31Z</time>
      </trkpt>
      <trkpt lat="27.959664" lon="-15.586194">
        <ele>1708.65</ele>
        <time>2018-02-24T15:11:33Z</time>
      </trkpt>
      <trkpt lat="27.959630" lon="-15.586213">
        <ele>1708.75</ele>
        <time>2018-02-24T15:11:35Z</time>
      </trkpt>
      <trkpt lat="27.959598" lon="-15.586225">
        <ele>1708.90</ele>
        <time>2018-02-24T15:11:37Z</time>
      </trkpt>
      <trkpt lat="27.959576" lon="-15.586231">
        <ele>1708.80</ele>
        <time>2018-02-24T15:11:38Z</time>
      </trkpt>
      <trkpt lat="27.959558" lon="-15.586234">
        <ele>1708.70</ele>
        <time>2018-02-24T15:11:39Z</time>
      </trkpt>
      <trkpt lat="27.959453" lon="-15.586259">
        <ele>1707.50</ele>
        <time>2018-02-24T15:11:45Z</time>
      </trkpt>
      <trkpt lat="27.959358" lon="-15.586300">
        <ele>1707.30</ele>
        <time>2018-02-24T15:11:51Z</time>
      </trkpt>
      <trkpt lat="27.959256" lon="-15.586338">
        <ele>1706.36</ele>
        <time>2018-02-24T15:11:57Z</time>
      </trkpt>
      <trkpt lat="27.959161" lon="-15.586360">
        <ele>1706.05</ele>
        <time>2018-02-24T15:12:02Z</time>
      </trkpt>
      <trkpt lat="27.959129" lon="-15.586355">
        <ele>1705.90</ele>
        <time>2018-02-24T15:12:04Z</time>
      </trkpt>
      <trkpt lat="27.959099" lon="-15.586348">
        <ele>1705.65</ele>
        <time>2018-02-24T15:12:06Z</time>
      </trkpt>
      <trkpt lat="27.959065" lon="-15.586342">
        <ele>1705.70</ele>
        <time>2018-02-24T15:12:08Z</time>
      </trkpt>
      <trkpt lat="27.959035" lon="-15.586334">
        <ele>1706.10</ele>
        <time>2018-02-24T15:12:10Z</time>
      </trkpt>
      <trkpt lat="27.959013" lon="-15.586339">
        <ele>1706.10</ele>
        <time>2018-02-24T15:12:13Z</time>
      </trkpt>
      <trkpt lat="27.958996" lon="-15.586353">
        <ele>1705.30</ele>
        <time>2018-02-24T15:12:15Z</time>
      </trkpt>
      <trkpt lat="27.958968" lon="-15.586361">
        <ele>1705.20</ele>
        <time>2018-02-24T15:12:17Z</time>
      </trkpt>
      <trkpt lat="27.958940" lon="-15.586364">
        <ele>1704.91</ele>
        <time>2018-02-24T15:12:19Z</time>
      </trkpt>
      <trkpt lat="27.958915" lon="-15.586359">
        <ele>1704.50</ele>
        <time>2018-02-24T15:12:21Z</time>
      </trkpt>
      <trkpt lat="27.958885" lon="-15.586352">
        <ele>1704.15</ele>
        <time>2018-02-24T15:12:23Z</time>
      </trkpt>
      <trkpt lat="27.958850" lon="-15.586348">
        <ele>1703.90</ele>
        <time>2018-02-24T15:12:25Z</time>
      </trkpt>
      <trkpt lat="27.958821" lon="-15.586338">
        <ele>1704.05</ele>
        <time>2018-02-24T15:12:27Z</time>
      </trkpt>
      <trkpt lat="27.958797" lon="-15.586327">
        <ele>1703.60</ele>
        <time>2018-02-24T15:12:29Z</time>
      </trkpt>
      <trkpt lat="27.958767" lon="-15.586320">
        <ele>1703.80</ele>
        <time>2018-02-24T15:12:31Z</time>
      </trkpt>
      <trkpt lat="27.958739" lon="-15.586315">
        <ele>1703.30</ele>
        <time>2018-02-24T15:12:33Z</time>
      </trkpt>
      <trkpt lat="27.958719" lon="-15.586316">
        <ele>1703.20</ele>
        <time>2018-02-24T15:12:35Z</time>
      </trkpt>
      <trkpt lat="27.958695" lon="-15.586326">
        <ele>1703.65</ele>
        <time>2018-02-24T15:12:37Z</time>
      </trkpt>
      <trkpt lat="27.958669" lon="-15.586330">
        <ele>1703.60</ele>
        <time>2018-02-24T15:12:39Z</time>
      </trkpt>
      <trkpt lat="27.958651" lon="-15.586338">
        <ele>1703.60</ele>
        <time>2018-02-24T15:12:40Z</time>
      </trkpt>
      <trkpt lat="27.958633" lon="-15.586344">
        <ele>1703.65</ele>
        <time>2018-02-24T15:12:41Z</time>
      </trkpt>
      <trkpt lat="27.958612" lon="-15.586351">
        <ele>1703.65</ele>
        <time>2018-02-24T15:12:42Z</time>
      </trkpt>
      <trkpt lat="27.958591" lon="-15.586355">
        <ele>1703.60</ele>
        <time>2018-02-24T15:12:43Z</time>
      </trkpt>
      <trkpt lat="27.958573" lon="-15.586357">
        <ele>1703.30</ele>
        <time>2018-02-24T15:12:44Z</time>
      </trkpt>
      <trkpt lat="27.958551" lon="-15.586363">
        <ele>1703.15</ele>
        <time>2018-02-24T15:12:46Z</time>
      </trkpt>
      <trkpt lat="27.958530" lon="-15.586377">
        <ele>1702.55</ele>
        <time>2018-02-24T15:12:48Z</time>
      </trkpt>
      <trkpt lat="27.958505" lon="-15.586396">
        <ele>1702.35</ele>
        <time>2018-02-24T15:12:50Z</time>
      </trkpt>
      <trkpt lat="27.958476" lon="-15.586423">
        <ele>1702.35</ele>
        <time>2018-02-24T15:12:52Z</time>
      </trkpt>
      <trkpt lat="27.958459" lon="-15.586437">
        <ele>1702.30</ele>
        <time>2018-02-24T15:12:53Z</time>
      </trkpt>
      <trkpt lat="27.958434" lon="-15.586461">
        <ele>1701.70</ele>
        <time>2018-02-24T15:12:55Z</time>
      </trkpt>
      <trkpt lat="27.958418" lon="-15.586475">
        <ele>1701.60</ele>
        <time>2018-02-24T15:12:56Z</time>
      </trkpt>
      <trkpt lat="27.958403" lon="-15.586495">
        <ele>1701.60</ele>
        <time>2018-02-24T15:12:57Z</time>
      </trkpt>
      <trkpt lat="27.958390" lon="-15.586511">
        <ele>1701.50</ele>
        <time>2018-02-24T15:12:58Z</time>
      </trkpt>
      <trkpt lat="27.958377" lon="-15.586526">
        <ele>1701.40</ele>
        <time>2018-02-24T15:12:59Z</time>
      </trkpt>
      <trkpt lat="27.958353" lon="-15.586556">
        <ele>1701.30</ele>
        <time>2018-02-24T15:13:01Z</time>
      </trkpt>
      <trkpt lat="27.958337" lon="-15.586572">
        <ele>1701.15</ele>
        <time>2018-02-24T15:13:02Z</time>
      </trkpt>
      <trkpt lat="27.958325" lon="-15.586591">
        <ele>1700.80</ele>
        <time>2018-02-24T15:13:03Z</time>
      </trkpt>
      <trkpt lat="27.958309" lon="-15.586622">
        <ele>1700.50</ele>
        <time>2018-02-24T15:13:05Z</time>
      </trkpt>
      <trkpt lat="27.958299" lon="-15.586640">
        <ele>1700.30</ele>
        <time>2018-02-24T15:13:07Z</time>
      </trkpt>
      <trkpt lat="27.958289" lon="-15.586664">
        <ele>1699.30</ele>
        <time>2018-02-24T15:13:10Z</time>
      </trkpt>
      <trkpt lat="27.958285" lon="-15.586686">
        <ele>1699.10</ele>
        <time>2018-02-24T15:13:12Z</time>
      </trkpt>
      <trkpt lat="27.958278" lon="-15.586713">
        <ele>1698.45</ele>
        <time>2018-02-24T15:13:14Z</time>
      </trkpt>
      <trkpt lat="27.958267" lon="-15.586734">
        <ele>1698.40</ele>
        <time>2018-02-24T15:13:16Z</time>
      </trkpt>
      <trkpt lat="27.958250" lon="-15.586752">
        <ele>1697.90</ele>
        <time>2018-02-24T15:13:18Z</time>
      </trkpt>
      <trkpt lat="27.958243" lon="-15.586778">
        <ele>1697.35</ele>
        <time>2018-02-24T15:13:20Z</time>
      </trkpt>
      <trkpt lat="27.958252" lon="-15.586817">
        <ele>1697.25</ele>
        <time>2018-02-24T15:13:22Z</time>
      </trkpt>
      <trkpt lat="27.958255" lon="-15.586837">
        <ele>1697.20</ele>
        <time>2018-02-24T15:13:23Z</time>
      </trkpt>
      <trkpt lat="27.958255" lon="-15.586866">
        <ele>1696.55</ele>
        <time>2018-02-24T15:13:25Z</time>
      </trkpt>
      <trkpt lat="27.958242" lon="-15.586881">
        <ele>1695.10</ele>
        <time>2018-02-24T15:13:27Z</time>
      </trkpt>
      <trkpt lat="27.958222" lon="-15.586907">
        <ele>1694.80</ele>
        <time>2018-02-24T15:13:30Z</time>
      </trkpt>
      <trkpt lat="27.958208" lon="-15.586934">
        <ele>1694.40</ele>
        <time>2018-02-24T15:13:32Z</time>
      </trkpt>
      <trkpt lat="27.958204" lon="-15.586963">
        <ele>1693.75</ele>
        <time>2018-02-24T15:13:34Z</time>
      </trkpt>
      <trkpt lat="27.958191" lon="-15.586979">
        <ele>1692.40</ele>
        <time>2018-02-24T15:13:39Z</time>
      </trkpt>
      <trkpt lat="27.958182" lon="-15.587006">
        <ele>1692.40</ele>
        <time>2018-02-24T15:13:41Z</time>
      </trkpt>
      <trkpt lat="27.958174" lon="-15.587027">
        <ele>1692.40</ele>
        <time>2018-02-24T15:13:42Z</time>
      </trkpt>
      <trkpt lat="27.958158" lon="-15.587063">
        <ele>1692.40</ele>
        <time>2018-02-24T15:13:44Z</time>
      </trkpt>
      <trkpt lat="27.958146" lon="-15.587093">
        <ele>1692.40</ele>
        <time>2018-02-24T15:13:46Z</time>
      </trkpt>
      <trkpt lat="27.958124" lon="-15.587128">
        <ele>1692.10</ele>
        <time>2018-02-24T15:13:48Z</time>
      </trkpt>
      <trkpt lat="27.958101" lon="-15.587155">
        <ele>1691.65</ele>
        <time>2018-02-24T15:13:50Z</time>
      </trkpt>
      <trkpt lat="27.958080" lon="-15.587181">
        <ele>1691.65</ele>
        <time>2018-02-24T15:13:52Z</time>
      </trkpt>
      <trkpt lat="27.958058" lon="-15.587206">
        <ele>1691.60</ele>
        <time>2018-02-24T15:13:54Z</time>
      </trkpt>
      <trkpt lat="27.958036" lon="-15.587230">
        <ele>1691.30</ele>
        <time>2018-02-24T15:13:56Z</time>
      </trkpt>
      <trkpt lat="27.958013" lon="-15.587254">
        <ele>1690.95</ele>
        <time>2018-02-24T15:13:58Z</time>
      </trkpt>
      <trkpt lat="27.957993" lon="-15.587269">
        <ele>1690.85</ele>
        <time>2018-02-24T15:14:00Z</time>
      </trkpt>
      <trkpt lat="27.957982" lon="-15.587292">
        <ele>1690.90</ele>
        <time>2018-02-24T15:14:02Z</time>
      </trkpt>
      <trkpt lat="27.957956" lon="-15.587311">
        <ele>1690.60</ele>
        <time>2018-02-24T15:14:04Z</time>
      </trkpt>
      <trkpt lat="27.957938" lon="-15.587320">
        <ele>1690.10</ele>
        <time>2018-02-24T15:14:05Z</time>
      </trkpt>
      <trkpt lat="27.957910" lon="-15.587336">
        <ele>1689.95</ele>
        <time>2018-02-24T15:14:07Z</time>
      </trkpt>
      <trkpt lat="27.957890" lon="-15.587354">
        <ele>1689.95</ele>
        <time>2018-02-24T15:14:09Z</time>
      </trkpt>
      <trkpt lat="27.957873" lon="-15.587373">
        <ele>1689.65</ele>
        <time>2018-02-24T15:14:11Z</time>
      </trkpt>
      <trkpt lat="27.957860" lon="-15.587389">
        <ele>1689.40</ele>
        <time>2018-02-24T15:14:13Z</time>
      </trkpt>
      <trkpt lat="27.957836" lon="-15.587409">
        <ele>1689.45</ele>
        <time>2018-02-24T15:14:15Z</time>
      </trkpt>
      <trkpt lat="27.957812" lon="-15.587425">
        <ele>1689.70</ele>
        <time>2018-02-24T15:14:17Z</time>
      </trkpt>
      <trkpt lat="27.957788" lon="-15.587444">
        <ele>1689.40</ele>
        <time>2018-02-24T15:14:19Z</time>
      </trkpt>
      <trkpt lat="27.957770" lon="-15.587465">
        <ele>1688.90</ele>
        <time>2018-02-24T15:14:21Z</time>
      </trkpt>
      <trkpt lat="27.957752" lon="-15.587498">
        <ele>1688.50</ele>
        <time>2018-02-24T15:14:23Z</time>
      </trkpt>
      <trkpt lat="27.957738" lon="-15.587514">
        <ele>1688.55</ele>
        <time>2018-02-24T15:14:25Z</time>
      </trkpt>
      <trkpt lat="27.957711" lon="-15.587507">
        <ele>1687.25</ele>
        <time>2018-02-24T15:14:28Z</time>
      </trkpt>
      <trkpt lat="27.957687" lon="-15.587516">
        <ele>1687.05</ele>
        <time>2018-02-24T15:14:30Z</time>
      </trkpt>
      <trkpt lat="27.957668" lon="-15.587526">
        <ele>1686.35</ele>
        <time>2018-02-24T15:14:32Z</time>
      </trkpt>
      <trkpt lat="27.957657" lon="-15.587549">
        <ele>1686.10</ele>
        <time>2018-02-24T15:14:34Z</time>
      </trkpt>
      <trkpt lat="27.957648" lon="-15.587579">
        <ele>1686.10</ele>
        <time>2018-02-24T15:14:36Z</time>
      </trkpt>
      <trkpt lat="27.957633" lon="-15.587597">
        <ele>1685.65</ele>
        <time>2018-02-24T15:14:39Z</time>
      </trkpt>
      <trkpt lat="27.957617" lon="-15.587606">
        <ele>1684.90</ele>
        <time>2018-02-24T15:14:41Z</time>
      </trkpt>
      <trkpt lat="27.957599" lon="-15.587617">
        <ele>1684.90</ele>
        <time>2018-02-24T15:14:43Z</time>
      </trkpt>
      <trkpt lat="27.957576" lon="-15.587624">
        <ele>1684.75</ele>
        <time>2018-02-24T15:14:45Z</time>
      </trkpt>
      <trkpt lat="27.957551" lon="-15.587626">
        <ele>1684.50</ele>
        <time>2018-02-24T15:14:47Z</time>
      </trkpt>
      <trkpt lat="27.957529" lon="-15.587618">
        <ele>1683.90</ele>
        <time>2018-02-24T15:14:49Z</time>
      </trkpt>
      <trkpt lat="27.957510" lon="-15.587620">
        <ele>1683.75</ele>
        <time>2018-02-24T15:14:51Z</time>
      </trkpt>
      <trkpt lat="27.957493" lon="-15.587636">
        <ele>1683.50</ele>
        <time>2018-02-24T15:14:53Z</time>
      </trkpt>
      <trkpt lat="27.957460" lon="-15.587648">
        <ele>1683.00</ele>
        <time>2018-02-24T15:14:57Z</time>
      </trkpt>
      <trkpt lat="27.957442" lon="-15.587654">
        <ele>1682.70</ele>
        <time>2018-02-24T15:14:58Z</time>
      </trkpt>
      <trkpt lat="27.957414" lon="-15.587669">
        <ele>1682.80</ele>
        <time>2018-02-24T15:15:00Z</time>
      </trkpt>
      <trkpt lat="27.957397" lon="-15.587679">
        <ele>1682.70</ele>
        <time>2018-02-24T15:15:01Z</time>
      </trkpt>
      <trkpt lat="27.957381" lon="-15.587691">
        <ele>1682.45</ele>
        <time>2018-02-24T15:15:02Z</time>
      </trkpt>
      <trkpt lat="27.957362" lon="-15.587709">
        <ele>1682.05</ele>
        <time>2018-02-24T15:15:04Z</time>
      </trkpt>
      <trkpt lat="27.957338" lon="-15.587717">
        <ele>1680.80</ele>
        <time>2018-02-24T15:15:07Z</time>
      </trkpt>
      <trkpt lat="27.957308" lon="-15.587722">
        <ele>1680.70</ele>
        <time>2018-02-24T15:15:10Z</time>
      </trkpt>
      <trkpt lat="27.957285" lon="-15.587715">
        <ele>1680.60</ele>
        <time>2018-02-24T15:15:12Z</time>
      </trkpt>
      <trkpt lat="27.957221" lon="-15.587714">
        <ele>1680.10</ele>
        <time>2018-02-24T15:15:16Z</time>
      </trkpt>
      <trkpt lat="27.957189" lon="-15.587751">
        <ele>1680.20</ele>
        <time>2018-02-24T15:15:18Z</time>
      </trkpt>
      <trkpt lat="27.957187" lon="-15.587773">
        <ele>1680.05</ele>
        <time>2018-02-24T15:15:19Z</time>
      </trkpt>
      <trkpt lat="27.957170" lon="-15.587785">
        <ele>1679.20</ele>
        <time>2018-02-24T15:15:23Z</time>
      </trkpt>
      <trkpt lat="27.957155" lon="-15.587755">
        <ele>1679.10</ele>
        <time>2018-02-24T15:15:26Z</time>
      </trkpt>
      <trkpt lat="27.957137" lon="-15.587732">
        <ele>1679.00</ele>
        <time>2018-02-24T15:15:28Z</time>
      </trkpt>
      <trkpt lat="27.957115" lon="-15.587722">
        <ele>1678.95</ele>
        <time>2018-02-24T15:15:30Z</time>
      </trkpt>
      <trkpt lat="27.957094" lon="-15.587708">
        <ele>1678.95</ele>
        <time>2018-02-24T15:15:32Z</time>
      </trkpt>
      <trkpt lat="27.957070" lon="-15.587704">
        <ele>1679.00</ele>
        <time>2018-02-24T15:15:34Z</time>
      </trkpt>
      <trkpt lat="27.957045" lon="-15.587721">
        <ele>1679.00</ele>
        <time>2018-02-24T15:15:36Z</time>
      </trkpt>
      <trkpt lat="27.957029" lon="-15.587754">
        <ele>1679.15</ele>
        <time>2018-02-24T15:15:38Z</time>
      </trkpt>
      <trkpt lat="27.957025" lon="-15.587777">
        <ele>1679.20</ele>
        <time>2018-02-24T15:15:39Z</time>
      </trkpt>
      <trkpt lat="27.957021" lon="-15.587799">
        <ele>1679.20</ele>
        <time>2018-02-24T15:15:40Z</time>
      </trkpt>
      <trkpt lat="27.957018" lon="-15.587823">
        <ele>1679.20</ele>
        <time>2018-02-24T15:15:41Z</time>
      </trkpt>
      <trkpt lat="27.957019" lon="-15.587844">
        <ele>1679.25</ele>
        <time>2018-02-24T15:15:42Z</time>
      </trkpt>
      <trkpt lat="27.957020" lon="-15.587878">
        <ele>1679.35</ele>
        <time>2018-02-24T15:15:44Z</time>
      </trkpt>
      <trkpt lat="27.957016" lon="-15.587905">
        <ele>1679.10</ele>
        <time>2018-02-24T15:15:49Z</time>
      </trkpt>
      <trkpt lat="27.957022" lon="-15.587931">
        <ele>1679.10</ele>
        <time>2018-02-24T15:15:51Z</time>
      </trkpt>
      <trkpt lat="27.957026" lon="-15.587958">
        <ele>1679.20</ele>
        <time>2018-02-24T15:15:53Z</time>
      </trkpt>
      <trkpt lat="27.957020" lon="-15.587984">
        <ele>1679.51</ele>
        <time>2018-02-24T15:15:55Z</time>
      </trkpt>
      <trkpt lat="27.957014" lon="-15.588008">
        <ele>1679.54</ele>
        <time>2018-02-24T15:15:57Z</time>
      </trkpt>
      <trkpt lat="27.957013" lon="-15.588041">
        <ele>1679.61</ele>
        <time>2018-02-24T15:15:59Z</time>
      </trkpt>
      <trkpt lat="27.957012" lon="-15.588072">
        <ele>1679.50</ele>
        <time>2018-02-24T15:16:01Z</time>
      </trkpt>
      <trkpt lat="27.957006" lon="-15.588099">
        <ele>1679.59</ele>
        <time>2018-02-24T15:16:03Z</time>
      </trkpt>
      <trkpt lat="27.956991" lon="-15.588117">
        <ele>1679.94</ele>
        <time>2018-02-24T15:16:05Z</time>
      </trkpt>
      <trkpt lat="27.956972" lon="-15.588127">
        <ele>1679.70</ele>
        <time>2018-02-24T15:16:08Z</time>
      </trkpt>
      <trkpt lat="27.956966" lon="-15.588157">
        <ele>1680.33</ele>
        <time>2018-02-24T15:16:11Z</time>
      </trkpt>
      <trkpt lat="27.956960" lon="-15.588177">
        <ele>1681.02</ele>
        <time>2018-02-24T15:16:14Z</time>
      </trkpt>
      <trkpt lat="27.956956" lon="-15.588199">
        <ele>1682.00</ele>
        <time>2018-02-24T15:16:16Z</time>
      </trkpt>
      <trkpt lat="27.956945" lon="-15.588228">
        <ele>1682.53</ele>
        <time>2018-02-24T15:16:19Z</time>
      </trkpt>
      <trkpt lat="27.956931" lon="-15.588248">
        <ele>1683.04</ele>
        <time>2018-02-24T15:16:21Z</time>
      </trkpt>
      <trkpt lat="27.956924" lon="-15.588271">
        <ele>1683.20</ele>
        <time>2018-02-24T15:16:23Z</time>
      </trkpt>
      <trkpt lat="27.956922" lon="-15.588296">
        <ele>1682.90</ele>
        <time>2018-02-24T15:16:25Z</time>
      </trkpt>
      <trkpt lat="27.956922" lon="-15.588325">
        <ele>1682.60</ele>
        <time>2018-02-24T15:16:27Z</time>
      </trkpt>
      <trkpt lat="27.956919" lon="-15.588351">
        <ele>1682.74</ele>
        <time>2018-02-24T15:16:29Z</time>
      </trkpt>
      <trkpt lat="27.956920" lon="-15.588381">
        <ele>1683.04</ele>
        <time>2018-02-24T15:16:31Z</time>
      </trkpt>
      <trkpt lat="27.956919" lon="-15.588405">
        <ele>1683.54</ele>
        <time>2018-02-24T15:16:33Z</time>
      </trkpt>
      <trkpt lat="27.956916" lon="-15.588428">
        <ele>1683.85</ele>
        <time>2018-02-24T15:16:35Z</time>
      </trkpt>
      <trkpt lat="27.956917" lon="-15.588450">
        <ele>1684.10</ele>
        <time>2018-02-24T15:16:37Z</time>
      </trkpt>
      <trkpt lat="27.956908" lon="-15.588469">
        <ele>1684.48</ele>
        <time>2018-02-24T15:16:39Z</time>
      </trkpt>
      <trkpt lat="27.956889" lon="-15.588480">
        <ele>1684.80</ele>
        <time>2018-02-24T15:16:42Z</time>
      </trkpt>
      <trkpt lat="27.956877" lon="-15.588499">
        <ele>1685.10</ele>
        <time>2018-02-24T15:16:44Z</time>
      </trkpt>
      <trkpt lat="27.956870" lon="-15.588521">
        <ele>1684.97</ele>
        <time>2018-02-24T15:16:46Z</time>
      </trkpt>
      <trkpt lat="27.956862" lon="-15.588539">
        <ele>1685.10</ele>
        <time>2018-02-24T15:16:48Z</time>
      </trkpt>
      <trkpt lat="27.956845" lon="-15.588566">
        <ele>1685.20</ele>
        <time>2018-02-24T15:16:51Z</time>
      </trkpt>
      <trkpt lat="27.956838" lon="-15.588592">
        <ele>1686.54</ele>
        <time>2018-02-24T15:16:53Z</time>
      </trkpt>
      <trkpt lat="27.956819" lon="-15.588612">
        <ele>1686.60</ele>
        <time>2018-02-24T15:16:55Z</time>
      </trkpt>
      <trkpt lat="27.956803" lon="-15.588622">
        <ele>1686.43</ele>
        <time>2018-02-24T15:16:57Z</time>
      </trkpt>
      <trkpt lat="27.956782" lon="-15.588625">
        <ele>1686.20</ele>
        <time>2018-02-24T15:16:59Z</time>
      </trkpt>
      <trkpt lat="27.956769" lon="-15.588638">
        <ele>1686.00</ele>
        <time>2018-02-24T15:17:01Z</time>
      </trkpt>
      <trkpt lat="27.956754" lon="-15.588660">
        <ele>1685.74</ele>
        <time>2018-02-24T15:17:03Z</time>
      </trkpt>
      <trkpt lat="27.956736" lon="-15.588683">
        <ele>1685.92</ele>
        <time>2018-02-24T15:17:05Z</time>
      </trkpt>
      <trkpt lat="27.956719" lon="-15.588707">
        <ele>1685.88</ele>
        <time>2018-02-24T15:17:07Z</time>
      </trkpt>
      <trkpt lat="27.956703" lon="-15.588728">
        <ele>1686.10</ele>
        <time>2018-02-24T15:17:09Z</time>
      </trkpt>
      <trkpt lat="27.956691" lon="-15.588756">
        <ele>1686.22</ele>
        <time>2018-02-24T15:17:11Z</time>
      </trkpt>
      <trkpt lat="27.956684" lon="-15.588779">
        <ele>1685.88</ele>
        <time>2018-02-24T15:17:13Z</time>
      </trkpt>
      <trkpt lat="27.956668" lon="-15.588796">
        <ele>1685.66</ele>
        <time>2018-02-24T15:17:15Z</time>
      </trkpt>
      <trkpt lat="27.956647" lon="-15.588811">
        <ele>1685.56</ele>
        <time>2018-02-24T15:17:17Z</time>
      </trkpt>
      <trkpt lat="27.956631" lon="-15.588825">
        <ele>1685.54</ele>
        <time>2018-02-24T15:17:19Z</time>
      </trkpt>
      <trkpt lat="27.956611" lon="-15.588845">
        <ele>1685.64</ele>
        <time>2018-02-24T15:17:21Z</time>
      </trkpt>
      <trkpt lat="27.956591" lon="-15.588864">
        <ele>1685.70</ele>
        <time>2018-02-24T15:17:23Z</time>
      </trkpt>
      <trkpt lat="27.956573" lon="-15.588884">
        <ele>1685.72</ele>
        <time>2018-02-24T15:17:25Z</time>
      </trkpt>
      <trkpt lat="27.956555" lon="-15.588904">
        <ele>1685.70</ele>
        <time>2018-02-24T15:17:27Z</time>
      </trkpt>
      <trkpt lat="27.956537" lon="-15.588925">
        <ele>1685.70</ele>
        <time>2018-02-24T15:17:29Z</time>
      </trkpt>
      <trkpt lat="27.956509" lon="-15.588939">
        <ele>1685.60</ele>
        <time>2018-02-24T15:17:31Z</time>
      </trkpt>
      <trkpt lat="27.956486" lon="-15.588953">
        <ele>1685.17</ele>
        <time>2018-02-24T15:17:33Z</time>
      </trkpt>
      <trkpt lat="27.956466" lon="-15.588964">
        <ele>1684.56</ele>
        <time>2018-02-24T15:17:35Z</time>
      </trkpt>
      <trkpt lat="27.956437" lon="-15.588967">
        <ele>1684.50</ele>
        <time>2018-02-24T15:17:37Z</time>
      </trkpt>
      <trkpt lat="27.956404" lon="-15.588969">
        <ele>1684.36</ele>
        <time>2018-02-24T15:17:39Z</time>
      </trkpt>
      <trkpt lat="27.956378" lon="-15.588973">
        <ele>1683.76</ele>
        <time>2018-02-24T15:17:41Z</time>
      </trkpt>
      <trkpt lat="27.956350" lon="-15.588980">
        <ele>1683.23</ele>
        <time>2018-02-24T15:17:43Z</time>
      </trkpt>
      <trkpt lat="27.956329" lon="-15.589002">
        <ele>1682.82</ele>
        <time>2018-02-24T15:17:45Z</time>
      </trkpt>
      <trkpt lat="27.956309" lon="-15.589021">
        <ele>1682.13</ele>
        <time>2018-02-24T15:17:47Z</time>
      </trkpt>
      <trkpt lat="27.956289" lon="-15.589039">
        <ele>1681.80</ele>
        <time>2018-02-24T15:17:49Z</time>
      </trkpt>
      <trkpt lat="27.956265" lon="-15.589063">
        <ele>1681.80</ele>
        <time>2018-02-24T15:17:51Z</time>
      </trkpt>
      <trkpt lat="27.956246" lon="-15.589084">
        <ele>1681.80</ele>
        <time>2018-02-24T15:17:53Z</time>
      </trkpt>
      <trkpt lat="27.956222" lon="-15.589121">
        <ele>1682.17</ele>
        <time>2018-02-24T15:17:55Z</time>
      </trkpt>
      <trkpt lat="27.956208" lon="-15.589136">
        <ele>1682.40</ele>
        <time>2018-02-24T15:17:57Z</time>
      </trkpt>
      <trkpt lat="27.956189" lon="-15.589144">
        <ele>1682.70</ele>
        <time>2018-02-24T15:17:59Z</time>
      </trkpt>
      <trkpt lat="27.956172" lon="-15.589155">
        <ele>1682.70</ele>
        <time>2018-02-24T15:18:01Z</time>
      </trkpt>
      <trkpt lat="27.956150" lon="-15.589179">
        <ele>1682.80</ele>
        <time>2018-02-24T15:18:04Z</time>
      </trkpt>
      <trkpt lat="27.956134" lon="-15.589198">
        <ele>1682.93</ele>
        <time>2018-02-24T15:18:06Z</time>
      </trkpt>
      <trkpt lat="27.956133" lon="-15.589223">
        <ele>1682.93</ele>
        <time>2018-02-24T15:18:09Z</time>
      </trkpt>
      <trkpt lat="27.956096" lon="-15.589324">
        <ele>1683.56</ele>
        <time>2018-02-24T15:18:17Z</time>
      </trkpt>
      <trkpt lat="27.956075" lon="-15.589435">
        <ele>1685.10</ele>
        <time>2018-02-24T15:18:25Z</time>
      </trkpt>
      <trkpt lat="27.956087" lon="-15.589536">
        <ele>1686.00</ele>
        <time>2018-02-24T15:18:34Z</time>
      </trkpt>
      <trkpt lat="27.956077" lon="-15.589580">
        <ele>1687.29</ele>
        <time>2018-02-24T15:18:38Z</time>
      </trkpt>
      <trkpt lat="27.956067" lon="-15.589619">
        <ele>1688.10</ele>
        <time>2018-02-24T15:18:42Z</time>
      </trkpt>
      <trkpt lat="27.956058" lon="-15.589640">
        <ele>1688.20</ele>
        <time>2018-02-24T15:18:44Z</time>
      </trkpt>
      <trkpt lat="27.956037" lon="-15.589655">
        <ele>1688.44</ele>
        <time>2018-02-24T15:18:46Z</time>
      </trkpt>
      <trkpt lat="27.956018" lon="-15.589668">
        <ele>1689.20</ele>
        <time>2018-02-24T15:18:48Z</time>
      </trkpt>
      <trkpt lat="27.955997" lon="-15.589683">
        <ele>1689.34</ele>
        <time>2018-02-24T15:18:50Z</time>
      </trkpt>
      <trkpt lat="27.955962" lon="-15.589702">
        <ele>1689.80</ele>
        <time>2018-02-24T15:18:52Z</time>
      </trkpt>
      <trkpt lat="27.955937" lon="-15.589714">
        <ele>1689.73</ele>
        <time>2018-02-24T15:18:54Z</time>
      </trkpt>
      <trkpt lat="27.955920" lon="-15.589726">
        <ele>1690.06</ele>
        <time>2018-02-24T15:18:56Z</time>
      </trkpt>
      <trkpt lat="27.955903" lon="-15.589738">
        <ele>1690.45</ele>
        <time>2018-02-24T15:18:58Z</time>
      </trkpt>
      <trkpt lat="27.955878" lon="-15.589736">
        <ele>1690.77</ele>
        <time>2018-02-24T15:19:01Z</time>
      </trkpt>
      <trkpt lat="27.955855" lon="-15.589733">
        <ele>1690.78</ele>
        <time>2018-02-24T15:19:04Z</time>
      </trkpt>
      <trkpt lat="27.955832" lon="-15.589746">
        <ele>1691.17</ele>
        <time>2018-02-24T15:19:08Z</time>
      </trkpt>
      <trkpt lat="27.955810" lon="-15.589749">
        <ele>1691.46</ele>
        <time>2018-02-24T15:19:10Z</time>
      </trkpt>
      <trkpt lat="27.955780" lon="-15.589760">
        <ele>1692.40</ele>
        <time>2018-02-24T15:19:12Z</time>
      </trkpt>
      <trkpt lat="27.955748" lon="-15.589769">
        <ele>1692.70</ele>
        <time>2018-02-24T15:19:14Z</time>
      </trkpt>
      <trkpt lat="27.955727" lon="-15.589784">
        <ele>1692.58</ele>
        <time>2018-02-24T15:19:16Z</time>
      </trkpt>
      <trkpt lat="27.955708" lon="-15.589795">
        <ele>1692.58</ele>
        <time>2018-02-24T15:19:18Z</time>
      </trkpt>
      <trkpt lat="27.955690" lon="-15.589815">
        <ele>1692.25</ele>
        <time>2018-02-24T15:19:20Z</time>
      </trkpt>
      <trkpt lat="27.955672" lon="-15.589833">
        <ele>1692.40</ele>
        <time>2018-02-24T15:19:22Z</time>
      </trkpt>
      <trkpt lat="27.955657" lon="-15.589849">
        <ele>1693.25</ele>
        <time>2018-02-24T15:19:25Z</time>
      </trkpt>
      <trkpt lat="27.955642" lon="-15.589863">
        <ele>1693.38</ele>
        <time>2018-02-24T15:19:28Z</time>
      </trkpt>
      <trkpt lat="27.955626" lon="-15.589873">
        <ele>1693.50</ele>
        <time>2018-02-24T15:19:30Z</time>
      </trkpt>
      <trkpt lat="27.955599" lon="-15.589876">
        <ele>1693.33</ele>
        <time>2018-02-24T15:19:33Z</time>
      </trkpt>
      <trkpt lat="27.955572" lon="-15.589882">
        <ele>1693.35</ele>
        <time>2018-02-24T15:19:35Z</time>
      </trkpt>
      <trkpt lat="27.955550" lon="-15.589890">
        <ele>1693.55</ele>
        <time>2018-02-24T15:19:37Z</time>
      </trkpt>
      <trkpt lat="27.955530" lon="-15.589888">
        <ele>1693.70</ele>
        <time>2018-02-24T15:19:39Z</time>
      </trkpt>
      <trkpt lat="27.955507" lon="-15.589900">
        <ele>1693.90</ele>
        <time>2018-02-24T15:19:42Z</time>
      </trkpt>
      <trkpt lat="27.955490" lon="-15.589912">
        <ele>1694.48</ele>
        <time>2018-02-24T15:19:44Z</time>
      </trkpt>
      <trkpt lat="27.955473" lon="-15.589933">
        <ele>1694.60</ele>
        <time>2018-02-24T15:19:46Z</time>
      </trkpt>
      <trkpt lat="27.955458" lon="-15.589950">
        <ele>1694.97</ele>
        <time>2018-02-24T15:19:48Z</time>
      </trkpt>
      <trkpt lat="27.955437" lon="-15.589951">
        <ele>1695.20</ele>
        <time>2018-02-24T15:19:50Z</time>
      </trkpt>
      <trkpt lat="27.955419" lon="-15.589960">
        <ele>1695.08</ele>
        <time>2018-02-24T15:19:53Z</time>
      </trkpt>
      <trkpt lat="27.955407" lon="-15.589977">
        <ele>1695.58</ele>
        <time>2018-02-24T15:19:56Z</time>
      </trkpt>
      <trkpt lat="27.955388" lon="-15.589986">
        <ele>1695.56</ele>
        <time>2018-02-24T15:19:58Z</time>
      </trkpt>
      <trkpt lat="27.955367" lon="-15.589999">
        <ele>1696.12</ele>
        <time>2018-02-24T15:20:00Z</time>
      </trkpt>
      <trkpt lat="27.955350" lon="-15.590025">
        <ele>1696.18</ele>
        <time>2018-02-24T15:20:03Z</time>
      </trkpt>
      <trkpt lat="27.955329" lon="-15.590033">
        <ele>1696.38</ele>
        <time>2018-02-24T15:20:06Z</time>
      </trkpt>
      <trkpt lat="27.955307" lon="-15.590041">
        <ele>1696.52</ele>
        <time>2018-02-24T15:20:08Z</time>
      </trkpt>
      <trkpt lat="27.955285" lon="-15.590069">
        <ele>1696.60</ele>
        <time>2018-02-24T15:20:12Z</time>
      </trkpt>
      <trkpt lat="27.955260" lon="-15.590084">
        <ele>1696.66</ele>
        <time>2018-02-24T15:20:14Z</time>
      </trkpt>
      <trkpt lat="27.955242" lon="-15.590103">
        <ele>1697.30</ele>
        <time>2018-02-24T15:20:16Z</time>
      </trkpt>
      <trkpt lat="27.955223" lon="-15.590114">
        <ele>1697.30</ele>
        <time>2018-02-24T15:20:19Z</time>
      </trkpt>
      <trkpt lat="27.955197" lon="-15.590122">
        <ele>1697.93</ele>
        <time>2018-02-24T15:20:22Z</time>
      </trkpt>
      <trkpt lat="27.955182" lon="-15.590140">
        <ele>1698.47</ele>
        <time>2018-02-24T15:20:24Z</time>
      </trkpt>
      <trkpt lat="27.955173" lon="-15.590166">
        <ele>1698.92</ele>
        <time>2018-02-24T15:20:26Z</time>
      </trkpt>
      <trkpt lat="27.955158" lon="-15.590185">
        <ele>1699.00</ele>
        <time>2018-02-24T15:20:28Z</time>
      </trkpt>
      <trkpt lat="27.955145" lon="-15.590200">
        <ele>1698.82</ele>
        <time>2018-02-24T15:20:30Z</time>
      </trkpt>
      <trkpt lat="27.955129" lon="-15.590220">
        <ele>1699.10</ele>
        <time>2018-02-24T15:20:33Z</time>
      </trkpt>
      <trkpt lat="27.955120" lon="-15.590250">
        <ele>1699.35</ele>
        <time>2018-02-24T15:20:36Z</time>
      </trkpt>
      <trkpt lat="27.955099" lon="-15.590275">
        <ele>1699.93</ele>
        <time>2018-02-24T15:20:39Z</time>
      </trkpt>
      <trkpt lat="27.955091" lon="-15.590294">
        <ele>1700.10</ele>
        <time>2018-02-24T15:20:41Z</time>
      </trkpt>
      <trkpt lat="27.955076" lon="-15.590318">
        <ele>1700.24</ele>
        <time>2018-02-24T15:20:43Z</time>
      </trkpt>
      <trkpt lat="27.955053" lon="-15.590377">
        <ele>1701.81</ele>
        <time>2018-02-24T15:20:50Z</time>
      </trkpt>
      <trkpt lat="27.955029" lon="-15.590405">
        <ele>1702.12</ele>
        <time>2018-02-24T15:20:54Z</time>
      </trkpt>
      <trkpt lat="27.955013" lon="-15.590513">
        <ele>1704.00</ele>
        <time>2018-02-24T15:21:05Z</time>
      </trkpt>
      <trkpt lat="27.954979" lon="-15.590580">
        <ele>1705.41</ele>
        <time>2018-02-24T15:21:11Z</time>
      </trkpt>
      <trkpt lat="27.954974" lon="-15.590605">
        <ele>1706.12</ele>
        <time>2018-02-24T15:21:14Z</time>
      </trkpt>
      <trkpt lat="27.954971" lon="-15.590626">
        <ele>1706.52</ele>
        <time>2018-02-24T15:21:16Z</time>
      </trkpt>
      <trkpt lat="27.954962" lon="-15.590654">
        <ele>1707.29</ele>
        <time>2018-02-24T15:21:18Z</time>
      </trkpt>
      <trkpt lat="27.954956" lon="-15.590680">
        <ele>1707.50</ele>
        <time>2018-02-24T15:21:22Z</time>
      </trkpt>
      <trkpt lat="27.954948" lon="-15.590698">
        <ele>1707.50</ele>
        <time>2018-02-24T15:21:24Z</time>
      </trkpt>
      <trkpt lat="27.954929" lon="-15.590735">
        <ele>1707.81</ele>
        <time>2018-02-24T15:21:27Z</time>
      </trkpt>
      <trkpt lat="27.954918" lon="-15.590764">
        <ele>1708.11</ele>
        <time>2018-02-24T15:21:29Z</time>
      </trkpt>
      <trkpt lat="27.954911" lon="-15.590790">
        <ele>1708.19</ele>
        <time>2018-02-24T15:21:31Z</time>
      </trkpt>
      <trkpt lat="27.954908" lon="-15.590902">
        <ele>1710.40</ele>
        <time>2018-02-24T15:21:42Z</time>
      </trkpt>
      <trkpt lat="27.954896" lon="-15.590938">
        <ele>1710.53</ele>
        <time>2018-02-24T15:21:46Z</time>
      </trkpt>
      <trkpt lat="27.954885" lon="-15.590960">
        <ele>1711.60</ele>
        <time>2018-02-24T15:21:49Z</time>
      </trkpt>
      <trkpt lat="27.954868" lon="-15.590983">
        <ele>1711.60</ele>
        <time>2018-02-24T15:21:51Z</time>
      </trkpt>
      <trkpt lat="27.954831" lon="-15.591040">
        <ele>1712.00</ele>
        <time>2018-02-24T15:21:56Z</time>
      </trkpt>
      <trkpt lat="27.954807" lon="-15.591088">
        <ele>1712.30</ele>
        <time>2018-02-24T15:22:01Z</time>
      </trkpt>
      <trkpt lat="27.954759" lon="-15.591194">
        <ele>1713.39</ele>
        <time>2018-02-24T15:22:10Z</time>
      </trkpt>
      <trkpt lat="27.954744" lon="-15.591251">
        <ele>1714.21</ele>
        <time>2018-02-24T15:22:15Z</time>
      </trkpt>
      <trkpt lat="27.954721" lon="-15.591357">
        <ele>1716.30</ele>
        <time>2018-02-24T15:22:25Z</time>
      </trkpt>
      <trkpt lat="27.954718" lon="-15.591383">
        <ele>1717.00</ele>
        <time>2018-02-24T15:22:27Z</time>
      </trkpt>
      <trkpt lat="27.954722" lon="-15.591403">
        <ele>1717.30</ele>
        <time>2018-02-24T15:22:29Z</time>
      </trkpt>
      <trkpt lat="27.954727" lon="-15.591431">
        <ele>1717.70</ele>
        <time>2018-02-24T15:22:31Z</time>
      </trkpt>
      <trkpt lat="27.954743" lon="-15.591454">
        <ele>1718.10</ele>
        <time>2018-02-24T15:22:34Z</time>
      </trkpt>
      <trkpt lat="27.954748" lon="-15.591475">
        <ele>1718.40</ele>
        <time>2018-02-24T15:22:36Z</time>
      </trkpt>
      <trkpt lat="27.954737" lon="-15.591498">
        <ele>1718.89</ele>
        <time>2018-02-24T15:22:39Z</time>
      </trkpt>
      <trkpt lat="27.954722" lon="-15.591512">
        <ele>1719.59</ele>
        <time>2018-02-24T15:22:41Z</time>
      </trkpt>
      <trkpt lat="27.954719" lon="-15.591541">
        <ele>1720.20</ele>
        <time>2018-02-24T15:22:44Z</time>
      </trkpt>
      <trkpt lat="27.954722" lon="-15.591561">
        <ele>1720.40</ele>
        <time>2018-02-24T15:22:46Z</time>
      </trkpt>
      <trkpt lat="27.954727" lon="-15.591590">
        <ele>1721.18</ele>
        <time>2018-02-24T15:22:48Z</time>
      </trkpt>
      <trkpt lat="27.954733" lon="-15.591620">
        <ele>1721.39</ele>
        <time>2018-02-24T15:22:50Z</time>
      </trkpt>
      <trkpt lat="27.954744" lon="-15.591651">
        <ele>1722.08</ele>
        <time>2018-02-24T15:22:52Z</time>
      </trkpt>
      <trkpt lat="27.954749" lon="-15.591684">
        <ele>1722.20</ele>
        <time>2018-02-24T15:22:55Z</time>
      </trkpt>
      <trkpt lat="27.954756" lon="-15.591704">
        <ele>1722.59</ele>
        <time>2018-02-24T15:22:57Z</time>
      </trkpt>
      <trkpt lat="27.954774" lon="-15.591723">
        <ele>1723.19</ele>
        <time>2018-02-24T15:22:59Z</time>
      </trkpt>
      <trkpt lat="27.954794" lon="-15.591751">
        <ele>1723.39</ele>
        <time>2018-02-24T15:23:01Z</time>
      </trkpt>
      <trkpt lat="27.954802" lon="-15.591773">
        <ele>1723.69</ele>
        <time>2018-02-24T15:23:03Z</time>
      </trkpt>
      <trkpt lat="27.954811" lon="-15.591799">
        <ele>1724.00</ele>
        <time>2018-02-24T15:23:06Z</time>
      </trkpt>
      <trkpt lat="27.954822" lon="-15.591828">
        <ele>1724.20</ele>
        <time>2018-02-24T15:23:09Z</time>
      </trkpt>
      <trkpt lat="27.954829" lon="-15.591847">
        <ele>1724.20</ele>
        <time>2018-02-24T15:23:11Z</time>
      </trkpt>
      <trkpt lat="27.954839" lon="-15.591870">
        <ele>1724.29</ele>
        <time>2018-02-24T15:23:13Z</time>
      </trkpt>
      <trkpt lat="27.954846" lon="-15.591896">
        <ele>1724.39</ele>
        <time>2018-02-24T15:23:15Z</time>
      </trkpt>
      <trkpt lat="27.954565" lon="-15.591735">
        <ele>1739.18</ele>
        <time>2017-12-09T10:22:02Z</time>
      </trkpt>
      <trkpt lat="27.954582" lon="-15.591752">
        <ele>1738.94</ele>
        <time>2017-12-09T10:22:03Z</time>
      </trkpt>
      <trkpt lat="27.954602" lon="-15.591765">
        <ele>1738.70</ele>
        <time>2017-12-09T10:22:04Z</time>
      </trkpt>
      <trkpt lat="27.954627" lon="-15.591781">
        <ele>1738.47</ele>
        <time>2017-12-09T10:22:05Z</time>
      </trkpt>
      <trkpt lat="27.954647" lon="-15.591796">
        <ele>1738.40</ele>
        <time>2017-12-09T10:22:06Z</time>
      </trkpt>
      <trkpt lat="27.954672" lon="-15.591810">
        <ele>1738.14</ele>
        <time>2017-12-09T10:22:07Z</time>
      </trkpt>
      <trkpt lat="27.954691" lon="-15.591828">
        <ele>1738.07</ele>
        <time>2017-12-09T10:22:08Z</time>
      </trkpt>
      <trkpt lat="27.954710" lon="-15.591844">
        <ele>1737.90</ele>
        <time>2017-12-09T10:22:09Z</time>
      </trkpt>
      <trkpt lat="27.954742" lon="-15.591857">
        <ele>1738.07</ele>
        <time>2017-12-09T10:22:11Z</time>
      </trkpt>
      <trkpt lat="27.954768" lon="-15.591869">
        <ele>1738.50</ele>
        <time>2017-12-09T10:22:13Z</time>
      </trkpt>
      <trkpt lat="27.954789" lon="-15.591867">
        <ele>1738.70</ele>
        <time>2017-12-09T10:22:15Z</time>
      </trkpt>
      <trkpt lat="27.954812" lon="-15.591881">
        <ele>1738.70</ele>
        <time>2017-12-09T10:22:18Z</time>
      </trkpt>
      <trkpt lat="27.954830" lon="-15.591891">
        <ele>1738.56</ele>
        <time>2017-12-09T10:22:20Z</time>
      </trkpt>
      <trkpt lat="27.954835" lon="-15.591911">
        <ele>1737.96</ele>
        <time>2017-12-09T10:22:23Z</time>
      </trkpt>
      <trkpt lat="27.954818" lon="-15.591928">
        <ele>1737.90</ele>
        <time>2017-12-09T10:22:25Z</time>
      </trkpt>
      <trkpt lat="27.954796" lon="-15.591950">
        <ele>1738.04</ele>
        <time>2017-12-09T10:22:27Z</time>
      </trkpt>
      <trkpt lat="27.954769" lon="-15.591961">
        <ele>1738.27</ele>
        <time>2017-12-09T10:22:29Z</time>
      </trkpt>
      <trkpt lat="27.954744" lon="-15.591976">
        <ele>1738.30</ele>
        <time>2017-12-09T10:22:31Z</time>
      </trkpt>
      <trkpt lat="27.954719" lon="-15.591987">
        <ele>1738.30</ele>
        <time>2017-12-09T10:22:33Z</time>
      </trkpt>
      <trkpt lat="27.954701" lon="-15.591993">
        <ele>1738.30</ele>
        <time>2017-12-09T10:22:34Z</time>
      </trkpt>
      <trkpt lat="27.954671" lon="-15.591993">
        <ele>1738.20</ele>
        <time>2017-12-09T10:22:36Z</time>
      </trkpt>
      <trkpt lat="27.954648" lon="-15.592001">
        <ele>1737.82</ele>
        <time>2017-12-09T10:22:38Z</time>
      </trkpt>
      <trkpt lat="27.954634" lon="-15.592021">
        <ele>1737.63</ele>
        <time>2017-12-09T10:22:40Z</time>
      </trkpt>
      <trkpt lat="27.954631" lon="-15.592043">
        <ele>1737.53</ele>
        <time>2017-12-09T10:22:42Z</time>
      </trkpt>
      <trkpt lat="27.954623" lon="-15.592079">
        <ele>1736.93</ele>
        <time>2017-12-09T10:22:44Z</time>
      </trkpt>
      <trkpt lat="27.954606" lon="-15.592100">
        <ele>1736.28</ele>
        <time>2017-12-09T10:22:46Z</time>
      </trkpt>
      <trkpt lat="27.954581" lon="-15.592118">
        <ele>1735.63</ele>
        <time>2017-12-09T10:22:48Z</time>
      </trkpt>
      <trkpt lat="27.954551" lon="-15.592131">
        <ele>1734.00</ele>
        <time>2017-12-09T10:22:50Z</time>
      </trkpt>
      <trkpt lat="27.954521" lon="-15.592133">
        <ele>1732.83</ele>
        <time>2017-12-09T10:22:52Z</time>
      </trkpt>
      <trkpt lat="27.954422" lon="-15.592148">
        <ele>1731.52</ele>
        <time>2017-12-09T10:22:57Z</time>
      </trkpt>
      <trkpt lat="27.954350" lon="-15.592182">
        <ele>1730.47</ele>
        <time>2017-12-09T10:23:00Z</time>
      </trkpt>
      <trkpt lat="27.954255" lon="-15.592203">
        <ele>1728.35</ele>
        <time>2017-12-09T10:23:05Z</time>
      </trkpt>
      <trkpt lat="27.954163" lon="-15.592229">
        <ele>1726.11</ele>
        <time>2017-12-09T10:23:09Z</time>
      </trkpt>
      <trkpt lat="27.954058" lon="-15.592268">
        <ele>1724.70</ele>
        <time>2017-12-09T10:23:13Z</time>
      </trkpt>
      <trkpt lat="27.954025" lon="-15.592276">
        <ele>1723.24</ele>
        <time>2017-12-09T10:23:14Z</time>
      </trkpt>
      <trkpt lat="27.953997" lon="-15.592281">
        <ele>1722.90</ele>
        <time>2017-12-09T10:23:15Z</time>
      </trkpt>
      <trkpt lat="27.953886" lon="-15.592327">
        <ele>1721.89</ele>
        <time>2017-12-09T10:23:19Z</time>
      </trkpt>
      <trkpt lat="27.953860" lon="-15.592335">
        <ele>1720.70</ele>
        <time>2017-12-09T10:23:20Z</time>
      </trkpt>
      <trkpt lat="27.953831" lon="-15.592344">
        <ele>1720.32</ele>
        <time>2017-12-09T10:23:21Z</time>
      </trkpt>
      <trkpt lat="27.953805" lon="-15.592357">
        <ele>1720.14</ele>
        <time>2017-12-09T10:23:22Z</time>
      </trkpt>
      <trkpt lat="27.953708" lon="-15.592415">
        <ele>1717.94</ele>
        <time>2017-12-09T10:23:26Z</time>
      </trkpt>
      <trkpt lat="27.953608" lon="-15.592483">
        <ele>1717.12</ele>
        <time>2017-12-09T10:23:30Z</time>
      </trkpt>
      <trkpt lat="27.953586" lon="-15.592497">
        <ele>1717.25</ele>
        <time>2017-12-09T10:23:31Z</time>
      </trkpt>
      <trkpt lat="27.953564" lon="-15.592510">
        <ele>1717.05</ele>
        <time>2017-12-09T10:23:32Z</time>
      </trkpt>
      <trkpt lat="27.953488" lon="-15.592571">
        <ele>1716.00</ele>
        <time>2017-12-09T10:23:36Z</time>
      </trkpt>
      <trkpt lat="27.953413" lon="-15.592659">
        <ele>1716.20</ele>
        <time>2017-12-09T10:23:40Z</time>
      </trkpt>
      <trkpt lat="27.953395" lon="-15.592681">
        <ele>1716.28</ele>
        <time>2017-12-09T10:23:41Z</time>
      </trkpt>
      <trkpt lat="27.953359" lon="-15.592726">
        <ele>1715.88</ele>
        <time>2017-12-09T10:23:43Z</time>
      </trkpt>
      <trkpt lat="27.953339" lon="-15.592748">
        <ele>1715.72</ele>
        <time>2017-12-09T10:23:44Z</time>
      </trkpt>
      <trkpt lat="27.953316" lon="-15.592762">
        <ele>1715.70</ele>
        <time>2017-12-09T10:23:45Z</time>
      </trkpt>
      <trkpt lat="27.953266" lon="-15.592789">
        <ele>1714.79</ele>
        <time>2017-12-09T10:23:47Z</time>
      </trkpt>
      <trkpt lat="27.953241" lon="-15.592805">
        <ele>1714.27</ele>
        <time>2017-12-09T10:23:48Z</time>
      </trkpt>
      <trkpt lat="27.953217" lon="-15.592823">
        <ele>1714.20</ele>
        <time>2017-12-09T10:23:49Z</time>
      </trkpt>
      <trkpt lat="27.953201" lon="-15.592840">
        <ele>1713.77</ele>
        <time>2017-12-09T10:23:50Z</time>
      </trkpt>
      <trkpt lat="27.953185" lon="-15.592856">
        <ele>1713.70</ele>
        <time>2017-12-09T10:23:51Z</time>
      </trkpt>
      <trkpt lat="27.953171" lon="-15.592870">
        <ele>1713.27</ele>
        <time>2017-12-09T10:23:52Z</time>
      </trkpt>
      <trkpt lat="27.953152" lon="-15.592891">
        <ele>1713.20</ele>
        <time>2017-12-09T10:23:53Z</time>
      </trkpt>
      <trkpt lat="27.953137" lon="-15.592907">
        <ele>1712.94</ele>
        <time>2017-12-09T10:23:54Z</time>
      </trkpt>
      <trkpt lat="27.953118" lon="-15.592932">
        <ele>1712.73</ele>
        <time>2017-12-09T10:23:55Z</time>
      </trkpt>
      <trkpt lat="27.953099" lon="-15.592954">
        <ele>1711.92</ele>
        <time>2017-12-09T10:23:56Z</time>
      </trkpt>
      <trkpt lat="27.953078" lon="-15.592973">
        <ele>1711.63</ele>
        <time>2017-12-09T10:23:57Z</time>
      </trkpt>
      <trkpt lat="27.953054" lon="-15.592990">
        <ele>1710.99</ele>
        <time>2017-12-09T10:23:58Z</time>
      </trkpt>
      <trkpt lat="27.952996" lon="-15.593027">
        <ele>1710.10</ele>
        <time>2017-12-09T10:24:00Z</time>
      </trkpt>
      <trkpt lat="27.952971" lon="-15.593040">
        <ele>1708.96</ele>
        <time>2017-12-09T10:24:01Z</time>
      </trkpt>
      <trkpt lat="27.952949" lon="-15.593051">
        <ele>1708.80</ele>
        <time>2017-12-09T10:24:02Z</time>
      </trkpt>
      <trkpt lat="27.952926" lon="-15.593064">
        <ele>1708.80</ele>
        <time>2017-12-09T10:24:03Z</time>
      </trkpt>
      <trkpt lat="27.952902" lon="-15.593077">
        <ele>1708.10</ele>
        <time>2017-12-09T10:24:04Z</time>
      </trkpt>
      <trkpt lat="27.952875" lon="-15.593089">
        <ele>1708.00</ele>
        <time>2017-12-09T10:24:05Z</time>
      </trkpt>
      <trkpt lat="27.952854" lon="-15.593099">
        <ele>1708.00</ele>
        <time>2017-12-09T10:24:06Z</time>
      </trkpt>
      <trkpt lat="27.952834" lon="-15.593107">
        <ele>1707.74</ele>
        <time>2017-12-09T10:24:07Z</time>
      </trkpt>
      <trkpt lat="27.952814" lon="-15.593124">
        <ele>1707.43</ele>
        <time>2017-12-09T10:24:08Z</time>
      </trkpt>
      <trkpt lat="27.952802" lon="-15.593145">
        <ele>1706.78</ele>
        <time>2017-12-09T10:24:09Z</time>
      </trkpt>
      <trkpt lat="27.952802" lon="-15.593182">
        <ele>1705.93</ele>
        <time>2017-12-09T10:24:11Z</time>
      </trkpt>
      <trkpt lat="27.952791" lon="-15.593204">
        <ele>1705.53</ele>
        <time>2017-12-09T10:24:13Z</time>
      </trkpt>
      <trkpt lat="27.952764" lon="-15.593224">
        <ele>1704.23</ele>
        <time>2017-12-09T10:24:15Z</time>
      </trkpt>
      <trkpt lat="27.952735" lon="-15.593236">
        <ele>1703.72</ele>
        <time>2017-12-09T10:24:17Z</time>
      </trkpt>
      <trkpt lat="27.952709" lon="-15.593261">
        <ele>1702.89</ele>
        <time>2017-12-09T10:24:19Z</time>
      </trkpt>
      <trkpt lat="27.952694" lon="-15.593278">
        <ele>1702.99</ele>
        <time>2017-12-09T10:24:20Z</time>
      </trkpt>
      <trkpt lat="27.952680" lon="-15.593297">
        <ele>1702.26</ele>
        <time>2017-12-09T10:24:21Z</time>
      </trkpt>
      <trkpt lat="27.952650" lon="-15.593346">
        <ele>1700.81</ele>
        <time>2017-12-09T10:24:23Z</time>
      </trkpt>
      <trkpt lat="27.952636" lon="-15.593377">
        <ele>1699.87</ele>
        <time>2017-12-09T10:24:24Z</time>
      </trkpt>
      <trkpt lat="27.952622" lon="-15.593399">
        <ele>1699.71</ele>
        <time>2017-12-09T10:24:25Z</time>
      </trkpt>
      <trkpt lat="27.952601" lon="-15.593423">
        <ele>1699.70</ele>
        <time>2017-12-09T10:24:26Z</time>
      </trkpt>
      <trkpt lat="27.952573" lon="-15.593444">
        <ele>1699.70</ele>
        <time>2017-12-09T10:24:27Z</time>
      </trkpt>
      <trkpt lat="27.952545" lon="-15.593467">
        <ele>1698.47</ele>
        <time>2017-12-09T10:24:28Z</time>
      </trkpt>
      <trkpt lat="27.952520" lon="-15.593486">
        <ele>1698.40</ele>
        <time>2017-12-09T10:24:29Z</time>
      </trkpt>
      <trkpt lat="27.952496" lon="-15.593488">
        <ele>1698.40</ele>
        <time>2017-12-09T10:24:30Z</time>
      </trkpt>
      <trkpt lat="27.952469" lon="-15.593493">
        <ele>1698.21</ele>
        <time>2017-12-09T10:24:31Z</time>
      </trkpt>
      <trkpt lat="27.952440" lon="-15.593502">
        <ele>1698.30</ele>
        <time>2017-12-09T10:24:32Z</time>
      </trkpt>
      <trkpt lat="27.952352" lon="-15.593535">
        <ele>1698.50</ele>
        <time>2017-12-09T10:24:35Z</time>
      </trkpt>
      <trkpt lat="27.952323" lon="-15.593547">
        <ele>1698.60</ele>
        <time>2017-12-09T10:24:36Z</time>
      </trkpt>
      <trkpt lat="27.952225" lon="-15.593589">
        <ele>1697.50</ele>
        <time>2017-12-09T10:24:40Z</time>
      </trkpt>
      <trkpt lat="27.952178" lon="-15.593617">
        <ele>1696.01</ele>
        <time>2017-12-09T10:24:42Z</time>
      </trkpt>
      <trkpt lat="27.952163" lon="-15.593638">
        <ele>1696.10</ele>
        <time>2017-12-09T10:24:43Z</time>
      </trkpt>
      <trkpt lat="27.952081" lon="-15.593724">
        <ele>1695.70</ele>
        <time>2017-12-09T10:24:48Z</time>
      </trkpt>
      <trkpt lat="27.952020" lon="-15.593832">
        <ele>1695.50</ele>
        <time>2017-12-09T10:24:52Z</time>
      </trkpt>
      <trkpt lat="27.952008" lon="-15.593862">
        <ele>1695.50</ele>
        <time>2017-12-09T10:24:53Z</time>
      </trkpt>
      <trkpt lat="27.952000" lon="-15.593894">
        <ele>1695.10</ele>
        <time>2017-12-09T10:24:54Z</time>
      </trkpt>
      <trkpt lat="27.951988" lon="-15.593924">
        <ele>1695.20</ele>
        <time>2017-12-09T10:24:55Z</time>
      </trkpt>
      <trkpt lat="27.951972" lon="-15.593948">
        <ele>1695.20</ele>
        <time>2017-12-09T10:24:56Z</time>
      </trkpt>
      <trkpt lat="27.951956" lon="-15.593978">
        <ele>1695.20</ele>
        <time>2017-12-09T10:24:57Z</time>
      </trkpt>
      <trkpt lat="27.951945" lon="-15.594010">
        <ele>1695.20</ele>
        <time>2017-12-09T10:24:58Z</time>
      </trkpt>
      <trkpt lat="27.951932" lon="-15.594034">
        <ele>1695.20</ele>
        <time>2017-12-09T10:24:59Z</time>
      </trkpt>
      <trkpt lat="27.951919" lon="-15.594061">
        <ele>1694.42</ele>
        <time>2017-12-09T10:25:00Z</time>
      </trkpt>
      <trkpt lat="27.951904" lon="-15.594085">
        <ele>1694.11</ele>
        <time>2017-12-09T10:25:01Z</time>
      </trkpt>
      <trkpt lat="27.951889" lon="-15.594112">
        <ele>1694.39</ele>
        <time>2017-12-09T10:25:02Z</time>
      </trkpt>
      <trkpt lat="27.951873" lon="-15.594137">
        <ele>1694.10</ele>
        <time>2017-12-09T10:25:03Z</time>
      </trkpt>
      <trkpt lat="27.951858" lon="-15.594161">
        <ele>1694.10</ele>
        <time>2017-12-09T10:25:04Z</time>
      </trkpt>
      <trkpt lat="27.951843" lon="-15.594182">
        <ele>1693.63</ele>
        <time>2017-12-09T10:25:05Z</time>
      </trkpt>
      <trkpt lat="27.951827" lon="-15.594205">
        <ele>1693.39</ele>
        <time>2017-12-09T10:25:06Z</time>
      </trkpt>
      <trkpt lat="27.951813" lon="-15.594228">
        <ele>1693.40</ele>
        <time>2017-12-09T10:25:07Z</time>
      </trkpt>
      <trkpt lat="27.951799" lon="-15.594249">
        <ele>1693.40</ele>
        <time>2017-12-09T10:25:08Z</time>
      </trkpt>
      <trkpt lat="27.951792" lon="-15.594272">
        <ele>1693.40</ele>
        <time>2017-12-09T10:25:09Z</time>
      </trkpt>
      <trkpt lat="27.951786" lon="-15.594294">
        <ele>1693.21</ele>
        <time>2017-12-09T10:25:10Z</time>
      </trkpt>
      <trkpt lat="27.951772" lon="-15.594317">
        <ele>1693.20</ele>
        <time>2017-12-09T10:25:11Z</time>
      </trkpt>
      <trkpt lat="27.951755" lon="-15.594340">
        <ele>1693.20</ele>
        <time>2017-12-09T10:25:12Z</time>
      </trkpt>
      <trkpt lat="27.951739" lon="-15.594364">
        <ele>1693.20</ele>
        <time>2017-12-09T10:25:13Z</time>
      </trkpt>
      <trkpt lat="27.951724" lon="-15.594391">
        <ele>1692.91</ele>
        <time>2017-12-09T10:25:14Z</time>
      </trkpt>
      <trkpt lat="27.951716" lon="-15.594413">
        <ele>1692.32</ele>
        <time>2017-12-09T10:25:15Z</time>
      </trkpt>
      <trkpt lat="27.951706" lon="-15.594434">
        <ele>1692.11</ele>
        <time>2017-12-09T10:25:16Z</time>
      </trkpt>
      <trkpt lat="27.951694" lon="-15.594460">
        <ele>1691.81</ele>
        <time>2017-12-09T10:25:17Z</time>
      </trkpt>
      <trkpt lat="27.951681" lon="-15.594482">
        <ele>1691.70</ele>
        <time>2017-12-09T10:25:18Z</time>
      </trkpt>
      <trkpt lat="27.951670" lon="-15.594504">
        <ele>1690.25</ele>
        <time>2017-12-09T10:25:19Z</time>
      </trkpt>
      <trkpt lat="27.951612" lon="-15.594579">
        <ele>1691.57</ele>
        <time>2017-12-09T10:25:22Z</time>
      </trkpt>
      <trkpt lat="27.951576" lon="-15.594598">
        <ele>1690.00</ele>
        <time>2017-12-09T10:25:24Z</time>
      </trkpt>
      <trkpt lat="27.951558" lon="-15.594611">
        <ele>1689.61</ele>
        <time>2017-12-09T10:25:25Z</time>
      </trkpt>
      <trkpt lat="27.951542" lon="-15.594625">
        <ele>1689.60</ele>
        <time>2017-12-09T10:25:26Z</time>
      </trkpt>
      <trkpt lat="27.951525" lon="-15.594656">
        <ele>1689.70</ele>
        <time>2017-12-09T10:25:27Z</time>
      </trkpt>
      <trkpt lat="27.951512" lon="-15.594681">
        <ele>1688.70</ele>
        <time>2017-12-09T10:25:28Z</time>
      </trkpt>
      <trkpt lat="27.951501" lon="-15.594713">
        <ele>1688.70</ele>
        <time>2017-12-09T10:25:29Z</time>
      </trkpt>
      <trkpt lat="27.951488" lon="-15.594739">
        <ele>1688.80</ele>
        <time>2017-12-09T10:25:30Z</time>
      </trkpt>
      <trkpt lat="27.951472" lon="-15.594762">
        <ele>1688.80</ele>
        <time>2017-12-09T10:25:31Z</time>
      </trkpt>
      <trkpt lat="27.951452" lon="-15.594776">
        <ele>1688.90</ele>
        <time>2017-12-09T10:25:32Z</time>
      </trkpt>
      <trkpt lat="27.951433" lon="-15.594792">
        <ele>1688.94</ele>
        <time>2017-12-09T10:25:33Z</time>
      </trkpt>
      <trkpt lat="27.951400" lon="-15.594820">
        <ele>1688.73</ele>
        <time>2017-12-09T10:25:35Z</time>
      </trkpt>
      <trkpt lat="27.951382" lon="-15.594830">
        <ele>1689.46</ele>
        <time>2017-12-09T10:25:36Z</time>
      </trkpt>
      <trkpt lat="27.951326" lon="-15.594854">
        <ele>1687.85</ele>
        <time>2017-12-09T10:25:39Z</time>
      </trkpt>
      <trkpt lat="27.951304" lon="-15.594871">
        <ele>1688.85</ele>
        <time>2017-12-09T10:25:40Z</time>
      </trkpt>
      <trkpt lat="27.951282" lon="-15.594892">
        <ele>1687.84</ele>
        <time>2017-12-09T10:25:41Z</time>
      </trkpt>
      <trkpt lat="27.951262" lon="-15.594920">
        <ele>1688.84</ele>
        <time>2017-12-09T10:25:42Z</time>
      </trkpt>
      <trkpt lat="27.951246" lon="-15.594950">
        <ele>1687.67</ele>
        <time>2017-12-09T10:25:43Z</time>
      </trkpt>
      <trkpt lat="27.951183" lon="-15.594990">
        <ele>1686.72</ele>
        <time>2017-12-09T10:25:47Z</time>
      </trkpt>
      <trkpt lat="27.951169" lon="-15.594974">
        <ele>1686.98</ele>
        <time>2017-12-09T10:25:48Z</time>
      </trkpt>
      <trkpt lat="27.951151" lon="-15.594968">
        <ele>1686.65</ele>
        <time>2017-12-09T10:25:49Z</time>
      </trkpt>
      <trkpt lat="27.951108" lon="-15.594968">
        <ele>1685.52</ele>
        <time>2017-12-09T10:25:51Z</time>
      </trkpt>
      <trkpt lat="27.951005" lon="-15.594996">
        <ele>1685.06</ele>
        <time>2017-12-09T10:25:55Z</time>
      </trkpt>
      <trkpt lat="27.950950" lon="-15.595009">
        <ele>1683.51</ele>
        <time>2017-12-09T10:25:58Z</time>
      </trkpt>
      <trkpt lat="27.950929" lon="-15.595016">
        <ele>1683.60</ele>
        <time>2017-12-09T10:25:59Z</time>
      </trkpt>
      <trkpt lat="27.950909" lon="-15.595029">
        <ele>1683.60</ele>
        <time>2017-12-09T10:26:00Z</time>
      </trkpt>
      <trkpt lat="27.950887" lon="-15.595041">
        <ele>1683.61</ele>
        <time>2017-12-09T10:26:01Z</time>
      </trkpt>
      <trkpt lat="27.950867" lon="-15.595048">
        <ele>1683.68</ele>
        <time>2017-12-09T10:26:02Z</time>
      </trkpt>
      <trkpt lat="27.950848" lon="-15.595052">
        <ele>1683.50</ele>
        <time>2017-12-09T10:26:03Z</time>
      </trkpt>
      <trkpt lat="27.950826" lon="-15.595060">
        <ele>1683.50</ele>
        <time>2017-12-09T10:26:04Z</time>
      </trkpt>
      <trkpt lat="27.950804" lon="-15.595076">
        <ele>1683.50</ele>
        <time>2017-12-09T10:26:05Z</time>
      </trkpt>
      <trkpt lat="27.950784" lon="-15.595090">
        <ele>1683.50</ele>
        <time>2017-12-09T10:26:06Z</time>
      </trkpt>
      <trkpt lat="27.950764" lon="-15.595103">
        <ele>1683.50</ele>
        <time>2017-12-09T10:26:07Z</time>
      </trkpt>
      <trkpt lat="27.950742" lon="-15.595114">
        <ele>1683.50</ele>
        <time>2017-12-09T10:26:08Z</time>
      </trkpt>
      <trkpt lat="27.950720" lon="-15.595119">
        <ele>1683.50</ele>
        <time>2017-12-09T10:26:09Z</time>
      </trkpt>
      <trkpt lat="27.950700" lon="-15.595130">
        <ele>1683.50</ele>
        <time>2017-12-09T10:26:10Z</time>
      </trkpt>
      <trkpt lat="27.950683" lon="-15.595151">
        <ele>1683.50</ele>
        <time>2017-12-09T10:26:11Z</time>
      </trkpt>
      <trkpt lat="27.950664" lon="-15.595173">
        <ele>1683.39</ele>
        <time>2017-12-09T10:26:12Z</time>
      </trkpt>
      <trkpt lat="27.950642" lon="-15.595191">
        <ele>1682.90</ele>
        <time>2017-12-09T10:26:13Z</time>
      </trkpt>
      <trkpt lat="27.950621" lon="-15.595204">
        <ele>1682.79</ele>
        <time>2017-12-09T10:26:14Z</time>
      </trkpt>
      <trkpt lat="27.950599" lon="-15.595215">
        <ele>1682.30</ele>
        <time>2017-12-09T10:26:15Z</time>
      </trkpt>
      <trkpt lat="27.950581" lon="-15.595224">
        <ele>1682.38</ele>
        <time>2017-12-09T10:26:16Z</time>
      </trkpt>
      <trkpt lat="27.950558" lon="-15.595231">
        <ele>1682.70</ele>
        <time>2017-12-09T10:26:17Z</time>
      </trkpt>
      <trkpt lat="27.950537" lon="-15.595236">
        <ele>1682.70</ele>
        <time>2017-12-09T10:26:18Z</time>
      </trkpt>
      <trkpt lat="27.950517" lon="-15.595239">
        <ele>1682.62</ele>
        <time>2017-12-09T10:26:19Z</time>
      </trkpt>
      <trkpt lat="27.950496" lon="-15.595241">
        <ele>1682.30</ele>
        <time>2017-12-09T10:26:20Z</time>
      </trkpt>
      <trkpt lat="27.950476" lon="-15.595249">
        <ele>1682.38</ele>
        <time>2017-12-09T10:26:21Z</time>
      </trkpt>
      <trkpt lat="27.950457" lon="-15.595257">
        <ele>1682.55</ele>
        <time>2017-12-09T10:26:22Z</time>
      </trkpt>
      <trkpt lat="27.950439" lon="-15.595262">
        <ele>1682.00</ele>
        <time>2017-12-09T10:26:23Z</time>
      </trkpt>
      <trkpt lat="27.950402" lon="-15.595273">
        <ele>1681.82</ele>
        <time>2017-12-09T10:26:25Z</time>
      </trkpt>
      <trkpt lat="27.950379" lon="-15.595282">
        <ele>1681.15</ele>
        <time>2017-12-09T10:26:26Z</time>
      </trkpt>
      <trkpt lat="27.950352" lon="-15.595293">
        <ele>1681.00</ele>
        <time>2017-12-09T10:26:27Z</time>
      </trkpt>
      <trkpt lat="27.950333" lon="-15.595298">
        <ele>1680.93</ele>
        <time>2017-12-09T10:26:28Z</time>
      </trkpt>
      <trkpt lat="27.950318" lon="-15.595315">
        <ele>1680.70</ele>
        <time>2017-12-09T10:26:29Z</time>
      </trkpt>
      <trkpt lat="27.950305" lon="-15.595336">
        <ele>1680.55</ele>
        <time>2017-12-09T10:26:30Z</time>
      </trkpt>
      <trkpt lat="27.950289" lon="-15.595370">
        <ele>1680.10</ele>
        <time>2017-12-09T10:26:32Z</time>
      </trkpt>
      <trkpt lat="27.950261" lon="-15.595395">
        <ele>1679.94</ele>
        <time>2017-12-09T10:26:34Z</time>
      </trkpt>
      <trkpt lat="27.950236" lon="-15.595412">
        <ele>1679.50</ele>
        <time>2017-12-09T10:26:35Z</time>
      </trkpt>
      <trkpt lat="27.950214" lon="-15.595427">
        <ele>1679.45</ele>
        <time>2017-12-09T10:26:36Z</time>
      </trkpt>
      <trkpt lat="27.950193" lon="-15.595441">
        <ele>1679.27</ele>
        <time>2017-12-09T10:26:37Z</time>
      </trkpt>
      <trkpt lat="27.950172" lon="-15.595451">
        <ele>1678.91</ele>
        <time>2017-12-09T10:26:38Z</time>
      </trkpt>
      <trkpt lat="27.950147" lon="-15.595463">
        <ele>1678.23</ele>
        <time>2017-12-09T10:26:39Z</time>
      </trkpt>
      <trkpt lat="27.950125" lon="-15.595477">
        <ele>1678.04</ele>
        <time>2017-12-09T10:26:40Z</time>
      </trkpt>
      <trkpt lat="27.950102" lon="-15.595490">
        <ele>1677.40</ele>
        <time>2017-12-09T10:26:41Z</time>
      </trkpt>
      <trkpt lat="27.950082" lon="-15.595502">
        <ele>1677.40</ele>
        <time>2017-12-09T10:26:42Z</time>
      </trkpt>
      <trkpt lat="27.950057" lon="-15.595516">
        <ele>1677.55</ele>
        <time>2017-12-09T10:26:43Z</time>
      </trkpt>
      <trkpt lat="27.950036" lon="-15.595530">
        <ele>1677.78</ele>
        <time>2017-12-09T10:26:44Z</time>
      </trkpt>
      <trkpt lat="27.950014" lon="-15.595539">
        <ele>1677.38</ele>
        <time>2017-12-09T10:26:45Z</time>
      </trkpt>
      <trkpt lat="27.949990" lon="-15.595555">
        <ele>1677.10</ele>
        <time>2017-12-09T10:26:46Z</time>
      </trkpt>
      <trkpt lat="27.949968" lon="-15.595573">
        <ele>1677.10</ele>
        <time>2017-12-09T10:26:47Z</time>
      </trkpt>
      <trkpt lat="27.949946" lon="-15.595593">
        <ele>1677.13</ele>
        <time>2017-12-09T10:26:48Z</time>
      </trkpt>
      <trkpt lat="27.949926" lon="-15.595610">
        <ele>1677.20</ele>
        <time>2017-12-09T10:26:49Z</time>
      </trkpt>
      <trkpt lat="27.949906" lon="-15.595628">
        <ele>1677.20</ele>
        <time>2017-12-09T10:26:50Z</time>
      </trkpt>
      <trkpt lat="27.949889" lon="-15.595638">
        <ele>1677.20</ele>
        <time>2017-12-09T10:26:51Z</time>
      </trkpt>
      <trkpt lat="27.949874" lon="-15.595651">
        <ele>1677.20</ele>
        <time>2017-12-09T10:26:52Z</time>
      </trkpt>
      <trkpt lat="27.949853" lon="-15.595659">
        <ele>1677.20</ele>
        <time>2017-12-09T10:26:53Z</time>
      </trkpt>
      <trkpt lat="27.949830" lon="-15.595666">
        <ele>1677.20</ele>
        <time>2017-12-09T10:26:54Z</time>
      </trkpt>
      <trkpt lat="27.949809" lon="-15.595667">
        <ele>1677.20</ele>
        <time>2017-12-09T10:26:55Z</time>
      </trkpt>
      <trkpt lat="27.949788" lon="-15.595668">
        <ele>1677.01</ele>
        <time>2017-12-09T10:26:56Z</time>
      </trkpt>
      <trkpt lat="27.949766" lon="-15.595680">
        <ele>1676.60</ele>
        <time>2017-12-09T10:26:57Z</time>
      </trkpt>
      <trkpt lat="27.949752" lon="-15.595700">
        <ele>1676.60</ele>
        <time>2017-12-09T10:26:58Z</time>
      </trkpt>
      <trkpt lat="27.949702" lon="-15.595798">
        <ele>1675.50</ele>
        <time>2017-12-09T10:27:02Z</time>
      </trkpt>
      <trkpt lat="27.949655" lon="-15.595915">
        <ele>1675.53</ele>
        <time>2017-12-09T10:27:06Z</time>
      </trkpt>
      <trkpt lat="27.949642" lon="-15.595996">
        <ele>1675.40</ele>
        <time>2017-12-09T10:27:09Z</time>
      </trkpt>
      <trkpt lat="27.949646" lon="-15.596103">
        <ele>1675.40</ele>
        <time>2017-12-09T10:27:13Z</time>
      </trkpt>
      <trkpt lat="27.949565" lon="-15.596163">
        <ele>1673.80</ele>
        <time>2017-12-09T10:27:18Z</time>
      </trkpt>
      <trkpt lat="27.949470" lon="-15.596208">
        <ele>1673.60</ele>
        <time>2017-12-09T10:27:23Z</time>
      </trkpt>
      <trkpt lat="27.949400" lon="-15.596285">
        <ele>1673.60</ele>
        <time>2017-12-09T10:27:27Z</time>
      </trkpt>
      <trkpt lat="27.949336" lon="-15.596357">
        <ele>1672.52</ele>
        <time>2017-12-09T10:27:31Z</time>
      </trkpt>
      <trkpt lat="27.949303" lon="-15.596387">
        <ele>1672.20</ele>
        <time>2017-12-09T10:27:33Z</time>
      </trkpt>
      <trkpt lat="27.949228" lon="-15.596457">
        <ele>1672.80</ele>
        <time>2017-12-09T10:27:37Z</time>
      </trkpt>
      <trkpt lat="27.949206" lon="-15.596474">
        <ele>1672.80</ele>
        <time>2017-12-09T10:27:38Z</time>
      </trkpt>
      <trkpt lat="27.949185" lon="-15.596484">
        <ele>1672.80</ele>
        <time>2017-12-09T10:27:39Z</time>
      </trkpt>
      <trkpt lat="27.949161" lon="-15.596500">
        <ele>1672.80</ele>
        <time>2017-12-09T10:27:40Z</time>
      </trkpt>
      <trkpt lat="27.949138" lon="-15.596517">
        <ele>1672.23</ele>
        <time>2017-12-09T10:27:41Z</time>
      </trkpt>
      <trkpt lat="27.949119" lon="-15.596538">
        <ele>1672.18</ele>
        <time>2017-12-09T10:27:42Z</time>
      </trkpt>
      <trkpt lat="27.949105" lon="-15.596553">
        <ele>1672.17</ele>
        <time>2017-12-09T10:27:43Z</time>
      </trkpt>
      <trkpt lat="27.949087" lon="-15.596569">
        <ele>1671.50</ele>
        <time>2017-12-09T10:27:44Z</time>
      </trkpt>
      <trkpt lat="27.949072" lon="-15.596588">
        <ele>1671.35</ele>
        <time>2017-12-09T10:27:45Z</time>
      </trkpt>
      <trkpt lat="27.949052" lon="-15.596612">
        <ele>1671.20</ele>
        <time>2017-12-09T10:27:46Z</time>
      </trkpt>
      <trkpt lat="27.949036" lon="-15.596632">
        <ele>1671.55</ele>
        <time>2017-12-09T10:27:47Z</time>
      </trkpt>
      <trkpt lat="27.949020" lon="-15.596648">
        <ele>1672.25</ele>
        <time>2017-12-09T10:27:48Z</time>
      </trkpt>
      <trkpt lat="27.948989" lon="-15.596676">
        <ele>1672.25</ele>
        <time>2017-12-09T10:27:50Z</time>
      </trkpt>
      <trkpt lat="27.948972" lon="-15.596700">
        <ele>1672.60</ele>
        <time>2017-12-09T10:27:51Z</time>
      </trkpt>
      <trkpt lat="27.948957" lon="-15.596722">
        <ele>1672.60</ele>
        <time>2017-12-09T10:27:52Z</time>
      </trkpt>
      <trkpt lat="27.948942" lon="-15.596741">
        <ele>1672.60</ele>
        <time>2017-12-09T10:27:53Z</time>
      </trkpt>
      <trkpt lat="27.948922" lon="-15.596754">
        <ele>1672.60</ele>
        <time>2017-12-09T10:27:54Z</time>
      </trkpt>
      <trkpt lat="27.948900" lon="-15.596759">
        <ele>1672.65</ele>
        <time>2017-12-09T10:27:55Z</time>
      </trkpt>
      <trkpt lat="27.948879" lon="-15.596758">
        <ele>1672.70</ele>
        <time>2017-12-09T10:27:56Z</time>
      </trkpt>
      <trkpt lat="27.948856" lon="-15.596757">
        <ele>1672.59</ele>
        <time>2017-12-09T10:27:57Z</time>
      </trkpt>
      <trkpt lat="27.948837" lon="-15.596766">
        <ele>1672.17</ele>
        <time>2017-12-09T10:27:58Z</time>
      </trkpt>
      <trkpt lat="27.948819" lon="-15.596775">
        <ele>1671.57</ele>
        <time>2017-12-09T10:27:59Z</time>
      </trkpt>
      <trkpt lat="27.948800" lon="-15.596783">
        <ele>1671.30</ele>
        <time>2017-12-09T10:28:00Z</time>
      </trkpt>
      <trkpt lat="27.948778" lon="-15.596787">
        <ele>1671.30</ele>
        <time>2017-12-09T10:28:01Z</time>
      </trkpt>
      <trkpt lat="27.948753" lon="-15.596795">
        <ele>1671.30</ele>
        <time>2017-12-09T10:28:02Z</time>
      </trkpt>
      <trkpt lat="27.948731" lon="-15.596804">
        <ele>1671.30</ele>
        <time>2017-12-09T10:28:03Z</time>
      </trkpt>
      <trkpt lat="27.948705" lon="-15.596809">
        <ele>1671.30</ele>
        <time>2017-12-09T10:28:04Z</time>
      </trkpt>
      <trkpt lat="27.948682" lon="-15.596815">
        <ele>1671.36</ele>
        <time>2017-12-09T10:28:05Z</time>
      </trkpt>
      <trkpt lat="27.948656" lon="-15.596823">
        <ele>1671.98</ele>
        <time>2017-12-09T10:28:06Z</time>
      </trkpt>
      <trkpt lat="27.948631" lon="-15.596829">
        <ele>1671.88</ele>
        <time>2017-12-09T10:28:07Z</time>
      </trkpt>
      <trkpt lat="27.948609" lon="-15.596832">
        <ele>1671.50</ele>
        <time>2017-12-09T10:28:08Z</time>
      </trkpt>
      <trkpt lat="27.948586" lon="-15.596836">
        <ele>1671.50</ele>
        <time>2017-12-09T10:28:09Z</time>
      </trkpt>
      <trkpt lat="27.948563" lon="-15.596842">
        <ele>1671.50</ele>
        <time>2017-12-09T10:28:10Z</time>
      </trkpt>
      <trkpt lat="27.948538" lon="-15.596849">
        <ele>1671.44</ele>
        <time>2017-12-09T10:28:11Z</time>
      </trkpt>
      <trkpt lat="27.948517" lon="-15.596859">
        <ele>1671.46</ele>
        <time>2017-12-09T10:28:12Z</time>
      </trkpt>
      <trkpt lat="27.948480" lon="-15.596866">
        <ele>1671.10</ele>
        <time>2017-12-09T10:28:14Z</time>
      </trkpt>
      <trkpt lat="27.948458" lon="-15.596872">
        <ele>1671.10</ele>
        <time>2017-12-09T10:28:15Z</time>
      </trkpt>
      <trkpt lat="27.948437" lon="-15.596880">
        <ele>1671.10</ele>
        <time>2017-12-09T10:28:16Z</time>
      </trkpt>
      <trkpt lat="27.948417" lon="-15.596886">
        <ele>1671.10</ele>
        <time>2017-12-09T10:28:17Z</time>
      </trkpt>
      <trkpt lat="27.948398" lon="-15.596891">
        <ele>1671.10</ele>
        <time>2017-12-09T10:28:18Z</time>
      </trkpt>
      <trkpt lat="27.948364" lon="-15.596902">
        <ele>1671.10</ele>
        <time>2017-12-09T10:28:20Z</time>
      </trkpt>
      <trkpt lat="27.948346" lon="-15.596912">
        <ele>1670.82</ele>
        <time>2017-12-09T10:28:21Z</time>
      </trkpt>
      <trkpt lat="27.948329" lon="-15.596920">
        <ele>1670.70</ele>
        <time>2017-12-09T10:28:22Z</time>
      </trkpt>
      <trkpt lat="27.948306" lon="-15.596927">
        <ele>1670.70</ele>
        <time>2017-12-09T10:28:23Z</time>
      </trkpt>
      <trkpt lat="27.948281" lon="-15.596937">
        <ele>1670.70</ele>
        <time>2017-12-09T10:28:24Z</time>
      </trkpt>
      <trkpt lat="27.948261" lon="-15.596944">
        <ele>1670.70</ele>
        <time>2017-12-09T10:28:25Z</time>
      </trkpt>
      <trkpt lat="27.948239" lon="-15.596957">
        <ele>1670.70</ele>
        <time>2017-12-09T10:28:26Z</time>
      </trkpt>
      <trkpt lat="27.948222" lon="-15.596971">
        <ele>1670.70</ele>
        <time>2017-12-09T10:28:27Z</time>
      </trkpt>
      <trkpt lat="27.948197" lon="-15.596979">
        <ele>1669.84</ele>
        <time>2017-12-09T10:28:28Z</time>
      </trkpt>
      <trkpt lat="27.948173" lon="-15.596988">
        <ele>1669.50</ele>
        <time>2017-12-09T10:28:29Z</time>
      </trkpt>
      <trkpt lat="27.948136" lon="-15.596998">
        <ele>1669.50</ele>
        <time>2017-12-09T10:28:31Z</time>
      </trkpt>
      <trkpt lat="27.948115" lon="-15.597001">
        <ele>1669.50</ele>
        <time>2017-12-09T10:28:32Z</time>
      </trkpt>
      <trkpt lat="27.948090" lon="-15.597004">
        <ele>1669.50</ele>
        <time>2017-12-09T10:28:33Z</time>
      </trkpt>
      <trkpt lat="27.948068" lon="-15.597009">
        <ele>1669.50</ele>
        <time>2017-12-09T10:28:34Z</time>
      </trkpt>
      <trkpt lat="27.948047" lon="-15.597010">
        <ele>1669.13</ele>
        <time>2017-12-09T10:28:35Z</time>
      </trkpt>
      <trkpt lat="27.948024" lon="-15.597013">
        <ele>1669.00</ele>
        <time>2017-12-09T10:28:36Z</time>
      </trkpt>
      <trkpt lat="27.947999" lon="-15.597018">
        <ele>1669.00</ele>
        <time>2017-12-09T10:28:37Z</time>
      </trkpt>
      <trkpt lat="27.947911" lon="-15.597045">
        <ele>1668.40</ele>
        <time>2017-12-09T10:28:41Z</time>
      </trkpt>
      <trkpt lat="27.947844" lon="-15.597071">
        <ele>1668.09</ele>
        <time>2017-12-09T10:28:44Z</time>
      </trkpt>
      <trkpt lat="27.947823" lon="-15.597082">
        <ele>1668.00</ele>
        <time>2017-12-09T10:28:45Z</time>
      </trkpt>
      <trkpt lat="27.947799" lon="-15.597095">
        <ele>1668.00</ele>
        <time>2017-12-09T10:28:46Z</time>
      </trkpt>
      <trkpt lat="27.947731" lon="-15.597177">
        <ele>1667.42</ele>
        <time>2017-12-09T10:28:50Z</time>
      </trkpt>
      <trkpt lat="27.947716" lon="-15.597199">
        <ele>1666.83</ele>
        <time>2017-12-09T10:28:51Z</time>
      </trkpt>
      <trkpt lat="27.947703" lon="-15.597218">
        <ele>1666.70</ele>
        <time>2017-12-09T10:28:52Z</time>
      </trkpt>
      <trkpt lat="27.947693" lon="-15.597240">
        <ele>1666.13</ele>
        <time>2017-12-09T10:28:53Z</time>
      </trkpt>
      <trkpt lat="27.947685" lon="-15.597285">
        <ele>1666.00</ele>
        <time>2017-12-09T10:28:55Z</time>
      </trkpt>
      <trkpt lat="27.947685" lon="-15.597416">
        <ele>1664.75</ele>
        <time>2017-12-09T10:29:00Z</time>
      </trkpt>
      <trkpt lat="27.947664" lon="-15.597498">
        <ele>1665.60</ele>
        <time>2017-12-09T10:29:03Z</time>
      </trkpt>
      <trkpt lat="27.947665" lon="-15.597530">
        <ele>1665.26</ele>
        <time>2017-12-09T10:29:04Z</time>
      </trkpt>
      <trkpt lat="27.947670" lon="-15.597556">
        <ele>1665.20</ele>
        <time>2017-12-09T10:29:05Z</time>
      </trkpt>
      <trkpt lat="27.947658" lon="-15.597684">
        <ele>1664.36</ele>
        <time>2017-12-09T10:29:10Z</time>
      </trkpt>
      <trkpt lat="27.947634" lon="-15.597783">
        <ele>1664.30</ele>
        <time>2017-12-09T10:29:14Z</time>
      </trkpt>
      <trkpt lat="27.947600" lon="-15.597911">
        <ele>1663.30</ele>
        <time>2017-12-09T10:29:19Z</time>
      </trkpt>
      <trkpt lat="27.947551" lon="-15.598004">
        <ele>1663.78</ele>
        <time>2017-12-09T10:29:23Z</time>
      </trkpt>
      <trkpt lat="27.947480" lon="-15.598058">
        <ele>1662.59</ele>
        <time>2017-12-09T10:29:27Z</time>
      </trkpt>
      <trkpt lat="27.947462" lon="-15.598067">
        <ele>1662.11</ele>
        <time>2017-12-09T10:29:28Z</time>
      </trkpt>
      <trkpt lat="27.947425" lon="-15.598076">
        <ele>1662.10</ele>
        <time>2017-12-09T10:29:30Z</time>
      </trkpt>
      <trkpt lat="27.947405" lon="-15.598079">
        <ele>1662.10</ele>
        <time>2017-12-09T10:29:31Z</time>
      </trkpt>
      <trkpt lat="27.947380" lon="-15.598086">
        <ele>1662.10</ele>
        <time>2017-12-09T10:29:32Z</time>
      </trkpt>
      <trkpt lat="27.947352" lon="-15.598100">
        <ele>1662.10</ele>
        <time>2017-12-09T10:29:33Z</time>
      </trkpt>
      <trkpt lat="27.947331" lon="-15.598106">
        <ele>1661.60</ele>
        <time>2017-12-09T10:29:34Z</time>
      </trkpt>
      <trkpt lat="27.947309" lon="-15.598114">
        <ele>1661.60</ele>
        <time>2017-12-09T10:29:35Z</time>
      </trkpt>
      <trkpt lat="27.947292" lon="-15.598120">
        <ele>1662.01</ele>
        <time>2017-12-09T10:29:36Z</time>
      </trkpt>
      <trkpt lat="27.947258" lon="-15.598126">
        <ele>1662.00</ele>
        <time>2017-12-09T10:29:38Z</time>
      </trkpt>
      <trkpt lat="27.947233" lon="-15.598124">
        <ele>1662.00</ele>
        <time>2017-12-09T10:29:39Z</time>
      </trkpt>
      <trkpt lat="27.947212" lon="-15.598128">
        <ele>1662.00</ele>
        <time>2017-12-09T10:29:40Z</time>
      </trkpt>
      <trkpt lat="27.947189" lon="-15.598137">
        <ele>1662.00</ele>
        <time>2017-12-09T10:29:41Z</time>
      </trkpt>
      <trkpt lat="27.947162" lon="-15.598150">
        <ele>1661.97</ele>
        <time>2017-12-09T10:29:42Z</time>
      </trkpt>
      <trkpt lat="27.947112" lon="-15.598172">
        <ele>1661.20</ele>
        <time>2017-12-09T10:29:44Z</time>
      </trkpt>
      <trkpt lat="27.947091" lon="-15.598182">
        <ele>1661.20</ele>
        <time>2017-12-09T10:29:45Z</time>
      </trkpt>
      <trkpt lat="27.947071" lon="-15.598199">
        <ele>1661.20</ele>
        <time>2017-12-09T10:29:46Z</time>
      </trkpt>
      <trkpt lat="27.947046" lon="-15.598211">
        <ele>1661.20</ele>
        <time>2017-12-09T10:29:47Z</time>
      </trkpt>
      <trkpt lat="27.947022" lon="-15.598219">
        <ele>1661.18</ele>
        <time>2017-12-09T10:29:48Z</time>
      </trkpt>
      <trkpt lat="27.946998" lon="-15.598232">
        <ele>1660.90</ele>
        <time>2017-12-09T10:29:49Z</time>
      </trkpt>
      <trkpt lat="27.946958" lon="-15.598245">
        <ele>1660.30</ele>
        <time>2017-12-09T10:29:51Z</time>
      </trkpt>
      <trkpt lat="27.946939" lon="-15.598255">
        <ele>1660.27</ele>
        <time>2017-12-09T10:29:52Z</time>
      </trkpt>
      <trkpt lat="27.946921" lon="-15.598263">
        <ele>1659.80</ele>
        <time>2017-12-09T10:29:53Z</time>
      </trkpt>
      <trkpt lat="27.946894" lon="-15.598277">
        <ele>1659.74</ele>
        <time>2017-12-09T10:29:54Z</time>
      </trkpt>
      <trkpt lat="27.946874" lon="-15.598288">
        <ele>1659.00</ele>
        <time>2017-12-09T10:29:55Z</time>
      </trkpt>
      <trkpt lat="27.946848" lon="-15.598308">
        <ele>1659.07</ele>
        <time>2017-12-09T10:29:56Z</time>
      </trkpt>
      <trkpt lat="27.946817" lon="-15.598329">
        <ele>1659.80</ele>
        <time>2017-12-09T10:29:57Z</time>
      </trkpt>
      <trkpt lat="27.946782" lon="-15.598349">
        <ele>1659.79</ele>
        <time>2017-12-09T10:29:58Z</time>
      </trkpt>
      <trkpt lat="27.946756" lon="-15.598369">
        <ele>1659.70</ele>
        <time>2017-12-09T10:29:59Z</time>
      </trkpt>
      <trkpt lat="27.946733" lon="-15.598387">
        <ele>1659.65</ele>
        <time>2017-12-09T10:30:00Z</time>
      </trkpt>
      <trkpt lat="27.946709" lon="-15.598401">
        <ele>1659.20</ele>
        <time>2017-12-09T10:30:01Z</time>
      </trkpt>
      <trkpt lat="27.946690" lon="-15.598413">
        <ele>1659.14</ele>
        <time>2017-12-09T10:30:02Z</time>
      </trkpt>
      <trkpt lat="27.946669" lon="-15.598426">
        <ele>1658.51</ele>
        <time>2017-12-09T10:30:03Z</time>
      </trkpt>
      <trkpt lat="27.946643" lon="-15.598439">
        <ele>1657.68</ele>
        <time>2017-12-09T10:30:04Z</time>
      </trkpt>
      <trkpt lat="27.946551" lon="-15.598502">
        <ele>1656.70</ele>
        <time>2017-12-09T10:30:08Z</time>
      </trkpt>
      <trkpt lat="27.946461" lon="-15.598574">
        <ele>1655.60</ele>
        <time>2017-12-09T10:30:12Z</time>
      </trkpt>
      <trkpt lat="27.946381" lon="-15.598657">
        <ele>1654.93</ele>
        <time>2017-12-09T10:30:16Z</time>
      </trkpt>
      <trkpt lat="27.946300" lon="-15.598721">
        <ele>1654.31</ele>
        <time>2017-12-09T10:30:20Z</time>
      </trkpt>
      <trkpt lat="27.946196" lon="-15.598780">
        <ele>1653.34</ele>
        <time>2017-12-09T10:30:24Z</time>
      </trkpt>
      <trkpt lat="27.946091" lon="-15.598822">
        <ele>1651.40</ele>
        <time>2017-12-09T10:30:28Z</time>
      </trkpt>
      <trkpt lat="27.945988" lon="-15.598861">
        <ele>1650.69</ele>
        <time>2017-12-09T10:30:33Z</time>
      </trkpt>
      <trkpt lat="27.945890" lon="-15.598912">
        <ele>1650.10</ele>
        <time>2017-12-09T10:30:37Z</time>
      </trkpt>
      <trkpt lat="27.945796" lon="-15.598966">
        <ele>1650.00</ele>
        <time>2017-12-09T10:30:41Z</time>
      </trkpt>
      <trkpt lat="27.945714" lon="-15.599015">
        <ele>1648.90</ele>
        <time>2017-12-09T10:30:44Z</time>
      </trkpt>
      <trkpt lat="27.945662" lon="-15.599048">
        <ele>1648.39</ele>
        <time>2017-12-09T10:30:46Z</time>
      </trkpt>
      <trkpt lat="27.945641" lon="-15.599058">
        <ele>1647.23</ele>
        <time>2017-12-09T10:30:47Z</time>
      </trkpt>
      <trkpt lat="27.945625" lon="-15.599075">
        <ele>1647.07</ele>
        <time>2017-12-09T10:30:48Z</time>
      </trkpt>
      <trkpt lat="27.945609" lon="-15.599098">
        <ele>1647.23</ele>
        <time>2017-12-09T10:30:49Z</time>
      </trkpt>
      <trkpt lat="27.945597" lon="-15.599126">
        <ele>1646.87</ele>
        <time>2017-12-09T10:30:50Z</time>
      </trkpt>
      <trkpt lat="27.945590" lon="-15.599152">
        <ele>1646.38</ele>
        <time>2017-12-09T10:30:51Z</time>
      </trkpt>
      <trkpt lat="27.945580" lon="-15.599174">
        <ele>1646.30</ele>
        <time>2017-12-09T10:30:52Z</time>
      </trkpt>
      <trkpt lat="27.945572" lon="-15.599193">
        <ele>1646.16</ele>
        <time>2017-12-09T10:30:53Z</time>
      </trkpt>
      <trkpt lat="27.945522" lon="-15.599257">
        <ele>1645.48</ele>
        <time>2017-12-09T10:30:56Z</time>
      </trkpt>
      <trkpt lat="27.945504" lon="-15.599285">
        <ele>1645.33</ele>
        <time>2017-12-09T10:30:57Z</time>
      </trkpt>
      <trkpt lat="27.945486" lon="-15.599314">
        <ele>1644.83</ele>
        <time>2017-12-09T10:30:58Z</time>
      </trkpt>
      <trkpt lat="27.945472" lon="-15.599339">
        <ele>1643.98</ele>
        <time>2017-12-09T10:30:59Z</time>
      </trkpt>
      <trkpt lat="27.945458" lon="-15.599364">
        <ele>1643.90</ele>
        <time>2017-12-09T10:31:00Z</time>
      </trkpt>
      <trkpt lat="27.945446" lon="-15.599380">
        <ele>1643.77</ele>
        <time>2017-12-09T10:31:01Z</time>
      </trkpt>
      <trkpt lat="27.945431" lon="-15.599394">
        <ele>1643.20</ele>
        <time>2017-12-09T10:31:02Z</time>
      </trkpt>
      <trkpt lat="27.945416" lon="-15.599406">
        <ele>1642.60</ele>
        <time>2017-12-09T10:31:03Z</time>
      </trkpt>
      <trkpt lat="27.945383" lon="-15.599418">
        <ele>1642.60</ele>
        <time>2017-12-09T10:31:05Z</time>
      </trkpt>
      <trkpt lat="27.945365" lon="-15.599423">
        <ele>1642.63</ele>
        <time>2017-12-09T10:31:06Z</time>
      </trkpt>
      <trkpt lat="27.945332" lon="-15.599431">
        <ele>1642.27</ele>
        <time>2017-12-09T10:31:08Z</time>
      </trkpt>
      <trkpt lat="27.945301" lon="-15.599441">
        <ele>1641.95</ele>
        <time>2017-12-09T10:31:10Z</time>
      </trkpt>
      <trkpt lat="27.945268" lon="-15.599453">
        <ele>1641.46</ele>
        <time>2017-12-09T10:31:12Z</time>
      </trkpt>
      <trkpt lat="27.945237" lon="-15.599460">
        <ele>1640.66</ele>
        <time>2017-12-09T10:31:14Z</time>
      </trkpt>
      <trkpt lat="27.945220" lon="-15.599470">
        <ele>1640.19</ele>
        <time>2017-12-09T10:31:15Z</time>
      </trkpt>
      <trkpt lat="27.945201" lon="-15.599478">
        <ele>1639.73</ele>
        <time>2017-12-09T10:31:16Z</time>
      </trkpt>
      <trkpt lat="27.945180" lon="-15.599486">
        <ele>1639.15</ele>
        <time>2017-12-09T10:31:17Z</time>
      </trkpt>
      <trkpt lat="27.945154" lon="-15.599495">
        <ele>1638.80</ele>
        <time>2017-12-09T10:31:18Z</time>
      </trkpt>
      <trkpt lat="27.945134" lon="-15.599496">
        <ele>1638.59</ele>
        <time>2017-12-09T10:31:19Z</time>
      </trkpt>
      <trkpt lat="27.945101" lon="-15.599492">
        <ele>1637.77</ele>
        <time>2017-12-09T10:31:21Z</time>
      </trkpt>
      <trkpt lat="27.945077" lon="-15.599499">
        <ele>1637.55</ele>
        <time>2017-12-09T10:31:22Z</time>
      </trkpt>
      <trkpt lat="27.945053" lon="-15.599507">
        <ele>1637.17</ele>
        <time>2017-12-09T10:31:23Z</time>
      </trkpt>
      <trkpt lat="27.945032" lon="-15.599513">
        <ele>1636.91</ele>
        <time>2017-12-09T10:31:24Z</time>
      </trkpt>
      <trkpt lat="27.945008" lon="-15.599522">
        <ele>1636.50</ele>
        <time>2017-12-09T10:31:25Z</time>
      </trkpt>
      <trkpt lat="27.944984" lon="-15.599530">
        <ele>1636.40</ele>
        <time>2017-12-09T10:31:26Z</time>
      </trkpt>
      <trkpt lat="27.944961" lon="-15.599539">
        <ele>1635.85</ele>
        <time>2017-12-09T10:31:27Z</time>
      </trkpt>
      <trkpt lat="27.944941" lon="-15.599548">
        <ele>1634.87</ele>
        <time>2017-12-09T10:31:28Z</time>
      </trkpt>
      <trkpt lat="27.944923" lon="-15.599555">
        <ele>1634.37</ele>
        <time>2017-12-09T10:31:29Z</time>
      </trkpt>
      <trkpt lat="27.944891" lon="-15.599561">
        <ele>1633.93</ele>
        <time>2017-12-09T10:31:31Z</time>
      </trkpt>
      <trkpt lat="27.944872" lon="-15.599570">
        <ele>1633.20</ele>
        <time>2017-12-09T10:31:32Z</time>
      </trkpt>
      <trkpt lat="27.944854" lon="-15.599580">
        <ele>1632.80</ele>
        <time>2017-12-09T10:31:33Z</time>
      </trkpt>
      <trkpt lat="27.944835" lon="-15.599593">
        <ele>1632.77</ele>
        <time>2017-12-09T10:31:34Z</time>
      </trkpt>
      <trkpt lat="27.944814" lon="-15.599614">
        <ele>1632.45</ele>
        <time>2017-12-09T10:31:35Z</time>
      </trkpt>
      <trkpt lat="27.944794" lon="-15.599626">
        <ele>1631.96</ele>
        <time>2017-12-09T10:31:36Z</time>
      </trkpt>
      <trkpt lat="27.944714" lon="-15.599684">
        <ele>1630.94</ele>
        <time>2017-12-09T10:31:40Z</time>
      </trkpt>
      <trkpt lat="27.944687" lon="-15.599704">
        <ele>1630.42</ele>
        <time>2017-12-09T10:31:41Z</time>
      </trkpt>
      <trkpt lat="27.944602" lon="-15.599745">
        <ele>1628.88</ele>
        <time>2017-12-09T10:31:48Z</time>
      </trkpt>
      <trkpt lat="27.944499" lon="-15.599749">
        <ele>1626.54</ele>
        <time>2017-12-09T10:31:54Z</time>
      </trkpt>
      <trkpt lat="27.944413" lon="-15.599803">
        <ele>1625.06</ele>
        <time>2017-12-09T10:31:57Z</time>
      </trkpt>
      <trkpt lat="27.944309" lon="-15.599833">
        <ele>1624.95</ele>
        <time>2017-12-09T10:32:01Z</time>
      </trkpt>
      <trkpt lat="27.944286" lon="-15.599840">
        <ele>1625.00</ele>
        <time>2017-12-09T10:32:02Z</time>
      </trkpt>
      <trkpt lat="27.944262" lon="-15.599844">
        <ele>1624.64</ele>
        <time>2017-12-09T10:32:03Z</time>
      </trkpt>
      <trkpt lat="27.944168" lon="-15.599869">
        <ele>1623.85</ele>
        <time>2017-12-09T10:32:07Z</time>
      </trkpt>
      <trkpt lat="27.944070" lon="-15.599932">
        <ele>1623.65</ele>
        <time>2017-12-09T10:32:11Z</time>
      </trkpt>
      <trkpt lat="27.943957" lon="-15.599972">
        <ele>1622.41</ele>
        <time>2017-12-09T10:32:15Z</time>
      </trkpt>
      <trkpt lat="27.943868" lon="-15.600024">
        <ele>1621.70</ele>
        <time>2017-12-09T10:32:18Z</time>
      </trkpt>
      <trkpt lat="27.943786" lon="-15.600101">
        <ele>1620.93</ele>
        <time>2017-12-09T10:32:21Z</time>
      </trkpt>
      <trkpt lat="27.943702" lon="-15.600143">
        <ele>1620.56</ele>
        <time>2017-12-09T10:32:26Z</time>
      </trkpt>
      <trkpt lat="27.943608" lon="-15.600174">
        <ele>1621.22</ele>
        <time>2017-12-09T10:32:30Z</time>
      </trkpt>
      <trkpt lat="27.943541" lon="-15.600242">
        <ele>1621.30</ele>
        <time>2017-12-09T10:32:33Z</time>
      </trkpt>
      <trkpt lat="27.943457" lon="-15.600318">
        <ele>1621.30</ele>
        <time>2017-12-09T10:32:37Z</time>
      </trkpt>
      <trkpt lat="27.943345" lon="-15.600337">
        <ele>1620.60</ele>
        <time>2017-12-09T10:32:42Z</time>
      </trkpt>
      <trkpt lat="27.943316" lon="-15.600340">
        <ele>1620.28</ele>
        <time>2017-12-09T10:32:43Z</time>
      </trkpt>
      <trkpt lat="27.943289" lon="-15.600345">
        <ele>1620.10</ele>
        <time>2017-12-09T10:32:44Z</time>
      </trkpt>
      <trkpt lat="27.943260" lon="-15.600349">
        <ele>1620.10</ele>
        <time>2017-12-09T10:32:45Z</time>
      </trkpt>
      <trkpt lat="27.943229" lon="-15.600354">
        <ele>1620.16</ele>
        <time>2017-12-09T10:32:46Z</time>
      </trkpt>
      <trkpt lat="27.943198" lon="-15.600358">
        <ele>1620.07</ele>
        <time>2017-12-09T10:32:47Z</time>
      </trkpt>
      <trkpt lat="27.943170" lon="-15.600364">
        <ele>1620.00</ele>
        <time>2017-12-09T10:32:48Z</time>
      </trkpt>
      <trkpt lat="27.943099" lon="-15.600383">
        <ele>1618.96</ele>
        <time>2017-12-09T10:32:51Z</time>
      </trkpt>
      <trkpt lat="27.943075" lon="-15.600391">
        <ele>1618.70</ele>
        <time>2017-12-09T10:32:52Z</time>
      </trkpt>
      <trkpt lat="27.943051" lon="-15.600400">
        <ele>1618.16</ele>
        <time>2017-12-09T10:32:53Z</time>
      </trkpt>
      <trkpt lat="27.943028" lon="-15.600416">
        <ele>1617.90</ele>
        <time>2017-12-09T10:32:54Z</time>
      </trkpt>
      <trkpt lat="27.943006" lon="-15.600429">
        <ele>1617.90</ele>
        <time>2017-12-09T10:32:55Z</time>
      </trkpt>
      <trkpt lat="27.942984" lon="-15.600444">
        <ele>1617.97</ele>
        <time>2017-12-09T10:32:56Z</time>
      </trkpt>
      <trkpt lat="27.942960" lon="-15.600459">
        <ele>1618.00</ele>
        <time>2017-12-09T10:32:57Z</time>
      </trkpt>
      <trkpt lat="27.942937" lon="-15.600476">
        <ele>1617.79</ele>
        <time>2017-12-09T10:32:58Z</time>
      </trkpt>
      <trkpt lat="27.942918" lon="-15.600489">
        <ele>1617.77</ele>
        <time>2017-12-09T10:32:59Z</time>
      </trkpt>
      <trkpt lat="27.942900" lon="-15.600501">
        <ele>1617.66</ele>
        <time>2017-12-09T10:33:00Z</time>
      </trkpt>
      <trkpt lat="27.942878" lon="-15.600519">
        <ele>1617.60</ele>
        <time>2017-12-09T10:33:01Z</time>
      </trkpt>
      <trkpt lat="27.942844" lon="-15.600536">
        <ele>1617.70</ele>
        <time>2017-12-09T10:33:03Z</time>
      </trkpt>
      <trkpt lat="27.942807" lon="-15.600544">
        <ele>1617.63</ele>
        <time>2017-12-09T10:33:05Z</time>
      </trkpt>
      <trkpt lat="27.942784" lon="-15.600554">
        <ele>1617.24</ele>
        <time>2017-12-09T10:33:06Z</time>
      </trkpt>
      <trkpt lat="27.942761" lon="-15.600574">
        <ele>1617.03</ele>
        <time>2017-12-09T10:33:07Z</time>
      </trkpt>
      <trkpt lat="27.942741" lon="-15.600606">
        <ele>1617.07</ele>
        <time>2017-12-09T10:33:08Z</time>
      </trkpt>
      <trkpt lat="27.942723" lon="-15.600639">
        <ele>1616.59</ele>
        <time>2017-12-09T10:33:09Z</time>
      </trkpt>
      <trkpt lat="27.942706" lon="-15.600662">
        <ele>1616.47</ele>
        <time>2017-12-09T10:33:10Z</time>
      </trkpt>
      <trkpt lat="27.942691" lon="-15.600676">
        <ele>1615.91</ele>
        <time>2017-12-09T10:33:11Z</time>
      </trkpt>
      <trkpt lat="27.942671" lon="-15.600688">
        <ele>1615.70</ele>
        <time>2017-12-09T10:33:12Z</time>
      </trkpt>
      <trkpt lat="27.942653" lon="-15.600704">
        <ele>1615.77</ele>
        <time>2017-12-09T10:33:13Z</time>
      </trkpt>
      <trkpt lat="27.942635" lon="-15.600728">
        <ele>1615.80</ele>
        <time>2017-12-09T10:33:14Z</time>
      </trkpt>
      <trkpt lat="27.942617" lon="-15.600761">
        <ele>1615.80</ele>
        <time>2017-12-09T10:33:15Z</time>
      </trkpt>
      <trkpt lat="27.942607" lon="-15.600795">
        <ele>1615.50</ele>
        <time>2017-12-09T10:33:16Z</time>
      </trkpt>
      <trkpt lat="27.942600" lon="-15.600828">
        <ele>1615.32</ele>
        <time>2017-12-09T10:33:17Z</time>
      </trkpt>
      <trkpt lat="27.942595" lon="-15.600856">
        <ele>1615.07</ele>
        <time>2017-12-09T10:33:18Z</time>
      </trkpt>
      <trkpt lat="27.942589" lon="-15.600878">
        <ele>1614.92</ele>
        <time>2017-12-09T10:33:19Z</time>
      </trkpt>
      <trkpt lat="27.942583" lon="-15.600900">
        <ele>1614.67</ele>
        <time>2017-12-09T10:33:20Z</time>
      </trkpt>
      <trkpt lat="27.942573" lon="-15.600921">
        <ele>1614.68</ele>
        <time>2017-12-09T10:33:21Z</time>
      </trkpt>
      <trkpt lat="27.942551" lon="-15.600946">
        <ele>1614.30</ele>
        <time>2017-12-09T10:33:23Z</time>
      </trkpt>
      <trkpt lat="27.942532" lon="-15.600964">
        <ele>1614.38</ele>
        <time>2017-12-09T10:33:24Z</time>
      </trkpt>
      <trkpt lat="27.942512" lon="-15.600981">
        <ele>1614.48</ele>
        <time>2017-12-09T10:33:25Z</time>
      </trkpt>
      <trkpt lat="27.942495" lon="-15.600992">
        <ele>1614.50</ele>
        <time>2017-12-09T10:33:26Z</time>
      </trkpt>
      <trkpt lat="27.942473" lon="-15.601003">
        <ele>1614.50</ele>
        <time>2017-12-09T10:33:27Z</time>
      </trkpt>
      <trkpt lat="27.942454" lon="-15.601016">
        <ele>1614.50</ele>
        <time>2017-12-09T10:33:28Z</time>
      </trkpt>
      <trkpt lat="27.942437" lon="-15.601031">
        <ele>1614.50</ele>
        <time>2017-12-09T10:33:29Z</time>
      </trkpt>
      <trkpt lat="27.942408" lon="-15.601057">
        <ele>1614.39</ele>
        <time>2017-12-09T10:33:31Z</time>
      </trkpt>
      <trkpt lat="27.942380" lon="-15.601080">
        <ele>1613.56</ele>
        <time>2017-12-09T10:33:33Z</time>
      </trkpt>
      <trkpt lat="27.942347" lon="-15.601099">
        <ele>1613.20</ele>
        <time>2017-12-09T10:33:35Z</time>
      </trkpt>
      <trkpt lat="27.942328" lon="-15.601107">
        <ele>1613.03</ele>
        <time>2017-12-09T10:33:36Z</time>
      </trkpt>
      <trkpt lat="27.942297" lon="-15.601120">
        <ele>1612.16</ele>
        <time>2017-12-09T10:33:38Z</time>
      </trkpt>
      <trkpt lat="27.942279" lon="-15.601138">
        <ele>1611.83</ele>
        <time>2017-12-09T10:33:39Z</time>
      </trkpt>
      <trkpt lat="27.942265" lon="-15.601160">
        <ele>1611.30</ele>
        <time>2017-12-09T10:33:40Z</time>
      </trkpt>
      <trkpt lat="27.942250" lon="-15.601188">
        <ele>1611.12</ele>
        <time>2017-12-09T10:33:41Z</time>
      </trkpt>
      <trkpt lat="27.942239" lon="-15.601218">
        <ele>1610.93</ele>
        <time>2017-12-09T10:33:42Z</time>
      </trkpt>
      <trkpt lat="27.942228" lon="-15.601252">
        <ele>1610.64</ele>
        <time>2017-12-09T10:33:43Z</time>
      </trkpt>
      <trkpt lat="27.942216" lon="-15.601285">
        <ele>1610.51</ele>
        <time>2017-12-09T10:33:44Z</time>
      </trkpt>
      <trkpt lat="27.942202" lon="-15.601310">
        <ele>1609.90</ele>
        <time>2017-12-09T10:33:45Z</time>
      </trkpt>
      <trkpt lat="27.942189" lon="-15.601332">
        <ele>1609.71</ele>
        <time>2017-12-09T10:33:46Z</time>
      </trkpt>
      <trkpt lat="27.942161" lon="-15.601352">
        <ele>1609.20</ele>
        <time>2017-12-09T10:33:48Z</time>
      </trkpt>
      <trkpt lat="27.942144" lon="-15.601362">
        <ele>1609.20</ele>
        <time>2017-12-09T10:33:49Z</time>
      </trkpt>
      <trkpt lat="27.942110" lon="-15.601370">
        <ele>1609.20</ele>
        <time>2017-12-09T10:33:51Z</time>
      </trkpt>
      <trkpt lat="27.942093" lon="-15.601377">
        <ele>1609.20</ele>
        <time>2017-12-09T10:33:52Z</time>
      </trkpt>
      <trkpt lat="27.942073" lon="-15.601389">
        <ele>1609.64</ele>
        <time>2017-12-09T10:33:53Z</time>
      </trkpt>
      <trkpt lat="27.942050" lon="-15.601400">
        <ele>1609.70</ele>
        <time>2017-12-09T10:33:54Z</time>
      </trkpt>
      <trkpt lat="27.942027" lon="-15.601410">
        <ele>1608.82</ele>
        <time>2017-12-09T10:33:55Z</time>
      </trkpt>
      <trkpt lat="27.942006" lon="-15.601422">
        <ele>1608.61</ele>
        <time>2017-12-09T10:33:56Z</time>
      </trkpt>
      <trkpt lat="27.941986" lon="-15.601435">
        <ele>1608.60</ele>
        <time>2017-12-09T10:33:57Z</time>
      </trkpt>
      <trkpt lat="27.941967" lon="-15.601450">
        <ele>1608.15</ele>
        <time>2017-12-09T10:33:58Z</time>
      </trkpt>
      <trkpt lat="27.941945" lon="-15.601471">
        <ele>1607.29</ele>
        <time>2017-12-09T10:33:59Z</time>
      </trkpt>
      <trkpt lat="27.941923" lon="-15.601489">
        <ele>1607.11</ele>
        <time>2017-12-09T10:34:00Z</time>
      </trkpt>
      <trkpt lat="27.941898" lon="-15.601507">
        <ele>1606.92</ele>
        <time>2017-12-09T10:34:01Z</time>
      </trkpt>
      <trkpt lat="27.941878" lon="-15.601521">
        <ele>1606.54</ele>
        <time>2017-12-09T10:34:02Z</time>
      </trkpt>
      <trkpt lat="27.941858" lon="-15.601536">
        <ele>1606.23</ele>
        <time>2017-12-09T10:34:03Z</time>
      </trkpt>
      <trkpt lat="27.941838" lon="-15.601548">
        <ele>1606.11</ele>
        <time>2017-12-09T10:34:04Z</time>
      </trkpt>
      <trkpt lat="27.941816" lon="-15.601559">
        <ele>1605.92</ele>
        <time>2017-12-09T10:34:05Z</time>
      </trkpt>
      <trkpt lat="27.941795" lon="-15.601573">
        <ele>1605.90</ele>
        <time>2017-12-09T10:34:06Z</time>
      </trkpt>
      <trkpt lat="27.941769" lon="-15.601585">
        <ele>1605.90</ele>
        <time>2017-12-09T10:34:07Z</time>
      </trkpt>
      <trkpt lat="27.941746" lon="-15.601594">
        <ele>1605.15</ele>
        <time>2017-12-09T10:34:08Z</time>
      </trkpt>
      <trkpt lat="27.941725" lon="-15.601597">
        <ele>1605.01</ele>
        <time>2017-12-09T10:34:09Z</time>
      </trkpt>
      <trkpt lat="27.941705" lon="-15.601605">
        <ele>1604.72</ele>
        <time>2017-12-09T10:34:10Z</time>
      </trkpt>
      <trkpt lat="27.941685" lon="-15.601614">
        <ele>1604.51</ele>
        <time>2017-12-09T10:34:11Z</time>
      </trkpt>
      <trkpt lat="27.941664" lon="-15.601619">
        <ele>1604.50</ele>
        <time>2017-12-09T10:34:12Z</time>
      </trkpt>
      <trkpt lat="27.941638" lon="-15.601630">
        <ele>1604.02</ele>
        <time>2017-12-09T10:34:13Z</time>
      </trkpt>
      <trkpt lat="27.941615" lon="-15.601633">
        <ele>1604.00</ele>
        <time>2017-12-09T10:34:14Z</time>
      </trkpt>
      <trkpt lat="27.941594" lon="-15.601636">
        <ele>1603.52</ele>
        <time>2017-12-09T10:34:15Z</time>
      </trkpt>
      <trkpt lat="27.941574" lon="-15.601637">
        <ele>1603.50</ele>
        <time>2017-12-09T10:34:16Z</time>
      </trkpt>
      <trkpt lat="27.941552" lon="-15.601638">
        <ele>1604.18</ele>
        <time>2017-12-09T10:34:17Z</time>
      </trkpt>
      <trkpt lat="27.941531" lon="-15.601635">
        <ele>1604.20</ele>
        <time>2017-12-09T10:34:18Z</time>
      </trkpt>
      <trkpt lat="27.941509" lon="-15.601634">
        <ele>1604.20</ele>
        <time>2017-12-09T10:34:19Z</time>
      </trkpt>
      <trkpt lat="27.941488" lon="-15.601635">
        <ele>1604.20</ele>
        <time>2017-12-09T10:34:20Z</time>
      </trkpt>
      <trkpt lat="27.941470" lon="-15.601638">
        <ele>1603.03</ele>
        <time>2017-12-09T10:34:21Z</time>
      </trkpt>
      <trkpt lat="27.941453" lon="-15.601646">
        <ele>1603.00</ele>
        <time>2017-12-09T10:34:22Z</time>
      </trkpt>
      <trkpt lat="27.941433" lon="-15.601659">
        <ele>1602.71</ele>
        <time>2017-12-09T10:34:23Z</time>
      </trkpt>
      <trkpt lat="27.941412" lon="-15.601669">
        <ele>1602.40</ele>
        <time>2017-12-09T10:34:24Z</time>
      </trkpt>
      <trkpt lat="27.941390" lon="-15.601674">
        <ele>1602.40</ele>
        <time>2017-12-09T10:34:25Z</time>
      </trkpt>
      <trkpt lat="27.941368" lon="-15.601674">
        <ele>1601.80</ele>
        <time>2017-12-09T10:34:26Z</time>
      </trkpt>
      <trkpt lat="27.941348" lon="-15.601673">
        <ele>1601.30</ele>
        <time>2017-12-09T10:34:27Z</time>
      </trkpt>
      <trkpt lat="27.941332" lon="-15.601663">
        <ele>1601.30</ele>
        <time>2017-12-09T10:34:28Z</time>
      </trkpt>
      <trkpt lat="27.941301" lon="-15.601652">
        <ele>1601.30</ele>
        <time>2017-12-09T10:34:30Z</time>
      </trkpt>
      <trkpt lat="27.941268" lon="-15.601654">
        <ele>1600.60</ele>
        <time>2017-12-09T10:34:32Z</time>
      </trkpt>
      <trkpt lat="27.941230" lon="-15.601663">
        <ele>1600.79</ele>
        <time>2017-12-09T10:34:34Z</time>
      </trkpt>
      <trkpt lat="27.941199" lon="-15.601682">
        <ele>1600.40</ele>
        <time>2017-12-09T10:34:36Z</time>
      </trkpt>
      <trkpt lat="27.941169" lon="-15.601685">
        <ele>1600.00</ele>
        <time>2017-12-09T10:34:38Z</time>
      </trkpt>
      <trkpt lat="27.941150" lon="-15.601690">
        <ele>1599.99</ele>
        <time>2017-12-09T10:34:39Z</time>
      </trkpt>
      <trkpt lat="27.941129" lon="-15.601699">
        <ele>1599.70</ele>
        <time>2017-12-09T10:34:40Z</time>
      </trkpt>
      <trkpt lat="27.941108" lon="-15.601712">
        <ele>1599.67</ele>
        <time>2017-12-09T10:34:41Z</time>
      </trkpt>
      <trkpt lat="27.941085" lon="-15.601728">
        <ele>1599.16</ele>
        <time>2017-12-09T10:34:42Z</time>
      </trkpt>
      <trkpt lat="27.941062" lon="-15.601739">
        <ele>1598.47</ele>
        <time>2017-12-09T10:34:43Z</time>
      </trkpt>
      <trkpt lat="27.941040" lon="-15.601747">
        <ele>1598.05</ele>
        <time>2017-12-09T10:34:44Z</time>
      </trkpt>
      <trkpt lat="27.941016" lon="-15.601755">
        <ele>1597.18</ele>
        <time>2017-12-09T10:34:45Z</time>
      </trkpt>
      <trkpt lat="27.940994" lon="-15.601760">
        <ele>1595.58</ele>
        <time>2017-12-09T10:34:46Z</time>
      </trkpt>
      <trkpt lat="27.940972" lon="-15.601770">
        <ele>1595.40</ele>
        <time>2017-12-09T10:34:47Z</time>
      </trkpt>
      <trkpt lat="27.940948" lon="-15.601773">
        <ele>1595.40</ele>
        <time>2017-12-09T10:34:48Z</time>
      </trkpt>
      <trkpt lat="27.940925" lon="-15.601781">
        <ele>1595.38</ele>
        <time>2017-12-09T10:34:49Z</time>
      </trkpt>
      <trkpt lat="27.940899" lon="-15.601788">
        <ele>1595.14</ele>
        <time>2017-12-09T10:34:50Z</time>
      </trkpt>
      <trkpt lat="27.940873" lon="-15.601799">
        <ele>1594.59</ele>
        <time>2017-12-09T10:34:51Z</time>
      </trkpt>
      <trkpt lat="27.940847" lon="-15.601802">
        <ele>1594.50</ele>
        <time>2017-12-09T10:34:52Z</time>
      </trkpt>
      <trkpt lat="27.940822" lon="-15.601808">
        <ele>1594.44</ele>
        <time>2017-12-09T10:34:53Z</time>
      </trkpt>
      <trkpt lat="27.940796" lon="-15.601814">
        <ele>1593.95</ele>
        <time>2017-12-09T10:34:54Z</time>
      </trkpt>
      <trkpt lat="27.940771" lon="-15.601820">
        <ele>1593.60</ele>
        <time>2017-12-09T10:34:55Z</time>
      </trkpt>
      <trkpt lat="27.940748" lon="-15.601824">
        <ele>1593.48</ele>
        <time>2017-12-09T10:34:56Z</time>
      </trkpt>
      <trkpt lat="27.940724" lon="-15.601834">
        <ele>1592.57</ele>
        <time>2017-12-09T10:34:57Z</time>
      </trkpt>
      <trkpt lat="27.940694" lon="-15.601832">
        <ele>1590.88</ele>
        <time>2017-12-09T10:34:59Z</time>
      </trkpt>
      <trkpt lat="27.940730" lon="-15.601823">
        <ele>1589.77</ele>
        <time>2017-12-09T10:35:02Z</time>
      </trkpt>
      <trkpt lat="27.940748" lon="-15.601809">
        <ele>1589.16</ele>
        <time>2017-12-09T10:35:03Z</time>
      </trkpt>
      <trkpt lat="27.940762" lon="-15.601796">
        <ele>1588.96</ele>
        <time>2017-12-09T10:35:04Z</time>
      </trkpt>
      <trkpt lat="27.940756" lon="-15.601759">
        <ele>1588.70</ele>
        <time>2017-12-09T10:35:06Z</time>
      </trkpt>
      <trkpt lat="27.940741" lon="-15.601747">
        <ele>1587.92</ele>
        <time>2017-12-09T10:35:07Z</time>
      </trkpt>
      <trkpt lat="27.940703" lon="-15.601736">
        <ele>1586.36</ele>
        <time>2017-12-09T10:35:09Z</time>
      </trkpt>
      <trkpt lat="27.940685" lon="-15.601744">
        <ele>1586.18</ele>
        <time>2017-12-09T10:35:10Z</time>
      </trkpt>
      <trkpt lat="27.940666" lon="-15.601752">
        <ele>1585.93</ele>
        <time>2017-12-09T10:35:11Z</time>
      </trkpt>
      <trkpt lat="27.940648" lon="-15.601765">
        <ele>1585.30</ele>
        <time>2017-12-09T10:35:12Z</time>
      </trkpt>
      <trkpt lat="27.940630" lon="-15.601777">
        <ele>1584.88</ele>
        <time>2017-12-09T10:35:13Z</time>
      </trkpt>
      <trkpt lat="27.940613" lon="-15.601790">
        <ele>1583.38</ele>
        <time>2017-12-09T10:35:14Z</time>
      </trkpt>
      <trkpt lat="27.940595" lon="-15.601796">
        <ele>1583.21</ele>
        <time>2017-12-09T10:35:15Z</time>
      </trkpt>
      <trkpt lat="27.940556" lon="-15.601820">
        <ele>1582.25</ele>
        <time>2017-12-09T10:35:17Z</time>
      </trkpt>
      <trkpt lat="27.940469" lon="-15.601886">
        <ele>1580.29</ele>
        <time>2017-12-09T10:35:21Z</time>
      </trkpt>
      <trkpt lat="27.940438" lon="-15.601909">
        <ele>1579.30</ele>
        <time>2017-12-09T10:35:23Z</time>
      </trkpt>
      <trkpt lat="27.940423" lon="-15.601924">
        <ele>1579.30</ele>
        <time>2017-12-09T10:35:24Z</time>
      </trkpt>
      <trkpt lat="27.940394" lon="-15.601938">
        <ele>1577.67</ele>
        <time>2017-12-09T10:35:26Z</time>
      </trkpt>
      <trkpt lat="27.940310" lon="-15.601865">
        <ele>1575.52</ele>
        <time>2017-12-09T10:35:32Z</time>
      </trkpt>
      <trkpt lat="27.940364" lon="-15.601818">
        <ele>1570.65</ele>
        <time>2017-12-09T10:35:42Z</time>
      </trkpt>
      <trkpt lat="27.940285" lon="-15.601761">
        <ele>1568.00</ele>
        <time>2017-12-09T10:35:47Z</time>
      </trkpt>
      <trkpt lat="27.940195" lon="-15.601730">
        <ele>1564.24</ele>
        <time>2017-12-09T10:35:53Z</time>
      </trkpt>
      <trkpt lat="27.940128" lon="-15.601805">
        <ele>1560.69</ele>
        <time>2017-12-09T10:36:02Z</time>
      </trkpt>
      <trkpt lat="27.940114" lon="-15.601913">
        <ele>1557.82</ele>
        <time>2017-12-09T10:36:07Z</time>
      </trkpt>
      <trkpt lat="27.940101" lon="-15.602022">
        <ele>1555.46</ele>
        <time>2017-12-09T10:36:11Z</time>
      </trkpt>
      <trkpt lat="27.940158" lon="-15.602119">
        <ele>1554.95</ele>
        <time>2017-12-09T10:36:13Z</time>
      </trkpt>
      <trkpt lat="27.940232" lon="-15.602221">
        <ele>1554.90</ele>
        <time>2017-12-09T10:36:15Z</time>
      </trkpt>
      <trkpt lat="27.940183" lon="-15.602130">
        <ele>1552.27</ele>
        <time>2017-12-09T10:36:23Z</time>
      </trkpt>
      <trkpt lat="27.940114" lon="-15.602047">
        <ele>1551.55</ele>
        <time>2017-12-09T10:36:27Z</time>
      </trkpt>
      <trkpt lat="27.940044" lon="-15.601951">
        <ele>1549.74</ele>
        <time>2017-12-09T10:36:31Z</time>
      </trkpt>
      <trkpt lat="27.939967" lon="-15.601897">
        <ele>1547.31</ele>
        <time>2017-12-09T10:36:35Z</time>
      </trkpt>
      <trkpt lat="27.939867" lon="-15.601843">
        <ele>1544.93</ele>
        <time>2017-12-09T10:36:40Z</time>
      </trkpt>
      <trkpt lat="27.939845" lon="-15.601829">
        <ele>1544.57</ele>
        <time>2017-12-09T10:36:41Z</time>
      </trkpt>
      <trkpt lat="27.939746" lon="-15.601777">
        <ele>1542.63</ele>
        <time>2017-12-09T10:36:46Z</time>
      </trkpt>
      <trkpt lat="27.939652" lon="-15.601754">
        <ele>1540.82</ele>
        <time>2017-12-09T10:36:50Z</time>
      </trkpt>
      <trkpt lat="27.939549" lon="-15.601730">
        <ele>1538.88</ele>
        <time>2017-12-09T10:36:54Z</time>
      </trkpt>
      <trkpt lat="27.939452" lon="-15.601754">
        <ele>1536.42</ele>
        <time>2017-12-09T10:36:59Z</time>
      </trkpt>
      <trkpt lat="27.939358" lon="-15.601714">
        <ele>1532.90</ele>
        <time>2017-12-09T10:37:05Z</time>
      </trkpt>
      <trkpt lat="27.939265" lon="-15.601715">
        <ele>1530.91</ele>
        <time>2017-12-09T10:37:09Z</time>
      </trkpt>
      <trkpt lat="27.939240" lon="-15.601726">
        <ele>1530.57</ele>
        <time>2017-12-09T10:37:10Z</time>
      </trkpt>
      <trkpt lat="27.939220" lon="-15.601738">
        <ele>1529.96</ele>
        <time>2017-12-09T10:37:11Z</time>
      </trkpt>
      <trkpt lat="27.939110" lon="-15.601787">
        <ele>1528.26</ele>
        <time>2017-12-09T10:37:15Z</time>
      </trkpt>
      <trkpt lat="27.939062" lon="-15.601787">
        <ele>1527.68</ele>
        <time>2017-12-09T10:37:17Z</time>
      </trkpt>
      <trkpt lat="27.939031" lon="-15.601791">
        <ele>1527.12</ele>
        <time>2017-12-09T10:37:18Z</time>
      </trkpt>
      <trkpt lat="27.938977" lon="-15.601829">
        <ele>1526.50</ele>
        <time>2017-12-09T10:37:20Z</time>
      </trkpt>
      <trkpt lat="27.938956" lon="-15.601848">
        <ele>1526.00</ele>
        <time>2017-12-09T10:37:21Z</time>
      </trkpt>
      <trkpt lat="27.938937" lon="-15.601869">
        <ele>1525.18</ele>
        <time>2017-12-09T10:37:22Z</time>
      </trkpt>
      <trkpt lat="27.938920" lon="-15.601883">
        <ele>1524.68</ele>
        <time>2017-12-09T10:37:23Z</time>
      </trkpt>
      <trkpt lat="27.938898" lon="-15.601891">
        <ele>1524.17</ele>
        <time>2017-12-09T10:37:25Z</time>
      </trkpt>
      <trkpt lat="27.938929" lon="-15.601870">
        <ele>1522.95</ele>
        <time>2017-12-09T10:37:28Z</time>
      </trkpt>
      <trkpt lat="27.938947" lon="-15.601856">
        <ele>1522.73</ele>
        <time>2017-12-09T10:37:29Z</time>
      </trkpt>
      <trkpt lat="27.938982" lon="-15.601838">
        <ele>1521.26</ele>
        <time>2017-12-09T10:37:31Z</time>
      </trkpt>
      <trkpt lat="27.939085" lon="-15.601782">
        <ele>1520.54</ele>
        <time>2017-12-09T10:37:35Z</time>
      </trkpt>
      <trkpt lat="27.939175" lon="-15.601716">
        <ele>1518.40</ele>
        <time>2017-12-09T10:37:39Z</time>
      </trkpt>
      <trkpt lat="27.939232" lon="-15.601621">
        <ele>1515.72</ele>
        <time>2017-12-09T10:37:44Z</time>
      </trkpt>
      <trkpt lat="27.939207" lon="-15.601522">
        <ele>1512.83</ele>
        <time>2017-12-09T10:37:50Z</time>
      </trkpt>
      <trkpt lat="27.939110" lon="-15.601551">
        <ele>1511.10</ele>
        <time>2017-12-09T10:37:55Z</time>
      </trkpt>
      <trkpt lat="27.939040" lon="-15.601616">
        <ele>1509.31</ele>
        <time>2017-12-09T10:37:59Z</time>
      </trkpt>
      <trkpt lat="27.938941" lon="-15.601635">
        <ele>1506.70</ele>
        <time>2017-12-09T10:38:04Z</time>
      </trkpt>
      <trkpt lat="27.938941" lon="-15.601509">
        <ele>1500.90</ele>
        <time>2017-12-09T10:38:17Z</time>
      </trkpt>
      <trkpt lat="27.938941" lon="-15.601394">
        <ele>1498.77</ele>
        <time>2017-12-09T10:38:23Z</time>
      </trkpt>
      <trkpt lat="27.938926" lon="-15.601283">
        <ele>1496.54</ele>
        <time>2017-12-09T10:38:27Z</time>
      </trkpt>
      <trkpt lat="27.938914" lon="-15.601165">
        <ele>1493.40</ele>
        <time>2017-12-09T10:38:32Z</time>
      </trkpt>
      <trkpt lat="27.938932" lon="-15.601046">
        <ele>1491.28</ele>
        <time>2017-12-09T10:38:37Z</time>
      </trkpt>
      <trkpt lat="27.938904" lon="-15.600940">
        <ele>1489.08</ele>
        <time>2017-12-09T10:38:42Z</time>
      </trkpt>
      <trkpt lat="27.938920" lon="-15.600824">
        <ele>1486.58</ele>
        <time>2017-12-09T10:38:48Z</time>
      </trkpt>
      <trkpt lat="27.938839" lon="-15.600775">
        <ele>1484.56</ele>
        <time>2017-12-09T10:38:52Z</time>
      </trkpt>
      <trkpt lat="27.938748" lon="-15.600701">
        <ele>1483.20</ele>
        <time>2017-12-09T10:38:56Z</time>
      </trkpt>
      <trkpt lat="27.938662" lon="-15.600761">
        <ele>1482.14</ele>
        <time>2017-12-09T10:38:59Z</time>
      </trkpt>
      <trkpt lat="27.938624" lon="-15.600821">
        <ele>1480.10</ele>
        <time>2017-12-09T10:39:11Z</time>
      </trkpt>
      <trkpt lat="27.938614" lon="-15.600844">
        <ele>1479.53</ele>
        <time>2017-12-09T10:39:13Z</time>
      </trkpt>
      <trkpt lat="27.938599" lon="-15.600858">
        <ele>1478.56</ele>
        <time>2017-12-09T10:39:15Z</time>
      </trkpt>
      <trkpt lat="27.938586" lon="-15.600875">
        <ele>1477.55</ele>
        <time>2017-12-09T10:39:17Z</time>
      </trkpt>
      <trkpt lat="27.938544" lon="-15.600975">
        <ele>1475.58</ele>
        <time>2017-12-09T10:39:23Z</time>
      </trkpt>
      <trkpt lat="27.938534" lon="-15.601005">
        <ele>1468.90</ele>
        <time>2017-12-09T10:39:39Z</time>
      </trkpt>
      <trkpt lat="27.938513" lon="-15.600984">
        <ele>1468.14</ele>
        <time>2017-12-09T10:39:43Z</time>
      </trkpt>
      <trkpt lat="27.938552" lon="-15.600882">
        <ele>1467.60</ele>
        <time>2017-12-09T10:39:48Z</time>
      </trkpt>
      <trkpt lat="27.938612" lon="-15.600789">
        <ele>1467.10</ele>
        <time>2017-12-09T10:39:54Z</time>
      </trkpt>
      <trkpt lat="27.938639" lon="-15.600677">
        <ele>1459.86</ele>
        <time>2017-12-09T10:40:05Z</time>
      </trkpt>
      <trkpt lat="27.938519" lon="-15.600669">
        <ele>1457.86</ele>
        <time>2017-12-09T10:40:10Z</time>
      </trkpt>
      <trkpt lat="27.938536" lon="-15.600561">
        <ele>1451.08</ele>
        <time>2017-12-09T10:40:25Z</time>
      </trkpt>
      <trkpt lat="27.938523" lon="-15.600456">
        <ele>1448.86</ele>
        <time>2017-12-09T10:40:31Z</time>
      </trkpt>
      <trkpt lat="27.938582" lon="-15.600327">
        <ele>1447.12</ele>
        <time>2017-12-09T10:40:35Z</time>
      </trkpt>
      <trkpt lat="27.938640" lon="-15.600235">
        <ele>1443.86</ele>
        <time>2017-12-09T10:40:38Z</time>
      </trkpt>
      <trkpt lat="27.938697" lon="-15.600138">
        <ele>1443.37</ele>
        <time>2017-12-09T10:40:42Z</time>
      </trkpt>
      <trkpt lat="27.938662" lon="-15.600019">
        <ele>1443.24</ele>
        <time>2017-12-09T10:40:47Z</time>
      </trkpt>
      <trkpt lat="27.938577" lon="-15.599950">
        <ele>1442.35</ele>
        <time>2017-12-09T10:40:51Z</time>
      </trkpt>
      <trkpt lat="27.938496" lon="-15.599879">
        <ele>1441.20</ele>
        <time>2017-12-09T10:40:54Z</time>
      </trkpt>
      <trkpt lat="27.938405" lon="-15.599832">
        <ele>1440.94</ele>
        <time>2017-12-09T10:40:58Z</time>
      </trkpt>
      <trkpt lat="27.938402" lon="-15.599715">
        <ele>1439.80</ele>
        <time>2017-12-09T10:41:04Z</time>
      </trkpt>
      <trkpt lat="27.938354" lon="-15.599604">
        <ele>1440.30</ele>
        <time>2017-12-09T10:41:10Z</time>
      </trkpt>
      <trkpt lat="27.938274" lon="-15.599539">
        <ele>1441.00</ele>
        <time>2017-12-09T10:41:15Z</time>
      </trkpt>
      <trkpt lat="27.938275" lon="-15.599437">
        <ele>1441.35</ele>
        <time>2017-12-09T10:41:18Z</time>
      </trkpt>
      <trkpt lat="27.938232" lon="-15.599340">
        <ele>1441.20</ele>
        <time>2017-12-09T10:41:23Z</time>
      </trkpt>
      <trkpt lat="27.938153" lon="-15.599264">
        <ele>1440.70</ele>
        <time>2017-12-09T10:41:27Z</time>
      </trkpt>
      <trkpt lat="27.938072" lon="-15.599185">
        <ele>1440.60</ele>
        <time>2017-12-09T10:41:31Z</time>
      </trkpt>
      <trkpt lat="27.938005" lon="-15.599111">
        <ele>1439.60</ele>
        <time>2017-12-09T10:41:35Z</time>
      </trkpt>
      <trkpt lat="27.937938" lon="-15.599039">
        <ele>1439.20</ele>
        <time>2017-12-09T10:41:40Z</time>
      </trkpt>
      <trkpt lat="27.937861" lon="-15.598956">
        <ele>1440.20</ele>
        <time>2017-12-09T10:41:44Z</time>
      </trkpt>
      <trkpt lat="27.937798" lon="-15.598876">
        <ele>1439.60</ele>
        <time>2017-12-09T10:41:50Z</time>
      </trkpt>
      <trkpt lat="27.937710" lon="-15.598830">
        <ele>1437.96</ele>
        <time>2017-12-09T10:41:54Z</time>
      </trkpt>
      <trkpt lat="27.937626" lon="-15.598891">
        <ele>1435.90</ele>
        <time>2017-12-09T10:42:00Z</time>
      </trkpt>
      <trkpt lat="27.937537" lon="-15.598908">
        <ele>1434.50</ele>
        <time>2017-12-09T10:42:05Z</time>
      </trkpt>
      <trkpt lat="27.937436" lon="-15.598952">
        <ele>1431.75</ele>
        <time>2017-12-09T10:42:10Z</time>
      </trkpt>
      <trkpt lat="27.937339" lon="-15.598930">
        <ele>1430.08</ele>
        <time>2017-12-09T10:42:13Z</time>
      </trkpt>
      <trkpt lat="27.937238" lon="-15.598946">
        <ele>1429.50</ele>
        <time>2017-12-09T10:42:16Z</time>
      </trkpt>
      <trkpt lat="27.937146" lon="-15.598929">
        <ele>1429.76</ele>
        <time>2017-12-09T10:42:19Z</time>
      </trkpt>
      <trkpt lat="27.937054" lon="-15.598861">
        <ele>1429.50</ele>
        <time>2017-12-09T10:42:23Z</time>
      </trkpt>
      <trkpt lat="27.936971" lon="-15.598810">
        <ele>1429.72</ele>
        <time>2017-12-09T10:42:28Z</time>
      </trkpt>
      <trkpt lat="27.936904" lon="-15.598719">
        <ele>1429.22</ele>
        <time>2017-12-09T10:42:33Z</time>
      </trkpt>
      <trkpt lat="27.936864" lon="-15.598622">
        <ele>1429.22</ele>
        <time>2017-12-09T10:42:37Z</time>
      </trkpt>
      <trkpt lat="27.936771" lon="-15.598565">
        <ele>1427.41</ele>
        <time>2017-12-09T10:42:42Z</time>
      </trkpt>
      <trkpt lat="27.936680" lon="-15.598531">
        <ele>1426.27</ele>
        <time>2017-12-09T10:42:45Z</time>
      </trkpt>
      <trkpt lat="27.936581" lon="-15.598503">
        <ele>1425.58</ele>
        <time>2017-12-09T10:42:49Z</time>
      </trkpt>
      <trkpt lat="27.936490" lon="-15.598494">
        <ele>1424.12</ele>
        <time>2017-12-09T10:42:52Z</time>
      </trkpt>
      <trkpt lat="27.936392" lon="-15.598465">
        <ele>1424.26</ele>
        <time>2017-12-09T10:42:57Z</time>
      </trkpt>
      <trkpt lat="27.936299" lon="-15.598464">
        <ele>1424.10</ele>
        <time>2017-12-09T10:43:03Z</time>
      </trkpt>
      <trkpt lat="27.936209" lon="-15.598413">
        <ele>1424.10</ele>
        <time>2017-12-09T10:43:11Z</time>
      </trkpt>
      <trkpt lat="27.936112" lon="-15.598355">
        <ele>1423.80</ele>
        <time>2017-12-09T10:43:17Z</time>
      </trkpt>
      <trkpt lat="27.936028" lon="-15.598294">
        <ele>1421.83</ele>
        <time>2017-12-09T10:43:22Z</time>
      </trkpt>
      <trkpt lat="27.935928" lon="-15.598266">
        <ele>1420.77</ele>
        <time>2017-12-09T10:43:27Z</time>
      </trkpt>
      <trkpt lat="27.935827" lon="-15.598242">
        <ele>1419.82</ele>
        <time>2017-12-09T10:43:33Z</time>
      </trkpt>
      <trkpt lat="27.935796" lon="-15.598231">
        <ele>1419.23</ele>
        <time>2017-12-09T10:43:35Z</time>
      </trkpt>
      <trkpt lat="27.935778" lon="-15.598226">
        <ele>1418.63</ele>
        <time>2017-12-09T10:43:36Z</time>
      </trkpt>
      <trkpt lat="27.935747" lon="-15.598210">
        <ele>1417.71</ele>
        <time>2017-12-09T10:43:38Z</time>
      </trkpt>
      <trkpt lat="27.935726" lon="-15.598181">
        <ele>1417.03</ele>
        <time>2017-12-09T10:43:40Z</time>
      </trkpt>
      <trkpt lat="27.935727" lon="-15.598157">
        <ele>1417.00</ele>
        <time>2017-12-09T10:43:41Z</time>
      </trkpt>
      <trkpt lat="27.935729" lon="-15.598126">
        <ele>1416.13</ele>
        <time>2017-12-09T10:43:43Z</time>
      </trkpt>
      <trkpt lat="27.935739" lon="-15.598104">
        <ele>1415.71</ele>
        <time>2017-12-09T10:43:45Z</time>
      </trkpt>
      <trkpt lat="27.935753" lon="-15.598075">
        <ele>1415.51</ele>
        <time>2017-12-09T10:43:47Z</time>
      </trkpt>
      <trkpt lat="27.935759" lon="-15.598051">
        <ele>1415.40</ele>
        <time>2017-12-09T10:43:48Z</time>
      </trkpt>
      <trkpt lat="27.935766" lon="-15.598032">
        <ele>1414.81</ele>
        <time>2017-12-09T10:43:49Z</time>
      </trkpt>
      <trkpt lat="27.935776" lon="-15.598012">
        <ele>1414.60</ele>
        <time>2017-12-09T10:43:50Z</time>
      </trkpt>
      <trkpt lat="27.935784" lon="-15.597993">
        <ele>1414.40</ele>
        <time>2017-12-09T10:43:51Z</time>
      </trkpt>
      <trkpt lat="27.935790" lon="-15.597973">
        <ele>1414.40</ele>
        <time>2017-12-09T10:43:52Z</time>
      </trkpt>
      <trkpt lat="27.935795" lon="-15.597952">
        <ele>1413.91</ele>
        <time>2017-12-09T10:43:53Z</time>
      </trkpt>
      <trkpt lat="27.935801" lon="-15.597927">
        <ele>1413.90</ele>
        <time>2017-12-09T10:43:54Z</time>
      </trkpt>
      <trkpt lat="27.935807" lon="-15.597900">
        <ele>1413.90</ele>
        <time>2017-12-09T10:43:55Z</time>
      </trkpt>
      <trkpt lat="27.935811" lon="-15.597871">
        <ele>1413.01</ele>
        <time>2017-12-09T10:43:56Z</time>
      </trkpt>
      <trkpt lat="27.935816" lon="-15.597843">
        <ele>1412.30</ele>
        <time>2017-12-09T10:43:57Z</time>
      </trkpt>
      <trkpt lat="27.935826" lon="-15.597815">
        <ele>1412.30</ele>
        <time>2017-12-09T10:43:58Z</time>
      </trkpt>
      <trkpt lat="27.935833" lon="-15.597790">
        <ele>1412.29</ele>
        <time>2017-12-09T10:43:59Z</time>
      </trkpt>
      <trkpt lat="27.935858" lon="-15.597707">
        <ele>1410.10</ele>
        <time>2017-12-09T10:44:03Z</time>
      </trkpt>
      <trkpt lat="27.935865" lon="-15.597670">
        <ele>1408.77</ele>
        <time>2017-12-09T10:44:05Z</time>
      </trkpt>
      <trkpt lat="27.935873" lon="-15.597633">
        <ele>1407.18</ele>
        <time>2017-12-09T10:44:07Z</time>
      </trkpt>
      <trkpt lat="27.935861" lon="-15.597592">
        <ele>1405.79</ele>
        <time>2017-12-09T10:44:10Z</time>
      </trkpt>
      <trkpt lat="27.935836" lon="-15.597590">
        <ele>1404.67</ele>
        <time>2017-12-09T10:44:12Z</time>
      </trkpt>
      <trkpt lat="27.935820" lon="-15.597599">
        <ele>1404.30</ele>
        <time>2017-12-09T10:44:13Z</time>
      </trkpt>
      <trkpt lat="27.935801" lon="-15.597610">
        <ele>1404.30</ele>
        <time>2017-12-09T10:44:14Z</time>
      </trkpt>
      <trkpt lat="27.935784" lon="-15.597628">
        <ele>1404.23</ele>
        <time>2017-12-09T10:44:15Z</time>
      </trkpt>
      <trkpt lat="27.935767" lon="-15.597650">
        <ele>1403.24</ele>
        <time>2017-12-09T10:44:16Z</time>
      </trkpt>
      <trkpt lat="27.935752" lon="-15.597666">
        <ele>1402.37</ele>
        <time>2017-12-09T10:44:17Z</time>
      </trkpt>
      <trkpt lat="27.935735" lon="-15.597680">
        <ele>1401.97</ele>
        <time>2017-12-09T10:44:18Z</time>
      </trkpt>
      <trkpt lat="27.935719" lon="-15.597694">
        <ele>1401.66</ele>
        <time>2017-12-09T10:44:19Z</time>
      </trkpt>
      <trkpt lat="27.935702" lon="-15.597709">
        <ele>1401.20</ele>
        <time>2017-12-09T10:44:20Z</time>
      </trkpt>
      <trkpt lat="27.935676" lon="-15.597736">
        <ele>1400.04</ele>
        <time>2017-12-09T10:44:22Z</time>
      </trkpt>
      <trkpt lat="27.935661" lon="-15.597751">
        <ele>1399.49</ele>
        <time>2017-12-09T10:44:23Z</time>
      </trkpt>
      <trkpt lat="27.935646" lon="-15.597768">
        <ele>1399.40</ele>
        <time>2017-12-09T10:44:24Z</time>
      </trkpt>
      <trkpt lat="27.935630" lon="-15.597786">
        <ele>1399.36</ele>
        <time>2017-12-09T10:44:25Z</time>
      </trkpt>
      <trkpt lat="27.935616" lon="-15.597805">
        <ele>1399.10</ele>
        <time>2017-12-09T10:44:26Z</time>
      </trkpt>
      <trkpt lat="27.935606" lon="-15.597824">
        <ele>1399.08</ele>
        <time>2017-12-09T10:44:27Z</time>
      </trkpt>
      <trkpt lat="27.935585" lon="-15.597850">
        <ele>1398.36</ele>
        <time>2017-12-09T10:44:29Z</time>
      </trkpt>
      <trkpt lat="27.935567" lon="-15.597872">
        <ele>1397.97</ele>
        <time>2017-12-09T10:44:31Z</time>
      </trkpt>
      <trkpt lat="27.935539" lon="-15.597897">
        <ele>1396.87</ele>
        <time>2017-12-09T10:44:33Z</time>
      </trkpt>
      <trkpt lat="27.935524" lon="-15.597908">
        <ele>1396.54</ele>
        <time>2017-12-09T10:44:34Z</time>
      </trkpt>
      <trkpt lat="27.935505" lon="-15.597915">
        <ele>1395.53</ele>
        <time>2017-12-09T10:44:35Z</time>
      </trkpt>
      <trkpt lat="27.935487" lon="-15.597917">
        <ele>1394.70</ele>
        <time>2017-12-09T10:44:36Z</time>
      </trkpt>
      <trkpt lat="27.935470" lon="-15.597904">
        <ele>1394.40</ele>
        <time>2017-12-09T10:44:38Z</time>
      </trkpt>
      <trkpt lat="27.935456" lon="-15.597888">
        <ele>1394.44</ele>
        <time>2017-12-09T10:44:39Z</time>
      </trkpt>
      <trkpt lat="27.935437" lon="-15.597875">
        <ele>1394.48</ele>
        <time>2017-12-09T10:44:40Z</time>
      </trkpt>
      <trkpt lat="27.935416" lon="-15.597864">
        <ele>1394.00</ele>
        <time>2017-12-09T10:44:41Z</time>
      </trkpt>
      <trkpt lat="27.935392" lon="-15.597857">
        <ele>1393.94</ele>
        <time>2017-12-09T10:44:42Z</time>
      </trkpt>
      <trkpt lat="27.935369" lon="-15.597858">
        <ele>1393.47</ele>
        <time>2017-12-09T10:44:43Z</time>
      </trkpt>
      <trkpt lat="27.935345" lon="-15.597854">
        <ele>1392.51</ele>
        <time>2017-12-09T10:44:44Z</time>
      </trkpt>
      <trkpt lat="27.935319" lon="-15.597844">
        <ele>1392.13</ele>
        <time>2017-12-09T10:44:45Z</time>
      </trkpt>
      <trkpt lat="27.935294" lon="-15.597833">
        <ele>1391.90</ele>
        <time>2017-12-09T10:44:46Z</time>
      </trkpt>
      <trkpt lat="27.935266" lon="-15.597824">
        <ele>1391.73</ele>
        <time>2017-12-09T10:44:47Z</time>
      </trkpt>
      <trkpt lat="27.935243" lon="-15.597819">
        <ele>1390.88</ele>
        <time>2017-12-09T10:44:48Z</time>
      </trkpt>
      <trkpt lat="27.935221" lon="-15.597822">
        <ele>1390.06</ele>
        <time>2017-12-09T10:44:49Z</time>
      </trkpt>
      <trkpt lat="27.935202" lon="-15.597833">
        <ele>1389.90</ele>
        <time>2017-12-09T10:44:50Z</time>
      </trkpt>
      <trkpt lat="27.935185" lon="-15.597839">
        <ele>1389.77</ele>
        <time>2017-12-09T10:44:51Z</time>
      </trkpt>
      <trkpt lat="27.935163" lon="-15.597842">
        <ele>1389.30</ele>
        <time>2017-12-09T10:44:52Z</time>
      </trkpt>
      <trkpt lat="27.935142" lon="-15.597850">
        <ele>1389.19</ele>
        <time>2017-12-09T10:44:53Z</time>
      </trkpt>
      <trkpt lat="27.935121" lon="-15.597858">
        <ele>1388.80</ele>
        <time>2017-12-09T10:44:54Z</time>
      </trkpt>
      <trkpt lat="27.935099" lon="-15.597865">
        <ele>1388.80</ele>
        <time>2017-12-09T10:44:55Z</time>
      </trkpt>
      <trkpt lat="27.935076" lon="-15.597874">
        <ele>1388.80</ele>
        <time>2017-12-09T10:44:56Z</time>
      </trkpt>
      <trkpt lat="27.935053" lon="-15.597890">
        <ele>1388.80</ele>
        <time>2017-12-09T10:44:57Z</time>
      </trkpt>
      <trkpt lat="27.935037" lon="-15.597910">
        <ele>1388.77</ele>
        <time>2017-12-09T10:44:58Z</time>
      </trkpt>
      <trkpt lat="27.935018" lon="-15.597936">
        <ele>1388.70</ele>
        <time>2017-12-09T10:44:59Z</time>
      </trkpt>
      <trkpt lat="27.935008" lon="-15.597957">
        <ele>1388.57</ele>
        <time>2017-12-09T10:45:00Z</time>
      </trkpt>
      <trkpt lat="27.934999" lon="-15.597976">
        <ele>1388.23</ele>
        <time>2017-12-09T10:45:01Z</time>
      </trkpt>
      <trkpt lat="27.934979" lon="-15.598009">
        <ele>1387.60</ele>
        <time>2017-12-09T10:45:03Z</time>
      </trkpt>
      <trkpt lat="27.934950" lon="-15.598040">
        <ele>1387.60</ele>
        <time>2017-12-09T10:45:05Z</time>
      </trkpt>
      <trkpt lat="27.934935" lon="-15.598057">
        <ele>1387.48</ele>
        <time>2017-12-09T10:45:06Z</time>
      </trkpt>
      <trkpt lat="27.934925" lon="-15.598074">
        <ele>1387.17</ele>
        <time>2017-12-09T10:45:07Z</time>
      </trkpt>
      <trkpt lat="27.934899" lon="-15.598105">
        <ele>1385.91</ele>
        <time>2017-12-09T10:45:09Z</time>
      </trkpt>
      <trkpt lat="27.934883" lon="-15.598113">
        <ele>1385.64</ele>
        <time>2017-12-09T10:45:10Z</time>
      </trkpt>
      <trkpt lat="27.934853" lon="-15.598130">
        <ele>1385.17</ele>
        <time>2017-12-09T10:45:12Z</time>
      </trkpt>
      <trkpt lat="27.934818" lon="-15.598142">
        <ele>1384.20</ele>
        <time>2017-12-09T10:45:14Z</time>
      </trkpt>
      <trkpt lat="27.934799" lon="-15.598153">
        <ele>1383.93</ele>
        <time>2017-12-09T10:45:15Z</time>
      </trkpt>
      <trkpt lat="27.934766" lon="-15.598162">
        <ele>1383.09</ele>
        <time>2017-12-09T10:45:17Z</time>
      </trkpt>
      <trkpt lat="27.934733" lon="-15.598175">
        <ele>1382.36</ele>
        <time>2017-12-09T10:45:19Z</time>
      </trkpt>
      <trkpt lat="27.934698" lon="-15.598181">
        <ele>1381.38</ele>
        <time>2017-12-09T10:45:21Z</time>
      </trkpt>
      <trkpt lat="27.934680" lon="-15.598184">
        <ele>1380.63</ele>
        <time>2017-12-09T10:45:22Z</time>
      </trkpt>
      <trkpt lat="27.934662" lon="-15.598191">
        <ele>1379.77</ele>
        <time>2017-12-09T10:45:23Z</time>
      </trkpt>
      <trkpt lat="27.934633" lon="-15.598204">
        <ele>1379.20</ele>
        <time>2017-12-09T10:45:25Z</time>
      </trkpt>
      <trkpt lat="27.934614" lon="-15.598206">
        <ele>1379.00</ele>
        <time>2017-12-09T10:45:26Z</time>
      </trkpt>
      <trkpt lat="27.934595" lon="-15.598211">
        <ele>1378.42</ele>
        <time>2017-12-09T10:45:27Z</time>
      </trkpt>
      <trkpt lat="27.934575" lon="-15.598212">
        <ele>1378.00</ele>
        <time>2017-12-09T10:45:28Z</time>
      </trkpt>
      <trkpt lat="27.934557" lon="-15.598213">
        <ele>1378.00</ele>
        <time>2017-12-09T10:45:29Z</time>
      </trkpt>
      <trkpt lat="27.934525" lon="-15.598219">
        <ele>1378.00</ele>
        <time>2017-12-09T10:45:31Z</time>
      </trkpt>
      <trkpt lat="27.934493" lon="-15.598235">
        <ele>1376.90</ele>
        <time>2017-12-09T10:45:33Z</time>
      </trkpt>
      <trkpt lat="27.934464" lon="-15.598253">
        <ele>1376.90</ele>
        <time>2017-12-09T10:45:35Z</time>
      </trkpt>
      <trkpt lat="27.934445" lon="-15.598253">
        <ele>1376.67</ele>
        <time>2017-12-09T10:45:36Z</time>
      </trkpt>
      <trkpt lat="27.934407" lon="-15.598255">
        <ele>1376.60</ele>
        <time>2017-12-09T10:45:38Z</time>
      </trkpt>
      <trkpt lat="27.934385" lon="-15.598259">
        <ele>1376.02</ele>
        <time>2017-12-09T10:45:39Z</time>
      </trkpt>
      <trkpt lat="27.934367" lon="-15.598262">
        <ele>1375.50</ele>
        <time>2017-12-09T10:45:40Z</time>
      </trkpt>
      <trkpt lat="27.934348" lon="-15.598264">
        <ele>1375.50</ele>
        <time>2017-12-09T10:45:41Z</time>
      </trkpt>
      <trkpt lat="27.934325" lon="-15.598260">
        <ele>1375.01</ele>
        <time>2017-12-09T10:45:43Z</time>
      </trkpt>
      <trkpt lat="27.934290" lon="-15.598258">
        <ele>1374.10</ele>
        <time>2017-12-09T10:45:45Z</time>
      </trkpt>
      <trkpt lat="27.934270" lon="-15.598261">
        <ele>1373.85</ele>
        <time>2017-12-09T10:45:46Z</time>
      </trkpt>
      <trkpt lat="27.934252" lon="-15.598260">
        <ele>1373.23</ele>
        <time>2017-12-09T10:45:47Z</time>
      </trkpt>
      <trkpt lat="27.934218" lon="-15.598257">
        <ele>1372.19</ele>
        <time>2017-12-09T10:45:49Z</time>
      </trkpt>
      <trkpt lat="27.934199" lon="-15.598255">
        <ele>1371.20</ele>
        <time>2017-12-09T10:45:50Z</time>
      </trkpt>
      <trkpt lat="27.934179" lon="-15.598250">
        <ele>1370.34</ele>
        <time>2017-12-09T10:45:51Z</time>
      </trkpt>
      <trkpt lat="27.934153" lon="-15.598247">
        <ele>1370.04</ele>
        <time>2017-12-09T10:45:52Z</time>
      </trkpt>
      <trkpt lat="27.934128" lon="-15.598242">
        <ele>1369.68</ele>
        <time>2017-12-09T10:45:53Z</time>
      </trkpt>
      <trkpt lat="27.934103" lon="-15.598242">
        <ele>1369.50</ele>
        <time>2017-12-09T10:45:54Z</time>
      </trkpt>
      <trkpt lat="27.934082" lon="-15.598243">
        <ele>1368.82</ele>
        <time>2017-12-09T10:45:55Z</time>
      </trkpt>
      <trkpt lat="27.934062" lon="-15.598238">
        <ele>1368.13</ele>
        <time>2017-12-09T10:45:56Z</time>
      </trkpt>
      <trkpt lat="27.934029" lon="-15.598243">
        <ele>1367.01</ele>
        <time>2017-12-09T10:45:58Z</time>
      </trkpt>
      <trkpt lat="27.934009" lon="-15.598241">
        <ele>1366.44</ele>
        <time>2017-12-09T10:45:59Z</time>
      </trkpt>
      <trkpt lat="27.933991" lon="-15.598252">
        <ele>1366.22</ele>
        <time>2017-12-09T10:46:00Z</time>
      </trkpt>
      <trkpt lat="27.933970" lon="-15.598254">
        <ele>1366.22</ele>
        <time>2017-12-09T10:46:01Z</time>
      </trkpt>
      <trkpt lat="27.933934" lon="-15.598261">
        <ele>1365.40</ele>
        <time>2017-12-09T10:46:03Z</time>
      </trkpt>
      <trkpt lat="27.933897" lon="-15.598264">
        <ele>1364.80</ele>
        <time>2017-12-09T10:46:05Z</time>
      </trkpt>
      <trkpt lat="27.933872" lon="-15.598270">
        <ele>1364.61</ele>
        <time>2017-12-09T10:46:06Z</time>
      </trkpt>
      <trkpt lat="27.933849" lon="-15.598278">
        <ele>1364.44</ele>
        <time>2017-12-09T10:46:07Z</time>
      </trkpt>
      <trkpt lat="27.933826" lon="-15.598285">
        <ele>1364.27</ele>
        <time>2017-12-09T10:46:08Z</time>
      </trkpt>
      <trkpt lat="27.933805" lon="-15.598292">
        <ele>1364.07</ele>
        <time>2017-12-09T10:46:09Z</time>
      </trkpt>
      <trkpt lat="27.933783" lon="-15.598306">
        <ele>1364.00</ele>
        <time>2017-12-09T10:46:10Z</time>
      </trkpt>
      <trkpt lat="27.933767" lon="-15.598321">
        <ele>1363.87</ele>
        <time>2017-12-09T10:46:11Z</time>
      </trkpt>
      <trkpt lat="27.933769" lon="-15.598297">
        <ele>1363.70</ele>
        <time>2017-12-09T10:46:15Z</time>
      </trkpt>
      <trkpt lat="27.933781" lon="-15.598264">
        <ele>1363.26</ele>
        <time>2017-12-09T10:46:17Z</time>
      </trkpt>
      <trkpt lat="27.933778" lon="-15.598231">
        <ele>1362.20</ele>
        <time>2017-12-09T10:46:19Z</time>
      </trkpt>
      <trkpt lat="27.933752" lon="-15.598223">
        <ele>1362.06</ele>
        <time>2017-12-09T10:46:21Z</time>
      </trkpt>
      <trkpt lat="27.933736" lon="-15.598234">
        <ele>1361.21</ele>
        <time>2017-12-09T10:46:22Z</time>
      </trkpt>
      <trkpt lat="27.933721" lon="-15.598245">
        <ele>1360.69</ele>
        <time>2017-12-09T10:46:23Z</time>
      </trkpt>
      <trkpt lat="27.933696" lon="-15.598256">
        <ele>1359.80</ele>
        <time>2017-12-09T10:46:25Z</time>
      </trkpt>
      <trkpt lat="27.933668" lon="-15.598264">
        <ele>1358.27</ele>
        <time>2017-12-09T10:46:27Z</time>
      </trkpt>
      <trkpt lat="27.933653" lon="-15.598281">
        <ele>1357.98</ele>
        <time>2017-12-09T10:46:28Z</time>
      </trkpt>
      <trkpt lat="27.933634" lon="-15.598300">
        <ele>1358.00</ele>
        <time>2017-12-09T10:46:29Z</time>
      </trkpt>
      <trkpt lat="27.933614" lon="-15.598315">
        <ele>1357.85</ele>
        <time>2017-12-09T10:46:30Z</time>
      </trkpt>
      <trkpt lat="27.933592" lon="-15.598334">
        <ele>1357.80</ele>
        <time>2017-12-09T10:46:31Z</time>
      </trkpt>
      <trkpt lat="27.933576" lon="-15.598353">
        <ele>1356.79</ele>
        <time>2017-12-09T10:46:32Z</time>
      </trkpt>
      <trkpt lat="27.933559" lon="-15.598366">
        <ele>1356.58</ele>
        <time>2017-12-09T10:46:33Z</time>
      </trkpt>
      <trkpt lat="27.933540" lon="-15.598375">
        <ele>1356.60</ele>
        <time>2017-12-09T10:46:34Z</time>
      </trkpt>
      <trkpt lat="27.933524" lon="-15.598385">
        <ele>1355.97</ele>
        <time>2017-12-09T10:46:35Z</time>
      </trkpt>
      <trkpt lat="27.933507" lon="-15.598392">
        <ele>1355.80</ele>
        <time>2017-12-09T10:46:36Z</time>
      </trkpt>
      <trkpt lat="27.933485" lon="-15.598400">
        <ele>1355.88</ele>
        <time>2017-12-09T10:46:37Z</time>
      </trkpt>
      <trkpt lat="27.933464" lon="-15.598404">
        <ele>1355.67</ele>
        <time>2017-12-09T10:46:38Z</time>
      </trkpt>
      <trkpt lat="27.933438" lon="-15.598404">
        <ele>1355.52</ele>
        <time>2017-12-09T10:46:39Z</time>
      </trkpt>
      <trkpt lat="27.933414" lon="-15.598405">
        <ele>1355.18</ele>
        <time>2017-12-09T10:46:40Z</time>
      </trkpt>
      <trkpt lat="27.933389" lon="-15.598409">
        <ele>1355.02</ele>
        <time>2017-12-09T10:46:41Z</time>
      </trkpt>
      <trkpt lat="27.933371" lon="-15.598417">
        <ele>1354.15</ele>
        <time>2017-12-09T10:46:42Z</time>
      </trkpt>
      <trkpt lat="27.933350" lon="-15.598431">
        <ele>1354.00</ele>
        <time>2017-12-09T10:46:43Z</time>
      </trkpt>
      <trkpt lat="27.933330" lon="-15.598446">
        <ele>1354.00</ele>
        <time>2017-12-09T10:46:44Z</time>
      </trkpt>
      <trkpt lat="27.933297" lon="-15.598446">
        <ele>1353.98</ele>
        <time>2017-12-09T10:46:46Z</time>
      </trkpt>
      <trkpt lat="27.933267" lon="-15.598430">
        <ele>1353.20</ele>
        <time>2017-12-09T10:46:48Z</time>
      </trkpt>
      <trkpt lat="27.933246" lon="-15.598432">
        <ele>1353.01</ele>
        <time>2017-12-09T10:46:49Z</time>
      </trkpt>
      <trkpt lat="27.933207" lon="-15.598444">
        <ele>1353.00</ele>
        <time>2017-12-09T10:46:51Z</time>
      </trkpt>
      <trkpt lat="27.933187" lon="-15.598446">
        <ele>1353.00</ele>
        <time>2017-12-09T10:46:52Z</time>
      </trkpt>
      <trkpt lat="27.933166" lon="-15.598442">
        <ele>1353.00</ele>
        <time>2017-12-09T10:46:53Z</time>
      </trkpt>
      <trkpt lat="27.933135" lon="-15.598424">
        <ele>1352.70</ele>
        <time>2017-12-09T10:46:55Z</time>
      </trkpt>
      <trkpt lat="27.933116" lon="-15.598422">
        <ele>1352.70</ele>
        <time>2017-12-09T10:46:56Z</time>
      </trkpt>
      <trkpt lat="27.933081" lon="-15.598420">
        <ele>1353.18</ele>
        <time>2017-12-09T10:46:58Z</time>
      </trkpt>
      <trkpt lat="27.933048" lon="-15.598403">
        <ele>1353.20</ele>
        <time>2017-12-09T10:47:00Z</time>
      </trkpt>
      <trkpt lat="27.933028" lon="-15.598391">
        <ele>1353.20</ele>
        <time>2017-12-09T10:47:01Z</time>
      </trkpt>
      <trkpt lat="27.933009" lon="-15.598375">
        <ele>1353.20</ele>
        <time>2017-12-09T10:47:02Z</time>
      </trkpt>
      <trkpt lat="27.932989" lon="-15.598362">
        <ele>1353.30</ele>
        <time>2017-12-09T10:47:03Z</time>
      </trkpt>
      <trkpt lat="27.932968" lon="-15.598350">
        <ele>1353.30</ele>
        <time>2017-12-09T10:47:04Z</time>
      </trkpt>
      <trkpt lat="27.932950" lon="-15.598338">
        <ele>1353.30</ele>
        <time>2017-12-09T10:47:05Z</time>
      </trkpt>
      <trkpt lat="27.932919" lon="-15.598310">
        <ele>1353.30</ele>
        <time>2017-12-09T10:47:07Z</time>
      </trkpt>
      <trkpt lat="27.932901" lon="-15.598298">
        <ele>1353.00</ele>
        <time>2017-12-09T10:47:08Z</time>
      </trkpt>
      <trkpt lat="27.932885" lon="-15.598286">
        <ele>1353.00</ele>
        <time>2017-12-09T10:47:09Z</time>
      </trkpt>
      <trkpt lat="27.932868" lon="-15.598275">
        <ele>1352.99</ele>
        <time>2017-12-09T10:47:10Z</time>
      </trkpt>
      <trkpt lat="27.932852" lon="-15.598264">
        <ele>1352.71</ele>
        <time>2017-12-09T10:47:11Z</time>
      </trkpt>
      <trkpt lat="27.932837" lon="-15.598252">
        <ele>1352.99</ele>
        <time>2017-12-09T10:47:12Z</time>
      </trkpt>
      <trkpt lat="27.932822" lon="-15.598242">
        <ele>1352.69</ele>
        <time>2017-12-09T10:47:13Z</time>
      </trkpt>
      <trkpt lat="27.932791" lon="-15.598220">
        <ele>1352.18</ele>
        <time>2017-12-09T10:47:15Z</time>
      </trkpt>
      <trkpt lat="27.932762" lon="-15.598196">
        <ele>1351.29</ele>
        <time>2017-12-09T10:47:17Z</time>
      </trkpt>
      <trkpt lat="27.932746" lon="-15.598184">
        <ele>1350.89</ele>
        <time>2017-12-09T10:47:18Z</time>
      </trkpt>
      <trkpt lat="27.932732" lon="-15.598172">
        <ele>1350.40</ele>
        <time>2017-12-09T10:47:19Z</time>
      </trkpt>
      <trkpt lat="27.932715" lon="-15.598162">
        <ele>1350.36</ele>
        <time>2017-12-09T10:47:20Z</time>
      </trkpt>
      <trkpt lat="27.932685" lon="-15.598144">
        <ele>1349.20</ele>
        <time>2017-12-09T10:47:22Z</time>
      </trkpt>
      <trkpt lat="27.932659" lon="-15.598130">
        <ele>1348.80</ele>
        <time>2017-12-09T10:47:24Z</time>
      </trkpt>
      <trkpt lat="27.932632" lon="-15.598118">
        <ele>1348.78</ele>
        <time>2017-12-09T10:47:26Z</time>
      </trkpt>
      <trkpt lat="27.932604" lon="-15.598097">
        <ele>1347.70</ele>
        <time>2017-12-09T10:47:28Z</time>
      </trkpt>
      <trkpt lat="27.932588" lon="-15.598086">
        <ele>1347.57</ele>
        <time>2017-12-09T10:47:29Z</time>
      </trkpt>
      <trkpt lat="27.932572" lon="-15.598074">
        <ele>1346.97</ele>
        <time>2017-12-09T10:47:30Z</time>
      </trkpt>
      <trkpt lat="27.932555" lon="-15.598063">
        <ele>1346.30</ele>
        <time>2017-12-09T10:47:31Z</time>
      </trkpt>
      <trkpt lat="27.932526" lon="-15.598042">
        <ele>1345.30</ele>
        <time>2017-12-09T10:47:33Z</time>
      </trkpt>
      <trkpt lat="27.932496" lon="-15.598023">
        <ele>1345.29</ele>
        <time>2017-12-09T10:47:35Z</time>
      </trkpt>
      <trkpt lat="27.932463" lon="-15.598008">
        <ele>1343.19</ele>
        <time>2017-12-09T10:47:37Z</time>
      </trkpt>
      <trkpt lat="27.932445" lon="-15.598004">
        <ele>1342.99</ele>
        <time>2017-12-09T10:47:38Z</time>
      </trkpt>
      <trkpt lat="27.932425" lon="-15.597998">
        <ele>1342.79</ele>
        <time>2017-12-09T10:47:39Z</time>
      </trkpt>
      <trkpt lat="27.932406" lon="-15.597987">
        <ele>1342.65</ele>
        <time>2017-12-09T10:47:40Z</time>
      </trkpt>
      <trkpt lat="27.932387" lon="-15.597982">
        <ele>1341.99</ele>
        <time>2017-12-09T10:47:41Z</time>
      </trkpt>
      <trkpt lat="27.932367" lon="-15.597981">
        <ele>1341.77</ele>
        <time>2017-12-09T10:47:42Z</time>
      </trkpt>
      <trkpt lat="27.932348" lon="-15.597980">
        <ele>1341.40</ele>
        <time>2017-12-09T10:47:43Z</time>
      </trkpt>
      <trkpt lat="27.932326" lon="-15.597982">
        <ele>1341.35</ele>
        <time>2017-12-09T10:47:44Z</time>
      </trkpt>
      <trkpt lat="27.932307" lon="-15.597980">
        <ele>1340.69</ele>
        <time>2017-12-09T10:47:45Z</time>
      </trkpt>
      <trkpt lat="27.932285" lon="-15.597979">
        <ele>1340.60</ele>
        <time>2017-12-09T10:47:46Z</time>
      </trkpt>
      <trkpt lat="27.932267" lon="-15.597977">
        <ele>1340.55</ele>
        <time>2017-12-09T10:47:47Z</time>
      </trkpt>
      <trkpt lat="27.932247" lon="-15.597973">
        <ele>1339.60</ele>
        <time>2017-12-09T10:47:48Z</time>
      </trkpt>
      <trkpt lat="27.932212" lon="-15.597966">
        <ele>1338.48</ele>
        <time>2017-12-09T10:47:50Z</time>
      </trkpt>
      <trkpt lat="27.932193" lon="-15.597963">
        <ele>1338.10</ele>
        <time>2017-12-09T10:47:51Z</time>
      </trkpt>
      <trkpt lat="27.932160" lon="-15.597957">
        <ele>1337.07</ele>
        <time>2017-12-09T10:47:53Z</time>
      </trkpt>
      <trkpt lat="27.932140" lon="-15.597954">
        <ele>1336.60</ele>
        <time>2017-12-09T10:47:54Z</time>
      </trkpt>
      <trkpt lat="27.932120" lon="-15.597951">
        <ele>1336.58</ele>
        <time>2017-12-09T10:47:55Z</time>
      </trkpt>
      <trkpt lat="27.932097" lon="-15.597949">
        <ele>1336.29</ele>
        <time>2017-12-09T10:47:56Z</time>
      </trkpt>
      <trkpt lat="27.932079" lon="-15.597944">
        <ele>1336.06</ele>
        <time>2017-12-09T10:47:57Z</time>
      </trkpt>
      <trkpt lat="27.932060" lon="-15.597938">
        <ele>1335.57</ele>
        <time>2017-12-09T10:47:58Z</time>
      </trkpt>
      <trkpt lat="27.932040" lon="-15.597933">
        <ele>1335.14</ele>
        <time>2017-12-09T10:47:59Z</time>
      </trkpt>
      <trkpt lat="27.932018" lon="-15.597923">
        <ele>1334.47</ele>
        <time>2017-12-09T10:48:00Z</time>
      </trkpt>
      <trkpt lat="27.931995" lon="-15.597914">
        <ele>1334.08</ele>
        <time>2017-12-09T10:48:01Z</time>
      </trkpt>
      <trkpt lat="27.931974" lon="-15.597902">
        <ele>1333.89</ele>
        <time>2017-12-09T10:48:02Z</time>
      </trkpt>
      <trkpt lat="27.931952" lon="-15.597892">
        <ele>1333.80</ele>
        <time>2017-12-09T10:48:03Z</time>
      </trkpt>
      <trkpt lat="27.931935" lon="-15.597885">
        <ele>1333.80</ele>
        <time>2017-12-09T10:48:04Z</time>
      </trkpt>
      <trkpt lat="27.931911" lon="-15.597870">
        <ele>1333.72</ele>
        <time>2017-12-09T10:48:05Z</time>
      </trkpt>
      <trkpt lat="27.931893" lon="-15.597860">
        <ele>1332.97</ele>
        <time>2017-12-09T10:48:06Z</time>
      </trkpt>
      <trkpt lat="27.931868" lon="-15.597844">
        <ele>1332.62</ele>
        <time>2017-12-09T10:48:07Z</time>
      </trkpt>
      <trkpt lat="27.931846" lon="-15.597828">
        <ele>1331.86</ele>
        <time>2017-12-09T10:48:08Z</time>
      </trkpt>
      <trkpt lat="27.931830" lon="-15.597813">
        <ele>1331.50</ele>
        <time>2017-12-09T10:48:09Z</time>
      </trkpt>
      <trkpt lat="27.931813" lon="-15.597799">
        <ele>1331.48</ele>
        <time>2017-12-09T10:48:10Z</time>
      </trkpt>
      <trkpt lat="27.931798" lon="-15.597784">
        <ele>1331.22</ele>
        <time>2017-12-09T10:48:11Z</time>
      </trkpt>
      <trkpt lat="27.931779" lon="-15.597772">
        <ele>1330.59</ele>
        <time>2017-12-09T10:48:12Z</time>
      </trkpt>
      <trkpt lat="27.931749" lon="-15.597749">
        <ele>1330.25</ele>
        <time>2017-12-09T10:48:14Z</time>
      </trkpt>
      <trkpt lat="27.931722" lon="-15.597730">
        <ele>1329.32</ele>
        <time>2017-12-09T10:48:16Z</time>
      </trkpt>
      <trkpt lat="27.931707" lon="-15.597715">
        <ele>1328.80</ele>
        <time>2017-12-09T10:48:17Z</time>
      </trkpt>
      <trkpt lat="27.931689" lon="-15.597699">
        <ele>1328.80</ele>
        <time>2017-12-09T10:48:18Z</time>
      </trkpt>
      <trkpt lat="27.931671" lon="-15.597685">
        <ele>1328.71</ele>
        <time>2017-12-09T10:48:19Z</time>
      </trkpt>
      <trkpt lat="27.931653" lon="-15.597671">
        <ele>1328.05</ele>
        <time>2017-12-09T10:48:20Z</time>
      </trkpt>
      <trkpt lat="27.931633" lon="-15.597657">
        <ele>1327.61</ele>
        <time>2017-12-09T10:48:21Z</time>
      </trkpt>
      <trkpt lat="27.931615" lon="-15.597654">
        <ele>1327.00</ele>
        <time>2017-12-09T10:48:22Z</time>
      </trkpt>
      <trkpt lat="27.931599" lon="-15.597643">
        <ele>1326.95</ele>
        <time>2017-12-09T10:48:23Z</time>
      </trkpt>
      <trkpt lat="27.931579" lon="-15.597633">
        <ele>1326.45</ele>
        <time>2017-12-09T10:48:24Z</time>
      </trkpt>
      <trkpt lat="27.931559" lon="-15.597622">
        <ele>1325.46</ele>
        <time>2017-12-09T10:48:25Z</time>
      </trkpt>
      <trkpt lat="27.931541" lon="-15.597614">
        <ele>1325.13</ele>
        <time>2017-12-09T10:48:26Z</time>
      </trkpt>
      <trkpt lat="27.931520" lon="-15.597606">
        <ele>1324.69</ele>
        <time>2017-12-09T10:48:27Z</time>
      </trkpt>
      <trkpt lat="27.931500" lon="-15.597601">
        <ele>1324.39</ele>
        <time>2017-12-09T10:48:28Z</time>
      </trkpt>
      <trkpt lat="27.931480" lon="-15.597606">
        <ele>1323.20</ele>
        <time>2017-12-09T10:48:29Z</time>
      </trkpt>
      <trkpt lat="27.931451" lon="-15.597620">
        <ele>1323.20</ele>
        <time>2017-12-09T10:48:31Z</time>
      </trkpt>
      <trkpt lat="27.931433" lon="-15.597632">
        <ele>1323.20</ele>
        <time>2017-12-09T10:48:32Z</time>
      </trkpt>
      <trkpt lat="27.931416" lon="-15.597651">
        <ele>1323.09</ele>
        <time>2017-12-09T10:48:33Z</time>
      </trkpt>
      <trkpt lat="27.931400" lon="-15.597674">
        <ele>1322.45</ele>
        <time>2017-12-09T10:48:34Z</time>
      </trkpt>
      <trkpt lat="27.931387" lon="-15.597699">
        <ele>1322.20</ele>
        <time>2017-12-09T10:48:35Z</time>
      </trkpt>
      <trkpt lat="27.931376" lon="-15.597725">
        <ele>1322.15</ele>
        <time>2017-12-09T10:48:36Z</time>
      </trkpt>
      <trkpt lat="27.931355" lon="-15.597768">
        <ele>1321.55</ele>
        <time>2017-12-09T10:48:38Z</time>
      </trkpt>
      <trkpt lat="27.931345" lon="-15.597786">
        <ele>1321.20</ele>
        <time>2017-12-09T10:48:39Z</time>
      </trkpt>
      <trkpt lat="27.931334" lon="-15.597803">
        <ele>1320.54</ele>
        <time>2017-12-09T10:48:40Z</time>
      </trkpt>
      <trkpt lat="27.931321" lon="-15.597817">
        <ele>1319.80</ele>
        <time>2017-12-09T10:48:41Z</time>
      </trkpt>
      <trkpt lat="27.931291" lon="-15.597835">
        <ele>1319.66</ele>
        <time>2017-12-09T10:48:43Z</time>
      </trkpt>
      <trkpt lat="27.931268" lon="-15.597841">
        <ele>1319.64</ele>
        <time>2017-12-09T10:48:45Z</time>
      </trkpt>
      <trkpt lat="27.931245" lon="-15.597845">
        <ele>1319.19</ele>
        <time>2017-12-09T10:48:47Z</time>
      </trkpt>
      <trkpt lat="27.931228" lon="-15.597850">
        <ele>1318.24</ele>
        <time>2017-12-09T10:48:48Z</time>
      </trkpt>
      <trkpt lat="27.931200" lon="-15.597859">
        <ele>1317.96</ele>
        <time>2017-12-09T10:48:50Z</time>
      </trkpt>
      <trkpt lat="27.931168" lon="-15.597868">
        <ele>1317.44</ele>
        <time>2017-12-09T10:48:52Z</time>
      </trkpt>
      <trkpt lat="27.931136" lon="-15.597874">
        <ele>1316.50</ele>
        <time>2017-12-09T10:48:54Z</time>
      </trkpt>
      <trkpt lat="27.931111" lon="-15.597880">
        <ele>1316.00</ele>
        <time>2017-12-09T10:48:56Z</time>
      </trkpt>
      <trkpt lat="27.931088" lon="-15.597884">
        <ele>1314.62</ele>
        <time>2017-12-09T10:48:58Z</time>
      </trkpt>
      <trkpt lat="27.931058" lon="-15.597891">
        <ele>1313.82</ele>
        <time>2017-12-09T10:49:00Z</time>
      </trkpt>
      <trkpt lat="27.931030" lon="-15.597900">
        <ele>1312.40</ele>
        <time>2017-12-09T10:49:02Z</time>
      </trkpt>
      <trkpt lat="27.931001" lon="-15.597905">
        <ele>1311.74</ele>
        <time>2017-12-09T10:49:04Z</time>
      </trkpt>
      <trkpt lat="27.930968" lon="-15.597909">
        <ele>1311.44</ele>
        <time>2017-12-09T10:49:06Z</time>
      </trkpt>
      <trkpt lat="27.930948" lon="-15.597917">
        <ele>1311.14</ele>
        <time>2017-12-09T10:49:07Z</time>
      </trkpt>
      <trkpt lat="27.930918" lon="-15.597922">
        <ele>1310.90</ele>
        <time>2017-12-09T10:49:09Z</time>
      </trkpt>
      <trkpt lat="27.930894" lon="-15.597907">
        <ele>1309.52</ele>
        <time>2017-12-09T10:49:11Z</time>
      </trkpt>
      <trkpt lat="27.930873" lon="-15.597897">
        <ele>1309.20</ele>
        <time>2017-12-09T10:49:12Z</time>
      </trkpt>
      <trkpt lat="27.930855" lon="-15.597894">
        <ele>1309.14</ele>
        <time>2017-12-09T10:49:13Z</time>
      </trkpt>
      <trkpt lat="27.930829" lon="-15.597884">
        <ele>1308.64</ele>
        <time>2017-12-09T10:49:15Z</time>
      </trkpt>
      <trkpt lat="27.930801" lon="-15.597862">
        <ele>1307.10</ele>
        <time>2017-12-09T10:49:17Z</time>
      </trkpt>
      <trkpt lat="27.930788" lon="-15.597845">
        <ele>1307.10</ele>
        <time>2017-12-09T10:49:18Z</time>
      </trkpt>
      <trkpt lat="27.930775" lon="-15.597812">
        <ele>1307.10</ele>
        <time>2017-12-09T10:49:20Z</time>
      </trkpt>
      <trkpt lat="27.930761" lon="-15.597797">
        <ele>1307.06</ele>
        <time>2017-12-09T10:49:21Z</time>
      </trkpt>
      <trkpt lat="27.930741" lon="-15.597789">
        <ele>1306.94</ele>
        <time>2017-12-09T10:49:22Z</time>
      </trkpt>
      <trkpt lat="27.930710" lon="-15.597796">
        <ele>1306.91</ele>
        <time>2017-12-09T10:49:24Z</time>
      </trkpt>
      <trkpt lat="27.930685" lon="-15.597785">
        <ele>1305.41</ele>
        <time>2017-12-09T10:49:26Z</time>
      </trkpt>
      <trkpt lat="27.930672" lon="-15.597772">
        <ele>1305.06</ele>
        <time>2017-12-09T10:49:27Z</time>
      </trkpt>
      <trkpt lat="27.930657" lon="-15.597760">
        <ele>1304.77</ele>
        <time>2017-12-09T10:49:28Z</time>
      </trkpt>
      <trkpt lat="27.930635" lon="-15.597761">
        <ele>1304.02</ele>
        <time>2017-12-09T10:49:29Z</time>
      </trkpt>
      <trkpt lat="27.930619" lon="-15.597775">
        <ele>1302.87</ele>
        <time>2017-12-09T10:49:30Z</time>
      </trkpt>
      <trkpt lat="27.930594" lon="-15.597803">
        <ele>1302.27</ele>
        <time>2017-12-09T10:49:32Z</time>
      </trkpt>
      <trkpt lat="27.930563" lon="-15.597821">
        <ele>1301.53</ele>
        <time>2017-12-09T10:49:34Z</time>
      </trkpt>
      <trkpt lat="27.930547" lon="-15.597838">
        <ele>1301.28</ele>
        <time>2017-12-09T10:49:35Z</time>
      </trkpt>
      <trkpt lat="27.930525" lon="-15.597849">
        <ele>1301.18</ele>
        <time>2017-12-09T10:49:37Z</time>
      </trkpt>
      <trkpt lat="27.930492" lon="-15.597862">
        <ele>1300.38</ele>
        <time>2017-12-09T10:49:39Z</time>
      </trkpt>
      <trkpt lat="27.930477" lon="-15.597877">
        <ele>1300.03</ele>
        <time>2017-12-09T10:49:40Z</time>
      </trkpt>
      <trkpt lat="27.930452" lon="-15.597890">
        <ele>1298.88</ele>
        <time>2017-12-09T10:49:42Z</time>
      </trkpt>
      <trkpt lat="27.930424" lon="-15.597902">
        <ele>1298.31</ele>
        <time>2017-12-09T10:49:44Z</time>
      </trkpt>
      <trkpt lat="27.930401" lon="-15.597912">
        <ele>1297.25</ele>
        <time>2017-12-09T10:49:46Z</time>
      </trkpt>
      <trkpt lat="27.930372" lon="-15.597909">
        <ele>1297.26</ele>
        <time>2017-12-09T10:49:48Z</time>
      </trkpt>
      <trkpt lat="27.930343" lon="-15.597922">
        <ele>1296.38</ele>
        <time>2017-12-09T10:49:50Z</time>
      </trkpt>
      <trkpt lat="27.930310" lon="-15.597933">
        <ele>1295.50</ele>
        <time>2017-12-09T10:49:52Z</time>
      </trkpt>
      <trkpt lat="27.930276" lon="-15.597962">
        <ele>1294.44</ele>
        <time>2017-12-09T10:49:54Z</time>
      </trkpt>
      <trkpt lat="27.930256" lon="-15.597988">
        <ele>1293.92</ele>
        <time>2017-12-09T10:49:55Z</time>
      </trkpt>
      <trkpt lat="27.930235" lon="-15.598008">
        <ele>1293.43</ele>
        <time>2017-12-09T10:49:56Z</time>
      </trkpt>
      <trkpt lat="27.930215" lon="-15.598025">
        <ele>1292.70</ele>
        <time>2017-12-09T10:49:57Z</time>
      </trkpt>
      <trkpt lat="27.930194" lon="-15.598038">
        <ele>1292.70</ele>
        <time>2017-12-09T10:49:58Z</time>
      </trkpt>
      <trkpt lat="27.930171" lon="-15.598047">
        <ele>1292.67</ele>
        <time>2017-12-09T10:49:59Z</time>
      </trkpt>
      <trkpt lat="27.930139" lon="-15.598048">
        <ele>1292.21</ele>
        <time>2017-12-09T10:50:01Z</time>
      </trkpt>
      <trkpt lat="27.930119" lon="-15.598050">
        <ele>1291.94</ele>
        <time>2017-12-09T10:50:02Z</time>
      </trkpt>
      <trkpt lat="27.930088" lon="-15.598050">
        <ele>1291.54</ele>
        <time>2017-12-09T10:50:04Z</time>
      </trkpt>
      <trkpt lat="27.930070" lon="-15.598051">
        <ele>1291.40</ele>
        <time>2017-12-09T10:50:05Z</time>
      </trkpt>
      <trkpt lat="27.930038" lon="-15.598051">
        <ele>1290.72</ele>
        <time>2017-12-09T10:50:07Z</time>
      </trkpt>
      <trkpt lat="27.930010" lon="-15.598043">
        <ele>1289.64</ele>
        <time>2017-12-09T10:50:09Z</time>
      </trkpt>
      <trkpt lat="27.929974" lon="-15.598039">
        <ele>1289.18</ele>
        <time>2017-12-09T10:50:11Z</time>
      </trkpt>
      <trkpt lat="27.929942" lon="-15.598028">
        <ele>1288.40</ele>
        <time>2017-12-09T10:50:13Z</time>
      </trkpt>
      <trkpt lat="27.929918" lon="-15.598001">
        <ele>1288.27</ele>
        <time>2017-12-09T10:50:15Z</time>
      </trkpt>
      <trkpt lat="27.929924" lon="-15.597971">
        <ele>1288.00</ele>
        <time>2017-12-09T10:50:17Z</time>
      </trkpt>
      <trkpt lat="27.929952" lon="-15.597962">
        <ele>1287.80</ele>
        <time>2017-12-09T10:50:19Z</time>
      </trkpt>
      <trkpt lat="27.929981" lon="-15.597948">
        <ele>1287.51</ele>
        <time>2017-12-09T10:50:21Z</time>
      </trkpt>
      <trkpt lat="27.930000" lon="-15.597944">
        <ele>1286.81</ele>
        <time>2017-12-09T10:50:22Z</time>
      </trkpt>
      <trkpt lat="27.930017" lon="-15.597934">
        <ele>1286.00</ele>
        <time>2017-12-09T10:50:23Z</time>
      </trkpt>
      <trkpt lat="27.930038" lon="-15.597925">
        <ele>1285.40</ele>
        <time>2017-12-09T10:50:24Z</time>
      </trkpt>
      <trkpt lat="27.930055" lon="-15.597912">
        <ele>1284.70</ele>
        <time>2017-12-09T10:50:25Z</time>
      </trkpt>
      <trkpt lat="27.930075" lon="-15.597897">
        <ele>1284.10</ele>
        <time>2017-12-09T10:50:26Z</time>
      </trkpt>
      <trkpt lat="27.930092" lon="-15.597885">
        <ele>1283.83</ele>
        <time>2017-12-09T10:50:27Z</time>
      </trkpt>
      <trkpt lat="27.930111" lon="-15.597868">
        <ele>1283.27</ele>
        <time>2017-12-09T10:50:28Z</time>
      </trkpt>
      <trkpt lat="27.930129" lon="-15.597847">
        <ele>1283.13</ele>
        <time>2017-12-09T10:50:29Z</time>
      </trkpt>
      <trkpt lat="27.930144" lon="-15.597825">
        <ele>1282.82</ele>
        <time>2017-12-09T10:50:30Z</time>
      </trkpt>
      <trkpt lat="27.930162" lon="-15.597795">
        <ele>1282.21</ele>
        <time>2017-12-09T10:50:31Z</time>
      </trkpt>
      <trkpt lat="27.930184" lon="-15.597761">
        <ele>1281.66</ele>
        <time>2017-12-09T10:50:32Z</time>
      </trkpt>
      <trkpt lat="27.930204" lon="-15.597734">
        <ele>1281.26</ele>
        <time>2017-12-09T10:50:33Z</time>
      </trkpt>
      <trkpt lat="27.930221" lon="-15.597709">
        <ele>1280.46</ele>
        <time>2017-12-09T10:50:34Z</time>
      </trkpt>
      <trkpt lat="27.930236" lon="-15.597688">
        <ele>1279.98</ele>
        <time>2017-12-09T10:50:35Z</time>
      </trkpt>
      <trkpt lat="27.930254" lon="-15.597664">
        <ele>1279.47</ele>
        <time>2017-12-09T10:50:36Z</time>
      </trkpt>
      <trkpt lat="27.930263" lon="-15.597638">
        <ele>1278.92</ele>
        <time>2017-12-09T10:50:37Z</time>
      </trkpt>
      <trkpt lat="27.930268" lon="-15.597613">
        <ele>1278.42</ele>
        <time>2017-12-09T10:50:38Z</time>
      </trkpt>
      <trkpt lat="27.930274" lon="-15.597587">
        <ele>1277.73</ele>
        <time>2017-12-09T10:50:39Z</time>
      </trkpt>
      <trkpt lat="27.930282" lon="-15.597564">
        <ele>1277.16</ele>
        <time>2017-12-09T10:50:40Z</time>
      </trkpt>
      <trkpt lat="27.930280" lon="-15.597540">
        <ele>1276.70</ele>
        <time>2017-12-09T10:50:41Z</time>
      </trkpt>
      <trkpt lat="27.930245" lon="-15.597534">
        <ele>1275.49</ele>
        <time>2017-12-09T10:50:43Z</time>
      </trkpt>
      <trkpt lat="27.930227" lon="-15.597553">
        <ele>1273.86</ele>
        <time>2017-12-09T10:50:44Z</time>
      </trkpt>
      <trkpt lat="27.930211" lon="-15.597576">
        <ele>1273.80</ele>
        <time>2017-12-09T10:50:45Z</time>
      </trkpt>
      <trkpt lat="27.930195" lon="-15.597598">
        <ele>1273.67</ele>
        <time>2017-12-09T10:50:46Z</time>
      </trkpt>
      <trkpt lat="27.930182" lon="-15.597618">
        <ele>1273.50</ele>
        <time>2017-12-09T10:50:47Z</time>
      </trkpt>
      <trkpt lat="27.930168" lon="-15.597643">
        <ele>1273.50</ele>
        <time>2017-12-09T10:50:48Z</time>
      </trkpt>
      <trkpt lat="27.930155" lon="-15.597668">
        <ele>1273.45</ele>
        <time>2017-12-09T10:50:49Z</time>
      </trkpt>
      <trkpt lat="27.930138" lon="-15.597688">
        <ele>1273.40</ele>
        <time>2017-12-09T10:50:50Z</time>
      </trkpt>
      <trkpt lat="27.930120" lon="-15.597705">
        <ele>1273.35</ele>
        <time>2017-12-09T10:50:51Z</time>
      </trkpt>
      <trkpt lat="27.930080" lon="-15.597744">
        <ele>1273.30</ele>
        <time>2017-12-09T10:50:53Z</time>
      </trkpt>
      <trkpt lat="27.930062" lon="-15.597761">
        <ele>1273.30</ele>
        <time>2017-12-09T10:50:54Z</time>
      </trkpt>
      <trkpt lat="27.930045" lon="-15.597772">
        <ele>1273.49</ele>
        <time>2017-12-09T10:50:55Z</time>
      </trkpt>
      <trkpt lat="27.930007" lon="-15.597789">
        <ele>1274.04</ele>
        <time>2017-12-09T10:50:57Z</time>
      </trkpt>
      <trkpt lat="27.929988" lon="-15.597799">
        <ele>1274.30</ele>
        <time>2017-12-09T10:50:58Z</time>
      </trkpt>
      <trkpt lat="27.929969" lon="-15.597805">
        <ele>1274.25</ele>
        <time>2017-12-09T10:50:59Z</time>
      </trkpt>
      <trkpt lat="27.929938" lon="-15.597805">
        <ele>1274.40</ele>
        <time>2017-12-09T10:51:01Z</time>
      </trkpt>
      <trkpt lat="27.929906" lon="-15.597801">
        <ele>1274.50</ele>
        <time>2017-12-09T10:51:03Z</time>
      </trkpt>
      <trkpt lat="27.929882" lon="-15.597798">
        <ele>1274.50</ele>
        <time>2017-12-09T10:51:05Z</time>
      </trkpt>
      <trkpt lat="27.929857" lon="-15.597803">
        <ele>1274.70</ele>
        <time>2017-12-09T10:51:07Z</time>
      </trkpt>
      <trkpt lat="27.929827" lon="-15.597800">
        <ele>1274.80</ele>
        <time>2017-12-09T10:51:10Z</time>
      </trkpt>
      <trkpt lat="27.929805" lon="-15.597799">
        <ele>1275.75</ele>
        <time>2017-12-09T10:51:12Z</time>
      </trkpt>
      <trkpt lat="27.929787" lon="-15.597804">
        <ele>1275.74</ele>
        <time>2017-12-09T10:51:14Z</time>
      </trkpt>
      <trkpt lat="27.929762" lon="-15.597818">
        <ele>1275.90</ele>
        <time>2017-12-09T10:51:16Z</time>
      </trkpt>
      <trkpt lat="27.929737" lon="-15.597835">
        <ele>1276.05</ele>
        <time>2017-12-09T10:51:18Z</time>
      </trkpt>
      <trkpt lat="27.929720" lon="-15.597847">
        <ele>1276.15</ele>
        <time>2017-12-09T10:51:19Z</time>
      </trkpt>
      <trkpt lat="27.929698" lon="-15.597860">
        <ele>1276.96</ele>
        <time>2017-12-09T10:51:21Z</time>
      </trkpt>
      <trkpt lat="27.929678" lon="-15.597869">
        <ele>1277.34</ele>
        <time>2017-12-09T10:51:23Z</time>
      </trkpt>
      <trkpt lat="27.929658" lon="-15.597876">
        <ele>1277.22</ele>
        <time>2017-12-09T10:51:25Z</time>
      </trkpt>
      <trkpt lat="27.929635" lon="-15.597881">
        <ele>1277.38</ele>
        <time>2017-12-09T10:51:27Z</time>
      </trkpt>
      <trkpt lat="27.929614" lon="-15.597873">
        <ele>1277.50</ele>
        <time>2017-12-09T10:51:29Z</time>
      </trkpt>
      <trkpt lat="27.929593" lon="-15.597854">
        <ele>1277.70</ele>
        <time>2017-12-09T10:51:31Z</time>
      </trkpt>
      <trkpt lat="27.929579" lon="-15.597842">
        <ele>1277.83</ele>
        <time>2017-12-09T10:51:32Z</time>
      </trkpt>
      <trkpt lat="27.929562" lon="-15.597827">
        <ele>1278.46</ele>
        <time>2017-12-09T10:51:33Z</time>
      </trkpt>
      <trkpt lat="27.929543" lon="-15.597813">
        <ele>1278.80</ele>
        <time>2017-12-09T10:51:34Z</time>
      </trkpt>
      <trkpt lat="27.929526" lon="-15.597806">
        <ele>1278.80</ele>
        <time>2017-12-09T10:51:35Z</time>
      </trkpt>
      <trkpt lat="27.929506" lon="-15.597794">
        <ele>1278.80</ele>
        <time>2017-12-09T10:51:36Z</time>
      </trkpt>
      <trkpt lat="27.929488" lon="-15.597785">
        <ele>1278.74</ele>
        <time>2017-12-09T10:51:37Z</time>
      </trkpt>
      <trkpt lat="27.929470" lon="-15.597774">
        <ele>1278.64</ele>
        <time>2017-12-09T10:51:38Z</time>
      </trkpt>
      <trkpt lat="27.929449" lon="-15.597760">
        <ele>1278.60</ele>
        <time>2017-12-09T10:51:39Z</time>
      </trkpt>
      <trkpt lat="27.929429" lon="-15.597746">
        <ele>1278.08</ele>
        <time>2017-12-09T10:51:40Z</time>
      </trkpt>
      <trkpt lat="27.929409" lon="-15.597735">
        <ele>1277.28</ele>
        <time>2017-12-09T10:51:41Z</time>
      </trkpt>
      <trkpt lat="27.929384" lon="-15.597723">
        <ele>1276.48</ele>
        <time>2017-12-09T10:51:42Z</time>
      </trkpt>
      <trkpt lat="27.929360" lon="-15.597713">
        <ele>1276.00</ele>
        <time>2017-12-09T10:51:43Z</time>
      </trkpt>
      <trkpt lat="27.929339" lon="-15.597701">
        <ele>1275.11</ele>
        <time>2017-12-09T10:51:44Z</time>
      </trkpt>
      <trkpt lat="27.929321" lon="-15.597688">
        <ele>1274.04</ele>
        <time>2017-12-09T10:51:45Z</time>
      </trkpt>
      <trkpt lat="27.929301" lon="-15.597669">
        <ele>1273.63</ele>
        <time>2017-12-09T10:51:46Z</time>
      </trkpt>
      <trkpt lat="27.929283" lon="-15.597651">
        <ele>1273.20</ele>
        <time>2017-12-09T10:51:47Z</time>
      </trkpt>
      <trkpt lat="27.929260" lon="-15.597629">
        <ele>1273.00</ele>
        <time>2017-12-09T10:51:48Z</time>
      </trkpt>
      <trkpt lat="27.929235" lon="-15.597610">
        <ele>1272.40</ele>
        <time>2017-12-09T10:51:49Z</time>
      </trkpt>
      <trkpt lat="27.929215" lon="-15.597591">
        <ele>1272.10</ele>
        <time>2017-12-09T10:51:50Z</time>
      </trkpt>
      <trkpt lat="27.929192" lon="-15.597574">
        <ele>1272.03</ele>
        <time>2017-12-09T10:51:51Z</time>
      </trkpt>
      <trkpt lat="27.929167" lon="-15.597559">
        <ele>1272.00</ele>
        <time>2017-12-09T10:51:52Z</time>
      </trkpt>
      <trkpt lat="27.929140" lon="-15.597545">
        <ele>1271.86</ele>
        <time>2017-12-09T10:51:53Z</time>
      </trkpt>
      <trkpt lat="27.929116" lon="-15.597529">
        <ele>1271.05</ele>
        <time>2017-12-09T10:51:54Z</time>
      </trkpt>
      <trkpt lat="27.929091" lon="-15.597512">
        <ele>1270.56</ele>
        <time>2017-12-09T10:51:55Z</time>
      </trkpt>
      <trkpt lat="27.929070" lon="-15.597494">
        <ele>1269.95</ele>
        <time>2017-12-09T10:51:56Z</time>
      </trkpt>
      <trkpt lat="27.929049" lon="-15.597475">
        <ele>1269.50</ele>
        <time>2017-12-09T10:51:57Z</time>
      </trkpt>
      <trkpt lat="27.929030" lon="-15.597456">
        <ele>1269.33</ele>
        <time>2017-12-09T10:51:58Z</time>
      </trkpt>
      <trkpt lat="27.929019" lon="-15.597437">
        <ele>1269.03</ele>
        <time>2017-12-09T10:51:59Z</time>
      </trkpt>
      <trkpt lat="27.929006" lon="-15.597417">
        <ele>1268.15</ele>
        <time>2017-12-09T10:52:00Z</time>
      </trkpt>
      <trkpt lat="27.928994" lon="-15.597395">
        <ele>1267.80</ele>
        <time>2017-12-09T10:52:01Z</time>
      </trkpt>
      <trkpt lat="27.928978" lon="-15.597374">
        <ele>1267.73</ele>
        <time>2017-12-09T10:52:02Z</time>
      </trkpt>
      <trkpt lat="27.928962" lon="-15.597363">
        <ele>1267.70</ele>
        <time>2017-12-09T10:52:03Z</time>
      </trkpt>
      <trkpt lat="27.928939" lon="-15.597353">
        <ele>1267.22</ele>
        <time>2017-12-09T10:52:04Z</time>
      </trkpt>
      <trkpt lat="27.928913" lon="-15.597348">
        <ele>1266.93</ele>
        <time>2017-12-09T10:52:05Z</time>
      </trkpt>
      <trkpt lat="27.928885" lon="-15.597347">
        <ele>1266.90</ele>
        <time>2017-12-09T10:52:06Z</time>
      </trkpt>
      <trkpt lat="27.928863" lon="-15.597345">
        <ele>1266.83</ele>
        <time>2017-12-09T10:52:07Z</time>
      </trkpt>
      <trkpt lat="27.928837" lon="-15.597335">
        <ele>1266.80</ele>
        <time>2017-12-09T10:52:08Z</time>
      </trkpt>
      <trkpt lat="27.928814" lon="-15.597327">
        <ele>1266.80</ele>
        <time>2017-12-09T10:52:09Z</time>
      </trkpt>
      <trkpt lat="27.928794" lon="-15.597318">
        <ele>1266.73</ele>
        <time>2017-12-09T10:52:10Z</time>
      </trkpt>
      <trkpt lat="27.928772" lon="-15.597304">
        <ele>1266.56</ele>
        <time>2017-12-09T10:52:11Z</time>
      </trkpt>
      <trkpt lat="27.928757" lon="-15.597287">
        <ele>1266.01</ele>
        <time>2017-12-09T10:52:12Z</time>
      </trkpt>
      <trkpt lat="27.928744" lon="-15.597264">
        <ele>1265.59</ele>
        <time>2017-12-09T10:52:13Z</time>
      </trkpt>
      <trkpt lat="27.928736" lon="-15.597245">
        <ele>1265.08</ele>
        <time>2017-12-09T10:52:14Z</time>
      </trkpt>
      <trkpt lat="27.928730" lon="-15.597218">
        <ele>1264.83</ele>
        <time>2017-12-09T10:52:15Z</time>
      </trkpt>
      <trkpt lat="27.928726" lon="-15.597193">
        <ele>1264.45</ele>
        <time>2017-12-09T10:52:16Z</time>
      </trkpt>
      <trkpt lat="27.928718" lon="-15.597164">
        <ele>1264.09</ele>
        <time>2017-12-09T10:52:17Z</time>
      </trkpt>
      <trkpt lat="27.928709" lon="-15.597140">
        <ele>1264.00</ele>
        <time>2017-12-09T10:52:18Z</time>
      </trkpt>
      <trkpt lat="27.928702" lon="-15.597114">
        <ele>1263.43</ele>
        <time>2017-12-09T10:52:19Z</time>
      </trkpt>
      <trkpt lat="27.928689" lon="-15.597089">
        <ele>1262.55</ele>
        <time>2017-12-09T10:52:20Z</time>
      </trkpt>
      <trkpt lat="27.928676" lon="-15.597062">
        <ele>1262.08</ele>
        <time>2017-12-09T10:52:21Z</time>
      </trkpt>
      <trkpt lat="27.928660" lon="-15.597038">
        <ele>1262.00</ele>
        <time>2017-12-09T10:52:22Z</time>
      </trkpt>
      <trkpt lat="27.928643" lon="-15.597016">
        <ele>1261.13</ele>
        <time>2017-12-09T10:52:23Z</time>
      </trkpt>
      <trkpt lat="27.928626" lon="-15.596996">
        <ele>1260.80</ele>
        <time>2017-12-09T10:52:24Z</time>
      </trkpt>
      <trkpt lat="27.928608" lon="-15.596973">
        <ele>1260.73</ele>
        <time>2017-12-09T10:52:25Z</time>
      </trkpt>
      <trkpt lat="27.928588" lon="-15.596952">
        <ele>1259.75</ele>
        <time>2017-12-09T10:52:26Z</time>
      </trkpt>
      <trkpt lat="27.928570" lon="-15.596936">
        <ele>1259.40</ele>
        <time>2017-12-09T10:52:27Z</time>
      </trkpt>
      <trkpt lat="27.928550" lon="-15.596917">
        <ele>1259.03</ele>
        <time>2017-12-09T10:52:28Z</time>
      </trkpt>
      <trkpt lat="27.928523" lon="-15.596903">
        <ele>1258.90</ele>
        <time>2017-12-09T10:52:29Z</time>
      </trkpt>
      <trkpt lat="27.928497" lon="-15.596894">
        <ele>1258.60</ele>
        <time>2017-12-09T10:52:30Z</time>
      </trkpt>
      <trkpt lat="27.928472" lon="-15.596884">
        <ele>1258.06</ele>
        <time>2017-12-09T10:52:31Z</time>
      </trkpt>
      <trkpt lat="27.928451" lon="-15.596872">
        <ele>1257.83</ele>
        <time>2017-12-09T10:52:32Z</time>
      </trkpt>
      <trkpt lat="27.928488" lon="-15.596870">
        <ele>1256.50</ele>
        <time>2017-12-09T10:52:36Z</time>
      </trkpt>
      <trkpt lat="27.928526" lon="-15.596852">
        <ele>1254.75</ele>
        <time>2017-12-09T10:52:40Z</time>
      </trkpt>
      <trkpt lat="27.928514" lon="-15.596803">
        <ele>1253.44</ele>
        <time>2017-12-09T10:52:42Z</time>
      </trkpt>
      <trkpt lat="27.928503" lon="-15.596776">
        <ele>1253.12</ele>
        <time>2017-12-09T10:52:43Z</time>
      </trkpt>
      <trkpt lat="27.928491" lon="-15.596756">
        <ele>1252.87</ele>
        <time>2017-12-09T10:52:44Z</time>
      </trkpt>
      <trkpt lat="27.928480" lon="-15.596736">
        <ele>1252.49</ele>
        <time>2017-12-09T10:52:45Z</time>
      </trkpt>
      <trkpt lat="27.928464" lon="-15.596713">
        <ele>1252.40</ele>
        <time>2017-12-09T10:52:46Z</time>
      </trkpt>
      <trkpt lat="27.928450" lon="-15.596695">
        <ele>1251.61</ele>
        <time>2017-12-09T10:52:47Z</time>
      </trkpt>
      <trkpt lat="27.928434" lon="-15.596679">
        <ele>1251.16</ele>
        <time>2017-12-09T10:52:48Z</time>
      </trkpt>
      <trkpt lat="27.928419" lon="-15.596662">
        <ele>1251.02</ele>
        <time>2017-12-09T10:52:49Z</time>
      </trkpt>
      <trkpt lat="27.928402" lon="-15.596640">
        <ele>1250.37</ele>
        <time>2017-12-09T10:52:50Z</time>
      </trkpt>
      <trkpt lat="27.928388" lon="-15.596614">
        <ele>1250.20</ele>
        <time>2017-12-09T10:52:51Z</time>
      </trkpt>
      <trkpt lat="27.928383" lon="-15.596588">
        <ele>1250.04</ele>
        <time>2017-12-09T10:52:52Z</time>
      </trkpt>
      <trkpt lat="27.928379" lon="-15.596558">
        <ele>1249.44</ele>
        <time>2017-12-09T10:52:53Z</time>
      </trkpt>
      <trkpt lat="27.928379" lon="-15.596534">
        <ele>1249.22</ele>
        <time>2017-12-09T10:52:54Z</time>
      </trkpt>
      <trkpt lat="27.928378" lon="-15.596511">
        <ele>1249.12</ele>
        <time>2017-12-09T10:52:55Z</time>
      </trkpt>
      <trkpt lat="27.928379" lon="-15.596472">
        <ele>1248.20</ele>
        <time>2017-12-09T10:52:57Z</time>
      </trkpt>
      <trkpt lat="27.928376" lon="-15.596452">
        <ele>1247.80</ele>
        <time>2017-12-09T10:52:58Z</time>
      </trkpt>
      <trkpt lat="27.928369" lon="-15.596429">
        <ele>1247.70</ele>
        <time>2017-12-09T10:52:59Z</time>
      </trkpt>
      <trkpt lat="27.928360" lon="-15.596407">
        <ele>1247.62</ele>
        <time>2017-12-09T10:53:00Z</time>
      </trkpt>
      <trkpt lat="27.928350" lon="-15.596389">
        <ele>1248.00</ele>
        <time>2017-12-09T10:53:01Z</time>
      </trkpt>
      <trkpt lat="27.928338" lon="-15.596356">
        <ele>1247.60</ele>
        <time>2017-12-09T10:53:03Z</time>
      </trkpt>
      <trkpt lat="27.928317" lon="-15.596321">
        <ele>1246.89</ele>
        <time>2017-12-09T10:53:05Z</time>
      </trkpt>
      <trkpt lat="27.928301" lon="-15.596304">
        <ele>1246.14</ele>
        <time>2017-12-09T10:53:06Z</time>
      </trkpt>
      <trkpt lat="27.928287" lon="-15.596281">
        <ele>1245.92</ele>
        <time>2017-12-09T10:53:07Z</time>
      </trkpt>
      <trkpt lat="27.928271" lon="-15.596260">
        <ele>1245.49</ele>
        <time>2017-12-09T10:53:08Z</time>
      </trkpt>
      <trkpt lat="27.928255" lon="-15.596236">
        <ele>1245.23</ele>
        <time>2017-12-09T10:53:09Z</time>
      </trkpt>
      <trkpt lat="27.928239" lon="-15.596217">
        <ele>1244.95</ele>
        <time>2017-12-09T10:53:10Z</time>
      </trkpt>
      <trkpt lat="27.928215" lon="-15.596199">
        <ele>1244.82</ele>
        <time>2017-12-09T10:53:11Z</time>
      </trkpt>
      <trkpt lat="27.928188" lon="-15.596188">
        <ele>1244.72</ele>
        <time>2017-12-09T10:53:12Z</time>
      </trkpt>
      <trkpt lat="27.928160" lon="-15.596182">
        <ele>1244.19</ele>
        <time>2017-12-09T10:53:13Z</time>
      </trkpt>
      <trkpt lat="27.928133" lon="-15.596172">
        <ele>1243.25</ele>
        <time>2017-12-09T10:53:14Z</time>
      </trkpt>
      <trkpt lat="27.928104" lon="-15.596164">
        <ele>1243.19</ele>
        <time>2017-12-09T10:53:15Z</time>
      </trkpt>
      <trkpt lat="27.928076" lon="-15.596151">
        <ele>1243.11</ele>
        <time>2017-12-09T10:53:16Z</time>
      </trkpt>
      <trkpt lat="27.928053" lon="-15.596139">
        <ele>1242.24</ele>
        <time>2017-12-09T10:53:17Z</time>
      </trkpt>
      <trkpt lat="27.928031" lon="-15.596126">
        <ele>1242.10</ele>
        <time>2017-12-09T10:53:18Z</time>
      </trkpt>
      <trkpt lat="27.928015" lon="-15.596112">
        <ele>1241.67</ele>
        <time>2017-12-09T10:53:19Z</time>
      </trkpt>
      <trkpt lat="27.927998" lon="-15.596007">
        <ele>1241.00</ele>
        <time>2017-12-09T10:53:25Z</time>
      </trkpt>
      <trkpt lat="27.927997" lon="-15.595981">
        <ele>1240.91</ele>
        <time>2017-12-09T10:53:26Z</time>
      </trkpt>
      <trkpt lat="27.927986" lon="-15.595961">
        <ele>1240.90</ele>
        <time>2017-12-09T10:53:27Z</time>
      </trkpt>
      <trkpt lat="27.927943" lon="-15.595872">
        <ele>1241.36</ele>
        <time>2017-12-09T10:53:32Z</time>
      </trkpt>
      <trkpt lat="27.927949" lon="-15.595849">
        <ele>1242.73</ele>
        <time>2017-12-09T10:53:34Z</time>
      </trkpt>
      <trkpt lat="27.927968" lon="-15.595838">
        <ele>1242.80</ele>
        <time>2017-12-09T10:53:36Z</time>
      </trkpt>
      <trkpt lat="27.928038" lon="-15.595764">
        <ele>1242.20</ele>
        <time>2017-12-09T10:53:42Z</time>
      </trkpt>
      <trkpt lat="27.928111" lon="-15.595688">
        <ele>1241.90</ele>
        <time>2017-12-09T10:53:48Z</time>
      </trkpt>
      <trkpt lat="27.928159" lon="-15.595588">
        <ele>1241.32</ele>
        <time>2017-12-09T10:53:52Z</time>
      </trkpt>
      <trkpt lat="27.928173" lon="-15.595483">
        <ele>1240.40</ele>
        <time>2017-12-09T10:53:56Z</time>
      </trkpt>
      <trkpt lat="27.928176" lon="-15.595456">
        <ele>1240.05</ele>
        <time>2017-12-09T10:53:57Z</time>
      </trkpt>
      <trkpt lat="27.928170" lon="-15.595433">
        <ele>1239.91</ele>
        <time>2017-12-09T10:53:58Z</time>
      </trkpt>
      <trkpt lat="27.928156" lon="-15.595411">
        <ele>1238.92</ele>
        <time>2017-12-09T10:53:59Z</time>
      </trkpt>
      <trkpt lat="27.928142" lon="-15.595391">
        <ele>1238.26</ele>
        <time>2017-12-09T10:54:00Z</time>
      </trkpt>
      <trkpt lat="27.928126" lon="-15.595377">
        <ele>1238.20</ele>
        <time>2017-12-09T10:54:01Z</time>
      </trkpt>
      <trkpt lat="27.928022" lon="-15.595347">
        <ele>1236.10</ele>
        <time>2017-12-09T10:54:05Z</time>
      </trkpt>
      <trkpt lat="27.928024" lon="-15.595244">
        <ele>1233.90</ele>
        <time>2017-12-09T10:54:15Z</time>
      </trkpt>
      <trkpt lat="27.928036" lon="-15.595228">
        <ele>1233.90</ele>
        <time>2017-12-09T10:54:16Z</time>
      </trkpt>
      <trkpt lat="27.928047" lon="-15.595207">
        <ele>1233.52</ele>
        <time>2017-12-09T10:54:17Z</time>
      </trkpt>
      <trkpt lat="27.928076" lon="-15.595111">
        <ele>1232.21</ele>
        <time>2017-12-09T10:54:21Z</time>
      </trkpt>
      <trkpt lat="27.928123" lon="-15.595019">
        <ele>1231.00</ele>
        <time>2017-12-09T10:54:25Z</time>
      </trkpt>
      <trkpt lat="27.928143" lon="-15.595007">
        <ele>1231.00</ele>
        <time>2017-12-09T10:54:26Z</time>
      </trkpt>
      <trkpt lat="27.928161" lon="-15.594990">
        <ele>1231.00</ele>
        <time>2017-12-09T10:54:27Z</time>
      </trkpt>
      <trkpt lat="27.928176" lon="-15.594975">
        <ele>1230.61</ele>
        <time>2017-12-09T10:54:28Z</time>
      </trkpt>
      <trkpt lat="27.928193" lon="-15.594955">
        <ele>1229.72</ele>
        <time>2017-12-09T10:54:29Z</time>
      </trkpt>
      <trkpt lat="27.928210" lon="-15.594939">
        <ele>1229.70</ele>
        <time>2017-12-09T10:54:30Z</time>
      </trkpt>
      <trkpt lat="27.928228" lon="-15.594921">
        <ele>1229.70</ele>
        <time>2017-12-09T10:54:31Z</time>
      </trkpt>
      <trkpt lat="27.928245" lon="-15.594897">
        <ele>1229.40</ele>
        <time>2017-12-09T10:54:32Z</time>
      </trkpt>
      <trkpt lat="27.928256" lon="-15.594877">
        <ele>1229.40</ele>
        <time>2017-12-09T10:54:33Z</time>
      </trkpt>
      <trkpt lat="27.928268" lon="-15.594856">
        <ele>1229.90</ele>
        <time>2017-12-09T10:54:34Z</time>
      </trkpt>
      <trkpt lat="27.928308" lon="-15.594746">
        <ele>1229.10</ele>
        <time>2017-12-09T10:54:38Z</time>
      </trkpt>
      <trkpt lat="27.928337" lon="-15.594648">
        <ele>1227.40</ele>
        <time>2017-12-09T10:54:42Z</time>
      </trkpt>
      <trkpt lat="27.928338" lon="-15.594528">
        <ele>1227.30</ele>
        <time>2017-12-09T10:54:46Z</time>
      </trkpt>
      <trkpt lat="27.928317" lon="-15.594424">
        <ele>1225.76</ele>
        <time>2017-12-09T10:54:50Z</time>
      </trkpt>
      <trkpt lat="27.928295" lon="-15.594288">
        <ele>1224.39</ele>
        <time>2017-12-09T10:54:54Z</time>
      </trkpt>
      <trkpt lat="27.928283" lon="-15.594180">
        <ele>1223.46</ele>
        <time>2017-12-09T10:54:57Z</time>
      </trkpt>
      <trkpt lat="27.928277" lon="-15.594073">
        <ele>1222.80</ele>
        <time>2017-12-09T10:55:00Z</time>
      </trkpt>
      <trkpt lat="27.928312" lon="-15.593964">
        <ele>1221.53</ele>
        <time>2017-12-09T10:55:05Z</time>
      </trkpt>
      <trkpt lat="27.928329" lon="-15.593844">
        <ele>1220.99</ele>
        <time>2017-12-09T10:55:10Z</time>
      </trkpt>
      <trkpt lat="27.928371" lon="-15.593746">
        <ele>1222.00</ele>
        <time>2017-12-09T10:55:15Z</time>
      </trkpt>
      <trkpt lat="27.928394" lon="-15.593628">
        <ele>1222.36</ele>
        <time>2017-12-09T10:55:21Z</time>
      </trkpt>
      <trkpt lat="27.928402" lon="-15.593514">
        <ele>1221.00</ele>
        <time>2017-12-09T10:55:25Z</time>
      </trkpt>
      <trkpt lat="27.928403" lon="-15.593475">
        <ele>1221.00</ele>
        <time>2017-12-09T10:55:26Z</time>
      </trkpt>
      <trkpt lat="27.928399" lon="-15.593413">
        <ele>1220.80</ele>
        <time>2017-12-09T10:55:28Z</time>
      </trkpt>
      <trkpt lat="27.928402" lon="-15.593390">
        <ele>1220.45</ele>
        <time>2017-12-09T10:55:29Z</time>
      </trkpt>
      <trkpt lat="27.928400" lon="-15.593340">
        <ele>1219.08</ele>
        <time>2017-12-09T10:55:31Z</time>
      </trkpt>
      <trkpt lat="27.928402" lon="-15.593316">
        <ele>1218.98</ele>
        <time>2017-12-09T10:55:32Z</time>
      </trkpt>
      <trkpt lat="27.928399" lon="-15.593291">
        <ele>1218.72</ele>
        <time>2017-12-09T10:55:33Z</time>
      </trkpt>
      <trkpt lat="27.928392" lon="-15.593262">
        <ele>1217.96</ele>
        <time>2017-12-09T10:55:34Z</time>
      </trkpt>
      <trkpt lat="27.928393" lon="-15.593240">
        <ele>1217.84</ele>
        <time>2017-12-09T10:55:35Z</time>
      </trkpt>
      <trkpt lat="27.928391" lon="-15.593215">
        <ele>1217.96</ele>
        <time>2017-12-09T10:55:36Z</time>
      </trkpt>
      <trkpt lat="27.928384" lon="-15.593181">
        <ele>1217.73</ele>
        <time>2017-12-09T10:55:37Z</time>
      </trkpt>
      <trkpt lat="27.928383" lon="-15.593152">
        <ele>1217.32</ele>
        <time>2017-12-09T10:55:38Z</time>
      </trkpt>
      <trkpt lat="27.928377" lon="-15.593132">
        <ele>1216.65</ele>
        <time>2017-12-09T10:55:39Z</time>
      </trkpt>
      <trkpt lat="27.928374" lon="-15.593107">
        <ele>1216.34</ele>
        <time>2017-12-09T10:55:40Z</time>
      </trkpt>
      <trkpt lat="27.928367" lon="-15.593088">
        <ele>1215.80</ele>
        <time>2017-12-09T10:55:41Z</time>
      </trkpt>
      <trkpt lat="27.928361" lon="-15.593057">
        <ele>1215.21</ele>
        <time>2017-12-09T10:55:43Z</time>
      </trkpt>
      <trkpt lat="27.928340" lon="-15.593025">
        <ele>1214.30</ele>
        <time>2017-12-09T10:55:45Z</time>
      </trkpt>
      <trkpt lat="27.928325" lon="-15.592992">
        <ele>1214.12</ele>
        <time>2017-12-09T10:55:47Z</time>
      </trkpt>
      <trkpt lat="27.928315" lon="-15.592972">
        <ele>1213.82</ele>
        <time>2017-12-09T10:55:48Z</time>
      </trkpt>
      <trkpt lat="27.928304" lon="-15.592949">
        <ele>1213.47</ele>
        <time>2017-12-09T10:55:49Z</time>
      </trkpt>
      <trkpt lat="27.928293" lon="-15.592921">
        <ele>1213.18</ele>
        <time>2017-12-09T10:55:50Z</time>
      </trkpt>
      <trkpt lat="27.928281" lon="-15.592889">
        <ele>1213.32</ele>
        <time>2017-12-09T10:55:51Z</time>
      </trkpt>
      <trkpt lat="27.928268" lon="-15.592866">
        <ele>1212.93</ele>
        <time>2017-12-09T10:55:52Z</time>
      </trkpt>
      <trkpt lat="27.928253" lon="-15.592843">
        <ele>1212.31</ele>
        <time>2017-12-09T10:55:53Z</time>
      </trkpt>
      <trkpt lat="27.928242" lon="-15.592822">
        <ele>1211.61</ele>
        <time>2017-12-09T10:55:54Z</time>
      </trkpt>
      <trkpt lat="27.928233" lon="-15.592799">
        <ele>1211.04</ele>
        <time>2017-12-09T10:55:55Z</time>
      </trkpt>
      <trkpt lat="27.928219" lon="-15.592776">
        <ele>1210.84</ele>
        <time>2017-12-09T10:55:56Z</time>
      </trkpt>
      <trkpt lat="27.928206" lon="-15.592748">
        <ele>1210.47</ele>
        <time>2017-12-09T10:55:57Z</time>
      </trkpt>
      <trkpt lat="27.928196" lon="-15.592719">
        <ele>1209.69</ele>
        <time>2017-12-09T10:55:58Z</time>
      </trkpt>
      <trkpt lat="27.928188" lon="-15.592699">
        <ele>1208.82</ele>
        <time>2017-12-09T10:55:59Z</time>
      </trkpt>
      <trkpt lat="27.928176" lon="-15.592681">
        <ele>1207.90</ele>
        <time>2017-12-09T10:56:00Z</time>
      </trkpt>
      <trkpt lat="27.928162" lon="-15.592664">
        <ele>1207.87</ele>
        <time>2017-12-09T10:56:01Z</time>
      </trkpt>
      <trkpt lat="27.928148" lon="-15.592645">
        <ele>1207.74</ele>
        <time>2017-12-09T10:56:02Z</time>
      </trkpt>
      <trkpt lat="27.928130" lon="-15.592626">
        <ele>1207.51</ele>
        <time>2017-12-09T10:56:03Z</time>
      </trkpt>
      <trkpt lat="27.928113" lon="-15.592605">
        <ele>1207.12</ele>
        <time>2017-12-09T10:56:04Z</time>
      </trkpt>
      <trkpt lat="27.928100" lon="-15.592580">
        <ele>1206.70</ele>
        <time>2017-12-09T10:56:05Z</time>
      </trkpt>
      <trkpt lat="27.928087" lon="-15.592557">
        <ele>1206.55</ele>
        <time>2017-12-09T10:56:06Z</time>
      </trkpt>
      <trkpt lat="27.928075" lon="-15.592536">
        <ele>1206.20</ele>
        <time>2017-12-09T10:56:07Z</time>
      </trkpt>
      <trkpt lat="27.928069" lon="-15.592517">
        <ele>1206.07</ele>
        <time>2017-12-09T10:56:08Z</time>
      </trkpt>
      <trkpt lat="27.928061" lon="-15.592496">
        <ele>1205.80</ele>
        <time>2017-12-09T10:56:09Z</time>
      </trkpt>
      <trkpt lat="27.928055" lon="-15.592477">
        <ele>1205.80</ele>
        <time>2017-12-09T10:56:10Z</time>
      </trkpt>
      <trkpt lat="27.928046" lon="-15.592456">
        <ele>1205.71</ele>
        <time>2017-12-09T10:56:11Z</time>
      </trkpt>
      <trkpt lat="27.928037" lon="-15.592433">
        <ele>1205.37</ele>
        <time>2017-12-09T10:56:12Z</time>
      </trkpt>
      <trkpt lat="27.928031" lon="-15.592410">
        <ele>1204.72</ele>
        <time>2017-12-09T10:56:13Z</time>
      </trkpt>
      <trkpt lat="27.928024" lon="-15.592390">
        <ele>1203.80</ele>
        <time>2017-12-09T10:56:14Z</time>
      </trkpt>
      <trkpt lat="27.928008" lon="-15.592355">
        <ele>1203.50</ele>
        <time>2017-12-09T10:56:16Z</time>
      </trkpt>
      <trkpt lat="27.927997" lon="-15.592335">
        <ele>1203.27</ele>
        <time>2017-12-09T10:56:17Z</time>
      </trkpt>
      <trkpt lat="27.927985" lon="-15.592312">
        <ele>1203.20</ele>
        <time>2017-12-09T10:56:18Z</time>
      </trkpt>
      <trkpt lat="27.927975" lon="-15.592294">
        <ele>1202.74</ele>
        <time>2017-12-09T10:56:19Z</time>
      </trkpt>
      <trkpt lat="27.927956" lon="-15.592253">
        <ele>1201.80</ele>
        <time>2017-12-09T10:56:21Z</time>
      </trkpt>
      <trkpt lat="27.927950" lon="-15.592228">
        <ele>1201.66</ele>
        <time>2017-12-09T10:56:22Z</time>
      </trkpt>
      <trkpt lat="27.927939" lon="-15.592203">
        <ele>1201.40</ele>
        <time>2017-12-09T10:56:23Z</time>
      </trkpt>
      <trkpt lat="27.927924" lon="-15.592177">
        <ele>1201.08</ele>
        <time>2017-12-09T10:56:24Z</time>
      </trkpt>
      <trkpt lat="27.927916" lon="-15.592150">
        <ele>1200.50</ele>
        <time>2017-12-09T10:56:25Z</time>
      </trkpt>
      <trkpt lat="27.927907" lon="-15.592120">
        <ele>1200.50</ele>
        <time>2017-12-09T10:56:26Z</time>
      </trkpt>
      <trkpt lat="27.927874" lon="-15.592051">
        <ele>1200.47</ele>
        <time>2017-12-09T10:56:28Z</time>
      </trkpt>
      <trkpt lat="27.927864" lon="-15.592025">
        <ele>1200.26</ele>
        <time>2017-12-09T10:56:29Z</time>
      </trkpt>
      <trkpt lat="27.927855" lon="-15.591999">
        <ele>1200.00</ele>
        <time>2017-12-09T10:56:30Z</time>
      </trkpt>
      <trkpt lat="27.927846" lon="-15.591976">
        <ele>1199.93</ele>
        <time>2017-12-09T10:56:31Z</time>
      </trkpt>
      <trkpt lat="27.927838" lon="-15.591956">
        <ele>1199.80</ele>
        <time>2017-12-09T10:56:32Z</time>
      </trkpt>
      <trkpt lat="27.927830" lon="-15.591931">
        <ele>1199.73</ele>
        <time>2017-12-09T10:56:33Z</time>
      </trkpt>
      <trkpt lat="27.927819" lon="-15.591907">
        <ele>1199.56</ele>
        <time>2017-12-09T10:56:34Z</time>
      </trkpt>
      <trkpt lat="27.927800" lon="-15.591864">
        <ele>1199.50</ele>
        <time>2017-12-09T10:56:36Z</time>
      </trkpt>
      <trkpt lat="27.927791" lon="-15.591840">
        <ele>1199.23</ele>
        <time>2017-12-09T10:56:37Z</time>
      </trkpt>
      <trkpt lat="27.927782" lon="-15.591814">
        <ele>1198.61</ele>
        <time>2017-12-09T10:56:38Z</time>
      </trkpt>
      <trkpt lat="27.927772" lon="-15.591791">
        <ele>1198.02</ele>
        <time>2017-12-09T10:56:39Z</time>
      </trkpt>
      <trkpt lat="27.927758" lon="-15.591763">
        <ele>1197.32</ele>
        <time>2017-12-09T10:56:40Z</time>
      </trkpt>
      <trkpt lat="27.927748" lon="-15.591724">
        <ele>1196.46</ele>
        <time>2017-12-09T10:56:42Z</time>
      </trkpt>
      <trkpt lat="27.927733" lon="-15.591685">
        <ele>1195.71</ele>
        <time>2017-12-09T10:56:44Z</time>
      </trkpt>
      <trkpt lat="27.927716" lon="-15.591646">
        <ele>1194.88</ele>
        <time>2017-12-09T10:56:46Z</time>
      </trkpt>
      <trkpt lat="27.927696" lon="-15.591611">
        <ele>1193.32</ele>
        <time>2017-12-09T10:56:48Z</time>
      </trkpt>
      <trkpt lat="27.927692" lon="-15.591578">
        <ele>1192.80</ele>
        <time>2017-12-09T10:56:50Z</time>
      </trkpt>
      <trkpt lat="27.927688" lon="-15.591538">
        <ele>1192.00</ele>
        <time>2017-12-09T10:56:52Z</time>
      </trkpt>
      <trkpt lat="27.927685" lon="-15.591515">
        <ele>1191.95</ele>
        <time>2017-12-09T10:56:53Z</time>
      </trkpt>
      <trkpt lat="27.927678" lon="-15.591485">
        <ele>1191.58</ele>
        <time>2017-12-09T10:56:54Z</time>
      </trkpt>
      <trkpt lat="27.927654" lon="-15.591434">
        <ele>1190.71</ele>
        <time>2017-12-09T10:56:56Z</time>
      </trkpt>
      <trkpt lat="27.927649" lon="-15.591413">
        <ele>1190.75</ele>
        <time>2017-12-09T10:56:57Z</time>
      </trkpt>
      <trkpt lat="27.927641" lon="-15.591389">
        <ele>1190.20</ele>
        <time>2017-12-09T10:56:58Z</time>
      </trkpt>
      <trkpt lat="27.927639" lon="-15.591368">
        <ele>1189.97</ele>
        <time>2017-12-09T10:56:59Z</time>
      </trkpt>
      <trkpt lat="27.927634" lon="-15.591336">
        <ele>1189.47</ele>
        <time>2017-12-09T10:57:00Z</time>
      </trkpt>
      <trkpt lat="27.927630" lon="-15.591315">
        <ele>1189.11</ele>
        <time>2017-12-09T10:57:01Z</time>
      </trkpt>
      <trkpt lat="27.927626" lon="-15.591290">
        <ele>1188.72</ele>
        <time>2017-12-09T10:57:02Z</time>
      </trkpt>
      <trkpt lat="27.927621" lon="-15.591262">
        <ele>1188.26</ele>
        <time>2017-12-09T10:57:03Z</time>
      </trkpt>
      <trkpt lat="27.927616" lon="-15.591237">
        <ele>1187.59</ele>
        <time>2017-12-09T10:57:04Z</time>
      </trkpt>
      <trkpt lat="27.927612" lon="-15.591213">
        <ele>1186.91</ele>
        <time>2017-12-09T10:57:05Z</time>
      </trkpt>
      <trkpt lat="27.927604" lon="-15.591188">
        <ele>1186.80</ele>
        <time>2017-12-09T10:57:06Z</time>
      </trkpt>
      <trkpt lat="27.927604" lon="-15.591148">
        <ele>1185.76</ele>
        <time>2017-12-09T10:57:08Z</time>
      </trkpt>
      <trkpt lat="27.927606" lon="-15.591127">
        <ele>1185.12</ele>
        <time>2017-12-09T10:57:09Z</time>
      </trkpt>
      <trkpt lat="27.927612" lon="-15.591088">
        <ele>1184.25</ele>
        <time>2017-12-09T10:57:11Z</time>
      </trkpt>
      <trkpt lat="27.927626" lon="-15.591055">
        <ele>1183.71</ele>
        <time>2017-12-09T10:57:13Z</time>
      </trkpt>
      <trkpt lat="27.927637" lon="-15.591036">
        <ele>1183.30</ele>
        <time>2017-12-09T10:57:14Z</time>
      </trkpt>
      <trkpt lat="27.927646" lon="-15.591018">
        <ele>1183.05</ele>
        <time>2017-12-09T10:57:15Z</time>
      </trkpt>
      <trkpt lat="27.927654" lon="-15.590992">
        <ele>1183.00</ele>
        <time>2017-12-09T10:57:16Z</time>
      </trkpt>
      <trkpt lat="27.927663" lon="-15.590970">
        <ele>1183.00</ele>
        <time>2017-12-09T10:57:17Z</time>
      </trkpt>
      <trkpt lat="27.927670" lon="-15.590945">
        <ele>1182.60</ele>
        <time>2017-12-09T10:57:18Z</time>
      </trkpt>
      <trkpt lat="27.927675" lon="-15.590923">
        <ele>1182.20</ele>
        <time>2017-12-09T10:57:19Z</time>
      </trkpt>
      <trkpt lat="27.927676" lon="-15.590899">
        <ele>1181.90</ele>
        <time>2017-12-09T10:57:20Z</time>
      </trkpt>
      <trkpt lat="27.927669" lon="-15.590866">
        <ele>1180.89</ele>
        <time>2017-12-09T10:57:21Z</time>
      </trkpt>
      <trkpt lat="27.927666" lon="-15.590842">
        <ele>1180.10</ele>
        <time>2017-12-09T10:57:22Z</time>
      </trkpt>
      <trkpt lat="27.927675" lon="-15.590813">
        <ele>1178.87</ele>
        <time>2017-12-09T10:57:24Z</time>
      </trkpt>
      <trkpt lat="27.927673" lon="-15.590772">
        <ele>1177.99</ele>
        <time>2017-12-09T10:57:26Z</time>
      </trkpt>
      <trkpt lat="27.927669" lon="-15.590744">
        <ele>1177.69</ele>
        <time>2017-12-09T10:57:27Z</time>
      </trkpt>
      <trkpt lat="27.927665" lon="-15.590723">
        <ele>1177.49</ele>
        <time>2017-12-09T10:57:28Z</time>
      </trkpt>
      <trkpt lat="27.927661" lon="-15.590702">
        <ele>1177.13</ele>
        <time>2017-12-09T10:57:29Z</time>
      </trkpt>
      <trkpt lat="27.927660" lon="-15.590679">
        <ele>1176.90</ele>
        <time>2017-12-09T10:57:30Z</time>
      </trkpt>
      <trkpt lat="27.927657" lon="-15.590654">
        <ele>1176.68</ele>
        <time>2017-12-09T10:57:31Z</time>
      </trkpt>
      <trkpt lat="27.927656" lon="-15.590632">
        <ele>1176.33</ele>
        <time>2017-12-09T10:57:32Z</time>
      </trkpt>
      <trkpt lat="27.927657" lon="-15.590611">
        <ele>1175.86</ele>
        <time>2017-12-09T10:57:33Z</time>
      </trkpt>
      <trkpt lat="27.927662" lon="-15.590587">
        <ele>1175.49</ele>
        <time>2017-12-09T10:57:34Z</time>
      </trkpt>
      <trkpt lat="27.927672" lon="-15.590548">
        <ele>1175.28</ele>
        <time>2017-12-09T10:57:35Z</time>
      </trkpt>
      <trkpt lat="27.927676" lon="-15.590519">
        <ele>1174.80</ele>
        <time>2017-12-09T10:57:36Z</time>
      </trkpt>
      <trkpt lat="27.927676" lon="-15.590493">
        <ele>1174.04</ele>
        <time>2017-12-09T10:57:37Z</time>
      </trkpt>
      <trkpt lat="27.927677" lon="-15.590468">
        <ele>1173.70</ele>
        <time>2017-12-09T10:57:38Z</time>
      </trkpt>
      <trkpt lat="27.927678" lon="-15.590431">
        <ele>1172.80</ele>
        <time>2017-12-09T10:57:40Z</time>
      </trkpt>
      <trkpt lat="27.927674" lon="-15.590407">
        <ele>1172.86</ele>
        <time>2017-12-09T10:57:41Z</time>
      </trkpt>
      <trkpt lat="27.927663" lon="-15.590379">
        <ele>1172.90</ele>
        <time>2017-12-09T10:57:42Z</time>
      </trkpt>
      <trkpt lat="27.927657" lon="-15.590332">
        <ele>1172.78</ele>
        <time>2017-12-09T10:57:43Z</time>
      </trkpt>
      <trkpt lat="27.927652" lon="-15.590297">
        <ele>1172.40</ele>
        <time>2017-12-09T10:57:44Z</time>
      </trkpt>
      <trkpt lat="27.927653" lon="-15.590266">
        <ele>1171.67</ele>
        <time>2017-12-09T10:57:45Z</time>
      </trkpt>
      <trkpt lat="27.927653" lon="-15.590237">
        <ele>1171.24</ele>
        <time>2017-12-09T10:57:46Z</time>
      </trkpt>
      <trkpt lat="27.927651" lon="-15.590213">
        <ele>1170.66</ele>
        <time>2017-12-09T10:57:47Z</time>
      </trkpt>
      <trkpt lat="27.927648" lon="-15.590190">
        <ele>1170.24</ele>
        <time>2017-12-09T10:57:48Z</time>
      </trkpt>
      <trkpt lat="27.927645" lon="-15.590165">
        <ele>1168.86</ele>
        <time>2017-12-09T10:57:49Z</time>
      </trkpt>
      <trkpt lat="27.927642" lon="-15.590142">
        <ele>1168.00</ele>
        <time>2017-12-09T10:57:50Z</time>
      </trkpt>
      <trkpt lat="27.927624" lon="-15.590092">
        <ele>1168.00</ele>
        <time>2017-12-09T10:57:52Z</time>
      </trkpt>
      <trkpt lat="27.927610" lon="-15.590069">
        <ele>1167.82</ele>
        <time>2017-12-09T10:57:53Z</time>
      </trkpt>
      <trkpt lat="27.927585" lon="-15.590051">
        <ele>1167.70</ele>
        <time>2017-12-09T10:57:54Z</time>
      </trkpt>
      <trkpt lat="27.927556" lon="-15.590040">
        <ele>1167.57</ele>
        <time>2017-12-09T10:57:55Z</time>
      </trkpt>
      <trkpt lat="27.927527" lon="-15.590038">
        <ele>1167.44</ele>
        <time>2017-12-09T10:57:56Z</time>
      </trkpt>
      <trkpt lat="27.927504" lon="-15.590034">
        <ele>1167.15</ele>
        <time>2017-12-09T10:57:57Z</time>
      </trkpt>
      <trkpt lat="27.927483" lon="-15.590030">
        <ele>1166.62</ele>
        <time>2017-12-09T10:57:58Z</time>
      </trkpt>
      <trkpt lat="27.927459" lon="-15.590032">
        <ele>1166.40</ele>
        <time>2017-12-09T10:57:59Z</time>
      </trkpt>
      <trkpt lat="27.927430" lon="-15.590040">
        <ele>1165.76</ele>
        <time>2017-12-09T10:58:00Z</time>
      </trkpt>
      <trkpt lat="27.927402" lon="-15.590050">
        <ele>1164.63</ele>
        <time>2017-12-09T10:58:01Z</time>
      </trkpt>
      <trkpt lat="27.927379" lon="-15.590055">
        <ele>1163.87</ele>
        <time>2017-12-09T10:58:02Z</time>
      </trkpt>
      <trkpt lat="27.927351" lon="-15.590065">
        <ele>1163.57</ele>
        <time>2017-12-09T10:58:03Z</time>
      </trkpt>
      <trkpt lat="27.927324" lon="-15.590069">
        <ele>1162.83</ele>
        <time>2017-12-09T10:58:04Z</time>
      </trkpt>
      <trkpt lat="27.927296" lon="-15.590071">
        <ele>1162.50</ele>
        <time>2017-12-09T10:58:05Z</time>
      </trkpt>
      <trkpt lat="27.927271" lon="-15.590070">
        <ele>1162.37</ele>
        <time>2017-12-09T10:58:06Z</time>
      </trkpt>
      <trkpt lat="27.927243" lon="-15.590072">
        <ele>1162.44</ele>
        <time>2017-12-09T10:58:07Z</time>
      </trkpt>
      <trkpt lat="27.927214" lon="-15.590075">
        <ele>1162.36</ele>
        <time>2017-12-09T10:58:08Z</time>
      </trkpt>
      <trkpt lat="27.927184" lon="-15.590088">
        <ele>1162.03</ele>
        <time>2017-12-09T10:58:09Z</time>
      </trkpt>
      <trkpt lat="27.927155" lon="-15.590098">
        <ele>1161.55</ele>
        <time>2017-12-09T10:58:10Z</time>
      </trkpt>
      <trkpt lat="27.927098" lon="-15.590106">
        <ele>1160.36</ele>
        <time>2017-12-09T10:58:12Z</time>
      </trkpt>
      <trkpt lat="27.927071" lon="-15.590107">
        <ele>1160.30</ele>
        <time>2017-12-09T10:58:13Z</time>
      </trkpt>
      <trkpt lat="27.927051" lon="-15.590101">
        <ele>1160.02</ele>
        <time>2017-12-09T10:58:14Z</time>
      </trkpt>
      <trkpt lat="27.927031" lon="-15.590091">
        <ele>1159.62</ele>
        <time>2017-12-09T10:58:15Z</time>
      </trkpt>
      <trkpt lat="27.927013" lon="-15.590077">
        <ele>1159.01</ele>
        <time>2017-12-09T10:58:16Z</time>
      </trkpt>
      <trkpt lat="27.926999" lon="-15.590058">
        <ele>1159.29</ele>
        <time>2017-12-09T10:58:17Z</time>
      </trkpt>
      <trkpt lat="27.926975" lon="-15.590040">
        <ele>1158.87</ele>
        <time>2017-12-09T10:58:18Z</time>
      </trkpt>
      <trkpt lat="27.926954" lon="-15.590028">
        <ele>1158.60</ele>
        <time>2017-12-09T10:58:19Z</time>
      </trkpt>
      <trkpt lat="27.926933" lon="-15.590021">
        <ele>1158.60</ele>
        <time>2017-12-09T10:58:20Z</time>
      </trkpt>
      <trkpt lat="27.926914" lon="-15.590011">
        <ele>1158.60</ele>
        <time>2017-12-09T10:58:21Z</time>
      </trkpt>
      <trkpt lat="27.926886" lon="-15.589994">
        <ele>1158.60</ele>
        <time>2017-12-09T10:58:23Z</time>
      </trkpt>
      <trkpt lat="27.926859" lon="-15.589978">
        <ele>1158.38</ele>
        <time>2017-12-09T10:58:25Z</time>
      </trkpt>
      <trkpt lat="27.926851" lon="-15.589950">
        <ele>1157.55</ele>
        <time>2017-12-09T10:58:27Z</time>
      </trkpt>
      <trkpt lat="27.926865" lon="-15.589916">
        <ele>1157.06</ele>
        <time>2017-12-09T10:58:29Z</time>
      </trkpt>
      <trkpt lat="27.926887" lon="-15.589883">
        <ele>1156.10</ele>
        <time>2017-12-09T10:58:31Z</time>
      </trkpt>
      <trkpt lat="27.926902" lon="-15.589869">
        <ele>1156.50</ele>
        <time>2017-12-09T10:58:32Z</time>
      </trkpt>
      <trkpt lat="27.926917" lon="-15.589853">
        <ele>1156.10</ele>
        <time>2017-12-09T10:58:33Z</time>
      </trkpt>
      <trkpt lat="27.926933" lon="-15.589832">
        <ele>1155.83</ele>
        <time>2017-12-09T10:58:34Z</time>
      </trkpt>
      <trkpt lat="27.926943" lon="-15.589812">
        <ele>1155.80</ele>
        <time>2017-12-09T10:58:35Z</time>
      </trkpt>
      <trkpt lat="27.926942" lon="-15.589791">
        <ele>1155.80</ele>
        <time>2017-12-09T10:58:36Z</time>
      </trkpt>
      <trkpt lat="27.926932" lon="-15.589766">
        <ele>1155.80</ele>
        <time>2017-12-09T10:58:37Z</time>
      </trkpt>
      <trkpt lat="27.926917" lon="-15.589739">
        <ele>1155.80</ele>
        <time>2017-12-09T10:58:38Z</time>
      </trkpt>
      <trkpt lat="27.926894" lon="-15.589705">
        <ele>1155.27</ele>
        <time>2017-12-09T10:58:39Z</time>
      </trkpt>
      <trkpt lat="27.926874" lon="-15.589680">
        <ele>1155.10</ele>
        <time>2017-12-09T10:58:40Z</time>
      </trkpt>
      <trkpt lat="27.926855" lon="-15.589665">
        <ele>1154.95</ele>
        <time>2017-12-09T10:58:41Z</time>
      </trkpt>
      <trkpt lat="27.926839" lon="-15.589651">
        <ele>1154.75</ele>
        <time>2017-12-09T10:58:42Z</time>
      </trkpt>
      <trkpt lat="27.926821" lon="-15.589625">
        <ele>1154.70</ele>
        <time>2017-12-09T10:58:43Z</time>
      </trkpt>
      <trkpt lat="27.926805" lon="-15.589600">
        <ele>1153.78</ele>
        <time>2017-12-09T10:58:44Z</time>
      </trkpt>
      <trkpt lat="27.926791" lon="-15.589574">
        <ele>1154.19</ele>
        <time>2017-12-09T10:58:45Z</time>
      </trkpt>
      <trkpt lat="27.926779" lon="-15.589550">
        <ele>1153.63</ele>
        <time>2017-12-09T10:58:46Z</time>
      </trkpt>
      <trkpt lat="27.926769" lon="-15.589527">
        <ele>1153.25</ele>
        <time>2017-12-09T10:58:47Z</time>
      </trkpt>
      <trkpt lat="27.926760" lon="-15.589505">
        <ele>1153.20</ele>
        <time>2017-12-09T10:58:48Z</time>
      </trkpt>
      <trkpt lat="27.926753" lon="-15.589481">
        <ele>1152.73</ele>
        <time>2017-12-09T10:58:49Z</time>
      </trkpt>
      <trkpt lat="27.926745" lon="-15.589459">
        <ele>1152.60</ele>
        <time>2017-12-09T10:58:50Z</time>
      </trkpt>
      <trkpt lat="27.926735" lon="-15.589439">
        <ele>1152.05</ele>
        <time>2017-12-09T10:58:51Z</time>
      </trkpt>
      <trkpt lat="27.926725" lon="-15.589420">
        <ele>1151.90</ele>
        <time>2017-12-09T10:58:52Z</time>
      </trkpt>
      <trkpt lat="27.926719" lon="-15.589389">
        <ele>1151.66</ele>
        <time>2017-12-09T10:58:54Z</time>
      </trkpt>
      <trkpt lat="27.926706" lon="-15.589345">
        <ele>1151.50</ele>
        <time>2017-12-09T10:58:56Z</time>
      </trkpt>
      <trkpt lat="27.926694" lon="-15.589317">
        <ele>1151.50</ele>
        <time>2017-12-09T10:58:57Z</time>
      </trkpt>
      <trkpt lat="27.926679" lon="-15.589289">
        <ele>1151.11</ele>
        <time>2017-12-09T10:58:58Z</time>
      </trkpt>
      <trkpt lat="27.926659" lon="-15.589266">
        <ele>1151.00</ele>
        <time>2017-12-09T10:58:59Z</time>
      </trkpt>
      <trkpt lat="27.926640" lon="-15.589248">
        <ele>1150.53</ele>
        <time>2017-12-09T10:59:00Z</time>
      </trkpt>
      <trkpt lat="27.926617" lon="-15.589233">
        <ele>1149.77</ele>
        <time>2017-12-09T10:59:01Z</time>
      </trkpt>
      <trkpt lat="27.926596" lon="-15.589217">
        <ele>1149.13</ele>
        <time>2017-12-09T10:59:02Z</time>
      </trkpt>
      <trkpt lat="27.926581" lon="-15.589201">
        <ele>1149.00</ele>
        <time>2017-12-09T10:59:03Z</time>
      </trkpt>
      <trkpt lat="27.926566" lon="-15.589186">
        <ele>1148.92</ele>
        <time>2017-12-09T10:59:04Z</time>
      </trkpt>
      <trkpt lat="27.926551" lon="-15.589168">
        <ele>1148.58</ele>
        <time>2017-12-09T10:59:05Z</time>
      </trkpt>
      <trkpt lat="27.926529" lon="-15.589136">
        <ele>1147.35</ele>
        <time>2017-12-09T10:59:07Z</time>
      </trkpt>
      <trkpt lat="27.926514" lon="-15.589116">
        <ele>1147.10</ele>
        <time>2017-12-09T10:59:08Z</time>
      </trkpt>
      <trkpt lat="27.926493" lon="-15.589099">
        <ele>1147.18</ele>
        <time>2017-12-09T10:59:09Z</time>
      </trkpt>
      <trkpt lat="27.926466" lon="-15.589094">
        <ele>1147.20</ele>
        <time>2017-12-09T10:59:10Z</time>
      </trkpt>
      <trkpt lat="27.926440" lon="-15.589092">
        <ele>1147.20</ele>
        <time>2017-12-09T10:59:11Z</time>
      </trkpt>
      <trkpt lat="27.926414" lon="-15.589086">
        <ele>1147.20</ele>
        <time>2017-12-09T10:59:12Z</time>
      </trkpt>
      <trkpt lat="27.926393" lon="-15.589084">
        <ele>1147.20</ele>
        <time>2017-12-09T10:59:13Z</time>
      </trkpt>
      <trkpt lat="27.926374" lon="-15.589074">
        <ele>1147.20</ele>
        <time>2017-12-09T10:59:14Z</time>
      </trkpt>
      <trkpt lat="27.926352" lon="-15.589068">
        <ele>1147.20</ele>
        <time>2017-12-09T10:59:15Z</time>
      </trkpt>
      <trkpt lat="27.926330" lon="-15.589060">
        <ele>1146.80</ele>
        <time>2017-12-09T10:59:16Z</time>
      </trkpt>
      <trkpt lat="27.926307" lon="-15.589057">
        <ele>1146.70</ele>
        <time>2017-12-09T10:59:17Z</time>
      </trkpt>
      <trkpt lat="27.926283" lon="-15.589051">
        <ele>1146.70</ele>
        <time>2017-12-09T10:59:18Z</time>
      </trkpt>
      <trkpt lat="27.926260" lon="-15.589048">
        <ele>1146.70</ele>
        <time>2017-12-09T10:59:19Z</time>
      </trkpt>
      <trkpt lat="27.926239" lon="-15.589045">
        <ele>1146.70</ele>
        <time>2017-12-09T10:59:20Z</time>
      </trkpt>
      <trkpt lat="27.926217" lon="-15.589041">
        <ele>1147.02</ele>
        <time>2017-12-09T10:59:21Z</time>
      </trkpt>
      <trkpt lat="27.926195" lon="-15.589039">
        <ele>1146.39</ele>
        <time>2017-12-09T10:59:22Z</time>
      </trkpt>
      <trkpt lat="27.926172" lon="-15.589040">
        <ele>1146.20</ele>
        <time>2017-12-09T10:59:23Z</time>
      </trkpt>
      <trkpt lat="27.926149" lon="-15.589043">
        <ele>1145.96</ele>
        <time>2017-12-09T10:59:24Z</time>
      </trkpt>
      <trkpt lat="27.926123" lon="-15.589050">
        <ele>1145.82</ele>
        <time>2017-12-09T10:59:25Z</time>
      </trkpt>
      <trkpt lat="27.926097" lon="-15.589059">
        <ele>1145.01</ele>
        <time>2017-12-09T10:59:26Z</time>
      </trkpt>
      <trkpt lat="27.926070" lon="-15.589069">
        <ele>1144.41</ele>
        <time>2017-12-09T10:59:27Z</time>
      </trkpt>
      <trkpt lat="27.926047" lon="-15.589092">
        <ele>1144.30</ele>
        <time>2017-12-09T10:59:28Z</time>
      </trkpt>
      <trkpt lat="27.926022" lon="-15.589110">
        <ele>1144.22</ele>
        <time>2017-12-09T10:59:29Z</time>
      </trkpt>
      <trkpt lat="27.925998" lon="-15.589131">
        <ele>1144.20</ele>
        <time>2017-12-09T10:59:30Z</time>
      </trkpt>
      <trkpt lat="27.925976" lon="-15.589152">
        <ele>1144.20</ele>
        <time>2017-12-09T10:59:31Z</time>
      </trkpt>
      <trkpt lat="27.925950" lon="-15.589175">
        <ele>1143.25</ele>
        <time>2017-12-09T10:59:32Z</time>
      </trkpt>
      <trkpt lat="27.925931" lon="-15.589203">
        <ele>1143.87</ele>
        <time>2017-12-09T10:59:33Z</time>
      </trkpt>
      <trkpt lat="27.925911" lon="-15.589232">
        <ele>1143.23</ele>
        <time>2017-12-09T10:59:34Z</time>
      </trkpt>
      <trkpt lat="27.925891" lon="-15.589262">
        <ele>1143.00</ele>
        <time>2017-12-09T10:59:35Z</time>
      </trkpt>
      <trkpt lat="27.925873" lon="-15.589290">
        <ele>1143.00</ele>
        <time>2017-12-09T10:59:36Z</time>
      </trkpt>
      <trkpt lat="27.925863" lon="-15.589316">
        <ele>1142.37</ele>
        <time>2017-12-09T10:59:37Z</time>
      </trkpt>
      <trkpt lat="27.925848" lon="-15.589342">
        <ele>1142.20</ele>
        <time>2017-12-09T10:59:38Z</time>
      </trkpt>
      <trkpt lat="27.925833" lon="-15.589365">
        <ele>1141.57</ele>
        <time>2017-12-09T10:59:39Z</time>
      </trkpt>
      <trkpt lat="27.925819" lon="-15.589392">
        <ele>1141.32</ele>
        <time>2017-12-09T10:59:40Z</time>
      </trkpt>
      <trkpt lat="27.925802" lon="-15.589416">
        <ele>1140.91</ele>
        <time>2017-12-09T10:59:41Z</time>
      </trkpt>
      <trkpt lat="27.925787" lon="-15.589446">
        <ele>1140.72</ele>
        <time>2017-12-09T10:59:42Z</time>
      </trkpt>
      <trkpt lat="27.925774" lon="-15.589477">
        <ele>1140.70</ele>
        <time>2017-12-09T10:59:43Z</time>
      </trkpt>
      <trkpt lat="27.925764" lon="-15.589507">
        <ele>1140.70</ele>
        <time>2017-12-09T10:59:44Z</time>
      </trkpt>
      <trkpt lat="27.925753" lon="-15.589532">
        <ele>1140.31</ele>
        <time>2017-12-09T10:59:45Z</time>
      </trkpt>
      <trkpt lat="27.925742" lon="-15.589557">
        <ele>1139.81</ele>
        <time>2017-12-09T10:59:46Z</time>
      </trkpt>
      <trkpt lat="27.925731" lon="-15.589577">
        <ele>1139.23</ele>
        <time>2017-12-09T10:59:47Z</time>
      </trkpt>
      <trkpt lat="27.925705" lon="-15.589595">
        <ele>1138.79</ele>
        <time>2017-12-09T10:59:49Z</time>
      </trkpt>
      <trkpt lat="27.925679" lon="-15.589622">
        <ele>1138.10</ele>
        <time>2017-12-09T10:59:51Z</time>
      </trkpt>
      <trkpt lat="27.925665" lon="-15.589641">
        <ele>1138.02</ele>
        <time>2017-12-09T10:59:52Z</time>
      </trkpt>
      <trkpt lat="27.925653" lon="-15.589657">
        <ele>1138.00</ele>
        <time>2017-12-09T10:59:53Z</time>
      </trkpt>
      <trkpt lat="27.925637" lon="-15.589674">
        <ele>1138.00</ele>
        <time>2017-12-09T10:59:54Z</time>
      </trkpt>
      <trkpt lat="27.925616" lon="-15.589701">
        <ele>1136.92</ele>
        <time>2017-12-09T10:59:56Z</time>
      </trkpt>
      <trkpt lat="27.925593" lon="-15.589693">
        <ele>1136.90</ele>
        <time>2017-12-09T10:59:58Z</time>
      </trkpt>
      <trkpt lat="27.925572" lon="-15.589660">
        <ele>1136.80</ele>
        <time>2017-12-09T11:00:00Z</time>
      </trkpt>
      <trkpt lat="27.925558" lon="-15.589640">
        <ele>1136.80</ele>
        <time>2017-12-09T11:00:01Z</time>
      </trkpt>
      <trkpt lat="27.925542" lon="-15.589620">
        <ele>1137.04</ele>
        <time>2017-12-09T11:00:02Z</time>
      </trkpt>
      <trkpt lat="27.925529" lon="-15.589598">
        <ele>1137.20</ele>
        <time>2017-12-09T11:00:03Z</time>
      </trkpt>
      <trkpt lat="27.925519" lon="-15.589578">
        <ele>1137.20</ele>
        <time>2017-12-09T11:00:04Z</time>
      </trkpt>
      <trkpt lat="27.925509" lon="-15.589554">
        <ele>1137.20</ele>
        <time>2017-12-09T11:00:05Z</time>
      </trkpt>
      <trkpt lat="27.925501" lon="-15.589534">
        <ele>1137.20</ele>
        <time>2017-12-09T11:00:06Z</time>
      </trkpt>
      <trkpt lat="27.925493" lon="-15.589512">
        <ele>1137.20</ele>
        <time>2017-12-09T11:00:07Z</time>
      </trkpt>
      <trkpt lat="27.925488" lon="-15.589471">
        <ele>1136.86</ele>
        <time>2017-12-09T11:00:09Z</time>
      </trkpt>
      <trkpt lat="27.925484" lon="-15.589446">
        <ele>1136.54</ele>
        <time>2017-12-09T11:00:10Z</time>
      </trkpt>
      <trkpt lat="27.925476" lon="-15.589421">
        <ele>1135.92</ele>
        <time>2017-12-09T11:00:11Z</time>
      </trkpt>
      <trkpt lat="27.925468" lon="-15.589392">
        <ele>1135.50</ele>
        <time>2017-12-09T11:00:12Z</time>
      </trkpt>
      <trkpt lat="27.925467" lon="-15.589367">
        <ele>1135.50</ele>
        <time>2017-12-09T11:00:13Z</time>
      </trkpt>
      <trkpt lat="27.925468" lon="-15.589344">
        <ele>1135.50</ele>
        <time>2017-12-09T11:00:14Z</time>
      </trkpt>
      <trkpt lat="27.925470" lon="-15.589318">
        <ele>1135.50</ele>
        <time>2017-12-09T11:00:15Z</time>
      </trkpt>
      <trkpt lat="27.925471" lon="-15.589291">
        <ele>1135.50</ele>
        <time>2017-12-09T11:00:16Z</time>
      </trkpt>
      <trkpt lat="27.925474" lon="-15.589261">
        <ele>1135.50</ele>
        <time>2017-12-09T11:00:17Z</time>
      </trkpt>
      <trkpt lat="27.925478" lon="-15.589230">
        <ele>1135.62</ele>
        <time>2017-12-09T11:00:18Z</time>
      </trkpt>
      <trkpt lat="27.925483" lon="-15.589204">
        <ele>1135.70</ele>
        <time>2017-12-09T11:00:19Z</time>
      </trkpt>
      <trkpt lat="27.925494" lon="-15.589184">
        <ele>1135.70</ele>
        <time>2017-12-09T11:00:20Z</time>
      </trkpt>
      <trkpt lat="27.925504" lon="-15.589160">
        <ele>1135.70</ele>
        <time>2017-12-09T11:00:21Z</time>
      </trkpt>
      <trkpt lat="27.925508" lon="-15.589137">
        <ele>1135.70</ele>
        <time>2017-12-09T11:00:22Z</time>
      </trkpt>
      <trkpt lat="27.925509" lon="-15.589115">
        <ele>1135.70</ele>
        <time>2017-12-09T11:00:23Z</time>
      </trkpt>
      <trkpt lat="27.925496" lon="-15.589082">
        <ele>1135.70</ele>
        <time>2017-12-09T11:00:24Z</time>
      </trkpt>
      <trkpt lat="27.925476" lon="-15.589053">
        <ele>1135.76</ele>
        <time>2017-12-09T11:00:25Z</time>
      </trkpt>
      <trkpt lat="27.925452" lon="-15.589028">
        <ele>1134.84</ele>
        <time>2017-12-09T11:00:26Z</time>
      </trkpt>
      <trkpt lat="27.925428" lon="-15.589010">
        <ele>1134.30</ele>
        <time>2017-12-09T11:00:27Z</time>
      </trkpt>
      <trkpt lat="27.925399" lon="-15.589000">
        <ele>1133.79</ele>
        <time>2017-12-09T11:00:28Z</time>
      </trkpt>
      <trkpt lat="27.925378" lon="-15.588991">
        <ele>1133.44</ele>
        <time>2017-12-09T11:00:29Z</time>
      </trkpt>
      <trkpt lat="27.925351" lon="-15.588985">
        <ele>1133.27</ele>
        <time>2017-12-09T11:00:30Z</time>
      </trkpt>
      <trkpt lat="27.925328" lon="-15.588976">
        <ele>1132.87</ele>
        <time>2017-12-09T11:00:31Z</time>
      </trkpt>
      <trkpt lat="27.925302" lon="-15.588966">
        <ele>1132.63</ele>
        <time>2017-12-09T11:00:32Z</time>
      </trkpt>
      <trkpt lat="27.925213" lon="-15.588944">
        <ele>1132.53</ele>
        <time>2017-12-09T11:00:35Z</time>
      </trkpt>
      <trkpt lat="27.925113" lon="-15.588931">
        <ele>1131.02</ele>
        <time>2017-12-09T11:00:39Z</time>
      </trkpt>
      <trkpt lat="27.925056" lon="-15.588888">
        <ele>1130.80</ele>
        <time>2017-12-09T11:00:42Z</time>
      </trkpt>
      <trkpt lat="27.925046" lon="-15.588869">
        <ele>1130.80</ele>
        <time>2017-12-09T11:00:43Z</time>
      </trkpt>
      <trkpt lat="27.925035" lon="-15.588846">
        <ele>1130.52</ele>
        <time>2017-12-09T11:00:44Z</time>
      </trkpt>
      <trkpt lat="27.925045" lon="-15.588825">
        <ele>1130.40</ele>
        <time>2017-12-09T11:00:46Z</time>
      </trkpt>
      <trkpt lat="27.925070" lon="-15.588813">
        <ele>1130.79</ele>
        <time>2017-12-09T11:00:48Z</time>
      </trkpt>
      <trkpt lat="27.925104" lon="-15.588807">
        <ele>1130.54</ele>
        <time>2017-12-09T11:00:50Z</time>
      </trkpt>
      <trkpt lat="27.925123" lon="-15.588802">
        <ele>1130.90</ele>
        <time>2017-12-09T11:00:51Z</time>
      </trkpt>
      <trkpt lat="27.925140" lon="-15.588794">
        <ele>1130.32</ele>
        <time>2017-12-09T11:00:52Z</time>
      </trkpt>
      <trkpt lat="27.925167" lon="-15.588771">
        <ele>1131.00</ele>
        <time>2017-12-09T11:00:54Z</time>
      </trkpt>
      <trkpt lat="27.925181" lon="-15.588751">
        <ele>1131.00</ele>
        <time>2017-12-09T11:00:55Z</time>
      </trkpt>
      <trkpt lat="27.925193" lon="-15.588727">
        <ele>1131.00</ele>
        <time>2017-12-09T11:00:56Z</time>
      </trkpt>
      <trkpt lat="27.925203" lon="-15.588700">
        <ele>1131.00</ele>
        <time>2017-12-09T11:00:57Z</time>
      </trkpt>
      <trkpt lat="27.925207" lon="-15.588680">
        <ele>1131.00</ele>
        <time>2017-12-09T11:00:58Z</time>
      </trkpt>
      <trkpt lat="27.925216" lon="-15.588662">
        <ele>1131.00</ele>
        <time>2017-12-09T11:00:59Z</time>
      </trkpt>
      <trkpt lat="27.925221" lon="-15.588641">
        <ele>1131.08</ele>
        <time>2017-12-09T11:01:00Z</time>
      </trkpt>
      <trkpt lat="27.925224" lon="-15.588615">
        <ele>1131.10</ele>
        <time>2017-12-09T11:01:01Z</time>
      </trkpt>
      <trkpt lat="27.925226" lon="-15.588586">
        <ele>1131.10</ele>
        <time>2017-12-09T11:01:02Z</time>
      </trkpt>
      <trkpt lat="27.925224" lon="-15.588552">
        <ele>1131.10</ele>
        <time>2017-12-09T11:01:03Z</time>
      </trkpt>
      <trkpt lat="27.925230" lon="-15.588526">
        <ele>1131.10</ele>
        <time>2017-12-09T11:01:04Z</time>
      </trkpt>
      <trkpt lat="27.925235" lon="-15.588499">
        <ele>1131.10</ele>
        <time>2017-12-09T11:01:05Z</time>
      </trkpt>
      <trkpt lat="27.925240" lon="-15.588470">
        <ele>1131.10</ele>
        <time>2017-12-09T11:01:06Z</time>
      </trkpt>
      <trkpt lat="27.925249" lon="-15.588448">
        <ele>1132.18</ele>
        <time>2017-12-09T11:01:07Z</time>
      </trkpt>
      <trkpt lat="27.925260" lon="-15.588426">
        <ele>1131.64</ele>
        <time>2017-12-09T11:01:08Z</time>
      </trkpt>
      <trkpt lat="27.925270" lon="-15.588403">
        <ele>1131.48</ele>
        <time>2017-12-09T11:01:09Z</time>
      </trkpt>
      <trkpt lat="27.925280" lon="-15.588379">
        <ele>1131.42</ele>
        <time>2017-12-09T11:01:10Z</time>
      </trkpt>
      <trkpt lat="27.925288" lon="-15.588360">
        <ele>1131.40</ele>
        <time>2017-12-09T11:01:11Z</time>
      </trkpt>
      <trkpt lat="27.925292" lon="-15.588335">
        <ele>1131.40</ele>
        <time>2017-12-09T11:01:12Z</time>
      </trkpt>
      <trkpt lat="27.925297" lon="-15.588314">
        <ele>1131.40</ele>
        <time>2017-12-09T11:01:13Z</time>
      </trkpt>
      <trkpt lat="27.925289" lon="-15.588291">
        <ele>1131.40</ele>
        <time>2017-12-09T11:01:14Z</time>
      </trkpt>
      <trkpt lat="27.925281" lon="-15.588265">
        <ele>1131.17</ele>
        <time>2017-12-09T11:01:15Z</time>
      </trkpt>
      <trkpt lat="27.925266" lon="-15.588232">
        <ele>1131.10</ele>
        <time>2017-12-09T11:01:16Z</time>
      </trkpt>
      <trkpt lat="27.925248" lon="-15.588201">
        <ele>1131.10</ele>
        <time>2017-12-09T11:01:17Z</time>
      </trkpt>
      <trkpt lat="27.925237" lon="-15.588173">
        <ele>1131.34</ele>
        <time>2017-12-09T11:01:18Z</time>
      </trkpt>
      <trkpt lat="27.925223" lon="-15.588146">
        <ele>1130.85</ele>
        <time>2017-12-09T11:01:19Z</time>
      </trkpt>
      <trkpt lat="27.925207" lon="-15.588120">
        <ele>1130.54</ele>
        <time>2017-12-09T11:01:20Z</time>
      </trkpt>
      <trkpt lat="27.925188" lon="-15.588098">
        <ele>1130.42</ele>
        <time>2017-12-09T11:01:21Z</time>
      </trkpt>
      <trkpt lat="27.925170" lon="-15.588079">
        <ele>1130.32</ele>
        <time>2017-12-09T11:01:22Z</time>
      </trkpt>
      <trkpt lat="27.925152" lon="-15.588060">
        <ele>1129.27</ele>
        <time>2017-12-09T11:01:23Z</time>
      </trkpt>
      <trkpt lat="27.925132" lon="-15.588042">
        <ele>1128.60</ele>
        <time>2017-12-09T11:01:24Z</time>
      </trkpt>
      <trkpt lat="27.925112" lon="-15.588024">
        <ele>1128.34</ele>
        <time>2017-12-09T11:01:25Z</time>
      </trkpt>
      <trkpt lat="27.925095" lon="-15.588003">
        <ele>1127.83</ele>
        <time>2017-12-09T11:01:26Z</time>
      </trkpt>
      <trkpt lat="27.925081" lon="-15.587985">
        <ele>1127.62</ele>
        <time>2017-12-09T11:01:27Z</time>
      </trkpt>
      <trkpt lat="27.925065" lon="-15.587964">
        <ele>1127.52</ele>
        <time>2017-12-09T11:01:28Z</time>
      </trkpt>
      <trkpt lat="27.925046" lon="-15.587947">
        <ele>1127.50</ele>
        <time>2017-12-09T11:01:29Z</time>
      </trkpt>
      <trkpt lat="27.925033" lon="-15.587929">
        <ele>1126.87</ele>
        <time>2017-12-09T11:01:30Z</time>
      </trkpt>
      <trkpt lat="27.925022" lon="-15.587906">
        <ele>1126.70</ele>
        <time>2017-12-09T11:01:31Z</time>
      </trkpt>
      <trkpt lat="27.925010" lon="-15.587884">
        <ele>1126.23</ele>
        <time>2017-12-09T11:01:32Z</time>
      </trkpt>
      <trkpt lat="27.925044" lon="-15.587774">
        <ele>1123.70</ele>
        <time>2017-12-09T11:01:39Z</time>
      </trkpt>
      <trkpt lat="27.925072" lon="-15.587748">
        <ele>1124.83</ele>
        <time>2017-12-09T11:01:41Z</time>
      </trkpt>
      <trkpt lat="27.925079" lon="-15.587729">
        <ele>1124.62</ele>
        <time>2017-12-09T11:01:42Z</time>
      </trkpt>
      <trkpt lat="27.925099" lon="-15.587698">
        <ele>1124.95</ele>
        <time>2017-12-09T11:01:44Z</time>
      </trkpt>
      <trkpt lat="27.925171" lon="-15.587607">
        <ele>1125.72</ele>
        <time>2017-12-09T11:01:50Z</time>
      </trkpt>
      <trkpt lat="27.925221" lon="-15.587499">
        <ele>1126.80</ele>
        <time>2017-12-09T11:01:54Z</time>
      </trkpt>
      <trkpt lat="27.925246" lon="-15.587427">
        <ele>1126.80</ele>
        <time>2017-12-09T11:01:57Z</time>
      </trkpt>
      <trkpt lat="27.925248" lon="-15.587404">
        <ele>1127.71</ele>
        <time>2017-12-09T11:01:58Z</time>
      </trkpt>
      <trkpt lat="27.925252" lon="-15.587382">
        <ele>1128.00</ele>
        <time>2017-12-09T11:01:59Z</time>
      </trkpt>
      <trkpt lat="27.925249" lon="-15.587362">
        <ele>1128.00</ele>
        <time>2017-12-09T11:02:00Z</time>
      </trkpt>
      <trkpt lat="27.925253" lon="-15.587319">
        <ele>1128.73</ele>
        <time>2017-12-09T11:02:02Z</time>
      </trkpt>
      <trkpt lat="27.925254" lon="-15.587294">
        <ele>1128.80</ele>
        <time>2017-12-09T11:02:03Z</time>
      </trkpt>
      <trkpt lat="27.925248" lon="-15.587269">
        <ele>1128.80</ele>
        <time>2017-12-09T11:02:04Z</time>
      </trkpt>
      <trkpt lat="27.925232" lon="-15.587247">
        <ele>1128.88</ele>
        <time>2017-12-09T11:02:05Z</time>
      </trkpt>
      <trkpt lat="27.925216" lon="-15.587232">
        <ele>1128.98</ele>
        <time>2017-12-09T11:02:06Z</time>
      </trkpt>
      <trkpt lat="27.925196" lon="-15.587216">
        <ele>1129.00</ele>
        <time>2017-12-09T11:02:07Z</time>
      </trkpt>
      <trkpt lat="27.925173" lon="-15.587205">
        <ele>1129.08</ele>
        <time>2017-12-09T11:02:08Z</time>
      </trkpt>
      <trkpt lat="27.925152" lon="-15.587195">
        <ele>1129.18</ele>
        <time>2017-12-09T11:02:09Z</time>
      </trkpt>
      <trkpt lat="27.925133" lon="-15.587187">
        <ele>1129.28</ele>
        <time>2017-12-09T11:02:10Z</time>
      </trkpt>
      <trkpt lat="27.925116" lon="-15.587175">
        <ele>1129.30</ele>
        <time>2017-12-09T11:02:11Z</time>
      </trkpt>
      <trkpt lat="27.925102" lon="-15.587156">
        <ele>1129.30</ele>
        <time>2017-12-09T11:02:12Z</time>
      </trkpt>
      <trkpt lat="27.925090" lon="-15.587138">
        <ele>1129.22</ele>
        <time>2017-12-09T11:02:13Z</time>
      </trkpt>
      <trkpt lat="27.925085" lon="-15.587116">
        <ele>1129.51</ele>
        <time>2017-12-09T11:02:14Z</time>
      </trkpt>
      <trkpt lat="27.925085" lon="-15.587077">
        <ele>1128.89</ele>
        <time>2017-12-09T11:02:16Z</time>
      </trkpt>
      <trkpt lat="27.925086" lon="-15.587056">
        <ele>1128.70</ele>
        <time>2017-12-09T11:02:17Z</time>
      </trkpt>
      <trkpt lat="27.925083" lon="-15.587032">
        <ele>1128.70</ele>
        <time>2017-12-09T11:02:18Z</time>
      </trkpt>
      <trkpt lat="27.925082" lon="-15.587010">
        <ele>1128.70</ele>
        <time>2017-12-09T11:02:19Z</time>
      </trkpt>
      <trkpt lat="27.925076" lon="-15.586985">
        <ele>1128.70</ele>
        <time>2017-12-09T11:02:20Z</time>
      </trkpt>
      <trkpt lat="27.925077" lon="-15.586944">
        <ele>1128.62</ele>
        <time>2017-12-09T11:02:22Z</time>
      </trkpt>
      <trkpt lat="27.925076" lon="-15.586920">
        <ele>1127.73</ele>
        <time>2017-12-09T11:02:23Z</time>
      </trkpt>
      <trkpt lat="27.925072" lon="-15.586894">
        <ele>1127.50</ele>
        <time>2017-12-09T11:02:24Z</time>
      </trkpt>
      <trkpt lat="27.925070" lon="-15.586868">
        <ele>1127.42</ele>
        <time>2017-12-09T11:02:25Z</time>
      </trkpt>
      <trkpt lat="27.925073" lon="-15.586847">
        <ele>1127.40</ele>
        <time>2017-12-09T11:02:26Z</time>
      </trkpt>
      <trkpt lat="27.925074" lon="-15.586825">
        <ele>1127.72</ele>
        <time>2017-12-09T11:02:27Z</time>
      </trkpt>
      <trkpt lat="27.925073" lon="-15.586780">
        <ele>1127.78</ele>
        <time>2017-12-09T11:02:29Z</time>
      </trkpt>
      <trkpt lat="27.925067" lon="-15.586759">
        <ele>1127.72</ele>
        <time>2017-12-09T11:02:30Z</time>
      </trkpt>
      <trkpt lat="27.925066" lon="-15.586728">
        <ele>1127.70</ele>
        <time>2017-12-09T11:02:31Z</time>
      </trkpt>
      <trkpt lat="27.925061" lon="-15.586696">
        <ele>1127.62</ele>
        <time>2017-12-09T11:02:32Z</time>
      </trkpt>
      <trkpt lat="27.925051" lon="-15.586668">
        <ele>1127.60</ele>
        <time>2017-12-09T11:02:33Z</time>
      </trkpt>
      <trkpt lat="27.925046" lon="-15.586639">
        <ele>1127.52</ele>
        <time>2017-12-09T11:02:34Z</time>
      </trkpt>
      <trkpt lat="27.925041" lon="-15.586615">
        <ele>1127.58</ele>
        <time>2017-12-09T11:02:35Z</time>
      </trkpt>
      <trkpt lat="27.925037" lon="-15.586591">
        <ele>1127.52</ele>
        <time>2017-12-09T11:02:36Z</time>
      </trkpt>
      <trkpt lat="27.925034" lon="-15.586571">
        <ele>1127.66</ele>
        <time>2017-12-09T11:02:37Z</time>
      </trkpt>
      <trkpt lat="27.925033" lon="-15.586530">
        <ele>1127.94</ele>
        <time>2017-12-09T11:02:39Z</time>
      </trkpt>
      <trkpt lat="27.925028" lon="-15.586508">
        <ele>1127.92</ele>
        <time>2017-12-09T11:02:40Z</time>
      </trkpt>
      <trkpt lat="27.925023" lon="-15.586486">
        <ele>1127.90</ele>
        <time>2017-12-09T11:02:41Z</time>
      </trkpt>
      <trkpt lat="27.925018" lon="-15.586447">
        <ele>1127.80</ele>
        <time>2017-12-09T11:02:43Z</time>
      </trkpt>
      <trkpt lat="27.925016" lon="-15.586424">
        <ele>1128.28</ele>
        <time>2017-12-09T11:02:44Z</time>
      </trkpt>
      <trkpt lat="27.925013" lon="-15.586401">
        <ele>1128.40</ele>
        <time>2017-12-09T11:02:45Z</time>
      </trkpt>
      <trkpt lat="27.925006" lon="-15.586375">
        <ele>1128.32</ele>
        <time>2017-12-09T11:02:46Z</time>
      </trkpt>
      <trkpt lat="27.924998" lon="-15.586347">
        <ele>1128.06</ele>
        <time>2017-12-09T11:02:47Z</time>
      </trkpt>
      <trkpt lat="27.924992" lon="-15.586323">
        <ele>1128.16</ele>
        <time>2017-12-09T11:02:48Z</time>
      </trkpt>
      <trkpt lat="27.924985" lon="-15.586300">
        <ele>1128.20</ele>
        <time>2017-12-09T11:02:49Z</time>
      </trkpt>
      <trkpt lat="27.924979" lon="-15.586274">
        <ele>1128.12</ele>
        <time>2017-12-09T11:02:50Z</time>
      </trkpt>
      <trkpt lat="27.924968" lon="-15.586249">
        <ele>1127.85</ele>
        <time>2017-12-09T11:02:51Z</time>
      </trkpt>
      <trkpt lat="27.924959" lon="-15.586227">
        <ele>1127.80</ele>
        <time>2017-12-09T11:02:52Z</time>
      </trkpt>
      <trkpt lat="27.924948" lon="-15.586205">
        <ele>1127.38</ele>
        <time>2017-12-09T11:02:53Z</time>
      </trkpt>
      <trkpt lat="27.924937" lon="-15.586187">
        <ele>1127.47</ele>
        <time>2017-12-09T11:02:54Z</time>
      </trkpt>
      <trkpt lat="27.924922" lon="-15.586144">
        <ele>1126.17</ele>
        <time>2017-12-09T11:02:56Z</time>
      </trkpt>
      <trkpt lat="27.924917" lon="-15.586123">
        <ele>1126.01</ele>
        <time>2017-12-09T11:02:57Z</time>
      </trkpt>
      <trkpt lat="27.924911" lon="-15.586103">
        <ele>1125.74</ele>
        <time>2017-12-09T11:02:58Z</time>
      </trkpt>
      <trkpt lat="27.924902" lon="-15.586084">
        <ele>1125.70</ele>
        <time>2017-12-09T11:02:59Z</time>
      </trkpt>
      <trkpt lat="27.924883" lon="-15.586057">
        <ele>1125.15</ele>
        <time>2017-12-09T11:03:01Z</time>
      </trkpt>
      <trkpt lat="27.924862" lon="-15.586027">
        <ele>1124.71</ele>
        <time>2017-12-09T11:03:03Z</time>
      </trkpt>
      <trkpt lat="27.924832" lon="-15.586005">
        <ele>1124.03</ele>
        <time>2017-12-09T11:03:05Z</time>
      </trkpt>
      <trkpt lat="27.924812" lon="-15.585996">
        <ele>1123.91</ele>
        <time>2017-12-09T11:03:06Z</time>
      </trkpt>
      <trkpt lat="27.924794" lon="-15.585980">
        <ele>1123.81</ele>
        <time>2017-12-09T11:03:07Z</time>
      </trkpt>
      <trkpt lat="27.924777" lon="-15.585964">
        <ele>1123.61</ele>
        <time>2017-12-09T11:03:08Z</time>
      </trkpt>
      <trkpt lat="27.924760" lon="-15.585949">
        <ele>1123.41</ele>
        <time>2017-12-09T11:03:09Z</time>
      </trkpt>
      <trkpt lat="27.924743" lon="-15.585935">
        <ele>1123.31</ele>
        <time>2017-12-09T11:03:10Z</time>
      </trkpt>
      <trkpt lat="27.924728" lon="-15.585921">
        <ele>1123.11</ele>
        <time>2017-12-09T11:03:11Z</time>
      </trkpt>
      <trkpt lat="27.924712" lon="-15.585905">
        <ele>1123.01</ele>
        <time>2017-12-09T11:03:12Z</time>
      </trkpt>
      <trkpt lat="27.924698" lon="-15.585891">
        <ele>1122.81</ele>
        <time>2017-12-09T11:03:13Z</time>
      </trkpt>
      <trkpt lat="27.924683" lon="-15.585876">
        <ele>1122.32</ele>
        <time>2017-12-09T11:03:14Z</time>
      </trkpt>
      <trkpt lat="27.924668" lon="-15.585866">
        <ele>1122.30</ele>
        <time>2017-12-09T11:03:15Z</time>
      </trkpt>
      <trkpt lat="27.924635" lon="-15.585847">
        <ele>1121.61</ele>
        <time>2017-12-09T11:03:17Z</time>
      </trkpt>
      <trkpt lat="27.924616" lon="-15.585841">
        <ele>1121.60</ele>
        <time>2017-12-09T11:03:18Z</time>
      </trkpt>
      <trkpt lat="27.924595" lon="-15.585839">
        <ele>1121.41</ele>
        <time>2017-12-09T11:03:19Z</time>
      </trkpt>
      <trkpt lat="27.924570" lon="-15.585850">
        <ele>1121.40</ele>
        <time>2017-12-09T11:03:20Z</time>
      </trkpt>
      <trkpt lat="27.924549" lon="-15.585858">
        <ele>1121.01</ele>
        <time>2017-12-09T11:03:21Z</time>
      </trkpt>
      <trkpt lat="27.924529" lon="-15.585867">
        <ele>1120.52</ele>
        <time>2017-12-09T11:03:22Z</time>
      </trkpt>
      <trkpt lat="27.924504" lon="-15.585879">
        <ele>1120.50</ele>
        <time>2017-12-09T11:03:23Z</time>
      </trkpt>
      <trkpt lat="27.924486" lon="-15.585895">
        <ele>1120.30</ele>
        <time>2017-12-09T11:03:24Z</time>
      </trkpt>
      <trkpt lat="27.924466" lon="-15.585914">
        <ele>1119.72</ele>
        <time>2017-12-09T11:03:25Z</time>
      </trkpt>
      <trkpt lat="27.924449" lon="-15.585929">
        <ele>1119.51</ele>
        <time>2017-12-09T11:03:26Z</time>
      </trkpt>
      <trkpt lat="27.924433" lon="-15.585939">
        <ele>1119.31</ele>
        <time>2017-12-09T11:03:27Z</time>
      </trkpt>
      <trkpt lat="27.924405" lon="-15.585939">
        <ele>1119.01</ele>
        <time>2017-12-09T11:03:29Z</time>
      </trkpt>
      <trkpt lat="27.924382" lon="-15.585926">
        <ele>1118.61</ele>
        <time>2017-12-09T11:03:31Z</time>
      </trkpt>
      <trkpt lat="27.924358" lon="-15.585914">
        <ele>1118.40</ele>
        <time>2017-12-09T11:03:33Z</time>
      </trkpt>
      <trkpt lat="27.924336" lon="-15.585905">
        <ele>1117.50</ele>
        <time>2017-12-09T11:03:35Z</time>
      </trkpt>
      <trkpt lat="27.924320" lon="-15.585895">
        <ele>1117.01</ele>
        <time>2017-12-09T11:03:36Z</time>
      </trkpt>
      <trkpt lat="27.924292" lon="-15.585884">
        <ele>1116.40</ele>
        <time>2017-12-09T11:03:38Z</time>
      </trkpt>
      <trkpt lat="27.924264" lon="-15.585874">
        <ele>1115.91</ele>
        <time>2017-12-09T11:03:40Z</time>
      </trkpt>
      <trkpt lat="27.924232" lon="-15.585861">
        <ele>1115.20</ele>
        <time>2017-12-09T11:03:42Z</time>
      </trkpt>
      <trkpt lat="27.924199" lon="-15.585853">
        <ele>1114.20</ele>
        <time>2017-12-09T11:03:44Z</time>
      </trkpt>
      <trkpt lat="27.924179" lon="-15.585847">
        <ele>1113.50</ele>
        <time>2017-12-09T11:03:45Z</time>
      </trkpt>
      <trkpt lat="27.924159" lon="-15.585840">
        <ele>1113.50</ele>
        <time>2017-12-09T11:03:46Z</time>
      </trkpt>
      <trkpt lat="27.924142" lon="-15.585832">
        <ele>1112.90</ele>
        <time>2017-12-09T11:03:47Z</time>
      </trkpt>
      <trkpt lat="27.924118" lon="-15.585823">
        <ele>1112.90</ele>
        <time>2017-12-09T11:03:48Z</time>
      </trkpt>
      <trkpt lat="27.924100" lon="-15.585814">
        <ele>1111.70</ele>
        <time>2017-12-09T11:03:49Z</time>
      </trkpt>
      <trkpt lat="27.924082" lon="-15.585809">
        <ele>1111.70</ele>
        <time>2017-12-09T11:03:50Z</time>
      </trkpt>
      <trkpt lat="27.924058" lon="-15.585807">
        <ele>1111.40</ele>
        <time>2017-12-09T11:03:51Z</time>
      </trkpt>
      <trkpt lat="27.924028" lon="-15.585809">
        <ele>1111.40</ele>
        <time>2017-12-09T11:03:52Z</time>
      </trkpt>
      <trkpt lat="27.923996" lon="-15.585822">
        <ele>1111.00</ele>
        <time>2017-12-09T11:03:53Z</time>
      </trkpt>
      <trkpt lat="27.923967" lon="-15.585831">
        <ele>1110.50</ele>
        <time>2017-12-09T11:03:54Z</time>
      </trkpt>
      <trkpt lat="27.923940" lon="-15.585831">
        <ele>1110.50</ele>
        <time>2017-12-09T11:03:55Z</time>
      </trkpt>
      <trkpt lat="27.923920" lon="-15.585831">
        <ele>1110.50</ele>
        <time>2017-12-09T11:03:56Z</time>
      </trkpt>
      <trkpt lat="27.923892" lon="-15.585823">
        <ele>1109.81</ele>
        <time>2017-12-09T11:03:58Z</time>
      </trkpt>
      <trkpt lat="27.923908" lon="-15.585704">
        <ele>1109.10</ele>
        <time>2017-12-09T11:04:05Z</time>
      </trkpt>
      <trkpt lat="27.923930" lon="-15.585594">
        <ele>1109.80</ele>
        <time>2017-12-09T11:04:10Z</time>
      </trkpt>
      <trkpt lat="27.923951" lon="-15.585491">
        <ele>1109.80</ele>
        <time>2017-12-09T11:04:15Z</time>
      </trkpt>
      <trkpt lat="27.923992" lon="-15.585397">
        <ele>1111.60</ele>
        <time>2017-12-09T11:04:21Z</time>
      </trkpt>
      <trkpt lat="27.924009" lon="-15.585295">
        <ele>1113.30</ele>
        <time>2017-12-09T11:04:27Z</time>
      </trkpt>
      <trkpt lat="27.924050" lon="-15.585194">
        <ele>1114.00</ele>
        <time>2017-12-09T11:04:34Z</time>
      </trkpt>
      <trkpt lat="27.924079" lon="-15.585107">
        <ele>1114.60</ele>
        <time>2017-12-09T11:04:40Z</time>
      </trkpt>
      <trkpt lat="27.924078" lon="-15.585075">
        <ele>1114.90</ele>
        <time>2017-12-09T11:04:42Z</time>
      </trkpt>
      <trkpt lat="27.924074" lon="-15.585049">
        <ele>1114.91</ele>
        <time>2017-12-09T11:04:43Z</time>
      </trkpt>
      <trkpt lat="27.924070" lon="-15.585014">
        <ele>1115.20</ele>
        <time>2017-12-09T11:04:45Z</time>
      </trkpt>
      <trkpt lat="27.924060" lon="-15.584987">
        <ele>1115.20</ele>
        <time>2017-12-09T11:04:47Z</time>
      </trkpt>
      <trkpt lat="27.924047" lon="-15.584971">
        <ele>1115.21</ele>
        <time>2017-12-09T11:04:48Z</time>
      </trkpt>
      <trkpt lat="27.924033" lon="-15.584941">
        <ele>1115.70</ele>
        <time>2017-12-09T11:04:50Z</time>
      </trkpt>
      <trkpt lat="27.924009" lon="-15.584921">
        <ele>1116.00</ele>
        <time>2017-12-09T11:04:52Z</time>
      </trkpt>
      <trkpt lat="27.923984" lon="-15.584909">
        <ele>1116.01</ele>
        <time>2017-12-09T11:04:54Z</time>
      </trkpt>
      <trkpt lat="27.923956" lon="-15.584906">
        <ele>1116.00</ele>
        <time>2017-12-09T11:04:56Z</time>
      </trkpt>
      <trkpt lat="27.923934" lon="-15.584888">
        <ele>1116.00</ele>
        <time>2017-12-09T11:04:58Z</time>
      </trkpt>
      <trkpt lat="27.923918" lon="-15.584858">
        <ele>1116.02</ele>
        <time>2017-12-09T11:05:00Z</time>
      </trkpt>
      <trkpt lat="27.923905" lon="-15.584831">
        <ele>1115.60</ele>
        <time>2017-12-09T11:05:02Z</time>
      </trkpt>
      <trkpt lat="27.923893" lon="-15.584804">
        <ele>1115.49</ele>
        <time>2017-12-09T11:05:04Z</time>
      </trkpt>
      <trkpt lat="27.923881" lon="-15.584775">
        <ele>1114.60</ele>
        <time>2017-12-09T11:05:06Z</time>
      </trkpt>
      <trkpt lat="27.923864" lon="-15.584750">
        <ele>1114.17</ele>
        <time>2017-12-09T11:05:08Z</time>
      </trkpt>
      <trkpt lat="27.923845" lon="-15.584727">
        <ele>1112.89</ele>
        <time>2017-12-09T11:05:10Z</time>
      </trkpt>
      <trkpt lat="27.923826" lon="-15.584697">
        <ele>1112.30</ele>
        <time>2017-12-09T11:05:12Z</time>
      </trkpt>
      <trkpt lat="27.923814" lon="-15.584678">
        <ele>1112.28</ele>
        <time>2017-12-09T11:05:13Z</time>
      </trkpt>
      <trkpt lat="27.923793" lon="-15.584645">
        <ele>1111.92</ele>
        <time>2017-12-09T11:05:15Z</time>
      </trkpt>
      <trkpt lat="27.923783" lon="-15.584623">
        <ele>1110.78</ele>
        <time>2017-12-09T11:05:16Z</time>
      </trkpt>
      <trkpt lat="27.923759" lon="-15.584591">
        <ele>1109.40</ele>
        <time>2017-12-09T11:05:18Z</time>
      </trkpt>
      <trkpt lat="27.923744" lon="-15.584554">
        <ele>1109.08</ele>
        <time>2017-12-09T11:05:20Z</time>
      </trkpt>
      <trkpt lat="27.923726" lon="-15.584517">
        <ele>1108.67</ele>
        <time>2017-12-09T11:05:22Z</time>
      </trkpt>
      <trkpt lat="27.923720" lon="-15.584497">
        <ele>1108.38</ele>
        <time>2017-12-09T11:05:23Z</time>
      </trkpt>
      <trkpt lat="27.923713" lon="-15.584476">
        <ele>1108.15</ele>
        <time>2017-12-09T11:05:24Z</time>
      </trkpt>
      <trkpt lat="27.923700" lon="-15.584461">
        <ele>1107.60</ele>
        <time>2017-12-09T11:05:25Z</time>
      </trkpt>
      <trkpt lat="27.923685" lon="-15.584444">
        <ele>1106.58</ele>
        <time>2017-12-09T11:05:26Z</time>
      </trkpt>
      <trkpt lat="27.923672" lon="-15.584429">
        <ele>1106.36</ele>
        <time>2017-12-09T11:05:27Z</time>
      </trkpt>
      <trkpt lat="27.923658" lon="-15.584409">
        <ele>1105.92</ele>
        <time>2017-12-09T11:05:28Z</time>
      </trkpt>
      <trkpt lat="27.923641" lon="-15.584387">
        <ele>1105.15</ele>
        <time>2017-12-09T11:05:29Z</time>
      </trkpt>
      <trkpt lat="27.923626" lon="-15.584369">
        <ele>1104.68</ele>
        <time>2017-12-09T11:05:30Z</time>
      </trkpt>
      <trkpt lat="27.923610" lon="-15.584336">
        <ele>1104.35</ele>
        <time>2017-12-09T11:05:32Z</time>
      </trkpt>
      <trkpt lat="27.923610" lon="-15.584300">
        <ele>1103.23</ele>
        <time>2017-12-09T11:05:34Z</time>
      </trkpt>
      <trkpt lat="27.923624" lon="-15.584272">
        <ele>1102.53</ele>
        <time>2017-12-09T11:05:36Z</time>
      </trkpt>
      <trkpt lat="27.923648" lon="-15.584255">
        <ele>1101.57</ele>
        <time>2017-12-09T11:05:38Z</time>
      </trkpt>
      <trkpt lat="27.923674" lon="-15.584231">
        <ele>1101.22</ele>
        <time>2017-12-09T11:05:40Z</time>
      </trkpt>
      <trkpt lat="27.923686" lon="-15.584210">
        <ele>1100.66</ele>
        <time>2017-12-09T11:05:41Z</time>
      </trkpt>
      <trkpt lat="27.923695" lon="-15.584185">
        <ele>1100.32</ele>
        <time>2017-12-09T11:05:42Z</time>
      </trkpt>
      <trkpt lat="27.923696" lon="-15.584149">
        <ele>1099.68</ele>
        <time>2017-12-09T11:05:43Z</time>
      </trkpt>
      <trkpt lat="27.923692" lon="-15.584119">
        <ele>1098.84</ele>
        <time>2017-12-09T11:05:44Z</time>
      </trkpt>
      <trkpt lat="27.923690" lon="-15.584092">
        <ele>1098.50</ele>
        <time>2017-12-09T11:05:45Z</time>
      </trkpt>
      <trkpt lat="27.923688" lon="-15.584069">
        <ele>1098.46</ele>
        <time>2017-12-09T11:05:46Z</time>
      </trkpt>
      <trkpt lat="27.923686" lon="-15.584049">
        <ele>1098.20</ele>
        <time>2017-12-09T11:05:47Z</time>
      </trkpt>
      <trkpt lat="27.923684" lon="-15.584028">
        <ele>1098.17</ele>
        <time>2017-12-09T11:05:48Z</time>
      </trkpt>
      <trkpt lat="27.923683" lon="-15.584004">
        <ele>1097.93</ele>
        <time>2017-12-09T11:05:49Z</time>
      </trkpt>
      <trkpt lat="27.923682" lon="-15.583982">
        <ele>1097.50</ele>
        <time>2017-12-09T11:05:50Z</time>
      </trkpt>
      <trkpt lat="27.923687" lon="-15.583948">
        <ele>1096.66</ele>
        <time>2017-12-09T11:05:52Z</time>
      </trkpt>
      <trkpt lat="27.923685" lon="-15.583925">
        <ele>1096.34</ele>
        <time>2017-12-09T11:05:53Z</time>
      </trkpt>
      <trkpt lat="27.923677" lon="-15.583905">
        <ele>1095.97</ele>
        <time>2017-12-09T11:05:54Z</time>
      </trkpt>
      <trkpt lat="27.923673" lon="-15.583878">
        <ele>1095.77</ele>
        <time>2017-12-09T11:05:55Z</time>
      </trkpt>
      <trkpt lat="27.923667" lon="-15.583853">
        <ele>1095.60</ele>
        <time>2017-12-09T11:05:56Z</time>
      </trkpt>
      <trkpt lat="27.923653" lon="-15.583835">
        <ele>1095.36</ele>
        <time>2017-12-09T11:05:57Z</time>
      </trkpt>
      <trkpt lat="27.923642" lon="-15.583816">
        <ele>1093.94</ele>
        <time>2017-12-09T11:05:58Z</time>
      </trkpt>
      <trkpt lat="27.923632" lon="-15.583798">
        <ele>1093.55</ele>
        <time>2017-12-09T11:05:59Z</time>
      </trkpt>
      <trkpt lat="27.923620" lon="-15.583777">
        <ele>1093.25</ele>
        <time>2017-12-09T11:06:00Z</time>
      </trkpt>
      <trkpt lat="27.923606" lon="-15.583759">
        <ele>1093.05</ele>
        <time>2017-12-09T11:06:01Z</time>
      </trkpt>
      <trkpt lat="27.923586" lon="-15.583747">
        <ele>1093.24</ele>
        <time>2017-12-09T11:06:02Z</time>
      </trkpt>
      <trkpt lat="27.923566" lon="-15.583737">
        <ele>1092.85</ele>
        <time>2017-12-09T11:06:03Z</time>
      </trkpt>
      <trkpt lat="27.923545" lon="-15.583726">
        <ele>1092.55</ele>
        <time>2017-12-09T11:06:04Z</time>
      </trkpt>
      <trkpt lat="27.923530" lon="-15.583710">
        <ele>1092.27</ele>
        <time>2017-12-09T11:06:05Z</time>
      </trkpt>
      <trkpt lat="27.923518" lon="-15.583691">
        <ele>1092.08</ele>
        <time>2017-12-09T11:06:06Z</time>
      </trkpt>
      <trkpt lat="27.923511" lon="-15.583668">
        <ele>1091.87</ele>
        <time>2017-12-09T11:06:07Z</time>
      </trkpt>
      <trkpt lat="27.923520" lon="-15.583631">
        <ele>1091.05</ele>
        <time>2017-12-09T11:06:09Z</time>
      </trkpt>
      <trkpt lat="27.923534" lon="-15.583595">
        <ele>1090.30</ele>
        <time>2017-12-09T11:06:11Z</time>
      </trkpt>
      <trkpt lat="27.923557" lon="-15.583563">
        <ele>1090.22</ele>
        <time>2017-12-09T11:06:13Z</time>
      </trkpt>
      <trkpt lat="27.923576" lon="-15.583541">
        <ele>1090.30</ele>
        <time>2017-12-09T11:06:15Z</time>
      </trkpt>
      <trkpt lat="27.923594" lon="-15.583513">
        <ele>1090.17</ele>
        <time>2017-12-09T11:06:17Z</time>
      </trkpt>
      <trkpt lat="27.923608" lon="-15.583489">
        <ele>1089.96</ele>
        <time>2017-12-09T11:06:18Z</time>
      </trkpt>
      <trkpt lat="27.923623" lon="-15.583466">
        <ele>1089.63</ele>
        <time>2017-12-09T11:06:19Z</time>
      </trkpt>
      <trkpt lat="27.923632" lon="-15.583437">
        <ele>1088.80</ele>
        <time>2017-12-09T11:06:20Z</time>
      </trkpt>
      <trkpt lat="27.923634" lon="-15.583409">
        <ele>1088.71</ele>
        <time>2017-12-09T11:06:21Z</time>
      </trkpt>
      <trkpt lat="27.923637" lon="-15.583384">
        <ele>1088.30</ele>
        <time>2017-12-09T11:06:22Z</time>
      </trkpt>
      <trkpt lat="27.923637" lon="-15.583355">
        <ele>1088.28</ele>
        <time>2017-12-09T11:06:23Z</time>
      </trkpt>
      <trkpt lat="27.923639" lon="-15.583330">
        <ele>1088.16</ele>
        <time>2017-12-09T11:06:24Z</time>
      </trkpt>
      <trkpt lat="27.923632" lon="-15.583298">
        <ele>1088.02</ele>
        <time>2017-12-09T11:06:25Z</time>
      </trkpt>
      <trkpt lat="27.923626" lon="-15.583270">
        <ele>1088.00</ele>
        <time>2017-12-09T11:06:26Z</time>
      </trkpt>
      <trkpt lat="27.923628" lon="-15.583236">
        <ele>1087.60</ele>
        <time>2017-12-09T11:06:27Z</time>
      </trkpt>
      <trkpt lat="27.923631" lon="-15.583153">
        <ele>1087.46</ele>
        <time>2017-12-09T11:06:30Z</time>
      </trkpt>
      <trkpt lat="27.923637" lon="-15.583126">
        <ele>1086.82</ele>
        <time>2017-12-09T11:06:31Z</time>
      </trkpt>
      <trkpt lat="27.923641" lon="-15.583104">
        <ele>1086.33</ele>
        <time>2017-12-09T11:06:32Z</time>
      </trkpt>
      <trkpt lat="27.923650" lon="-15.583084">
        <ele>1085.53</ele>
        <time>2017-12-09T11:06:33Z</time>
      </trkpt>
      <trkpt lat="27.923660" lon="-15.583064">
        <ele>1084.81</ele>
        <time>2017-12-09T11:06:34Z</time>
      </trkpt>
      <trkpt lat="27.923665" lon="-15.583028">
        <ele>1084.20</ele>
        <time>2017-12-09T11:06:36Z</time>
      </trkpt>
      <trkpt lat="27.923668" lon="-15.583005">
        <ele>1083.41</ele>
        <time>2017-12-09T11:06:37Z</time>
      </trkpt>
      <trkpt lat="27.923667" lon="-15.582963">
        <ele>1082.44</ele>
        <time>2017-12-09T11:06:39Z</time>
      </trkpt>
      <trkpt lat="27.923663" lon="-15.582938">
        <ele>1081.80</ele>
        <time>2017-12-09T11:06:40Z</time>
      </trkpt>
      <trkpt lat="27.923655" lon="-15.582909">
        <ele>1081.21</ele>
        <time>2017-12-09T11:06:41Z</time>
      </trkpt>
      <trkpt lat="27.923647" lon="-15.582880">
        <ele>1080.08</ele>
        <time>2017-12-09T11:06:42Z</time>
      </trkpt>
      <trkpt lat="27.923643" lon="-15.582851">
        <ele>1079.35</ele>
        <time>2017-12-09T11:06:43Z</time>
      </trkpt>
      <trkpt lat="27.923645" lon="-15.582827">
        <ele>1079.15</ele>
        <time>2017-12-09T11:06:44Z</time>
      </trkpt>
      <trkpt lat="27.923659" lon="-15.582786">
        <ele>1079.00</ele>
        <time>2017-12-09T11:06:46Z</time>
      </trkpt>
      <trkpt lat="27.923668" lon="-15.582768">
        <ele>1078.84</ele>
        <time>2017-12-09T11:06:47Z</time>
      </trkpt>
      <trkpt lat="27.923678" lon="-15.582684">
        <ele>1077.20</ele>
        <time>2017-12-09T11:06:50Z</time>
      </trkpt>
      <trkpt lat="27.923686" lon="-15.582663">
        <ele>1076.40</ele>
        <time>2017-12-09T11:06:51Z</time>
      </trkpt>
      <trkpt lat="27.923691" lon="-15.582642">
        <ele>1076.40</ele>
        <time>2017-12-09T11:06:52Z</time>
      </trkpt>
      <trkpt lat="27.923686" lon="-15.582615">
        <ele>1076.12</ele>
        <time>2017-12-09T11:06:53Z</time>
      </trkpt>
      <trkpt lat="27.923660" lon="-15.582592">
        <ele>1075.40</ele>
        <time>2017-12-09T11:06:54Z</time>
      </trkpt>
      <trkpt lat="27.923621" lon="-15.582585">
        <ele>1075.23</ele>
        <time>2017-12-09T11:06:55Z</time>
      </trkpt>
      <trkpt lat="27.923592" lon="-15.582584">
        <ele>1074.77</ele>
        <time>2017-12-09T11:06:56Z</time>
      </trkpt>
      <trkpt lat="27.923564" lon="-15.582585">
        <ele>1074.70</ele>
        <time>2017-12-09T11:06:57Z</time>
      </trkpt>
      <trkpt lat="27.923542" lon="-15.582588">
        <ele>1074.67</ele>
        <time>2017-12-09T11:06:58Z</time>
      </trkpt>
      <trkpt lat="27.923520" lon="-15.582587">
        <ele>1074.60</ele>
        <time>2017-12-09T11:06:59Z</time>
      </trkpt>
      <trkpt lat="27.923498" lon="-15.582578">
        <ele>1074.33</ele>
        <time>2017-12-09T11:07:00Z</time>
      </trkpt>
      <trkpt lat="27.923476" lon="-15.582568">
        <ele>1073.70</ele>
        <time>2017-12-09T11:07:01Z</time>
      </trkpt>
      <trkpt lat="27.923450" lon="-15.582565">
        <ele>1073.61</ele>
        <time>2017-12-09T11:07:02Z</time>
      </trkpt>
      <trkpt lat="27.923425" lon="-15.582565">
        <ele>1073.37</ele>
        <time>2017-12-09T11:07:03Z</time>
      </trkpt>
      <trkpt lat="27.923404" lon="-15.582558">
        <ele>1073.15</ele>
        <time>2017-12-09T11:07:04Z</time>
      </trkpt>
      <trkpt lat="27.923383" lon="-15.582552">
        <ele>1072.68</ele>
        <time>2017-12-09T11:07:05Z</time>
      </trkpt>
      <trkpt lat="27.923364" lon="-15.582550">
        <ele>1072.19</ele>
        <time>2017-12-09T11:07:06Z</time>
      </trkpt>
      <trkpt lat="27.923344" lon="-15.582552">
        <ele>1071.61</ele>
        <time>2017-12-09T11:07:07Z</time>
      </trkpt>
      <trkpt lat="27.923324" lon="-15.582552">
        <ele>1071.34</ele>
        <time>2017-12-09T11:07:08Z</time>
      </trkpt>
      <trkpt lat="27.923304" lon="-15.582551">
        <ele>1071.14</ele>
        <time>2017-12-09T11:07:09Z</time>
      </trkpt>
      <trkpt lat="27.923284" lon="-15.582553">
        <ele>1070.78</ele>
        <time>2017-12-09T11:07:10Z</time>
      </trkpt>
      <trkpt lat="27.923246" lon="-15.582566">
        <ele>1070.01</ele>
        <time>2017-12-09T11:07:12Z</time>
      </trkpt>
      <trkpt lat="27.923226" lon="-15.582536">
        <ele>1067.37</ele>
        <time>2017-12-09T11:07:18Z</time>
      </trkpt>
      <trkpt lat="27.923255" lon="-15.582522">
        <ele>1066.20</ele>
        <time>2017-12-09T11:07:21Z</time>
      </trkpt>
      <trkpt lat="27.923245" lon="-15.582475">
        <ele>1064.79</ele>
        <time>2017-12-09T11:07:26Z</time>
      </trkpt>
      <trkpt lat="27.923229" lon="-15.582462">
        <ele>1064.42</ele>
        <time>2017-12-09T11:07:27Z</time>
      </trkpt>
      <trkpt lat="27.923200" lon="-15.582450">
        <ele>1063.39</ele>
        <time>2017-12-09T11:07:29Z</time>
      </trkpt>
      <trkpt lat="27.923184" lon="-15.582427">
        <ele>1062.72</ele>
        <time>2017-12-09T11:07:31Z</time>
      </trkpt>
      <trkpt lat="27.923166" lon="-15.582398">
        <ele>1061.32</ele>
        <time>2017-12-09T11:07:33Z</time>
      </trkpt>
      <trkpt lat="27.923153" lon="-15.582372">
        <ele>1060.88</ele>
        <time>2017-12-09T11:07:35Z</time>
      </trkpt>
      <trkpt lat="27.923185" lon="-15.582371">
        <ele>1058.96</ele>
        <time>2017-12-09T11:07:39Z</time>
      </trkpt>
      <trkpt lat="27.923206" lon="-15.582364">
        <ele>1058.14</ele>
        <time>2017-12-09T11:07:41Z</time>
      </trkpt>
      <trkpt lat="27.923226" lon="-15.582347">
        <ele>1056.70</ele>
        <time>2017-12-09T11:07:44Z</time>
      </trkpt>
      <trkpt lat="27.923227" lon="-15.582316">
        <ele>1055.50</ele>
        <time>2017-12-09T11:07:46Z</time>
      </trkpt>
      <trkpt lat="27.923240" lon="-15.582300">
        <ele>1055.10</ele>
        <time>2017-12-09T11:07:48Z</time>
      </trkpt>
      <trkpt lat="27.923248" lon="-15.582274">
        <ele>1054.62</ele>
        <time>2017-12-09T11:07:50Z</time>
      </trkpt>
      <trkpt lat="27.923244" lon="-15.582244">
        <ele>1053.48</ele>
        <time>2017-12-09T11:07:52Z</time>
      </trkpt>
      <trkpt lat="27.923234" lon="-15.582213">
        <ele>1051.95</ele>
        <time>2017-12-09T11:07:54Z</time>
      </trkpt>
      <trkpt lat="27.923215" lon="-15.582154">
        <ele>1050.03</ele>
        <time>2017-12-09T11:07:57Z</time>
      </trkpt>
      <trkpt lat="27.923205" lon="-15.582133">
        <ele>1049.80</ele>
        <time>2017-12-09T11:07:58Z</time>
      </trkpt>
      <trkpt lat="27.923191" lon="-15.582118">
        <ele>1049.80</ele>
        <time>2017-12-09T11:07:59Z</time>
      </trkpt>
      <trkpt lat="27.923178" lon="-15.582097">
        <ele>1049.97</ele>
        <time>2017-12-09T11:08:00Z</time>
      </trkpt>
      <trkpt lat="27.923171" lon="-15.582077">
        <ele>1050.20</ele>
        <time>2017-12-09T11:08:01Z</time>
      </trkpt>
      <trkpt lat="27.923164" lon="-15.582025">
        <ele>1048.63</ele>
        <time>2017-12-09T11:08:04Z</time>
      </trkpt>
      <trkpt lat="27.923151" lon="-15.581998">
        <ele>1047.56</ele>
        <time>2017-12-09T11:08:06Z</time>
      </trkpt>
      <trkpt lat="27.923134" lon="-15.581971">
        <ele>1046.11</ele>
        <time>2017-12-09T11:08:08Z</time>
      </trkpt>
      <trkpt lat="27.923121" lon="-15.581944">
        <ele>1045.70</ele>
        <time>2017-12-09T11:08:10Z</time>
      </trkpt>
      <trkpt lat="27.923106" lon="-15.581927">
        <ele>1045.53</ele>
        <time>2017-12-09T11:08:11Z</time>
      </trkpt>
      <trkpt lat="27.923080" lon="-15.581924">
        <ele>1045.16</ele>
        <time>2017-12-09T11:08:13Z</time>
      </trkpt>
      <trkpt lat="27.923063" lon="-15.581950">
        <ele>1044.74</ele>
        <time>2017-12-09T11:08:15Z</time>
      </trkpt>
      <trkpt lat="27.923047" lon="-15.581984">
        <ele>1044.35</ele>
        <time>2017-12-09T11:08:17Z</time>
      </trkpt>
      <trkpt lat="27.923031" lon="-15.581998">
        <ele>1043.51</ele>
        <time>2017-12-09T11:08:18Z</time>
      </trkpt>
      <trkpt lat="27.923016" lon="-15.582025">
        <ele>1042.70</ele>
        <time>2017-12-09T11:08:20Z</time>
      </trkpt>
      <trkpt lat="27.922994" lon="-15.582050">
        <ele>1041.99</ele>
        <time>2017-12-09T11:08:22Z</time>
      </trkpt>
      <trkpt lat="27.922976" lon="-15.582077">
        <ele>1041.55</ele>
        <time>2017-12-09T11:08:24Z</time>
      </trkpt>
      <trkpt lat="27.922968" lon="-15.582099">
        <ele>1041.50</ele>
        <time>2017-12-09T11:08:25Z</time>
      </trkpt>
      <trkpt lat="27.922958" lon="-15.582116">
        <ele>1041.23</ele>
        <time>2017-12-09T11:08:26Z</time>
      </trkpt>
      <trkpt lat="27.922942" lon="-15.582131">
        <ele>1040.44</ele>
        <time>2017-12-09T11:08:27Z</time>
      </trkpt>
      <trkpt lat="27.922927" lon="-15.582151">
        <ele>1039.80</ele>
        <time>2017-12-09T11:08:28Z</time>
      </trkpt>
      <trkpt lat="27.922911" lon="-15.582165">
        <ele>1039.63</ele>
        <time>2017-12-09T11:08:29Z</time>
      </trkpt>
      <trkpt lat="27.922891" lon="-15.582179">
        <ele>1039.03</ele>
        <time>2017-12-09T11:08:30Z</time>
      </trkpt>
      <trkpt lat="27.922865" lon="-15.582173">
        <ele>1038.36</ele>
        <time>2017-12-09T11:08:32Z</time>
      </trkpt>
      <trkpt lat="27.922796" lon="-15.582153">
        <ele>1037.39</ele>
        <time>2017-12-09T11:08:36Z</time>
      </trkpt>
      <trkpt lat="27.922755" lon="-15.582166">
        <ele>1036.81</ele>
        <time>2017-12-09T11:08:38Z</time>
      </trkpt>
      <trkpt lat="27.922727" lon="-15.582178">
        <ele>1036.74</ele>
        <time>2017-12-09T11:08:39Z</time>
      </trkpt>
      <trkpt lat="27.922701" lon="-15.582182">
        <ele>1036.28</ele>
        <time>2017-12-09T11:08:40Z</time>
      </trkpt>
      <trkpt lat="27.922672" lon="-15.582156">
        <ele>1035.64</ele>
        <time>2017-12-09T11:08:42Z</time>
      </trkpt>
      <trkpt lat="27.922664" lon="-15.582137">
        <ele>1035.70</ele>
        <time>2017-12-09T11:08:43Z</time>
      </trkpt>
      <trkpt lat="27.922664" lon="-15.582100">
        <ele>1035.20</ele>
        <time>2017-12-09T11:08:45Z</time>
      </trkpt>
      <trkpt lat="27.922654" lon="-15.582075">
        <ele>1035.11</ele>
        <time>2017-12-09T11:08:46Z</time>
      </trkpt>
      <trkpt lat="27.922640" lon="-15.582044">
        <ele>1035.09</ele>
        <time>2017-12-09T11:08:47Z</time>
      </trkpt>
      <trkpt lat="27.922623" lon="-15.582019">
        <ele>1035.11</ele>
        <time>2017-12-09T11:08:48Z</time>
      </trkpt>
      <trkpt lat="27.922606" lon="-15.581997">
        <ele>1034.91</ele>
        <time>2017-12-09T11:08:49Z</time>
      </trkpt>
      <trkpt lat="27.922585" lon="-15.581978">
        <ele>1034.76</ele>
        <time>2017-12-09T11:08:50Z</time>
      </trkpt>
      <trkpt lat="27.922564" lon="-15.581955">
        <ele>1034.04</ele>
        <time>2017-12-09T11:08:52Z</time>
      </trkpt>
      <trkpt lat="27.922543" lon="-15.581921">
        <ele>1033.27</ele>
        <time>2017-12-09T11:08:54Z</time>
      </trkpt>
      <trkpt lat="27.922520" lon="-15.581890">
        <ele>1032.18</ele>
        <time>2017-12-09T11:08:56Z</time>
      </trkpt>
      <trkpt lat="27.922499" lon="-15.581870">
        <ele>1031.38</ele>
        <time>2017-12-09T11:08:58Z</time>
      </trkpt>
      <trkpt lat="27.922466" lon="-15.581857">
        <ele>1030.10</ele>
        <time>2017-12-09T11:09:00Z</time>
      </trkpt>
      <trkpt lat="27.922446" lon="-15.581855">
        <ele>1030.10</ele>
        <time>2017-12-09T11:09:01Z</time>
      </trkpt>
      <trkpt lat="27.922427" lon="-15.581864">
        <ele>1030.10</ele>
        <time>2017-12-09T11:09:02Z</time>
      </trkpt>
      <trkpt lat="27.922408" lon="-15.581871">
        <ele>1030.10</ele>
        <time>2017-12-09T11:09:03Z</time>
      </trkpt>
      <trkpt lat="27.922374" lon="-15.581860">
        <ele>1029.92</ele>
        <time>2017-12-09T11:09:05Z</time>
      </trkpt>
      <trkpt lat="27.922338" lon="-15.581864">
        <ele>1028.79</ele>
        <time>2017-12-09T11:09:07Z</time>
      </trkpt>
      <trkpt lat="27.922321" lon="-15.581870">
        <ele>1028.22</ele>
        <time>2017-12-09T11:09:08Z</time>
      </trkpt>
      <trkpt lat="27.922288" lon="-15.581873">
        <ele>1026.83</ele>
        <time>2017-12-09T11:09:10Z</time>
      </trkpt>
      <trkpt lat="27.922261" lon="-15.581853">
        <ele>1026.50</ele>
        <time>2017-12-09T11:09:12Z</time>
      </trkpt>
      <trkpt lat="27.922241" lon="-15.581839">
        <ele>1026.41</ele>
        <time>2017-12-09T11:09:13Z</time>
      </trkpt>
      <trkpt lat="27.922223" lon="-15.581830">
        <ele>1026.30</ele>
        <time>2017-12-09T11:09:14Z</time>
      </trkpt>
      <trkpt lat="27.922194" lon="-15.581820">
        <ele>1025.60</ele>
        <time>2017-12-09T11:09:16Z</time>
      </trkpt>
      <trkpt lat="27.922164" lon="-15.581817">
        <ele>1025.01</ele>
        <time>2017-12-09T11:09:18Z</time>
      </trkpt>
      <trkpt lat="27.922142" lon="-15.581806">
        <ele>1024.05</ele>
        <time>2017-12-09T11:09:20Z</time>
      </trkpt>
      <trkpt lat="27.922114" lon="-15.581789">
        <ele>1023.25</ele>
        <time>2017-12-09T11:09:22Z</time>
      </trkpt>
      <trkpt lat="27.922090" lon="-15.581771">
        <ele>1022.90</ele>
        <time>2017-12-09T11:09:24Z</time>
      </trkpt>
      <trkpt lat="27.922063" lon="-15.581747">
        <ele>1021.69</ele>
        <time>2017-12-09T11:09:26Z</time>
      </trkpt>
      <trkpt lat="27.922043" lon="-15.581739">
        <ele>1021.55</ele>
        <time>2017-12-09T11:09:27Z</time>
      </trkpt>
      <trkpt lat="27.922012" lon="-15.581724">
        <ele>1021.39</ele>
        <time>2017-12-09T11:09:29Z</time>
      </trkpt>
      <trkpt lat="27.921994" lon="-15.581713">
        <ele>1021.19</ele>
        <time>2017-12-09T11:09:30Z</time>
      </trkpt>
      <trkpt lat="27.921975" lon="-15.581702">
        <ele>1020.99</ele>
        <time>2017-12-09T11:09:31Z</time>
      </trkpt>
      <trkpt lat="27.921942" lon="-15.581681">
        <ele>1019.62</ele>
        <time>2017-12-09T11:09:33Z</time>
      </trkpt>
      <trkpt lat="27.921920" lon="-15.581676">
        <ele>1018.73</ele>
        <time>2017-12-09T11:09:34Z</time>
      </trkpt>
      <trkpt lat="27.921895" lon="-15.581677">
        <ele>1018.14</ele>
        <time>2017-12-09T11:09:35Z</time>
      </trkpt>
      <trkpt lat="27.921871" lon="-15.581670">
        <ele>1017.99</ele>
        <time>2017-12-09T11:09:36Z</time>
      </trkpt>
      <trkpt lat="27.921852" lon="-15.581659">
        <ele>1017.90</ele>
        <time>2017-12-09T11:09:37Z</time>
      </trkpt>
      <trkpt lat="27.921834" lon="-15.581649">
        <ele>1017.90</ele>
        <time>2017-12-09T11:09:38Z</time>
      </trkpt>
      <trkpt lat="27.921810" lon="-15.581641">
        <ele>1017.78</ele>
        <time>2017-12-09T11:09:39Z</time>
      </trkpt>
      <trkpt lat="27.921773" lon="-15.581632">
        <ele>1017.20</ele>
        <time>2017-12-09T11:09:41Z</time>
      </trkpt>
      <trkpt lat="27.921743" lon="-15.581631">
        <ele>1017.00</ele>
        <time>2017-12-09T11:09:43Z</time>
      </trkpt>
      <trkpt lat="27.921719" lon="-15.581617">
        <ele>1016.60</ele>
        <time>2017-12-09T11:09:45Z</time>
      </trkpt>
      <trkpt lat="27.921699" lon="-15.581605">
        <ele>1015.86</ele>
        <time>2017-12-09T11:09:46Z</time>
      </trkpt>
      <trkpt lat="27.921682" lon="-15.581591">
        <ele>1015.50</ele>
        <time>2017-12-09T11:09:47Z</time>
      </trkpt>
      <trkpt lat="27.921666" lon="-15.581577">
        <ele>1015.26</ele>
        <time>2017-12-09T11:09:48Z</time>
      </trkpt>
      <trkpt lat="27.921627" lon="-15.581576">
        <ele>1015.00</ele>
        <time>2017-12-09T11:09:50Z</time>
      </trkpt>
      <trkpt lat="27.921606" lon="-15.581583">
        <ele>1014.50</ele>
        <time>2017-12-09T11:09:51Z</time>
      </trkpt>
      <trkpt lat="27.921588" lon="-15.581588">
        <ele>1014.14</ele>
        <time>2017-12-09T11:09:52Z</time>
      </trkpt>
      <trkpt lat="27.921558" lon="-15.581582">
        <ele>1013.71</ele>
        <time>2017-12-09T11:09:54Z</time>
      </trkpt>
      <trkpt lat="27.921550" lon="-15.581559">
        <ele>1012.80</ele>
        <time>2017-12-09T11:09:56Z</time>
      </trkpt>
      <trkpt lat="27.921595" lon="-15.581528">
        <ele>1009.73</ele>
        <time>2017-12-09T11:10:02Z</time>
      </trkpt>
      <trkpt lat="27.921676" lon="-15.581485">
        <ele>1006.99</ele>
        <time>2017-12-09T11:10:08Z</time>
      </trkpt>
      <trkpt lat="27.921702" lon="-15.581450">
        <ele>1005.79</ele>
        <time>2017-12-09T11:10:10Z</time>
      </trkpt>
      <trkpt lat="27.921716" lon="-15.581433">
        <ele>1005.49</ele>
        <time>2017-12-09T11:10:11Z</time>
      </trkpt>
      <trkpt lat="27.921744" lon="-15.581413">
        <ele>1005.40</ele>
        <time>2017-12-09T11:10:13Z</time>
      </trkpt>
      <trkpt lat="27.921761" lon="-15.581400">
        <ele>1005.40</ele>
        <time>2017-12-09T11:10:14Z</time>
      </trkpt>
      <trkpt lat="27.921790" lon="-15.581376">
        <ele>1004.51</ele>
        <time>2017-12-09T11:10:16Z</time>
      </trkpt>
      <trkpt lat="27.921803" lon="-15.581360">
        <ele>1004.47</ele>
        <time>2017-12-09T11:10:17Z</time>
      </trkpt>
      <trkpt lat="27.921817" lon="-15.581337">
        <ele>1004.29</ele>
        <time>2017-12-09T11:10:18Z</time>
      </trkpt>
      <trkpt lat="27.921828" lon="-15.581312">
        <ele>1004.20</ele>
        <time>2017-12-09T11:10:19Z</time>
      </trkpt>
      <trkpt lat="27.921855" lon="-15.581296">
        <ele>1004.30</ele>
        <time>2017-12-09T11:10:21Z</time>
      </trkpt>
      <trkpt lat="27.921872" lon="-15.581274">
        <ele>1003.80</ele>
        <time>2017-12-09T11:10:23Z</time>
      </trkpt>
      <trkpt lat="27.921889" lon="-15.581263">
        <ele>1002.89</ele>
        <time>2017-12-09T11:10:24Z</time>
      </trkpt>
      <trkpt lat="27.921916" lon="-15.581239">
        <ele>1002.20</ele>
        <time>2017-12-09T11:10:26Z</time>
      </trkpt>
      <trkpt lat="27.921932" lon="-15.581213">
        <ele>1002.13</ele>
        <time>2017-12-09T11:10:28Z</time>
      </trkpt>
      <trkpt lat="27.921946" lon="-15.581177">
        <ele>1001.05</ele>
        <time>2017-12-09T11:10:30Z</time>
      </trkpt>
      <trkpt lat="27.922020" lon="-15.581120">
        <ele>999.40</ele>
        <time>2017-12-09T11:10:35Z</time>
      </trkpt>
      <trkpt lat="27.922088" lon="-15.581056">
        <ele>998.53</ele>
        <time>2017-12-09T11:10:39Z</time>
      </trkpt>
      <trkpt lat="27.922100" lon="-15.581036">
        <ele>998.13</ele>
        <time>2017-12-09T11:10:40Z</time>
      </trkpt>
      <trkpt lat="27.922114" lon="-15.581010">
        <ele>997.71</ele>
        <time>2017-12-09T11:10:41Z</time>
      </trkpt>
      <trkpt lat="27.922123" lon="-15.580991">
        <ele>997.60</ele>
        <time>2017-12-09T11:10:42Z</time>
      </trkpt>
      <trkpt lat="27.922168" lon="-15.580962">
        <ele>996.90</ele>
        <time>2017-12-09T11:10:45Z</time>
      </trkpt>
      <trkpt lat="27.922196" lon="-15.580943">
        <ele>996.07</ele>
        <time>2017-12-09T11:10:47Z</time>
      </trkpt>
      <trkpt lat="27.922225" lon="-15.580934">
        <ele>994.36</ele>
        <time>2017-12-09T11:10:49Z</time>
      </trkpt>
      <trkpt lat="27.922242" lon="-15.580914">
        <ele>994.20</ele>
        <time>2017-12-09T11:10:50Z</time>
      </trkpt>
      <trkpt lat="27.922253" lon="-15.580893">
        <ele>994.13</ele>
        <time>2017-12-09T11:10:51Z</time>
      </trkpt>
      <trkpt lat="27.922260" lon="-15.580871">
        <ele>994.03</ele>
        <time>2017-12-09T11:10:52Z</time>
      </trkpt>
      <trkpt lat="27.922269" lon="-15.580846">
        <ele>994.15</ele>
        <time>2017-12-09T11:10:53Z</time>
      </trkpt>
      <trkpt lat="27.922283" lon="-15.580826">
        <ele>994.05</ele>
        <time>2017-12-09T11:10:54Z</time>
      </trkpt>
      <trkpt lat="27.922320" lon="-15.580793">
        <ele>994.00</ele>
        <time>2017-12-09T11:10:57Z</time>
      </trkpt>
      <trkpt lat="27.922336" lon="-15.580774">
        <ele>994.00</ele>
        <time>2017-12-09T11:10:58Z</time>
      </trkpt>
      <trkpt lat="27.922353" lon="-15.580755">
        <ele>993.48</ele>
        <time>2017-12-09T11:10:59Z</time>
      </trkpt>
      <trkpt lat="27.922375" lon="-15.580743">
        <ele>993.30</ele>
        <time>2017-12-09T11:11:00Z</time>
      </trkpt>
      <trkpt lat="27.922397" lon="-15.580729">
        <ele>992.63</ele>
        <time>2017-12-09T11:11:01Z</time>
      </trkpt>
      <trkpt lat="27.922414" lon="-15.580713">
        <ele>992.40</ele>
        <time>2017-12-09T11:11:02Z</time>
      </trkpt>
      <trkpt lat="27.922441" lon="-15.580684">
        <ele>992.30</ele>
        <time>2017-12-09T11:11:04Z</time>
      </trkpt>
      <trkpt lat="27.922454" lon="-15.580669">
        <ele>992.30</ele>
        <time>2017-12-09T11:11:05Z</time>
      </trkpt>
      <trkpt lat="27.922468" lon="-15.580647">
        <ele>991.93</ele>
        <time>2017-12-09T11:11:06Z</time>
      </trkpt>
      <trkpt lat="27.922478" lon="-15.580624">
        <ele>991.80</ele>
        <time>2017-12-09T11:11:07Z</time>
      </trkpt>
      <trkpt lat="27.922479" lon="-15.580600">
        <ele>991.50</ele>
        <time>2017-12-09T11:11:08Z</time>
      </trkpt>
      <trkpt lat="27.922472" lon="-15.580571">
        <ele>991.10</ele>
        <time>2017-12-09T11:11:09Z</time>
      </trkpt>
      <trkpt lat="27.922465" lon="-15.580544">
        <ele>990.70</ele>
        <time>2017-12-09T11:11:10Z</time>
      </trkpt>
      <trkpt lat="27.922456" lon="-15.580519">
        <ele>990.22</ele>
        <time>2017-12-09T11:11:11Z</time>
      </trkpt>
      <trkpt lat="27.922444" lon="-15.580497">
        <ele>989.95</ele>
        <time>2017-12-09T11:11:12Z</time>
      </trkpt>
      <trkpt lat="27.922430" lon="-15.580475">
        <ele>989.90</ele>
        <time>2017-12-09T11:11:13Z</time>
      </trkpt>
      <trkpt lat="27.922419" lon="-15.580457">
        <ele>989.82</ele>
        <time>2017-12-09T11:11:14Z</time>
      </trkpt>
      <trkpt lat="27.922405" lon="-15.580441">
        <ele>989.72</ele>
        <time>2017-12-09T11:11:15Z</time>
      </trkpt>
      <trkpt lat="27.922391" lon="-15.580427">
        <ele>989.39</ele>
        <time>2017-12-09T11:11:16Z</time>
      </trkpt>
      <trkpt lat="27.922365" lon="-15.580402">
        <ele>987.64</ele>
        <time>2017-12-09T11:11:18Z</time>
      </trkpt>
      <trkpt lat="27.922344" lon="-15.580389">
        <ele>986.97</ele>
        <time>2017-12-09T11:11:19Z</time>
      </trkpt>
      <trkpt lat="27.922329" lon="-15.580374">
        <ele>986.64</ele>
        <time>2017-12-09T11:11:20Z</time>
      </trkpt>
      <trkpt lat="27.922310" lon="-15.580340">
        <ele>986.52</ele>
        <time>2017-12-09T11:11:22Z</time>
      </trkpt>
      <trkpt lat="27.922293" lon="-15.580328">
        <ele>986.50</ele>
        <time>2017-12-09T11:11:23Z</time>
      </trkpt>
      <trkpt lat="27.922263" lon="-15.580314">
        <ele>986.18</ele>
        <time>2017-12-09T11:11:25Z</time>
      </trkpt>
      <trkpt lat="27.922249" lon="-15.580299">
        <ele>986.02</ele>
        <time>2017-12-09T11:11:26Z</time>
      </trkpt>
      <trkpt lat="27.922239" lon="-15.580282">
        <ele>985.67</ele>
        <time>2017-12-09T11:11:27Z</time>
      </trkpt>
      <trkpt lat="27.922232" lon="-15.580262">
        <ele>984.61</ele>
        <time>2017-12-09T11:11:28Z</time>
      </trkpt>
      <trkpt lat="27.922217" lon="-15.580236">
        <ele>983.74</ele>
        <time>2017-12-09T11:11:29Z</time>
      </trkpt>
      <trkpt lat="27.922207" lon="-15.580214">
        <ele>983.35</ele>
        <time>2017-12-09T11:11:30Z</time>
      </trkpt>
      <trkpt lat="27.922200" lon="-15.580185">
        <ele>983.33</ele>
        <time>2017-12-09T11:11:32Z</time>
      </trkpt>
      <trkpt lat="27.922205" lon="-15.580152">
        <ele>982.63</ele>
        <time>2017-12-09T11:11:34Z</time>
      </trkpt>
      <trkpt lat="27.922206" lon="-15.580113">
        <ele>981.01</ele>
        <time>2017-12-09T11:11:36Z</time>
      </trkpt>
      <trkpt lat="27.922201" lon="-15.580074">
        <ele>981.00</ele>
        <time>2017-12-09T11:11:38Z</time>
      </trkpt>
      <trkpt lat="27.922192" lon="-15.580038">
        <ele>980.05</ele>
        <time>2017-12-09T11:11:40Z</time>
      </trkpt>
      <trkpt lat="27.922182" lon="-15.580016">
        <ele>979.90</ele>
        <time>2017-12-09T11:11:41Z</time>
      </trkpt>
      <trkpt lat="27.922175" lon="-15.579996">
        <ele>979.81</ele>
        <time>2017-12-09T11:11:42Z</time>
      </trkpt>
      <trkpt lat="27.922164" lon="-15.579953">
        <ele>979.71</ele>
        <time>2017-12-09T11:11:44Z</time>
      </trkpt>
      <trkpt lat="27.922160" lon="-15.579933">
        <ele>979.53</ele>
        <time>2017-12-09T11:11:45Z</time>
      </trkpt>
      <trkpt lat="27.922153" lon="-15.579911">
        <ele>979.15</ele>
        <time>2017-12-09T11:11:46Z</time>
      </trkpt>
      <trkpt lat="27.922108" lon="-15.579800">
        <ele>975.85</ele>
        <time>2017-12-09T11:11:52Z</time>
      </trkpt>
      <trkpt lat="27.922085" lon="-15.579680">
        <ele>974.07</ele>
        <time>2017-12-09T11:11:57Z</time>
      </trkpt>
      <trkpt lat="27.922070" lon="-15.579625">
        <ele>973.65</ele>
        <time>2017-12-09T11:11:59Z</time>
      </trkpt>
      <trkpt lat="27.922064" lon="-15.579599">
        <ele>973.69</ele>
        <time>2017-12-09T11:12:00Z</time>
      </trkpt>
      <trkpt lat="27.922061" lon="-15.579572">
        <ele>973.61</ele>
        <time>2017-12-09T11:12:01Z</time>
      </trkpt>
      <trkpt lat="27.922055" lon="-15.579543">
        <ele>973.51</ele>
        <time>2017-12-09T11:12:02Z</time>
      </trkpt>
      <trkpt lat="27.922052" lon="-15.579519">
        <ele>973.59</ele>
        <time>2017-12-09T11:12:03Z</time>
      </trkpt>
      <trkpt lat="27.922049" lon="-15.579488">
        <ele>972.27</ele>
        <time>2017-12-09T11:12:04Z</time>
      </trkpt>
      <trkpt lat="27.922048" lon="-15.579461">
        <ele>972.10</ele>
        <time>2017-12-09T11:12:05Z</time>
      </trkpt>
      <trkpt lat="27.922046" lon="-15.579430">
        <ele>972.01</ele>
        <time>2017-12-09T11:12:06Z</time>
      </trkpt>
      <trkpt lat="27.922041" lon="-15.579399">
        <ele>971.73</ele>
        <time>2017-12-09T11:12:07Z</time>
      </trkpt>
      <trkpt lat="27.922031" lon="-15.579372">
        <ele>972.06</ele>
        <time>2017-12-09T11:12:08Z</time>
      </trkpt>
      <trkpt lat="27.922021" lon="-15.579348">
        <ele>971.20</ele>
        <time>2017-12-09T11:12:09Z</time>
      </trkpt>
      <trkpt lat="27.922011" lon="-15.579322">
        <ele>971.19</ele>
        <time>2017-12-09T11:12:10Z</time>
      </trkpt>
      <trkpt lat="27.921997" lon="-15.579296">
        <ele>970.75</ele>
        <time>2017-12-09T11:12:11Z</time>
      </trkpt>
      <trkpt lat="27.921986" lon="-15.579267">
        <ele>970.52</ele>
        <time>2017-12-09T11:12:12Z</time>
      </trkpt>
      <trkpt lat="27.921977" lon="-15.579239">
        <ele>970.50</ele>
        <time>2017-12-09T11:12:13Z</time>
      </trkpt>
      <trkpt lat="27.921969" lon="-15.579214">
        <ele>969.60</ele>
        <time>2017-12-09T11:12:14Z</time>
      </trkpt>
      <trkpt lat="27.921959" lon="-15.579192">
        <ele>969.50</ele>
        <time>2017-12-09T11:12:15Z</time>
      </trkpt>
      <trkpt lat="27.921947" lon="-15.579164">
        <ele>968.87</ele>
        <time>2017-12-09T11:12:16Z</time>
      </trkpt>
      <trkpt lat="27.921938" lon="-15.579141">
        <ele>968.80</ele>
        <time>2017-12-09T11:12:17Z</time>
      </trkpt>
      <trkpt lat="27.921923" lon="-15.579116">
        <ele>968.80</ele>
        <time>2017-12-09T11:12:18Z</time>
      </trkpt>
      <trkpt lat="27.921912" lon="-15.579091">
        <ele>968.80</ele>
        <time>2017-12-09T11:12:19Z</time>
      </trkpt>
      <trkpt lat="27.921867" lon="-15.578981">
        <ele>969.20</ele>
        <time>2017-12-09T11:12:25Z</time>
      </trkpt>
      <trkpt lat="27.921846" lon="-15.578922">
        <ele>968.20</ele>
        <time>2017-12-09T11:12:28Z</time>
      </trkpt>
      <trkpt lat="27.921827" lon="-15.578910">
        <ele>967.92</ele>
        <time>2017-12-09T11:12:29Z</time>
      </trkpt>
      <trkpt lat="27.921806" lon="-15.578895">
        <ele>967.71</ele>
        <time>2017-12-09T11:12:31Z</time>
      </trkpt>
      <trkpt lat="27.921798" lon="-15.578866">
        <ele>967.40</ele>
        <time>2017-12-09T11:12:34Z</time>
      </trkpt>
      <trkpt lat="27.921799" lon="-15.578844">
        <ele>967.22</ele>
        <time>2017-12-09T11:12:36Z</time>
      </trkpt>
      <trkpt lat="27.921798" lon="-15.578822">
        <ele>967.11</ele>
        <time>2017-12-09T11:12:38Z</time>
      </trkpt>
      <trkpt lat="27.921794" lon="-15.578795">
        <ele>966.35</ele>
        <time>2017-12-09T11:12:40Z</time>
      </trkpt>
      <trkpt lat="27.921787" lon="-15.578766">
        <ele>965.91</ele>
        <time>2017-12-09T11:12:42Z</time>
      </trkpt>
      <trkpt lat="27.921757" lon="-15.578682">
        <ele>965.70</ele>
        <time>2017-12-09T11:12:46Z</time>
      </trkpt>
      <trkpt lat="27.921737" lon="-15.578659">
        <ele>965.89</ele>
        <time>2017-12-09T11:12:48Z</time>
      </trkpt>
      <trkpt lat="27.921731" lon="-15.578628">
        <ele>965.70</ele>
        <time>2017-12-09T11:12:50Z</time>
      </trkpt>
      <trkpt lat="27.921724" lon="-15.578603">
        <ele>965.60</ele>
        <time>2017-12-09T11:12:52Z</time>
      </trkpt>
      <trkpt lat="27.921722" lon="-15.578576">
        <ele>965.60</ele>
        <time>2017-12-09T11:12:54Z</time>
      </trkpt>
      <trkpt lat="27.921707" lon="-15.578530">
        <ele>965.61</ele>
        <time>2017-12-09T11:12:57Z</time>
      </trkpt>
      <trkpt lat="27.921701" lon="-15.578505">
        <ele>965.59</ele>
        <time>2017-12-09T11:12:59Z</time>
      </trkpt>
      <trkpt lat="27.921694" lon="-15.578456">
        <ele>965.70</ele>
        <time>2017-12-09T11:13:02Z</time>
      </trkpt>
      <trkpt lat="27.921678" lon="-15.578398">
        <ele>965.70</ele>
        <time>2017-12-09T11:13:05Z</time>
      </trkpt>
      <trkpt lat="27.921671" lon="-15.578359">
        <ele>965.70</ele>
        <time>2017-12-09T11:13:07Z</time>
      </trkpt>
      <trkpt lat="27.921662" lon="-15.578337">
        <ele>965.73</ele>
        <time>2017-12-09T11:13:09Z</time>
      </trkpt>
      <trkpt lat="27.921654" lon="-15.578317">
        <ele>965.92</ele>
        <time>2017-12-09T11:13:11Z</time>
      </trkpt>
      <trkpt lat="27.921651" lon="-15.578286">
        <ele>966.50</ele>
        <time>2017-12-09T11:13:13Z</time>
      </trkpt>
      <trkpt lat="27.921639" lon="-15.578250">
        <ele>966.50</ele>
        <time>2017-12-09T11:13:15Z</time>
      </trkpt>
      <trkpt lat="27.921630" lon="-15.578215">
        <ele>966.48</ele>
        <time>2017-12-09T11:13:17Z</time>
      </trkpt>
      <trkpt lat="27.921622" lon="-15.578178">
        <ele>966.40</ele>
        <time>2017-12-09T11:13:19Z</time>
      </trkpt>
      <trkpt lat="27.921624" lon="-15.578147">
        <ele>966.40</ele>
        <time>2017-12-09T11:13:21Z</time>
      </trkpt>
      <trkpt lat="27.921633" lon="-15.578120">
        <ele>966.27</ele>
        <time>2017-12-09T11:13:23Z</time>
      </trkpt>
      <trkpt lat="27.921633" lon="-15.578089">
        <ele>966.07</ele>
        <time>2017-12-09T11:13:25Z</time>
      </trkpt>
      <trkpt lat="27.921634" lon="-15.578056">
        <ele>965.90</ele>
        <time>2017-12-09T11:13:27Z</time>
      </trkpt>
      <trkpt lat="27.921625" lon="-15.577992">
        <ele>966.10</ele>
        <time>2017-12-09T11:13:31Z</time>
      </trkpt>
      <trkpt lat="27.921633" lon="-15.577964">
        <ele>966.20</ele>
        <time>2017-12-09T11:13:33Z</time>
      </trkpt>
      <trkpt lat="27.921631" lon="-15.577935">
        <ele>966.14</ele>
        <time>2017-12-09T11:13:35Z</time>
      </trkpt>
      <trkpt lat="27.921634" lon="-15.577914">
        <ele>966.16</ele>
        <time>2017-12-09T11:13:37Z</time>
      </trkpt>
      <trkpt lat="27.921636" lon="-15.577892">
        <ele>966.44</ele>
        <time>2017-12-09T11:13:39Z</time>
      </trkpt>
      <trkpt lat="27.921639" lon="-15.577858">
        <ele>966.60</ele>
        <time>2017-12-09T11:13:41Z</time>
      </trkpt>
      <trkpt lat="27.921637" lon="-15.577827">
        <ele>966.60</ele>
        <time>2017-12-09T11:13:43Z</time>
      </trkpt>
      <trkpt lat="27.921633" lon="-15.577800">
        <ele>966.51</ele>
        <time>2017-12-09T11:13:45Z</time>
      </trkpt>
      <trkpt lat="27.921639" lon="-15.577767">
        <ele>966.20</ele>
        <time>2017-12-09T11:13:47Z</time>
      </trkpt>
      <trkpt lat="27.921649" lon="-15.577734">
        <ele>966.10</ele>
        <time>2017-12-09T11:13:49Z</time>
      </trkpt>
      <trkpt lat="27.921660" lon="-15.577703">
        <ele>966.10</ele>
        <time>2017-12-09T11:13:51Z</time>
      </trkpt>
      <trkpt lat="27.921691" lon="-15.577600">
        <ele>966.48</ele>
        <time>2017-12-09T11:13:58Z</time>
      </trkpt>
      <trkpt lat="27.921692" lon="-15.577573">
        <ele>966.34</ele>
        <time>2017-12-09T11:14:00Z</time>
      </trkpt>
      <trkpt lat="27.921762" lon="-15.577496">
        <ele>966.30</ele>
        <time>2017-12-09T11:14:09Z</time>
      </trkpt>
      <trkpt lat="27.921809" lon="-15.577462">
        <ele>966.30</ele>
        <time>2017-12-09T11:14:13Z</time>
      </trkpt>
      <trkpt lat="27.921829" lon="-15.577438">
        <ele>966.40</ele>
        <time>2017-12-09T11:14:15Z</time>
      </trkpt>
      <trkpt lat="27.921856" lon="-15.577423">
        <ele>966.40</ele>
        <time>2017-12-09T11:14:17Z</time>
      </trkpt>
      <trkpt lat="27.921876" lon="-15.577405">
        <ele>966.40</ele>
        <time>2017-12-09T11:14:19Z</time>
      </trkpt>
      <trkpt lat="27.921896" lon="-15.577398">
        <ele>966.44</ele>
        <time>2017-12-09T11:14:21Z</time>
      </trkpt>
      <trkpt lat="27.921977" lon="-15.577328">
        <ele>966.70</ele>
        <time>2017-12-09T11:14:28Z</time>
      </trkpt>
      <trkpt lat="27.921991" lon="-15.577312">
        <ele>966.70</ele>
        <time>2017-12-09T11:14:29Z</time>
      </trkpt>
      <trkpt lat="27.922011" lon="-15.577294">
        <ele>966.79</ele>
        <time>2017-12-09T11:14:31Z</time>
      </trkpt>
      <trkpt lat="27.922040" lon="-15.577279">
        <ele>966.90</ele>
        <time>2017-12-09T11:14:33Z</time>
      </trkpt>
      <trkpt lat="27.922056" lon="-15.577266">
        <ele>966.81</ele>
        <time>2017-12-09T11:14:34Z</time>
      </trkpt>
      <trkpt lat="27.922077" lon="-15.577248">
        <ele>967.07</ele>
        <time>2017-12-09T11:14:35Z</time>
      </trkpt>
      <trkpt lat="27.922097" lon="-15.577226">
        <ele>967.28</ele>
        <time>2017-12-09T11:14:36Z</time>
      </trkpt>
      <trkpt lat="27.922114" lon="-15.577203">
        <ele>967.30</ele>
        <time>2017-12-09T11:14:37Z</time>
      </trkpt>
      <trkpt lat="27.922132" lon="-15.577179">
        <ele>967.30</ele>
        <time>2017-12-09T11:14:38Z</time>
      </trkpt>
      <trkpt lat="27.922148" lon="-15.577157">
        <ele>967.30</ele>
        <time>2017-12-09T11:14:39Z</time>
      </trkpt>
      <trkpt lat="27.922163" lon="-15.577132">
        <ele>967.58</ele>
        <time>2017-12-09T11:14:40Z</time>
      </trkpt>
      <trkpt lat="27.922197" lon="-15.577020">
        <ele>967.60</ele>
        <time>2017-12-09T11:14:44Z</time>
      </trkpt>
      <trkpt lat="27.922200" lon="-15.576997">
        <ele>967.20</ele>
        <time>2017-12-09T11:14:45Z</time>
      </trkpt>
      <trkpt lat="27.922202" lon="-15.576974">
        <ele>967.20</ele>
        <time>2017-12-09T11:14:46Z</time>
      </trkpt>
      <trkpt lat="27.922206" lon="-15.576947">
        <ele>967.20</ele>
        <time>2017-12-09T11:14:47Z</time>
      </trkpt>
      <trkpt lat="27.922238" lon="-15.576840">
        <ele>967.20</ele>
        <time>2017-12-09T11:14:51Z</time>
      </trkpt>
      <trkpt lat="27.922274" lon="-15.576765">
        <ele>966.38</ele>
        <time>2017-12-09T11:14:54Z</time>
      </trkpt>
      <trkpt lat="27.922336" lon="-15.576668">
        <ele>964.99</ele>
        <time>2017-12-09T11:14:59Z</time>
      </trkpt>
      <trkpt lat="27.922346" lon="-15.576644">
        <ele>964.80</ele>
        <time>2017-12-09T11:15:00Z</time>
      </trkpt>
      <trkpt lat="27.922359" lon="-15.576625">
        <ele>964.87</ele>
        <time>2017-12-09T11:15:01Z</time>
      </trkpt>
      <trkpt lat="27.922372" lon="-15.576603">
        <ele>965.74</ele>
        <time>2017-12-09T11:15:02Z</time>
      </trkpt>
      <trkpt lat="27.922384" lon="-15.576586">
        <ele>966.14</ele>
        <time>2017-12-09T11:15:03Z</time>
      </trkpt>
      <trkpt lat="27.922395" lon="-15.576565">
        <ele>965.50</ele>
        <time>2017-12-09T11:15:04Z</time>
      </trkpt>
      <trkpt lat="27.922406" lon="-15.576545">
        <ele>965.49</ele>
        <time>2017-12-09T11:15:05Z</time>
      </trkpt>
      <trkpt lat="27.922419" lon="-15.576529">
        <ele>965.39</ele>
        <time>2017-12-09T11:15:06Z</time>
      </trkpt>
      <trkpt lat="27.922438" lon="-15.576495">
        <ele>965.30</ele>
        <time>2017-12-09T11:15:08Z</time>
      </trkpt>
      <trkpt lat="27.922450" lon="-15.576476">
        <ele>965.30</ele>
        <time>2017-12-09T11:15:09Z</time>
      </trkpt>
      <trkpt lat="27.922466" lon="-15.576447">
        <ele>965.67</ele>
        <time>2017-12-09T11:15:11Z</time>
      </trkpt>
      <trkpt lat="27.922481" lon="-15.576433">
        <ele>966.10</ele>
        <time>2017-12-09T11:15:13Z</time>
      </trkpt>
      <trkpt lat="27.922504" lon="-15.576419">
        <ele>965.60</ele>
        <time>2017-12-09T11:15:15Z</time>
      </trkpt>
      <trkpt lat="27.922520" lon="-15.576401">
        <ele>965.27</ele>
        <time>2017-12-09T11:15:17Z</time>
      </trkpt>
      <trkpt lat="27.922531" lon="-15.576381">
        <ele>964.95</ele>
        <time>2017-12-09T11:15:19Z</time>
      </trkpt>
      <trkpt lat="27.922541" lon="-15.576358">
        <ele>964.70</ele>
        <time>2017-12-09T11:15:21Z</time>
      </trkpt>
      <trkpt lat="27.922555" lon="-15.576336">
        <ele>964.78</ele>
        <time>2017-12-09T11:15:23Z</time>
      </trkpt>
      <trkpt lat="27.922570" lon="-15.576311">
        <ele>964.80</ele>
        <time>2017-12-09T11:15:25Z</time>
      </trkpt>
      <trkpt lat="27.922585" lon="-15.576288">
        <ele>964.74</ele>
        <time>2017-12-09T11:15:27Z</time>
      </trkpt>
      <trkpt lat="27.922601" lon="-15.576272">
        <ele>965.04</ele>
        <time>2017-12-09T11:15:29Z</time>
      </trkpt>
      <trkpt lat="27.922620" lon="-15.576251">
        <ele>965.12</ele>
        <time>2017-12-09T11:15:31Z</time>
      </trkpt>
      <trkpt lat="27.922635" lon="-15.576233">
        <ele>965.12</ele>
        <time>2017-12-09T11:15:33Z</time>
      </trkpt>
      <trkpt lat="27.922650" lon="-15.576216">
        <ele>965.38</ele>
        <time>2017-12-09T11:15:35Z</time>
      </trkpt>
      <trkpt lat="27.922670" lon="-15.576196">
        <ele>965.70</ele>
        <time>2017-12-09T11:15:37Z</time>
      </trkpt>
      <trkpt lat="27.922682" lon="-15.576180">
        <ele>965.75</ele>
        <time>2017-12-09T11:15:38Z</time>
      </trkpt>
      <trkpt lat="27.922698" lon="-15.576157">
        <ele>965.97</ele>
        <time>2017-12-09T11:15:40Z</time>
      </trkpt>
      <trkpt lat="27.922728" lon="-15.576121">
        <ele>965.77</ele>
        <time>2017-12-09T11:15:43Z</time>
      </trkpt>
      <trkpt lat="27.922748" lon="-15.576102">
        <ele>965.47</ele>
        <time>2017-12-09T11:15:45Z</time>
      </trkpt>
      <trkpt lat="27.922775" lon="-15.576070">
        <ele>965.37</ele>
        <time>2017-12-09T11:15:47Z</time>
      </trkpt>
      <trkpt lat="27.922790" lon="-15.576057">
        <ele>965.30</ele>
        <time>2017-12-09T11:15:48Z</time>
      </trkpt>
      <trkpt lat="27.922814" lon="-15.576046">
        <ele>965.33</ele>
        <time>2017-12-09T11:15:50Z</time>
      </trkpt>
      <trkpt lat="27.922838" lon="-15.576034">
        <ele>965.73</ele>
        <time>2017-12-09T11:15:52Z</time>
      </trkpt>
      <trkpt lat="27.922862" lon="-15.576022">
        <ele>965.70</ele>
        <time>2017-12-09T11:15:54Z</time>
      </trkpt>
      <trkpt lat="27.922887" lon="-15.576021">
        <ele>965.43</ele>
        <time>2017-12-09T11:15:56Z</time>
      </trkpt>
      <trkpt lat="27.922909" lon="-15.576029">
        <ele>965.27</ele>
        <time>2017-12-09T11:15:58Z</time>
      </trkpt>
      <trkpt lat="27.922930" lon="-15.576036">
        <ele>965.16</ele>
        <time>2017-12-09T11:16:00Z</time>
      </trkpt>
      <trkpt lat="27.922955" lon="-15.576059">
        <ele>964.76</ele>
        <time>2017-12-09T11:16:03Z</time>
      </trkpt>
      <trkpt lat="27.922971" lon="-15.576073">
        <ele>964.63</ele>
        <time>2017-12-09T11:16:04Z</time>
      </trkpt>
      <trkpt lat="27.922985" lon="-15.576089">
        <ele>964.46</ele>
        <time>2017-12-09T11:16:05Z</time>
      </trkpt>
      <trkpt lat="27.923067" lon="-15.576139">
        <ele>963.40</ele>
        <time>2017-12-09T11:16:12Z</time>
      </trkpt>
      <trkpt lat="27.923155" lon="-15.576183">
        <ele>963.69</ele>
        <time>2017-12-09T11:16:16Z</time>
      </trkpt>
      <trkpt lat="27.923242" lon="-15.576259">
        <ele>963.65</ele>
        <time>2017-12-09T11:16:20Z</time>
      </trkpt>
      <trkpt lat="27.923334" lon="-15.576311">
        <ele>962.36</ele>
        <time>2017-12-09T11:16:24Z</time>
      </trkpt>
      <trkpt lat="27.923445" lon="-15.576334">
        <ele>960.45</ele>
        <time>2017-12-09T11:16:28Z</time>
      </trkpt>
      <trkpt lat="27.923561" lon="-15.576320">
        <ele>958.89</ele>
        <time>2017-12-09T11:16:32Z</time>
      </trkpt>
      <trkpt lat="27.923667" lon="-15.576326">
        <ele>957.80</ele>
        <time>2017-12-09T11:16:36Z</time>
      </trkpt>
      <trkpt lat="27.923721" lon="-15.576319">
        <ele>956.93</ele>
        <time>2017-12-09T11:16:38Z</time>
      </trkpt>
      <trkpt lat="27.923744" lon="-15.576321">
        <ele>956.28</ele>
        <time>2017-12-09T11:16:39Z</time>
      </trkpt>
      <trkpt lat="27.923772" lon="-15.576315">
        <ele>955.78</ele>
        <time>2017-12-09T11:16:40Z</time>
      </trkpt>
      <trkpt lat="27.923797" lon="-15.576307">
        <ele>955.21</ele>
        <time>2017-12-09T11:16:41Z</time>
      </trkpt>
      <trkpt lat="27.923822" lon="-15.576293">
        <ele>954.45</ele>
        <time>2017-12-09T11:16:42Z</time>
      </trkpt>
      <trkpt lat="27.923851" lon="-15.576277">
        <ele>954.10</ele>
        <time>2017-12-09T11:16:43Z</time>
      </trkpt>
      <trkpt lat="27.923878" lon="-15.576271">
        <ele>953.92</ele>
        <time>2017-12-09T11:16:44Z</time>
      </trkpt>
      <trkpt lat="27.923903" lon="-15.576263">
        <ele>953.68</ele>
        <time>2017-12-09T11:16:45Z</time>
      </trkpt>
      <trkpt lat="27.923927" lon="-15.576253">
        <ele>953.16</ele>
        <time>2017-12-09T11:16:46Z</time>
      </trkpt>
      <trkpt lat="27.923950" lon="-15.576245">
        <ele>952.46</ele>
        <time>2017-12-09T11:16:47Z</time>
      </trkpt>
      <trkpt lat="27.923973" lon="-15.576237">
        <ele>952.01</ele>
        <time>2017-12-09T11:16:48Z</time>
      </trkpt>
      <trkpt lat="27.923993" lon="-15.576236">
        <ele>951.77</ele>
        <time>2017-12-09T11:16:49Z</time>
      </trkpt>
      <trkpt lat="27.924020" lon="-15.576231">
        <ele>951.25</ele>
        <time>2017-12-09T11:16:50Z</time>
      </trkpt>
      <trkpt lat="27.924042" lon="-15.576222">
        <ele>950.81</ele>
        <time>2017-12-09T11:16:51Z</time>
      </trkpt>
      <trkpt lat="27.924069" lon="-15.576213">
        <ele>950.37</ele>
        <time>2017-12-09T11:16:52Z</time>
      </trkpt>
      <trkpt lat="27.924094" lon="-15.576202">
        <ele>950.00</ele>
        <time>2017-12-09T11:16:53Z</time>
      </trkpt>
      <trkpt lat="27.924117" lon="-15.576203">
        <ele>949.83</ele>
        <time>2017-12-09T11:16:54Z</time>
      </trkpt>
      <trkpt lat="27.924141" lon="-15.576200">
        <ele>949.67</ele>
        <time>2017-12-09T11:16:55Z</time>
      </trkpt>
      <trkpt lat="27.924167" lon="-15.576197">
        <ele>949.13</ele>
        <time>2017-12-09T11:16:56Z</time>
      </trkpt>
      <trkpt lat="27.924191" lon="-15.576191">
        <ele>948.57</ele>
        <time>2017-12-09T11:16:57Z</time>
      </trkpt>
      <trkpt lat="27.924214" lon="-15.576185">
        <ele>948.26</ele>
        <time>2017-12-09T11:16:58Z</time>
      </trkpt>
      <trkpt lat="27.924238" lon="-15.576178">
        <ele>947.45</ele>
        <time>2017-12-09T11:16:59Z</time>
      </trkpt>
      <trkpt lat="27.924262" lon="-15.576171">
        <ele>946.89</ele>
        <time>2017-12-09T11:17:00Z</time>
      </trkpt>
      <trkpt lat="27.924280" lon="-15.576164">
        <ele>946.11</ele>
        <time>2017-12-09T11:17:01Z</time>
      </trkpt>
      <trkpt lat="27.924300" lon="-15.576156">
        <ele>945.52</ele>
        <time>2017-12-09T11:17:02Z</time>
      </trkpt>
      <trkpt lat="27.924320" lon="-15.576147">
        <ele>945.05</ele>
        <time>2017-12-09T11:17:03Z</time>
      </trkpt>
      <trkpt lat="27.924339" lon="-15.576136">
        <ele>944.83</ele>
        <time>2017-12-09T11:17:04Z</time>
      </trkpt>
      <trkpt lat="27.924361" lon="-15.576123">
        <ele>944.10</ele>
        <time>2017-12-09T11:17:05Z</time>
      </trkpt>
      <trkpt lat="27.924387" lon="-15.576111">
        <ele>943.24</ele>
        <time>2017-12-09T11:17:06Z</time>
      </trkpt>
      <trkpt lat="27.924410" lon="-15.576099">
        <ele>943.00</ele>
        <time>2017-12-09T11:17:07Z</time>
      </trkpt>
      <trkpt lat="27.924430" lon="-15.576091">
        <ele>942.78</ele>
        <time>2017-12-09T11:17:08Z</time>
      </trkpt>
      <trkpt lat="27.924452" lon="-15.576076">
        <ele>942.77</ele>
        <time>2017-12-09T11:17:09Z</time>
      </trkpt>
      <trkpt lat="27.924476" lon="-15.576057">
        <ele>942.73</ele>
        <time>2017-12-09T11:17:10Z</time>
      </trkpt>
      <trkpt lat="27.924500" lon="-15.576041">
        <ele>942.11</ele>
        <time>2017-12-09T11:17:11Z</time>
      </trkpt>
      <trkpt lat="27.924524" lon="-15.576026">
        <ele>941.83</ele>
        <time>2017-12-09T11:17:12Z</time>
      </trkpt>
      <trkpt lat="27.924547" lon="-15.576013">
        <ele>940.83</ele>
        <time>2017-12-09T11:17:13Z</time>
      </trkpt>
      <trkpt lat="27.924569" lon="-15.575997">
        <ele>940.42</ele>
        <time>2017-12-09T11:17:14Z</time>
      </trkpt>
      <trkpt lat="27.924591" lon="-15.575985">
        <ele>939.94</ele>
        <time>2017-12-09T11:17:15Z</time>
      </trkpt>
      <trkpt lat="27.924613" lon="-15.575974">
        <ele>939.42</ele>
        <time>2017-12-09T11:17:16Z</time>
      </trkpt>
      <trkpt lat="27.924634" lon="-15.575963">
        <ele>938.61</ele>
        <time>2017-12-09T11:17:17Z</time>
      </trkpt>
      <trkpt lat="27.924655" lon="-15.575952">
        <ele>938.40</ele>
        <time>2017-12-09T11:17:18Z</time>
      </trkpt>
      <trkpt lat="27.924673" lon="-15.575943">
        <ele>937.86</ele>
        <time>2017-12-09T11:17:19Z</time>
      </trkpt>
      <trkpt lat="27.924693" lon="-15.575932">
        <ele>937.54</ele>
        <time>2017-12-09T11:17:20Z</time>
      </trkpt>
      <trkpt lat="27.924716" lon="-15.575918">
        <ele>937.19</ele>
        <time>2017-12-09T11:17:21Z</time>
      </trkpt>
      <trkpt lat="27.924737" lon="-15.575900">
        <ele>936.86</ele>
        <time>2017-12-09T11:17:22Z</time>
      </trkpt>
      <trkpt lat="27.924756" lon="-15.575883">
        <ele>936.16</ele>
        <time>2017-12-09T11:17:23Z</time>
      </trkpt>
      <trkpt lat="27.924775" lon="-15.575871">
        <ele>935.76</ele>
        <time>2017-12-09T11:17:24Z</time>
      </trkpt>
      <trkpt lat="27.924791" lon="-15.575858">
        <ele>935.54</ele>
        <time>2017-12-09T11:17:25Z</time>
      </trkpt>
      <trkpt lat="27.924822" lon="-15.575832">
        <ele>933.79</ele>
        <time>2017-12-09T11:17:27Z</time>
      </trkpt>
      <trkpt lat="27.924838" lon="-15.575813">
        <ele>933.21</ele>
        <time>2017-12-09T11:17:28Z</time>
      </trkpt>
      <trkpt lat="27.924855" lon="-15.575794">
        <ele>932.77</ele>
        <time>2017-12-09T11:17:29Z</time>
      </trkpt>
      <trkpt lat="27.924869" lon="-15.575777">
        <ele>931.95</ele>
        <time>2017-12-09T11:17:30Z</time>
      </trkpt>
      <trkpt lat="27.924884" lon="-15.575759">
        <ele>931.80</ele>
        <time>2017-12-09T11:17:31Z</time>
      </trkpt>
      <trkpt lat="27.924900" lon="-15.575745">
        <ele>931.46</ele>
        <time>2017-12-09T11:17:32Z</time>
      </trkpt>
      <trkpt lat="27.924913" lon="-15.575730">
        <ele>931.23</ele>
        <time>2017-12-09T11:17:33Z</time>
      </trkpt>
      <trkpt lat="27.924928" lon="-15.575708">
        <ele>930.34</ele>
        <time>2017-12-09T11:17:34Z</time>
      </trkpt>
      <trkpt lat="27.924939" lon="-15.575686">
        <ele>929.94</ele>
        <time>2017-12-09T11:17:35Z</time>
      </trkpt>
      <trkpt lat="27.924949" lon="-15.575663">
        <ele>929.81</ele>
        <time>2017-12-09T11:17:36Z</time>
      </trkpt>
      <trkpt lat="27.924955" lon="-15.575641">
        <ele>929.63</ele>
        <time>2017-12-09T11:17:37Z</time>
      </trkpt>
      <trkpt lat="27.924966" lon="-15.575616">
        <ele>929.42</ele>
        <time>2017-12-09T11:17:38Z</time>
      </trkpt>
      <trkpt lat="27.924979" lon="-15.575589">
        <ele>929.05</ele>
        <time>2017-12-09T11:17:39Z</time>
      </trkpt>
      <trkpt lat="27.924989" lon="-15.575565">
        <ele>928.73</ele>
        <time>2017-12-09T11:17:40Z</time>
      </trkpt>
      <trkpt lat="27.925002" lon="-15.575543">
        <ele>928.52</ele>
        <time>2017-12-09T11:17:41Z</time>
      </trkpt>
      <trkpt lat="27.925017" lon="-15.575519">
        <ele>927.25</ele>
        <time>2017-12-09T11:17:42Z</time>
      </trkpt>
      <trkpt lat="27.925032" lon="-15.575495">
        <ele>927.10</ele>
        <time>2017-12-09T11:17:43Z</time>
      </trkpt>
      <trkpt lat="27.925044" lon="-15.575477">
        <ele>926.74</ele>
        <time>2017-12-09T11:17:44Z</time>
      </trkpt>
      <trkpt lat="27.925087" lon="-15.575476">
        <ele>924.78</ele>
        <time>2017-12-09T11:17:47Z</time>
      </trkpt>
      <trkpt lat="27.925115" lon="-15.575510">
        <ele>924.14</ele>
        <time>2017-12-09T11:17:49Z</time>
      </trkpt>
      <trkpt lat="27.925200" lon="-15.575559">
        <ele>922.21</ele>
        <time>2017-12-09T11:17:53Z</time>
      </trkpt>
      <trkpt lat="27.925227" lon="-15.575562">
        <ele>921.72</ele>
        <time>2017-12-09T11:17:54Z</time>
      </trkpt>
      <trkpt lat="27.925252" lon="-15.575550">
        <ele>921.60</ele>
        <time>2017-12-09T11:17:55Z</time>
      </trkpt>
      <trkpt lat="27.925271" lon="-15.575520">
        <ele>921.21</ele>
        <time>2017-12-09T11:17:56Z</time>
      </trkpt>
      <trkpt lat="27.925291" lon="-15.575480">
        <ele>920.71</ele>
        <time>2017-12-09T11:17:57Z</time>
      </trkpt>
      <trkpt lat="27.925305" lon="-15.575438">
        <ele>919.92</ele>
        <time>2017-12-09T11:17:58Z</time>
      </trkpt>
      <trkpt lat="27.925310" lon="-15.575396">
        <ele>919.21</ele>
        <time>2017-12-09T11:17:59Z</time>
      </trkpt>
      <trkpt lat="27.925318" lon="-15.575356">
        <ele>919.10</ele>
        <time>2017-12-09T11:18:00Z</time>
      </trkpt>
      <trkpt lat="27.925323" lon="-15.575314">
        <ele>919.00</ele>
        <time>2017-12-09T11:18:01Z</time>
      </trkpt>
      <trkpt lat="27.925331" lon="-15.575275">
        <ele>918.50</ele>
        <time>2017-12-09T11:18:02Z</time>
      </trkpt>
      <trkpt lat="27.925337" lon="-15.575238">
        <ele>919.00</ele>
        <time>2017-12-09T11:18:03Z</time>
      </trkpt>
      <trkpt lat="27.925342" lon="-15.575207">
        <ele>919.00</ele>
        <time>2017-12-09T11:18:04Z</time>
      </trkpt>
      <trkpt lat="27.925350" lon="-15.575177">
        <ele>919.00</ele>
        <time>2017-12-09T11:18:05Z</time>
      </trkpt>
      <trkpt lat="27.925355" lon="-15.575146">
        <ele>918.98</ele>
        <time>2017-12-09T11:18:06Z</time>
      </trkpt>
      <trkpt lat="27.925359" lon="-15.575119">
        <ele>918.09</ele>
        <time>2017-12-09T11:18:07Z</time>
      </trkpt>
      <trkpt lat="27.925361" lon="-15.575088">
        <ele>917.70</ele>
        <time>2017-12-09T11:18:08Z</time>
      </trkpt>
      <trkpt lat="27.925365" lon="-15.575062">
        <ele>917.70</ele>
        <time>2017-12-09T11:18:09Z</time>
      </trkpt>
      <trkpt lat="27.925365" lon="-15.575017">
        <ele>917.71</ele>
        <time>2017-12-09T11:18:11Z</time>
      </trkpt>
      <trkpt lat="27.925365" lon="-15.574993">
        <ele>917.80</ele>
        <time>2017-12-09T11:18:12Z</time>
      </trkpt>
      <trkpt lat="27.925370" lon="-15.574970">
        <ele>917.80</ele>
        <time>2017-12-09T11:18:13Z</time>
      </trkpt>
      <trkpt lat="27.925370" lon="-15.574948">
        <ele>917.80</ele>
        <time>2017-12-09T11:18:14Z</time>
      </trkpt>
      <trkpt lat="27.925368" lon="-15.574927">
        <ele>917.80</ele>
        <time>2017-12-09T11:18:15Z</time>
      </trkpt>
      <trkpt lat="27.925369" lon="-15.574884">
        <ele>917.79</ele>
        <time>2017-12-09T11:18:17Z</time>
      </trkpt>
      <trkpt lat="27.925376" lon="-15.574846">
        <ele>917.20</ele>
        <time>2017-12-09T11:18:19Z</time>
      </trkpt>
      <trkpt lat="27.925378" lon="-15.574819">
        <ele>917.17</ele>
        <time>2017-12-09T11:18:20Z</time>
      </trkpt>
      <trkpt lat="27.925380" lon="-15.574790">
        <ele>917.00</ele>
        <time>2017-12-09T11:18:21Z</time>
      </trkpt>
      <trkpt lat="27.925388" lon="-15.574748">
        <ele>917.00</ele>
        <time>2017-12-09T11:18:23Z</time>
      </trkpt>
      <trkpt lat="27.925396" lon="-15.574714">
        <ele>917.00</ele>
        <time>2017-12-09T11:18:25Z</time>
      </trkpt>
      <trkpt lat="27.925406" lon="-15.574676">
        <ele>916.96</ele>
        <time>2017-12-09T11:18:27Z</time>
      </trkpt>
      <trkpt lat="27.925423" lon="-15.574635">
        <ele>917.00</ele>
        <time>2017-12-09T11:18:29Z</time>
      </trkpt>
      <trkpt lat="27.925438" lon="-15.574613">
        <ele>917.00</ele>
        <time>2017-12-09T11:18:30Z</time>
      </trkpt>
      <trkpt lat="27.925465" lon="-15.574571">
        <ele>917.00</ele>
        <time>2017-12-09T11:18:32Z</time>
      </trkpt>
      <trkpt lat="27.925483" lon="-15.574549">
        <ele>917.00</ele>
        <time>2017-12-09T11:18:33Z</time>
      </trkpt>
      <trkpt lat="27.925494" lon="-15.574521">
        <ele>917.00</ele>
        <time>2017-12-09T11:18:34Z</time>
      </trkpt>
      <trkpt lat="27.925506" lon="-15.574497">
        <ele>916.76</ele>
        <time>2017-12-09T11:18:35Z</time>
      </trkpt>
      <trkpt lat="27.925513" lon="-15.574472">
        <ele>915.99</ele>
        <time>2017-12-09T11:18:36Z</time>
      </trkpt>
      <trkpt lat="27.925521" lon="-15.574444">
        <ele>915.70</ele>
        <time>2017-12-09T11:18:37Z</time>
      </trkpt>
      <trkpt lat="27.925526" lon="-15.574419">
        <ele>915.70</ele>
        <time>2017-12-09T11:18:38Z</time>
      </trkpt>
      <trkpt lat="27.925528" lon="-15.574395">
        <ele>915.70</ele>
        <time>2017-12-09T11:18:39Z</time>
      </trkpt>
      <trkpt lat="27.925536" lon="-15.574332">
        <ele>915.51</ele>
        <time>2017-12-09T11:18:41Z</time>
      </trkpt>
      <trkpt lat="27.925540" lon="-15.574304">
        <ele>915.10</ele>
        <time>2017-12-09T11:18:42Z</time>
      </trkpt>
      <trkpt lat="27.925540" lon="-15.574270">
        <ele>914.90</ele>
        <time>2017-12-09T11:18:43Z</time>
      </trkpt>
      <trkpt lat="27.925540" lon="-15.574236">
        <ele>914.50</ele>
        <time>2017-12-09T11:18:44Z</time>
      </trkpt>
      <trkpt lat="27.925545" lon="-15.574204">
        <ele>914.50</ele>
        <time>2017-12-09T11:18:45Z</time>
      </trkpt>
      <trkpt lat="27.925543" lon="-15.574171">
        <ele>914.50</ele>
        <time>2017-12-09T11:18:46Z</time>
      </trkpt>
      <trkpt lat="27.925542" lon="-15.574138">
        <ele>914.50</ele>
        <time>2017-12-09T11:18:47Z</time>
      </trkpt>
      <trkpt lat="27.925539" lon="-15.574108">
        <ele>914.50</ele>
        <time>2017-12-09T11:18:48Z</time>
      </trkpt>
      <trkpt lat="27.925538" lon="-15.574079">
        <ele>914.50</ele>
        <time>2017-12-09T11:18:49Z</time>
      </trkpt>
      <trkpt lat="27.925536" lon="-15.574049">
        <ele>914.22</ele>
        <time>2017-12-09T11:18:50Z</time>
      </trkpt>
      <trkpt lat="27.925534" lon="-15.574023">
        <ele>913.92</ele>
        <time>2017-12-09T11:18:51Z</time>
      </trkpt>
      <trkpt lat="27.925533" lon="-15.574000">
        <ele>914.10</ele>
        <time>2017-12-09T11:18:52Z</time>
      </trkpt>
      <trkpt lat="27.925532" lon="-15.573976">
        <ele>914.10</ele>
        <time>2017-12-09T11:18:53Z</time>
      </trkpt>
      <trkpt lat="27.925532" lon="-15.573953">
        <ele>914.10</ele>
        <time>2017-12-09T11:18:54Z</time>
      </trkpt>
      <trkpt lat="27.925533" lon="-15.573922">
        <ele>914.10</ele>
        <time>2017-12-09T11:18:55Z</time>
      </trkpt>
      <trkpt lat="27.925536" lon="-15.573896">
        <ele>914.10</ele>
        <time>2017-12-09T11:18:56Z</time>
      </trkpt>
      <trkpt lat="27.925535" lon="-15.573869">
        <ele>914.10</ele>
        <time>2017-12-09T11:18:57Z</time>
      </trkpt>
      <trkpt lat="27.925535" lon="-15.573842">
        <ele>913.77</ele>
        <time>2017-12-09T11:18:58Z</time>
      </trkpt>
      <trkpt lat="27.925535" lon="-15.573811">
        <ele>913.16</ele>
        <time>2017-12-09T11:18:59Z</time>
      </trkpt>
      <trkpt lat="27.925538" lon="-15.573784">
        <ele>912.90</ele>
        <time>2017-12-09T11:19:00Z</time>
      </trkpt>
      <trkpt lat="27.925540" lon="-15.573754">
        <ele>912.90</ele>
        <time>2017-12-09T11:19:01Z</time>
      </trkpt>
      <trkpt lat="27.925541" lon="-15.573728">
        <ele>912.90</ele>
        <time>2017-12-09T11:19:02Z</time>
      </trkpt>
      <trkpt lat="27.925539" lon="-15.573693">
        <ele>912.90</ele>
        <time>2017-12-09T11:19:03Z</time>
      </trkpt>
      <trkpt lat="27.925537" lon="-15.573665">
        <ele>912.60</ele>
        <time>2017-12-09T11:19:04Z</time>
      </trkpt>
      <trkpt lat="27.925533" lon="-15.573636">
        <ele>912.30</ele>
        <time>2017-12-09T11:19:05Z</time>
      </trkpt>
      <trkpt lat="27.925527" lon="-15.573604">
        <ele>912.30</ele>
        <time>2017-12-09T11:19:06Z</time>
      </trkpt>
      <trkpt lat="27.925525" lon="-15.573578">
        <ele>912.20</ele>
        <time>2017-12-09T11:19:07Z</time>
      </trkpt>
      <trkpt lat="27.925525" lon="-15.573558">
        <ele>912.21</ele>
        <time>2017-12-09T11:19:08Z</time>
      </trkpt>
      <trkpt lat="27.925521" lon="-15.573520">
        <ele>912.22</ele>
        <time>2017-12-09T11:19:10Z</time>
      </trkpt>
      <trkpt lat="27.925512" lon="-15.573482">
        <ele>912.10</ele>
        <time>2017-12-09T11:19:12Z</time>
      </trkpt>
      <trkpt lat="27.925499" lon="-15.573443">
        <ele>911.30</ele>
        <time>2017-12-09T11:19:14Z</time>
      </trkpt>
      <trkpt lat="27.925490" lon="-15.573408">
        <ele>911.30</ele>
        <time>2017-12-09T11:19:16Z</time>
      </trkpt>
      <trkpt lat="27.925490" lon="-15.573382">
        <ele>910.95</ele>
        <time>2017-12-09T11:19:18Z</time>
      </trkpt>
      <trkpt lat="27.925498" lon="-15.573352">
        <ele>910.80</ele>
        <time>2017-12-09T11:19:20Z</time>
      </trkpt>
      <trkpt lat="27.925500" lon="-15.573322">
        <ele>910.70</ele>
        <time>2017-12-09T11:19:22Z</time>
      </trkpt>
      <trkpt lat="27.925478" lon="-15.573292">
        <ele>910.70</ele>
        <time>2017-12-09T11:19:24Z</time>
      </trkpt>
      <trkpt lat="27.925459" lon="-15.573276">
        <ele>910.55</ele>
        <time>2017-12-09T11:19:25Z</time>
      </trkpt>
      <trkpt lat="27.925443" lon="-15.573259">
        <ele>910.50</ele>
        <time>2017-12-09T11:19:26Z</time>
      </trkpt>
      <trkpt lat="27.925420" lon="-15.573239">
        <ele>910.81</ele>
        <time>2017-12-09T11:19:28Z</time>
      </trkpt>
      <trkpt lat="27.925415" lon="-15.573210">
        <ele>910.80</ele>
        <time>2017-12-09T11:19:32Z</time>
      </trkpt>
      <trkpt lat="27.925401" lon="-15.573186">
        <ele>910.62</ele>
        <time>2017-12-09T11:19:35Z</time>
      </trkpt>
      <trkpt lat="27.925386" lon="-15.573169">
        <ele>910.52</ele>
        <time>2017-12-09T11:19:36Z</time>
      </trkpt>
      <trkpt lat="27.925362" lon="-15.573160">
        <ele>910.50</ele>
        <time>2017-12-09T11:19:37Z</time>
      </trkpt>
      <trkpt lat="27.925337" lon="-15.573154">
        <ele>910.17</ele>
        <time>2017-12-09T11:19:38Z</time>
      </trkpt>
      <trkpt lat="27.925311" lon="-15.573153">
        <ele>910.10</ele>
        <time>2017-12-09T11:19:39Z</time>
      </trkpt>
      <trkpt lat="27.925293" lon="-15.573151">
        <ele>910.10</ele>
        <time>2017-12-09T11:19:40Z</time>
      </trkpt>
      <trkpt lat="27.925264" lon="-15.573153">
        <ele>910.02</ele>
        <time>2017-12-09T11:19:42Z</time>
      </trkpt>
      <trkpt lat="27.925320" lon="-15.573124">
        <ele>876.00</ele>
        <time>2017-01-21T10:35:24Z</time>
      </trkpt>
      <trkpt lat="27.925326" lon="-15.573097">
        <ele>877.00</ele>
        <time>2017-01-21T10:35:48Z</time>
      </trkpt>
      <trkpt lat="27.925325" lon="-15.573073">
        <ele>877.00</ele>
        <time>2017-01-21T10:35:50Z</time>
      </trkpt>
      <trkpt lat="27.925325" lon="-15.573046">
        <ele>877.00</ele>
        <time>2017-01-21T10:35:52Z</time>
      </trkpt>
      <trkpt lat="27.925329" lon="-15.573020">
        <ele>877.00</ele>
        <time>2017-01-21T10:35:54Z</time>
      </trkpt>
      <trkpt lat="27.925330" lon="-15.573008">
        <ele>877.00</ele>
        <time>2017-01-21T10:35:55.12Z</time>
      </trkpt>
      <trkpt lat="27.925332" lon="-15.572995">
        <ele>877.00</ele>
        <time>2017-01-21T10:35:56Z</time>
      </trkpt>
      <trkpt lat="27.925329" lon="-15.572960">
        <ele>877.00</ele>
        <time>2017-01-21T10:35:58Z</time>
      </trkpt>
      <trkpt lat="27.925321" lon="-15.572930">
        <ele>877.00</ele>
        <time>2017-01-21T10:36:00Z</time>
      </trkpt>
      <trkpt lat="27.925317" lon="-15.572903">
        <ele>877.00</ele>
        <time>2017-01-21T10:36:02Z</time>
      </trkpt>
      <trkpt lat="27.925312" lon="-15.572883">
        <ele>877.00</ele>
        <time>2017-01-21T10:36:04Z</time>
      </trkpt>
      <trkpt lat="27.925293" lon="-15.572872">
        <ele>877.00</ele>
        <time>2017-01-21T10:36:06Z</time>
      </trkpt>
      <trkpt lat="27.925274" lon="-15.572867">
        <ele>877.00</ele>
        <time>2017-01-21T10:36:08Z</time>
      </trkpt>
      <trkpt lat="27.925257" lon="-15.572851">
        <ele>877.00</ele>
        <time>2017-01-21T10:36:11Z</time>
      </trkpt>
      <trkpt lat="27.925248" lon="-15.572832">
        <ele>877.00</ele>
        <time>2017-01-21T10:36:13Z</time>
      </trkpt>
      <trkpt lat="27.925254" lon="-15.572807">
        <ele>877.00</ele>
        <time>2017-01-21T10:36:16Z</time>
      </trkpt>
      <trkpt lat="27.925274" lon="-15.572806">
        <ele>877.00</ele>
        <time>2017-01-21T10:36:19Z</time>
      </trkpt>
      <trkpt lat="27.925304" lon="-15.572806">
        <ele>876.00</ele>
        <time>2017-01-21T10:36:22Z</time>
      </trkpt>
      <trkpt lat="27.925329" lon="-15.572803">
        <ele>876.00</ele>
        <time>2017-01-21T10:36:24Z</time>
      </trkpt>
      <trkpt lat="27.925353" lon="-15.572793">
        <ele>876.00</ele>
        <time>2017-01-21T10:36:26Z</time>
      </trkpt>
      <trkpt lat="27.925375" lon="-15.572789">
        <ele>876.00</ele>
        <time>2017-01-21T10:36:28Z</time>
      </trkpt>
      <trkpt lat="27.925394" lon="-15.572782">
        <ele>876.00</ele>
        <time>2017-01-21T10:36:30Z</time>
      </trkpt>
      <trkpt lat="27.925418" lon="-15.572672">
        <ele>876.00</ele>
        <time>2017-01-21T10:36:39Z</time>
      </trkpt>
      <trkpt lat="27.925437" lon="-15.572559">
        <ele>875.00</ele>
        <time>2017-01-21T10:36:46Z</time>
      </trkpt>
      <trkpt lat="27.925472" lon="-15.572501">
        <ele>875.00</ele>
        <time>2017-01-21T10:36:51Z</time>
      </trkpt>
      <trkpt lat="27.925519" lon="-15.572439">
        <ele>875.00</ele>
        <time>2017-01-21T10:36:55.60Z</time>
      </trkpt>
      <trkpt lat="27.925529" lon="-15.572419">
        <ele>875.00</ele>
        <time>2017-01-21T10:36:58Z</time>
      </trkpt>
      <trkpt lat="27.925528" lon="-15.572308">
        <ele>874.00</ele>
        <time>2017-01-21T10:37:05Z</time>
      </trkpt>
      <trkpt lat="27.925518" lon="-15.572201">
        <ele>875.00</ele>
        <time>2017-01-21T10:37:13Z</time>
      </trkpt>
      <trkpt lat="27.925472" lon="-15.572144">
        <ele>875.00</ele>
        <time>2017-01-21T10:37:17Z</time>
      </trkpt>
      <trkpt lat="27.925402" lon="-15.572079">
        <ele>875.00</ele>
        <time>2017-01-21T10:37:25Z</time>
      </trkpt>
      <trkpt lat="27.925384" lon="-15.572056">
        <ele>875.00</ele>
        <time>2017-01-21T10:37:27Z</time>
      </trkpt>
      <trkpt lat="27.925368" lon="-15.572044">
        <ele>875.00</ele>
        <time>2017-01-21T10:37:28Z</time>
      </trkpt>
      <trkpt lat="27.925356" lon="-15.572029">
        <ele>874.88</ele>
        <time>2017-01-21T10:37:30Z</time>
      </trkpt>
      <trkpt lat="27.925369" lon="-15.572013">
        <ele>874.00</ele>
        <time>2017-01-21T10:37:37Z</time>
      </trkpt>
      <trkpt lat="27.925364" lon="-15.571993">
        <ele>874.00</ele>
        <time>2017-01-21T10:37:42Z</time>
      </trkpt>
      <trkpt lat="27.925353" lon="-15.571974">
        <ele>874.00</ele>
        <time>2017-01-21T10:37:44Z</time>
      </trkpt>
      <trkpt lat="27.925354" lon="-15.571949">
        <ele>874.00</ele>
        <time>2017-01-21T10:37:46Z</time>
      </trkpt>
      <trkpt lat="27.925364" lon="-15.571928">
        <ele>874.00</ele>
        <time>2017-01-21T10:37:48Z</time>
      </trkpt>
      <trkpt lat="27.925372" lon="-15.571905">
        <ele>874.00</ele>
        <time>2017-01-21T10:37:50Z</time>
      </trkpt>
      <trkpt lat="27.925388" lon="-15.571894">
        <ele>876.00</ele>
        <time>2017-01-21T10:37:52Z</time>
      </trkpt>
      <trkpt lat="27.925407" lon="-15.571870">
        <ele>876.00</ele>
        <time>2017-01-21T10:37:56.07Z</time>
      </trkpt>
      <trkpt lat="27.925448" lon="-15.571809">
        <ele>878.00</ele>
        <time>2017-01-21T10:38:04Z</time>
      </trkpt>
      <trkpt lat="27.925464" lon="-15.571708">
        <ele>880.00</ele>
        <time>2017-01-21T10:38:11Z</time>
      </trkpt>
      <trkpt lat="27.925493" lon="-15.571600">
        <ele>880.00</ele>
        <time>2017-01-21T10:38:18Z</time>
      </trkpt>
      <trkpt lat="27.925539" lon="-15.571553">
        <ele>881.00</ele>
        <time>2017-01-21T10:38:22Z</time>
      </trkpt>
      <trkpt lat="27.925637" lon="-15.571513">
        <ele>879.00</ele>
        <time>2017-01-21T10:38:31Z</time>
      </trkpt>
      <trkpt lat="27.925729" lon="-15.571542">
        <ele>879.00</ele>
        <time>2017-01-21T10:38:35Z</time>
      </trkpt>
      <trkpt lat="27.925799" lon="-15.571610">
        <ele>879.00</ele>
        <time>2017-01-21T10:38:42Z</time>
      </trkpt>
      <trkpt lat="27.925834" lon="-15.571637">
        <ele>879.00</ele>
        <time>2017-01-21T10:38:47Z</time>
      </trkpt>
      <trkpt lat="27.925847" lon="-15.571622">
        <ele>879.00</ele>
        <time>2017-01-21T10:38:49Z</time>
      </trkpt>
      <trkpt lat="27.925897" lon="-15.571506">
        <ele>879.00</ele>
        <time>2017-01-21T10:38:55Z</time>
      </trkpt>
      <trkpt lat="27.925918" lon="-15.571460">
        <ele>879.00</ele>
        <time>2017-01-21T10:38:56.48Z</time>
      </trkpt>
      <trkpt lat="27.925947" lon="-15.571410">
        <ele>878.02</ele>
        <time>2017-01-21T10:39:00Z</time>
      </trkpt>
      <trkpt lat="27.926008" lon="-15.571326">
        <ele>875.00</ele>
        <time>2017-01-21T10:39:07Z</time>
      </trkpt>
      <trkpt lat="27.926083" lon="-15.571385">
        <ele>872.21</ele>
        <time>2017-01-21T10:39:15Z</time>
      </trkpt>
      <trkpt lat="27.926153" lon="-15.571478">
        <ele>868.00</ele>
        <time>2017-01-21T10:39:23Z</time>
      </trkpt>
      <trkpt lat="27.926202" lon="-15.571576">
        <ele>867.00</ele>
        <time>2017-01-21T10:39:28Z</time>
      </trkpt>
      <trkpt lat="27.926270" lon="-15.571654">
        <ele>866.00</ele>
        <time>2017-01-21T10:39:34Z</time>
      </trkpt>
      <trkpt lat="27.926292" lon="-15.571638">
        <ele>861.00</ele>
        <time>2017-01-21T10:39:42Z</time>
      </trkpt>
      <trkpt lat="27.926280" lon="-15.571654">
        <ele>861.00</ele>
        <time>2017-01-21T10:39:50Z</time>
      </trkpt>
      <trkpt lat="27.926279" lon="-15.571610">
        <ele>861.00</ele>
        <time>2017-01-21T10:39:56.81Z</time>
      </trkpt>
      <trkpt lat="27.926279" lon="-15.571610">
        <ele>861.00</ele>
        <time>2017-01-21T10:39:57Z</time>
      </trkpt>
      <trkpt lat="27.926291" lon="-15.571582">
        <ele>861.00</ele>
        <time>2017-01-21T10:39:59Z</time>
      </trkpt>
      <trkpt lat="27.926301" lon="-15.571547">
        <ele>860.00</ele>
        <time>2017-01-21T10:40:01Z</time>
      </trkpt>
      <trkpt lat="27.926310" lon="-15.571513">
        <ele>860.00</ele>
        <time>2017-01-21T10:40:03Z</time>
      </trkpt>
      <trkpt lat="27.926318" lon="-15.571486">
        <ele>860.00</ele>
        <time>2017-01-21T10:40:05Z</time>
      </trkpt>
      <trkpt lat="27.926323" lon="-15.571448">
        <ele>860.00</ele>
        <time>2017-01-21T10:40:07Z</time>
      </trkpt>
      <trkpt lat="27.926324" lon="-15.571425">
        <ele>860.00</ele>
        <time>2017-01-21T10:40:08Z</time>
      </trkpt>
      <trkpt lat="27.926326" lon="-15.571391">
        <ele>859.75</ele>
        <time>2017-01-21T10:40:10Z</time>
      </trkpt>
      <trkpt lat="27.926338" lon="-15.571364">
        <ele>858.00</ele>
        <time>2017-01-21T10:40:13Z</time>
      </trkpt>
      <trkpt lat="27.926352" lon="-15.571345">
        <ele>858.00</ele>
        <time>2017-01-21T10:40:14Z</time>
      </trkpt>
      <trkpt lat="27.926366" lon="-15.571329">
        <ele>857.62</ele>
        <time>2017-01-21T10:40:15Z</time>
      </trkpt>
      <trkpt lat="27.926379" lon="-15.571309">
        <ele>854.00</ele>
        <time>2017-01-21T10:40:16Z</time>
      </trkpt>
      <trkpt lat="27.926393" lon="-15.571287">
        <ele>854.00</ele>
        <time>2017-01-21T10:40:17Z</time>
      </trkpt>
      <trkpt lat="27.926419" lon="-15.571243">
        <ele>854.00</ele>
        <time>2017-01-21T10:40:19Z</time>
      </trkpt>
      <trkpt lat="27.926426" lon="-15.571127">
        <ele>850.00</ele>
        <time>2017-01-21T10:40:24Z</time>
      </trkpt>
      <trkpt lat="27.926419" lon="-15.571013">
        <ele>846.99</ele>
        <time>2017-01-21T10:40:30Z</time>
      </trkpt>
      <trkpt lat="27.926444" lon="-15.570986">
        <ele>845.00</ele>
        <time>2017-01-21T10:40:42Z</time>
      </trkpt>
      <trkpt lat="27.926421" lon="-15.571017">
        <ele>844.00</ele>
        <time>2017-01-21T10:40:57.07Z</time>
      </trkpt>
      <trkpt lat="27.926418" lon="-15.571059">
        <ele>844.00</ele>
        <time>2017-01-21T10:41:06Z</time>
      </trkpt>
      <trkpt lat="27.926432" lon="-15.571073">
        <ele>844.00</ele>
        <time>2017-01-21T10:41:09Z</time>
      </trkpt>
      <trkpt lat="27.926496" lon="-15.571096">
        <ele>843.00</ele>
        <time>2017-01-21T10:41:16Z</time>
      </trkpt>
      <trkpt lat="27.926584" lon="-15.571149">
        <ele>841.00</ele>
        <time>2017-01-21T10:41:24Z</time>
      </trkpt>
      <trkpt lat="27.926651" lon="-15.571238">
        <ele>833.75</ele>
        <time>2017-01-21T10:41:33Z</time>
      </trkpt>
      <trkpt lat="27.926693" lon="-15.571337">
        <ele>832.00</ele>
        <time>2017-01-21T10:41:41Z</time>
      </trkpt>
      <trkpt lat="27.926782" lon="-15.571318">
        <ele>828.00</ele>
        <time>2017-01-21T10:41:51Z</time>
      </trkpt>
      <trkpt lat="27.926805" lon="-15.571275">
        <ele>827.00</ele>
        <time>2017-01-21T10:41:57.44Z</time>
      </trkpt>
      <trkpt lat="27.926783" lon="-15.571294">
        <ele>826.48</ele>
        <time>2017-01-21T10:42:00Z</time>
      </trkpt>
      <trkpt lat="27.926765" lon="-15.571322">
        <ele>826.00</ele>
        <time>2017-01-21T10:42:02Z</time>
      </trkpt>
      <trkpt lat="27.926757" lon="-15.571346">
        <ele>826.00</ele>
        <time>2017-01-21T10:42:04Z</time>
      </trkpt>
      <trkpt lat="27.926756" lon="-15.571369">
        <ele>826.00</ele>
        <time>2017-01-21T10:42:06Z</time>
      </trkpt>
      <trkpt lat="27.926843" lon="-15.571416">
        <ele>822.00</ele>
        <time>2017-01-21T10:42:24Z</time>
      </trkpt>
      <trkpt lat="27.926934" lon="-15.571356">
        <ele>823.27</ele>
        <time>2017-01-21T10:42:30Z</time>
      </trkpt>
      <trkpt lat="27.927016" lon="-15.571314">
        <ele>826.00</ele>
        <time>2017-01-21T10:42:39Z</time>
      </trkpt>
      <trkpt lat="27.927082" lon="-15.571326">
        <ele>828.00</ele>
        <time>2017-01-21T10:42:57.88Z</time>
      </trkpt>
      <trkpt lat="27.927119" lon="-15.571323">
        <ele>832.00</ele>
        <time>2017-01-21T10:43:08Z</time>
      </trkpt>
      <trkpt lat="27.927052" lon="-15.571241">
        <ele>833.00</ele>
        <time>2017-01-21T10:43:19Z</time>
      </trkpt>
      <trkpt lat="27.926986" lon="-15.571170">
        <ele>835.83</ele>
        <time>2017-01-21T10:43:30Z</time>
      </trkpt>
      <trkpt lat="27.926941" lon="-15.571078">
        <ele>837.67</ele>
        <time>2017-01-21T10:43:40Z</time>
      </trkpt>
      <trkpt lat="27.927030" lon="-15.571045">
        <ele>841.00</ele>
        <time>2017-01-21T10:43:53Z</time>
      </trkpt>
      <trkpt lat="27.927064" lon="-15.571056">
        <ele>842.00</ele>
        <time>2017-01-21T10:43:58Z</time>
      </trkpt>
      <trkpt lat="27.927065" lon="-15.571062">
        <ele>842.00</ele>
        <time>2017-01-21T10:43:58.29Z</time>
      </trkpt>
      <trkpt lat="27.927087" lon="-15.571066">
        <ele>843.00</ele>
        <time>2017-01-21T10:44:02Z</time>
      </trkpt>
      <trkpt lat="27.927105" lon="-15.571070">
        <ele>843.00</ele>
        <time>2017-01-21T10:44:04Z</time>
      </trkpt>
      <trkpt lat="27.927175" lon="-15.571137">
        <ele>845.00</ele>
        <time>2017-01-21T10:44:15Z</time>
      </trkpt>
      <trkpt lat="27.927266" lon="-15.571153">
        <ele>846.00</ele>
        <time>2017-01-21T10:44:28Z</time>
      </trkpt>
      <trkpt lat="27.927284" lon="-15.571163">
        <ele>849.00</ele>
        <time>2017-01-21T10:44:32Z</time>
      </trkpt>
      <trkpt lat="27.927308" lon="-15.571180">
        <ele>849.55</ele>
        <time>2017-01-21T10:44:35Z</time>
      </trkpt>
      <trkpt lat="27.927396" lon="-15.571139">
        <ele>853.00</ele>
        <time>2017-01-21T10:44:46Z</time>
      </trkpt>
      <trkpt lat="27.927470" lon="-15.571067">
        <ele>854.00</ele>
        <time>2017-01-21T10:44:57Z</time>
      </trkpt>
      <trkpt lat="27.927469" lon="-15.571044">
        <ele>854.00</ele>
        <time>2017-01-21T10:44:58.59Z</time>
      </trkpt>
      <trkpt lat="27.927492" lon="-15.571052">
        <ele>855.00</ele>
        <time>2017-01-21T10:45:07Z</time>
      </trkpt>
      <trkpt lat="27.927505" lon="-15.571067">
        <ele>855.00</ele>
        <time>2017-01-21T10:45:09Z</time>
      </trkpt>
      <trkpt lat="27.927506" lon="-15.571091">
        <ele>857.00</ele>
        <time>2017-01-21T10:45:13Z</time>
      </trkpt>
      <trkpt lat="27.927515" lon="-15.571114">
        <ele>857.00</ele>
        <time>2017-01-21T10:45:15Z</time>
      </trkpt>
      <trkpt lat="27.927525" lon="-15.571132">
        <ele>857.00</ele>
        <time>2017-01-21T10:45:18Z</time>
      </trkpt>
      <trkpt lat="27.927532" lon="-15.571159">
        <ele>859.00</ele>
        <time>2017-01-21T10:45:21Z</time>
      </trkpt>
      <trkpt lat="27.927548" lon="-15.571183">
        <ele>859.00</ele>
        <time>2017-01-21T10:45:24Z</time>
      </trkpt>
      <trkpt lat="27.927543" lon="-15.571160">
        <ele>860.84</ele>
        <time>2017-01-21T10:45:40Z</time>
      </trkpt>
      <trkpt lat="27.927561" lon="-15.571148">
        <ele>860.00</ele>
        <time>2017-01-21T10:45:45Z</time>
      </trkpt>
      <trkpt lat="27.927566" lon="-15.571156">
        <ele>859.00</ele>
        <time>2017-01-21T10:45:59.01Z</time>
      </trkpt>
      <trkpt lat="27.927585" lon="-15.571162">
        <ele>859.97</ele>
        <time>2017-01-21T10:46:01Z</time>
      </trkpt>
      <trkpt lat="27.927606" lon="-15.571166">
        <ele>860.00</ele>
        <time>2017-01-21T10:46:03Z</time>
      </trkpt>
      <trkpt lat="27.927612" lon="-15.571142">
        <ele>860.00</ele>
        <time>2017-01-21T10:46:07Z</time>
      </trkpt>
      <trkpt lat="27.927622" lon="-15.571167">
        <ele>860.00</ele>
        <time>2017-01-21T10:46:14Z</time>
      </trkpt>
      <trkpt lat="27.927624" lon="-15.571199">
        <ele>860.00</ele>
        <time>2017-01-21T10:46:16Z</time>
      </trkpt>
      <trkpt lat="27.927632" lon="-15.571226">
        <ele>860.00</ele>
        <time>2017-01-21T10:46:18Z</time>
      </trkpt>
      <trkpt lat="27.927640" lon="-15.571245">
        <ele>860.00</ele>
        <time>2017-01-21T10:46:20Z</time>
      </trkpt>
      <trkpt lat="27.927648" lon="-15.571269">
        <ele>860.00</ele>
        <time>2017-01-21T10:46:22Z</time>
      </trkpt>
      <trkpt lat="27.927666" lon="-15.571293">
        <ele>860.00</ele>
        <time>2017-01-21T10:46:24Z</time>
      </trkpt>
      <trkpt lat="27.927676" lon="-15.571317">
        <ele>860.00</ele>
        <time>2017-01-21T10:46:26Z</time>
      </trkpt>
      <trkpt lat="27.927686" lon="-15.571334">
        <ele>862.00</ele>
        <time>2017-01-21T10:46:31Z</time>
      </trkpt>
      <trkpt lat="27.927700" lon="-15.571360">
        <ele>862.00</ele>
        <time>2017-01-21T10:46:33Z</time>
      </trkpt>
      <trkpt lat="27.927711" lon="-15.571389">
        <ele>862.00</ele>
        <time>2017-01-21T10:46:35Z</time>
      </trkpt>
      <trkpt lat="27.927724" lon="-15.571423">
        <ele>862.00</ele>
        <time>2017-01-21T10:46:37Z</time>
      </trkpt>
      <trkpt lat="27.927735" lon="-15.571451">
        <ele>862.00</ele>
        <time>2017-01-21T10:46:39Z</time>
      </trkpt>
      <trkpt lat="27.927744" lon="-15.571469">
        <ele>863.50</ele>
        <time>2017-01-21T10:46:40Z</time>
      </trkpt>
      <trkpt lat="27.927759" lon="-15.571499">
        <ele>864.00</ele>
        <time>2017-01-21T10:46:42Z</time>
      </trkpt>
      <trkpt lat="27.927777" lon="-15.571521">
        <ele>864.00</ele>
        <time>2017-01-21T10:46:44Z</time>
      </trkpt>
      <trkpt lat="27.927795" lon="-15.571533">
        <ele>864.00</ele>
        <time>2017-01-21T10:46:46Z</time>
      </trkpt>
      <trkpt lat="27.927808" lon="-15.571505">
        <ele>864.00</ele>
        <time>2017-01-21T10:46:49Z</time>
      </trkpt>
      <trkpt lat="27.927808" lon="-15.571478">
        <ele>865.00</ele>
        <time>2017-01-21T10:46:51Z</time>
      </trkpt>
      <trkpt lat="27.927798" lon="-15.571443">
        <ele>865.00</ele>
        <time>2017-01-21T10:46:53Z</time>
      </trkpt>
      <trkpt lat="27.927790" lon="-15.571414">
        <ele>865.00</ele>
        <time>2017-01-21T10:46:55Z</time>
      </trkpt>
      <trkpt lat="27.927786" lon="-15.571381">
        <ele>865.00</ele>
        <time>2017-01-21T10:46:57Z</time>
      </trkpt>
      <trkpt lat="27.927786" lon="-15.571348">
        <ele>865.00</ele>
        <time>2017-01-21T10:46:59Z</time>
      </trkpt>
      <trkpt lat="27.927788" lon="-15.571334">
        <ele>865.00</ele>
        <time>2017-01-21T10:46:59.35Z</time>
      </trkpt>
      <trkpt lat="27.927789" lon="-15.571320">
        <ele>866.00</ele>
        <time>2017-01-21T10:47:01Z</time>
      </trkpt>
      <trkpt lat="27.927790" lon="-15.571293">
        <ele>866.00</ele>
        <time>2017-01-21T10:47:03Z</time>
      </trkpt>
      <trkpt lat="27.927788" lon="-15.571266">
        <ele>866.00</ele>
        <time>2017-01-21T10:47:05Z</time>
      </trkpt>
      <trkpt lat="27.927781" lon="-15.571243">
        <ele>866.00</ele>
        <time>2017-01-21T10:47:07Z</time>
      </trkpt>
      <trkpt lat="27.927769" lon="-15.571217">
        <ele>866.00</ele>
        <time>2017-01-21T10:47:09Z</time>
      </trkpt>
      <trkpt lat="27.927754" lon="-15.571192">
        <ele>867.00</ele>
        <time>2017-01-21T10:47:11Z</time>
      </trkpt>
      <trkpt lat="27.927710" lon="-15.571092">
        <ele>867.00</ele>
        <time>2017-01-21T10:47:19Z</time>
      </trkpt>
      <trkpt lat="27.927675" lon="-15.571020">
        <ele>868.00</ele>
        <time>2017-01-21T10:47:24Z</time>
      </trkpt>
      <trkpt lat="27.927674" lon="-15.570959">
        <ele>868.00</ele>
        <time>2017-01-21T10:47:28Z</time>
      </trkpt>
      <trkpt lat="27.927675" lon="-15.570931">
        <ele>868.00</ele>
        <time>2017-01-21T10:47:30Z</time>
      </trkpt>
      <trkpt lat="27.927679" lon="-15.570902">
        <ele>868.00</ele>
        <time>2017-01-21T10:47:32Z</time>
      </trkpt>
      <trkpt lat="27.927683" lon="-15.570875">
        <ele>868.00</ele>
        <time>2017-01-21T10:47:34Z</time>
      </trkpt>
      <trkpt lat="27.927696" lon="-15.570848">
        <ele>868.00</ele>
        <time>2017-01-21T10:47:36Z</time>
      </trkpt>
      <trkpt lat="27.927709" lon="-15.570827">
        <ele>868.00</ele>
        <time>2017-01-21T10:47:38Z</time>
      </trkpt>
      <trkpt lat="27.927724" lon="-15.570811">
        <ele>868.81</ele>
        <time>2017-01-21T10:47:40Z</time>
      </trkpt>
      <trkpt lat="27.927738" lon="-15.570791">
        <ele>870.00</ele>
        <time>2017-01-21T10:47:42Z</time>
      </trkpt>
      <trkpt lat="27.927751" lon="-15.570766">
        <ele>870.00</ele>
        <time>2017-01-21T10:47:44Z</time>
      </trkpt>
      <trkpt lat="27.927769" lon="-15.570743">
        <ele>870.00</ele>
        <time>2017-01-21T10:47:46Z</time>
      </trkpt>
      <trkpt lat="27.927784" lon="-15.570709">
        <ele>870.00</ele>
        <time>2017-01-21T10:47:48Z</time>
      </trkpt>
      <trkpt lat="27.927791" lon="-15.570687">
        <ele>870.00</ele>
        <time>2017-01-21T10:47:49Z</time>
      </trkpt>
      <trkpt lat="27.927803" lon="-15.570666">
        <ele>869.29</ele>
        <time>2017-01-21T10:47:50Z</time>
      </trkpt>
      <trkpt lat="27.927813" lon="-15.570642">
        <ele>868.00</ele>
        <time>2017-01-21T10:47:51Z</time>
      </trkpt>
      <trkpt lat="27.927820" lon="-15.570614">
        <ele>868.00</ele>
        <time>2017-01-21T10:47:52Z</time>
      </trkpt>
      <trkpt lat="27.927856" lon="-15.570503">
        <ele>868.00</ele>
        <time>2017-01-21T10:47:56Z</time>
      </trkpt>
      <trkpt lat="27.927924" lon="-15.570428">
        <ele>868.00</ele>
        <time>2017-01-21T10:47:59.68Z</time>
      </trkpt>
      <trkpt lat="27.927924" lon="-15.570428">
        <ele>868.00</ele>
        <time>2017-01-21T10:48:00Z</time>
      </trkpt>
      <trkpt lat="27.928004" lon="-15.570412">
        <ele>868.00</ele>
        <time>2017-01-21T10:48:06Z</time>
      </trkpt>
      <trkpt lat="27.928031" lon="-15.570416">
        <ele>868.00</ele>
        <time>2017-01-21T10:48:08Z</time>
      </trkpt>
      <trkpt lat="27.928062" lon="-15.570411">
        <ele>868.00</ele>
        <time>2017-01-21T10:48:10Z</time>
      </trkpt>
      <trkpt lat="27.928090" lon="-15.570402">
        <ele>868.00</ele>
        <time>2017-01-21T10:48:12Z</time>
      </trkpt>
      <trkpt lat="27.928129" lon="-15.570392">
        <ele>868.00</ele>
        <time>2017-01-21T10:48:14Z</time>
      </trkpt>
      <trkpt lat="27.928230" lon="-15.570394">
        <ele>868.00</ele>
        <time>2017-01-21T10:48:18.89Z</time>
      </trkpt>
      <trkpt lat="27.928330" lon="-15.570388">
        <ele>869.00</ele>
        <time>2017-01-21T10:48:23Z</time>
      </trkpt>
      <trkpt lat="27.928429" lon="-15.570364">
        <ele>869.00</ele>
        <time>2017-01-21T10:48:28Z</time>
      </trkpt>
      <trkpt lat="27.928520" lon="-15.570361">
        <ele>868.00</ele>
        <time>2017-01-21T10:48:32Z</time>
      </trkpt>
      <trkpt lat="27.928629" lon="-15.570391">
        <ele>868.00</ele>
        <time>2017-01-21T10:48:36Z</time>
      </trkpt>
      <trkpt lat="27.928740" lon="-15.570405">
        <ele>866.17</ele>
        <time>2017-01-21T10:48:40Z</time>
      </trkpt>
      <trkpt lat="27.928845" lon="-15.570429">
        <ele>866.00</ele>
        <time>2017-01-21T10:48:44Z</time>
      </trkpt>
      <trkpt lat="27.928939" lon="-15.570439">
        <ele>865.00</ele>
        <time>2017-01-21T10:48:48Z</time>
      </trkpt>
      <trkpt lat="27.929059" lon="-15.570450">
        <ele>865.00</ele>
        <time>2017-01-21T10:48:52Z</time>
      </trkpt>
      <trkpt lat="27.929163" lon="-15.570466">
        <ele>865.00</ele>
        <time>2017-01-21T10:48:56Z</time>
      </trkpt>
      <trkpt lat="27.929262" lon="-15.570479">
        <ele>860.45</ele>
        <time>2017-01-21T10:49:00.03Z</time>
      </trkpt>
      <trkpt lat="27.929291" lon="-15.570482">
        <ele>859.02</ele>
        <time>2017-01-21T10:49:00.27Z</time>
      </trkpt>
      <trkpt lat="27.929371" lon="-15.570474">
        <ele>859.73</ele>
        <time>2017-01-21T10:49:04Z</time>
      </trkpt>
      <trkpt lat="27.929472" lon="-15.570488">
        <ele>859.00</ele>
        <time>2017-01-21T10:49:08Z</time>
      </trkpt>
      <trkpt lat="27.929554" lon="-15.570445">
        <ele>859.00</ele>
        <time>2017-01-21T10:49:12Z</time>
      </trkpt>
      <trkpt lat="27.929493" lon="-15.570351">
        <ele>859.00</ele>
        <time>2017-01-21T10:49:17Z</time>
      </trkpt>
      <trkpt lat="27.929395" lon="-15.570327">
        <ele>854.00</ele>
        <time>2017-01-21T10:49:21Z</time>
      </trkpt>
      <trkpt lat="27.929293" lon="-15.570297">
        <ele>850.00</ele>
        <time>2017-01-21T10:49:26Z</time>
      </trkpt>
      <trkpt lat="27.929188" lon="-15.570285">
        <ele>845.40</ele>
        <time>2017-01-21T10:49:32Z</time>
      </trkpt>
      <trkpt lat="27.929092" lon="-15.570249">
        <ele>842.42</ele>
        <time>2017-01-21T10:49:37Z</time>
      </trkpt>
      <trkpt lat="27.928987" lon="-15.570269">
        <ele>842.00</ele>
        <time>2017-01-21T10:49:47Z</time>
      </trkpt>
      <trkpt lat="27.928897" lon="-15.570236">
        <ele>840.00</ele>
        <time>2017-01-21T10:49:51Z</time>
      </trkpt>
      <trkpt lat="27.928805" lon="-15.570145">
        <ele>839.54</ele>
        <time>2017-01-21T10:49:55Z</time>
      </trkpt>
      <trkpt lat="27.928728" lon="-15.570066">
        <ele>839.00</ele>
        <time>2017-01-21T10:49:58Z</time>
      </trkpt>
      <trkpt lat="27.928660" lon="-15.569999">
        <ele>841.00</ele>
        <time>2017-01-21T10:50:00.60Z</time>
      </trkpt>
      <trkpt lat="27.928636" lon="-15.569983">
        <ele>841.00</ele>
        <time>2017-01-21T10:50:02Z</time>
      </trkpt>
      <trkpt lat="27.928562" lon="-15.569908">
        <ele>841.00</ele>
        <time>2017-01-21T10:50:06Z</time>
      </trkpt>
      <trkpt lat="27.928521" lon="-15.569792">
        <ele>841.00</ele>
        <time>2017-01-21T10:50:11Z</time>
      </trkpt>
      <trkpt lat="27.928533" lon="-15.569687">
        <ele>841.00</ele>
        <time>2017-01-21T10:50:16Z</time>
      </trkpt>
      <trkpt lat="27.928516" lon="-15.569666">
        <ele>841.00</ele>
        <time>2017-01-21T10:50:19Z</time>
      </trkpt>
      <trkpt lat="27.928509" lon="-15.569643">
        <ele>841.00</ele>
        <time>2017-01-21T10:50:24Z</time>
      </trkpt>
      <trkpt lat="27.928489" lon="-15.569626">
        <ele>841.00</ele>
        <time>2017-01-21T10:50:27Z</time>
      </trkpt>
      <trkpt lat="27.928474" lon="-15.569611">
        <ele>841.00</ele>
        <time>2017-01-21T10:50:29Z</time>
      </trkpt>
      <trkpt lat="27.928459" lon="-15.569599">
        <ele>842.00</ele>
        <time>2017-01-21T10:50:31Z</time>
      </trkpt>
      <trkpt lat="27.928438" lon="-15.569586">
        <ele>842.00</ele>
        <time>2017-01-21T10:50:33Z</time>
      </trkpt>
      <trkpt lat="27.928416" lon="-15.569574">
        <ele>842.00</ele>
        <time>2017-01-21T10:50:35Z</time>
      </trkpt>
      <trkpt lat="27.928395" lon="-15.569562">
        <ele>842.00</ele>
        <time>2017-01-21T10:50:37Z</time>
      </trkpt>
      <trkpt lat="27.928375" lon="-15.569550">
        <ele>842.00</ele>
        <time>2017-01-21T10:50:39Z</time>
      </trkpt>
      <trkpt lat="27.928356" lon="-15.569537">
        <ele>843.00</ele>
        <time>2017-01-21T10:50:41Z</time>
      </trkpt>
      <trkpt lat="27.928326" lon="-15.569526">
        <ele>843.00</ele>
        <time>2017-01-21T10:50:43Z</time>
      </trkpt>
      <trkpt lat="27.928298" lon="-15.569520">
        <ele>843.00</ele>
        <time>2017-01-21T10:50:45Z</time>
      </trkpt>
      <trkpt lat="27.928278" lon="-15.569511">
        <ele>843.00</ele>
        <time>2017-01-21T10:50:47Z</time>
      </trkpt>
      <trkpt lat="27.928256" lon="-15.569499">
        <ele>843.00</ele>
        <time>2017-01-21T10:50:49Z</time>
      </trkpt>
      <trkpt lat="27.928233" lon="-15.569487">
        <ele>844.92</ele>
        <time>2017-01-21T10:50:51Z</time>
      </trkpt>
      <trkpt lat="27.928213" lon="-15.569472">
        <ele>845.00</ele>
        <time>2017-01-21T10:50:53Z</time>
      </trkpt>
      <trkpt lat="27.928197" lon="-15.569460">
        <ele>845.00</ele>
        <time>2017-01-21T10:50:55Z</time>
      </trkpt>
      <trkpt lat="27.928178" lon="-15.569445">
        <ele>845.00</ele>
        <time>2017-01-21T10:50:58Z</time>
      </trkpt>
      <trkpt lat="27.928161" lon="-15.569432">
        <ele>847.00</ele>
        <time>2017-01-21T10:51:01Z</time>
      </trkpt>
      <trkpt lat="27.928161" lon="-15.569432">
        <ele>847.00</ele>
        <time>2017-01-21T10:51:01.15Z</time>
      </trkpt>
      <trkpt lat="27.928173" lon="-15.569449">
        <ele>847.00</ele>
        <time>2017-01-21T10:51:09Z</time>
      </trkpt>
      <trkpt lat="27.928194" lon="-15.569454">
        <ele>846.00</ele>
        <time>2017-01-21T10:51:12Z</time>
      </trkpt>
      <trkpt lat="27.928195" lon="-15.569432">
        <ele>846.00</ele>
        <time>2017-01-21T10:51:16Z</time>
      </trkpt>
      <trkpt lat="27.928177" lon="-15.569423">
        <ele>846.00</ele>
        <time>2017-01-21T10:51:28Z</time>
      </trkpt>
      <trkpt lat="27.928190" lon="-15.569443">
        <ele>846.00</ele>
        <time>2017-01-21T10:51:37Z</time>
      </trkpt>
      <trkpt lat="27.928206" lon="-15.569458">
        <ele>846.00</ele>
        <time>2017-01-21T10:51:39Z</time>
      </trkpt>
      <trkpt lat="27.928226" lon="-15.569473">
        <ele>844.00</ele>
        <time>2017-01-21T10:51:42Z</time>
      </trkpt>
      <trkpt lat="27.928243" lon="-15.569486">
        <ele>844.00</ele>
        <time>2017-01-21T10:51:44Z</time>
      </trkpt>
      <trkpt lat="27.928263" lon="-15.569504">
        <ele>844.00</ele>
        <time>2017-01-21T10:51:46Z</time>
      </trkpt>
      <trkpt lat="27.928287" lon="-15.569518">
        <ele>844.00</ele>
        <time>2017-01-21T10:51:48Z</time>
      </trkpt>
      <trkpt lat="27.928316" lon="-15.569524">
        <ele>844.00</ele>
        <time>2017-01-21T10:51:50Z</time>
      </trkpt>
      <trkpt lat="27.928339" lon="-15.569535">
        <ele>844.00</ele>
        <time>2017-01-21T10:51:52Z</time>
      </trkpt>
      <trkpt lat="27.928363" lon="-15.569534">
        <ele>844.00</ele>
        <time>2017-01-21T10:51:54Z</time>
      </trkpt>
      <trkpt lat="27.928384" lon="-15.569539">
        <ele>844.00</ele>
        <time>2017-01-21T10:51:56Z</time>
      </trkpt>
      <trkpt lat="27.928402" lon="-15.569550">
        <ele>844.00</ele>
        <time>2017-01-21T10:51:58Z</time>
      </trkpt>
      <trkpt lat="27.928426" lon="-15.569559">
        <ele>843.00</ele>
        <time>2017-01-21T10:52:01Z</time>
      </trkpt>
      <trkpt lat="27.928430" lon="-15.569567">
        <ele>843.00</ele>
        <time>2017-01-21T10:52:01.97Z</time>
      </trkpt>
      <trkpt lat="27.928437" lon="-15.569577">
        <ele>843.00</ele>
        <time>2017-01-21T10:52:03Z</time>
      </trkpt>
      <trkpt lat="27.928455" lon="-15.569591">
        <ele>843.00</ele>
        <time>2017-01-21T10:52:05Z</time>
      </trkpt>
      <trkpt lat="27.928475" lon="-15.569604">
        <ele>843.00</ele>
        <time>2017-01-21T10:52:07Z</time>
      </trkpt>
      <trkpt lat="27.928527" lon="-15.569688">
        <ele>841.00</ele>
        <time>2017-01-21T10:52:16Z</time>
      </trkpt>
      <trkpt lat="27.928468" lon="-15.569780">
        <ele>841.00</ele>
        <time>2017-01-21T10:52:26Z</time>
      </trkpt>
      <trkpt lat="27.928456" lon="-15.569820">
        <ele>840.10</ele>
        <time>2017-01-21T10:52:30Z</time>
      </trkpt>
      <trkpt lat="27.928475" lon="-15.569832">
        <ele>840.00</ele>
        <time>2017-01-21T10:52:37Z</time>
      </trkpt>
      <trkpt lat="27.928481" lon="-15.569810">
        <ele>839.13</ele>
        <time>2017-01-21T10:52:40Z</time>
      </trkpt>
      <trkpt lat="27.928497" lon="-15.569792">
        <ele>839.00</ele>
        <time>2017-01-21T10:52:46Z</time>
      </trkpt>
      <trkpt lat="27.928513" lon="-15.569778">
        <ele>839.00</ele>
        <time>2017-01-21T10:52:51Z</time>
      </trkpt>
      <trkpt lat="27.928526" lon="-15.569758">
        <ele>839.00</ele>
        <time>2017-01-21T10:52:54Z</time>
      </trkpt>
      <trkpt lat="27.928538" lon="-15.569726">
        <ele>839.00</ele>
        <time>2017-01-21T10:52:59Z</time>
      </trkpt>
      <trkpt lat="27.928541" lon="-15.569698">
        <ele>842.00</ele>
        <time>2017-01-21T10:53:01Z</time>
      </trkpt>
      <trkpt lat="27.928538" lon="-15.569683">
        <ele>842.00</ele>
        <time>2017-01-21T10:53:02.15Z</time>
      </trkpt>
      <trkpt lat="27.928495" lon="-15.569590">
        <ele>844.00</ele>
        <time>2017-01-21T10:53:08Z</time>
      </trkpt>
      <trkpt lat="27.928456" lon="-15.569496">
        <ele>844.00</ele>
        <time>2017-01-21T10:53:15Z</time>
      </trkpt>
      <trkpt lat="27.928479" lon="-15.569389">
        <ele>846.00</ele>
        <time>2017-01-21T10:53:23Z</time>
      </trkpt>
      <trkpt lat="27.928546" lon="-15.569315">
        <ele>848.00</ele>
        <time>2017-01-21T10:53:32Z</time>
      </trkpt>
      <trkpt lat="27.928642" lon="-15.569287">
        <ele>850.00</ele>
        <time>2017-01-21T10:53:44Z</time>
      </trkpt>
      <trkpt lat="27.928748" lon="-15.569263">
        <ele>852.00</ele>
        <time>2017-01-21T10:53:52Z</time>
      </trkpt>
      <trkpt lat="27.928838" lon="-15.569276">
        <ele>854.00</ele>
        <time>2017-01-21T10:54:01Z</time>
      </trkpt>
      <trkpt lat="27.928850" lon="-15.569282">
        <ele>854.00</ele>
        <time>2017-01-21T10:54:02.48Z</time>
      </trkpt>
      <trkpt lat="27.928932" lon="-15.569318">
        <ele>856.00</ele>
        <time>2017-01-21T10:54:14Z</time>
      </trkpt>
      <trkpt lat="27.929026" lon="-15.569339">
        <ele>859.00</ele>
        <time>2017-01-21T10:54:22Z</time>
      </trkpt>
      <trkpt lat="27.929121" lon="-15.569309">
        <ele>860.00</ele>
        <time>2017-01-21T10:54:31Z</time>
      </trkpt>
      <trkpt lat="27.929180" lon="-15.569226">
        <ele>860.00</ele>
        <time>2017-01-21T10:54:38Z</time>
      </trkpt>
      <trkpt lat="27.929195" lon="-15.569209">
        <ele>862.00</ele>
        <time>2017-01-21T10:54:41Z</time>
      </trkpt>
      <trkpt lat="27.929242" lon="-15.569140">
        <ele>862.00</ele>
        <time>2017-01-21T10:54:48Z</time>
      </trkpt>
      <trkpt lat="27.929251" lon="-15.569118">
        <ele>865.00</ele>
        <time>2017-01-21T10:54:51Z</time>
      </trkpt>
      <trkpt lat="27.929263" lon="-15.569091">
        <ele>865.00</ele>
        <time>2017-01-21T10:54:53Z</time>
      </trkpt>
      <trkpt lat="27.929275" lon="-15.569074">
        <ele>865.19</ele>
        <time>2017-01-21T10:54:55Z</time>
      </trkpt>
      <trkpt lat="27.929293" lon="-15.569069">
        <ele>866.00</ele>
        <time>2017-01-21T10:54:57Z</time>
      </trkpt>
      <trkpt lat="27.929314" lon="-15.569055">
        <ele>866.00</ele>
        <time>2017-01-21T10:54:59Z</time>
      </trkpt>
      <trkpt lat="27.929329" lon="-15.569036">
        <ele>868.00</ele>
        <time>2017-01-21T10:55:01Z</time>
      </trkpt>
      <trkpt lat="27.929345" lon="-15.569016">
        <ele>868.00</ele>
        <time>2017-01-21T10:55:02.86Z</time>
      </trkpt>
      <trkpt lat="27.929345" lon="-15.569016">
        <ele>868.00</ele>
        <time>2017-01-21T10:55:03Z</time>
      </trkpt>
      <trkpt lat="27.929364" lon="-15.569004">
        <ele>868.00</ele>
        <time>2017-01-21T10:55:05Z</time>
      </trkpt>
      <trkpt lat="27.929391" lon="-15.568989">
        <ele>868.00</ele>
        <time>2017-01-21T10:55:08Z</time>
      </trkpt>
      <trkpt lat="27.929405" lon="-15.568970">
        <ele>868.08</ele>
        <time>2017-01-21T10:55:10Z</time>
      </trkpt>
      <trkpt lat="27.929424" lon="-15.568951">
        <ele>869.00</ele>
        <time>2017-01-21T10:55:12Z</time>
      </trkpt>
      <trkpt lat="27.929439" lon="-15.568929">
        <ele>869.00</ele>
        <time>2017-01-21T10:55:14Z</time>
      </trkpt>
      <trkpt lat="27.929459" lon="-15.568916">
        <ele>869.00</ele>
        <time>2017-01-21T10:55:16Z</time>
      </trkpt>
      <trkpt lat="27.929480" lon="-15.568897">
        <ele>869.00</ele>
        <time>2017-01-21T10:55:19Z</time>
      </trkpt>
      <trkpt lat="27.929489" lon="-15.568879">
        <ele>871.00</ele>
        <time>2017-01-21T10:55:21Z</time>
      </trkpt>
      <trkpt lat="27.929500" lon="-15.568852">
        <ele>871.00</ele>
        <time>2017-01-21T10:55:23Z</time>
      </trkpt>
      <trkpt lat="27.929508" lon="-15.568804">
        <ele>871.00</ele>
        <time>2017-01-21T10:55:25Z</time>
      </trkpt>
      <trkpt lat="27.929514" lon="-15.568756">
        <ele>871.00</ele>
        <time>2017-01-21T10:55:28Z</time>
      </trkpt>
      <trkpt lat="27.929501" lon="-15.568739">
        <ele>871.00</ele>
        <time>2017-01-21T10:55:29Z</time>
      </trkpt>
      <trkpt lat="27.929474" lon="-15.568712">
        <ele>874.00</ele>
        <time>2017-01-21T10:55:32Z</time>
      </trkpt>
      <trkpt lat="27.929401" lon="-15.568645">
        <ele>874.00</ele>
        <time>2017-01-21T10:55:41Z</time>
      </trkpt>
      <trkpt lat="27.929348" lon="-15.568556">
        <ele>875.60</ele>
        <time>2017-01-21T10:55:50Z</time>
      </trkpt>
      <trkpt lat="27.929355" lon="-15.568482">
        <ele>876.00</ele>
        <time>2017-01-21T10:55:57Z</time>
      </trkpt>
      <trkpt lat="27.929371" lon="-15.568466">
        <ele>876.00</ele>
        <time>2017-01-21T10:55:59Z</time>
      </trkpt>
      <trkpt lat="27.929397" lon="-15.568448">
        <ele>878.00</ele>
        <time>2017-01-21T10:56:03.27Z</time>
      </trkpt>
      <trkpt lat="27.929457" lon="-15.568426">
        <ele>878.00</ele>
        <time>2017-01-21T10:56:08Z</time>
      </trkpt>
      <trkpt lat="27.929553" lon="-15.568447">
        <ele>879.00</ele>
        <time>2017-01-21T10:56:17Z</time>
      </trkpt>
      <trkpt lat="27.929636" lon="-15.568497">
        <ele>880.00</ele>
        <time>2017-01-21T10:56:25Z</time>
      </trkpt>
      <trkpt lat="27.929730" lon="-15.568514">
        <ele>882.00</ele>
        <time>2017-01-21T10:56:32Z</time>
      </trkpt>
      <trkpt lat="27.929787" lon="-15.568532">
        <ele>882.00</ele>
        <time>2017-01-21T10:56:37Z</time>
      </trkpt>
      <trkpt lat="27.929806" lon="-15.568543">
        <ele>882.00</ele>
        <time>2017-01-21T10:56:39Z</time>
      </trkpt>
      <trkpt lat="27.929828" lon="-15.568552">
        <ele>884.00</ele>
        <time>2017-01-21T10:56:41Z</time>
      </trkpt>
      <trkpt lat="27.929851" lon="-15.568556">
        <ele>884.00</ele>
        <time>2017-01-21T10:56:43Z</time>
      </trkpt>
      <trkpt lat="27.929873" lon="-15.568562">
        <ele>884.00</ele>
        <time>2017-01-21T10:56:45Z</time>
      </trkpt>
      <trkpt lat="27.929897" lon="-15.568567">
        <ele>884.00</ele>
        <time>2017-01-21T10:56:47Z</time>
      </trkpt>
      <trkpt lat="27.929919" lon="-15.568580">
        <ele>884.85</ele>
        <time>2017-01-21T10:56:50Z</time>
      </trkpt>
      <trkpt lat="27.929939" lon="-15.568592">
        <ele>886.00</ele>
        <time>2017-01-21T10:56:52Z</time>
      </trkpt>
      <trkpt lat="27.929972" lon="-15.568498">
        <ele>888.00</ele>
        <time>2017-01-21T10:57:02Z</time>
      </trkpt>
      <trkpt lat="27.929965" lon="-15.568481">
        <ele>888.00</ele>
        <time>2017-01-21T10:57:03.68Z</time>
      </trkpt>
      <trkpt lat="27.929940" lon="-15.568394">
        <ele>890.00</ele>
        <time>2017-01-21T10:57:13Z</time>
      </trkpt>
      <trkpt lat="27.929930" lon="-15.568371">
        <ele>890.00</ele>
        <time>2017-01-21T10:57:17Z</time>
      </trkpt>
      <trkpt lat="27.929911" lon="-15.568257">
        <ele>891.00</ele>
        <time>2017-01-21T10:57:27Z</time>
      </trkpt>
      <trkpt lat="27.929881" lon="-15.568154">
        <ele>893.00</ele>
        <time>2017-01-21T10:57:38Z</time>
      </trkpt>
      <trkpt lat="27.929873" lon="-15.568095">
        <ele>895.00</ele>
        <time>2017-01-21T10:57:43Z</time>
      </trkpt>
      <trkpt lat="27.929868" lon="-15.568072">
        <ele>895.00</ele>
        <time>2017-01-21T10:57:45Z</time>
      </trkpt>
      <trkpt lat="27.929858" lon="-15.568053">
        <ele>897.00</ele>
        <time>2017-01-21T10:57:47Z</time>
      </trkpt>
      <trkpt lat="27.929851" lon="-15.568028">
        <ele>897.00</ele>
        <time>2017-01-21T10:57:50Z</time>
      </trkpt>
      <trkpt lat="27.929847" lon="-15.568008">
        <ele>898.00</ele>
        <time>2017-01-21T10:57:52Z</time>
      </trkpt>
      <trkpt lat="27.929836" lon="-15.567976">
        <ele>898.00</ele>
        <time>2017-01-21T10:57:55Z</time>
      </trkpt>
      <trkpt lat="27.929807" lon="-15.567890">
        <ele>899.00</ele>
        <time>2017-01-21T10:58:04.17Z</time>
      </trkpt>
      <trkpt lat="27.929800" lon="-15.567880">
        <ele>899.00</ele>
        <time>2017-01-21T10:58:05Z</time>
      </trkpt>
      <trkpt lat="27.929787" lon="-15.567858">
        <ele>899.00</ele>
        <time>2017-01-21T10:58:07Z</time>
      </trkpt>
      <trkpt lat="27.929770" lon="-15.567822">
        <ele>901.00</ele>
        <time>2017-01-21T10:58:11Z</time>
      </trkpt>
      <trkpt lat="27.929742" lon="-15.567798">
        <ele>901.00</ele>
        <time>2017-01-21T10:58:15Z</time>
      </trkpt>
      <trkpt lat="27.929649" lon="-15.567771">
        <ele>902.00</ele>
        <time>2017-01-21T10:58:26Z</time>
      </trkpt>
      <trkpt lat="27.929552" lon="-15.567758">
        <ele>904.00</ele>
        <time>2017-01-21T10:58:33Z</time>
      </trkpt>
      <trkpt lat="27.929495" lon="-15.567746">
        <ele>906.00</ele>
        <time>2017-01-21T10:58:44Z</time>
      </trkpt>
      <trkpt lat="27.929499" lon="-15.567725">
        <ele>906.00</ele>
        <time>2017-01-21T10:58:47Z</time>
      </trkpt>
      <trkpt lat="27.929514" lon="-15.567710">
        <ele>908.00</ele>
        <time>2017-01-21T10:58:51Z</time>
      </trkpt>
      <trkpt lat="27.929535" lon="-15.567705">
        <ele>908.00</ele>
        <time>2017-01-21T10:58:53Z</time>
      </trkpt>
      <trkpt lat="27.929552" lon="-15.567696">
        <ele>908.00</ele>
        <time>2017-01-21T10:58:55Z</time>
      </trkpt>
      <trkpt lat="27.929538" lon="-15.567602">
        <ele>910.00</ele>
        <time>2017-01-21T10:59:04.65Z</time>
      </trkpt>
      <trkpt lat="27.929532" lon="-15.567595">
        <ele>910.00</ele>
        <time>2017-01-21T10:59:06Z</time>
      </trkpt>
      <trkpt lat="27.929467" lon="-15.567545">
        <ele>912.00</ele>
        <time>2017-01-21T10:59:14Z</time>
      </trkpt>
      <trkpt lat="27.929410" lon="-15.567458">
        <ele>914.00</ele>
        <time>2017-01-21T10:59:23Z</time>
      </trkpt>
      <trkpt lat="27.929379" lon="-15.567345">
        <ele>916.00</ele>
        <time>2017-01-21T10:59:33Z</time>
      </trkpt>
      <trkpt lat="27.929376" lon="-15.567324">
        <ele>916.00</ele>
        <time>2017-01-21T10:59:35Z</time>
      </trkpt>
      <trkpt lat="27.929424" lon="-15.567236">
        <ele>917.00</ele>
        <time>2017-01-21T10:59:48Z</time>
      </trkpt>
      <trkpt lat="27.929465" lon="-15.567217">
        <ele>919.00</ele>
        <time>2017-01-21T10:59:53Z</time>
      </trkpt>
      <trkpt lat="27.929479" lon="-15.567251">
        <ele>919.00</ele>
        <time>2017-01-21T10:59:57Z</time>
      </trkpt>
      <trkpt lat="27.929503" lon="-15.567269">
        <ele>919.00</ele>
        <time>2017-01-21T10:59:59Z</time>
      </trkpt>
      <trkpt lat="27.929531" lon="-15.567278">
        <ele>922.00</ele>
        <time>2017-01-21T11:00:02Z</time>
      </trkpt>
      <trkpt lat="27.929556" lon="-15.567285">
        <ele>922.00</ele>
        <time>2017-01-21T11:00:04Z</time>
      </trkpt>
      <trkpt lat="27.929567" lon="-15.567285">
        <ele>922.00</ele>
        <time>2017-01-21T11:00:05.03Z</time>
      </trkpt>
      <trkpt lat="27.929578" lon="-15.567285">
        <ele>922.00</ele>
        <time>2017-01-21T11:00:06Z</time>
      </trkpt>
      <trkpt lat="27.929606" lon="-15.567278">
        <ele>922.00</ele>
        <time>2017-01-21T11:00:09Z</time>
      </trkpt>
      <trkpt lat="27.929633" lon="-15.567280">
        <ele>922.00</ele>
        <time>2017-01-21T11:00:11Z</time>
      </trkpt>
      <trkpt lat="27.929654" lon="-15.567274">
        <ele>922.00</ele>
        <time>2017-01-21T11:00:13Z</time>
      </trkpt>
      <trkpt lat="27.929674" lon="-15.567273">
        <ele>922.00</ele>
        <time>2017-01-21T11:00:16Z</time>
      </trkpt>
      <trkpt lat="27.929694" lon="-15.567278">
        <ele>922.00</ele>
        <time>2017-01-21T11:00:18Z</time>
      </trkpt>
      <trkpt lat="27.929713" lon="-15.567268">
        <ele>924.00</ele>
        <time>2017-01-21T11:00:21Z</time>
      </trkpt>
      <trkpt lat="27.929737" lon="-15.567283">
        <ele>924.00</ele>
        <time>2017-01-21T11:00:27Z</time>
      </trkpt>
      <trkpt lat="27.929755" lon="-15.567286">
        <ele>924.00</ele>
        <time>2017-01-21T11:00:29Z</time>
      </trkpt>
      <trkpt lat="27.929775" lon="-15.567287">
        <ele>926.00</ele>
        <time>2017-01-21T11:00:31Z</time>
      </trkpt>
      <trkpt lat="27.929802" lon="-15.567303">
        <ele>926.00</ele>
        <time>2017-01-21T11:00:34Z</time>
      </trkpt>
      <trkpt lat="27.929825" lon="-15.567320">
        <ele>926.00</ele>
        <time>2017-01-21T11:00:36Z</time>
      </trkpt>
      <trkpt lat="27.929838" lon="-15.567338">
        <ele>926.00</ele>
        <time>2017-01-21T11:00:38Z</time>
      </trkpt>
      <trkpt lat="27.929891" lon="-15.567348">
        <ele>927.00</ele>
        <time>2017-01-21T11:00:44Z</time>
      </trkpt>
      <trkpt lat="27.929916" lon="-15.567354">
        <ele>927.00</ele>
        <time>2017-01-21T11:00:47Z</time>
      </trkpt>
      <trkpt lat="27.929937" lon="-15.567358">
        <ele>927.00</ele>
        <time>2017-01-21T11:00:49Z</time>
      </trkpt>
      <trkpt lat="27.929964" lon="-15.567356">
        <ele>930.00</ele>
        <time>2017-01-21T11:00:51Z</time>
      </trkpt>
      <trkpt lat="27.929982" lon="-15.567356">
        <ele>930.00</ele>
        <time>2017-01-21T11:00:53Z</time>
      </trkpt>
      <trkpt lat="27.930003" lon="-15.567367">
        <ele>931.00</ele>
        <time>2017-01-21T11:00:56Z</time>
      </trkpt>
      <trkpt lat="27.930029" lon="-15.567387">
        <ele>931.00</ele>
        <time>2017-01-21T11:00:59Z</time>
      </trkpt>
      <trkpt lat="27.930052" lon="-15.567395">
        <ele>931.00</ele>
        <time>2017-01-21T11:01:03Z</time>
      </trkpt>
      <trkpt lat="27.930078" lon="-15.567397">
        <ele>931.00</ele>
        <time>2017-01-21T11:01:05.42Z</time>
      </trkpt>
      <trkpt lat="27.930078" lon="-15.567397">
        <ele>931.00</ele>
        <time>2017-01-21T11:01:06Z</time>
      </trkpt>
      <trkpt lat="27.930104" lon="-15.567397">
        <ele>931.00</ele>
        <time>2017-01-21T11:01:08Z</time>
      </trkpt>
      <trkpt lat="27.930136" lon="-15.567394">
        <ele>931.54</ele>
        <time>2017-01-21T11:01:10Z</time>
      </trkpt>
      <trkpt lat="27.930222" lon="-15.567359">
        <ele>932.00</ele>
        <time>2017-01-21T11:01:17Z</time>
      </trkpt>
      <trkpt lat="27.930255" lon="-15.567341">
        <ele>932.47</ele>
        <time>2017-01-21T11:01:20Z</time>
      </trkpt>
      <trkpt lat="27.930268" lon="-15.567324">
        <ele>933.00</ele>
        <time>2017-01-21T11:01:22Z</time>
      </trkpt>
      <trkpt lat="27.930287" lon="-15.567310">
        <ele>933.00</ele>
        <time>2017-01-21T11:01:24Z</time>
      </trkpt>
      <trkpt lat="27.930310" lon="-15.567292">
        <ele>933.00</ele>
        <time>2017-01-21T11:01:26Z</time>
      </trkpt>
      <trkpt lat="27.930332" lon="-15.567281">
        <ele>933.00</ele>
        <time>2017-01-21T11:01:28Z</time>
      </trkpt>
      <trkpt lat="27.930414" lon="-15.567286">
        <ele>933.00</ele>
        <time>2017-01-21T11:01:36Z</time>
      </trkpt>
      <trkpt lat="27.930439" lon="-15.567282">
        <ele>933.00</ele>
        <time>2017-01-21T11:01:38Z</time>
      </trkpt>
      <trkpt lat="27.930463" lon="-15.567275">
        <ele>933.00</ele>
        <time>2017-01-21T11:01:40Z</time>
      </trkpt>
      <trkpt lat="27.930489" lon="-15.567266">
        <ele>933.00</ele>
        <time>2017-01-21T11:01:42Z</time>
      </trkpt>
      <trkpt lat="27.930524" lon="-15.567255">
        <ele>933.00</ele>
        <time>2017-01-21T11:01:44Z</time>
      </trkpt>
      <trkpt lat="27.930553" lon="-15.567248">
        <ele>933.00</ele>
        <time>2017-01-21T11:01:46Z</time>
      </trkpt>
      <trkpt lat="27.930577" lon="-15.567248">
        <ele>933.00</ele>
        <time>2017-01-21T11:01:48Z</time>
      </trkpt>
      <trkpt lat="27.930592" lon="-15.567236">
        <ele>933.00</ele>
        <time>2017-01-21T11:01:50Z</time>
      </trkpt>
      <trkpt lat="27.930619" lon="-15.567225">
        <ele>933.00</ele>
        <time>2017-01-21T11:01:52Z</time>
      </trkpt>
      <trkpt lat="27.930645" lon="-15.567208">
        <ele>933.00</ele>
        <time>2017-01-21T11:01:54Z</time>
      </trkpt>
      <trkpt lat="27.930665" lon="-15.567196">
        <ele>933.00</ele>
        <time>2017-01-21T11:01:56Z</time>
      </trkpt>
      <trkpt lat="27.930684" lon="-15.567189">
        <ele>933.00</ele>
        <time>2017-01-21T11:01:58Z</time>
      </trkpt>
      <trkpt lat="27.930704" lon="-15.567186">
        <ele>932.70</ele>
        <time>2017-01-21T11:02:00Z</time>
      </trkpt>
      <trkpt lat="27.930733" lon="-15.567191">
        <ele>931.00</ele>
        <time>2017-01-21T11:02:02Z</time>
      </trkpt>
      <trkpt lat="27.930758" lon="-15.567194">
        <ele>931.00</ele>
        <time>2017-01-21T11:02:04Z</time>
      </trkpt>
      <trkpt lat="27.930787" lon="-15.567181">
        <ele>930.00</ele>
        <time>2017-01-21T11:02:05.89Z</time>
      </trkpt>
      <trkpt lat="27.930827" lon="-15.567153">
        <ele>930.00</ele>
        <time>2017-01-21T11:02:09Z</time>
      </trkpt>
      <trkpt lat="27.930851" lon="-15.567147">
        <ele>931.00</ele>
        <time>2017-01-21T11:02:11Z</time>
      </trkpt>
      <trkpt lat="27.930871" lon="-15.567148">
        <ele>931.00</ele>
        <time>2017-01-21T11:02:13Z</time>
      </trkpt>
      <trkpt lat="27.930899" lon="-15.567151">
        <ele>931.00</ele>
        <time>2017-01-21T11:02:16Z</time>
      </trkpt>
      <trkpt lat="27.930922" lon="-15.567156">
        <ele>931.00</ele>
        <time>2017-01-21T11:02:18Z</time>
      </trkpt>
      <trkpt lat="27.930945" lon="-15.567156">
        <ele>931.01</ele>
        <time>2017-01-21T11:02:20Z</time>
      </trkpt>
      <trkpt lat="27.930964" lon="-15.567164">
        <ele>932.00</ele>
        <time>2017-01-21T11:02:22Z</time>
      </trkpt>
      <trkpt lat="27.931000" lon="-15.567147">
        <ele>932.00</ele>
        <time>2017-01-21T11:02:26Z</time>
      </trkpt>
      <trkpt lat="27.931051" lon="-15.567134">
        <ele>934.00</ele>
        <time>2017-01-21T11:02:32Z</time>
      </trkpt>
      <trkpt lat="27.931076" lon="-15.567136">
        <ele>934.00</ele>
        <time>2017-01-21T11:02:36Z</time>
      </trkpt>
      <trkpt lat="27.931095" lon="-15.567149">
        <ele>934.00</ele>
        <time>2017-01-21T11:02:39Z</time>
      </trkpt>
      <trkpt lat="27.931120" lon="-15.567152">
        <ele>937.00</ele>
        <time>2017-01-21T11:02:42Z</time>
      </trkpt>
      <trkpt lat="27.931140" lon="-15.567152">
        <ele>937.00</ele>
        <time>2017-01-21T11:02:44Z</time>
      </trkpt>
      <trkpt lat="27.931171" lon="-15.567154">
        <ele>938.00</ele>
        <time>2017-01-21T11:02:47Z</time>
      </trkpt>
      <trkpt lat="27.931198" lon="-15.567154">
        <ele>938.00</ele>
        <time>2017-01-21T11:02:50Z</time>
      </trkpt>
      <trkpt lat="27.931220" lon="-15.567157">
        <ele>938.00</ele>
        <time>2017-01-21T11:02:52.44Z</time>
      </trkpt>
      <trkpt lat="27.931253" lon="-15.567142">
        <ele>938.00</ele>
        <time>2017-01-21T11:02:56Z</time>
      </trkpt>
      <trkpt lat="27.931270" lon="-15.567114">
        <ele>940.00</ele>
        <time>2017-01-21T11:03:01Z</time>
      </trkpt>
      <trkpt lat="27.931293" lon="-15.567114">
        <ele>940.00</ele>
        <time>2017-01-21T11:03:03Z</time>
      </trkpt>
      <trkpt lat="27.931311" lon="-15.567116">
        <ele>940.00</ele>
        <time>2017-01-21T11:03:05Z</time>
      </trkpt>
      <trkpt lat="27.931320" lon="-15.567117">
        <ele>940.00</ele>
        <time>2017-01-21T11:03:06.28Z</time>
      </trkpt>
      <trkpt lat="27.931335" lon="-15.567115">
        <ele>940.00</ele>
        <time>2017-01-21T11:03:08Z</time>
      </trkpt>
      <trkpt lat="27.931340" lon="-15.567095">
        <ele>941.00</ele>
        <time>2017-01-21T11:03:12Z</time>
      </trkpt>
      <trkpt lat="27.931325" lon="-15.567074">
        <ele>941.00</ele>
        <time>2017-01-21T11:03:15Z</time>
      </trkpt>
      <trkpt lat="27.931316" lon="-15.567049">
        <ele>941.00</ele>
        <time>2017-01-21T11:03:18Z</time>
      </trkpt>
      <trkpt lat="27.931303" lon="-15.567032">
        <ele>944.00</ele>
        <time>2017-01-21T11:03:23Z</time>
      </trkpt>
      <trkpt lat="27.931293" lon="-15.567012">
        <ele>946.00</ele>
        <time>2017-01-21T11:03:26Z</time>
      </trkpt>
      <trkpt lat="27.931279" lon="-15.566995">
        <ele>946.00</ele>
        <time>2017-01-21T11:03:29Z</time>
      </trkpt>
      <trkpt lat="27.931299" lon="-15.566928">
        <ele>946.00</ele>
        <time>2017-01-21T11:03:37Z</time>
      </trkpt>
      <trkpt lat="27.931320" lon="-15.566907">
        <ele>947.22</ele>
        <time>2017-01-21T11:03:40Z</time>
      </trkpt>
      <trkpt lat="27.931344" lon="-15.566895">
        <ele>948.00</ele>
        <time>2017-01-21T11:03:43Z</time>
      </trkpt>
      <trkpt lat="27.931363" lon="-15.566878">
        <ele>948.00</ele>
        <time>2017-01-21T11:03:45Z</time>
      </trkpt>
      <trkpt lat="27.931372" lon="-15.566850">
        <ele>948.00</ele>
        <time>2017-01-21T11:03:48Z</time>
      </trkpt>
      <trkpt lat="27.931381" lon="-15.566832">
        <ele>948.59</ele>
        <time>2017-01-21T11:03:50Z</time>
      </trkpt>
      <trkpt lat="27.931395" lon="-15.566812">
        <ele>949.00</ele>
        <time>2017-01-21T11:03:52Z</time>
      </trkpt>
      <trkpt lat="27.931405" lon="-15.566794">
        <ele>949.00</ele>
        <time>2017-01-21T11:03:55Z</time>
      </trkpt>
      <trkpt lat="27.931422" lon="-15.566778">
        <ele>949.00</ele>
        <time>2017-01-21T11:03:59Z</time>
      </trkpt>
      <trkpt lat="27.931442" lon="-15.566770">
        <ele>952.00</ele>
        <time>2017-01-21T11:04:01Z</time>
      </trkpt>
      <trkpt lat="27.931462" lon="-15.566766">
        <ele>952.00</ele>
        <time>2017-01-21T11:04:03Z</time>
      </trkpt>
      <trkpt lat="27.931490" lon="-15.566758">
        <ele>952.50</ele>
        <time>2017-01-21T11:04:05Z</time>
      </trkpt>
      <trkpt lat="27.931511" lon="-15.566749">
        <ele>953.00</ele>
        <time>2017-01-21T11:04:06.51Z</time>
      </trkpt>
      <trkpt lat="27.931511" lon="-15.566749">
        <ele>953.00</ele>
        <time>2017-01-21T11:04:07Z</time>
      </trkpt>
      <trkpt lat="27.931536" lon="-15.566746">
        <ele>953.00</ele>
        <time>2017-01-21T11:04:09Z</time>
      </trkpt>
      <trkpt lat="27.931624" lon="-15.566717">
        <ele>953.00</ele>
        <time>2017-01-21T11:04:16Z</time>
      </trkpt>
      <trkpt lat="27.931678" lon="-15.566645">
        <ele>954.00</ele>
        <time>2017-01-21T11:04:24Z</time>
      </trkpt>
      <trkpt lat="27.931690" lon="-15.566620">
        <ele>954.00</ele>
        <time>2017-01-21T11:04:26Z</time>
      </trkpt>
      <trkpt lat="27.931716" lon="-15.566568">
        <ele>954.65</ele>
        <time>2017-01-21T11:04:30Z</time>
      </trkpt>
      <trkpt lat="27.931735" lon="-15.566552">
        <ele>956.00</ele>
        <time>2017-01-21T11:04:32Z</time>
      </trkpt>
      <trkpt lat="27.931758" lon="-15.566532">
        <ele>956.00</ele>
        <time>2017-01-21T11:04:34Z</time>
      </trkpt>
      <trkpt lat="27.931769" lon="-15.566514">
        <ele>956.00</ele>
        <time>2017-01-21T11:04:35Z</time>
      </trkpt>
      <trkpt lat="27.931783" lon="-15.566496">
        <ele>956.00</ele>
        <time>2017-01-21T11:04:37Z</time>
      </trkpt>
      <trkpt lat="27.931801" lon="-15.566472">
        <ele>956.00</ele>
        <time>2017-01-21T11:04:39Z</time>
      </trkpt>
      <trkpt lat="27.931820" lon="-15.566445">
        <ele>957.00</ele>
        <time>2017-01-21T11:04:41Z</time>
      </trkpt>
      <trkpt lat="27.931839" lon="-15.566432">
        <ele>957.00</ele>
        <time>2017-01-21T11:04:43Z</time>
      </trkpt>
      <trkpt lat="27.931886" lon="-15.566410">
        <ele>957.00</ele>
        <time>2017-01-21T11:04:47Z</time>
      </trkpt>
      <trkpt lat="27.931907" lon="-15.566400">
        <ele>957.00</ele>
        <time>2017-01-21T11:04:49Z</time>
      </trkpt>
      <trkpt lat="27.931930" lon="-15.566390">
        <ele>958.00</ele>
        <time>2017-01-21T11:04:52Z</time>
      </trkpt>
      <trkpt lat="27.931950" lon="-15.566378">
        <ele>958.00</ele>
        <time>2017-01-21T11:04:54Z</time>
      </trkpt>
      <trkpt lat="27.931970" lon="-15.566364">
        <ele>958.00</ele>
        <time>2017-01-21T11:04:56Z</time>
      </trkpt>
      <trkpt lat="27.931992" lon="-15.566351">
        <ele>958.00</ele>
        <time>2017-01-21T11:04:59Z</time>
      </trkpt>
      <trkpt lat="27.932016" lon="-15.566346">
        <ele>959.00</ele>
        <time>2017-01-21T11:05:02Z</time>
      </trkpt>
      <trkpt lat="27.932039" lon="-15.566347">
        <ele>959.00</ele>
        <time>2017-01-21T11:05:04Z</time>
      </trkpt>
      <trkpt lat="27.932061" lon="-15.566346">
        <ele>959.00</ele>
        <time>2017-01-21T11:05:06Z</time>
      </trkpt>
      <trkpt lat="27.932070" lon="-15.566342">
        <ele>959.00</ele>
        <time>2017-01-21T11:05:06.92Z</time>
      </trkpt>
      <trkpt lat="27.932078" lon="-15.566334">
        <ele>959.00</ele>
        <time>2017-01-21T11:05:08Z</time>
      </trkpt>
      <trkpt lat="27.932092" lon="-15.566318">
        <ele>959.06</ele>
        <time>2017-01-21T11:05:10Z</time>
      </trkpt>
      <trkpt lat="27.932109" lon="-15.566305">
        <ele>960.00</ele>
        <time>2017-01-21T11:05:12Z</time>
      </trkpt>
      <trkpt lat="27.932125" lon="-15.566292">
        <ele>960.00</ele>
        <time>2017-01-21T11:05:14Z</time>
      </trkpt>
      <trkpt lat="27.932146" lon="-15.566289">
        <ele>960.00</ele>
        <time>2017-01-21T11:05:16Z</time>
      </trkpt>
      <trkpt lat="27.932168" lon="-15.566286">
        <ele>960.00</ele>
        <time>2017-01-21T11:05:18Z</time>
      </trkpt>
      <trkpt lat="27.932186" lon="-15.566285">
        <ele>960.01</ele>
        <time>2017-01-21T11:05:20Z</time>
      </trkpt>
      <trkpt lat="27.932205" lon="-15.566296">
        <ele>962.00</ele>
        <time>2017-01-21T11:05:22Z</time>
      </trkpt>
      <trkpt lat="27.932226" lon="-15.566293">
        <ele>962.00</ele>
        <time>2017-01-21T11:05:26Z</time>
      </trkpt>
      <trkpt lat="27.932257" lon="-15.566294">
        <ele>962.00</ele>
        <time>2017-01-21T11:05:29Z</time>
      </trkpt>
      <trkpt lat="27.932286" lon="-15.566290">
        <ele>965.00</ele>
        <time>2017-01-21T11:05:31Z</time>
      </trkpt>
      <trkpt lat="27.932306" lon="-15.566298">
        <ele>965.00</ele>
        <time>2017-01-21T11:05:33Z</time>
      </trkpt>
      <trkpt lat="27.932328" lon="-15.566296">
        <ele>965.00</ele>
        <time>2017-01-21T11:05:35Z</time>
      </trkpt>
      <trkpt lat="27.932355" lon="-15.566301">
        <ele>965.00</ele>
        <time>2017-01-21T11:05:38Z</time>
      </trkpt>
      <trkpt lat="27.932381" lon="-15.566307">
        <ele>966.00</ele>
        <time>2017-01-21T11:05:41Z</time>
      </trkpt>
      <trkpt lat="27.932403" lon="-15.566308">
        <ele>966.00</ele>
        <time>2017-01-21T11:05:44Z</time>
      </trkpt>
      <trkpt lat="27.932426" lon="-15.566289">
        <ele>966.00</ele>
        <time>2017-01-21T11:05:47Z</time>
      </trkpt>
      <trkpt lat="27.932446" lon="-15.566284">
        <ele>966.00</ele>
        <time>2017-01-21T11:05:49Z</time>
      </trkpt>
      <trkpt lat="27.932467" lon="-15.566271">
        <ele>967.00</ele>
        <time>2017-01-21T11:05:52Z</time>
      </trkpt>
      <trkpt lat="27.932485" lon="-15.566258">
        <ele>967.00</ele>
        <time>2017-01-21T11:05:55Z</time>
      </trkpt>
      <trkpt lat="27.932507" lon="-15.566248">
        <ele>967.00</ele>
        <time>2017-01-21T11:05:57Z</time>
      </trkpt>
      <trkpt lat="27.932527" lon="-15.566245">
        <ele>967.00</ele>
        <time>2017-01-21T11:05:59Z</time>
      </trkpt>
      <trkpt lat="27.932549" lon="-15.566245">
        <ele>969.00</ele>
        <time>2017-01-21T11:06:01Z</time>
      </trkpt>
      <trkpt lat="27.932568" lon="-15.566251">
        <ele>969.00</ele>
        <time>2017-01-21T11:06:03Z</time>
      </trkpt>
      <trkpt lat="27.932591" lon="-15.566247">
        <ele>969.00</ele>
        <time>2017-01-21T11:06:05Z</time>
      </trkpt>
      <trkpt lat="27.932613" lon="-15.566249">
        <ele>969.00</ele>
        <time>2017-01-21T11:06:07Z</time>
      </trkpt>
      <trkpt lat="27.932625" lon="-15.566248">
        <ele>969.00</ele>
        <time>2017-01-21T11:06:07.33Z</time>
      </trkpt>
      <trkpt lat="27.932640" lon="-15.566247">
        <ele>970.32</ele>
        <time>2017-01-21T11:06:10Z</time>
      </trkpt>
      <trkpt lat="27.932664" lon="-15.566250">
        <ele>971.00</ele>
        <time>2017-01-21T11:06:12Z</time>
      </trkpt>
      <trkpt lat="27.932686" lon="-15.566251">
        <ele>971.00</ele>
        <time>2017-01-21T11:06:14Z</time>
      </trkpt>
      <trkpt lat="27.932704" lon="-15.566252">
        <ele>971.00</ele>
        <time>2017-01-21T11:06:16Z</time>
      </trkpt>
      <trkpt lat="27.932726" lon="-15.566261">
        <ele>971.00</ele>
        <time>2017-01-21T11:06:19Z</time>
      </trkpt>
      <trkpt lat="27.932748" lon="-15.566260">
        <ele>973.00</ele>
        <time>2017-01-21T11:06:29Z</time>
      </trkpt>
      <trkpt lat="27.932774" lon="-15.566258">
        <ele>974.00</ele>
        <time>2017-01-21T11:06:31Z</time>
      </trkpt>
      <trkpt lat="27.932796" lon="-15.566263">
        <ele>974.00</ele>
        <time>2017-01-21T11:06:33Z</time>
      </trkpt>
      <trkpt lat="27.932814" lon="-15.566271">
        <ele>974.00</ele>
        <time>2017-01-21T11:06:35Z</time>
      </trkpt>
      <trkpt lat="27.932835" lon="-15.566276">
        <ele>974.00</ele>
        <time>2017-01-21T11:06:37Z</time>
      </trkpt>
      <trkpt lat="27.932860" lon="-15.566274">
        <ele>974.00</ele>
        <time>2017-01-21T11:06:39Z</time>
      </trkpt>
      <trkpt lat="27.932951" lon="-15.566237">
        <ele>974.00</ele>
        <time>2017-01-21T11:06:49Z</time>
      </trkpt>
      <trkpt lat="27.932985" lon="-15.566214">
        <ele>975.00</ele>
        <time>2017-01-21T11:06:52Z</time>
      </trkpt>
      <trkpt lat="27.933006" lon="-15.566200">
        <ele>975.00</ele>
        <time>2017-01-21T11:06:54Z</time>
      </trkpt>
      <trkpt lat="27.933023" lon="-15.566187">
        <ele>975.00</ele>
        <time>2017-01-21T11:06:56Z</time>
      </trkpt>
      <trkpt lat="27.933042" lon="-15.566173">
        <ele>975.00</ele>
        <time>2017-01-21T11:06:58Z</time>
      </trkpt>
      <trkpt lat="27.933065" lon="-15.566158">
        <ele>977.00</ele>
        <time>2017-01-21T11:07:01Z</time>
      </trkpt>
      <trkpt lat="27.933079" lon="-15.566137">
        <ele>977.00</ele>
        <time>2017-01-21T11:07:03Z</time>
      </trkpt>
      <trkpt lat="27.933092" lon="-15.566105">
        <ele>977.00</ele>
        <time>2017-01-21T11:07:05Z</time>
      </trkpt>
      <trkpt lat="27.933099" lon="-15.566084">
        <ele>977.00</ele>
        <time>2017-01-21T11:07:07Z</time>
      </trkpt>
      <trkpt lat="27.933106" lon="-15.566080">
        <ele>977.00</ele>
        <time>2017-01-21T11:07:07.66Z</time>
      </trkpt>
      <trkpt lat="27.933120" lon="-15.566072">
        <ele>977.00</ele>
        <time>2017-01-21T11:07:09Z</time>
      </trkpt>
      <trkpt lat="27.933145" lon="-15.566063">
        <ele>977.00</ele>
        <time>2017-01-21T11:07:12Z</time>
      </trkpt>
      <trkpt lat="27.933166" lon="-15.566054">
        <ele>977.00</ele>
        <time>2017-01-21T11:07:15Z</time>
      </trkpt>
      <trkpt lat="27.933184" lon="-15.566034">
        <ele>977.00</ele>
        <time>2017-01-21T11:07:18Z</time>
      </trkpt>
      <trkpt lat="27.933190" lon="-15.566008">
        <ele>977.22</ele>
        <time>2017-01-21T11:07:20Z</time>
      </trkpt>
      <trkpt lat="27.933205" lon="-15.565979">
        <ele>978.00</ele>
        <time>2017-01-21T11:07:22Z</time>
      </trkpt>
      <trkpt lat="27.933225" lon="-15.565961">
        <ele>978.00</ele>
        <time>2017-01-21T11:07:24Z</time>
      </trkpt>
      <trkpt lat="27.933242" lon="-15.565945">
        <ele>978.00</ele>
        <time>2017-01-21T11:07:27Z</time>
      </trkpt>
      <trkpt lat="27.933281" lon="-15.565902">
        <ele>980.00</ele>
        <time>2017-01-21T11:07:33Z</time>
      </trkpt>
      <trkpt lat="27.933300" lon="-15.565875">
        <ele>980.00</ele>
        <time>2017-01-21T11:07:35Z</time>
      </trkpt>
      <trkpt lat="27.933323" lon="-15.565850">
        <ele>980.00</ele>
        <time>2017-01-21T11:07:37Z</time>
      </trkpt>
      <trkpt lat="27.933337" lon="-15.565836">
        <ele>980.00</ele>
        <time>2017-01-21T11:07:39Z</time>
      </trkpt>
      <trkpt lat="27.933363" lon="-15.565825">
        <ele>982.00</ele>
        <time>2017-01-21T11:07:42Z</time>
      </trkpt>
      <trkpt lat="27.933379" lon="-15.565834">
        <ele>982.00</ele>
        <time>2017-01-21T11:07:49Z</time>
      </trkpt>
      <trkpt lat="27.933386" lon="-15.565854">
        <ele>983.00</ele>
        <time>2017-01-21T11:07:52Z</time>
      </trkpt>
      <trkpt lat="27.933406" lon="-15.565868">
        <ele>983.00</ele>
        <time>2017-01-21T11:07:56Z</time>
      </trkpt>
      <trkpt lat="27.933425" lon="-15.565878">
        <ele>983.00</ele>
        <time>2017-01-21T11:07:59Z</time>
      </trkpt>
      <trkpt lat="27.933444" lon="-15.565862">
        <ele>984.00</ele>
        <time>2017-01-21T11:08:05Z</time>
      </trkpt>
      <trkpt lat="27.933454" lon="-15.565848">
        <ele>984.00</ele>
        <time>2017-01-21T11:08:08.15Z</time>
      </trkpt>
      <trkpt lat="27.933458" lon="-15.565847">
        <ele>984.00</ele>
        <time>2017-01-21T11:08:09Z</time>
      </trkpt>
      <trkpt lat="27.933485" lon="-15.565856">
        <ele>985.00</ele>
        <time>2017-01-21T11:08:13Z</time>
      </trkpt>
      <trkpt lat="27.933505" lon="-15.565867">
        <ele>985.00</ele>
        <time>2017-01-21T11:08:16Z</time>
      </trkpt>
      <trkpt lat="27.933526" lon="-15.565885">
        <ele>985.00</ele>
        <time>2017-01-21T11:08:19Z</time>
      </trkpt>
      <trkpt lat="27.933546" lon="-15.565891">
        <ele>986.00</ele>
        <time>2017-01-21T11:08:22Z</time>
      </trkpt>
      <trkpt lat="27.933564" lon="-15.565873">
        <ele>986.00</ele>
        <time>2017-01-21T11:08:25Z</time>
      </trkpt>
      <trkpt lat="27.933587" lon="-15.565874">
        <ele>986.00</ele>
        <time>2017-01-21T11:08:29Z</time>
      </trkpt>
      <trkpt lat="27.933600" lon="-15.565898">
        <ele>987.00</ele>
        <time>2017-01-21T11:08:32Z</time>
      </trkpt>
      <trkpt lat="27.933623" lon="-15.565911">
        <ele>987.00</ele>
        <time>2017-01-21T11:08:35Z</time>
      </trkpt>
      <trkpt lat="27.933642" lon="-15.565906">
        <ele>989.00</ele>
        <time>2017-01-21T11:08:41Z</time>
      </trkpt>
      <trkpt lat="27.933660" lon="-15.565898">
        <ele>989.00</ele>
        <time>2017-01-21T11:08:44Z</time>
      </trkpt>
      <trkpt lat="27.933686" lon="-15.565900">
        <ele>989.00</ele>
        <time>2017-01-21T11:08:47Z</time>
      </trkpt>
      <trkpt lat="27.933704" lon="-15.565900">
        <ele>989.00</ele>
        <time>2017-01-21T11:08:49Z</time>
      </trkpt>
      <trkpt lat="27.933728" lon="-15.565885">
        <ele>991.00</ele>
        <time>2017-01-21T11:08:52Z</time>
      </trkpt>
      <trkpt lat="27.933741" lon="-15.565866">
        <ele>991.00</ele>
        <time>2017-01-21T11:08:54Z</time>
      </trkpt>
      <trkpt lat="27.933760" lon="-15.565850">
        <ele>991.00</ele>
        <time>2017-01-21T11:08:56Z</time>
      </trkpt>
      <trkpt lat="27.933776" lon="-15.565840">
        <ele>991.00</ele>
        <time>2017-01-21T11:08:58Z</time>
      </trkpt>
      <trkpt lat="27.933792" lon="-15.565831">
        <ele>992.05</ele>
        <time>2017-01-21T11:09:00Z</time>
      </trkpt>
      <trkpt lat="27.933804" lon="-15.565816">
        <ele>993.00</ele>
        <time>2017-01-21T11:09:02Z</time>
      </trkpt>
      <trkpt lat="27.933824" lon="-15.565812">
        <ele>993.00</ele>
        <time>2017-01-21T11:09:05Z</time>
      </trkpt>
      <trkpt lat="27.933844" lon="-15.565821">
        <ele>993.00</ele>
        <time>2017-01-21T11:09:07Z</time>
      </trkpt>
      <trkpt lat="27.933860" lon="-15.565826">
        <ele>993.00</ele>
        <time>2017-01-21T11:09:08.51Z</time>
      </trkpt>
      <trkpt lat="27.933871" lon="-15.565828">
        <ele>993.48</ele>
        <time>2017-01-21T11:09:10Z</time>
      </trkpt>
      <trkpt lat="27.933893" lon="-15.565840">
        <ele>994.00</ele>
        <time>2017-01-21T11:09:14Z</time>
      </trkpt>
      <trkpt lat="27.933917" lon="-15.565846">
        <ele>994.00</ele>
        <time>2017-01-21T11:09:16Z</time>
      </trkpt>
      <trkpt lat="27.933938" lon="-15.565849">
        <ele>994.00</ele>
        <time>2017-01-21T11:09:18Z</time>
      </trkpt>
      <trkpt lat="27.933956" lon="-15.565849">
        <ele>994.00</ele>
        <time>2017-01-21T11:09:20Z</time>
      </trkpt>
      <trkpt lat="27.933990" lon="-15.565841">
        <ele>994.00</ele>
        <time>2017-01-21T11:09:26Z</time>
      </trkpt>
      <trkpt lat="27.934018" lon="-15.565839">
        <ele>994.00</ele>
        <time>2017-01-21T11:09:28Z</time>
      </trkpt>
      <trkpt lat="27.934039" lon="-15.565842">
        <ele>994.32</ele>
        <time>2017-01-21T11:09:30Z</time>
      </trkpt>
      <trkpt lat="27.934052" lon="-15.565861">
        <ele>995.00</ele>
        <time>2017-01-21T11:09:32Z</time>
      </trkpt>
      <trkpt lat="27.934060" lon="-15.565886">
        <ele>995.00</ele>
        <time>2017-01-21T11:09:34Z</time>
      </trkpt>
      <trkpt lat="27.934069" lon="-15.565910">
        <ele>995.00</ele>
        <time>2017-01-21T11:09:36Z</time>
      </trkpt>
      <trkpt lat="27.934072" lon="-15.565930">
        <ele>995.00</ele>
        <time>2017-01-21T11:09:38Z</time>
      </trkpt>
      <trkpt lat="27.934076" lon="-15.565950">
        <ele>995.24</ele>
        <time>2017-01-21T11:09:40Z</time>
      </trkpt>
      <trkpt lat="27.934077" lon="-15.565978">
        <ele>996.00</ele>
        <time>2017-01-21T11:09:42Z</time>
      </trkpt>
      <trkpt lat="27.934078" lon="-15.566005">
        <ele>996.00</ele>
        <time>2017-01-21T11:09:44Z</time>
      </trkpt>
      <trkpt lat="27.934080" lon="-15.566034">
        <ele>996.00</ele>
        <time>2017-01-21T11:09:46Z</time>
      </trkpt>
      <trkpt lat="27.934085" lon="-15.566066">
        <ele>996.00</ele>
        <time>2017-01-21T11:09:48Z</time>
      </trkpt>
      <trkpt lat="27.934077" lon="-15.566089">
        <ele>996.00</ele>
        <time>2017-01-21T11:09:50Z</time>
      </trkpt>
      <trkpt lat="27.934075" lon="-15.566115">
        <ele>996.00</ele>
        <time>2017-01-21T11:09:52Z</time>
      </trkpt>
      <trkpt lat="27.934071" lon="-15.566136">
        <ele>996.00</ele>
        <time>2017-01-21T11:09:54Z</time>
      </trkpt>
      <trkpt lat="27.934088" lon="-15.566158">
        <ele>996.00</ele>
        <time>2017-01-21T11:09:56Z</time>
      </trkpt>
      <trkpt lat="27.934106" lon="-15.566176">
        <ele>996.00</ele>
        <time>2017-01-21T11:09:58Z</time>
      </trkpt>
      <trkpt lat="27.934129" lon="-15.566182">
        <ele>996.00</ele>
        <time>2017-01-21T11:10:00Z</time>
      </trkpt>
      <trkpt lat="27.934168" lon="-15.566185">
        <ele>996.00</ele>
        <time>2017-01-21T11:10:03Z</time>
      </trkpt>
      <trkpt lat="27.934188" lon="-15.566190">
        <ele>996.00</ele>
        <time>2017-01-21T11:10:05Z</time>
      </trkpt>
      <trkpt lat="27.934203" lon="-15.566203">
        <ele>996.00</ele>
        <time>2017-01-21T11:10:07Z</time>
      </trkpt>
      <trkpt lat="27.934224" lon="-15.566218">
        <ele>996.00</ele>
        <time>2017-01-21T11:10:09Z</time>
      </trkpt>
      <trkpt lat="27.934224" lon="-15.566218">
        <ele>996.00</ele>
        <time>2017-01-21T11:10:09.02Z</time>
      </trkpt>
      <trkpt lat="27.934238" lon="-15.566234">
        <ele>996.96</ele>
        <time>2017-01-21T11:10:11Z</time>
      </trkpt>
      <trkpt lat="27.934254" lon="-15.566244">
        <ele>997.00</ele>
        <time>2017-01-21T11:10:13Z</time>
      </trkpt>
      <trkpt lat="27.934276" lon="-15.566260">
        <ele>997.00</ele>
        <time>2017-01-21T11:10:16Z</time>
      </trkpt>
      <trkpt lat="27.934292" lon="-15.566269">
        <ele>997.00</ele>
        <time>2017-01-21T11:10:18Z</time>
      </trkpt>
      <trkpt lat="27.934314" lon="-15.566277">
        <ele>998.79</ele>
        <time>2017-01-21T11:10:20Z</time>
      </trkpt>
      <trkpt lat="27.934332" lon="-15.566280">
        <ele>999.00</ele>
        <time>2017-01-21T11:10:22Z</time>
      </trkpt>
      <trkpt lat="27.934352" lon="-15.566285">
        <ele>999.00</ele>
        <time>2017-01-21T11:10:24Z</time>
      </trkpt>
      <trkpt lat="27.934377" lon="-15.566281">
        <ele>999.00</ele>
        <time>2017-01-21T11:10:27Z</time>
      </trkpt>
      <trkpt lat="27.934398" lon="-15.566269">
        <ele>999.00</ele>
        <time>2017-01-21T11:10:29Z</time>
      </trkpt>
      <trkpt lat="27.934420" lon="-15.566259">
        <ele>1002.00</ele>
        <time>2017-01-21T11:10:31Z</time>
      </trkpt>
      <trkpt lat="27.934448" lon="-15.566260">
        <ele>1002.00</ele>
        <time>2017-01-21T11:10:34Z</time>
      </trkpt>
      <trkpt lat="27.934470" lon="-15.566262">
        <ele>1003.00</ele>
        <time>2017-01-21T11:10:36Z</time>
      </trkpt>
      <trkpt lat="27.934500" lon="-15.566260">
        <ele>1003.00</ele>
        <time>2017-01-21T11:10:38Z</time>
      </trkpt>
      <trkpt lat="27.934520" lon="-15.566253">
        <ele>1004.53</ele>
        <time>2017-01-21T11:10:40Z</time>
      </trkpt>
      <trkpt lat="27.934545" lon="-15.566256">
        <ele>1005.00</ele>
        <time>2017-01-21T11:10:43Z</time>
      </trkpt>
      <trkpt lat="27.934565" lon="-15.566262">
        <ele>1005.00</ele>
        <time>2017-01-21T11:10:45Z</time>
      </trkpt>
      <trkpt lat="27.934584" lon="-15.566269">
        <ele>1005.00</ele>
        <time>2017-01-21T11:10:47Z</time>
      </trkpt>
      <trkpt lat="27.934607" lon="-15.566279">
        <ele>1005.00</ele>
        <time>2017-01-21T11:10:49Z</time>
      </trkpt>
      <trkpt lat="27.934626" lon="-15.566280">
        <ele>1006.00</ele>
        <time>2017-01-21T11:10:51Z</time>
      </trkpt>
      <trkpt lat="27.934644" lon="-15.566278">
        <ele>1006.00</ele>
        <time>2017-01-21T11:10:53Z</time>
      </trkpt>
      <trkpt lat="27.934663" lon="-15.566286">
        <ele>1006.00</ele>
        <time>2017-01-21T11:10:56Z</time>
      </trkpt>
      <trkpt lat="27.934681" lon="-15.566293">
        <ele>1006.00</ele>
        <time>2017-01-21T11:10:58Z</time>
      </trkpt>
      <trkpt lat="27.934707" lon="-15.566317">
        <ele>1007.00</ele>
        <time>2017-01-21T11:11:01Z</time>
      </trkpt>
      <trkpt lat="27.934759" lon="-15.566369">
        <ele>1007.00</ele>
        <time>2017-01-21T11:11:09Z</time>
      </trkpt>
      <trkpt lat="27.934765" lon="-15.566377">
        <ele>1007.00</ele>
        <time>2017-01-21T11:11:09.41Z</time>
      </trkpt>
      <trkpt lat="27.934777" lon="-15.566384">
        <ele>1009.00</ele>
        <time>2017-01-21T11:11:11Z</time>
      </trkpt>
      <trkpt lat="27.934798" lon="-15.566390">
        <ele>1009.00</ele>
        <time>2017-01-21T11:11:13Z</time>
      </trkpt>
      <trkpt lat="27.934821" lon="-15.566397">
        <ele>1009.00</ele>
        <time>2017-01-21T11:11:15Z</time>
      </trkpt>
      <trkpt lat="27.934845" lon="-15.566409">
        <ele>1009.00</ele>
        <time>2017-01-21T11:11:17Z</time>
      </trkpt>
      <trkpt lat="27.934883" lon="-15.566400">
        <ele>1009.52</ele>
        <time>2017-01-21T11:11:20Z</time>
      </trkpt>
      <trkpt lat="27.934912" lon="-15.566395">
        <ele>1010.00</ele>
        <time>2017-01-21T11:11:22Z</time>
      </trkpt>
      <trkpt lat="27.934944" lon="-15.566395">
        <ele>1010.00</ele>
        <time>2017-01-21T11:11:24Z</time>
      </trkpt>
      <trkpt lat="27.934965" lon="-15.566388">
        <ele>1010.00</ele>
        <time>2017-01-21T11:11:26Z</time>
      </trkpt>
      <trkpt lat="27.934992" lon="-15.566388">
        <ele>1010.00</ele>
        <time>2017-01-21T11:11:28Z</time>
      </trkpt>
      <trkpt lat="27.935013" lon="-15.566392">
        <ele>1010.89</ele>
        <time>2017-01-21T11:11:30Z</time>
      </trkpt>
      <trkpt lat="27.935041" lon="-15.566392">
        <ele>1012.00</ele>
        <time>2017-01-21T11:11:33Z</time>
      </trkpt>
      <trkpt lat="27.935065" lon="-15.566389">
        <ele>1012.00</ele>
        <time>2017-01-21T11:11:35Z</time>
      </trkpt>
      <trkpt lat="27.935099" lon="-15.566401">
        <ele>1012.00</ele>
        <time>2017-01-21T11:11:38Z</time>
      </trkpt>
      <trkpt lat="27.935124" lon="-15.566410">
        <ele>1012.00</ele>
        <time>2017-01-21T11:11:40Z</time>
      </trkpt>
      <trkpt lat="27.935146" lon="-15.566409">
        <ele>1012.00</ele>
        <time>2017-01-21T11:11:42Z</time>
      </trkpt>
      <trkpt lat="27.935247" lon="-15.566407">
        <ele>1012.00</ele>
        <time>2017-01-21T11:11:50Z</time>
      </trkpt>
      <trkpt lat="27.935272" lon="-15.566413">
        <ele>1012.00</ele>
        <time>2017-01-21T11:11:53Z</time>
      </trkpt>
      <trkpt lat="27.935303" lon="-15.566405">
        <ele>1012.00</ele>
        <time>2017-01-21T11:11:56Z</time>
      </trkpt>
      <trkpt lat="27.935359" lon="-15.566416">
        <ele>1012.00</ele>
        <time>2017-01-21T11:12:01Z</time>
      </trkpt>
      <trkpt lat="27.935383" lon="-15.566421">
        <ele>1012.00</ele>
        <time>2017-01-21T11:12:03Z</time>
      </trkpt>
      <trkpt lat="27.935408" lon="-15.566422">
        <ele>1012.00</ele>
        <time>2017-01-21T11:12:05Z</time>
      </trkpt>
      <trkpt lat="27.935478" lon="-15.566430">
        <ele>1012.00</ele>
        <time>2017-01-21T11:12:09.75Z</time>
      </trkpt>
      <trkpt lat="27.935509" lon="-15.566430">
        <ele>1014.00</ele>
        <time>2017-01-21T11:12:12Z</time>
      </trkpt>
      <trkpt lat="27.935598" lon="-15.566460">
        <ele>1014.00</ele>
        <time>2017-01-21T11:12:18Z</time>
      </trkpt>
      <trkpt lat="27.935688" lon="-15.566461">
        <ele>1015.00</ele>
        <time>2017-01-21T11:12:23Z</time>
      </trkpt>
      <trkpt lat="27.935721" lon="-15.566473">
        <ele>1015.00</ele>
        <time>2017-01-21T11:12:25Z</time>
      </trkpt>
      <trkpt lat="27.935743" lon="-15.566475">
        <ele>1015.00</ele>
        <time>2017-01-21T11:12:26Z</time>
      </trkpt>
      <trkpt lat="27.935763" lon="-15.566473">
        <ele>1015.00</ele>
        <time>2017-01-21T11:12:27Z</time>
      </trkpt>
      <trkpt lat="27.935794" lon="-15.566470">
        <ele>1015.00</ele>
        <time>2017-01-21T11:12:29Z</time>
      </trkpt>
      <trkpt lat="27.935827" lon="-15.566471">
        <ele>1015.00</ele>
        <time>2017-01-21T11:12:31Z</time>
      </trkpt>
      <trkpt lat="27.935861" lon="-15.566463">
        <ele>1015.00</ele>
        <time>2017-01-21T11:12:33Z</time>
      </trkpt>
      <trkpt lat="27.935894" lon="-15.566459">
        <ele>1015.00</ele>
        <time>2017-01-21T11:12:35Z</time>
      </trkpt>
      <trkpt lat="27.935915" lon="-15.566450">
        <ele>1015.00</ele>
        <time>2017-01-21T11:12:36Z</time>
      </trkpt>
      <trkpt lat="27.935932" lon="-15.566437">
        <ele>1015.00</ele>
        <time>2017-01-21T11:12:37Z</time>
      </trkpt>
      <trkpt lat="27.935950" lon="-15.566427">
        <ele>1015.00</ele>
        <time>2017-01-21T11:12:38Z</time>
      </trkpt>
      <trkpt lat="27.935989" lon="-15.566407">
        <ele>1014.72</ele>
        <time>2017-01-21T11:12:40Z</time>
      </trkpt>
      <trkpt lat="27.936007" lon="-15.566400">
        <ele>1012.00</ele>
        <time>2017-01-21T11:12:41Z</time>
      </trkpt>
      <trkpt lat="27.936025" lon="-15.566398">
        <ele>1012.00</ele>
        <time>2017-01-21T11:12:42Z</time>
      </trkpt>
      <trkpt lat="27.936060" lon="-15.566390">
        <ele>1012.00</ele>
        <time>2017-01-21T11:12:44Z</time>
      </trkpt>
      <trkpt lat="27.936087" lon="-15.566379">
        <ele>1012.00</ele>
        <time>2017-01-21T11:12:46Z</time>
      </trkpt>
      <trkpt lat="27.936108" lon="-15.566374">
        <ele>1012.00</ele>
        <time>2017-01-21T11:12:47Z</time>
      </trkpt>
      <trkpt lat="27.936129" lon="-15.566366">
        <ele>1012.00</ele>
        <time>2017-01-21T11:12:48Z</time>
      </trkpt>
      <trkpt lat="27.936152" lon="-15.566362">
        <ele>1012.00</ele>
        <time>2017-01-21T11:12:49Z</time>
      </trkpt>
      <trkpt lat="27.936178" lon="-15.566361">
        <ele>1012.05</ele>
        <time>2017-01-21T11:12:50Z</time>
      </trkpt>
      <trkpt lat="27.936199" lon="-15.566359">
        <ele>1013.00</ele>
        <time>2017-01-21T11:12:51Z</time>
      </trkpt>
      <trkpt lat="27.936224" lon="-15.566347">
        <ele>1013.00</ele>
        <time>2017-01-21T11:12:52Z</time>
      </trkpt>
      <trkpt lat="27.936246" lon="-15.566341">
        <ele>1013.00</ele>
        <time>2017-01-21T11:12:53Z</time>
      </trkpt>
      <trkpt lat="27.936268" lon="-15.566336">
        <ele>1013.00</ele>
        <time>2017-01-21T11:12:54Z</time>
      </trkpt>
      <trkpt lat="27.936290" lon="-15.566330">
        <ele>1013.00</ele>
        <time>2017-01-21T11:12:55Z</time>
      </trkpt>
      <trkpt lat="27.936324" lon="-15.566324">
        <ele>1013.00</ele>
        <time>2017-01-21T11:12:57Z</time>
      </trkpt>
      <trkpt lat="27.936344" lon="-15.566316">
        <ele>1013.00</ele>
        <time>2017-01-21T11:12:58Z</time>
      </trkpt>
      <trkpt lat="27.936365" lon="-15.566307">
        <ele>1013.00</ele>
        <time>2017-01-21T11:12:59Z</time>
      </trkpt>
      <trkpt lat="27.936383" lon="-15.566298">
        <ele>1013.00</ele>
        <time>2017-01-21T11:13:00Z</time>
      </trkpt>
      <trkpt lat="27.936405" lon="-15.566288">
        <ele>1013.00</ele>
        <time>2017-01-21T11:13:01Z</time>
      </trkpt>
      <trkpt lat="27.936425" lon="-15.566278">
        <ele>1013.00</ele>
        <time>2017-01-21T11:13:02Z</time>
      </trkpt>
      <trkpt lat="27.936442" lon="-15.566265">
        <ele>1013.00</ele>
        <time>2017-01-21T11:13:03Z</time>
      </trkpt>
      <trkpt lat="27.936462" lon="-15.566254">
        <ele>1013.00</ele>
        <time>2017-01-21T11:13:04Z</time>
      </trkpt>
      <trkpt lat="27.936484" lon="-15.566240">
        <ele>1013.00</ele>
        <time>2017-01-21T11:13:05Z</time>
      </trkpt>
      <trkpt lat="27.936501" lon="-15.566227">
        <ele>1013.00</ele>
        <time>2017-01-21T11:13:06Z</time>
      </trkpt>
      <trkpt lat="27.936520" lon="-15.566210">
        <ele>1013.00</ele>
        <time>2017-01-21T11:13:07Z</time>
      </trkpt>
      <trkpt lat="27.936539" lon="-15.566193">
        <ele>1013.00</ele>
        <time>2017-01-21T11:13:08Z</time>
      </trkpt>
      <trkpt lat="27.936556" lon="-15.566180">
        <ele>1013.00</ele>
        <time>2017-01-21T11:13:09Z</time>
      </trkpt>
      <trkpt lat="27.936577" lon="-15.566168">
        <ele>1013.00</ele>
        <time>2017-01-21T11:13:10Z</time>
      </trkpt>
      <trkpt lat="27.936577" lon="-15.566168">
        <ele>1013.00</ele>
        <time>2017-01-21T11:13:10.05Z</time>
      </trkpt>
      <trkpt lat="27.936594" lon="-15.566156">
        <ele>1012.06</ele>
        <time>2017-01-21T11:13:11Z</time>
      </trkpt>
      <trkpt lat="27.936610" lon="-15.566145">
        <ele>1012.00</ele>
        <time>2017-01-21T11:13:12Z</time>
      </trkpt>
      <trkpt lat="27.936627" lon="-15.566134">
        <ele>1012.00</ele>
        <time>2017-01-21T11:13:13Z</time>
      </trkpt>
      <trkpt lat="27.936646" lon="-15.566124">
        <ele>1012.00</ele>
        <time>2017-01-21T11:13:14Z</time>
      </trkpt>
      <trkpt lat="27.936666" lon="-15.566110">
        <ele>1012.00</ele>
        <time>2017-01-21T11:13:15Z</time>
      </trkpt>
      <trkpt lat="27.936688" lon="-15.566098">
        <ele>1012.00</ele>
        <time>2017-01-21T11:13:16Z</time>
      </trkpt>
      <trkpt lat="27.936708" lon="-15.566086">
        <ele>1012.00</ele>
        <time>2017-01-21T11:13:17Z</time>
      </trkpt>
      <trkpt lat="27.936727" lon="-15.566073">
        <ele>1012.00</ele>
        <time>2017-01-21T11:13:18Z</time>
      </trkpt>
      <trkpt lat="27.936747" lon="-15.566062">
        <ele>1012.00</ele>
        <time>2017-01-21T11:13:19Z</time>
      </trkpt>
      <trkpt lat="27.936769" lon="-15.566051">
        <ele>1012.00</ele>
        <time>2017-01-21T11:13:20Z</time>
      </trkpt>
      <trkpt lat="27.936797" lon="-15.566044">
        <ele>1012.00</ele>
        <time>2017-01-21T11:13:22Z</time>
      </trkpt>
      <trkpt lat="27.936814" lon="-15.566035">
        <ele>1012.00</ele>
        <time>2017-01-21T11:13:23Z</time>
      </trkpt>
      <trkpt lat="27.936831" lon="-15.566022">
        <ele>1012.00</ele>
        <time>2017-01-21T11:13:24Z</time>
      </trkpt>
      <trkpt lat="27.936847" lon="-15.566008">
        <ele>1012.00</ele>
        <time>2017-01-21T11:13:25Z</time>
      </trkpt>
      <trkpt lat="27.936861" lon="-15.565991">
        <ele>1012.00</ele>
        <time>2017-01-21T11:13:26Z</time>
      </trkpt>
      <trkpt lat="27.936887" lon="-15.565960">
        <ele>1012.00</ele>
        <time>2017-01-21T11:13:28Z</time>
      </trkpt>
      <trkpt lat="27.936901" lon="-15.565942">
        <ele>1012.00</ele>
        <time>2017-01-21T11:13:29Z</time>
      </trkpt>
      <trkpt lat="27.936916" lon="-15.565921">
        <ele>1012.83</ele>
        <time>2017-01-21T11:13:30Z</time>
      </trkpt>
      <trkpt lat="27.936931" lon="-15.565903">
        <ele>1013.00</ele>
        <time>2017-01-21T11:13:31Z</time>
      </trkpt>
      <trkpt lat="27.936945" lon="-15.565882">
        <ele>1013.00</ele>
        <time>2017-01-21T11:13:32Z</time>
      </trkpt>
      <trkpt lat="27.936957" lon="-15.565864">
        <ele>1013.00</ele>
        <time>2017-01-21T11:13:33Z</time>
      </trkpt>
      <trkpt lat="27.936973" lon="-15.565832">
        <ele>1013.00</ele>
        <time>2017-01-21T11:13:35Z</time>
      </trkpt>
      <trkpt lat="27.936995" lon="-15.565797">
        <ele>1013.00</ele>
        <time>2017-01-21T11:13:37Z</time>
      </trkpt>
      <trkpt lat="27.937010" lon="-15.565778">
        <ele>1013.00</ele>
        <time>2017-01-21T11:13:38Z</time>
      </trkpt>
      <trkpt lat="27.937026" lon="-15.565763">
        <ele>1013.00</ele>
        <time>2017-01-21T11:13:39Z</time>
      </trkpt>
      <trkpt lat="27.937038" lon="-15.565742">
        <ele>1013.00</ele>
        <time>2017-01-21T11:13:40Z</time>
      </trkpt>
      <trkpt lat="27.937052" lon="-15.565721">
        <ele>1013.00</ele>
        <time>2017-01-21T11:13:41Z</time>
      </trkpt>
      <trkpt lat="27.937068" lon="-15.565699">
        <ele>1013.00</ele>
        <time>2017-01-21T11:13:42Z</time>
      </trkpt>
      <trkpt lat="27.937083" lon="-15.565679">
        <ele>1013.00</ele>
        <time>2017-01-21T11:13:43Z</time>
      </trkpt>
      <trkpt lat="27.937096" lon="-15.565663">
        <ele>1013.00</ele>
        <time>2017-01-21T11:13:44Z</time>
      </trkpt>
      <trkpt lat="27.937136" lon="-15.565570">
        <ele>1012.00</ele>
        <time>2017-01-21T11:13:52Z</time>
      </trkpt>
      <trkpt lat="27.937184" lon="-15.565479">
        <ele>1014.00</ele>
        <time>2017-01-21T11:14:01Z</time>
      </trkpt>
      <trkpt lat="27.937208" lon="-15.565415">
        <ele>1014.00</ele>
        <time>2017-01-21T11:14:05Z</time>
      </trkpt>
      <trkpt lat="27.937216" lon="-15.565376">
        <ele>1014.00</ele>
        <time>2017-01-21T11:14:08Z</time>
      </trkpt>
      <trkpt lat="27.937232" lon="-15.565347">
        <ele>1012.78</ele>
        <time>2017-01-21T11:14:10Z</time>
      </trkpt>
      <trkpt lat="27.937240" lon="-15.565333">
        <ele>1012.01</ele>
        <time>2017-01-21T11:14:10.39Z</time>
      </trkpt>
      <trkpt lat="27.937268" lon="-15.565302">
        <ele>1012.00</ele>
        <time>2017-01-21T11:14:13Z</time>
      </trkpt>
      <trkpt lat="27.937283" lon="-15.565283">
        <ele>1012.00</ele>
        <time>2017-01-21T11:14:14Z</time>
      </trkpt>
      <trkpt lat="27.937348" lon="-15.565204">
        <ele>1012.00</ele>
        <time>2017-01-21T11:14:19Z</time>
      </trkpt>
      <trkpt lat="27.937366" lon="-15.565190">
        <ele>1012.00</ele>
        <time>2017-01-21T11:14:20Z</time>
      </trkpt>
      <trkpt lat="27.937458" lon="-15.565123">
        <ele>1012.00</ele>
        <time>2017-01-21T11:14:25Z</time>
      </trkpt>
      <trkpt lat="27.937531" lon="-15.565055">
        <ele>1012.00</ele>
        <time>2017-01-21T11:14:29Z</time>
      </trkpt>
      <trkpt lat="27.937576" lon="-15.565005">
        <ele>1012.00</ele>
        <time>2017-01-21T11:14:32Z</time>
      </trkpt>
      <trkpt lat="27.937594" lon="-15.564960">
        <ele>1012.00</ele>
        <time>2017-01-21T11:14:34Z</time>
      </trkpt>
      <trkpt lat="27.937598" lon="-15.564935">
        <ele>1012.00</ele>
        <time>2017-01-21T11:14:35Z</time>
      </trkpt>
      <trkpt lat="27.937604" lon="-15.564915">
        <ele>1012.00</ele>
        <time>2017-01-21T11:14:36Z</time>
      </trkpt>
      <trkpt lat="27.937646" lon="-15.564821">
        <ele>1012.00</ele>
        <time>2017-01-21T11:14:42Z</time>
      </trkpt>
      <trkpt lat="27.937664" lon="-15.564757">
        <ele>1012.00</ele>
        <time>2017-01-21T11:14:47Z</time>
      </trkpt>
      <trkpt lat="27.937670" lon="-15.564713">
        <ele>1012.00</ele>
        <time>2017-01-21T11:14:49Z</time>
      </trkpt>
      <trkpt lat="27.937684" lon="-15.564675">
        <ele>1012.00</ele>
        <time>2017-01-21T11:14:51Z</time>
      </trkpt>
      <trkpt lat="27.937689" lon="-15.564654">
        <ele>1012.00</ele>
        <time>2017-01-21T11:14:52Z</time>
      </trkpt>
      <trkpt lat="27.937696" lon="-15.564630">
        <ele>1012.00</ele>
        <time>2017-01-21T11:14:53Z</time>
      </trkpt>
      <trkpt lat="27.937702" lon="-15.564605">
        <ele>1012.00</ele>
        <time>2017-01-21T11:14:54Z</time>
      </trkpt>
      <trkpt lat="27.937706" lon="-15.564584">
        <ele>1012.00</ele>
        <time>2017-01-21T11:14:55Z</time>
      </trkpt>
      <trkpt lat="27.937717" lon="-15.564548">
        <ele>1012.00</ele>
        <time>2017-01-21T11:14:57Z</time>
      </trkpt>
      <trkpt lat="27.937731" lon="-15.564514">
        <ele>1012.00</ele>
        <time>2017-01-21T11:14:59Z</time>
      </trkpt>
      <trkpt lat="27.937744" lon="-15.564482">
        <ele>1011.00</ele>
        <time>2017-01-21T11:15:01Z</time>
      </trkpt>
      <trkpt lat="27.937768" lon="-15.564457">
        <ele>1011.00</ele>
        <time>2017-01-21T11:15:03Z</time>
      </trkpt>
      <trkpt lat="27.937785" lon="-15.564440">
        <ele>1011.00</ele>
        <time>2017-01-21T11:15:04Z</time>
      </trkpt>
      <trkpt lat="27.937800" lon="-15.564422">
        <ele>1011.00</ele>
        <time>2017-01-21T11:15:05Z</time>
      </trkpt>
      <trkpt lat="27.937815" lon="-15.564408">
        <ele>1011.00</ele>
        <time>2017-01-21T11:15:06Z</time>
      </trkpt>
      <trkpt lat="27.937830" lon="-15.564395">
        <ele>1011.00</ele>
        <time>2017-01-21T11:15:07Z</time>
      </trkpt>
      <trkpt lat="27.937848" lon="-15.564382">
        <ele>1011.00</ele>
        <time>2017-01-21T11:15:08Z</time>
      </trkpt>
      <trkpt lat="27.937864" lon="-15.564365">
        <ele>1011.00</ele>
        <time>2017-01-21T11:15:09Z</time>
      </trkpt>
      <trkpt lat="27.937877" lon="-15.564352">
        <ele>1011.18</ele>
        <time>2017-01-21T11:15:10Z</time>
      </trkpt>
      <trkpt lat="27.937894" lon="-15.564334">
        <ele>1012.00</ele>
        <time>2017-01-21T11:15:10.82Z</time>
      </trkpt>
      <trkpt lat="27.937894" lon="-15.564334">
        <ele>1012.00</ele>
        <time>2017-01-21T11:15:11Z</time>
      </trkpt>
      <trkpt lat="27.937912" lon="-15.564320">
        <ele>1012.00</ele>
        <time>2017-01-21T11:15:12Z</time>
      </trkpt>
      <trkpt lat="27.937928" lon="-15.564305">
        <ele>1012.00</ele>
        <time>2017-01-21T11:15:13Z</time>
      </trkpt>
      <trkpt lat="27.937943" lon="-15.564288">
        <ele>1012.00</ele>
        <time>2017-01-21T11:15:14Z</time>
      </trkpt>
      <trkpt lat="27.937960" lon="-15.564266">
        <ele>1012.00</ele>
        <time>2017-01-21T11:15:15Z</time>
      </trkpt>
      <trkpt lat="27.938021" lon="-15.564165">
        <ele>1011.89</ele>
        <time>2017-01-21T11:15:20Z</time>
      </trkpt>
      <trkpt lat="27.938035" lon="-15.564134">
        <ele>1011.00</ele>
        <time>2017-01-21T11:15:22Z</time>
      </trkpt>
      <trkpt lat="27.938049" lon="-15.564114">
        <ele>1011.00</ele>
        <time>2017-01-21T11:15:24Z</time>
      </trkpt>
      <trkpt lat="27.938080" lon="-15.564103">
        <ele>1011.00</ele>
        <time>2017-01-21T11:15:28Z</time>
      </trkpt>
      <trkpt lat="27.938098" lon="-15.564093">
        <ele>1011.00</ele>
        <time>2017-01-21T11:15:34Z</time>
      </trkpt>
      <trkpt lat="27.938119" lon="-15.564081">
        <ele>1011.00</ele>
        <time>2017-01-21T11:15:37Z</time>
      </trkpt>
      <trkpt lat="27.938141" lon="-15.564081">
        <ele>1011.00</ele>
        <time>2017-01-21T11:15:39Z</time>
      </trkpt>
      <trkpt lat="27.938168" lon="-15.564093">
        <ele>1010.00</ele>
        <time>2017-01-21T11:15:41.02Z</time>
      </trkpt>
      <trkpt lat="27.938224" lon="-15.564111">
        <ele>1010.00</ele>
        <time>2017-01-21T11:15:45Z</time>
      </trkpt>
      <trkpt lat="27.938245" lon="-15.564119">
        <ele>1010.00</ele>
        <time>2017-01-21T11:15:47Z</time>
      </trkpt>
      <trkpt lat="27.938262" lon="-15.564130">
        <ele>1010.00</ele>
        <time>2017-01-21T11:15:49Z</time>
      </trkpt>
      <trkpt lat="27.938290" lon="-15.564139">
        <ele>1008.01</ele>
        <time>2017-01-21T11:15:51Z</time>
      </trkpt>
      <trkpt lat="27.938321" lon="-15.564144">
        <ele>1008.00</ele>
        <time>2017-01-21T11:15:53Z</time>
      </trkpt>
      <trkpt lat="27.938345" lon="-15.564150">
        <ele>1008.00</ele>
        <time>2017-01-21T11:15:55Z</time>
      </trkpt>
      <trkpt lat="27.938366" lon="-15.564156">
        <ele>1008.00</ele>
        <time>2017-01-21T11:15:57Z</time>
      </trkpt>
      <trkpt lat="27.938391" lon="-15.564155">
        <ele>1008.00</ele>
        <time>2017-01-21T11:15:59Z</time>
      </trkpt>
      <trkpt lat="27.938428" lon="-15.564163">
        <ele>1003.00</ele>
        <time>2017-01-21T11:16:02Z</time>
      </trkpt>
      <trkpt lat="27.938458" lon="-15.564158">
        <ele>1003.00</ele>
        <time>2017-01-21T11:16:04Z</time>
      </trkpt>
      <trkpt lat="27.938490" lon="-15.564151">
        <ele>1003.00</ele>
        <time>2017-01-21T11:16:06Z</time>
      </trkpt>
      <trkpt lat="27.938516" lon="-15.564152">
        <ele>1003.00</ele>
        <time>2017-01-21T11:16:08Z</time>
      </trkpt>
      <trkpt lat="27.938520" lon="-15.564160">
        <ele>1015.01</ele>
        <time>2010-01-01T00:06:07Z</time>
      </trkpt>
      <trkpt lat="27.938450" lon="-15.564110">
        <ele>1016.02</ele>
        <time>2010-01-01T00:06:11Z</time>
      </trkpt>
      <trkpt lat="27.938420" lon="-15.564040">
        <ele>1014.01</ele>
        <time>2010-01-01T00:06:13Z</time>
      </trkpt>
      <trkpt lat="27.938410" lon="-15.563930">
        <ele>1011.01</ele>
        <time>2010-01-01T00:06:17Z</time>
      </trkpt>
      <trkpt lat="27.938460" lon="-15.563840">
        <ele>1005.06</ele>
        <time>2010-01-01T00:06:21Z</time>
      </trkpt>
      <trkpt lat="27.938450" lon="-15.563810">
        <ele>1004.02</ele>
        <time>2010-01-01T00:06:22Z</time>
      </trkpt>
      <trkpt lat="27.938460" lon="-15.563760">
        <ele>1001.06</ele>
        <time>2010-01-01T00:06:24Z</time>
      </trkpt>
      <trkpt lat="27.938490" lon="-15.563800">
        <ele>1002.02</ele>
        <time>2010-01-01T00:06:26Z</time>
      </trkpt>
      <trkpt lat="27.938500" lon="-15.563640">
        <ele>993.04</ele>
        <time>2010-01-01T00:06:32Z</time>
      </trkpt>
      <trkpt lat="27.938530" lon="-15.563650">
        <ele>993.07</ele>
        <time>2010-01-01T00:06:33Z</time>
      </trkpt>
      <trkpt lat="27.938590" lon="-15.563770">
        <ele>997.09</ele>
        <time>2010-01-01T00:06:38Z</time>
      </trkpt>
      <trkpt lat="27.938600" lon="-15.563710">
        <ele>993.06</ele>
        <time>2010-01-01T00:06:40Z</time>
      </trkpt>
      <trkpt lat="27.938580" lon="-15.563640">
        <ele>991.04</ele>
        <time>2010-01-01T00:06:42Z</time>
      </trkpt>
      <trkpt lat="27.938610" lon="-15.563560">
        <ele>987.10</ele>
        <time>2010-01-01T00:06:46Z</time>
      </trkpt>
      <trkpt lat="27.938710" lon="-15.563740">
        <ele>989.01</ele>
        <time>2010-01-01T00:06:53Z</time>
      </trkpt>
      <trkpt lat="27.938730" lon="-15.563750">
        <ele>988.01</ele>
        <time>2010-01-01T00:06:54Z</time>
      </trkpt>
      <trkpt lat="27.938730" lon="-15.563710">
        <ele>987.04</ele>
        <time>2010-01-01T00:06:55Z</time>
      </trkpt>
      <trkpt lat="27.938820" lon="-15.563460">
        <ele>976.07</ele>
        <time>2010-01-01T00:07:05Z</time>
      </trkpt>
      <trkpt lat="27.938860" lon="-15.563330">
        <ele>972.02</ele>
        <time>2010-01-01T00:07:10Z</time>
      </trkpt>
      <trkpt lat="27.938910" lon="-15.563170">
        <ele>969.01</ele>
        <time>2010-01-01T00:07:16Z</time>
      </trkpt>
      <trkpt lat="27.938910" lon="-15.562840">
        <ele>965.01</ele>
        <time>2010-01-01T00:07:27Z</time>
      </trkpt>
      <trkpt lat="27.938930" lon="-15.562800">
        <ele>963.05</ele>
        <time>2010-01-01T00:07:29Z</time>
      </trkpt>
      <trkpt lat="27.939020" lon="-15.562790">
        <ele>960.07</ele>
        <time>2010-01-01T00:07:33Z</time>
      </trkpt>
      <trkpt lat="27.939280" lon="-15.562880">
        <ele>955.06</ele>
        <time>2010-01-01T00:07:44Z</time>
      </trkpt>
      <trkpt lat="27.939380" lon="-15.562990">
        <ele>955.04</ele>
        <time>2010-01-01T00:07:49Z</time>
      </trkpt>
      <trkpt lat="27.939380" lon="-15.563150">
        <ele>957.06</ele>
        <time>2010-01-01T00:07:55Z</time>
      </trkpt>
      <trkpt lat="27.939350" lon="-15.563450">
        <ele>959.01</ele>
        <time>2010-01-01T00:08:05Z</time>
      </trkpt>
      <trkpt lat="27.939390" lon="-15.563560">
        <ele>958.02</ele>
        <time>2010-01-01T00:08:10Z</time>
      </trkpt>
      <trkpt lat="27.939420" lon="-15.563630">
        <ele>958.06</ele>
        <time>2010-01-01T00:08:12Z</time>
      </trkpt>
      <trkpt lat="27.939620" lon="-15.563760">
        <ele>958.08</ele>
        <time>2010-01-01T00:08:22Z</time>
      </trkpt>
      <trkpt lat="27.939800" lon="-15.563950">
        <ele>960.06</ele>
        <time>2010-01-01T00:08:32Z</time>
      </trkpt>
      <trkpt lat="27.939910" lon="-15.564000">
        <ele>960.09</ele>
        <time>2010-01-01T00:08:36Z</time>
      </trkpt>
      <trkpt lat="27.940040" lon="-15.564040">
        <ele>960.01</ele>
        <time>2010-01-01T00:08:42Z</time>
      </trkpt>
      <trkpt lat="27.940200" lon="-15.564050">
        <ele>957.05</ele>
        <time>2010-01-01T00:08:48Z</time>
      </trkpt>
      <trkpt lat="27.940330" lon="-15.564030">
        <ele>954.08</ele>
        <time>2010-01-01T00:08:53Z</time>
      </trkpt>
      <trkpt lat="27.940350" lon="-15.563970">
        <ele>951.06</ele>
        <time>2010-01-01T00:08:56Z</time>
      </trkpt>
      <trkpt lat="27.940240" lon="-15.563690">
        <ele>945.09</ele>
        <time>2010-01-01T00:09:06Z</time>
      </trkpt>
      <trkpt lat="27.940250" lon="-15.563580">
        <ele>942.07</ele>
        <time>2010-01-01T00:09:10Z</time>
      </trkpt>
      <trkpt lat="27.940290" lon="-15.563400">
        <ele>937.01</ele>
        <time>2010-01-01T00:09:17Z</time>
      </trkpt>
      <trkpt lat="27.940350" lon="-15.563240">
        <ele>932.01</ele>
        <time>2010-01-01T00:09:23Z</time>
      </trkpt>
      <trkpt lat="27.940490" lon="-15.562970">
        <ele>926.05</ele>
        <time>2010-01-01T00:09:34Z</time>
      </trkpt>
      <trkpt lat="27.940510" lon="-15.562950">
        <ele>926.03</ele>
        <time>2010-01-01T00:09:35Z</time>
      </trkpt>
      <trkpt lat="27.940520" lon="-15.562950">
        <ele>925.09</ele>
        <time>2010-01-01T00:09:36Z</time>
      </trkpt>
      <trkpt lat="27.940660" lon="-15.562810">
        <ele>922.07</ele>
        <time>2010-01-01T00:09:43Z</time>
      </trkpt>
      <trkpt lat="27.940710" lon="-15.562750">
        <ele>920.06</ele>
        <time>2010-01-01T00:09:46Z</time>
      </trkpt>
      <trkpt lat="27.940730" lon="-15.562690">
        <ele>919.06</ele>
        <time>2010-01-01T00:09:48Z</time>
      </trkpt>
      <trkpt lat="27.940750" lon="-15.562600">
        <ele>917.10</ele>
        <time>2010-01-01T00:09:52Z</time>
      </trkpt>
      <trkpt lat="27.940820" lon="-15.562560">
        <ele>914.05</ele>
        <time>2010-01-01T00:09:55Z</time>
      </trkpt>
      <trkpt lat="27.940880" lon="-15.562570">
        <ele>912.03</ele>
        <time>2010-01-01T00:09:57Z</time>
      </trkpt>
      <trkpt lat="27.940890" lon="-15.562570">
        <ele>912.01</ele>
        <time>2010-01-01T00:09:58Z</time>
      </trkpt>
      <trkpt lat="27.940970" lon="-15.562620">
        <ele>910.03</ele>
        <time>2010-01-01T00:10:01Z</time>
      </trkpt>
      <trkpt lat="27.941040" lon="-15.562690">
        <ele>909.01</ele>
        <time>2010-01-01T00:10:05Z</time>
      </trkpt>
      <trkpt lat="27.941090" lon="-15.562810">
        <ele>910.10</ele>
        <time>2010-01-01T00:10:10Z</time>
      </trkpt>
      <trkpt lat="27.941180" lon="-15.562930">
        <ele>911.05</ele>
        <time>2010-01-01T00:10:15Z</time>
      </trkpt>
      <trkpt lat="27.941310" lon="-15.563010">
        <ele>910.07</ele>
        <time>2010-01-01T00:10:21Z</time>
      </trkpt>
      <trkpt lat="27.941420" lon="-15.563040">
        <ele>909.04</ele>
        <time>2010-01-01T00:10:26Z</time>
      </trkpt>
      <trkpt lat="27.941500" lon="-15.563090">
        <ele>909.09</ele>
        <time>2010-01-01T00:10:29Z</time>
      </trkpt>
      <trkpt lat="27.941630" lon="-15.563270">
        <ele>914.01</ele>
        <time>2010-01-01T00:10:38Z</time>
      </trkpt>
      <trkpt lat="27.941750" lon="-15.563330">
        <ele>917.05</ele>
        <time>2010-01-01T00:10:43Z</time>
      </trkpt>
      <trkpt lat="27.941810" lon="-15.563310">
        <ele>917.10</ele>
        <time>2010-01-01T00:10:45Z</time>
      </trkpt>
      <trkpt lat="27.941830" lon="-15.563230">
        <ele>914.07</ele>
        <time>2010-01-01T00:10:48Z</time>
      </trkpt>
      <trkpt lat="27.941840" lon="-15.563070">
        <ele>908.01</ele>
        <time>2010-01-01T00:10:54Z</time>
      </trkpt>
      <trkpt lat="27.941920" lon="-15.563050">
        <ele>907.01</ele>
        <time>2010-01-01T00:10:57Z</time>
      </trkpt>
      <trkpt lat="27.942010" lon="-15.562990">
        <ele>908.00</ele>
        <time>2010-01-01T00:11:01Z</time>
      </trkpt>
      <trkpt lat="27.942040" lon="-15.562940">
        <ele>907.05</ele>
        <time>2010-01-01T00:11:03Z</time>
      </trkpt>
      <trkpt lat="27.942040" lon="-15.562890">
        <ele>907.09</ele>
        <time>2010-01-01T00:11:05Z</time>
      </trkpt>
      <trkpt lat="27.941950" lon="-15.562820">
        <ele>904.01</ele>
        <time>2010-01-01T00:11:10Z</time>
      </trkpt>
      <trkpt lat="27.941900" lon="-15.562580">
        <ele>911.07</ele>
        <time>2010-01-01T00:11:18Z</time>
      </trkpt>
      <trkpt lat="27.941810" lon="-15.562410">
        <ele>914.05</ele>
        <time>2010-01-01T00:11:25Z</time>
      </trkpt>
      <trkpt lat="27.941570" lon="-15.562230">
        <ele>910.09</ele>
        <time>2010-01-01T00:11:37Z</time>
      </trkpt>
      <trkpt lat="27.941410" lon="-15.562190">
        <ele>903.08</ele>
        <time>2010-01-01T00:11:43Z</time>
      </trkpt>
      <trkpt lat="27.941380" lon="-15.562140">
        <ele>903.04</ele>
        <time>2010-01-01T00:11:46Z</time>
      </trkpt>
      <trkpt lat="27.941370" lon="-15.562020">
        <ele>905.07</ele>
        <time>2010-01-01T00:11:50Z</time>
      </trkpt>
      <trkpt lat="27.941360" lon="-15.561950">
        <ele>905.02</ele>
        <time>2010-01-01T00:11:53Z</time>
      </trkpt>
      <trkpt lat="27.941510" lon="-15.561620">
        <ele>917.02</ele>
        <time>2010-01-01T00:12:06Z</time>
      </trkpt>
      <trkpt lat="27.941530" lon="-15.561550">
        <ele>918.08</ele>
        <time>2010-01-01T00:12:08Z</time>
      </trkpt>
      <trkpt lat="27.941570" lon="-15.561460">
        <ele>921.05</ele>
        <time>2010-01-01T00:12:12Z</time>
      </trkpt>
      <trkpt lat="27.941560" lon="-15.561210">
        <ele>923.03</ele>
        <time>2010-01-01T00:12:21Z</time>
      </trkpt>
      <trkpt lat="27.941570" lon="-15.561130">
        <ele>924.02</ele>
        <time>2010-01-01T00:12:24Z</time>
      </trkpt>
      <trkpt lat="27.941560" lon="-15.561060">
        <ele>923.09</ele>
        <time>2010-01-01T00:12:26Z</time>
      </trkpt>
      <trkpt lat="27.941500" lon="-15.561000">
        <ele>918.02</ele>
        <time>2010-01-01T00:12:29Z</time>
      </trkpt>
      <trkpt lat="27.941460" lon="-15.560920">
        <ele>915.05</ele>
        <time>2010-01-01T00:12:33Z</time>
      </trkpt>
      <trkpt lat="27.941440" lon="-15.560740">
        <ele>916.10</ele>
        <time>2010-01-01T00:12:39Z</time>
      </trkpt>
      <trkpt lat="27.941430" lon="-15.560690">
        <ele>916.09</ele>
        <time>2010-01-01T00:12:41Z</time>
      </trkpt>
      <trkpt lat="27.941320" lon="-15.560560">
        <ele>911.01</ele>
        <time>2010-01-01T00:12:47Z</time>
      </trkpt>
      <trkpt lat="27.941320" lon="-15.560550">
        <ele>911.02</ele>
        <time>2010-01-01T00:12:48Z</time>
      </trkpt>
      <trkpt lat="27.941250" lon="-15.560380">
        <ele>914.08</ele>
        <time>2010-01-01T00:12:54Z</time>
      </trkpt>
      <trkpt lat="27.941230" lon="-15.560380">
        <ele>913.07</ele>
        <time>2010-01-01T00:12:55Z</time>
      </trkpt>
      <trkpt lat="27.941210" lon="-15.560390">
        <ele>912.02</ele>
        <time>2010-01-01T00:12:56Z</time>
      </trkpt>
      <trkpt lat="27.941200" lon="-15.560570">
        <ele>906.04</ele>
        <time>2010-01-01T00:13:02Z</time>
      </trkpt>
      <trkpt lat="27.941050" lon="-15.560620">
        <ele>899.01</ele>
        <time>2010-01-01T00:13:09Z</time>
      </trkpt>
      <trkpt lat="27.940990" lon="-15.560700">
        <ele>896.09</ele>
        <time>2010-01-01T00:13:12Z</time>
      </trkpt>
      <trkpt lat="27.941005" lon="-15.560707">
        <ele>897.07</ele>
        <time>2010-01-01T00:13:13Z</time>
      </trkpt>
      <trkpt lat="27.940940" lon="-15.560800">
        <ele>892.06</ele>
        <time>2010-01-01T00:13:17Z</time>
      </trkpt>
      <trkpt lat="27.940930" lon="-15.560950">
        <ele>889.03</ele>
        <time>2010-01-01T00:13:22Z</time>
      </trkpt>
      <trkpt lat="27.940860" lon="-15.561080">
        <ele>884.09</ele>
        <time>2010-01-01T00:13:28Z</time>
      </trkpt>
      <trkpt lat="27.940800" lon="-15.561160">
        <ele>881.01</ele>
        <time>2010-01-01T00:13:32Z</time>
      </trkpt>
      <trkpt lat="27.940770" lon="-15.561230">
        <ele>880.04</ele>
        <time>2010-01-01T00:13:35Z</time>
      </trkpt>
      <trkpt lat="27.940620" lon="-15.561150">
        <ele>873.09</ele>
        <time>2010-01-01T00:13:41Z</time>
      </trkpt>
      <trkpt lat="27.940610" lon="-15.561070">
        <ele>873.08</ele>
        <time>2010-01-01T00:13:44Z</time>
      </trkpt>
      <trkpt lat="27.940530" lon="-15.560960">
        <ele>871.02</ele>
        <time>2010-01-01T00:13:49Z</time>
      </trkpt>
      <trkpt lat="27.940440" lon="-15.560900">
        <ele>869.05</ele>
        <time>2010-01-01T00:13:54Z</time>
      </trkpt>
      <trkpt lat="27.940330" lon="-15.560710">
        <ele>870.08</ele>
        <time>2010-01-01T00:14:02Z</time>
      </trkpt>
      <trkpt lat="27.940120" lon="-15.560510">
        <ele>871.10</ele>
        <time>2010-01-01T00:14:13Z</time>
      </trkpt>
      <trkpt lat="27.940030" lon="-15.560460">
        <ele>872.02</ele>
        <time>2010-01-01T00:14:17Z</time>
      </trkpt>
      <trkpt lat="27.939970" lon="-15.560380">
        <ele>874.04</ele>
        <time>2010-01-01T00:14:20Z</time>
      </trkpt>
      <trkpt lat="27.939860" lon="-15.560420">
        <ele>871.06</ele>
        <time>2010-01-01T00:14:25Z</time>
      </trkpt>
      <trkpt lat="27.939620" lon="-15.560360">
        <ele>872.01</ele>
        <time>2010-01-01T00:14:35Z</time>
      </trkpt>
      <trkpt lat="27.939520" lon="-15.560380">
        <ele>869.02</ele>
        <time>2010-01-01T00:14:39Z</time>
      </trkpt>
      <trkpt lat="27.939480" lon="-15.560350">
        <ele>870.01</ele>
        <time>2010-01-01T00:14:41Z</time>
      </trkpt>
      <trkpt lat="27.939340" lon="-15.560390">
        <ele>866.08</ele>
        <time>2010-01-01T00:14:47Z</time>
      </trkpt>
      <trkpt lat="27.939320" lon="-15.560420">
        <ele>864.09</ele>
        <time>2010-01-01T00:14:48Z</time>
      </trkpt>
      <trkpt lat="27.939300" lon="-15.560420">
        <ele>864.09</ele>
        <time>2010-01-01T00:14:49Z</time>
      </trkpt>
      <trkpt lat="27.939200" lon="-15.560470">
        <ele>861.07</ele>
        <time>2010-01-01T00:14:54Z</time>
      </trkpt>
      <trkpt lat="27.939010" lon="-15.560640">
        <ele>857.04</ele>
        <time>2010-01-01T00:15:03Z</time>
      </trkpt>
      <trkpt lat="27.938860" lon="-15.560710">
        <ele>856.05</ele>
        <time>2010-01-01T00:15:10Z</time>
      </trkpt>
      <trkpt lat="27.938800" lon="-15.560740">
        <ele>855.01</ele>
        <time>2010-01-01T00:15:13Z</time>
      </trkpt>
      <trkpt lat="27.938660" lon="-15.560690">
        <ele>858.05</ele>
        <time>2010-01-01T00:15:18Z</time>
      </trkpt>
      <trkpt lat="27.938490" lon="-15.560680">
        <ele>857.01</ele>
        <time>2010-01-01T00:15:25Z</time>
      </trkpt>
      <trkpt lat="27.938480" lon="-15.560730">
        <ele>855.01</ele>
        <time>2010-01-01T00:15:27Z</time>
      </trkpt>
      <trkpt lat="27.938490" lon="-15.560790">
        <ele>853.08</ele>
        <time>2010-01-01T00:15:29Z</time>
      </trkpt>
      <trkpt lat="27.938340" lon="-15.560840">
        <ele>851.02</ele>
        <time>2010-01-01T00:15:36Z</time>
      </trkpt>
      <trkpt lat="27.938300" lon="-15.560860">
        <ele>851.08</ele>
        <time>2010-01-01T00:15:37Z</time>
      </trkpt>
      <trkpt lat="27.938230" lon="-15.560870">
        <ele>850.04</ele>
        <time>2010-01-01T00:15:40Z</time>
      </trkpt>
      <trkpt lat="27.938090" lon="-15.560940">
        <ele>850.09</ele>
        <time>2010-01-01T00:15:46Z</time>
      </trkpt>
      <trkpt lat="27.938030" lon="-15.560950">
        <ele>849.05</ele>
        <time>2010-01-01T00:15:49Z</time>
      </trkpt>
      <trkpt lat="27.937970" lon="-15.560920">
        <ele>849.02</ele>
        <time>2010-01-01T00:15:51Z</time>
      </trkpt>
      <trkpt lat="27.937900" lon="-15.560790">
        <ele>848.08</ele>
        <time>2010-01-01T00:15:57Z</time>
      </trkpt>
      <trkpt lat="27.937790" lon="-15.560760">
        <ele>846.02</ele>
        <time>2010-01-01T00:16:01Z</time>
      </trkpt>
      <trkpt lat="27.937860" lon="-15.560810">
        <ele>847.10</ele>
        <time>2010-01-01T00:16:05Z</time>
      </trkpt>
      <trkpt lat="27.937880" lon="-15.560850">
        <ele>847.01</ele>
        <time>2010-01-01T00:16:06Z</time>
      </trkpt>
      <trkpt lat="27.937870" lon="-15.560890">
        <ele>847.02</ele>
        <time>2010-01-01T00:16:08Z</time>
      </trkpt>
      <trkpt lat="27.937840" lon="-15.560900">
        <ele>846.00</ele>
        <time>2010-01-01T00:16:09Z</time>
      </trkpt>
      <trkpt lat="27.937260" lon="-15.560760">
        <ele>842.07</ele>
        <time>2010-01-01T00:16:33Z</time>
      </trkpt>
      <trkpt lat="27.937050" lon="-15.560840">
        <ele>835.06</ele>
        <time>2010-01-01T00:16:41Z</time>
      </trkpt>
      <trkpt lat="27.936920" lon="-15.560910">
        <ele>833.05</ele>
        <time>2010-01-01T00:16:47Z</time>
      </trkpt>
      <trkpt lat="27.936810" lon="-15.561020">
        <ele>830.07</ele>
        <time>2010-01-01T00:16:53Z</time>
      </trkpt>
      <trkpt lat="27.936770" lon="-15.561120">
        <ele>828.08</ele>
        <time>2010-01-01T00:16:57Z</time>
      </trkpt>
      <trkpt lat="27.936730" lon="-15.561160">
        <ele>828.01</ele>
        <time>2010-01-01T00:16:59Z</time>
      </trkpt>
      <trkpt lat="27.936710" lon="-15.561210">
        <ele>829.03</ele>
        <time>2010-01-01T00:17:01Z</time>
      </trkpt>
      <trkpt lat="27.936620" lon="-15.561270">
        <ele>830.09</ele>
        <time>2010-01-01T00:17:05Z</time>
      </trkpt>
      <trkpt lat="27.936350" lon="-15.561510">
        <ele>836.07</ele>
        <time>2010-01-01T00:17:19Z</time>
      </trkpt>
      <trkpt lat="27.936350" lon="-15.561590">
        <ele>840.01</ele>
        <time>2010-01-01T00:17:22Z</time>
      </trkpt>
      <trkpt lat="27.936330" lon="-15.561620">
        <ele>841.01</ele>
        <time>2010-01-01T00:17:23Z</time>
      </trkpt>
      <trkpt lat="27.936160" lon="-15.561610">
        <ele>838.05</ele>
        <time>2010-01-01T00:17:30Z</time>
      </trkpt>
      <trkpt lat="27.935960" lon="-15.561650">
        <ele>838.03</ele>
        <time>2010-01-01T00:17:38Z</time>
      </trkpt>
      <trkpt lat="27.935900" lon="-15.561710">
        <ele>840.03</ele>
        <time>2010-01-01T00:17:41Z</time>
      </trkpt>
      <trkpt lat="27.935820" lon="-15.561840">
        <ele>847.05</ele>
        <time>2010-01-01T00:17:47Z</time>
      </trkpt>
      <trkpt lat="27.935770" lon="-15.561860">
        <ele>847.03</ele>
        <time>2010-01-01T00:17:49Z</time>
      </trkpt>
      <trkpt lat="27.935570" lon="-15.561810">
        <ele>843.08</ele>
        <time>2010-01-01T00:17:57Z</time>
      </trkpt>
      <trkpt lat="27.935330" lon="-15.561810">
        <ele>848.09</ele>
        <time>2010-01-01T00:18:07Z</time>
      </trkpt>
      <trkpt lat="27.935250" lon="-15.561780">
        <ele>849.05</ele>
        <time>2010-01-01T00:18:10Z</time>
      </trkpt>
      <trkpt lat="27.935190" lon="-15.561740">
        <ele>849.06</ele>
        <time>2010-01-01T00:18:13Z</time>
      </trkpt>
      <trkpt lat="27.935100" lon="-15.561740">
        <ele>851.05</ele>
        <time>2010-01-01T00:18:17Z</time>
      </trkpt>
      <trkpt lat="27.935090" lon="-15.561770">
        <ele>853.01</ele>
        <time>2010-01-01T00:18:18Z</time>
      </trkpt>
      <trkpt lat="27.934980" lon="-15.561780">
        <ele>855.03</ele>
        <time>2010-01-01T00:18:22Z</time>
      </trkpt>
      <trkpt lat="27.934870" lon="-15.561740">
        <ele>854.06</ele>
        <time>2010-01-01T00:18:27Z</time>
      </trkpt>
      <trkpt lat="27.934660" lon="-15.561750">
        <ele>856.08</ele>
        <time>2010-01-01T00:18:35Z</time>
      </trkpt>
      <trkpt lat="27.934240" lon="-15.561640">
        <ele>858.05</ele>
        <time>2010-01-01T00:18:52Z</time>
      </trkpt>
      <trkpt lat="27.934100" lon="-15.561480">
        <ele>859.07</ele>
        <time>2010-01-01T00:19:00Z</time>
      </trkpt>
      <trkpt lat="27.934050" lon="-15.561390">
        <ele>859.04</ele>
        <time>2010-01-01T00:19:04Z</time>
      </trkpt>
      <trkpt lat="27.934030" lon="-15.561310">
        <ele>858.02</ele>
        <time>2010-01-01T00:19:07Z</time>
      </trkpt>
      <trkpt lat="27.933990" lon="-15.561170">
        <ele>855.03</ele>
        <time>2010-01-01T00:19:12Z</time>
      </trkpt>
      <trkpt lat="27.933980" lon="-15.561050">
        <ele>852.05</ele>
        <time>2010-01-01T00:19:17Z</time>
      </trkpt>
      <trkpt lat="27.933920" lon="-15.560900">
        <ele>852.07</ele>
        <time>2010-01-01T00:19:22Z</time>
      </trkpt>
      <trkpt lat="27.933940" lon="-15.560730">
        <ele>847.06</ele>
        <time>2010-01-01T00:19:28Z</time>
      </trkpt>
      <trkpt lat="27.933930" lon="-15.560710">
        <ele>847.01</ele>
        <time>2010-01-01T00:19:29Z</time>
      </trkpt>
      <trkpt lat="27.933920" lon="-15.560707">
        <ele>848.03</ele>
        <time>2010-01-01T00:19:30Z</time>
      </trkpt>
      <trkpt lat="27.933882" lon="-15.560599">
        <ele>847.02</ele>
        <time>2010-01-01T00:19:34Z</time>
      </trkpt>
      <trkpt lat="27.933593" lon="-15.560508">
        <ele>848.09</ele>
        <time>2010-01-01T00:19:46Z</time>
      </trkpt>
      <trkpt lat="27.933512" lon="-15.560331">
        <ele>844.06</ele>
        <time>2010-01-01T00:19:53Z</time>
      </trkpt>
      <trkpt lat="27.933555" lon="-15.560321">
        <ele>843.04</ele>
        <time>2010-01-01T00:19:55Z</time>
      </trkpt>
      <trkpt lat="27.933484" lon="-15.560224">
        <ele>841.02</ele>
        <time>2010-01-01T00:19:59Z</time>
      </trkpt>
      <trkpt lat="27.933626" lon="-15.560267">
        <ele>841.06</ele>
        <time>2010-01-01T00:20:05Z</time>
      </trkpt>
      <trkpt lat="27.933541" lon="-15.560090">
        <ele>834.07</ele>
        <time>2010-01-01T00:20:12Z</time>
      </trkpt>
      <trkpt lat="27.933583" lon="-15.559430">
        <ele>811.04</ele>
        <time>2010-01-01T00:20:35Z</time>
      </trkpt>
      <trkpt lat="27.933484" lon="-15.559280">
        <ele>810.05</ele>
        <time>2010-01-01T00:20:42Z</time>
      </trkpt>
      <trkpt lat="27.933285" lon="-15.559183">
        <ele>816.06</ele>
        <time>2010-01-01T00:20:51Z</time>
      </trkpt>
      <trkpt lat="27.933100" lon="-15.559020">
        <ele>816.01</ele>
        <time>2010-01-01T00:21:00Z</time>
      </trkpt>
      <trkpt lat="27.933070" lon="-15.558890">
        <ele>814.02</ele>
        <time>2010-01-01T00:21:05Z</time>
      </trkpt>
      <trkpt lat="27.933090" lon="-15.558810">
        <ele>812.10</ele>
        <time>2010-01-01T00:21:08Z</time>
      </trkpt>
      <trkpt lat="27.933100" lon="-15.558690">
        <ele>810.02</ele>
        <time>2010-01-01T00:21:12Z</time>
      </trkpt>
      <trkpt lat="27.933070" lon="-15.558550">
        <ele>809.06</ele>
        <time>2010-01-01T00:21:17Z</time>
      </trkpt>
      <trkpt lat="27.933020" lon="-15.558460">
        <ele>810.08</ele>
        <time>2010-01-01T00:21:21Z</time>
      </trkpt>
      <trkpt lat="27.932850" lon="-15.558350">
        <ele>822.01</ele>
        <time>2010-01-01T00:21:29Z</time>
      </trkpt>
      <trkpt lat="27.932790" lon="-15.558260">
        <ele>823.07</ele>
        <time>2010-01-01T00:21:33Z</time>
      </trkpt>
      <trkpt lat="27.932620" lon="-15.557850">
        <ele>791.07</ele>
        <time>2010-01-01T00:21:49Z</time>
      </trkpt>
      <trkpt lat="27.932540" lon="-15.557750">
        <ele>786.05</ele>
        <time>2010-01-01T00:21:54Z</time>
      </trkpt>
      <trkpt lat="27.932450" lon="-15.557690">
        <ele>788.08</ele>
        <time>2010-01-01T00:21:58Z</time>
      </trkpt>
      <trkpt lat="27.932320" lon="-15.557540">
        <ele>783.04</ele>
        <time>2010-01-01T00:22:05Z</time>
      </trkpt>
      <trkpt lat="27.932080" lon="-15.557290">
        <ele>778.01</ele>
        <time>2010-01-01T00:22:18Z</time>
      </trkpt>
      <trkpt lat="27.932000" lon="-15.557250">
        <ele>777.01</ele>
        <time>2010-01-01T00:22:22Z</time>
      </trkpt>
      <trkpt lat="27.931940" lon="-15.557240">
        <ele>778.07</ele>
        <time>2010-01-01T00:22:24Z</time>
      </trkpt>
      <trkpt lat="27.931890" lon="-15.557280">
        <ele>782.07</ele>
        <time>2010-01-01T00:22:27Z</time>
      </trkpt>
      <trkpt lat="27.931810" lon="-15.557360">
        <ele>789.10</ele>
        <time>2010-01-01T00:22:31Z</time>
      </trkpt>
      <trkpt lat="27.931800" lon="-15.557380">
        <ele>791.01</ele>
        <time>2010-01-01T00:22:32Z</time>
      </trkpt>
      <trkpt lat="27.931740" lon="-15.557420">
        <ele>794.04</ele>
        <time>2010-01-01T00:22:35Z</time>
      </trkpt>
      <trkpt lat="27.931680" lon="-15.557410">
        <ele>792.04</ele>
        <time>2010-01-01T00:22:38Z</time>
      </trkpt>
      <trkpt lat="27.931580" lon="-15.557360">
        <ele>790.05</ele>
        <time>2010-01-01T00:22:42Z</time>
      </trkpt>
      <trkpt lat="27.931520" lon="-15.557300">
        <ele>787.04</ele>
        <time>2010-01-01T00:22:45Z</time>
      </trkpt>
      <trkpt lat="27.931440" lon="-15.557140">
        <ele>780.04</ele>
        <time>2010-01-01T00:22:52Z</time>
      </trkpt>
      <trkpt lat="27.931290" lon="-15.556980">
        <ele>777.01</ele>
        <time>2010-01-01T00:23:00Z</time>
      </trkpt>
      <trkpt lat="27.931240" lon="-15.556980">
        <ele>778.01</ele>
        <time>2010-01-01T00:23:02Z</time>
      </trkpt>
      <trkpt lat="27.930700" lon="-15.557220">
        <ele>792.05</ele>
        <time>2010-01-01T00:23:25Z</time>
      </trkpt>
      <trkpt lat="27.930590" lon="-15.557240">
        <ele>790.04</ele>
        <time>2010-01-01T00:23:30Z</time>
      </trkpt>
      <trkpt lat="27.930540" lon="-15.557210">
        <ele>787.09</ele>
        <time>2010-01-01T00:23:32Z</time>
      </trkpt>
      <trkpt lat="27.930470" lon="-15.557100">
        <ele>781.09</ele>
        <time>2010-01-01T00:23:37Z</time>
      </trkpt>
      <trkpt lat="27.930410" lon="-15.557010">
        <ele>776.03</ele>
        <time>2010-01-01T00:23:41Z</time>
      </trkpt>
      <trkpt lat="27.930360" lon="-15.557010">
        <ele>776.04</ele>
        <time>2010-01-01T00:23:43Z</time>
      </trkpt>
      <trkpt lat="27.930210" lon="-15.557070">
        <ele>775.10</ele>
        <time>2010-01-01T00:23:49Z</time>
      </trkpt>
      <trkpt lat="27.930140" lon="-15.557070">
        <ele>773.02</ele>
        <time>2010-01-01T00:23:52Z</time>
      </trkpt>
      <trkpt lat="27.929820" lon="-15.556970">
        <ele>759.05</ele>
        <time>2010-01-01T00:24:05Z</time>
      </trkpt>
      <trkpt lat="27.929760" lon="-15.556990">
        <ele>757.05</ele>
        <time>2010-01-01T00:24:08Z</time>
      </trkpt>
      <trkpt lat="27.929720" lon="-15.557050">
        <ele>757.01</ele>
        <time>2010-01-01T00:24:10Z</time>
      </trkpt>
      <trkpt lat="27.929650" lon="-15.557350">
        <ele>763.01</ele>
        <time>2010-01-01T00:24:21Z</time>
      </trkpt>
      <trkpt lat="27.929620" lon="-15.557420">
        <ele>764.03</ele>
        <time>2010-01-01T00:24:24Z</time>
      </trkpt>
      <trkpt lat="27.929480" lon="-15.557530">
        <ele>760.02</ele>
        <time>2010-01-01T00:24:31Z</time>
      </trkpt>
      <trkpt lat="27.929420" lon="-15.557540">
        <ele>758.10</ele>
        <time>2010-01-01T00:24:33Z</time>
      </trkpt>
      <trkpt lat="27.929300" lon="-15.557530">
        <ele>754.07</ele>
        <time>2010-01-01T00:24:38Z</time>
      </trkpt>
      <trkpt lat="27.929170" lon="-15.557580">
        <ele>752.02</ele>
        <time>2010-01-01T00:24:44Z</time>
      </trkpt>
      <trkpt lat="27.929120" lon="-15.557570">
        <ele>751.08</ele>
        <time>2010-01-01T00:24:46Z</time>
      </trkpt>
      <trkpt lat="27.929070" lon="-15.557530">
        <ele>749.08</ele>
        <time>2010-01-01T00:24:48Z</time>
      </trkpt>
      <trkpt lat="27.928950" lon="-15.557340">
        <ele>740.08</ele>
        <time>2010-01-01T00:24:56Z</time>
      </trkpt>
      <trkpt lat="27.928900" lon="-15.557310">
        <ele>738.05</ele>
        <time>2010-01-01T00:24:59Z</time>
      </trkpt>
      <trkpt lat="27.928840" lon="-15.557320">
        <ele>737.10</ele>
        <time>2010-01-01T00:25:01Z</time>
      </trkpt>
      <trkpt lat="27.928670" lon="-15.557430">
        <ele>740.01</ele>
        <time>2010-01-01T00:25:09Z</time>
      </trkpt>
      <trkpt lat="27.928620" lon="-15.557450">
        <ele>740.01</ele>
        <time>2010-01-01T00:25:11Z</time>
      </trkpt>
      <trkpt lat="27.928580" lon="-15.557430">
        <ele>737.08</ele>
        <time>2010-01-01T00:25:13Z</time>
      </trkpt>
      <trkpt lat="27.928550" lon="-15.557380">
        <ele>734.04</ele>
        <time>2010-01-01T00:25:15Z</time>
      </trkpt>
      <trkpt lat="27.928520" lon="-15.557390">
        <ele>733.10</ele>
        <time>2010-01-01T01:25:28Z</time>
      </trkpt>
      <trkpt lat="27.928550" lon="-15.557380">
        <ele>734.01</ele>
        <time>2010-01-01T01:25:29Z</time>
      </trkpt>
      <trkpt lat="27.928590" lon="-15.557380">
        <ele>735.02</ele>
        <time>2010-01-01T01:25:31Z</time>
      </trkpt>
      <trkpt lat="27.928660" lon="-15.557350">
        <ele>735.03</ele>
        <time>2010-01-01T01:25:34Z</time>
      </trkpt>
      <trkpt lat="27.928700" lon="-15.557280">
        <ele>732.07</ele>
        <time>2010-01-01T01:25:37Z</time>
      </trkpt>
      <trkpt lat="27.928760" lon="-15.557080">
        <ele>724.09</ele>
        <time>2010-01-01T01:25:44Z</time>
      </trkpt>
      <trkpt lat="27.928810" lon="-15.557040">
        <ele>724.03</ele>
        <time>2010-01-01T01:25:47Z</time>
      </trkpt>
      <trkpt lat="27.928870" lon="-15.557030">
        <ele>725.04</ele>
        <time>2010-01-01T01:25:49Z</time>
      </trkpt>
      <trkpt lat="27.929040" lon="-15.557090">
        <ele>734.07</ele>
        <time>2010-01-01T01:25:56Z</time>
      </trkpt>
      <trkpt lat="27.929100" lon="-15.557090">
        <ele>736.04</ele>
        <time>2010-01-01T01:25:58Z</time>
      </trkpt>
      <trkpt lat="27.929150" lon="-15.557060">
        <ele>737.07</ele>
        <time>2010-01-01T01:26:01Z</time>
      </trkpt>
      <trkpt lat="27.929180" lon="-15.557010">
        <ele>737.03</ele>
        <time>2010-01-01T01:26:03Z</time>
      </trkpt>
      <trkpt lat="27.929200" lon="-15.556940">
        <ele>737.09</ele>
        <time>2010-01-01T01:26:05Z</time>
      </trkpt>
      <trkpt lat="27.929190" lon="-15.556830">
        <ele>734.01</ele>
        <time>2010-01-01T01:26:09Z</time>
      </trkpt>
      <trkpt lat="27.929240" lon="-15.556640">
        <ele>730.02</ele>
        <time>2010-01-01T01:26:16Z</time>
      </trkpt>
      <trkpt lat="27.929370" lon="-15.556490">
        <ele>727.01</ele>
        <time>2010-01-01T01:26:24Z</time>
      </trkpt>
      <trkpt lat="27.929430" lon="-15.556400">
        <ele>724.08</ele>
        <time>2010-01-01T01:26:28Z</time>
      </trkpt>
      <trkpt lat="27.929480" lon="-15.556350">
        <ele>721.08</ele>
        <time>2010-01-01T01:26:30Z</time>
      </trkpt>
      <trkpt lat="27.929550" lon="-15.556350">
        <ele>721.07</ele>
        <time>2010-01-01T01:26:33Z</time>
      </trkpt>
      <trkpt lat="27.929770" lon="-15.556480">
        <ele>727.04</ele>
        <time>2010-01-01T01:26:43Z</time>
      </trkpt>
      <trkpt lat="27.929890" lon="-15.556500">
        <ele>727.06</ele>
        <time>2010-01-01T01:26:48Z</time>
      </trkpt>
      <trkpt lat="27.930220" lon="-15.556420">
        <ele>722.08</ele>
        <time>2010-01-01T01:27:02Z</time>
      </trkpt>
      <trkpt lat="27.930350" lon="-15.556360">
        <ele>722.08</ele>
        <time>2010-01-01T01:27:07Z</time>
      </trkpt>
      <trkpt lat="27.930440" lon="-15.556300">
        <ele>723.08</ele>
        <time>2010-01-01T01:27:11Z</time>
      </trkpt>
      <trkpt lat="27.930500" lon="-15.556260">
        <ele>723.05</ele>
        <time>2010-01-01T01:27:14Z</time>
      </trkpt>
      <trkpt lat="27.930550" lon="-15.556180">
        <ele>721.01</ele>
        <time>2010-01-01T01:27:18Z</time>
      </trkpt>
      <trkpt lat="27.930540" lon="-15.556100">
        <ele>718.03</ele>
        <time>2010-01-01T01:27:21Z</time>
      </trkpt>
      <trkpt lat="27.930450" lon="-15.555970">
        <ele>718.06</ele>
        <time>2010-01-01T01:27:26Z</time>
      </trkpt>
      <trkpt lat="27.930370" lon="-15.555930">
        <ele>718.09</ele>
        <time>2010-01-01T01:27:30Z</time>
      </trkpt>
      <trkpt lat="27.930320" lon="-15.555920">
        <ele>717.06</ele>
        <time>2010-01-01T01:27:32Z</time>
      </trkpt>
      <trkpt lat="27.930200" lon="-15.555910">
        <ele>716.08</ele>
        <time>2010-01-01T01:27:37Z</time>
      </trkpt>
      <trkpt lat="27.929880" lon="-15.555940">
        <ele>711.09</ele>
        <time>2010-01-01T01:27:50Z</time>
      </trkpt>
      <trkpt lat="27.929640" lon="-15.555900">
        <ele>709.05</ele>
        <time>2010-01-01T01:27:59Z</time>
      </trkpt>
      <trkpt lat="27.929420" lon="-15.555940">
        <ele>709.05</ele>
        <time>2010-01-01T01:28:08Z</time>
      </trkpt>
      <trkpt lat="27.929320" lon="-15.555940">
        <ele>709.05</ele>
        <time>2010-01-01T01:28:12Z</time>
      </trkpt>
      <trkpt lat="27.928970" lon="-15.556020">
        <ele>706.08</ele>
        <time>2010-01-01T01:28:26Z</time>
      </trkpt>
      <trkpt lat="27.928870" lon="-15.556060">
        <ele>705.03</ele>
        <time>2010-01-01T01:28:31Z</time>
      </trkpt>
      <trkpt lat="27.928810" lon="-15.556090">
        <ele>705.01</ele>
        <time>2010-01-01T01:28:33Z</time>
      </trkpt>
      <trkpt lat="27.928750" lon="-15.556090">
        <ele>705.02</ele>
        <time>2010-01-01T01:28:36Z</time>
      </trkpt>
      <trkpt lat="27.928660" lon="-15.556050">
        <ele>707.07</ele>
        <time>2010-01-01T01:28:40Z</time>
      </trkpt>
      <trkpt lat="27.928600" lon="-15.556050">
        <ele>707.04</ele>
        <time>2010-01-01T01:28:42Z</time>
      </trkpt>
      <trkpt lat="27.928330" lon="-15.556130">
        <ele>709.06</ele>
        <time>2010-01-01T01:28:53Z</time>
      </trkpt>
      <trkpt lat="27.928120" lon="-15.556140">
        <ele>711.06</ele>
        <time>2010-01-01T01:29:02Z</time>
      </trkpt>
      <trkpt lat="27.927600" lon="-15.556030">
        <ele>717.04</ele>
        <time>2010-01-01T01:29:23Z</time>
      </trkpt>
      <trkpt lat="27.926800" lon="-15.555540">
        <ele>729.07</ele>
        <time>2010-01-01T01:29:59Z</time>
      </trkpt>
      <trkpt lat="27.926750" lon="-15.555520">
        <ele>730.02</ele>
        <time>2010-01-01T01:30:01Z</time>
      </trkpt>
      <trkpt lat="27.926680" lon="-15.555510">
        <ele>730.03</ele>
        <time>2010-01-01T01:30:04Z</time>
      </trkpt>
      <trkpt lat="27.926460" lon="-15.555550">
        <ele>726.01</ele>
        <time>2010-01-01T01:30:13Z</time>
      </trkpt>
      <trkpt lat="27.926400" lon="-15.555530">
        <ele>726.06</ele>
        <time>2010-01-01T01:30:16Z</time>
      </trkpt>
      <trkpt lat="27.926360" lon="-15.555480">
        <ele>727.01</ele>
        <time>2010-01-01T01:30:18Z</time>
      </trkpt>
      <trkpt lat="27.926290" lon="-15.555150">
        <ele>736.01</ele>
        <time>2010-01-01T01:30:30Z</time>
      </trkpt>
      <trkpt lat="27.926200" lon="-15.555040">
        <ele>737.04</ele>
        <time>2010-01-01T01:30:35Z</time>
      </trkpt>
      <trkpt lat="27.926180" lon="-15.554970">
        <ele>738.02</ele>
        <time>2010-01-01T01:30:38Z</time>
      </trkpt>
      <trkpt lat="27.926170" lon="-15.554750">
        <ele>744.02</ele>
        <time>2010-01-01T01:30:46Z</time>
      </trkpt>
      <trkpt lat="27.926140" lon="-15.554680">
        <ele>745.08</ele>
        <time>2010-01-01T01:30:48Z</time>
      </trkpt>
      <trkpt lat="27.925990" lon="-15.554580">
        <ele>746.06</ele>
        <time>2010-01-01T01:30:55Z</time>
      </trkpt>
      <trkpt lat="27.925760" lon="-15.554530">
        <ele>746.04</ele>
        <time>2010-01-01T01:31:05Z</time>
      </trkpt>
      <trkpt lat="27.925690" lon="-15.554540">
        <ele>746.03</ele>
        <time>2010-01-01T01:31:08Z</time>
      </trkpt>
      <trkpt lat="27.925510" lon="-15.554660">
        <ele>743.01</ele>
        <time>2010-01-01T01:31:16Z</time>
      </trkpt>
      <trkpt lat="27.925450" lon="-15.554660">
        <ele>743.07</ele>
        <time>2010-01-01T01:31:18Z</time>
      </trkpt>
      <trkpt lat="27.925390" lon="-15.554630">
        <ele>745.07</ele>
        <time>2010-01-01T01:31:21Z</time>
      </trkpt>
      <trkpt lat="27.925350" lon="-15.554560">
        <ele>747.01</ele>
        <time>2010-01-01T01:31:24Z</time>
      </trkpt>
      <trkpt lat="27.925330" lon="-15.554450">
        <ele>749.01</ele>
        <time>2010-01-01T01:31:28Z</time>
      </trkpt>
      <trkpt lat="27.925290" lon="-15.554370">
        <ele>751.07</ele>
        <time>2010-01-01T01:31:31Z</time>
      </trkpt>
      <trkpt lat="27.925080" lon="-15.554230">
        <ele>755.03</ele>
        <time>2010-01-01T01:31:41Z</time>
      </trkpt>
      <trkpt lat="27.925010" lon="-15.554230">
        <ele>755.02</ele>
        <time>2010-01-01T01:31:44Z</time>
      </trkpt>
      <trkpt lat="27.924950" lon="-15.554290">
        <ele>755.08</ele>
        <time>2010-01-01T01:31:47Z</time>
      </trkpt>
      <trkpt lat="27.924880" lon="-15.554600">
        <ele>752.04</ele>
        <time>2010-01-01T01:31:58Z</time>
      </trkpt>
      <trkpt lat="27.924830" lon="-15.554650">
        <ele>752.03</ele>
        <time>2010-01-01T01:32:01Z</time>
      </trkpt>
      <trkpt lat="27.924840" lon="-15.554520">
        <ele>754.05</ele>
        <time>2010-01-01T01:32:06Z</time>
      </trkpt>
      <trkpt lat="27.924730" lon="-15.553740">
        <ele>764.01</ele>
        <time>2010-01-01T01:32:33Z</time>
      </trkpt>
      <trkpt lat="27.924780" lon="-15.553230">
        <ele>770.05</ele>
        <time>2010-01-01T01:32:52Z</time>
      </trkpt>
      <trkpt lat="27.924780" lon="-15.553100">
        <ele>771.05</ele>
        <time>2010-01-01T01:32:56Z</time>
      </trkpt>
      <trkpt lat="27.924700" lon="-15.552560">
        <ele>774.01</ele>
        <time>2010-01-01T01:33:16Z</time>
      </trkpt>
      <trkpt lat="27.924680" lon="-15.552440">
        <ele>776.01</ele>
        <time>2010-01-01T01:33:20Z</time>
      </trkpt>
      <trkpt lat="27.924690" lon="-15.552340">
        <ele>778.05</ele>
        <time>2010-01-01T01:33:23Z</time>
      </trkpt>
      <trkpt lat="27.924720" lon="-15.552180">
        <ele>782.04</ele>
        <time>2010-01-01T01:33:29Z</time>
      </trkpt>
      <trkpt lat="27.924780" lon="-15.552000">
        <ele>788.04</ele>
        <time>2010-01-01T01:33:36Z</time>
      </trkpt>
      <trkpt lat="27.924940" lon="-15.551740">
        <ele>795.07</ele>
        <time>2010-01-01T01:33:47Z</time>
      </trkpt>
      <trkpt lat="27.925120" lon="-15.551530">
        <ele>798.02</ele>
        <time>2010-01-01T01:33:58Z</time>
      </trkpt>
      <trkpt lat="27.925390" lon="-15.550970">
        <ele>801.03</ele>
        <time>2010-01-01T01:34:20Z</time>
      </trkpt>
      <trkpt lat="27.925490" lon="-15.550820">
        <ele>801.02</ele>
        <time>2010-01-01T01:34:27Z</time>
      </trkpt>
      <trkpt lat="27.925600" lon="-15.550730">
        <ele>801.03</ele>
        <time>2010-01-01T01:34:32Z</time>
      </trkpt>
      <trkpt lat="27.925790" lon="-15.550610">
        <ele>803.05</ele>
        <time>2010-01-01T01:34:41Z</time>
      </trkpt>
      <trkpt lat="27.925930" lon="-15.550570">
        <ele>805.04</ele>
        <time>2010-01-01T01:34:47Z</time>
      </trkpt>
      <trkpt lat="27.926030" lon="-15.550570">
        <ele>808.01</ele>
        <time>2010-01-01T01:34:51Z</time>
      </trkpt>
      <trkpt lat="27.926330" lon="-15.550730">
        <ele>811.02</ele>
        <time>2010-01-01T01:35:04Z</time>
      </trkpt>
      <trkpt lat="27.926370" lon="-15.550780">
        <ele>811.06</ele>
        <time>2010-01-01T01:35:06Z</time>
      </trkpt>
      <trkpt lat="27.926420" lon="-15.550770">
        <ele>812.07</ele>
        <time>2010-01-01T01:35:08Z</time>
      </trkpt>
      <trkpt lat="27.926520" lon="-15.550760">
        <ele>813.09</ele>
        <time>2010-01-01T01:35:12Z</time>
      </trkpt>
      <trkpt lat="27.926630" lon="-15.550700">
        <ele>815.05</ele>
        <time>2010-01-01T01:35:17Z</time>
      </trkpt>
      <trkpt lat="27.926710" lon="-15.550630">
        <ele>816.04</ele>
        <time>2010-01-01T01:35:21Z</time>
      </trkpt>
      <trkpt lat="27.926840" lon="-15.550470">
        <ele>818.05</ele>
        <time>2010-01-01T01:35:29Z</time>
      </trkpt>
      <trkpt lat="27.926940" lon="-15.550310">
        <ele>820.02</ele>
        <time>2010-01-01T01:35:36Z</time>
      </trkpt>
      <trkpt lat="27.927010" lon="-15.550150">
        <ele>823.03</ele>
        <time>2010-01-01T01:35:42Z</time>
      </trkpt>
      <trkpt lat="27.927300" lon="-15.549650">
        <ele>834.07</ele>
        <time>2010-01-01T01:36:03Z</time>
      </trkpt>
      <trkpt lat="27.927310" lon="-15.549580">
        <ele>835.05</ele>
        <time>2010-01-01T01:36:06Z</time>
      </trkpt>
      <trkpt lat="27.927370" lon="-15.549590">
        <ele>835.01</ele>
        <time>2010-01-01T01:36:08Z</time>
      </trkpt>
      <trkpt lat="27.927450" lon="-15.549720">
        <ele>834.02</ele>
        <time>2010-01-01T01:36:14Z</time>
      </trkpt>
      <trkpt lat="27.927600" lon="-15.549800">
        <ele>835.02</ele>
        <time>2010-01-01T01:36:21Z</time>
      </trkpt>
      <trkpt lat="27.927650" lon="-15.549810">
        <ele>835.08</ele>
        <time>2010-01-01T01:36:23Z</time>
      </trkpt>
      <trkpt lat="27.927740" lon="-15.549760">
        <ele>838.07</ele>
        <time>2010-01-01T01:36:27Z</time>
      </trkpt>
      <trkpt lat="27.928010" lon="-15.549730">
        <ele>847.02</ele>
        <time>2010-01-01T01:36:38Z</time>
      </trkpt>
      <trkpt lat="27.928090" lon="-15.549690">
        <ele>849.08</ele>
        <time>2010-01-01T01:36:41Z</time>
      </trkpt>
      <trkpt lat="27.928170" lon="-15.549660">
        <ele>851.09</ele>
        <time>2010-01-01T01:36:44Z</time>
      </trkpt>
      <trkpt lat="27.928370" lon="-15.549820">
        <ele>847.08</ele>
        <time>2010-01-01T01:36:54Z</time>
      </trkpt>
      <trkpt lat="27.928670" lon="-15.549900">
        <ele>847.02</ele>
        <time>2010-01-01T01:37:07Z</time>
      </trkpt>
      <trkpt lat="27.928760" lon="-15.549970">
        <ele>847.08</ele>
        <time>2010-01-01T01:37:11Z</time>
      </trkpt>
      <trkpt lat="27.928950" lon="-15.550260">
        <ele>845.06</ele>
        <time>2010-01-01T01:37:24Z</time>
      </trkpt>
      <trkpt lat="27.929200" lon="-15.550330">
        <ele>845.01</ele>
        <time>2010-01-01T01:37:34Z</time>
      </trkpt>
      <trkpt lat="27.929280" lon="-15.550330">
        <ele>845.02</ele>
        <time>2010-01-01T01:37:37Z</time>
      </trkpt>
      <trkpt lat="27.929350" lon="-15.550290">
        <ele>847.09</ele>
        <time>2010-01-01T01:37:40Z</time>
      </trkpt>
      <trkpt lat="27.929430" lon="-15.550200">
        <ele>849.05</ele>
        <time>2010-01-01T01:37:45Z</time>
      </trkpt>
      <trkpt lat="27.929590" lon="-15.550110">
        <ele>851.03</ele>
        <time>2010-01-01T01:37:52Z</time>
      </trkpt>
      <trkpt lat="27.929670" lon="-15.550030">
        <ele>853.04</ele>
        <time>2010-01-01T01:37:56Z</time>
      </trkpt>
      <trkpt lat="27.929700" lon="-15.549950">
        <ele>855.04</ele>
        <time>2010-01-01T01:37:59Z</time>
      </trkpt>
      <trkpt lat="27.929700" lon="-15.549880">
        <ele>857.05</ele>
        <time>2010-01-01T01:38:02Z</time>
      </trkpt>
      <trkpt lat="27.929580" lon="-15.549710">
        <ele>858.08</ele>
        <time>2010-01-01T01:38:10Z</time>
      </trkpt>
      <trkpt lat="27.929560" lon="-15.549630">
        <ele>859.07</ele>
        <time>2010-01-01T01:38:12Z</time>
      </trkpt>
      <trkpt lat="27.929600" lon="-15.549420">
        <ele>864.08</ele>
        <time>2010-01-01T01:38:20Z</time>
      </trkpt>
      <trkpt lat="27.929570" lon="-15.549320">
        <ele>867.03</ele>
        <time>2010-01-01T01:38:24Z</time>
      </trkpt>
      <trkpt lat="27.929410" lon="-15.549190">
        <ele>868.01</ele>
        <time>2010-01-01T01:38:32Z</time>
      </trkpt>
      <trkpt lat="27.929410" lon="-15.549100">
        <ele>872.02</ele>
        <time>2010-01-01T01:38:35Z</time>
      </trkpt>
      <trkpt lat="27.929270" lon="-15.549040">
        <ele>872.00</ele>
        <time>2010-01-01T01:38:41Z</time>
      </trkpt>
      <trkpt lat="27.929270" lon="-15.548970">
        <ele>874.03</ele>
        <time>2010-01-01T01:38:43Z</time>
      </trkpt>
      <trkpt lat="27.929300" lon="-15.548860">
        <ele>878.07</ele>
        <time>2010-01-01T01:38:47Z</time>
      </trkpt>
      <trkpt lat="27.929250" lon="-15.548720">
        <ele>881.02</ele>
        <time>2010-01-01T01:38:53Z</time>
      </trkpt>
      <trkpt lat="27.929250" lon="-15.548570">
        <ele>885.03</ele>
        <time>2010-01-01T01:38:58Z</time>
      </trkpt>
      <trkpt lat="27.929210" lon="-15.548480">
        <ele>886.01</ele>
        <time>2010-01-01T01:39:02Z</time>
      </trkpt>
      <trkpt lat="27.929260" lon="-15.548340">
        <ele>893.09</ele>
        <time>2010-01-01T01:39:07Z</time>
      </trkpt>
      <trkpt lat="27.929210" lon="-15.547860">
        <ele>902.02</ele>
        <time>2010-01-01T01:39:24Z</time>
      </trkpt>
      <trkpt lat="27.929290" lon="-15.547630">
        <ele>911.07</ele>
        <time>2010-01-01T01:39:33Z</time>
      </trkpt>
      <trkpt lat="27.929280" lon="-15.547530">
        <ele>913.07</ele>
        <time>2010-01-01T01:39:36Z</time>
      </trkpt>
      <trkpt lat="27.929290" lon="-15.547450">
        <ele>916.01</ele>
        <time>2010-01-01T01:39:39Z</time>
      </trkpt>
      <trkpt lat="27.929270" lon="-15.547390">
        <ele>917.01</ele>
        <time>2010-01-01T01:39:41Z</time>
      </trkpt>
      <trkpt lat="27.929220" lon="-15.547320">
        <ele>917.06</ele>
        <time>2010-01-01T01:39:45Z</time>
      </trkpt>
      <trkpt lat="27.929220" lon="-15.547280">
        <ele>919.06</ele>
        <time>2010-01-01T01:39:46Z</time>
      </trkpt>
      <trkpt lat="27.929230" lon="-15.547250">
        <ele>920.03</ele>
        <time>2010-01-01T01:39:47Z</time>
      </trkpt>
      <trkpt lat="27.929210" lon="-15.547190">
        <ele>921.09</ele>
        <time>2010-01-01T01:39:49Z</time>
      </trkpt>
      <trkpt lat="27.929150" lon="-15.547170">
        <ele>920.09</ele>
        <time>2010-01-01T01:39:52Z</time>
      </trkpt>
      <trkpt lat="27.929070" lon="-15.546900">
        <ele>930.03</ele>
        <time>2010-01-01T01:40:02Z</time>
      </trkpt>
      <trkpt lat="27.929010" lon="-15.546840">
        <ele>932.08</ele>
        <time>2010-01-01T01:40:05Z</time>
      </trkpt>
      <trkpt lat="27.928790" lon="-15.546830">
        <ele>928.09</ele>
        <time>2010-01-01T01:40:14Z</time>
      </trkpt>
      <trkpt lat="27.928740" lon="-15.546790">
        <ele>929.05</ele>
        <time>2010-01-01T01:40:17Z</time>
      </trkpt>
      <trkpt lat="27.928770" lon="-15.546720">
        <ele>935.08</ele>
        <time>2010-01-01T01:40:19Z</time>
      </trkpt>
      <trkpt lat="27.928740" lon="-15.546680">
        <ele>936.01</ele>
        <time>2010-01-01T01:40:21Z</time>
      </trkpt>
      <trkpt lat="27.928710" lon="-15.546660">
        <ele>937.01</ele>
        <time>2010-01-01T01:40:23Z</time>
      </trkpt>
      <trkpt lat="27.928710" lon="-15.546620">
        <ele>938.09</ele>
        <time>2010-01-01T01:40:24Z</time>
      </trkpt>
      <trkpt lat="27.928730" lon="-15.546580">
        <ele>940.07</ele>
        <time>2010-01-01T01:40:26Z</time>
      </trkpt>
      <trkpt lat="27.928710" lon="-15.546530">
        <ele>941.09</ele>
        <time>2010-01-01T01:40:28Z</time>
      </trkpt>
      <trkpt lat="27.928640" lon="-15.546500">
        <ele>940.06</ele>
        <time>2010-01-01T01:40:31Z</time>
      </trkpt>
      <trkpt lat="27.928590" lon="-15.546440">
        <ele>940.06</ele>
        <time>2010-01-01T01:40:33Z</time>
      </trkpt>
      <trkpt lat="27.928580" lon="-15.546340">
        <ele>941.05</ele>
        <time>2010-01-01T01:40:37Z</time>
      </trkpt>
      <trkpt lat="27.928550" lon="-15.546320">
        <ele>940.08</ele>
        <time>2010-01-01T01:40:38Z</time>
      </trkpt>
      <trkpt lat="27.928490" lon="-15.546330">
        <ele>938.02</ele>
        <time>2010-01-01T01:40:41Z</time>
      </trkpt>
      <trkpt lat="27.928460" lon="-15.546310">
        <ele>936.06</ele>
        <time>2010-01-01T01:40:42Z</time>
      </trkpt>
      <trkpt lat="27.928450" lon="-15.546200">
        <ele>936.08</ele>
        <time>2010-01-01T01:40:46Z</time>
      </trkpt>
      <trkpt lat="27.928480" lon="-15.546150">
        <ele>938.01</ele>
        <time>2010-01-01T01:40:48Z</time>
      </trkpt>
      <trkpt lat="27.928520" lon="-15.546120">
        <ele>940.02</ele>
        <time>2010-01-01T01:40:50Z</time>
      </trkpt>
      <trkpt lat="27.928680" lon="-15.546150">
        <ele>948.09</ele>
        <time>2010-01-01T01:40:57Z</time>
      </trkpt>
      <trkpt lat="27.928710" lon="-15.546120">
        <ele>949.03</ele>
        <time>2010-01-01T01:40:58Z</time>
      </trkpt>
      <trkpt lat="27.928680" lon="-15.546090">
        <ele>948.08</ele>
        <time>2010-01-01T01:41:00Z</time>
      </trkpt>
      <trkpt lat="27.928720" lon="-15.546010">
        <ele>952.04</ele>
        <time>2010-01-01T01:41:03Z</time>
      </trkpt>
      <trkpt lat="27.928770" lon="-15.546000">
        <ele>955.05</ele>
        <time>2010-01-01T01:41:05Z</time>
      </trkpt>
      <trkpt lat="27.928800" lon="-15.546010">
        <ele>956.07</ele>
        <time>2010-01-01T01:41:06Z</time>
      </trkpt>
      <trkpt lat="27.928830" lon="-15.546070">
        <ele>956.05</ele>
        <time>2010-01-01T01:41:09Z</time>
      </trkpt>
      <trkpt lat="27.928900" lon="-15.546080">
        <ele>960.09</ele>
        <time>2010-01-01T01:41:12Z</time>
      </trkpt>
      <trkpt lat="27.928930" lon="-15.546050">
        <ele>961.06</ele>
        <time>2010-01-01T01:41:13Z</time>
      </trkpt>
      <trkpt lat="27.928880" lon="-15.546030">
        <ele>960.01</ele>
        <time>2010-01-01T01:41:15Z</time>
      </trkpt>
      <trkpt lat="27.928880" lon="-15.545990">
        <ele>961.01</ele>
        <time>2010-01-01T01:41:17Z</time>
      </trkpt>
      <trkpt lat="27.929010" lon="-15.545970">
        <ele>966.02</ele>
        <time>2010-01-01T01:41:22Z</time>
      </trkpt>
      <trkpt lat="27.929020" lon="-15.545930">
        <ele>967.02</ele>
        <time>2010-01-01T01:41:24Z</time>
      </trkpt>
      <trkpt lat="27.929060" lon="-15.545930">
        <ele>969.10</ele>
        <time>2010-01-01T01:41:25Z</time>
      </trkpt>
      <trkpt lat="27.929110" lon="-15.545950">
        <ele>970.05</ele>
        <time>2010-01-01T01:41:27Z</time>
      </trkpt>
      <trkpt lat="27.929110" lon="-15.545910">
        <ele>971.04</ele>
        <time>2010-01-01T01:41:29Z</time>
      </trkpt>
      <trkpt lat="27.929090" lon="-15.545870">
        <ele>971.09</ele>
        <time>2010-01-01T01:41:30Z</time>
      </trkpt>
      <trkpt lat="27.929130" lon="-15.545820">
        <ele>973.04</ele>
        <time>2010-01-01T01:41:33Z</time>
      </trkpt>
      <trkpt lat="27.929130" lon="-15.545770">
        <ele>974.06</ele>
        <time>2010-01-01T01:41:34Z</time>
      </trkpt>
      <trkpt lat="27.929150" lon="-15.545760">
        <ele>975.05</ele>
        <time>2010-01-01T01:41:35Z</time>
      </trkpt>
      <trkpt lat="27.929180" lon="-15.545760">
        <ele>976.03</ele>
        <time>2010-01-01T01:41:37Z</time>
      </trkpt>
      <trkpt lat="27.929190" lon="-15.545820">
        <ele>976.04</ele>
        <time>2010-01-01T01:41:39Z</time>
      </trkpt>
      <trkpt lat="27.929260" lon="-15.545800">
        <ele>979.01</ele>
        <time>2010-01-01T01:41:42Z</time>
      </trkpt>
      <trkpt lat="27.929290" lon="-15.545820">
        <ele>980.01</ele>
        <time>2010-01-01T01:41:43Z</time>
      </trkpt>
      <trkpt lat="27.929340" lon="-15.545800">
        <ele>983.03</ele>
        <time>2010-01-01T01:41:45Z</time>
      </trkpt>
      <trkpt lat="27.929390" lon="-15.545850">
        <ele>984.01</ele>
        <time>2010-01-01T01:41:48Z</time>
      </trkpt>
      <trkpt lat="27.929420" lon="-15.545860">
        <ele>985.05</ele>
        <time>2010-01-01T01:41:49Z</time>
      </trkpt>
      <trkpt lat="27.929450" lon="-15.545830">
        <ele>988.09</ele>
        <time>2010-01-01T01:41:51Z</time>
      </trkpt>
      <trkpt lat="27.929430" lon="-15.545760">
        <ele>988.07</ele>
        <time>2010-01-01T01:41:53Z</time>
      </trkpt>
      <trkpt lat="27.929460" lon="-15.545740">
        <ele>989.07</ele>
        <time>2010-01-01T01:41:55Z</time>
      </trkpt>
      <trkpt lat="27.929490" lon="-15.545760">
        <ele>990.02</ele>
        <time>2010-01-01T01:41:56Z</time>
      </trkpt>
      <trkpt lat="27.929560" lon="-15.545720">
        <ele>993.01</ele>
        <time>2010-01-01T01:41:59Z</time>
      </trkpt>
      <trkpt lat="27.929660" lon="-15.545770">
        <ele>996.02</ele>
        <time>2010-01-01T01:42:04Z</time>
      </trkpt>
      <trkpt lat="27.929780" lon="-15.545750">
        <ele>1000.07</ele>
        <time>2010-01-01T01:42:08Z</time>
      </trkpt>
      <trkpt lat="27.929930" lon="-15.545670">
        <ele>1008.01</ele>
        <time>2010-01-01T01:42:15Z</time>
      </trkpt>
      <trkpt lat="27.930120" lon="-15.545640">
        <ele>1014.01</ele>
        <time>2010-01-01T01:42:23Z</time>
      </trkpt>
      <trkpt lat="27.930370" lon="-15.545710">
        <ele>1018.09</ele>
        <time>2010-01-01T01:42:33Z</time>
      </trkpt>
      <trkpt lat="27.930420" lon="-15.545680">
        <ele>1019.03</ele>
        <time>2010-01-01T01:42:35Z</time>
      </trkpt>
      <trkpt lat="27.930470" lon="-15.545670">
        <ele>1020.02</ele>
        <time>2010-01-01T01:42:37Z</time>
      </trkpt>
      <trkpt lat="27.930550" lon="-15.545610">
        <ele>1022.09</ele>
        <time>2010-01-01T01:42:41Z</time>
      </trkpt>
      <trkpt lat="27.930720" lon="-15.545430">
        <ele>1024.10</ele>
        <time>2010-01-01T01:42:50Z</time>
      </trkpt>
      <trkpt lat="27.930740" lon="-15.545370">
        <ele>1026.09</ele>
        <time>2010-01-01T01:42:53Z</time>
      </trkpt>
      <trkpt lat="27.930850" lon="-15.545250">
        <ele>1030.09</ele>
        <time>2010-01-01T01:42:59Z</time>
      </trkpt>
      <trkpt lat="27.930890" lon="-15.545170">
        <ele>1031.07</ele>
        <time>2010-01-01T01:43:02Z</time>
      </trkpt>
      <trkpt lat="27.931060" lon="-15.545050">
        <ele>1035.08</ele>
        <time>2010-01-01T01:43:10Z</time>
      </trkpt>
      <trkpt lat="27.931200" lon="-15.544890">
        <ele>1039.06</ele>
        <time>2010-01-01T01:43:18Z</time>
      </trkpt>
      <trkpt lat="27.931420" lon="-15.544740">
        <ele>1046.01</ele>
        <time>2010-01-01T01:43:28Z</time>
      </trkpt>
      <trkpt lat="27.931570" lon="-15.544630">
        <ele>1049.02</ele>
        <time>2010-01-01T01:43:36Z</time>
      </trkpt>
      <trkpt lat="27.931640" lon="-15.544550">
        <ele>1052.09</ele>
        <time>2010-01-01T01:43:39Z</time>
      </trkpt>
      <trkpt lat="27.931750" lon="-15.544450">
        <ele>1058.02</ele>
        <time>2010-01-01T01:43:45Z</time>
      </trkpt>
      <trkpt lat="27.931990" lon="-15.544310">
        <ele>1067.04</ele>
        <time>2010-01-01T01:43:56Z</time>
      </trkpt>
      <trkpt lat="27.932080" lon="-15.544300">
        <ele>1069.08</ele>
        <time>2010-01-01T01:44:00Z</time>
      </trkpt>
      <trkpt lat="27.932150" lon="-15.544270">
        <ele>1072.07</ele>
        <time>2010-01-01T01:44:03Z</time>
      </trkpt>
      <trkpt lat="27.932320" lon="-15.544330">
        <ele>1072.07</ele>
        <time>2010-01-01T01:44:10Z</time>
      </trkpt>
      <trkpt lat="27.932360" lon="-15.544320">
        <ele>1072.02</ele>
        <time>2010-01-01T01:44:11Z</time>
      </trkpt>
      <trkpt lat="27.932440" lon="-15.544360">
        <ele>1071.06</ele>
        <time>2010-01-01T01:44:15Z</time>
      </trkpt>
      <trkpt lat="27.932530" lon="-15.544310">
        <ele>1073.04</ele>
        <time>2010-01-01T01:44:19Z</time>
      </trkpt>
      <trkpt lat="27.932610" lon="-15.544180">
        <ele>1078.02</ele>
        <time>2010-01-01T01:44:24Z</time>
      </trkpt>
      <trkpt lat="27.932750" lon="-15.544080">
        <ele>1080.01</ele>
        <time>2010-01-01T01:44:31Z</time>
      </trkpt>
      <trkpt lat="27.932740" lon="-15.544040">
        <ele>1081.02</ele>
        <time>2010-01-01T01:44:33Z</time>
      </trkpt>
      <trkpt lat="27.932760" lon="-15.543930">
        <ele>1084.06</ele>
        <time>2010-01-01T01:44:37Z</time>
      </trkpt>
      <trkpt lat="27.932870" lon="-15.543760">
        <ele>1084.09</ele>
        <time>2010-01-01T01:44:44Z</time>
      </trkpt>
      <trkpt lat="27.932910" lon="-15.543640">
        <ele>1085.02</ele>
        <time>2010-01-01T01:44:49Z</time>
      </trkpt>
      <trkpt lat="27.932990" lon="-15.543580">
        <ele>1085.04</ele>
        <time>2010-01-01T01:44:52Z</time>
      </trkpt>
      <trkpt lat="27.933010" lon="-15.543460">
        <ele>1089.03</ele>
        <time>2010-01-01T01:44:57Z</time>
      </trkpt>
      <trkpt lat="27.933190" lon="-15.543310">
        <ele>1097.03</ele>
        <time>2010-01-01T01:45:06Z</time>
      </trkpt>
      <trkpt lat="27.933320" lon="-15.543120">
        <ele>1107.08</ele>
        <time>2010-01-01T01:45:14Z</time>
      </trkpt>
      <trkpt lat="27.933480" lon="-15.542970">
        <ele>1112.03</ele>
        <time>2010-01-01T01:45:22Z</time>
      </trkpt>
      <trkpt lat="27.933570" lon="-15.542760">
        <ele>1117.09</ele>
        <time>2010-01-01T01:45:31Z</time>
      </trkpt>
      <trkpt lat="27.933620" lon="-15.542700">
        <ele>1118.07</ele>
        <time>2010-01-01T01:45:34Z</time>
      </trkpt>
      <trkpt lat="27.933600" lon="-15.542650">
        <ele>1119.01</ele>
        <time>2010-01-01T01:45:36Z</time>
      </trkpt>
      <trkpt lat="27.933670" lon="-15.542520">
        <ele>1123.02</ele>
        <time>2010-01-01T01:45:41Z</time>
      </trkpt>
      <trkpt lat="27.933710" lon="-15.542490">
        <ele>1124.00</ele>
        <time>2010-01-01T01:45:43Z</time>
      </trkpt>
      <trkpt lat="27.933740" lon="-15.542430">
        <ele>1126.04</ele>
        <time>2010-01-01T01:45:45Z</time>
      </trkpt>
      <trkpt lat="27.933790" lon="-15.542400">
        <ele>1128.07</ele>
        <time>2010-01-01T01:45:48Z</time>
      </trkpt>
      <trkpt lat="27.933850" lon="-15.542310">
        <ele>1131.08</ele>
        <time>2010-01-01T01:45:52Z</time>
      </trkpt>
      <trkpt lat="27.933920" lon="-15.542280">
        <ele>1133.06</ele>
        <time>2010-01-01T01:45:55Z</time>
      </trkpt>
      <trkpt lat="27.933950" lon="-15.542200">
        <ele>1136.04</ele>
        <time>2010-01-01T01:45:58Z</time>
      </trkpt>
      <trkpt lat="27.934130" lon="-15.542060">
        <ele>1142.02</ele>
        <time>2010-01-01T01:46:06Z</time>
      </trkpt>
      <trkpt lat="27.934180" lon="-15.541940">
        <ele>1145.07</ele>
        <time>2010-01-01T01:46:11Z</time>
      </trkpt>
      <trkpt lat="27.934210" lon="-15.541750">
        <ele>1150.04</ele>
        <time>2010-01-01T01:46:18Z</time>
      </trkpt>
      <trkpt lat="27.934190" lon="-15.541590">
        <ele>1155.01</ele>
        <time>2010-01-01T01:46:24Z</time>
      </trkpt>
      <trkpt lat="27.934070" lon="-15.541460">
        <ele>1156.01</ele>
        <time>2010-01-01T01:46:30Z</time>
      </trkpt>
      <trkpt lat="27.934230" lon="-15.541390">
        <ele>1164.02</ele>
        <time>2010-01-01T01:46:37Z</time>
      </trkpt>
      <trkpt lat="27.934070" lon="-15.541340">
        <ele>1160.09</ele>
        <time>2010-01-01T01:46:44Z</time>
      </trkpt>
      <trkpt lat="27.934030" lon="-15.541270">
        <ele>1161.09</ele>
        <time>2010-01-01T01:46:47Z</time>
      </trkpt>
      <trkpt lat="27.934040" lon="-15.541200">
        <ele>1164.10</ele>
        <time>2010-01-01T01:46:49Z</time>
      </trkpt>
      <trkpt lat="27.934110" lon="-15.541230">
        <ele>1166.09</ele>
        <time>2010-01-01T01:46:52Z</time>
      </trkpt>
      <trkpt lat="27.934160" lon="-15.541200">
        <ele>1169.01</ele>
        <time>2010-01-01T01:46:54Z</time>
      </trkpt>
      <trkpt lat="27.934130" lon="-15.541140">
        <ele>1170.04</ele>
        <time>2010-01-01T01:46:57Z</time>
      </trkpt>
      <trkpt lat="27.934190" lon="-15.540900">
        <ele>1176.04</ele>
        <time>2010-01-01T01:47:06Z</time>
      </trkpt>
      <trkpt lat="27.934290" lon="-15.541010">
        <ele>1178.08</ele>
        <time>2010-01-01T01:47:11Z</time>
      </trkpt>
      <trkpt lat="27.934380" lon="-15.541020">
        <ele>1180.10</ele>
        <time>2010-01-01T01:47:15Z</time>
      </trkpt>
      <trkpt lat="27.934360" lon="-15.540930">
        <ele>1181.08</ele>
        <time>2010-01-01T01:47:18Z</time>
      </trkpt>
      <trkpt lat="27.934440" lon="-15.540950">
        <ele>1183.01</ele>
        <time>2010-01-01T01:47:21Z</time>
      </trkpt>
      <trkpt lat="27.934400" lon="-15.540870">
        <ele>1183.01</ele>
        <time>2010-01-01T01:47:25Z</time>
      </trkpt>
      <trkpt lat="27.934490" lon="-15.540910">
        <ele>1186.06</ele>
        <time>2010-01-01T01:47:29Z</time>
      </trkpt>
      <trkpt lat="27.934750" lon="-15.540850">
        <ele>1202.04</ele>
        <time>2010-01-01T01:47:39Z</time>
      </trkpt>
      <trkpt lat="27.934620" lon="-15.540790">
        <ele>1196.07</ele>
        <time>2010-01-01T01:47:45Z</time>
      </trkpt>
      <trkpt lat="27.934580" lon="-15.540720">
        <ele>1196.04</ele>
        <time>2010-01-01T01:47:48Z</time>
      </trkpt>
      <trkpt lat="27.934580" lon="-15.540660">
        <ele>1197.02</ele>
        <time>2010-01-01T01:47:50Z</time>
      </trkpt>
      <trkpt lat="27.934660" lon="-15.540710">
        <ele>1201.06</ele>
        <time>2010-01-01T01:47:54Z</time>
      </trkpt>
      <trkpt lat="27.934740" lon="-15.540700">
        <ele>1207.02</ele>
        <time>2010-01-01T01:47:57Z</time>
      </trkpt>
      <trkpt lat="27.934760" lon="-15.540670">
        <ele>1209.05</ele>
        <time>2010-01-01T01:47:58Z</time>
      </trkpt>
      <trkpt lat="27.934700" lon="-15.540600">
        <ele>1208.05</ele>
        <time>2010-01-01T01:48:02Z</time>
      </trkpt>
      <trkpt lat="27.934700" lon="-15.540470">
        <ele>1213.07</ele>
        <time>2010-01-01T01:48:06Z</time>
      </trkpt>
      <trkpt lat="27.934730" lon="-15.540430">
        <ele>1217.01</ele>
        <time>2010-01-01T01:48:08Z</time>
      </trkpt>
      <trkpt lat="27.934770" lon="-15.540490">
        <ele>1217.03</ele>
        <time>2010-01-01T01:48:11Z</time>
      </trkpt>
      <trkpt lat="27.934820" lon="-15.540500">
        <ele>1219.01</ele>
        <time>2010-01-01T01:48:13Z</time>
      </trkpt>
      <trkpt lat="27.934810" lon="-15.540310">
        <ele>1225.08</ele>
        <time>2010-01-01T01:48:19Z</time>
      </trkpt>
      <trkpt lat="27.934890" lon="-15.540360">
        <ele>1227.05</ele>
        <time>2010-01-01T01:48:23Z</time>
      </trkpt>
      <trkpt lat="27.934900" lon="-15.540240">
        <ele>1232.02</ele>
        <time>2010-01-01T01:48:27Z</time>
      </trkpt>
      <trkpt lat="27.934970" lon="-15.540340">
        <ele>1232.07</ele>
        <time>2010-01-01T01:48:32Z</time>
      </trkpt>
      <trkpt lat="27.935030" lon="-15.540340">
        <ele>1234.06</ele>
        <time>2010-01-01T01:48:34Z</time>
      </trkpt>
      <trkpt lat="27.935000" lon="-15.540220">
        <ele>1238.09</ele>
        <time>2010-01-01T01:48:39Z</time>
      </trkpt>
      <trkpt lat="27.935050" lon="-15.540160">
        <ele>1241.05</ele>
        <time>2010-01-01T01:48:42Z</time>
      </trkpt>
      <trkpt lat="27.935060" lon="-15.540250">
        <ele>1239.03</ele>
        <time>2010-01-01T01:48:45Z</time>
      </trkpt>
      <trkpt lat="27.935120" lon="-15.540270">
        <ele>1240.05</ele>
        <time>2010-01-01T01:48:47Z</time>
      </trkpt>
      <trkpt lat="27.935160" lon="-15.540250">
        <ele>1242.01</ele>
        <time>2010-01-01T01:48:49Z</time>
      </trkpt>
      <trkpt lat="27.935140" lon="-15.540200">
        <ele>1243.02</ele>
        <time>2010-01-01T01:48:51Z</time>
      </trkpt>
      <trkpt lat="27.935150" lon="-15.540060">
        <ele>1249.09</ele>
        <time>2010-01-01T01:48:56Z</time>
      </trkpt>
      <trkpt lat="27.935170" lon="-15.540070">
        <ele>1249.08</ele>
        <time>2010-01-01T01:48:57Z</time>
      </trkpt>
      <trkpt lat="27.935220" lon="-15.540190">
        <ele>1246.06</ele>
        <time>2010-01-01T01:49:02Z</time>
      </trkpt>
      <trkpt lat="27.935290" lon="-15.540190">
        <ele>1249.08</ele>
        <time>2010-01-01T01:49:04Z</time>
      </trkpt>
      <trkpt lat="27.935260" lon="-15.540110">
        <ele>1251.07</ele>
        <time>2010-01-01T01:49:07Z</time>
      </trkpt>
      <trkpt lat="27.935280" lon="-15.540050">
        <ele>1254.04</ele>
        <time>2010-01-01T01:49:10Z</time>
      </trkpt>
      <trkpt lat="27.935320" lon="-15.540090">
        <ele>1254.07</ele>
        <time>2010-01-01T01:49:12Z</time>
      </trkpt>
      <trkpt lat="27.935360" lon="-15.540080">
        <ele>1256.09</ele>
        <time>2010-01-01T01:49:13Z</time>
      </trkpt>
      <trkpt lat="27.935330" lon="-15.540000">
        <ele>1258.10</ele>
        <time>2010-01-01T01:49:17Z</time>
      </trkpt>
      <trkpt lat="27.935350" lon="-15.539980">
        <ele>1260.05</ele>
        <time>2010-01-01T01:49:18Z</time>
      </trkpt>
      <trkpt lat="27.935380" lon="-15.539980">
        <ele>1261.01</ele>
        <time>2010-01-01T01:49:19Z</time>
      </trkpt>
      <trkpt lat="27.935390" lon="-15.540050">
        <ele>1258.02</ele>
        <time>2010-01-01T01:49:21Z</time>
      </trkpt>
      <trkpt lat="27.935510" lon="-15.540060">
        <ele>1262.03</ele>
        <time>2010-01-01T01:49:26Z</time>
      </trkpt>
      <trkpt lat="27.935580" lon="-15.540050">
        <ele>1266.07</ele>
        <time>2010-01-01T01:49:29Z</time>
      </trkpt>
      <trkpt lat="27.935440" lon="-15.539940">
        <ele>1265.08</ele>
        <time>2010-01-01T01:49:36Z</time>
      </trkpt>
      <trkpt lat="27.935410" lon="-15.539840">
        <ele>1270.08</ele>
        <time>2010-01-01T01:49:40Z</time>
      </trkpt>
      <trkpt lat="27.935430" lon="-15.539710">
        <ele>1277.04</ele>
        <time>2010-01-01T01:49:44Z</time>
      </trkpt>
      <trkpt lat="27.935520" lon="-15.539810">
        <ele>1274.04</ele>
        <time>2010-01-01T01:49:49Z</time>
      </trkpt>
      <trkpt lat="27.935600" lon="-15.539850">
        <ele>1276.04</ele>
        <time>2010-01-01T01:49:53Z</time>
      </trkpt>
      <trkpt lat="27.935690" lon="-15.539860">
        <ele>1279.02</ele>
        <time>2010-01-01T01:49:56Z</time>
      </trkpt>
      <trkpt lat="27.935770" lon="-15.539850">
        <ele>1284.07</ele>
        <time>2010-01-01T01:50:00Z</time>
      </trkpt>
      <trkpt lat="27.935820" lon="-15.539870">
        <ele>1285.06</ele>
        <time>2010-01-01T01:50:02Z</time>
      </trkpt>
      <trkpt lat="27.936000" lon="-15.539890">
        <ele>1291.01</ele>
        <time>2010-01-01T01:50:09Z</time>
      </trkpt>
      <trkpt lat="27.936130" lon="-15.540030">
        <ele>1291.02</ele>
        <time>2010-01-01T01:50:16Z</time>
      </trkpt>
      <trkpt lat="27.936390" lon="-15.540090">
        <ele>1303.09</ele>
        <time>2010-01-01T01:50:27Z</time>
      </trkpt>
      <trkpt lat="27.936410" lon="-15.540200">
        <ele>1299.08</ele>
        <time>2010-01-01T01:50:31Z</time>
      </trkpt>
      <trkpt lat="27.936460" lon="-15.540250">
        <ele>1300.03</ele>
        <time>2010-01-01T01:50:33Z</time>
      </trkpt>
      <trkpt lat="27.936470" lon="-15.540320">
        <ele>1298.07</ele>
        <time>2010-01-01T01:50:36Z</time>
      </trkpt>
      <trkpt lat="27.936500" lon="-15.540370">
        <ele>1298.10</ele>
        <time>2010-01-01T01:50:38Z</time>
      </trkpt>
      <trkpt lat="27.936770" lon="-15.540460">
        <ele>1307.02</ele>
        <time>2010-01-01T01:50:49Z</time>
      </trkpt>
      <trkpt lat="27.936890" lon="-15.540530">
        <ele>1307.06</ele>
        <time>2010-01-01T01:50:55Z</time>
      </trkpt>
      <trkpt lat="27.937100" lon="-15.540460">
        <ele>1320.04</ele>
        <time>2010-01-01T01:51:03Z</time>
      </trkpt>
      <trkpt lat="27.937060" lon="-15.540430">
        <ele>1319.03</ele>
        <time>2010-01-01T01:51:05Z</time>
      </trkpt>
      <trkpt lat="27.936960" lon="-15.540390">
        <ele>1314.05</ele>
        <time>2010-01-01T01:51:10Z</time>
      </trkpt>
      <trkpt lat="27.936860" lon="-15.540230">
        <ele>1318.01</ele>
        <time>2010-01-01T01:51:17Z</time>
      </trkpt>
      <trkpt lat="27.936800" lon="-15.540030">
        <ele>1325.01</ele>
        <time>2010-01-01T01:51:24Z</time>
      </trkpt>
      <trkpt lat="27.936910" lon="-15.540060">
        <ele>1327.08</ele>
        <time>2010-01-01T01:51:29Z</time>
      </trkpt>
      <trkpt lat="27.937070" lon="-15.540180">
        <ele>1331.02</ele>
        <time>2010-01-01T01:51:36Z</time>
      </trkpt>
      <trkpt lat="27.937160" lon="-15.540170">
        <ele>1338.08</ele>
        <time>2010-01-01T01:51:40Z</time>
      </trkpt>
      <trkpt lat="27.937100" lon="-15.540090">
        <ele>1337.05</ele>
        <time>2010-01-01T01:51:44Z</time>
      </trkpt>
      <trkpt lat="27.937110" lon="-15.540020">
        <ele>1341.06</ele>
        <time>2010-01-01T01:51:46Z</time>
      </trkpt>
      <trkpt lat="27.937050" lon="-15.539910">
        <ele>1342.08</ele>
        <time>2010-01-01T01:51:51Z</time>
      </trkpt>
      <trkpt lat="27.937060" lon="-15.539820">
        <ele>1347.05</ele>
        <time>2010-01-01T01:51:54Z</time>
      </trkpt>
      <trkpt lat="27.937010" lon="-15.539760">
        <ele>1348.07</ele>
        <time>2010-01-01T01:51:57Z</time>
      </trkpt>
      <trkpt lat="27.936990" lon="-15.539660">
        <ele>1352.01</ele>
        <time>2010-01-01T01:52:00Z</time>
      </trkpt>
      <trkpt lat="27.936940" lon="-15.539580">
        <ele>1353.08</ele>
        <time>2010-01-01T01:52:04Z</time>
      </trkpt>
      <trkpt lat="27.936780" lon="-15.539450">
        <ele>1354.01</ele>
        <time>2010-01-01T01:52:12Z</time>
      </trkpt>
      <trkpt lat="27.936660" lon="-15.539230">
        <ele>1359.02</ele>
        <time>2010-01-01T01:52:21Z</time>
      </trkpt>
      <trkpt lat="27.936620" lon="-15.539090">
        <ele>1363.02</ele>
        <time>2010-01-01T01:52:26Z</time>
      </trkpt>
      <trkpt lat="27.936490" lon="-15.538960">
        <ele>1360.04</ele>
        <time>2010-01-01T01:52:33Z</time>
      </trkpt>
      <trkpt lat="27.936390" lon="-15.538790">
        <ele>1361.07</ele>
        <time>2010-01-01T01:52:40Z</time>
      </trkpt>
      <trkpt lat="27.936340" lon="-15.538650">
        <ele>1365.08</ele>
        <time>2010-01-01T01:52:46Z</time>
      </trkpt>
      <trkpt lat="27.936240" lon="-15.538600">
        <ele>1366.10</ele>
        <time>2010-01-01T01:52:50Z</time>
      </trkpt>
      <trkpt lat="27.936210" lon="-15.538550">
        <ele>1366.01</ele>
        <time>2010-01-01T01:52:52Z</time>
      </trkpt>
      <trkpt lat="27.936260" lon="-15.538540">
        <ele>1367.03</ele>
        <time>2010-01-01T01:52:54Z</time>
      </trkpt>
      <trkpt lat="27.936370" lon="-15.538620">
        <ele>1367.05</ele>
        <time>2010-01-01T01:52:59Z</time>
      </trkpt>
      <trkpt lat="27.936590" lon="-15.538750">
        <ele>1374.04</ele>
        <time>2010-01-01T01:53:09Z</time>
      </trkpt>
      <trkpt lat="27.936720" lon="-15.538800">
        <ele>1381.05</ele>
        <time>2010-01-01T01:53:15Z</time>
      </trkpt>
      <trkpt lat="27.936590" lon="-15.538680">
        <ele>1376.01</ele>
        <time>2010-01-01T01:53:22Z</time>
      </trkpt>
      <trkpt lat="27.936810" lon="-15.538740">
        <ele>1391.01</ele>
        <time>2010-01-01T01:53:31Z</time>
      </trkpt>
      <trkpt lat="27.936920" lon="-15.538820">
        <ele>1396.08</ele>
        <time>2010-01-01T01:53:36Z</time>
      </trkpt>
      <trkpt lat="27.936940" lon="-15.538780">
        <ele>1400.02</ele>
        <time>2010-01-01T01:53:37Z</time>
      </trkpt>
      <trkpt lat="27.936830" lon="-15.538630">
        <ele>1398.09</ele>
        <time>2010-01-01T01:53:44Z</time>
      </trkpt>
      <trkpt lat="27.936930" lon="-15.538640">
        <ele>1407.05</ele>
        <time>2010-01-01T01:53:48Z</time>
      </trkpt>
      <trkpt lat="27.936890" lon="-15.538550">
        <ele>1406.09</ele>
        <time>2010-01-01T01:53:52Z</time>
      </trkpt>
      <trkpt lat="27.936760" lon="-15.538370">
        <ele>1400.05</ele>
        <time>2010-01-01T01:54:00Z</time>
      </trkpt>
      <trkpt lat="27.936500" lon="-15.538230">
        <ele>1390.02</ele>
        <time>2010-01-01T01:54:12Z</time>
      </trkpt>
      <trkpt lat="27.936340" lon="-15.538020">
        <ele>1399.09</ele>
        <time>2010-01-01T01:54:21Z</time>
      </trkpt>
      <trkpt lat="27.936260" lon="-15.537970">
        <ele>1396.01</ele>
        <time>2010-01-01T01:54:25Z</time>
      </trkpt>
      <trkpt lat="27.936200" lon="-15.537890">
        <ele>1393.04</ele>
        <time>2010-01-01T01:54:29Z</time>
      </trkpt>
      <trkpt lat="27.936090" lon="-15.537880">
        <ele>1388.01</ele>
        <time>2010-01-01T01:54:33Z</time>
      </trkpt>
      <trkpt lat="27.936040" lon="-15.537830">
        <ele>1386.02</ele>
        <time>2010-01-01T01:54:36Z</time>
      </trkpt>
      <trkpt lat="27.936050" lon="-15.537760">
        <ele>1386.05</ele>
        <time>2010-01-01T01:54:38Z</time>
      </trkpt>
      <trkpt lat="27.936090" lon="-15.537730">
        <ele>1386.10</ele>
        <time>2010-01-01T01:54:40Z</time>
      </trkpt>
      <trkpt lat="27.936180" lon="-15.537710">
        <ele>1389.08</ele>
        <time>2010-01-01T01:54:44Z</time>
      </trkpt>
      <trkpt lat="27.936310" lon="-15.537640">
        <ele>1391.06</ele>
        <time>2010-01-01T01:54:50Z</time>
      </trkpt>
      <trkpt lat="27.936500" lon="-15.537640">
        <ele>1402.07</ele>
        <time>2010-01-01T01:54:57Z</time>
      </trkpt>
      <trkpt lat="27.936550" lon="-15.537610">
        <ele>1403.09</ele>
        <time>2010-01-01T01:55:00Z</time>
      </trkpt>
      <trkpt lat="27.936630" lon="-15.537630">
        <ele>1408.04</ele>
        <time>2010-01-01T01:55:03Z</time>
      </trkpt>
      <trkpt lat="27.936740" lon="-15.537580">
        <ele>1411.01</ele>
        <time>2010-01-01T01:55:08Z</time>
      </trkpt>
      <trkpt lat="27.936790" lon="-15.537540">
        <ele>1411.07</ele>
        <time>2010-01-01T01:55:10Z</time>
      </trkpt>
      <trkpt lat="27.936870" lon="-15.537540">
        <ele>1415.05</ele>
        <time>2010-01-01T01:55:13Z</time>
      </trkpt>
      <trkpt lat="27.936980" lon="-15.537580">
        <ele>1423.01</ele>
        <time>2010-01-01T01:55:18Z</time>
      </trkpt>
      <trkpt lat="27.937100" lon="-15.537540">
        <ele>1424.01</ele>
        <time>2010-01-01T01:55:23Z</time>
      </trkpt>
      <trkpt lat="27.937250" lon="-15.537530">
        <ele>1429.04</ele>
        <time>2010-01-01T01:55:29Z</time>
      </trkpt>
      <trkpt lat="27.937330" lon="-15.537500">
        <ele>1430.02</ele>
        <time>2010-01-01T01:55:32Z</time>
      </trkpt>
      <trkpt lat="27.937400" lon="-15.537450">
        <ele>1430.07</ele>
        <time>2010-01-01T01:55:36Z</time>
      </trkpt>
      <trkpt lat="27.937590" lon="-15.537440">
        <ele>1438.05</ele>
        <time>2010-01-01T01:55:43Z</time>
      </trkpt>
      <trkpt lat="27.937660" lon="-15.537390">
        <ele>1440.01</ele>
        <time>2010-01-01T01:55:47Z</time>
      </trkpt>
      <trkpt lat="27.937630" lon="-15.537250">
        <ele>1431.01</ele>
        <time>2010-01-01T01:55:52Z</time>
      </trkpt>
      <trkpt lat="27.937670" lon="-15.537110">
        <ele>1428.03</ele>
        <time>2010-01-01T01:55:57Z</time>
      </trkpt>
      <trkpt lat="27.937720" lon="-15.537040">
        <ele>1428.03</ele>
        <time>2010-01-01T01:56:00Z</time>
      </trkpt>
      <trkpt lat="27.937760" lon="-15.537010">
        <ele>1430.08</ele>
        <time>2010-01-01T01:56:02Z</time>
      </trkpt>
      <trkpt lat="27.937780" lon="-15.537030">
        <ele>1431.04</ele>
        <time>2010-01-01T01:56:03Z</time>
      </trkpt>
      <trkpt lat="27.937760" lon="-15.537090">
        <ele>1432.01</ele>
        <time>2010-01-01T01:56:05Z</time>
      </trkpt>
      <trkpt lat="27.937780" lon="-15.537130">
        <ele>1435.02</ele>
        <time>2010-01-01T01:56:07Z</time>
      </trkpt>
      <trkpt lat="27.937820" lon="-15.537120">
        <ele>1437.08</ele>
        <time>2010-01-01T01:56:09Z</time>
      </trkpt>
      <trkpt lat="27.938020" lon="-15.536960">
        <ele>1443.07</ele>
        <time>2010-01-01T01:56:18Z</time>
      </trkpt>
      <trkpt lat="27.938100" lon="-15.536860">
        <ele>1446.09</ele>
        <time>2010-01-01T01:56:23Z</time>
      </trkpt>
      <trkpt lat="27.938090" lon="-15.537010">
        <ele>1449.04</ele>
        <time>2010-01-01T01:56:29Z</time>
      </trkpt>
      <trkpt lat="27.938030" lon="-15.537080">
        <ele>1447.08</ele>
        <time>2010-01-01T01:56:32Z</time>
      </trkpt>
      <trkpt lat="27.938030" lon="-15.537160">
        <ele>1449.03</ele>
        <time>2010-01-01T01:56:35Z</time>
      </trkpt>
      <trkpt lat="27.938060" lon="-15.537200">
        <ele>1452.08</ele>
        <time>2010-01-01T01:56:37Z</time>
      </trkpt>
      <trkpt lat="27.937950" lon="-15.537600">
        <ele>1463.03</ele>
        <time>2010-01-01T01:56:51Z</time>
      </trkpt>
      <trkpt lat="27.937970" lon="-15.537760">
        <ele>1469.09</ele>
        <time>2010-01-01T01:56:57Z</time>
      </trkpt>
      <trkpt lat="27.938020" lon="-15.537730">
        <ele>1469.04</ele>
        <time>2010-01-01T01:56:59Z</time>
      </trkpt>
      <trkpt lat="27.938050" lon="-15.537690">
        <ele>1469.01</ele>
        <time>2010-01-01T01:57:01Z</time>
      </trkpt>
      <trkpt lat="27.938120" lon="-15.537700">
        <ele>1471.01</ele>
        <time>2010-01-01T01:57:04Z</time>
      </trkpt>
      <trkpt lat="27.938160" lon="-15.537730">
        <ele>1472.06</ele>
        <time>2010-01-01T01:57:06Z</time>
      </trkpt>
      <trkpt lat="27.938200" lon="-15.537570">
        <ele>1470.05</ele>
        <time>2010-01-01T01:57:12Z</time>
      </trkpt>
      <trkpt lat="27.938180" lon="-15.537480">
        <ele>1467.02</ele>
        <time>2010-01-01T01:57:15Z</time>
      </trkpt>
      <trkpt lat="27.938240" lon="-15.537430">
        <ele>1468.07</ele>
        <time>2010-01-01T01:57:18Z</time>
      </trkpt>
      <trkpt lat="27.938270" lon="-15.537420">
        <ele>1469.08</ele>
        <time>2010-01-01T01:57:19Z</time>
      </trkpt>
      <trkpt lat="27.938330" lon="-15.537490">
        <ele>1472.05</ele>
        <time>2010-01-01T01:57:23Z</time>
      </trkpt>
      <trkpt lat="27.938390" lon="-15.537520">
        <ele>1475.09</ele>
        <time>2010-01-01T01:57:26Z</time>
      </trkpt>
      <trkpt lat="27.938400" lon="-15.537580">
        <ele>1476.03</ele>
        <time>2010-01-01T01:57:28Z</time>
      </trkpt>
      <trkpt lat="27.938480" lon="-15.537660">
        <ele>1480.09</ele>
        <time>2010-01-01T01:57:32Z</time>
      </trkpt>
      <trkpt lat="27.938520" lon="-15.537650">
        <ele>1481.01</ele>
        <time>2010-01-01T01:57:34Z</time>
      </trkpt>
      <trkpt lat="27.938590" lon="-15.537680">
        <ele>1484.01</ele>
        <time>2010-01-01T01:57:37Z</time>
      </trkpt>
      <trkpt lat="27.938640" lon="-15.537600">
        <ele>1486.02</ele>
        <time>2010-01-01T01:57:40Z</time>
      </trkpt>
      <trkpt lat="27.938720" lon="-15.537590">
        <ele>1490.03</ele>
        <time>2010-01-01T01:57:43Z</time>
      </trkpt>
      <trkpt lat="27.938780" lon="-15.537530">
        <ele>1492.08</ele>
        <time>2010-01-01T01:57:46Z</time>
      </trkpt>
      <trkpt lat="27.938830" lon="-15.537400">
        <ele>1493.02</ele>
        <time>2010-01-01T01:57:52Z</time>
      </trkpt>
      <trkpt lat="27.938890" lon="-15.537170">
        <ele>1493.03</ele>
        <time>2010-01-01T01:58:00Z</time>
      </trkpt>
      <trkpt lat="27.938940" lon="-15.537120">
        <ele>1495.05</ele>
        <time>2010-01-01T01:58:03Z</time>
      </trkpt>
      <trkpt lat="27.938980" lon="-15.537130">
        <ele>1496.02</ele>
        <time>2010-01-01T01:58:04Z</time>
      </trkpt>
      <trkpt lat="27.938950" lon="-15.537200">
        <ele>1496.04</ele>
        <time>2010-01-01T01:58:07Z</time>
      </trkpt>
      <trkpt lat="27.938960" lon="-15.537260">
        <ele>1497.06</ele>
        <time>2010-01-01T01:58:09Z</time>
      </trkpt>
      <trkpt lat="27.939020" lon="-15.537290">
        <ele>1500.04</ele>
        <time>2010-01-01T01:58:12Z</time>
      </trkpt>
      <trkpt lat="27.939050" lon="-15.537170">
        <ele>1499.04</ele>
        <time>2010-01-01T01:58:16Z</time>
      </trkpt>
      <trkpt lat="27.939160" lon="-15.537080">
        <ele>1502.01</ele>
        <time>2010-01-01T01:58:22Z</time>
      </trkpt>
      <trkpt lat="27.939220" lon="-15.537030">
        <ele>1503.01</ele>
        <time>2010-01-01T01:58:25Z</time>
      </trkpt>
      <trkpt lat="27.939290" lon="-15.537020">
        <ele>1505.03</ele>
        <time>2010-01-01T01:58:27Z</time>
      </trkpt>
      <trkpt lat="27.939360" lon="-15.536950">
        <ele>1506.03</ele>
        <time>2010-01-01T01:58:31Z</time>
      </trkpt>
      <trkpt lat="27.939380" lon="-15.536970">
        <ele>1507.06</ele>
        <time>2010-01-01T01:58:32Z</time>
      </trkpt>
      <trkpt lat="27.939390" lon="-15.537040">
        <ele>1509.08</ele>
        <time>2010-01-01T01:58:35Z</time>
      </trkpt>
      <trkpt lat="27.939450" lon="-15.537050">
        <ele>1511.08</ele>
        <time>2010-01-01T01:58:37Z</time>
      </trkpt>
      <trkpt lat="27.939440" lon="-15.537160">
        <ele>1513.03</ele>
        <time>2010-01-01T01:58:41Z</time>
      </trkpt>
      <trkpt lat="27.939470" lon="-15.537190">
        <ele>1514.04</ele>
        <time>2010-01-01T01:58:43Z</time>
      </trkpt>
      <trkpt lat="27.939430" lon="-15.537260">
        <ele>1514.04</ele>
        <time>2010-01-01T01:58:46Z</time>
      </trkpt>
      <trkpt lat="27.939440" lon="-15.537370">
        <ele>1515.09</ele>
        <time>2010-01-01T01:58:50Z</time>
      </trkpt>
      <trkpt lat="27.939490" lon="-15.537350">
        <ele>1517.01</ele>
        <time>2010-01-01T01:58:52Z</time>
      </trkpt>
      <trkpt lat="27.939510" lon="-15.537370">
        <ele>1517.02</ele>
        <time>2010-01-01T01:58:53Z</time>
      </trkpt>
      <trkpt lat="27.939470" lon="-15.537420">
        <ele>1517.04</ele>
        <time>2010-01-01T01:58:55Z</time>
      </trkpt>
      <trkpt lat="27.939450" lon="-15.537540">
        <ele>1518.07</ele>
        <time>2010-01-01T01:59:00Z</time>
      </trkpt>
      <trkpt lat="27.939500" lon="-15.537590">
        <ele>1521.05</ele>
        <time>2010-01-01T01:59:02Z</time>
      </trkpt>
      <trkpt lat="27.939480" lon="-15.537690">
        <ele>1523.04</ele>
        <time>2010-01-01T01:59:06Z</time>
      </trkpt>
      <trkpt lat="27.939500" lon="-15.537720">
        <ele>1525.10</ele>
        <time>2010-01-01T01:59:07Z</time>
      </trkpt>
      <trkpt lat="27.939540" lon="-15.537650">
        <ele>1525.09</ele>
        <time>2010-01-01T01:59:10Z</time>
      </trkpt>
      <trkpt lat="27.939640" lon="-15.537570">
        <ele>1526.02</ele>
        <time>2010-01-01T01:59:15Z</time>
      </trkpt>
      <trkpt lat="27.939670" lon="-15.537530">
        <ele>1526.06</ele>
        <time>2010-01-01T01:59:17Z</time>
      </trkpt>
      <trkpt lat="27.939690" lon="-15.537540">
        <ele>1527.02</ele>
        <time>2010-01-01T01:59:18Z</time>
      </trkpt>
      <trkpt lat="27.939680" lon="-15.537630">
        <ele>1530.04</ele>
        <time>2010-01-01T01:59:21Z</time>
      </trkpt>
      <trkpt lat="27.939710" lon="-15.537650">
        <ele>1532.01</ele>
        <time>2010-01-01T01:59:22Z</time>
      </trkpt>
      <trkpt lat="27.939730" lon="-15.537600">
        <ele>1531.01</ele>
        <time>2010-01-01T01:59:24Z</time>
      </trkpt>
      <trkpt lat="27.939770" lon="-15.537600">
        <ele>1532.07</ele>
        <time>2010-01-01T01:59:26Z</time>
      </trkpt>
      <trkpt lat="27.939840" lon="-15.537630">
        <ele>1536.02</ele>
        <time>2010-01-01T01:59:29Z</time>
      </trkpt>
      <trkpt lat="27.939830" lon="-15.537700">
        <ele>1538.02</ele>
        <time>2010-01-01T01:59:31Z</time>
      </trkpt>
      <trkpt lat="27.939900" lon="-15.537690">
        <ele>1541.06</ele>
        <time>2010-01-01T01:59:34Z</time>
      </trkpt>
      <trkpt lat="27.939950" lon="-15.537730">
        <ele>1544.05</ele>
        <time>2010-01-01T01:59:37Z</time>
      </trkpt>
      <trkpt lat="27.940060" lon="-15.537750">
        <ele>1548.09</ele>
        <time>2010-01-01T01:59:41Z</time>
      </trkpt>
      <trkpt lat="27.940060" lon="-15.537790">
        <ele>1550.02</ele>
        <time>2010-01-01T01:59:43Z</time>
      </trkpt>
      <trkpt lat="27.939950" lon="-15.537810">
        <ele>1547.10</ele>
        <time>2010-01-01T01:59:47Z</time>
      </trkpt>
      <trkpt lat="27.939880" lon="-15.537860">
        <ele>1546.09</ele>
        <time>2010-01-01T01:59:50Z</time>
      </trkpt>
      <trkpt lat="27.939930" lon="-15.537880">
        <ele>1548.02</ele>
        <time>2010-01-01T01:59:52Z</time>
      </trkpt>
      <trkpt lat="27.939890" lon="-15.537920">
        <ele>1547.01</ele>
        <time>2010-01-01T01:59:55Z</time>
      </trkpt>
      <trkpt lat="27.939910" lon="-15.537970">
        <ele>1549.03</ele>
        <time>2010-01-01T01:59:57Z</time>
      </trkpt>
      <trkpt lat="27.939940" lon="-15.537990">
        <ele>1551.02</ele>
        <time>2010-01-01T01:59:58Z</time>
      </trkpt>
      <trkpt lat="27.940100" lon="-15.537980">
        <ele>1556.10</ele>
        <time>2010-01-01T02:00:04Z</time>
      </trkpt>
      <trkpt lat="27.940050" lon="-15.538040">
        <ele>1556.09</ele>
        <time>2010-01-01T02:00:07Z</time>
      </trkpt>
      <trkpt lat="27.940030" lon="-15.538120">
        <ele>1556.07</ele>
        <time>2010-01-01T02:00:10Z</time>
      </trkpt>
      <trkpt lat="27.939980" lon="-15.538180">
        <ele>1555.10</ele>
        <time>2010-01-01T02:00:13Z</time>
      </trkpt>
      <trkpt lat="27.940010" lon="-15.538240">
        <ele>1556.03</ele>
        <time>2010-01-01T02:00:16Z</time>
      </trkpt>
      <trkpt lat="27.940040" lon="-15.538200">
        <ele>1557.02</ele>
        <time>2010-01-01T02:00:17Z</time>
      </trkpt>
      <trkpt lat="27.940070" lon="-15.538200">
        <ele>1558.01</ele>
        <time>2010-01-01T02:00:19Z</time>
      </trkpt>
      <trkpt lat="27.940070" lon="-15.538260">
        <ele>1558.01</ele>
        <time>2010-01-01T02:00:21Z</time>
      </trkpt>
      <trkpt lat="27.940020" lon="-15.538300">
        <ele>1557.03</ele>
        <time>2010-01-01T02:00:23Z</time>
      </trkpt>
      <trkpt lat="27.940020" lon="-15.538350">
        <ele>1557.01</ele>
        <time>2010-01-01T02:00:25Z</time>
      </trkpt>
      <trkpt lat="27.940060" lon="-15.538360">
        <ele>1558.01</ele>
        <time>2010-01-01T02:00:27Z</time>
      </trkpt>
      <trkpt lat="27.940110" lon="-15.538330">
        <ele>1560.07</ele>
        <time>2010-01-01T02:00:29Z</time>
      </trkpt>
      <trkpt lat="27.940160" lon="-15.538370">
        <ele>1561.03</ele>
        <time>2010-01-01T02:00:31Z</time>
      </trkpt>
      <trkpt lat="27.940210" lon="-15.538350">
        <ele>1563.02</ele>
        <time>2010-01-01T02:00:33Z</time>
      </trkpt>
      <trkpt lat="27.940300" lon="-15.538230">
        <ele>1565.10</ele>
        <time>2010-01-01T02:00:39Z</time>
      </trkpt>
      <trkpt lat="27.940360" lon="-15.538200">
        <ele>1565.10</ele>
        <time>2010-01-01T02:00:42Z</time>
      </trkpt>
      <trkpt lat="27.940450" lon="-15.538210">
        <ele>1567.09</ele>
        <time>2010-01-01T02:00:45Z</time>
      </trkpt>
      <trkpt lat="27.940500" lon="-15.538260">
        <ele>1568.08</ele>
        <time>2010-01-01T02:00:48Z</time>
      </trkpt>
      <trkpt lat="27.940510" lon="-15.538320">
        <ele>1569.09</ele>
        <time>2010-01-01T02:00:50Z</time>
      </trkpt>
      <trkpt lat="27.940580" lon="-15.538340">
        <ele>1571.08</ele>
        <time>2010-01-01T02:00:53Z</time>
      </trkpt>
      <trkpt lat="27.940500" lon="-15.538530">
        <ele>1571.07</ele>
        <time>2010-01-01T02:01:00Z</time>
      </trkpt>
      <trkpt lat="27.940570" lon="-15.538550">
        <ele>1573.01</ele>
        <time>2010-01-01T02:01:03Z</time>
      </trkpt>
      <trkpt lat="27.940550" lon="-15.538670">
        <ele>1574.02</ele>
        <time>2010-01-01T02:01:08Z</time>
      </trkpt>
      <trkpt lat="27.940610" lon="-15.538740">
        <ele>1576.01</ele>
        <time>2010-01-01T02:01:11Z</time>
      </trkpt>
      <trkpt lat="27.940700" lon="-15.538780">
        <ele>1579.08</ele>
        <time>2010-01-01T02:01:15Z</time>
      </trkpt>
      <trkpt lat="27.940800" lon="-15.538890">
        <ele>1583.10</ele>
        <time>2010-01-01T02:01:21Z</time>
      </trkpt>
      <trkpt lat="27.940840" lon="-15.539010">
        <ele>1583.01</ele>
        <time>2010-01-01T02:01:25Z</time>
      </trkpt>
      <trkpt lat="27.940890" lon="-15.539070">
        <ele>1583.08</ele>
        <time>2010-01-01T02:01:28Z</time>
      </trkpt>
      <trkpt lat="27.940910" lon="-15.539160">
        <ele>1583.08</ele>
        <time>2010-01-01T02:01:31Z</time>
      </trkpt>
      <trkpt lat="27.941150" lon="-15.539270">
        <ele>1586.02</ele>
        <time>2010-01-01T02:01:42Z</time>
      </trkpt>
      <trkpt lat="27.941320" lon="-15.539300">
        <ele>1587.07</ele>
        <time>2010-01-01T02:01:49Z</time>
      </trkpt>
      <trkpt lat="27.941380" lon="-15.539360">
        <ele>1588.05</ele>
        <time>2010-01-01T02:01:52Z</time>
      </trkpt>
      <trkpt lat="27.941490" lon="-15.539320">
        <ele>1588.05</ele>
        <time>2010-01-01T02:01:56Z</time>
      </trkpt>
      <trkpt lat="27.941940" lon="-15.539360">
        <ele>1590.01</ele>
        <time>2010-01-01T02:02:14Z</time>
      </trkpt>
      <trkpt lat="27.942250" lon="-15.539450">
        <ele>1596.02</ele>
        <time>2010-01-01T02:02:27Z</time>
      </trkpt>
      <trkpt lat="27.942310" lon="-15.539500">
        <ele>1598.02</ele>
        <time>2010-01-01T02:02:30Z</time>
      </trkpt>
      <trkpt lat="27.942820" lon="-15.540410">
        <ele>1600.03</ele>
        <time>2010-01-01T02:03:08Z</time>
      </trkpt>
      <trkpt lat="27.943030" lon="-15.540500">
        <ele>1604.07</ele>
        <time>2010-01-01T02:03:17Z</time>
      </trkpt>
      <trkpt lat="27.943300" lon="-15.540920">
        <ele>1604.04</ele>
        <time>2010-01-01T02:03:36Z</time>
      </trkpt>
      <trkpt lat="27.943690" lon="-15.541240">
        <ele>1608.03</ele>
        <time>2010-01-01T02:03:55Z</time>
      </trkpt>
      <trkpt lat="27.943640" lon="-15.541620">
        <ele>1610.05</ele>
        <time>2010-01-01T02:04:09Z</time>
      </trkpt>
      <trkpt lat="27.943710" lon="-15.541890">
        <ele>1613.07</ele>
        <time>2010-01-01T02:04:18Z</time>
      </trkpt>
      <trkpt lat="27.943710" lon="-15.542230">
        <ele>1614.08</ele>
        <time>2010-01-01T02:04:31Z</time>
      </trkpt>
      <trkpt lat="27.943840" lon="-15.542580">
        <ele>1618.06</ele>
        <time>2010-01-01T02:04:44Z</time>
      </trkpt>
      <trkpt lat="27.944270" lon="-15.542740">
        <ele>1629.05</ele>
        <time>2010-01-01T02:05:02Z</time>
      </trkpt>
      <trkpt lat="27.944410" lon="-15.542820">
        <ele>1632.01</ele>
        <time>2010-01-01T02:05:08Z</time>
      </trkpt>
      <trkpt lat="27.946090" lon="-15.542770">
        <ele>1643.03</ele>
        <time>2010-01-01T02:06:16Z</time>
      </trkpt>
      <trkpt lat="27.946490" lon="-15.542820">
        <ele>1646.06</ele>
        <time>2010-01-01T02:06:32Z</time>
      </trkpt>
      <trkpt lat="27.946690" lon="-15.542800">
        <ele>1648.09</ele>
        <time>2010-01-01T02:06:40Z</time>
      </trkpt>
      <trkpt lat="27.947000" lon="-15.542860">
        <ele>1648.05</ele>
        <time>2010-01-01T02:06:52Z</time>
      </trkpt>
      <trkpt lat="27.947260" lon="-15.542960">
        <ele>1647.03</ele>
        <time>2010-01-01T02:07:03Z</time>
      </trkpt>
      <trkpt lat="27.947410" lon="-15.542910">
        <ele>1648.09</ele>
        <time>2010-01-01T02:07:10Z</time>
      </trkpt>
      <trkpt lat="27.947840" lon="-15.543060">
        <ele>1652.06</ele>
        <time>2010-01-01T02:07:28Z</time>
      </trkpt>
      <trkpt lat="27.948000" lon="-15.543140">
        <ele>1653.03</ele>
        <time>2010-01-01T02:07:35Z</time>
      </trkpt>
      <trkpt lat="27.948150" lon="-15.543160">
        <ele>1654.06</ele>
        <time>2010-01-01T02:07:41Z</time>
      </trkpt>
      <trkpt lat="27.948540" lon="-15.543370">
        <ele>1659.05</ele>
        <time>2010-01-01T02:07:58Z</time>
      </trkpt>
      <trkpt lat="27.948630" lon="-15.543390">
        <ele>1660.06</ele>
        <time>2010-01-01T02:08:02Z</time>
      </trkpt>
      <trkpt lat="27.948840" lon="-15.543500">
        <ele>1662.01</ele>
        <time>2010-01-01T02:08:11Z</time>
      </trkpt>
      <trkpt lat="27.949010" lon="-15.543610">
        <ele>1664.03</ele>
        <time>2010-01-01T02:08:19Z</time>
      </trkpt>
      <trkpt lat="27.949280" lon="-15.543700">
        <ele>1667.03</ele>
        <time>2010-01-01T02:08:30Z</time>
      </trkpt>
      <trkpt lat="27.949420" lon="-15.543710">
        <ele>1667.08</ele>
        <time>2010-01-01T02:08:36Z</time>
      </trkpt>
      <trkpt lat="27.949610" lon="-15.543670">
        <ele>1669.09</ele>
        <time>2010-01-01T02:08:43Z</time>
      </trkpt>
      <trkpt lat="27.949740" lon="-15.543750">
        <ele>1674.09</ele>
        <time>2010-01-01T02:08:49Z</time>
      </trkpt>
      <trkpt lat="27.949930" lon="-15.543670">
        <ele>1676.03</ele>
        <time>2010-01-01T02:08:57Z</time>
      </trkpt>
      <trkpt lat="27.950050" lon="-15.543500">
        <ele>1676.07</ele>
        <time>2010-01-01T02:09:05Z</time>
      </trkpt>
      <trkpt lat="27.950077" lon="-15.543508">
        <ele>1679.30</ele>
        <time>2017-12-09T14:12:09Z</time>
      </trkpt>
      <trkpt lat="27.950093" lon="-15.543491">
        <ele>1679.59</ele>
        <time>2017-12-09T14:12:11Z</time>
      </trkpt>
      <trkpt lat="27.950112" lon="-15.543480">
        <ele>1679.80</ele>
        <time>2017-12-09T14:12:13Z</time>
      </trkpt>
      <trkpt lat="27.950134" lon="-15.543472">
        <ele>1680.67</ele>
        <time>2017-12-09T14:12:16Z</time>
      </trkpt>
      <trkpt lat="27.950160" lon="-15.543470">
        <ele>1680.70</ele>
        <time>2017-12-09T14:12:19Z</time>
      </trkpt>
      <trkpt lat="27.950179" lon="-15.543475">
        <ele>1680.30</ele>
        <time>2017-12-09T14:12:21Z</time>
      </trkpt>
      <trkpt lat="27.950206" lon="-15.543482">
        <ele>1680.70</ele>
        <time>2017-12-09T14:12:24Z</time>
      </trkpt>
      <trkpt lat="27.950228" lon="-15.543471">
        <ele>1680.60</ele>
        <time>2017-12-09T14:12:26Z</time>
      </trkpt>
      <trkpt lat="27.950248" lon="-15.543458">
        <ele>1680.60</ele>
        <time>2017-12-09T14:12:28Z</time>
      </trkpt>
      <trkpt lat="27.950265" lon="-15.543445">
        <ele>1680.60</ele>
        <time>2017-12-09T14:12:30Z</time>
      </trkpt>
      <trkpt lat="27.950282" lon="-15.543427">
        <ele>1680.70</ele>
        <time>2017-12-09T14:12:32Z</time>
      </trkpt>
      <trkpt lat="27.950296" lon="-15.543413">
        <ele>1680.60</ele>
        <time>2017-12-09T14:12:34Z</time>
      </trkpt>
      <trkpt lat="27.950309" lon="-15.543392">
        <ele>1680.49</ele>
        <time>2017-12-09T14:12:37Z</time>
      </trkpt>
      <trkpt lat="27.950316" lon="-15.543373">
        <ele>1679.70</ele>
        <time>2017-12-09T14:12:54Z</time>
      </trkpt>
      <trkpt lat="27.950333" lon="-15.543359">
        <ele>1679.80</ele>
        <time>2017-12-09T14:12:58Z</time>
      </trkpt>
      <trkpt lat="27.950352" lon="-15.543355">
        <ele>1679.89</ele>
        <time>2017-12-09T14:13:05Z</time>
      </trkpt>
      <trkpt lat="27.950369" lon="-15.543367">
        <ele>1679.80</ele>
        <time>2017-12-09T14:13:48Z</time>
      </trkpt>
      <trkpt lat="27.950385" lon="-15.543353">
        <ele>1679.79</ele>
        <time>2017-12-09T14:13:51Z</time>
      </trkpt>
      <trkpt lat="27.950403" lon="-15.543334">
        <ele>1679.39</ele>
        <time>2017-12-09T14:13:53Z</time>
      </trkpt>
      <trkpt lat="27.950425" lon="-15.543317">
        <ele>1679.10</ele>
        <time>2017-12-09T14:13:55Z</time>
      </trkpt>
      <trkpt lat="27.950444" lon="-15.543300">
        <ele>1678.99</ele>
        <time>2017-12-09T14:13:57Z</time>
      </trkpt>
      <trkpt lat="27.950467" lon="-15.543287">
        <ele>1678.70</ele>
        <time>2017-12-09T14:13:59Z</time>
      </trkpt>
      <trkpt lat="27.950493" lon="-15.543289">
        <ele>1678.29</ele>
        <time>2017-12-09T14:14:02Z</time>
      </trkpt>
      <trkpt lat="27.950513" lon="-15.543301">
        <ele>1677.97</ele>
        <time>2017-12-09T14:14:04Z</time>
      </trkpt>
      <trkpt lat="27.950528" lon="-15.543319">
        <ele>1676.90</ele>
        <time>2017-12-09T14:14:06Z</time>
      </trkpt>
      <trkpt lat="27.950543" lon="-15.543340">
        <ele>1676.89</ele>
        <time>2017-12-09T14:14:08Z</time>
      </trkpt>
      <trkpt lat="27.950563" lon="-15.543351">
        <ele>1676.40</ele>
        <time>2017-12-09T14:14:10Z</time>
      </trkpt>
      <trkpt lat="27.950583" lon="-15.543350">
        <ele>1676.29</ele>
        <time>2017-12-09T14:14:12Z</time>
      </trkpt>
      <trkpt lat="27.950600" lon="-15.543359">
        <ele>1676.05</ele>
        <time>2017-12-09T14:14:14Z</time>
      </trkpt>
      <trkpt lat="27.950618" lon="-15.543374">
        <ele>1675.09</ele>
        <time>2017-12-09T14:14:16Z</time>
      </trkpt>
      <trkpt lat="27.950636" lon="-15.543389">
        <ele>1674.68</ele>
        <time>2017-12-09T14:14:18Z</time>
      </trkpt>
      <trkpt lat="27.950662" lon="-15.543371">
        <ele>1674.09</ele>
        <time>2017-12-09T14:14:21Z</time>
      </trkpt>
      <trkpt lat="27.950679" lon="-15.543353">
        <ele>1673.77</ele>
        <time>2017-12-09T14:14:23Z</time>
      </trkpt>
      <trkpt lat="27.950701" lon="-15.543341">
        <ele>1673.29</ele>
        <time>2017-12-09T14:14:25Z</time>
      </trkpt>
      <trkpt lat="27.950732" lon="-15.543339">
        <ele>1673.00</ele>
        <time>2017-12-09T14:14:27Z</time>
      </trkpt>
      <trkpt lat="27.950756" lon="-15.543343">
        <ele>1672.87</ele>
        <time>2017-12-09T14:14:29Z</time>
      </trkpt>
      <trkpt lat="27.950777" lon="-15.543350">
        <ele>1672.51</ele>
        <time>2017-12-09T14:14:31Z</time>
      </trkpt>
      <trkpt lat="27.950797" lon="-15.543369">
        <ele>1670.88</ele>
        <time>2017-12-09T14:14:33Z</time>
      </trkpt>
      <trkpt lat="27.950818" lon="-15.543386">
        <ele>1670.59</ele>
        <time>2017-12-09T14:14:35Z</time>
      </trkpt>
      <trkpt lat="27.950839" lon="-15.543402">
        <ele>1670.50</ele>
        <time>2017-12-09T14:14:37Z</time>
      </trkpt>
      <trkpt lat="27.950860" lon="-15.543415">
        <ele>1670.60</ele>
        <time>2017-12-09T14:14:39Z</time>
      </trkpt>
      <trkpt lat="27.950883" lon="-15.543433">
        <ele>1670.39</ele>
        <time>2017-12-09T14:14:41Z</time>
      </trkpt>
      <trkpt lat="27.950897" lon="-15.543447">
        <ele>1670.08</ele>
        <time>2017-12-09T14:14:43Z</time>
      </trkpt>
      <trkpt lat="27.950911" lon="-15.543461">
        <ele>1669.19</ele>
        <time>2017-12-09T14:14:45Z</time>
      </trkpt>
      <trkpt lat="27.950931" lon="-15.543475">
        <ele>1669.00</ele>
        <time>2017-12-09T14:14:47Z</time>
      </trkpt>
      <trkpt lat="27.950951" lon="-15.543472">
        <ele>1668.70</ele>
        <time>2017-12-09T14:14:49Z</time>
      </trkpt>
      <trkpt lat="27.950974" lon="-15.543476">
        <ele>1668.69</ele>
        <time>2017-12-09T14:14:51Z</time>
      </trkpt>
      <trkpt lat="27.951001" lon="-15.543469">
        <ele>1668.39</ele>
        <time>2017-12-09T14:14:53Z</time>
      </trkpt>
      <trkpt lat="27.951027" lon="-15.543445">
        <ele>1667.79</ele>
        <time>2017-12-09T14:14:55Z</time>
      </trkpt>
      <trkpt lat="27.951058" lon="-15.543422">
        <ele>1667.19</ele>
        <time>2017-12-09T14:14:57Z</time>
      </trkpt>
      <trkpt lat="27.951084" lon="-15.543404">
        <ele>1667.10</ele>
        <time>2017-12-09T14:14:59Z</time>
      </trkpt>
      <trkpt lat="27.951106" lon="-15.543395">
        <ele>1667.10</ele>
        <time>2017-12-09T14:15:01Z</time>
      </trkpt>
      <trkpt lat="27.951133" lon="-15.543384">
        <ele>1667.20</ele>
        <time>2017-12-09T14:15:03Z</time>
      </trkpt>
      <trkpt lat="27.951162" lon="-15.543375">
        <ele>1667.21</ele>
        <time>2017-12-09T14:15:05Z</time>
      </trkpt>
      <trkpt lat="27.951189" lon="-15.543366">
        <ele>1666.50</ele>
        <time>2017-12-09T14:15:07Z</time>
      </trkpt>
      <trkpt lat="27.951215" lon="-15.543356">
        <ele>1666.60</ele>
        <time>2017-12-09T14:15:09Z</time>
      </trkpt>
      <trkpt lat="27.951234" lon="-15.543351">
        <ele>1666.61</ele>
        <time>2017-12-09T14:15:11Z</time>
      </trkpt>
      <trkpt lat="27.951252" lon="-15.543350">
        <ele>1666.74</ele>
        <time>2017-12-09T14:15:13Z</time>
      </trkpt>
      <trkpt lat="27.951276" lon="-15.543348">
        <ele>1666.90</ele>
        <time>2017-12-09T14:15:16Z</time>
      </trkpt>
      <trkpt lat="27.951296" lon="-15.543348">
        <ele>1667.07</ele>
        <time>2017-12-09T14:15:18Z</time>
      </trkpt>
      <trkpt lat="27.951322" lon="-15.543353">
        <ele>1667.20</ele>
        <time>2017-12-09T14:15:21Z</time>
      </trkpt>
      <trkpt lat="27.951349" lon="-15.543359">
        <ele>1667.22</ele>
        <time>2017-12-09T14:15:23Z</time>
      </trkpt>
      <trkpt lat="27.951372" lon="-15.543360">
        <ele>1667.27</ele>
        <time>2017-12-09T14:15:25Z</time>
      </trkpt>
      <trkpt lat="27.951393" lon="-15.543364">
        <ele>1667.20</ele>
        <time>2017-12-09T14:15:27Z</time>
      </trkpt>
      <trkpt lat="27.951419" lon="-15.543366">
        <ele>1667.30</ele>
        <time>2017-12-09T14:15:29Z</time>
      </trkpt>
      <trkpt lat="27.951449" lon="-15.543368">
        <ele>1667.30</ele>
        <time>2017-12-09T14:15:31Z</time>
      </trkpt>
      <trkpt lat="27.951475" lon="-15.543376">
        <ele>1667.32</ele>
        <time>2017-12-09T14:15:33Z</time>
      </trkpt>
      <trkpt lat="27.951496" lon="-15.543386">
        <ele>1667.40</ele>
        <time>2017-12-09T14:15:35Z</time>
      </trkpt>
      <trkpt lat="27.951520" lon="-15.543396">
        <ele>1667.62</ele>
        <time>2017-12-09T14:15:38Z</time>
      </trkpt>
      <trkpt lat="27.951543" lon="-15.543390">
        <ele>1668.17</ele>
        <time>2017-12-09T14:15:41Z</time>
      </trkpt>
      <trkpt lat="27.951561" lon="-15.543390">
        <ele>1667.60</ele>
        <time>2017-12-09T14:15:43Z</time>
      </trkpt>
      <trkpt lat="27.951588" lon="-15.543397">
        <ele>1667.52</ele>
        <time>2017-12-09T14:15:45Z</time>
      </trkpt>
      <trkpt lat="27.951616" lon="-15.543409">
        <ele>1667.56</ele>
        <time>2017-12-09T14:15:47Z</time>
      </trkpt>
      <trkpt lat="27.951644" lon="-15.543411">
        <ele>1667.30</ele>
        <time>2017-12-09T14:15:49Z</time>
      </trkpt>
      <trkpt lat="27.951660" lon="-15.543401">
        <ele>1667.30</ele>
        <time>2017-12-09T14:16:02Z</time>
      </trkpt>
      <trkpt lat="27.951684" lon="-15.543409">
        <ele>1667.06</ele>
        <time>2017-12-09T14:16:05Z</time>
      </trkpt>
      <trkpt lat="27.951707" lon="-15.543411">
        <ele>1666.90</ele>
        <time>2017-12-09T14:16:07Z</time>
      </trkpt>
      <trkpt lat="27.951735" lon="-15.543416">
        <ele>1666.58</ele>
        <time>2017-12-09T14:16:09Z</time>
      </trkpt>
      <trkpt lat="27.951762" lon="-15.543416">
        <ele>1666.36</ele>
        <time>2017-12-09T14:16:11Z</time>
      </trkpt>
      <trkpt lat="27.951787" lon="-15.543414">
        <ele>1666.08</ele>
        <time>2017-12-09T14:16:13Z</time>
      </trkpt>
      <trkpt lat="27.951822" lon="-15.543412">
        <ele>1665.94</ele>
        <time>2017-12-09T14:16:15Z</time>
      </trkpt>
      <trkpt lat="27.951842" lon="-15.543413">
        <ele>1665.70</ele>
        <time>2017-12-09T14:16:16Z</time>
      </trkpt>
      <trkpt lat="27.951874" lon="-15.543420">
        <ele>1665.54</ele>
        <time>2017-12-09T14:16:18Z</time>
      </trkpt>
      <trkpt lat="27.951896" lon="-15.543426">
        <ele>1664.90</ele>
        <time>2017-12-09T14:16:19Z</time>
      </trkpt>
      <trkpt lat="27.951913" lon="-15.543431">
        <ele>1664.98</ele>
        <time>2017-12-09T14:16:20Z</time>
      </trkpt>
      <trkpt lat="27.951931" lon="-15.543440">
        <ele>1665.20</ele>
        <time>2017-12-09T14:16:21Z</time>
      </trkpt>
      <trkpt lat="27.951950" lon="-15.543449">
        <ele>1664.90</ele>
        <time>2017-12-09T14:16:22Z</time>
      </trkpt>
      <trkpt lat="27.951983" lon="-15.543469">
        <ele>1665.20</ele>
        <time>2017-12-09T14:16:24Z</time>
      </trkpt>
      <trkpt lat="27.952001" lon="-15.543480">
        <ele>1664.80</ele>
        <time>2017-12-09T14:16:25Z</time>
      </trkpt>
      <trkpt lat="27.952020" lon="-15.543491">
        <ele>1664.74</ele>
        <time>2017-12-09T14:16:26Z</time>
      </trkpt>
      <trkpt lat="27.952038" lon="-15.543501">
        <ele>1664.50</ele>
        <time>2017-12-09T14:16:27Z</time>
      </trkpt>
      <trkpt lat="27.952071" lon="-15.543513">
        <ele>1664.40</ele>
        <time>2017-12-09T14:16:29Z</time>
      </trkpt>
      <trkpt lat="27.952089" lon="-15.543518">
        <ele>1664.42</ele>
        <time>2017-12-09T14:16:30Z</time>
      </trkpt>
      <trkpt lat="27.952107" lon="-15.543527">
        <ele>1664.50</ele>
        <time>2017-12-09T14:16:31Z</time>
      </trkpt>
      <trkpt lat="27.952134" lon="-15.543544">
        <ele>1664.80</ele>
        <time>2017-12-09T14:16:33Z</time>
      </trkpt>
      <trkpt lat="27.952161" lon="-15.543554">
        <ele>1664.82</ele>
        <time>2017-12-09T14:16:35Z</time>
      </trkpt>
      <trkpt lat="27.952191" lon="-15.543569">
        <ele>1664.80</ele>
        <time>2017-12-09T14:16:37Z</time>
      </trkpt>
      <trkpt lat="27.952222" lon="-15.543585">
        <ele>1664.69</ele>
        <time>2017-12-09T14:16:39Z</time>
      </trkpt>
      <trkpt lat="27.952246" lon="-15.543606">
        <ele>1664.71</ele>
        <time>2017-12-09T14:16:41Z</time>
      </trkpt>
      <trkpt lat="27.952259" lon="-15.543620">
        <ele>1664.15</ele>
        <time>2017-12-09T14:16:42Z</time>
      </trkpt>
      <trkpt lat="27.952277" lon="-15.543627">
        <ele>1663.90</ele>
        <time>2017-12-09T14:16:43Z</time>
      </trkpt>
      <trkpt lat="27.952310" lon="-15.543647">
        <ele>1663.74</ele>
        <time>2017-12-09T14:16:45Z</time>
      </trkpt>
      <trkpt lat="27.952328" lon="-15.543653">
        <ele>1663.90</ele>
        <time>2017-12-09T14:16:46Z</time>
      </trkpt>
      <trkpt lat="27.952347" lon="-15.543661">
        <ele>1663.90</ele>
        <time>2017-12-09T14:16:47Z</time>
      </trkpt>
      <trkpt lat="27.952377" lon="-15.543676">
        <ele>1664.40</ele>
        <time>2017-12-09T14:16:49Z</time>
      </trkpt>
      <trkpt lat="27.952409" lon="-15.543686">
        <ele>1664.40</ele>
        <time>2017-12-09T14:16:51Z</time>
      </trkpt>
      <trkpt lat="27.952437" lon="-15.543710">
        <ele>1664.49</ele>
        <time>2017-12-09T14:16:53Z</time>
      </trkpt>
      <trkpt lat="27.952452" lon="-15.543722">
        <ele>1664.78</ele>
        <time>2017-12-09T14:16:54Z</time>
      </trkpt>
      <trkpt lat="27.952467" lon="-15.543734">
        <ele>1664.70</ele>
        <time>2017-12-09T14:16:55Z</time>
      </trkpt>
      <trkpt lat="27.952494" lon="-15.543756">
        <ele>1664.70</ele>
        <time>2017-12-09T14:16:57Z</time>
      </trkpt>
      <trkpt lat="27.952520" lon="-15.543786">
        <ele>1664.70</ele>
        <time>2017-12-09T14:16:59Z</time>
      </trkpt>
      <trkpt lat="27.952533" lon="-15.543802">
        <ele>1664.68</ele>
        <time>2017-12-09T14:17:00Z</time>
      </trkpt>
      <trkpt lat="27.952550" lon="-15.543818">
        <ele>1664.48</ele>
        <time>2017-12-09T14:17:01Z</time>
      </trkpt>
      <trkpt lat="27.952565" lon="-15.543831">
        <ele>1664.03</ele>
        <time>2017-12-09T14:17:02Z</time>
      </trkpt>
      <trkpt lat="27.952597" lon="-15.543850">
        <ele>1663.80</ele>
        <time>2017-12-09T14:17:04Z</time>
      </trkpt>
      <trkpt lat="27.952628" lon="-15.543866">
        <ele>1663.80</ele>
        <time>2017-12-09T14:17:06Z</time>
      </trkpt>
      <trkpt lat="27.952651" lon="-15.543871">
        <ele>1663.77</ele>
        <time>2017-12-09T14:17:07Z</time>
      </trkpt>
      <trkpt lat="27.952671" lon="-15.543881">
        <ele>1663.73</ele>
        <time>2017-12-09T14:17:08Z</time>
      </trkpt>
      <trkpt lat="27.952693" lon="-15.543890">
        <ele>1663.77</ele>
        <time>2017-12-09T14:17:09Z</time>
      </trkpt>
      <trkpt lat="27.952728" lon="-15.543910">
        <ele>1663.20</ele>
        <time>2017-12-09T14:17:11Z</time>
      </trkpt>
      <trkpt lat="27.952747" lon="-15.543918">
        <ele>1663.13</ele>
        <time>2017-12-09T14:17:12Z</time>
      </trkpt>
      <trkpt lat="27.952763" lon="-15.543927">
        <ele>1662.74</ele>
        <time>2017-12-09T14:17:13Z</time>
      </trkpt>
      <trkpt lat="27.952801" lon="-15.543927">
        <ele>1662.00</ele>
        <time>2017-12-09T14:17:15Z</time>
      </trkpt>
      <trkpt lat="27.952820" lon="-15.543929">
        <ele>1661.86</ele>
        <time>2017-12-09T14:17:16Z</time>
      </trkpt>
      <trkpt lat="27.952852" lon="-15.543940">
        <ele>1661.30</ele>
        <time>2017-12-09T14:17:18Z</time>
      </trkpt>
      <trkpt lat="27.952872" lon="-15.543945">
        <ele>1661.30</ele>
        <time>2017-12-09T14:17:19Z</time>
      </trkpt>
      <trkpt lat="27.952888" lon="-15.543958">
        <ele>1661.30</ele>
        <time>2017-12-09T14:17:20Z</time>
      </trkpt>
      <trkpt lat="27.952917" lon="-15.543973">
        <ele>1660.90</ele>
        <time>2017-12-09T14:17:22Z</time>
      </trkpt>
      <trkpt lat="27.952934" lon="-15.543981">
        <ele>1660.90</ele>
        <time>2017-12-09T14:17:23Z</time>
      </trkpt>
      <trkpt lat="27.952962" lon="-15.543998">
        <ele>1660.70</ele>
        <time>2017-12-09T14:17:25Z</time>
      </trkpt>
      <trkpt lat="27.952994" lon="-15.544000">
        <ele>1659.80</ele>
        <time>2017-12-09T14:17:27Z</time>
      </trkpt>
      <trkpt lat="27.953019" lon="-15.544018">
        <ele>1659.56</ele>
        <time>2017-12-09T14:17:29Z</time>
      </trkpt>
      <trkpt lat="27.953043" lon="-15.544044">
        <ele>1659.00</ele>
        <time>2017-12-09T14:17:31Z</time>
      </trkpt>
      <trkpt lat="27.953079" lon="-15.544050">
        <ele>1658.54</ele>
        <time>2017-12-09T14:17:33Z</time>
      </trkpt>
      <trkpt lat="27.953099" lon="-15.544047">
        <ele>1657.60</ele>
        <time>2017-12-09T14:17:34Z</time>
      </trkpt>
      <trkpt lat="27.953117" lon="-15.544036">
        <ele>1657.46</ele>
        <time>2017-12-09T14:17:35Z</time>
      </trkpt>
      <trkpt lat="27.953133" lon="-15.544026">
        <ele>1657.00</ele>
        <time>2017-12-09T14:17:36Z</time>
      </trkpt>
      <trkpt lat="27.953157" lon="-15.544010">
        <ele>1656.79</ele>
        <time>2017-12-09T14:17:38Z</time>
      </trkpt>
      <trkpt lat="27.953177" lon="-15.543989">
        <ele>1656.95</ele>
        <time>2017-12-09T14:17:40Z</time>
      </trkpt>
      <trkpt lat="27.953194" lon="-15.543971">
        <ele>1657.50</ele>
        <time>2017-12-09T14:17:42Z</time>
      </trkpt>
      <trkpt lat="27.953215" lon="-15.543955">
        <ele>1657.92</ele>
        <time>2017-12-09T14:17:44Z</time>
      </trkpt>
      <trkpt lat="27.953234" lon="-15.543937">
        <ele>1658.32</ele>
        <time>2017-12-09T14:17:46Z</time>
      </trkpt>
      <trkpt lat="27.953257" lon="-15.543925">
        <ele>1658.45</ele>
        <time>2017-12-09T14:17:48Z</time>
      </trkpt>
      <trkpt lat="27.953273" lon="-15.543909">
        <ele>1658.67</ele>
        <time>2017-12-09T14:17:50Z</time>
      </trkpt>
      <trkpt lat="27.953288" lon="-15.543896">
        <ele>1658.75</ele>
        <time>2017-12-09T14:17:52Z</time>
      </trkpt>
      <trkpt lat="27.953311" lon="-15.543886">
        <ele>1659.30</ele>
        <time>2017-12-09T14:17:55Z</time>
      </trkpt>
      <trkpt lat="27.953333" lon="-15.543872">
        <ele>1659.90</ele>
        <time>2017-12-09T14:17:58Z</time>
      </trkpt>
      <trkpt lat="27.953361" lon="-15.543856">
        <ele>1660.11</ele>
        <time>2017-12-09T14:18:01Z</time>
      </trkpt>
      <trkpt lat="27.953377" lon="-15.543841">
        <ele>1660.56</ele>
        <time>2017-12-09T14:18:03Z</time>
      </trkpt>
      <trkpt lat="27.953389" lon="-15.543824">
        <ele>1660.83</ele>
        <time>2017-12-09T14:18:05Z</time>
      </trkpt>
      <trkpt lat="27.953414" lon="-15.543804">
        <ele>1660.77</ele>
        <time>2017-12-09T14:18:07Z</time>
      </trkpt>
      <trkpt lat="27.953428" lon="-15.543791">
        <ele>1660.70</ele>
        <time>2017-12-09T14:18:08Z</time>
      </trkpt>
      <trkpt lat="27.953473" lon="-15.543746">
        <ele>1660.20</ele>
        <time>2017-12-09T14:18:12Z</time>
      </trkpt>
      <trkpt lat="27.953477" lon="-15.543725">
        <ele>1661.10</ele>
        <time>2017-12-09T14:18:14Z</time>
      </trkpt>
      <trkpt lat="27.953495" lon="-15.543706">
        <ele>1660.79</ele>
        <time>2017-12-09T14:18:16Z</time>
      </trkpt>
      <trkpt lat="27.953509" lon="-15.543684">
        <ele>1660.04</ele>
        <time>2017-12-09T14:18:18Z</time>
      </trkpt>
      <trkpt lat="27.953520" lon="-15.543653">
        <ele>1659.51</ele>
        <time>2017-12-09T14:18:20Z</time>
      </trkpt>
      <trkpt lat="27.953522" lon="-15.543532">
        <ele>1659.14</ele>
        <time>2017-12-09T14:18:26Z</time>
      </trkpt>
      <trkpt lat="27.953497" lon="-15.543422">
        <ele>1658.14</ele>
        <time>2017-12-09T14:18:32Z</time>
      </trkpt>
      <trkpt lat="27.953487" lon="-15.543310">
        <ele>1656.50</ele>
        <time>2017-12-09T14:18:37Z</time>
      </trkpt>
      <trkpt lat="27.953484" lon="-15.543206">
        <ele>1656.70</ele>
        <time>2017-12-09T14:18:41Z</time>
      </trkpt>
      <trkpt lat="27.953513" lon="-15.543091">
        <ele>1655.30</ele>
        <time>2017-12-09T14:18:47Z</time>
      </trkpt>
      <trkpt lat="27.953531" lon="-15.542987">
        <ele>1655.22</ele>
        <time>2017-12-09T14:18:52Z</time>
      </trkpt>
      <trkpt lat="27.953541" lon="-15.542875">
        <ele>1654.25</ele>
        <time>2017-12-09T14:18:57Z</time>
      </trkpt>
      <trkpt lat="27.953539" lon="-15.542838">
        <ele>1653.30</ele>
        <time>2017-12-09T14:18:59Z</time>
      </trkpt>
      <trkpt lat="27.953538" lon="-15.542806">
        <ele>1652.91</ele>
        <time>2017-12-09T14:19:01Z</time>
      </trkpt>
      <trkpt lat="27.953533" lon="-15.542768">
        <ele>1652.20</ele>
        <time>2017-12-09T14:19:03Z</time>
      </trkpt>
      <trkpt lat="27.953522" lon="-15.542714">
        <ele>1651.29</ele>
        <time>2017-12-09T14:19:06Z</time>
      </trkpt>
      <trkpt lat="27.953515" lon="-15.542685">
        <ele>1650.42</ele>
        <time>2017-12-09T14:19:08Z</time>
      </trkpt>
      <trkpt lat="27.953498" lon="-15.542660">
        <ele>1649.78</ele>
        <time>2017-12-09T14:19:10Z</time>
      </trkpt>
      <trkpt lat="27.953486" lon="-15.542644">
        <ele>1648.97</ele>
        <time>2017-12-09T14:19:12Z</time>
      </trkpt>
      <trkpt lat="27.953486" lon="-15.542617">
        <ele>1648.11</ele>
        <time>2017-12-09T14:19:14Z</time>
      </trkpt>
      <trkpt lat="27.953485" lon="-15.542589">
        <ele>1647.66</ele>
        <time>2017-12-09T14:19:16Z</time>
      </trkpt>
      <trkpt lat="27.953472" lon="-15.542561">
        <ele>1647.37</ele>
        <time>2017-12-09T14:19:18Z</time>
      </trkpt>
      <trkpt lat="27.953463" lon="-15.542531">
        <ele>1646.50</ele>
        <time>2017-12-09T14:19:20Z</time>
      </trkpt>
      <trkpt lat="27.953455" lon="-15.542512">
        <ele>1646.11</ele>
        <time>2017-12-09T14:19:21Z</time>
      </trkpt>
      <trkpt lat="27.953442" lon="-15.542490">
        <ele>1645.47</ele>
        <time>2017-12-09T14:19:22Z</time>
      </trkpt>
      <trkpt lat="27.953436" lon="-15.542469">
        <ele>1645.25</ele>
        <time>2017-12-09T14:19:23Z</time>
      </trkpt>
      <trkpt lat="27.953433" lon="-15.542433">
        <ele>1644.37</ele>
        <time>2017-12-09T14:19:25Z</time>
      </trkpt>
      <trkpt lat="27.953435" lon="-15.542410">
        <ele>1644.01</ele>
        <time>2017-12-09T14:19:26Z</time>
      </trkpt>
      <trkpt lat="27.953434" lon="-15.542386">
        <ele>1643.81</ele>
        <time>2017-12-09T14:19:27Z</time>
      </trkpt>
      <trkpt lat="27.953442" lon="-15.542355">
        <ele>1643.41</ele>
        <time>2017-12-09T14:19:29Z</time>
      </trkpt>
      <trkpt lat="27.953448" lon="-15.542319">
        <ele>1641.89</ele>
        <time>2017-12-09T14:19:31Z</time>
      </trkpt>
      <trkpt lat="27.953453" lon="-15.542279">
        <ele>1641.30</ele>
        <time>2017-12-09T14:19:33Z</time>
      </trkpt>
      <trkpt lat="27.953457" lon="-15.542258">
        <ele>1641.11</ele>
        <time>2017-12-09T14:19:34Z</time>
      </trkpt>
      <trkpt lat="27.953457" lon="-15.542234">
        <ele>1640.85</ele>
        <time>2017-12-09T14:19:35Z</time>
      </trkpt>
      <trkpt lat="27.953457" lon="-15.542212">
        <ele>1640.71</ele>
        <time>2017-12-09T14:19:36Z</time>
      </trkpt>
      <trkpt lat="27.953450" lon="-15.542174">
        <ele>1640.36</ele>
        <time>2017-12-09T14:19:38Z</time>
      </trkpt>
      <trkpt lat="27.953445" lon="-15.542140">
        <ele>1639.30</ele>
        <time>2017-12-09T14:19:40Z</time>
      </trkpt>
      <trkpt lat="27.953436" lon="-15.542103">
        <ele>1638.61</ele>
        <time>2017-12-09T14:19:42Z</time>
      </trkpt>
      <trkpt lat="27.953435" lon="-15.542079">
        <ele>1637.60</ele>
        <time>2017-12-09T14:19:43Z</time>
      </trkpt>
      <trkpt lat="27.953436" lon="-15.542055">
        <ele>1636.85</ele>
        <time>2017-12-09T14:19:44Z</time>
      </trkpt>
      <trkpt lat="27.953440" lon="-15.542027">
        <ele>1636.50</ele>
        <time>2017-12-09T14:19:45Z</time>
      </trkpt>
      <trkpt lat="27.953446" lon="-15.542000">
        <ele>1635.80</ele>
        <time>2017-12-09T14:19:46Z</time>
      </trkpt>
      <trkpt lat="27.953453" lon="-15.541978">
        <ele>1634.95</ele>
        <time>2017-12-09T14:19:47Z</time>
      </trkpt>
      <trkpt lat="27.953456" lon="-15.541950">
        <ele>1634.55</ele>
        <time>2017-12-09T14:19:48Z</time>
      </trkpt>
      <trkpt lat="27.953490" lon="-15.541844">
        <ele>1633.15</ele>
        <time>2017-12-09T14:19:53Z</time>
      </trkpt>
      <trkpt lat="27.953530" lon="-15.541775">
        <ele>1631.38</ele>
        <time>2017-12-09T14:19:56Z</time>
      </trkpt>
      <trkpt lat="27.953544" lon="-15.541751">
        <ele>1630.70</ele>
        <time>2017-12-09T14:19:57Z</time>
      </trkpt>
      <trkpt lat="27.953556" lon="-15.541735">
        <ele>1630.55</ele>
        <time>2017-12-09T14:19:58Z</time>
      </trkpt>
      <trkpt lat="27.953648" lon="-15.541719">
        <ele>1629.03</ele>
        <time>2017-12-09T14:20:03Z</time>
      </trkpt>
      <trkpt lat="27.953675" lon="-15.541714">
        <ele>1628.24</ele>
        <time>2017-12-09T14:20:05Z</time>
      </trkpt>
      <trkpt lat="27.953705" lon="-15.541715">
        <ele>1626.73</ele>
        <time>2017-12-09T14:20:07Z</time>
      </trkpt>
      <trkpt lat="27.953724" lon="-15.541717">
        <ele>1626.35</ele>
        <time>2017-12-09T14:20:08Z</time>
      </trkpt>
      <trkpt lat="27.953757" lon="-15.541722">
        <ele>1626.04</ele>
        <time>2017-12-09T14:20:10Z</time>
      </trkpt>
      <trkpt lat="27.953852" lon="-15.541773">
        <ele>1623.90</ele>
        <time>2017-12-09T14:20:15Z</time>
      </trkpt>
      <trkpt lat="27.953949" lon="-15.541832">
        <ele>1622.20</ele>
        <time>2017-12-09T14:20:19Z</time>
      </trkpt>
      <trkpt lat="27.954026" lon="-15.541884">
        <ele>1622.00</ele>
        <time>2017-12-09T14:20:22Z</time>
      </trkpt>
      <trkpt lat="27.954074" lon="-15.541914">
        <ele>1621.85</ele>
        <time>2017-12-09T14:20:24Z</time>
      </trkpt>
      <trkpt lat="27.954112" lon="-15.541934">
        <ele>1621.29</ele>
        <time>2017-12-09T14:20:26Z</time>
      </trkpt>
      <trkpt lat="27.954131" lon="-15.541940">
        <ele>1620.85</ele>
        <time>2017-12-09T14:20:27Z</time>
      </trkpt>
      <trkpt lat="27.954204" lon="-15.541958">
        <ele>1620.30</ele>
        <time>2017-12-09T14:20:31Z</time>
      </trkpt>
      <trkpt lat="27.954237" lon="-15.541970">
        <ele>1620.20</ele>
        <time>2017-12-09T14:20:33Z</time>
      </trkpt>
      <trkpt lat="27.954267" lon="-15.541991">
        <ele>1620.30</ele>
        <time>2017-12-09T14:20:35Z</time>
      </trkpt>
      <trkpt lat="27.954292" lon="-15.542010">
        <ele>1620.10</ele>
        <time>2017-12-09T14:20:37Z</time>
      </trkpt>
      <trkpt lat="27.954333" lon="-15.542042">
        <ele>1618.55</ele>
        <time>2017-12-09T14:20:40Z</time>
      </trkpt>
      <trkpt lat="27.954418" lon="-15.542099">
        <ele>1616.74</ele>
        <time>2017-12-09T14:20:45Z</time>
      </trkpt>
      <trkpt lat="27.954508" lon="-15.542157">
        <ele>1614.85</ele>
        <time>2017-12-09T14:20:52Z</time>
      </trkpt>
      <trkpt lat="27.954588" lon="-15.542214">
        <ele>1614.18</ele>
        <time>2017-12-09T14:20:58Z</time>
      </trkpt>
      <trkpt lat="27.954677" lon="-15.542267">
        <ele>1613.13</ele>
        <time>2017-12-09T14:21:03Z</time>
      </trkpt>
      <trkpt lat="27.954796" lon="-15.542235">
        <ele>1611.53</ele>
        <time>2017-12-09T14:21:07Z</time>
      </trkpt>
      <trkpt lat="27.954882" lon="-15.542204">
        <ele>1611.62</ele>
        <time>2017-12-09T14:21:10Z</time>
      </trkpt>
      <trkpt lat="27.954976" lon="-15.542176">
        <ele>1613.05</ele>
        <time>2017-12-09T14:21:16Z</time>
      </trkpt>
      <trkpt lat="27.954992" lon="-15.542195">
        <ele>1613.66</ele>
        <time>2017-12-09T14:21:19Z</time>
      </trkpt>
      <trkpt lat="27.955015" lon="-15.542201">
        <ele>1613.80</ele>
        <time>2017-12-09T14:21:21Z</time>
      </trkpt>
      <trkpt lat="27.955030" lon="-15.542212">
        <ele>1613.80</ele>
        <time>2017-12-09T14:21:23Z</time>
      </trkpt>
      <trkpt lat="27.955044" lon="-15.542232">
        <ele>1613.53</ele>
        <time>2017-12-09T14:21:25Z</time>
      </trkpt>
      <trkpt lat="27.955062" lon="-15.542255">
        <ele>1612.95</ele>
        <time>2017-12-09T14:21:29Z</time>
      </trkpt>
      <trkpt lat="27.955076" lon="-15.542273">
        <ele>1612.48</ele>
        <time>2017-12-09T14:21:31Z</time>
      </trkpt>
      <trkpt lat="27.955093" lon="-15.542315">
        <ele>1610.59</ele>
        <time>2017-12-09T14:21:33Z</time>
      </trkpt>
      <trkpt lat="27.955116" lon="-15.542340">
        <ele>1609.53</ele>
        <time>2017-12-09T14:21:35Z</time>
      </trkpt>
      <trkpt lat="27.955130" lon="-15.542359">
        <ele>1609.30</ele>
        <time>2017-12-09T14:21:36Z</time>
      </trkpt>
      <trkpt lat="27.955144" lon="-15.542373">
        <ele>1609.36</ele>
        <time>2017-12-09T14:21:37Z</time>
      </trkpt>
      <trkpt lat="27.955158" lon="-15.542388">
        <ele>1609.29</ele>
        <time>2017-12-09T14:21:38Z</time>
      </trkpt>
      <trkpt lat="27.955180" lon="-15.542404">
        <ele>1609.14</ele>
        <time>2017-12-09T14:21:39Z</time>
      </trkpt>
      <trkpt lat="27.955197" lon="-15.542418">
        <ele>1608.93</ele>
        <time>2017-12-09T14:21:40Z</time>
      </trkpt>
      <trkpt lat="27.955228" lon="-15.542430">
        <ele>1608.19</ele>
        <time>2017-12-09T14:21:42Z</time>
      </trkpt>
      <trkpt lat="27.955248" lon="-15.542411">
        <ele>1607.53</ele>
        <time>2017-12-09T14:21:44Z</time>
      </trkpt>
      <trkpt lat="27.955267" lon="-15.542379">
        <ele>1607.23</ele>
        <time>2017-12-09T14:21:46Z</time>
      </trkpt>
      <trkpt lat="27.955278" lon="-15.542343">
        <ele>1606.70</ele>
        <time>2017-12-09T14:21:48Z</time>
      </trkpt>
      <trkpt lat="27.955276" lon="-15.542302">
        <ele>1606.52</ele>
        <time>2017-12-09T14:21:50Z</time>
      </trkpt>
      <trkpt lat="27.955281" lon="-15.542281">
        <ele>1606.80</ele>
        <time>2017-12-09T14:21:53Z</time>
      </trkpt>
      <trkpt lat="27.955291" lon="-15.542258">
        <ele>1606.70</ele>
        <time>2017-12-09T14:21:55Z</time>
      </trkpt>
      <trkpt lat="27.955309" lon="-15.542230">
        <ele>1606.98</ele>
        <time>2017-12-09T14:21:57Z</time>
      </trkpt>
      <trkpt lat="27.955333" lon="-15.542199">
        <ele>1607.12</ele>
        <time>2017-12-09T14:21:59Z</time>
      </trkpt>
      <trkpt lat="27.955350" lon="-15.542173">
        <ele>1607.89</ele>
        <time>2017-12-09T14:22:01Z</time>
      </trkpt>
      <trkpt lat="27.955370" lon="-15.542150">
        <ele>1608.90</ele>
        <time>2017-12-09T14:22:03Z</time>
      </trkpt>
      <trkpt lat="27.955390" lon="-15.542126">
        <ele>1608.96</ele>
        <time>2017-12-09T14:22:05Z</time>
      </trkpt>
      <trkpt lat="27.955404" lon="-15.542109">
        <ele>1609.70</ele>
        <time>2017-12-09T14:22:07Z</time>
      </trkpt>
      <trkpt lat="27.955416" lon="-15.542086">
        <ele>1609.76</ele>
        <time>2017-12-09T14:22:10Z</time>
      </trkpt>
      <trkpt lat="27.955432" lon="-15.542071">
        <ele>1610.18</ele>
        <time>2017-12-09T14:22:13Z</time>
      </trkpt>
      <trkpt lat="27.955453" lon="-15.542062">
        <ele>1611.44</ele>
        <time>2017-12-09T14:22:17Z</time>
      </trkpt>
      <trkpt lat="27.955482" lon="-15.542062">
        <ele>1611.46</ele>
        <time>2017-12-09T14:22:21Z</time>
      </trkpt>
      <trkpt lat="27.955508" lon="-15.542063">
        <ele>1611.14</ele>
        <time>2017-12-09T14:22:23Z</time>
      </trkpt>
      <trkpt lat="27.955532" lon="-15.542064">
        <ele>1610.87</ele>
        <time>2017-12-09T14:22:25Z</time>
      </trkpt>
      <trkpt lat="27.955551" lon="-15.542060">
        <ele>1610.70</ele>
        <time>2017-12-09T14:22:27Z</time>
      </trkpt>
      <trkpt lat="27.955580" lon="-15.542050">
        <ele>1610.80</ele>
        <time>2017-12-09T14:22:29Z</time>
      </trkpt>
      <trkpt lat="27.955606" lon="-15.542050">
        <ele>1610.34</ele>
        <time>2017-12-09T14:22:31Z</time>
      </trkpt>
      <trkpt lat="27.955626" lon="-15.542047">
        <ele>1610.17</ele>
        <time>2017-12-09T14:22:33Z</time>
      </trkpt>
      <trkpt lat="27.955653" lon="-15.542044">
        <ele>1609.58</ele>
        <time>2017-12-09T14:22:35Z</time>
      </trkpt>
      <trkpt lat="27.955681" lon="-15.542039">
        <ele>1609.21</ele>
        <time>2017-12-09T14:22:37Z</time>
      </trkpt>
      <trkpt lat="27.955709" lon="-15.542028">
        <ele>1609.04</ele>
        <time>2017-12-09T14:22:39Z</time>
      </trkpt>
      <trkpt lat="27.955733" lon="-15.542021">
        <ele>1607.51</ele>
        <time>2017-12-09T14:22:41Z</time>
      </trkpt>
      <trkpt lat="27.955751" lon="-15.542024">
        <ele>1606.20</ele>
        <time>2017-12-09T14:22:43Z</time>
      </trkpt>
      <trkpt lat="27.955775" lon="-15.542025">
        <ele>1606.30</ele>
        <time>2017-12-09T14:22:45Z</time>
      </trkpt>
      <trkpt lat="27.955794" lon="-15.542031">
        <ele>1606.23</ele>
        <time>2017-12-09T14:22:47Z</time>
      </trkpt>
      <trkpt lat="27.955840" lon="-15.542026">
        <ele>1605.20</ele>
        <time>2017-12-09T14:22:53Z</time>
      </trkpt>
      <trkpt lat="27.955855" lon="-15.542011">
        <ele>1605.20</ele>
        <time>2017-12-09T14:22:55Z</time>
      </trkpt>
      <trkpt lat="27.955894" lon="-15.541931">
        <ele>1605.10</ele>
        <time>2017-12-09T14:23:00Z</time>
      </trkpt>
      <trkpt lat="27.955894" lon="-15.541901">
        <ele>1604.24</ele>
        <time>2017-12-09T14:23:01Z</time>
      </trkpt>
      <trkpt lat="27.955906" lon="-15.541876">
        <ele>1605.10</ele>
        <time>2017-12-09T14:23:03Z</time>
      </trkpt>
      <trkpt lat="27.955950" lon="-15.541789">
        <ele>1604.10</ele>
        <time>2017-12-09T14:23:08Z</time>
      </trkpt>
      <trkpt lat="27.955959" lon="-15.541770">
        <ele>1604.00</ele>
        <time>2017-12-09T14:23:09Z</time>
      </trkpt>
      <trkpt lat="27.955969" lon="-15.541751">
        <ele>1603.90</ele>
        <time>2017-12-09T14:23:10Z</time>
      </trkpt>
      <trkpt lat="27.955975" lon="-15.541720">
        <ele>1604.37</ele>
        <time>2017-12-09T14:23:12Z</time>
      </trkpt>
      <trkpt lat="27.955991" lon="-15.541704">
        <ele>1604.60</ele>
        <time>2017-12-09T14:23:13Z</time>
      </trkpt>
      <trkpt lat="27.956003" lon="-15.541677">
        <ele>1605.00</ele>
        <time>2017-12-09T14:23:16Z</time>
      </trkpt>
      <trkpt lat="27.956020" lon="-15.541667">
        <ele>1604.90</ele>
        <time>2017-12-09T14:23:18Z</time>
      </trkpt>
      <trkpt lat="27.956041" lon="-15.541657">
        <ele>1604.62</ele>
        <time>2017-12-09T14:23:19Z</time>
      </trkpt>
      <trkpt lat="27.956064" lon="-15.541642">
        <ele>1604.43</ele>
        <time>2017-12-09T14:23:21Z</time>
      </trkpt>
      <trkpt lat="27.956081" lon="-15.541626">
        <ele>1603.96</ele>
        <time>2017-12-09T14:23:23Z</time>
      </trkpt>
      <trkpt lat="27.956099" lon="-15.541614">
        <ele>1603.59</ele>
        <time>2017-12-09T14:23:25Z</time>
      </trkpt>
      <trkpt lat="27.956118" lon="-15.541602">
        <ele>1603.40</ele>
        <time>2017-12-09T14:23:30Z</time>
      </trkpt>
      <trkpt lat="27.956152" lon="-15.541488">
        <ele>1604.61</ele>
        <time>2017-12-09T14:23:36Z</time>
      </trkpt>
      <trkpt lat="27.956155" lon="-15.541372">
        <ele>1604.72</ele>
        <time>2017-12-09T14:23:41Z</time>
      </trkpt>
      <trkpt lat="27.956151" lon="-15.541259">
        <ele>1604.13</ele>
        <time>2017-12-09T14:23:48Z</time>
      </trkpt>
      <trkpt lat="27.956124" lon="-15.541153">
        <ele>1602.75</ele>
        <time>2017-12-09T14:23:58Z</time>
      </trkpt>
      <trkpt lat="27.956113" lon="-15.541122">
        <ele>1602.65</ele>
        <time>2017-12-09T14:24:00Z</time>
      </trkpt>
      <trkpt lat="27.956090" lon="-15.541042">
        <ele>1601.70</ele>
        <time>2017-12-09T14:24:05Z</time>
      </trkpt>
      <trkpt lat="27.956072" lon="-15.540933">
        <ele>1601.80</ele>
        <time>2017-12-09T14:24:11Z</time>
      </trkpt>
      <trkpt lat="27.956061" lon="-15.540897">
        <ele>1600.92</ele>
        <time>2017-12-09T14:24:15Z</time>
      </trkpt>
      <trkpt lat="27.956048" lon="-15.540833">
        <ele>1600.16</ele>
        <time>2017-12-09T14:24:20Z</time>
      </trkpt>
      <trkpt lat="27.956047" lon="-15.540805">
        <ele>1599.84</ele>
        <time>2017-12-09T14:24:22Z</time>
      </trkpt>
      <trkpt lat="27.956037" lon="-15.540704">
        <ele>1598.72</ele>
        <time>2017-12-09T14:24:28Z</time>
      </trkpt>
      <trkpt lat="27.956003" lon="-15.540616">
        <ele>1598.28</ele>
        <time>2017-12-09T14:24:34Z</time>
      </trkpt>
      <trkpt lat="27.955991" lon="-15.540600">
        <ele>1597.98</ele>
        <time>2017-12-09T14:24:36Z</time>
      </trkpt>
      <trkpt lat="27.955991" lon="-15.540578">
        <ele>1598.00</ele>
        <time>2017-12-09T14:24:38Z</time>
      </trkpt>
      <trkpt lat="27.955989" lon="-15.540551">
        <ele>1597.70</ele>
        <time>2017-12-09T14:24:40Z</time>
      </trkpt>
      <trkpt lat="27.955993" lon="-15.540531">
        <ele>1597.50</ele>
        <time>2017-12-09T14:24:42Z</time>
      </trkpt>
      <trkpt lat="27.955992" lon="-15.540505">
        <ele>1597.04</ele>
        <time>2017-12-09T14:24:44Z</time>
      </trkpt>
      <trkpt lat="27.955986" lon="-15.540449">
        <ele>1596.52</ele>
        <time>2017-12-09T14:24:48Z</time>
      </trkpt>
      <trkpt lat="27.955986" lon="-15.540406">
        <ele>1595.90</ele>
        <time>2017-12-09T14:24:50Z</time>
      </trkpt>
      <trkpt lat="27.955961" lon="-15.540291">
        <ele>1595.50</ele>
        <time>2017-12-09T14:24:56Z</time>
      </trkpt>
      <trkpt lat="27.955954" lon="-15.540260">
        <ele>1595.60</ele>
        <time>2017-12-09T14:24:58Z</time>
      </trkpt>
      <trkpt lat="27.955949" lon="-15.540232">
        <ele>1595.60</ele>
        <time>2017-12-09T14:25:00Z</time>
      </trkpt>
      <trkpt lat="27.955946" lon="-15.540201">
        <ele>1596.10</ele>
        <time>2017-12-09T14:25:02Z</time>
      </trkpt>
      <trkpt lat="27.955947" lon="-15.540174">
        <ele>1596.10</ele>
        <time>2017-12-09T14:25:04Z</time>
      </trkpt>
      <trkpt lat="27.955946" lon="-15.540146">
        <ele>1594.78</ele>
        <time>2017-12-09T14:25:06Z</time>
      </trkpt>
      <trkpt lat="27.955931" lon="-15.540101">
        <ele>1594.04</ele>
        <time>2017-12-09T14:25:10Z</time>
      </trkpt>
      <trkpt lat="27.955926" lon="-15.540074">
        <ele>1593.75</ele>
        <time>2017-12-09T14:25:12Z</time>
      </trkpt>
      <trkpt lat="27.955926" lon="-15.540040">
        <ele>1593.64</ele>
        <time>2017-12-09T14:25:14Z</time>
      </trkpt>
      <trkpt lat="27.955912" lon="-15.540009">
        <ele>1593.53</ele>
        <time>2017-12-09T14:25:16Z</time>
      </trkpt>
      <trkpt lat="27.955903" lon="-15.539991">
        <ele>1593.25</ele>
        <time>2017-12-09T14:25:17Z</time>
      </trkpt>
      <trkpt lat="27.955891" lon="-15.539967">
        <ele>1592.80</ele>
        <time>2017-12-09T14:25:19Z</time>
      </trkpt>
      <trkpt lat="27.955884" lon="-15.539944">
        <ele>1592.72</ele>
        <time>2017-12-09T14:25:21Z</time>
      </trkpt>
      <trkpt lat="27.955877" lon="-15.539917">
        <ele>1592.30</ele>
        <time>2017-12-09T14:25:23Z</time>
      </trkpt>
      <trkpt lat="27.955868" lon="-15.539882">
        <ele>1592.12</ele>
        <time>2017-12-09T14:25:25Z</time>
      </trkpt>
      <trkpt lat="27.955859" lon="-15.539864">
        <ele>1591.85</ele>
        <time>2017-12-09T14:25:26Z</time>
      </trkpt>
      <trkpt lat="27.955849" lon="-15.539833">
        <ele>1591.72</ele>
        <time>2017-12-09T14:25:28Z</time>
      </trkpt>
      <trkpt lat="27.955830" lon="-15.539792">
        <ele>1591.36</ele>
        <time>2017-12-09T14:25:30Z</time>
      </trkpt>
      <trkpt lat="27.955828" lon="-15.539756">
        <ele>1590.70</ele>
        <time>2017-12-09T14:25:32Z</time>
      </trkpt>
      <trkpt lat="27.955822" lon="-15.539728">
        <ele>1590.40</ele>
        <time>2017-12-09T14:25:34Z</time>
      </trkpt>
      <trkpt lat="27.955815" lon="-15.539706">
        <ele>1590.49</ele>
        <time>2017-12-09T14:25:35Z</time>
      </trkpt>
      <trkpt lat="27.955803" lon="-15.539672">
        <ele>1590.70</ele>
        <time>2017-12-09T14:25:37Z</time>
      </trkpt>
      <trkpt lat="27.955794" lon="-15.539642">
        <ele>1590.80</ele>
        <time>2017-12-09T14:25:39Z</time>
      </trkpt>
      <trkpt lat="27.955778" lon="-15.539609">
        <ele>1589.95</ele>
        <time>2017-12-09T14:25:41Z</time>
      </trkpt>
      <trkpt lat="27.955771" lon="-15.539578">
        <ele>1589.80</ele>
        <time>2017-12-09T14:25:43Z</time>
      </trkpt>
      <trkpt lat="27.955757" lon="-15.539537">
        <ele>1589.70</ele>
        <time>2017-12-09T14:25:45Z</time>
      </trkpt>
      <trkpt lat="27.955746" lon="-15.539505">
        <ele>1589.44</ele>
        <time>2017-12-09T14:25:47Z</time>
      </trkpt>
      <trkpt lat="27.955736" lon="-15.539476">
        <ele>1588.96</ele>
        <time>2017-12-09T14:25:49Z</time>
      </trkpt>
      <trkpt lat="27.955720" lon="-15.539450">
        <ele>1589.04</ele>
        <time>2017-12-09T14:25:51Z</time>
      </trkpt>
      <trkpt lat="27.955709" lon="-15.539421">
        <ele>1589.00</ele>
        <time>2017-12-09T14:25:53Z</time>
      </trkpt>
      <trkpt lat="27.955692" lon="-15.539396">
        <ele>1588.90</ele>
        <time>2017-12-09T14:25:55Z</time>
      </trkpt>
      <trkpt lat="27.955648" lon="-15.539335">
        <ele>1588.10</ele>
        <time>2017-12-09T14:26:00Z</time>
      </trkpt>
      <trkpt lat="27.955632" lon="-15.539316">
        <ele>1587.15</ele>
        <time>2017-12-09T14:26:02Z</time>
      </trkpt>
      <trkpt lat="27.955626" lon="-15.539294">
        <ele>1587.20</ele>
        <time>2017-12-09T14:26:04Z</time>
      </trkpt>
      <trkpt lat="27.955611" lon="-15.539279">
        <ele>1587.11</ele>
        <time>2017-12-09T14:26:06Z</time>
      </trkpt>
      <trkpt lat="27.955583" lon="-15.539236">
        <ele>1587.00</ele>
        <time>2017-12-09T14:26:09Z</time>
      </trkpt>
      <trkpt lat="27.955570" lon="-15.539215">
        <ele>1586.91</ele>
        <time>2017-12-09T14:26:10Z</time>
      </trkpt>
      <trkpt lat="27.955558" lon="-15.539198">
        <ele>1586.90</ele>
        <time>2017-12-09T14:26:11Z</time>
      </trkpt>
      <trkpt lat="27.955543" lon="-15.539173">
        <ele>1586.33</ele>
        <time>2017-12-09T14:26:13Z</time>
      </trkpt>
      <trkpt lat="27.955530" lon="-15.539142">
        <ele>1586.12</ele>
        <time>2017-12-09T14:26:15Z</time>
      </trkpt>
      <trkpt lat="27.955516" lon="-15.539114">
        <ele>1586.20</ele>
        <time>2017-12-09T14:26:17Z</time>
      </trkpt>
      <trkpt lat="27.955508" lon="-15.539086">
        <ele>1586.21</ele>
        <time>2017-12-09T14:26:19Z</time>
      </trkpt>
      <trkpt lat="27.955500" lon="-15.539066">
        <ele>1586.20</ele>
        <time>2017-12-09T14:26:20Z</time>
      </trkpt>
      <trkpt lat="27.955492" lon="-15.539048">
        <ele>1586.11</ele>
        <time>2017-12-09T14:26:21Z</time>
      </trkpt>
      <trkpt lat="27.955481" lon="-15.539021">
        <ele>1585.72</ele>
        <time>2017-12-09T14:26:23Z</time>
      </trkpt>
      <trkpt lat="27.955471" lon="-15.538998">
        <ele>1585.40</ele>
        <time>2017-12-09T14:26:25Z</time>
      </trkpt>
      <trkpt lat="27.955458" lon="-15.538981">
        <ele>1585.29</ele>
        <time>2017-12-09T14:26:27Z</time>
      </trkpt>
      <trkpt lat="27.955448" lon="-15.538963">
        <ele>1584.61</ele>
        <time>2017-12-09T14:26:29Z</time>
      </trkpt>
      <trkpt lat="27.955447" lon="-15.538936">
        <ele>1584.59</ele>
        <time>2017-12-09T14:26:33Z</time>
      </trkpt>
      <trkpt lat="27.955424" lon="-15.538907">
        <ele>1583.62</ele>
        <time>2017-12-09T14:26:35Z</time>
      </trkpt>
      <trkpt lat="27.955407" lon="-15.538875">
        <ele>1583.31</ele>
        <time>2017-12-09T14:26:37Z</time>
      </trkpt>
      <trkpt lat="27.955395" lon="-15.538840">
        <ele>1582.70</ele>
        <time>2017-12-09T14:26:39Z</time>
      </trkpt>
      <trkpt lat="27.955380" lon="-15.538804">
        <ele>1582.50</ele>
        <time>2017-12-09T14:26:41Z</time>
      </trkpt>
      <trkpt lat="27.955367" lon="-15.538771">
        <ele>1582.60</ele>
        <time>2017-12-09T14:26:43Z</time>
      </trkpt>
      <trkpt lat="27.955363" lon="-15.538745">
        <ele>1581.90</ele>
        <time>2017-12-09T14:26:45Z</time>
      </trkpt>
      <trkpt lat="27.955355" lon="-15.538718">
        <ele>1582.00</ele>
        <time>2017-12-09T14:26:47Z</time>
      </trkpt>
      <trkpt lat="27.955344" lon="-15.538695">
        <ele>1581.80</ele>
        <time>2017-12-09T14:26:49Z</time>
      </trkpt>
      <trkpt lat="27.955334" lon="-15.538668">
        <ele>1581.70</ele>
        <time>2017-12-09T14:26:51Z</time>
      </trkpt>
      <trkpt lat="27.955327" lon="-15.538633">
        <ele>1581.50</ele>
        <time>2017-12-09T14:26:53Z</time>
      </trkpt>
      <trkpt lat="27.955318" lon="-15.538605">
        <ele>1581.50</ele>
        <time>2017-12-09T14:26:55Z</time>
      </trkpt>
      <trkpt lat="27.955314" lon="-15.538582">
        <ele>1581.60</ele>
        <time>2017-12-09T14:26:57Z</time>
      </trkpt>
      <trkpt lat="27.955307" lon="-15.538560">
        <ele>1581.20</ele>
        <time>2017-12-09T14:26:59Z</time>
      </trkpt>
      <trkpt lat="27.955291" lon="-15.538534">
        <ele>1580.70</ele>
        <time>2017-12-09T14:27:01Z</time>
      </trkpt>
      <trkpt lat="27.955280" lon="-15.538513">
        <ele>1580.60</ele>
        <time>2017-12-09T14:27:03Z</time>
      </trkpt>
      <trkpt lat="27.955273" lon="-15.538486">
        <ele>1580.38</ele>
        <time>2017-12-09T14:27:05Z</time>
      </trkpt>
      <trkpt lat="27.955264" lon="-15.538463">
        <ele>1579.69</ele>
        <time>2017-12-09T14:27:07Z</time>
      </trkpt>
      <trkpt lat="27.955264" lon="-15.538437">
        <ele>1579.17</ele>
        <time>2017-12-09T14:27:09Z</time>
      </trkpt>
      <trkpt lat="27.955248" lon="-15.538407">
        <ele>1578.49</ele>
        <time>2017-12-09T14:27:11Z</time>
      </trkpt>
      <trkpt lat="27.955234" lon="-15.538370">
        <ele>1578.38</ele>
        <time>2017-12-09T14:27:13Z</time>
      </trkpt>
      <trkpt lat="27.955224" lon="-15.538330">
        <ele>1577.47</ele>
        <time>2017-12-09T14:27:15Z</time>
      </trkpt>
      <trkpt lat="27.955220" lon="-15.538302">
        <ele>1576.90</ele>
        <time>2017-12-09T14:27:17Z</time>
      </trkpt>
      <trkpt lat="27.955211" lon="-15.538272">
        <ele>1576.79</ele>
        <time>2017-12-09T14:27:19Z</time>
      </trkpt>
      <trkpt lat="27.955202" lon="-15.538243">
        <ele>1576.70</ele>
        <time>2017-12-09T14:27:21Z</time>
      </trkpt>
      <trkpt lat="27.955190" lon="-15.538217">
        <ele>1576.56</ele>
        <time>2017-12-09T14:27:23Z</time>
      </trkpt>
      <trkpt lat="27.955186" lon="-15.538189">
        <ele>1576.40</ele>
        <time>2017-12-09T14:27:25Z</time>
      </trkpt>
      <trkpt lat="27.955186" lon="-15.538155">
        <ele>1576.19</ele>
        <time>2017-12-09T14:27:27Z</time>
      </trkpt>
      <trkpt lat="27.955182" lon="-15.538122">
        <ele>1575.58</ele>
        <time>2017-12-09T14:27:29Z</time>
      </trkpt>
      <trkpt lat="27.955176" lon="-15.538096">
        <ele>1575.40</ele>
        <time>2017-12-09T14:27:31Z</time>
      </trkpt>
      <trkpt lat="27.955167" lon="-15.538067">
        <ele>1575.40</ele>
        <time>2017-12-09T14:27:33Z</time>
      </trkpt>
      <trkpt lat="27.955158" lon="-15.538040">
        <ele>1575.34</ele>
        <time>2017-12-09T14:27:35Z</time>
      </trkpt>
      <trkpt lat="27.955158" lon="-15.538008">
        <ele>1575.10</ele>
        <time>2017-12-09T14:27:37Z</time>
      </trkpt>
      <trkpt lat="27.955156" lon="-15.537981">
        <ele>1574.98</ele>
        <time>2017-12-09T14:27:39Z</time>
      </trkpt>
      <trkpt lat="27.955158" lon="-15.537958">
        <ele>1574.76</ele>
        <time>2017-12-09T14:27:41Z</time>
      </trkpt>
      <trkpt lat="27.955167" lon="-15.537940">
        <ele>1574.50</ele>
        <time>2017-12-09T14:27:44Z</time>
      </trkpt>
      <trkpt lat="27.955168" lon="-15.537915">
        <ele>1573.78</ele>
        <time>2017-12-09T14:27:46Z</time>
      </trkpt>
      <trkpt lat="27.955161" lon="-15.537889">
        <ele>1573.30</ele>
        <time>2017-12-09T14:27:48Z</time>
      </trkpt>
      <trkpt lat="27.955159" lon="-15.537857">
        <ele>1573.28</ele>
        <time>2017-12-09T14:27:50Z</time>
      </trkpt>
      <trkpt lat="27.955150" lon="-15.537829">
        <ele>1573.18</ele>
        <time>2017-12-09T14:27:52Z</time>
      </trkpt>
      <trkpt lat="27.955143" lon="-15.537807">
        <ele>1573.25</ele>
        <time>2017-12-09T14:27:54Z</time>
      </trkpt>
      <trkpt lat="27.955139" lon="-15.537785">
        <ele>1573.05</ele>
        <time>2017-12-09T14:27:56Z</time>
      </trkpt>
      <trkpt lat="27.955137" lon="-15.537761">
        <ele>1572.73</ele>
        <time>2017-12-09T14:27:58Z</time>
      </trkpt>
      <trkpt lat="27.955125" lon="-15.537729">
        <ele>1572.10</ele>
        <time>2017-12-09T14:28:00Z</time>
      </trkpt>
      <trkpt lat="27.955108" lon="-15.537699">
        <ele>1572.00</ele>
        <time>2017-12-09T14:28:02Z</time>
      </trkpt>
      <trkpt lat="27.955093" lon="-15.537673">
        <ele>1571.60</ele>
        <time>2017-12-09T14:28:04Z</time>
      </trkpt>
      <trkpt lat="27.955083" lon="-15.537645">
        <ele>1571.30</ele>
        <time>2017-12-09T14:28:06Z</time>
      </trkpt>
      <trkpt lat="27.955080" lon="-15.537613">
        <ele>1571.27</ele>
        <time>2017-12-09T14:28:08Z</time>
      </trkpt>
      <trkpt lat="27.955079" lon="-15.537587">
        <ele>1570.57</ele>
        <time>2017-12-09T14:28:11Z</time>
      </trkpt>
      <trkpt lat="27.955074" lon="-15.537554">
        <ele>1570.10</ele>
        <time>2017-12-09T14:28:14Z</time>
      </trkpt>
      <trkpt lat="27.955063" lon="-15.537532">
        <ele>1569.90</ele>
        <time>2017-12-09T14:28:16Z</time>
      </trkpt>
      <trkpt lat="27.955045" lon="-15.537515">
        <ele>1569.68</ele>
        <time>2017-12-09T14:28:18Z</time>
      </trkpt>
      <trkpt lat="27.955032" lon="-15.537488">
        <ele>1569.30</ele>
        <time>2017-12-09T14:28:20Z</time>
      </trkpt>
      <trkpt lat="27.955024" lon="-15.537450">
        <ele>1569.27</ele>
        <time>2017-12-09T14:28:23Z</time>
      </trkpt>
      <trkpt lat="27.955027" lon="-15.537420">
        <ele>1568.94</ele>
        <time>2017-12-09T14:28:25Z</time>
      </trkpt>
      <trkpt lat="27.955022" lon="-15.537394">
        <ele>1568.71</ele>
        <time>2017-12-09T14:28:27Z</time>
      </trkpt>
      <trkpt lat="27.955020" lon="-15.537364">
        <ele>1568.40</ele>
        <time>2017-12-09T14:28:29Z</time>
      </trkpt>
      <trkpt lat="27.955017" lon="-15.537328">
        <ele>1568.10</ele>
        <time>2017-12-09T14:28:31Z</time>
      </trkpt>
      <trkpt lat="27.955018" lon="-15.537298">
        <ele>1568.00</ele>
        <time>2017-12-09T14:28:33Z</time>
      </trkpt>
      <trkpt lat="27.955008" lon="-15.537266">
        <ele>1567.52</ele>
        <time>2017-12-09T14:28:35Z</time>
      </trkpt>
      <trkpt lat="27.955004" lon="-15.537236">
        <ele>1567.68</ele>
        <time>2017-12-09T14:28:37Z</time>
      </trkpt>
      <trkpt lat="27.955001" lon="-15.537201">
        <ele>1567.70</ele>
        <time>2017-12-09T14:28:39Z</time>
      </trkpt>
      <trkpt lat="27.954997" lon="-15.537171">
        <ele>1567.50</ele>
        <time>2017-12-09T14:28:41Z</time>
      </trkpt>
      <trkpt lat="27.954989" lon="-15.537144">
        <ele>1567.00</ele>
        <time>2017-12-09T14:28:43Z</time>
      </trkpt>
      <trkpt lat="27.954979" lon="-15.537111">
        <ele>1566.71</ele>
        <time>2017-12-09T14:28:45Z</time>
      </trkpt>
      <trkpt lat="27.954981" lon="-15.537080">
        <ele>1565.74</ele>
        <time>2017-12-09T14:28:47Z</time>
      </trkpt>
      <trkpt lat="27.954975" lon="-15.537055">
        <ele>1565.10</ele>
        <time>2017-12-09T14:28:49Z</time>
      </trkpt>
      <trkpt lat="27.954974" lon="-15.537032">
        <ele>1565.10</ele>
        <time>2017-12-09T14:28:51Z</time>
      </trkpt>
      <trkpt lat="27.954968" lon="-15.537003">
        <ele>1564.84</ele>
        <time>2017-12-09T14:28:53Z</time>
      </trkpt>
      <trkpt lat="27.954956" lon="-15.536986">
        <ele>1564.64</ele>
        <time>2017-12-09T14:28:55Z</time>
      </trkpt>
      <trkpt lat="27.954949" lon="-15.536964">
        <ele>1564.08</ele>
        <time>2017-12-09T14:28:57Z</time>
      </trkpt>
      <trkpt lat="27.954937" lon="-15.536945">
        <ele>1563.60</ele>
        <time>2017-12-09T14:29:00Z</time>
      </trkpt>
      <trkpt lat="27.954926" lon="-15.536921">
        <ele>1563.60</ele>
        <time>2017-12-09T14:29:02Z</time>
      </trkpt>
      <trkpt lat="27.954916" lon="-15.536891">
        <ele>1563.13</ele>
        <time>2017-12-09T14:29:04Z</time>
      </trkpt>
      <trkpt lat="27.954905" lon="-15.536865">
        <ele>1562.38</ele>
        <time>2017-12-09T14:29:06Z</time>
      </trkpt>
      <trkpt lat="27.954898" lon="-15.536846">
        <ele>1562.10</ele>
        <time>2017-12-09T14:29:07Z</time>
      </trkpt>
      <trkpt lat="27.954890" lon="-15.536811">
        <ele>1561.87</ele>
        <time>2017-12-09T14:29:09Z</time>
      </trkpt>
      <trkpt lat="27.954888" lon="-15.536778">
        <ele>1561.71</ele>
        <time>2017-12-09T14:29:11Z</time>
      </trkpt>
      <trkpt lat="27.954886" lon="-15.536747">
        <ele>1560.91</ele>
        <time>2017-12-09T14:29:13Z</time>
      </trkpt>
      <trkpt lat="27.954882" lon="-15.536721">
        <ele>1560.70</ele>
        <time>2017-12-09T14:29:15Z</time>
      </trkpt>
      <trkpt lat="27.954878" lon="-15.536690">
        <ele>1560.70</ele>
        <time>2017-12-09T14:29:17Z</time>
      </trkpt>
      <trkpt lat="27.954885" lon="-15.536658">
        <ele>1560.60</ele>
        <time>2017-12-09T14:29:19Z</time>
      </trkpt>
      <trkpt lat="27.954886" lon="-15.536631">
        <ele>1560.48</ele>
        <time>2017-12-09T14:29:21Z</time>
      </trkpt>
      <trkpt lat="27.954886" lon="-15.536610">
        <ele>1560.20</ele>
        <time>2017-12-09T14:29:22Z</time>
      </trkpt>
      <trkpt lat="27.954888" lon="-15.536576">
        <ele>1560.13</ele>
        <time>2017-12-09T14:29:24Z</time>
      </trkpt>
      <trkpt lat="27.954891" lon="-15.536549">
        <ele>1560.10</ele>
        <time>2017-12-09T14:29:26Z</time>
      </trkpt>
      <trkpt lat="27.954890" lon="-15.536524">
        <ele>1560.33</ele>
        <time>2017-12-09T14:29:29Z</time>
      </trkpt>
      <trkpt lat="27.954890" lon="-15.536495">
        <ele>1560.60</ele>
        <time>2017-12-09T14:29:31Z</time>
      </trkpt>
      <trkpt lat="27.954891" lon="-15.536469">
        <ele>1560.60</ele>
        <time>2017-12-09T14:29:33Z</time>
      </trkpt>
      <trkpt lat="27.954894" lon="-15.536439">
        <ele>1560.10</ele>
        <time>2017-12-09T14:29:35Z</time>
      </trkpt>
      <trkpt lat="27.954899" lon="-15.536412">
        <ele>1559.80</ele>
        <time>2017-12-09T14:29:37Z</time>
      </trkpt>
      <trkpt lat="27.954902" lon="-15.536386">
        <ele>1559.80</ele>
        <time>2017-12-09T14:29:39Z</time>
      </trkpt>
      <trkpt lat="27.954900" lon="-15.536362">
        <ele>1559.70</ele>
        <time>2017-12-09T14:29:41Z</time>
      </trkpt>
      <trkpt lat="27.954897" lon="-15.536334">
        <ele>1559.17</ele>
        <time>2017-12-09T14:29:43Z</time>
      </trkpt>
      <trkpt lat="27.954901" lon="-15.536304">
        <ele>1559.00</ele>
        <time>2017-12-09T14:29:45Z</time>
      </trkpt>
      <trkpt lat="27.954912" lon="-15.536280">
        <ele>1558.70</ele>
        <time>2017-12-09T14:29:47Z</time>
      </trkpt>
      <trkpt lat="27.954909" lon="-15.536253">
        <ele>1558.70</ele>
        <time>2017-12-09T14:29:49Z</time>
      </trkpt>
      <trkpt lat="27.954910" lon="-15.536224">
        <ele>1558.56</ele>
        <time>2017-12-09T14:29:51Z</time>
      </trkpt>
      <trkpt lat="27.954912" lon="-15.536194">
        <ele>1558.50</ele>
        <time>2017-12-09T14:29:53Z</time>
      </trkpt>
      <trkpt lat="27.954915" lon="-15.536161">
        <ele>1558.42</ele>
        <time>2017-12-09T14:29:55Z</time>
      </trkpt>
      <trkpt lat="27.954919" lon="-15.536135">
        <ele>1558.04</ele>
        <time>2017-12-09T14:29:57Z</time>
      </trkpt>
      <trkpt lat="27.954920" lon="-15.536104">
        <ele>1557.66</ele>
        <time>2017-12-09T14:29:59Z</time>
      </trkpt>
      <trkpt lat="27.954918" lon="-15.536083">
        <ele>1557.52</ele>
        <time>2017-12-09T14:30:00Z</time>
      </trkpt>
      <trkpt lat="27.954919" lon="-15.536050">
        <ele>1557.10</ele>
        <time>2017-12-09T14:30:02Z</time>
      </trkpt>
      <trkpt lat="27.954930" lon="-15.536023">
        <ele>1556.47</ele>
        <time>2017-12-09T14:30:04Z</time>
      </trkpt>
      <trkpt lat="27.954941" lon="-15.535991">
        <ele>1556.20</ele>
        <time>2017-12-09T14:30:06Z</time>
      </trkpt>
      <trkpt lat="27.954949" lon="-15.535965">
        <ele>1555.56</ele>
        <time>2017-12-09T14:30:08Z</time>
      </trkpt>
      <trkpt lat="27.954956" lon="-15.535936">
        <ele>1555.40</ele>
        <time>2017-12-09T14:30:10Z</time>
      </trkpt>
      <trkpt lat="27.954967" lon="-15.535906">
        <ele>1555.20</ele>
        <time>2017-12-09T14:30:12Z</time>
      </trkpt>
      <trkpt lat="27.954977" lon="-15.535886">
        <ele>1555.06</ele>
        <time>2017-12-09T14:30:14Z</time>
      </trkpt>
      <trkpt lat="27.954982" lon="-15.535865">
        <ele>1554.25</ele>
        <time>2017-12-09T14:30:16Z</time>
      </trkpt>
      <trkpt lat="27.954994" lon="-15.535844">
        <ele>1554.30</ele>
        <time>2017-12-09T14:30:18Z</time>
      </trkpt>
      <trkpt lat="27.955005" lon="-15.535819">
        <ele>1554.25</ele>
        <time>2017-12-09T14:30:20Z</time>
      </trkpt>
      <trkpt lat="27.955012" lon="-15.535795">
        <ele>1554.00</ele>
        <time>2017-12-09T14:30:22Z</time>
      </trkpt>
      <trkpt lat="27.955022" lon="-15.535768">
        <ele>1554.00</ele>
        <time>2017-12-09T14:30:24Z</time>
      </trkpt>
      <trkpt lat="27.955022" lon="-15.535741">
        <ele>1553.90</ele>
        <time>2017-12-09T14:30:26Z</time>
      </trkpt>
      <trkpt lat="27.955030" lon="-15.535720">
        <ele>1553.65</ele>
        <time>2017-12-09T14:30:28Z</time>
      </trkpt>
      <trkpt lat="27.955047" lon="-15.535703">
        <ele>1553.61</ele>
        <time>2017-12-09T14:30:30Z</time>
      </trkpt>
      <trkpt lat="27.955064" lon="-15.535680">
        <ele>1553.35</ele>
        <time>2017-12-09T14:30:33Z</time>
      </trkpt>
      <trkpt lat="27.955074" lon="-15.535658">
        <ele>1553.20</ele>
        <time>2017-12-09T14:30:35Z</time>
      </trkpt>
      <trkpt lat="27.955082" lon="-15.535627">
        <ele>1552.85</ele>
        <time>2017-12-09T14:30:37Z</time>
      </trkpt>
      <trkpt lat="27.955097" lon="-15.535603">
        <ele>1552.65</ele>
        <time>2017-12-09T14:30:39Z</time>
      </trkpt>
      <trkpt lat="27.955113" lon="-15.535575">
        <ele>1552.35</ele>
        <time>2017-12-09T14:30:41Z</time>
      </trkpt>
      <trkpt lat="27.955137" lon="-15.535551">
        <ele>1552.04</ele>
        <time>2017-12-09T14:30:43Z</time>
      </trkpt>
      <trkpt lat="27.955149" lon="-15.535520">
        <ele>1551.47</ele>
        <time>2017-12-09T14:30:45Z</time>
      </trkpt>
      <trkpt lat="27.955161" lon="-15.535495">
        <ele>1551.24</ele>
        <time>2017-12-09T14:30:47Z</time>
      </trkpt>
      <trkpt lat="27.955171" lon="-15.535471">
        <ele>1551.20</ele>
        <time>2017-12-09T14:30:49Z</time>
      </trkpt>
      <trkpt lat="27.955177" lon="-15.535438">
        <ele>1550.91</ele>
        <time>2017-12-09T14:30:51Z</time>
      </trkpt>
      <trkpt lat="27.955179" lon="-15.535401">
        <ele>1550.64</ele>
        <time>2017-12-09T14:30:53Z</time>
      </trkpt>
      <trkpt lat="27.955179" lon="-15.535368">
        <ele>1550.48</ele>
        <time>2017-12-09T14:30:55Z</time>
      </trkpt>
      <trkpt lat="27.955184" lon="-15.535339">
        <ele>1549.88</ele>
        <time>2017-12-09T14:30:57Z</time>
      </trkpt>
      <trkpt lat="27.955197" lon="-15.535318">
        <ele>1549.34</ele>
        <time>2017-12-09T14:30:59Z</time>
      </trkpt>
      <trkpt lat="27.955210" lon="-15.535296">
        <ele>1549.14</ele>
        <time>2017-12-09T14:31:01Z</time>
      </trkpt>
      <trkpt lat="27.955236" lon="-15.535268">
        <ele>1548.37</ele>
        <time>2017-12-09T14:31:03Z</time>
      </trkpt>
      <trkpt lat="27.955258" lon="-15.535238">
        <ele>1547.77</ele>
        <time>2017-12-09T14:31:05Z</time>
      </trkpt>
      <trkpt lat="27.955283" lon="-15.535209">
        <ele>1547.83</ele>
        <time>2017-12-09T14:31:07Z</time>
      </trkpt>
      <trkpt lat="27.955296" lon="-15.535195">
        <ele>1547.83</ele>
        <time>2017-12-09T14:31:08Z</time>
      </trkpt>
      <trkpt lat="27.955312" lon="-15.535166">
        <ele>1547.56</ele>
        <time>2017-12-09T14:31:10Z</time>
      </trkpt>
      <trkpt lat="27.955320" lon="-15.535140">
        <ele>1547.50</ele>
        <time>2017-12-09T14:31:12Z</time>
      </trkpt>
      <trkpt lat="27.955324" lon="-15.535108">
        <ele>1546.83</ele>
        <time>2017-12-09T14:31:14Z</time>
      </trkpt>
      <trkpt lat="27.955334" lon="-15.535078">
        <ele>1546.16</ele>
        <time>2017-12-09T14:31:16Z</time>
      </trkpt>
      <trkpt lat="27.955338" lon="-15.535049">
        <ele>1545.66</ele>
        <time>2017-12-09T14:31:18Z</time>
      </trkpt>
      <trkpt lat="27.955342" lon="-15.535020">
        <ele>1545.22</ele>
        <time>2017-12-09T14:31:20Z</time>
      </trkpt>
      <trkpt lat="27.955345" lon="-15.534990">
        <ele>1544.50</ele>
        <time>2017-12-09T14:31:22Z</time>
      </trkpt>
      <trkpt lat="27.955346" lon="-15.534957">
        <ele>1544.43</ele>
        <time>2017-12-09T14:31:24Z</time>
      </trkpt>
      <trkpt lat="27.955352" lon="-15.534931">
        <ele>1544.43</ele>
        <time>2017-12-09T14:31:26Z</time>
      </trkpt>
      <trkpt lat="27.955365" lon="-15.534905">
        <ele>1543.89</ele>
        <time>2017-12-09T14:31:28Z</time>
      </trkpt>
      <trkpt lat="27.955373" lon="-15.534882">
        <ele>1543.80</ele>
        <time>2017-12-09T14:31:30Z</time>
      </trkpt>
      <trkpt lat="27.955379" lon="-15.534858">
        <ele>1543.04</ele>
        <time>2017-12-09T14:31:32Z</time>
      </trkpt>
      <trkpt lat="27.955390" lon="-15.534833">
        <ele>1542.70</ele>
        <time>2017-12-09T14:31:34Z</time>
      </trkpt>
      <trkpt lat="27.955395" lon="-15.534806">
        <ele>1542.53</ele>
        <time>2017-12-09T14:31:36Z</time>
      </trkpt>
      <trkpt lat="27.955400" lon="-15.534780">
        <ele>1542.28</ele>
        <time>2017-12-09T14:31:38Z</time>
      </trkpt>
      <trkpt lat="27.955409" lon="-15.534758">
        <ele>1541.78</ele>
        <time>2017-12-09T14:31:40Z</time>
      </trkpt>
      <trkpt lat="27.955419" lon="-15.534729">
        <ele>1541.60</ele>
        <time>2017-12-09T14:31:42Z</time>
      </trkpt>
      <trkpt lat="27.955434" lon="-15.534697">
        <ele>1541.03</ele>
        <time>2017-12-09T14:31:44Z</time>
      </trkpt>
      <trkpt lat="27.955450" lon="-15.534671">
        <ele>1541.00</ele>
        <time>2017-12-09T14:31:46Z</time>
      </trkpt>
      <trkpt lat="27.955464" lon="-15.534650">
        <ele>1540.99</ele>
        <time>2017-12-09T14:31:48Z</time>
      </trkpt>
      <trkpt lat="27.955480" lon="-15.534630">
        <ele>1541.00</ele>
        <time>2017-12-09T14:31:50Z</time>
      </trkpt>
      <trkpt lat="27.955498" lon="-15.534611">
        <ele>1541.11</ele>
        <time>2017-12-09T14:31:52Z</time>
      </trkpt>
      <trkpt lat="27.955516" lon="-15.534590">
        <ele>1541.00</ele>
        <time>2017-12-09T14:31:54Z</time>
      </trkpt>
      <trkpt lat="27.955535" lon="-15.534564">
        <ele>1540.91</ele>
        <time>2017-12-09T14:31:56Z</time>
      </trkpt>
      <trkpt lat="27.955548" lon="-15.534539">
        <ele>1541.00</ele>
        <time>2017-12-09T14:31:58Z</time>
      </trkpt>
      <trkpt lat="27.955558" lon="-15.534512">
        <ele>1541.00</ele>
        <time>2017-12-09T14:32:00Z</time>
      </trkpt>
      <trkpt lat="27.955566" lon="-15.534484">
        <ele>1540.90</ele>
        <time>2017-12-09T14:32:02Z</time>
      </trkpt>
      <trkpt lat="27.955576" lon="-15.534462">
        <ele>1540.90</ele>
        <time>2017-12-09T14:32:04Z</time>
      </trkpt>
      <trkpt lat="27.955595" lon="-15.534451">
        <ele>1540.60</ele>
        <time>2017-12-09T14:32:06Z</time>
      </trkpt>
      <trkpt lat="27.955610" lon="-15.534433">
        <ele>1540.60</ele>
        <time>2017-12-09T14:32:08Z</time>
      </trkpt>
      <trkpt lat="27.955621" lon="-15.534411">
        <ele>1540.60</ele>
        <time>2017-12-09T14:32:10Z</time>
      </trkpt>
      <trkpt lat="27.955630" lon="-15.534384">
        <ele>1540.60</ele>
        <time>2017-12-09T14:32:12Z</time>
      </trkpt>
      <trkpt lat="27.955643" lon="-15.534356">
        <ele>1540.58</ele>
        <time>2017-12-09T14:32:14Z</time>
      </trkpt>
      <trkpt lat="27.955652" lon="-15.534332">
        <ele>1540.10</ele>
        <time>2017-12-09T14:32:16Z</time>
      </trkpt>
      <trkpt lat="27.955653" lon="-15.534306">
        <ele>1540.10</ele>
        <time>2017-12-09T14:32:18Z</time>
      </trkpt>
      <trkpt lat="27.955659" lon="-15.534278">
        <ele>1539.98</ele>
        <time>2017-12-09T14:32:20Z</time>
      </trkpt>
      <trkpt lat="27.955665" lon="-15.534248">
        <ele>1539.59</ele>
        <time>2017-12-09T14:32:22Z</time>
      </trkpt>
      <trkpt lat="27.955678" lon="-15.534220">
        <ele>1539.29</ele>
        <time>2017-12-09T14:32:24Z</time>
      </trkpt>
      <trkpt lat="27.955688" lon="-15.534193">
        <ele>1538.99</ele>
        <time>2017-12-09T14:32:26Z</time>
      </trkpt>
      <trkpt lat="27.955698" lon="-15.534168">
        <ele>1538.90</ele>
        <time>2017-12-09T14:32:28Z</time>
      </trkpt>
      <trkpt lat="27.955716" lon="-15.534139">
        <ele>1538.89</ele>
        <time>2017-12-09T14:32:30Z</time>
      </trkpt>
      <trkpt lat="27.955731" lon="-15.534111">
        <ele>1538.89</ele>
        <time>2017-12-09T14:32:32Z</time>
      </trkpt>
      <trkpt lat="27.955746" lon="-15.534086">
        <ele>1538.77</ele>
        <time>2017-12-09T14:32:34Z</time>
      </trkpt>
      <trkpt lat="27.955762" lon="-15.534062">
        <ele>1538.39</ele>
        <time>2017-12-09T14:32:36Z</time>
      </trkpt>
      <trkpt lat="27.955773" lon="-15.534037">
        <ele>1538.39</ele>
        <time>2017-12-09T14:32:38Z</time>
      </trkpt>
      <trkpt lat="27.955783" lon="-15.534017">
        <ele>1538.30</ele>
        <time>2017-12-09T14:32:40Z</time>
      </trkpt>
      <trkpt lat="27.955799" lon="-15.533997">
        <ele>1538.49</ele>
        <time>2017-12-09T14:32:42Z</time>
      </trkpt>
      <trkpt lat="27.955820" lon="-15.533977">
        <ele>1538.34</ele>
        <time>2017-12-09T14:32:44Z</time>
      </trkpt>
      <trkpt lat="27.955838" lon="-15.533952">
        <ele>1537.89</ele>
        <time>2017-12-09T14:32:46Z</time>
      </trkpt>
      <trkpt lat="27.955849" lon="-15.533933">
        <ele>1537.79</ele>
        <time>2017-12-09T14:32:48Z</time>
      </trkpt>
      <trkpt lat="27.955864" lon="-15.533909">
        <ele>1538.11</ele>
        <time>2017-12-09T14:32:50Z</time>
      </trkpt>
      <trkpt lat="27.955878" lon="-15.533888">
        <ele>1538.20</ele>
        <time>2017-12-09T14:32:52Z</time>
      </trkpt>
      <trkpt lat="27.955891" lon="-15.533868">
        <ele>1538.27</ele>
        <time>2017-12-09T14:32:54Z</time>
      </trkpt>
      <trkpt lat="27.955903" lon="-15.533847">
        <ele>1538.06</ele>
        <time>2017-12-09T14:32:56Z</time>
      </trkpt>
      <trkpt lat="27.955922" lon="-15.533818">
        <ele>1538.40</ele>
        <time>2017-12-09T14:32:58Z</time>
      </trkpt>
      <trkpt lat="27.955938" lon="-15.533796">
        <ele>1538.63</ele>
        <time>2017-12-09T14:33:00Z</time>
      </trkpt>
      <trkpt lat="27.955951" lon="-15.533775">
        <ele>1538.83</ele>
        <time>2017-12-09T14:33:02Z</time>
      </trkpt>
      <trkpt lat="27.955960" lon="-15.533750">
        <ele>1539.00</ele>
        <time>2017-12-09T14:33:04Z</time>
      </trkpt>
      <trkpt lat="27.955974" lon="-15.533728">
        <ele>1539.08</ele>
        <time>2017-12-09T14:33:06Z</time>
      </trkpt>
      <trkpt lat="27.955985" lon="-15.533705">
        <ele>1539.05</ele>
        <time>2017-12-09T14:33:08Z</time>
      </trkpt>
      <trkpt lat="27.956000" lon="-15.533685">
        <ele>1539.50</ele>
        <time>2017-12-09T14:33:10Z</time>
      </trkpt>
      <trkpt lat="27.956012" lon="-15.533659">
        <ele>1539.40</ele>
        <time>2017-12-09T14:33:12Z</time>
      </trkpt>
      <trkpt lat="27.956026" lon="-15.533637">
        <ele>1539.90</ele>
        <time>2017-12-09T14:33:14Z</time>
      </trkpt>
      <trkpt lat="27.956042" lon="-15.533616">
        <ele>1540.20</ele>
        <time>2017-12-09T14:33:16Z</time>
      </trkpt>
      <trkpt lat="27.956058" lon="-15.533593">
        <ele>1539.88</ele>
        <time>2017-12-09T14:33:18Z</time>
      </trkpt>
      <trkpt lat="27.956075" lon="-15.533572">
        <ele>1540.20</ele>
        <time>2017-12-09T14:33:20Z</time>
      </trkpt>
      <trkpt lat="27.956096" lon="-15.533545">
        <ele>1539.70</ele>
        <time>2017-12-09T14:33:22Z</time>
      </trkpt>
      <trkpt lat="27.956114" lon="-15.533516">
        <ele>1539.84</ele>
        <time>2017-12-09T14:33:24Z</time>
      </trkpt>
      <trkpt lat="27.956130" lon="-15.533488">
        <ele>1539.74</ele>
        <time>2017-12-09T14:33:26Z</time>
      </trkpt>
      <trkpt lat="27.956145" lon="-15.533461">
        <ele>1539.64</ele>
        <time>2017-12-09T14:33:28Z</time>
      </trkpt>
      <trkpt lat="27.956154" lon="-15.533438">
        <ele>1539.80</ele>
        <time>2017-12-09T14:33:30Z</time>
      </trkpt>
      <trkpt lat="27.956160" lon="-15.533410">
        <ele>1539.97</ele>
        <time>2017-12-09T14:33:32Z</time>
      </trkpt>
      <trkpt lat="27.956169" lon="-15.533380">
        <ele>1539.74</ele>
        <time>2017-12-09T14:33:34Z</time>
      </trkpt>
      <trkpt lat="27.956176" lon="-15.533352">
        <ele>1539.65</ele>
        <time>2017-12-09T14:33:36Z</time>
      </trkpt>
      <trkpt lat="27.956187" lon="-15.533328">
        <ele>1539.78</ele>
        <time>2017-12-09T14:33:38Z</time>
      </trkpt>
      <trkpt lat="27.956198" lon="-15.533302">
        <ele>1538.90</ele>
        <time>2017-12-09T14:33:40Z</time>
      </trkpt>
      <trkpt lat="27.956220" lon="-15.533278">
        <ele>1538.95</ele>
        <time>2017-12-09T14:33:42Z</time>
      </trkpt>
      <trkpt lat="27.956242" lon="-15.533252">
        <ele>1539.20</ele>
        <time>2017-12-09T14:33:44Z</time>
      </trkpt>
      <trkpt lat="27.956256" lon="-15.533232">
        <ele>1538.98</ele>
        <time>2017-12-09T14:33:46Z</time>
      </trkpt>
      <trkpt lat="27.956263" lon="-15.533208">
        <ele>1539.30</ele>
        <time>2017-12-09T14:33:48Z</time>
      </trkpt>
      <trkpt lat="27.956273" lon="-15.533181">
        <ele>1539.33</ele>
        <time>2017-12-09T14:33:50Z</time>
      </trkpt>
      <trkpt lat="27.956289" lon="-15.533153">
        <ele>1539.33</ele>
        <time>2017-12-09T14:33:52Z</time>
      </trkpt>
      <trkpt lat="27.956306" lon="-15.533124">
        <ele>1539.52</ele>
        <time>2017-12-09T14:33:54Z</time>
      </trkpt>
      <trkpt lat="27.956322" lon="-15.533095">
        <ele>1539.90</ele>
        <time>2017-12-09T14:33:56Z</time>
      </trkpt>
      <trkpt lat="27.956333" lon="-15.533070">
        <ele>1540.00</ele>
        <time>2017-12-09T14:33:58Z</time>
      </trkpt>
      <trkpt lat="27.956350" lon="-15.533051">
        <ele>1539.97</ele>
        <time>2017-12-09T14:34:00Z</time>
      </trkpt>
      <trkpt lat="27.956367" lon="-15.533027">
        <ele>1540.50</ele>
        <time>2017-12-09T14:34:02Z</time>
      </trkpt>
      <trkpt lat="27.956381" lon="-15.533006">
        <ele>1540.70</ele>
        <time>2017-12-09T14:34:04Z</time>
      </trkpt>
      <trkpt lat="27.956400" lon="-15.532985">
        <ele>1540.90</ele>
        <time>2017-12-09T14:34:06Z</time>
      </trkpt>
      <trkpt lat="27.956414" lon="-15.532961">
        <ele>1541.03</ele>
        <time>2017-12-09T14:34:08Z</time>
      </trkpt>
      <trkpt lat="27.956423" lon="-15.532940">
        <ele>1541.24</ele>
        <time>2017-12-09T14:34:10Z</time>
      </trkpt>
      <trkpt lat="27.956438" lon="-15.532915">
        <ele>1541.44</ele>
        <time>2017-12-09T14:34:12Z</time>
      </trkpt>
      <trkpt lat="27.956450" lon="-15.532889">
        <ele>1541.86</ele>
        <time>2017-12-09T14:34:14Z</time>
      </trkpt>
      <trkpt lat="27.956461" lon="-15.532865">
        <ele>1542.04</ele>
        <time>2017-12-09T14:34:16Z</time>
      </trkpt>
      <trkpt lat="27.956465" lon="-15.532838">
        <ele>1542.14</ele>
        <time>2017-12-09T14:34:18Z</time>
      </trkpt>
      <trkpt lat="27.956469" lon="-15.532812">
        <ele>1542.20</ele>
        <time>2017-12-09T14:34:20Z</time>
      </trkpt>
      <trkpt lat="27.956474" lon="-15.532788">
        <ele>1542.16</ele>
        <time>2017-12-09T14:34:22Z</time>
      </trkpt>
      <trkpt lat="27.956486" lon="-15.532767">
        <ele>1542.30</ele>
        <time>2017-12-09T14:34:24Z</time>
      </trkpt>
      <trkpt lat="27.956499" lon="-15.532744">
        <ele>1542.28</ele>
        <time>2017-12-09T14:34:26Z</time>
      </trkpt>
      <trkpt lat="27.956513" lon="-15.532728">
        <ele>1542.70</ele>
        <time>2017-12-09T14:34:28Z</time>
      </trkpt>
      <trkpt lat="27.956530" lon="-15.532713">
        <ele>1542.62</ele>
        <time>2017-12-09T14:34:30Z</time>
      </trkpt>
      <trkpt lat="27.956552" lon="-15.532699">
        <ele>1543.01</ele>
        <time>2017-12-09T14:34:33Z</time>
      </trkpt>
      <trkpt lat="27.956571" lon="-15.532686">
        <ele>1543.30</ele>
        <time>2017-12-09T14:34:35Z</time>
      </trkpt>
      <trkpt lat="27.956590" lon="-15.532676">
        <ele>1543.20</ele>
        <time>2017-12-09T14:34:37Z</time>
      </trkpt>
      <trkpt lat="27.956608" lon="-15.532670">
        <ele>1543.38</ele>
        <time>2017-12-09T14:34:39Z</time>
      </trkpt>
      <trkpt lat="27.956627" lon="-15.532667">
        <ele>1544.15</ele>
        <time>2017-12-09T14:34:41Z</time>
      </trkpt>
      <trkpt lat="27.956646" lon="-15.532665">
        <ele>1544.35</ele>
        <time>2017-12-09T14:34:43Z</time>
      </trkpt>
      <trkpt lat="27.956664" lon="-15.532666">
        <ele>1544.59</ele>
        <time>2017-12-09T14:34:45Z</time>
      </trkpt>
      <trkpt lat="27.956686" lon="-15.532672">
        <ele>1545.49</ele>
        <time>2017-12-09T14:34:48Z</time>
      </trkpt>
      <trkpt lat="27.956710" lon="-15.532681">
        <ele>1545.95</ele>
        <time>2017-12-09T14:34:51Z</time>
      </trkpt>
      <trkpt lat="27.956732" lon="-15.532688">
        <ele>1546.00</ele>
        <time>2017-12-09T14:34:54Z</time>
      </trkpt>
      <trkpt lat="27.956751" lon="-15.532692">
        <ele>1546.45</ele>
        <time>2017-12-09T14:34:56Z</time>
      </trkpt>
      <trkpt lat="27.956775" lon="-15.532695">
        <ele>1547.10</ele>
        <time>2017-12-09T14:34:59Z</time>
      </trkpt>
      <trkpt lat="27.956793" lon="-15.532697">
        <ele>1547.45</ele>
        <time>2017-12-09T14:35:01Z</time>
      </trkpt>
      <trkpt lat="27.956813" lon="-15.532700">
        <ele>1547.80</ele>
        <time>2017-12-09T14:35:03Z</time>
      </trkpt>
      <trkpt lat="27.956836" lon="-15.532701">
        <ele>1547.95</ele>
        <time>2017-12-09T14:35:05Z</time>
      </trkpt>
      <trkpt lat="27.956856" lon="-15.532704">
        <ele>1548.80</ele>
        <time>2017-12-09T14:35:07Z</time>
      </trkpt>
      <trkpt lat="27.956881" lon="-15.532714">
        <ele>1549.26</ele>
        <time>2017-12-09T14:35:10Z</time>
      </trkpt>
      <trkpt lat="27.956909" lon="-15.532719">
        <ele>1549.50</ele>
        <time>2017-12-09T14:35:13Z</time>
      </trkpt>
      <trkpt lat="27.956928" lon="-15.532717">
        <ele>1550.16</ele>
        <time>2017-12-09T14:35:15Z</time>
      </trkpt>
      <trkpt lat="27.956952" lon="-15.532716">
        <ele>1550.80</ele>
        <time>2017-12-09T14:35:18Z</time>
      </trkpt>
      <trkpt lat="27.956975" lon="-15.532709">
        <ele>1551.26</ele>
        <time>2017-12-09T14:35:21Z</time>
      </trkpt>
      <trkpt lat="27.956994" lon="-15.532704">
        <ele>1551.26</ele>
        <time>2017-12-09T14:35:23Z</time>
      </trkpt>
      <trkpt lat="27.957014" lon="-15.532705">
        <ele>1551.84</ele>
        <time>2017-12-09T14:35:25Z</time>
      </trkpt>
      <trkpt lat="27.957034" lon="-15.532702">
        <ele>1552.10</ele>
        <time>2017-12-09T14:35:27Z</time>
      </trkpt>
      <trkpt lat="27.957057" lon="-15.532704">
        <ele>1551.84</ele>
        <time>2017-12-09T14:35:30Z</time>
      </trkpt>
      <trkpt lat="27.957062" lon="-15.532684">
        <ele>1552.32</ele>
        <time>2017-12-09T14:35:32Z</time>
      </trkpt>
      <trkpt lat="27.957084" lon="-15.532681">
        <ele>1552.88</ele>
        <time>2017-12-09T14:35:37Z</time>
      </trkpt>
      <trkpt lat="27.957114" lon="-15.532681">
        <ele>1553.50</ele>
        <time>2017-12-09T14:35:40Z</time>
      </trkpt>
      <trkpt lat="27.957140" lon="-15.532674">
        <ele>1553.50</ele>
        <time>2017-12-09T14:35:43Z</time>
      </trkpt>
      <trkpt lat="27.957168" lon="-15.532674">
        <ele>1553.74</ele>
        <time>2017-12-09T14:35:46Z</time>
      </trkpt>
      <trkpt lat="27.957189" lon="-15.532670">
        <ele>1554.16</ele>
        <time>2017-12-09T14:35:48Z</time>
      </trkpt>
      <trkpt lat="27.957214" lon="-15.532664">
        <ele>1554.64</ele>
        <time>2017-12-09T14:35:51Z</time>
      </trkpt>
      <trkpt lat="27.957237" lon="-15.532663">
        <ele>1554.67</ele>
        <time>2017-12-09T14:35:53Z</time>
      </trkpt>
      <trkpt lat="27.957262" lon="-15.532662">
        <ele>1554.93</ele>
        <time>2017-12-09T14:35:55Z</time>
      </trkpt>
      <trkpt lat="27.957284" lon="-15.532662">
        <ele>1555.17</ele>
        <time>2017-12-09T14:35:57Z</time>
      </trkpt>
      <trkpt lat="27.957309" lon="-15.532663">
        <ele>1555.43</ele>
        <time>2017-12-09T14:36:00Z</time>
      </trkpt>
      <trkpt lat="27.957330" lon="-15.532661">
        <ele>1556.23</ele>
        <time>2017-12-09T14:36:02Z</time>
      </trkpt>
      <trkpt lat="27.957350" lon="-15.532660">
        <ele>1556.33</ele>
        <time>2017-12-09T14:36:04Z</time>
      </trkpt>
      <trkpt lat="27.957370" lon="-15.532660">
        <ele>1556.40</ele>
        <time>2017-12-09T14:36:06Z</time>
      </trkpt>
      <trkpt lat="27.957392" lon="-15.532661">
        <ele>1556.40</ele>
        <time>2017-12-09T14:36:08Z</time>
      </trkpt>
      <trkpt lat="27.957413" lon="-15.532666">
        <ele>1556.71</ele>
        <time>2017-12-09T14:36:10Z</time>
      </trkpt>
      <trkpt lat="27.957437" lon="-15.532666">
        <ele>1556.87</ele>
        <time>2017-12-09T14:36:12Z</time>
      </trkpt>
      <trkpt lat="27.957461" lon="-15.532672">
        <ele>1557.20</ele>
        <time>2017-12-09T14:36:14Z</time>
      </trkpt>
      <trkpt lat="27.957487" lon="-15.532681">
        <ele>1557.23</ele>
        <time>2017-12-09T14:36:16Z</time>
      </trkpt>
      <trkpt lat="27.957511" lon="-15.532690">
        <ele>1557.54</ele>
        <time>2017-12-09T14:36:18Z</time>
      </trkpt>
      <trkpt lat="27.957535" lon="-15.532696">
        <ele>1558.34</ele>
        <time>2017-12-09T14:36:20Z</time>
      </trkpt>
      <trkpt lat="27.957553" lon="-15.532699">
        <ele>1558.55</ele>
        <time>2017-12-09T14:36:22Z</time>
      </trkpt>
      <trkpt lat="27.957576" lon="-15.532703">
        <ele>1558.60</ele>
        <time>2017-12-09T14:36:24Z</time>
      </trkpt>
      <trkpt lat="27.957599" lon="-15.532711">
        <ele>1558.70</ele>
        <time>2017-12-09T14:36:26Z</time>
      </trkpt>
      <trkpt lat="27.957623" lon="-15.532720">
        <ele>1558.85</ele>
        <time>2017-12-09T14:36:28Z</time>
      </trkpt>
      <trkpt lat="27.957645" lon="-15.532733">
        <ele>1559.11</ele>
        <time>2017-12-09T14:36:30Z</time>
      </trkpt>
      <trkpt lat="27.957668" lon="-15.532743">
        <ele>1559.43</ele>
        <time>2017-12-09T14:36:32Z</time>
      </trkpt>
      <trkpt lat="27.957695" lon="-15.532748">
        <ele>1559.76</ele>
        <time>2017-12-09T14:36:35Z</time>
      </trkpt>
      <trkpt lat="27.957713" lon="-15.532743">
        <ele>1559.96</ele>
        <time>2017-12-09T14:36:37Z</time>
      </trkpt>
      <trkpt lat="27.957731" lon="-15.532731">
        <ele>1561.10</ele>
        <time>2017-12-09T14:36:41Z</time>
      </trkpt>
      <trkpt lat="27.957753" lon="-15.532721">
        <ele>1560.82</ele>
        <time>2017-12-09T14:36:45Z</time>
      </trkpt>
      <trkpt lat="27.957777" lon="-15.532718">
        <ele>1560.70</ele>
        <time>2017-12-09T14:36:47Z</time>
      </trkpt>
      <trkpt lat="27.957799" lon="-15.532712">
        <ele>1560.72</ele>
        <time>2017-12-09T14:36:49Z</time>
      </trkpt>
      <trkpt lat="27.957822" lon="-15.532705">
        <ele>1560.73</ele>
        <time>2017-12-09T14:36:51Z</time>
      </trkpt>
      <trkpt lat="27.957845" lon="-15.532709">
        <ele>1560.87</ele>
        <time>2017-12-09T14:36:53Z</time>
      </trkpt>
      <trkpt lat="27.957873" lon="-15.532722">
        <ele>1560.70</ele>
        <time>2017-12-09T14:36:55Z</time>
      </trkpt>
      <trkpt lat="27.957904" lon="-15.532724">
        <ele>1560.70</ele>
        <time>2017-12-09T14:36:57Z</time>
      </trkpt>
      <trkpt lat="27.957930" lon="-15.532720">
        <ele>1560.95</ele>
        <time>2017-12-09T14:36:59Z</time>
      </trkpt>
      <trkpt lat="27.957954" lon="-15.532716">
        <ele>1560.94</ele>
        <time>2017-12-09T14:37:01Z</time>
      </trkpt>
      <trkpt lat="27.957978" lon="-15.532716">
        <ele>1561.76</ele>
        <time>2017-12-09T14:37:03Z</time>
      </trkpt>
      <trkpt lat="27.958006" lon="-15.532713">
        <ele>1561.74</ele>
        <time>2017-12-09T14:37:05Z</time>
      </trkpt>
      <trkpt lat="27.958031" lon="-15.532709">
        <ele>1561.71</ele>
        <time>2017-12-09T14:37:07Z</time>
      </trkpt>
      <trkpt lat="27.958057" lon="-15.532707">
        <ele>1561.44</ele>
        <time>2017-12-09T14:37:09Z</time>
      </trkpt>
      <trkpt lat="27.958083" lon="-15.532706">
        <ele>1561.36</ele>
        <time>2017-12-09T14:37:11Z</time>
      </trkpt>
      <trkpt lat="27.958109" lon="-15.532705">
        <ele>1561.49</ele>
        <time>2017-12-09T14:37:13Z</time>
      </trkpt>
      <trkpt lat="27.958137" lon="-15.532706">
        <ele>1561.85</ele>
        <time>2017-12-09T14:37:15Z</time>
      </trkpt>
      <trkpt lat="27.958163" lon="-15.532706">
        <ele>1561.99</ele>
        <time>2017-12-09T14:37:17Z</time>
      </trkpt>
      <trkpt lat="27.958190" lon="-15.532706">
        <ele>1562.18</ele>
        <time>2017-12-09T14:37:19Z</time>
      </trkpt>
      <trkpt lat="27.958215" lon="-15.532704">
        <ele>1562.24</ele>
        <time>2017-12-09T14:37:21Z</time>
      </trkpt>
      <trkpt lat="27.958242" lon="-15.532702">
        <ele>1562.27</ele>
        <time>2017-12-09T14:37:23Z</time>
      </trkpt>
      <trkpt lat="27.958265" lon="-15.532702">
        <ele>1561.90</ele>
        <time>2017-12-09T14:37:25Z</time>
      </trkpt>
      <trkpt lat="27.958289" lon="-15.532702">
        <ele>1561.88</ele>
        <time>2017-12-09T14:37:27Z</time>
      </trkpt>
      <trkpt lat="27.958315" lon="-15.532702">
        <ele>1562.17</ele>
        <time>2017-12-09T14:37:29Z</time>
      </trkpt>
      <trkpt lat="27.958340" lon="-15.532704">
        <ele>1561.80</ele>
        <time>2017-12-09T14:37:31Z</time>
      </trkpt>
      <trkpt lat="27.958368" lon="-15.532703">
        <ele>1562.08</ele>
        <time>2017-12-09T14:37:33Z</time>
      </trkpt>
      <trkpt lat="27.958394" lon="-15.532703">
        <ele>1562.20</ele>
        <time>2017-12-09T14:37:35Z</time>
      </trkpt>
      <trkpt lat="27.958417" lon="-15.532704">
        <ele>1562.08</ele>
        <time>2017-12-09T14:37:37Z</time>
      </trkpt>
      <trkpt lat="27.958443" lon="-15.532705">
        <ele>1562.38</ele>
        <time>2017-12-09T14:37:39Z</time>
      </trkpt>
      <trkpt lat="27.958469" lon="-15.532706">
        <ele>1562.39</ele>
        <time>2017-12-09T14:37:41Z</time>
      </trkpt>
      <trkpt lat="27.958498" lon="-15.532708">
        <ele>1562.48</ele>
        <time>2017-12-09T14:37:43Z</time>
      </trkpt>
      <trkpt lat="27.958526" lon="-15.532710">
        <ele>1562.00</ele>
        <time>2017-12-09T14:37:45Z</time>
      </trkpt>
      <trkpt lat="27.958553" lon="-15.532711">
        <ele>1561.90</ele>
        <time>2017-12-09T14:37:47Z</time>
      </trkpt>
      <trkpt lat="27.958578" lon="-15.532712">
        <ele>1562.19</ele>
        <time>2017-12-09T14:37:49Z</time>
      </trkpt>
      <trkpt lat="27.958605" lon="-15.532711">
        <ele>1562.20</ele>
        <time>2017-12-09T14:37:51Z</time>
      </trkpt>
      <trkpt lat="27.958631" lon="-15.532705">
        <ele>1562.10</ele>
        <time>2017-12-09T14:37:53Z</time>
      </trkpt>
      <trkpt lat="27.958658" lon="-15.532702">
        <ele>1562.20</ele>
        <time>2017-12-09T14:37:55Z</time>
      </trkpt>
      <trkpt lat="27.958688" lon="-15.532700">
        <ele>1562.20</ele>
        <time>2017-12-09T14:37:57Z</time>
      </trkpt>
      <trkpt lat="27.958714" lon="-15.532698">
        <ele>1561.70</ele>
        <time>2017-12-09T14:37:59Z</time>
      </trkpt>
      <trkpt lat="27.958741" lon="-15.532698">
        <ele>1561.50</ele>
        <time>2017-12-09T14:38:01Z</time>
      </trkpt>
      <trkpt lat="27.958769" lon="-15.532701">
        <ele>1561.60</ele>
        <time>2017-12-09T14:38:03Z</time>
      </trkpt>
      <trkpt lat="27.958795" lon="-15.532703">
        <ele>1561.60</ele>
        <time>2017-12-09T14:38:05Z</time>
      </trkpt>
      <trkpt lat="27.958823" lon="-15.532705">
        <ele>1561.80</ele>
        <time>2017-12-09T14:38:07Z</time>
      </trkpt>
      <trkpt lat="27.958850" lon="-15.532710">
        <ele>1561.80</ele>
        <time>2017-12-09T14:38:09Z</time>
      </trkpt>
      <trkpt lat="27.958873" lon="-15.532714">
        <ele>1561.71</ele>
        <time>2017-12-09T14:38:11Z</time>
      </trkpt>
      <trkpt lat="27.958899" lon="-15.532719">
        <ele>1561.82</ele>
        <time>2017-12-09T14:38:13Z</time>
      </trkpt>
      <trkpt lat="27.958925" lon="-15.532723">
        <ele>1562.10</ele>
        <time>2017-12-09T14:38:15Z</time>
      </trkpt>
      <trkpt lat="27.958954" lon="-15.532730">
        <ele>1562.20</ele>
        <time>2017-12-09T14:38:17Z</time>
      </trkpt>
      <trkpt lat="27.958978" lon="-15.532736">
        <ele>1562.19</ele>
        <time>2017-12-09T14:38:19Z</time>
      </trkpt>
      <trkpt lat="27.959005" lon="-15.532743">
        <ele>1561.89</ele>
        <time>2017-12-09T14:38:21Z</time>
      </trkpt>
      <trkpt lat="27.959034" lon="-15.532748">
        <ele>1561.69</ele>
        <time>2017-12-09T14:38:23Z</time>
      </trkpt>
      <trkpt lat="27.959061" lon="-15.532752">
        <ele>1561.40</ele>
        <time>2017-12-09T14:38:25Z</time>
      </trkpt>
      <trkpt lat="27.959087" lon="-15.532759">
        <ele>1561.38</ele>
        <time>2017-12-09T14:38:27Z</time>
      </trkpt>
      <trkpt lat="27.959115" lon="-15.532765">
        <ele>1561.37</ele>
        <time>2017-12-09T14:38:29Z</time>
      </trkpt>
      <trkpt lat="27.959141" lon="-15.532774">
        <ele>1561.37</ele>
        <time>2017-12-09T14:38:31Z</time>
      </trkpt>
      <trkpt lat="27.959168" lon="-15.532778">
        <ele>1561.69</ele>
        <time>2017-12-09T14:38:33Z</time>
      </trkpt>
      <trkpt lat="27.959198" lon="-15.532785">
        <ele>1561.75</ele>
        <time>2017-12-09T14:38:35Z</time>
      </trkpt>
      <trkpt lat="27.959227" lon="-15.532790">
        <ele>1562.17</ele>
        <time>2017-12-09T14:38:37Z</time>
      </trkpt>
      <trkpt lat="27.959252" lon="-15.532793">
        <ele>1561.95</ele>
        <time>2017-12-09T14:38:39Z</time>
      </trkpt>
      <trkpt lat="27.959278" lon="-15.532797">
        <ele>1562.11</ele>
        <time>2017-12-09T14:38:41Z</time>
      </trkpt>
      <trkpt lat="27.959306" lon="-15.532802">
        <ele>1561.70</ele>
        <time>2017-12-09T14:38:43Z</time>
      </trkpt>
      <trkpt lat="27.959332" lon="-15.532808">
        <ele>1562.10</ele>
        <time>2017-12-09T14:38:45Z</time>
      </trkpt>
      <trkpt lat="27.959364" lon="-15.532811">
        <ele>1562.10</ele>
        <time>2017-12-09T14:38:47Z</time>
      </trkpt>
      <trkpt lat="27.959395" lon="-15.532813">
        <ele>1562.10</ele>
        <time>2017-12-09T14:38:49Z</time>
      </trkpt>
      <trkpt lat="27.959424" lon="-15.532818">
        <ele>1562.12</ele>
        <time>2017-12-09T14:38:51Z</time>
      </trkpt>
      <trkpt lat="27.959452" lon="-15.532824">
        <ele>1562.10</ele>
        <time>2017-12-09T14:38:53Z</time>
      </trkpt>
      <trkpt lat="27.959477" lon="-15.532831">
        <ele>1562.36</ele>
        <time>2017-12-09T14:38:55Z</time>
      </trkpt>
      <trkpt lat="27.959504" lon="-15.532838">
        <ele>1562.24</ele>
        <time>2017-12-09T14:38:57Z</time>
      </trkpt>
      <trkpt lat="27.959528" lon="-15.532842">
        <ele>1562.22</ele>
        <time>2017-12-09T14:38:59Z</time>
      </trkpt>
      <trkpt lat="27.959548" lon="-15.532849">
        <ele>1562.30</ele>
        <time>2017-12-09T14:39:01Z</time>
      </trkpt>
      <trkpt lat="27.959571" lon="-15.532852">
        <ele>1562.30</ele>
        <time>2017-12-09T14:39:03Z</time>
      </trkpt>
      <trkpt lat="27.959592" lon="-15.532857">
        <ele>1562.22</ele>
        <time>2017-12-09T14:39:05Z</time>
      </trkpt>
      <trkpt lat="27.959618" lon="-15.532865">
        <ele>1562.33</ele>
        <time>2017-12-09T14:39:07Z</time>
      </trkpt>
      <trkpt lat="27.959640" lon="-15.532874">
        <ele>1562.27</ele>
        <time>2017-12-09T14:39:09Z</time>
      </trkpt>
      <trkpt lat="27.959661" lon="-15.532884">
        <ele>1562.23</ele>
        <time>2017-12-09T14:39:11Z</time>
      </trkpt>
      <trkpt lat="27.959683" lon="-15.532891">
        <ele>1561.90</ele>
        <time>2017-12-09T14:39:13Z</time>
      </trkpt>
      <trkpt lat="27.959703" lon="-15.532897">
        <ele>1561.99</ele>
        <time>2017-12-09T14:39:15Z</time>
      </trkpt>
      <trkpt lat="27.959729" lon="-15.532901">
        <ele>1562.23</ele>
        <time>2017-12-09T14:39:17Z</time>
      </trkpt>
      <trkpt lat="27.959756" lon="-15.532905">
        <ele>1562.30</ele>
        <time>2017-12-09T14:39:19Z</time>
      </trkpt>
      <trkpt lat="27.959781" lon="-15.532910">
        <ele>1562.50</ele>
        <time>2017-12-09T14:39:21Z</time>
      </trkpt>
      <trkpt lat="27.959805" lon="-15.532917">
        <ele>1562.43</ele>
        <time>2017-12-09T14:39:23Z</time>
      </trkpt>
      <trkpt lat="27.959828" lon="-15.532920">
        <ele>1561.97</ele>
        <time>2017-12-09T14:39:25Z</time>
      </trkpt>
      <trkpt lat="27.959854" lon="-15.532922">
        <ele>1561.96</ele>
        <time>2017-12-09T14:39:27Z</time>
      </trkpt>
      <trkpt lat="27.959880" lon="-15.532930">
        <ele>1562.00</ele>
        <time>2017-12-09T14:39:29Z</time>
      </trkpt>
      <trkpt lat="27.959899" lon="-15.532938">
        <ele>1562.40</ele>
        <time>2017-12-09T14:39:31Z</time>
      </trkpt>
      <trkpt lat="27.959921" lon="-15.532943">
        <ele>1562.50</ele>
        <time>2017-12-09T14:39:33Z</time>
      </trkpt>
      <trkpt lat="27.959942" lon="-15.532949">
        <ele>1562.50</ele>
        <time>2017-12-09T14:39:35Z</time>
      </trkpt>
      <trkpt lat="27.959969" lon="-15.532953">
        <ele>1562.42</ele>
        <time>2017-12-09T14:39:37Z</time>
      </trkpt>
      <trkpt lat="27.959992" lon="-15.532958">
        <ele>1562.30</ele>
        <time>2017-12-09T14:39:39Z</time>
      </trkpt>
      <trkpt lat="27.960020" lon="-15.532960">
        <ele>1562.34</ele>
        <time>2017-12-09T14:39:41Z</time>
      </trkpt>
      <trkpt lat="27.960045" lon="-15.532961">
        <ele>1562.30</ele>
        <time>2017-12-09T14:39:43Z</time>
      </trkpt>
      <trkpt lat="27.960074" lon="-15.532957">
        <ele>1562.39</ele>
        <time>2017-12-09T14:39:45Z</time>
      </trkpt>
      <trkpt lat="27.960102" lon="-15.532956">
        <ele>1562.39</ele>
        <time>2017-12-09T14:39:47Z</time>
      </trkpt>
      <trkpt lat="27.960131" lon="-15.532956">
        <ele>1562.68</ele>
        <time>2017-12-09T14:39:49Z</time>
      </trkpt>
      <trkpt lat="27.960159" lon="-15.532952">
        <ele>1563.00</ele>
        <time>2017-12-09T14:39:51Z</time>
      </trkpt>
      <trkpt lat="27.960182" lon="-15.532950">
        <ele>1563.05</ele>
        <time>2017-12-09T14:39:53Z</time>
      </trkpt>
      <trkpt lat="27.960209" lon="-15.532941">
        <ele>1563.10</ele>
        <time>2017-12-09T14:39:55Z</time>
      </trkpt>
      <trkpt lat="27.960231" lon="-15.532933">
        <ele>1563.10</ele>
        <time>2017-12-09T14:39:57Z</time>
      </trkpt>
      <trkpt lat="27.960259" lon="-15.532924">
        <ele>1563.20</ele>
        <time>2017-12-09T14:39:59Z</time>
      </trkpt>
      <trkpt lat="27.960284" lon="-15.532914">
        <ele>1563.40</ele>
        <time>2017-12-09T14:40:01Z</time>
      </trkpt>
      <trkpt lat="27.960311" lon="-15.532907">
        <ele>1563.06</ele>
        <time>2017-12-09T14:40:03Z</time>
      </trkpt>
      <trkpt lat="27.960341" lon="-15.532899">
        <ele>1562.65</ele>
        <time>2017-12-09T14:40:05Z</time>
      </trkpt>
      <trkpt lat="27.960372" lon="-15.532892">
        <ele>1562.50</ele>
        <time>2017-12-09T14:40:07Z</time>
      </trkpt>
      <trkpt lat="27.960397" lon="-15.532882">
        <ele>1562.40</ele>
        <time>2017-12-09T14:40:09Z</time>
      </trkpt>
      <trkpt lat="27.960422" lon="-15.532871">
        <ele>1562.30</ele>
        <time>2017-12-09T14:40:11Z</time>
      </trkpt>
      <trkpt lat="27.960449" lon="-15.532859">
        <ele>1562.30</ele>
        <time>2017-12-09T14:40:13Z</time>
      </trkpt>
      <trkpt lat="27.960471" lon="-15.532846">
        <ele>1562.24</ele>
        <time>2017-12-09T14:40:15Z</time>
      </trkpt>
      <trkpt lat="27.960496" lon="-15.532836">
        <ele>1561.74</ele>
        <time>2017-12-09T14:40:17Z</time>
      </trkpt>
      <trkpt lat="27.960517" lon="-15.532821">
        <ele>1561.40</ele>
        <time>2017-12-09T14:40:19Z</time>
      </trkpt>
      <trkpt lat="27.960543" lon="-15.532808">
        <ele>1561.46</ele>
        <time>2017-12-09T14:40:21Z</time>
      </trkpt>
      <trkpt lat="27.960567" lon="-15.532796">
        <ele>1561.67</ele>
        <time>2017-12-09T14:40:23Z</time>
      </trkpt>
      <trkpt lat="27.960590" lon="-15.532785">
        <ele>1561.86</ele>
        <time>2017-12-09T14:40:25Z</time>
      </trkpt>
      <trkpt lat="27.960609" lon="-15.532771">
        <ele>1561.80</ele>
        <time>2017-12-09T14:40:27Z</time>
      </trkpt>
      <trkpt lat="27.960630" lon="-15.532761">
        <ele>1561.54</ele>
        <time>2017-12-09T14:40:29Z</time>
      </trkpt>
      <trkpt lat="27.960648" lon="-15.532751">
        <ele>1561.40</ele>
        <time>2017-12-09T14:40:31Z</time>
      </trkpt>
      <trkpt lat="27.960668" lon="-15.532744">
        <ele>1561.40</ele>
        <time>2017-12-09T14:40:33Z</time>
      </trkpt>
      <trkpt lat="27.960690" lon="-15.532731">
        <ele>1561.30</ele>
        <time>2017-12-09T14:40:35Z</time>
      </trkpt>
      <trkpt lat="27.960714" lon="-15.532714">
        <ele>1561.49</ele>
        <time>2017-12-09T14:40:37Z</time>
      </trkpt>
      <trkpt lat="27.960747" lon="-15.532704">
        <ele>1561.30</ele>
        <time>2017-12-09T14:40:39Z</time>
      </trkpt>
      <trkpt lat="27.960776" lon="-15.532699">
        <ele>1561.00</ele>
        <time>2017-12-09T14:40:41Z</time>
      </trkpt>
      <trkpt lat="27.960803" lon="-15.532700">
        <ele>1561.10</ele>
        <time>2017-12-09T14:40:43Z</time>
      </trkpt>
      <trkpt lat="27.960831" lon="-15.532705">
        <ele>1561.23</ele>
        <time>2017-12-09T14:40:45Z</time>
      </trkpt>
      <trkpt lat="27.960862" lon="-15.532708">
        <ele>1561.16</ele>
        <time>2017-12-09T14:40:47Z</time>
      </trkpt>
      <trkpt lat="27.960889" lon="-15.532713">
        <ele>1561.40</ele>
        <time>2017-12-09T14:40:50Z</time>
      </trkpt>
      <trkpt lat="27.960908" lon="-15.532731">
        <ele>1561.30</ele>
        <time>2017-12-09T14:40:53Z</time>
      </trkpt>
      <trkpt lat="27.960918" lon="-15.532748">
        <ele>1561.20</ele>
        <time>2017-12-09T14:40:55Z</time>
      </trkpt>
      <trkpt lat="27.960929" lon="-15.532764">
        <ele>1561.11</ele>
        <time>2017-12-09T14:40:57Z</time>
      </trkpt>
      <trkpt lat="27.960950" lon="-15.532776">
        <ele>1560.80</ele>
        <time>2017-12-09T14:41:00Z</time>
      </trkpt>
      <trkpt lat="27.960971" lon="-15.532782">
        <ele>1560.30</ele>
        <time>2017-12-09T14:41:02Z</time>
      </trkpt>
      <trkpt lat="27.960991" lon="-15.532768">
        <ele>1560.37</ele>
        <time>2017-12-09T14:41:05Z</time>
      </trkpt>
      <trkpt lat="27.960993" lon="-15.532748">
        <ele>1561.21</ele>
        <time>2017-12-09T14:41:07Z</time>
      </trkpt>
      <trkpt lat="27.960991" lon="-15.532722">
        <ele>1561.51</ele>
        <time>2017-12-09T14:41:09Z</time>
      </trkpt>
      <trkpt lat="27.960988" lon="-15.532697">
        <ele>1561.60</ele>
        <time>2017-12-09T14:41:11Z</time>
      </trkpt>
      <trkpt lat="27.960994" lon="-15.532665">
        <ele>1561.60</ele>
        <time>2017-12-09T14:41:13Z</time>
      </trkpt>
      <trkpt lat="27.961001" lon="-15.532636">
        <ele>1561.46</ele>
        <time>2017-12-09T14:41:15Z</time>
      </trkpt>
      <trkpt lat="27.961011" lon="-15.532610">
        <ele>1561.23</ele>
        <time>2017-12-09T14:41:17Z</time>
      </trkpt>
      <trkpt lat="27.961020" lon="-15.532585">
        <ele>1561.10</ele>
        <time>2017-12-09T14:41:19Z</time>
      </trkpt>
      <trkpt lat="27.961034" lon="-15.532559">
        <ele>1560.62</ele>
        <time>2017-12-09T14:41:22Z</time>
      </trkpt>
      <trkpt lat="27.961048" lon="-15.532545">
        <ele>1561.01</ele>
        <time>2017-12-09T14:41:24Z</time>
      </trkpt>
      <trkpt lat="27.961059" lon="-15.532525">
        <ele>1561.12</ele>
        <time>2017-12-09T14:41:26Z</time>
      </trkpt>
      <trkpt lat="27.961069" lon="-15.532504">
        <ele>1561.10</ele>
        <time>2017-12-09T14:41:28Z</time>
      </trkpt>
      <trkpt lat="27.961078" lon="-15.532482">
        <ele>1561.02</ele>
        <time>2017-12-09T14:41:30Z</time>
      </trkpt>
      <trkpt lat="27.961088" lon="-15.532459">
        <ele>1560.00</ele>
        <time>2017-12-09T14:41:32Z</time>
      </trkpt>
      <trkpt lat="27.961093" lon="-15.532430">
        <ele>1559.74</ele>
        <time>2017-12-09T14:41:34Z</time>
      </trkpt>
      <trkpt lat="27.961101" lon="-15.532404">
        <ele>1559.30</ele>
        <time>2017-12-09T14:41:36Z</time>
      </trkpt>
      <trkpt lat="27.961112" lon="-15.532376">
        <ele>1558.10</ele>
        <time>2017-12-09T14:41:38Z</time>
      </trkpt>
      <trkpt lat="27.961125" lon="-15.532355">
        <ele>1557.20</ele>
        <time>2017-12-09T14:41:40Z</time>
      </trkpt>
      <trkpt lat="27.961136" lon="-15.532335">
        <ele>1556.92</ele>
        <time>2017-12-09T14:41:42Z</time>
      </trkpt>
      <trkpt lat="27.961153" lon="-15.532325">
        <ele>1556.70</ele>
        <time>2017-12-09T14:41:44Z</time>
      </trkpt>
      <trkpt lat="27.961173" lon="-15.532320">
        <ele>1556.02</ele>
        <time>2017-12-09T14:41:46Z</time>
      </trkpt>
      <trkpt lat="27.961201" lon="-15.532312">
        <ele>1555.77</ele>
        <time>2017-12-09T14:41:48Z</time>
      </trkpt>
      <trkpt lat="27.961227" lon="-15.532306">
        <ele>1555.60</ele>
        <time>2017-12-09T14:41:50Z</time>
      </trkpt>
      <trkpt lat="27.961245" lon="-15.532290">
        <ele>1554.37</ele>
        <time>2017-12-09T14:41:52Z</time>
      </trkpt>
      <trkpt lat="27.961262" lon="-15.532265">
        <ele>1553.53</ele>
        <time>2017-12-09T14:41:54Z</time>
      </trkpt>
      <trkpt lat="27.961275" lon="-15.532242">
        <ele>1553.02</ele>
        <time>2017-12-09T14:41:56Z</time>
      </trkpt>
      <trkpt lat="27.961274" lon="-15.532219">
        <ele>1552.54</ele>
        <time>2017-12-09T14:41:58Z</time>
      </trkpt>
      <trkpt lat="27.961255" lon="-15.532193">
        <ele>1551.85</ele>
        <time>2017-12-09T14:42:00Z</time>
      </trkpt>
      <trkpt lat="27.961246" lon="-15.532172">
        <ele>1551.80</ele>
        <time>2017-12-09T14:42:01Z</time>
      </trkpt>
      <trkpt lat="27.961233" lon="-15.532139">
        <ele>1551.50</ele>
        <time>2017-12-09T14:42:03Z</time>
      </trkpt>
      <trkpt lat="27.961218" lon="-15.532107">
        <ele>1550.75</ele>
        <time>2017-12-09T14:42:05Z</time>
      </trkpt>
      <trkpt lat="27.961204" lon="-15.532080">
        <ele>1550.61</ele>
        <time>2017-12-09T14:42:07Z</time>
      </trkpt>
      <trkpt lat="27.961175" lon="-15.532066">
        <ele>1550.20</ele>
        <time>2017-12-09T14:42:11Z</time>
      </trkpt>
      <trkpt lat="27.961153" lon="-15.532060">
        <ele>1550.20</ele>
        <time>2017-12-09T14:42:12Z</time>
      </trkpt>
      <trkpt lat="27.961133" lon="-15.532058">
        <ele>1550.01</ele>
        <time>2017-12-09T14:42:13Z</time>
      </trkpt>
      <trkpt lat="27.961103" lon="-15.532060">
        <ele>1549.42</ele>
        <time>2017-12-09T14:42:15Z</time>
      </trkpt>
      <trkpt lat="27.961074" lon="-15.532057">
        <ele>1549.40</ele>
        <time>2017-12-09T14:42:17Z</time>
      </trkpt>
      <trkpt lat="27.961049" lon="-15.532064">
        <ele>1548.60</ele>
        <time>2017-12-09T14:42:19Z</time>
      </trkpt>
      <trkpt lat="27.961020" lon="-15.532063">
        <ele>1548.30</ele>
        <time>2017-12-09T14:42:21Z</time>
      </trkpt>
      <trkpt lat="27.960989" lon="-15.532055">
        <ele>1548.10</ele>
        <time>2017-12-09T14:42:23Z</time>
      </trkpt>
      <trkpt lat="27.960961" lon="-15.532050">
        <ele>1547.90</ele>
        <time>2017-12-09T14:42:25Z</time>
      </trkpt>
      <trkpt lat="27.960934" lon="-15.532048">
        <ele>1547.70</ele>
        <time>2017-12-09T14:42:27Z</time>
      </trkpt>
      <trkpt lat="27.960909" lon="-15.532046">
        <ele>1547.09</ele>
        <time>2017-12-09T14:42:29Z</time>
      </trkpt>
      <trkpt lat="27.960892" lon="-15.532036">
        <ele>1546.48</ele>
        <time>2017-12-09T14:42:31Z</time>
      </trkpt>
      <trkpt lat="27.960884" lon="-15.532010">
        <ele>1545.60</ele>
        <time>2017-12-09T14:42:33Z</time>
      </trkpt>
      <trkpt lat="27.960890" lon="-15.531977">
        <ele>1545.29</ele>
        <time>2017-12-09T14:42:35Z</time>
      </trkpt>
      <trkpt lat="27.960902" lon="-15.531945">
        <ele>1545.00</ele>
        <time>2017-12-09T14:42:37Z</time>
      </trkpt>
      <trkpt lat="27.960920" lon="-15.531918">
        <ele>1544.78</ele>
        <time>2017-12-09T14:42:39Z</time>
      </trkpt>
      <trkpt lat="27.960945" lon="-15.531896">
        <ele>1544.37</ele>
        <time>2017-12-09T14:42:41Z</time>
      </trkpt>
      <trkpt lat="27.960967" lon="-15.531876">
        <ele>1543.58</ele>
        <time>2017-12-09T14:42:43Z</time>
      </trkpt>
      <trkpt lat="27.960987" lon="-15.531863">
        <ele>1543.28</ele>
        <time>2017-12-09T14:42:45Z</time>
      </trkpt>
      <trkpt lat="27.961002" lon="-15.531849">
        <ele>1543.10</ele>
        <time>2017-12-09T14:42:47Z</time>
      </trkpt>
      <trkpt lat="27.961015" lon="-15.531835">
        <ele>1543.09</ele>
        <time>2017-12-09T14:42:49Z</time>
      </trkpt>
      <trkpt lat="27.961033" lon="-15.531826">
        <ele>1542.66</ele>
        <time>2017-12-09T14:42:51Z</time>
      </trkpt>
      <trkpt lat="27.961051" lon="-15.531828">
        <ele>1541.98</ele>
        <time>2017-12-09T14:42:53Z</time>
      </trkpt>
      <trkpt lat="27.961073" lon="-15.531829">
        <ele>1541.68</ele>
        <time>2017-12-09T14:42:55Z</time>
      </trkpt>
      <trkpt lat="27.961092" lon="-15.531828">
        <ele>1541.20</ele>
        <time>2017-12-09T14:42:57Z</time>
      </trkpt>
      <trkpt lat="27.961116" lon="-15.531820">
        <ele>1540.90</ele>
        <time>2017-12-09T14:42:59Z</time>
      </trkpt>
      <trkpt lat="27.961142" lon="-15.531814">
        <ele>1540.99</ele>
        <time>2017-12-09T14:43:01Z</time>
      </trkpt>
      <trkpt lat="27.961167" lon="-15.531812">
        <ele>1540.50</ele>
        <time>2017-12-09T14:43:03Z</time>
      </trkpt>
      <trkpt lat="27.961188" lon="-15.531809">
        <ele>1540.60</ele>
        <time>2017-12-09T14:43:05Z</time>
      </trkpt>
      <trkpt lat="27.961210" lon="-15.531807">
        <ele>1540.38</ele>
        <time>2017-12-09T14:43:07Z</time>
      </trkpt>
      <trkpt lat="27.961236" lon="-15.531810">
        <ele>1540.18</ele>
        <time>2017-12-09T14:43:09Z</time>
      </trkpt>
      <trkpt lat="27.961260" lon="-15.531805">
        <ele>1539.79</ele>
        <time>2017-12-09T14:43:11Z</time>
      </trkpt>
      <trkpt lat="27.961289" lon="-15.531799">
        <ele>1539.51</ele>
        <time>2017-12-09T14:43:13Z</time>
      </trkpt>
      <trkpt lat="27.961310" lon="-15.531816">
        <ele>1538.93</ele>
        <time>2017-12-09T14:43:15Z</time>
      </trkpt>
      <trkpt lat="27.961329" lon="-15.531828">
        <ele>1538.06</ele>
        <time>2017-12-09T14:43:17Z</time>
      </trkpt>
      <trkpt lat="27.961347" lon="-15.531846">
        <ele>1537.98</ele>
        <time>2017-12-09T14:43:19Z</time>
      </trkpt>
      <trkpt lat="27.961362" lon="-15.531864">
        <ele>1537.59</ele>
        <time>2017-12-09T14:43:21Z</time>
      </trkpt>
      <trkpt lat="27.961380" lon="-15.531885">
        <ele>1537.05</ele>
        <time>2017-12-09T14:43:24Z</time>
      </trkpt>
      <trkpt lat="27.961391" lon="-15.531918">
        <ele>1536.54</ele>
        <time>2017-12-09T14:43:26Z</time>
      </trkpt>
      <trkpt lat="27.961401" lon="-15.531936">
        <ele>1536.04</ele>
        <time>2017-12-09T14:43:27Z</time>
      </trkpt>
      <trkpt lat="27.961425" lon="-15.531963">
        <ele>1535.27</ele>
        <time>2017-12-09T14:43:29Z</time>
      </trkpt>
      <trkpt lat="27.961441" lon="-15.531977">
        <ele>1535.08</ele>
        <time>2017-12-09T14:43:30Z</time>
      </trkpt>
      <trkpt lat="27.961458" lon="-15.531992">
        <ele>1534.62</ele>
        <time>2017-12-09T14:43:31Z</time>
      </trkpt>
      <trkpt lat="27.961475" lon="-15.532004">
        <ele>1534.08</ele>
        <time>2017-12-09T14:43:32Z</time>
      </trkpt>
      <trkpt lat="27.961505" lon="-15.532022">
        <ele>1533.68</ele>
        <time>2017-12-09T14:43:34Z</time>
      </trkpt>
      <trkpt lat="27.961533" lon="-15.532025">
        <ele>1533.25</ele>
        <time>2017-12-09T14:43:36Z</time>
      </trkpt>
      <trkpt lat="27.961550" lon="-15.532006">
        <ele>1532.90</ele>
        <time>2017-12-09T14:43:38Z</time>
      </trkpt>
      <trkpt lat="27.961542" lon="-15.531986">
        <ele>1531.51</ele>
        <time>2017-12-09T14:43:44Z</time>
      </trkpt>
      <trkpt lat="27.961556" lon="-15.531968">
        <ele>1531.27</ele>
        <time>2017-12-09T14:43:46Z</time>
      </trkpt>
      <trkpt lat="27.961597" lon="-15.531886">
        <ele>1530.00</ele>
        <time>2017-12-09T14:43:53Z</time>
      </trkpt>
      <trkpt lat="27.961626" lon="-15.531823">
        <ele>1528.60</ele>
        <time>2017-12-09T14:43:58Z</time>
      </trkpt>
      <trkpt lat="27.961649" lon="-15.531767">
        <ele>1528.17</ele>
        <time>2017-12-09T14:44:04Z</time>
      </trkpt>
      <trkpt lat="27.961668" lon="-15.531770">
        <ele>1527.72</ele>
        <time>2017-12-09T14:44:07Z</time>
      </trkpt>
      <trkpt lat="27.961694" lon="-15.531765">
        <ele>1527.37</ele>
        <time>2017-12-09T14:44:09Z</time>
      </trkpt>
      <trkpt lat="27.961720" lon="-15.531752">
        <ele>1526.89</ele>
        <time>2017-12-09T14:44:11Z</time>
      </trkpt>
      <trkpt lat="27.961740" lon="-15.531752">
        <ele>1526.37</ele>
        <time>2017-12-09T14:44:13Z</time>
      </trkpt>
      <trkpt lat="27.961766" lon="-15.531755">
        <ele>1525.51</ele>
        <time>2017-12-09T14:44:16Z</time>
      </trkpt>
      <trkpt lat="27.961776" lon="-15.531738">
        <ele>1524.33</ele>
        <time>2017-12-09T14:44:32Z</time>
      </trkpt>
      <trkpt lat="27.961780" lon="-15.531717">
        <ele>1524.10</ele>
        <time>2017-12-09T14:44:36Z</time>
      </trkpt>
      <trkpt lat="27.961788" lon="-15.531698">
        <ele>1524.40</ele>
        <time>2017-12-09T14:44:43Z</time>
      </trkpt>
      <trkpt lat="27.961803" lon="-15.531720">
        <ele>1525.06</ele>
        <time>2017-12-09T14:45:27Z</time>
      </trkpt>
      <trkpt lat="27.961806" lon="-15.531741">
        <ele>1525.40</ele>
        <time>2017-12-09T14:45:53Z</time>
      </trkpt>
      <trkpt lat="27.961794" lon="-15.531762">
        <ele>1525.60</ele>
        <time>2017-12-09T14:45:57Z</time>
      </trkpt>
      <trkpt lat="27.961799" lon="-15.531741">
        <ele>1525.03</ele>
        <time>2017-12-09T14:46:24Z</time>
      </trkpt>
      <trkpt lat="27.961786" lon="-15.531760">
        <ele>1525.20</ele>
        <time>2017-12-09T14:46:27Z</time>
      </trkpt>
      <trkpt lat="27.961808" lon="-15.531758">
        <ele>1525.40</ele>
        <time>2017-12-09T14:46:38Z</time>
      </trkpt>
      <trkpt lat="27.961828" lon="-15.531747">
        <ele>1525.57</ele>
        <time>2017-12-09T14:46:46Z</time>
      </trkpt>
      <trkpt lat="27.961806" lon="-15.531730">
        <ele>1526.64</ele>
        <time>2017-12-09T14:46:56Z</time>
      </trkpt>
      <trkpt lat="27.961806" lon="-15.531708">
        <ele>1527.20</ele>
        <time>2017-12-09T14:47:01Z</time>
      </trkpt>
      <trkpt lat="27.961783" lon="-15.531705">
        <ele>1526.30</ele>
        <time>2017-12-09T14:47:16Z</time>
      </trkpt>
      <trkpt lat="27.961760" lon="-15.531719">
        <ele>1526.64</ele>
        <time>2017-12-09T14:47:19Z</time>
      </trkpt>
      <trkpt lat="27.961749" lon="-15.531741">
        <ele>1527.32</ele>
        <time>2017-12-09T14:47:22Z</time>
      </trkpt>
      <trkpt lat="27.961746" lon="-15.531762">
        <ele>1527.50</ele>
        <time>2017-12-09T14:47:23Z</time>
      </trkpt>
      <trkpt lat="27.961740" lon="-15.531790">
        <ele>1527.80</ele>
        <time>2017-12-09T14:47:25Z</time>
      </trkpt>
      <trkpt lat="27.961728" lon="-15.531808">
        <ele>1527.80</ele>
        <time>2017-12-09T14:47:27Z</time>
      </trkpt>
      <trkpt lat="27.961706" lon="-15.531829">
        <ele>1527.70</ele>
        <time>2017-12-09T14:47:29Z</time>
      </trkpt>
      <trkpt lat="27.961688" lon="-15.531853">
        <ele>1527.66</ele>
        <time>2017-12-09T14:47:31Z</time>
      </trkpt>
      <trkpt lat="27.961688" lon="-15.531914">
        <ele>1526.78</ele>
        <time>2017-12-09T14:47:34Z</time>
      </trkpt>
      <trkpt lat="27.961744" lon="-15.532022">
        <ele>1524.68</ele>
        <time>2017-12-09T14:47:39Z</time>
      </trkpt>
      <trkpt lat="27.961810" lon="-15.532113">
        <ele>1523.41</ele>
        <time>2017-12-09T14:47:43Z</time>
      </trkpt>
      <trkpt lat="27.961861" lon="-15.532218">
        <ele>1523.50</ele>
        <time>2017-12-09T14:47:47Z</time>
      </trkpt>
      <trkpt lat="27.961870" lon="-15.532325">
        <ele>1523.70</ele>
        <time>2017-12-09T14:47:52Z</time>
      </trkpt>
      <trkpt lat="27.961866" lon="-15.532450">
        <ele>1521.71</ele>
        <time>2017-12-09T14:47:58Z</time>
      </trkpt>
      <trkpt lat="27.961814" lon="-15.532557">
        <ele>1520.55</ele>
        <time>2017-12-09T14:48:03Z</time>
      </trkpt>
      <trkpt lat="27.961826" lon="-15.532669">
        <ele>1519.26</ele>
        <time>2017-12-09T14:48:07Z</time>
      </trkpt>
      <trkpt lat="27.961832" lon="-15.532774">
        <ele>1516.41</ele>
        <time>2017-12-09T14:48:13Z</time>
      </trkpt>
      <trkpt lat="27.961805" lon="-15.532897">
        <ele>1514.02</ele>
        <time>2017-12-09T14:48:18Z</time>
      </trkpt>
      <trkpt lat="27.961759" lon="-15.532989">
        <ele>1512.37</ele>
        <time>2017-12-09T14:48:22Z</time>
      </trkpt>
      <trkpt lat="27.961744" lon="-15.533098">
        <ele>1510.70</ele>
        <time>2017-12-09T14:48:26Z</time>
      </trkpt>
      <trkpt lat="27.961728" lon="-15.533203">
        <ele>1508.60</ele>
        <time>2017-12-09T14:48:32Z</time>
      </trkpt>
      <trkpt lat="27.961711" lon="-15.533330">
        <ele>1503.86</ele>
        <time>2017-12-09T14:48:39Z</time>
      </trkpt>
      <trkpt lat="27.961716" lon="-15.533462">
        <ele>1502.40</ele>
        <time>2017-12-09T14:48:44Z</time>
      </trkpt>
      <trkpt lat="27.961684" lon="-15.533579">
        <ele>1502.15</ele>
        <time>2017-12-09T14:48:49Z</time>
      </trkpt>
      <trkpt lat="27.961595" lon="-15.533655">
        <ele>1501.90</ele>
        <time>2017-12-09T14:48:53Z</time>
      </trkpt>
      <trkpt lat="27.961557" lon="-15.533762">
        <ele>1500.63</ele>
        <time>2017-12-09T14:49:01Z</time>
      </trkpt>
      <trkpt lat="27.961545" lon="-15.533878">
        <ele>1499.95</ele>
        <time>2017-12-09T14:49:07Z</time>
      </trkpt>
      <trkpt lat="27.961584" lon="-15.534003">
        <ele>1499.10</ele>
        <time>2017-12-09T14:49:11Z</time>
      </trkpt>
      <trkpt lat="27.961641" lon="-15.534115">
        <ele>1498.51</ele>
        <time>2017-12-09T14:49:15Z</time>
      </trkpt>
      <trkpt lat="27.961692" lon="-15.534202">
        <ele>1498.45</ele>
        <time>2017-12-09T14:49:20Z</time>
      </trkpt>
      <trkpt lat="27.961771" lon="-15.534253">
        <ele>1497.95</ele>
        <time>2017-12-09T14:49:25Z</time>
      </trkpt>
      <trkpt lat="27.961854" lon="-15.534316">
        <ele>1496.62</ele>
        <time>2017-12-09T14:49:30Z</time>
      </trkpt>
      <trkpt lat="27.961942" lon="-15.534380">
        <ele>1495.65</ele>
        <time>2017-12-09T14:49:34Z</time>
      </trkpt>
      <trkpt lat="27.962047" lon="-15.534391">
        <ele>1494.60</ele>
        <time>2017-12-09T14:49:38Z</time>
      </trkpt>
      <trkpt lat="27.962105" lon="-15.534448">
        <ele>1493.48</ele>
        <time>2017-12-09T14:49:44Z</time>
      </trkpt>
      <trkpt lat="27.962118" lon="-15.534464">
        <ele>1493.40</ele>
        <time>2017-12-09T14:49:45Z</time>
      </trkpt>
      <trkpt lat="27.962138" lon="-15.534494">
        <ele>1493.40</ele>
        <time>2017-12-09T14:49:47Z</time>
      </trkpt>
      <trkpt lat="27.962148" lon="-15.534523">
        <ele>1493.34</ele>
        <time>2017-12-09T14:49:49Z</time>
      </trkpt>
      <trkpt lat="27.962156" lon="-15.534541">
        <ele>1493.30</ele>
        <time>2017-12-09T14:49:50Z</time>
      </trkpt>
      <trkpt lat="27.962161" lon="-15.534561">
        <ele>1493.17</ele>
        <time>2017-12-09T14:49:51Z</time>
      </trkpt>
      <trkpt lat="27.962168" lon="-15.534600">
        <ele>1492.47</ele>
        <time>2017-12-09T14:49:53Z</time>
      </trkpt>
      <trkpt lat="27.962174" lon="-15.534621">
        <ele>1491.73</ele>
        <time>2017-12-09T14:49:54Z</time>
      </trkpt>
      <trkpt lat="27.962189" lon="-15.534657">
        <ele>1491.19</ele>
        <time>2017-12-09T14:49:56Z</time>
      </trkpt>
      <trkpt lat="27.962196" lon="-15.534677">
        <ele>1491.03</ele>
        <time>2017-12-09T14:49:57Z</time>
      </trkpt>
      <trkpt lat="27.962199" lon="-15.534731">
        <ele>1487.89</ele>
        <time>2017-12-09T14:50:04Z</time>
      </trkpt>
      <trkpt lat="27.962186" lon="-15.534753">
        <ele>1486.98</ele>
        <time>2017-12-09T14:50:07Z</time>
      </trkpt>
      <trkpt lat="27.962187" lon="-15.534775">
        <ele>1486.87</ele>
        <time>2017-12-09T14:50:09Z</time>
      </trkpt>
      <trkpt lat="27.962231" lon="-15.534876">
        <ele>1486.55</ele>
        <time>2017-12-09T14:50:17Z</time>
      </trkpt>
      <trkpt lat="27.962240" lon="-15.534988">
        <ele>1483.50</ele>
        <time>2017-12-09T14:50:24Z</time>
      </trkpt>
      <trkpt lat="27.962251" lon="-15.535090">
        <ele>1481.44</ele>
        <time>2017-12-09T14:50:30Z</time>
      </trkpt>
      <trkpt lat="27.962254" lon="-15.535130">
        <ele>1481.02</ele>
        <time>2017-12-09T14:50:32Z</time>
      </trkpt>
      <trkpt lat="27.962242" lon="-15.535233">
        <ele>1478.20</ele>
        <time>2017-12-09T14:50:37Z</time>
      </trkpt>
      <trkpt lat="27.962237" lon="-15.535256">
        <ele>1478.12</ele>
        <time>2017-12-09T14:50:38Z</time>
      </trkpt>
      <trkpt lat="27.962226" lon="-15.535362">
        <ele>1476.02</ele>
        <time>2017-12-09T14:50:43Z</time>
      </trkpt>
      <trkpt lat="27.962278" lon="-15.535464">
        <ele>1474.83</ele>
        <time>2017-12-09T14:50:48Z</time>
      </trkpt>
      <trkpt lat="27.962374" lon="-15.535425">
        <ele>1473.84</ele>
        <time>2017-12-09T14:50:53Z</time>
      </trkpt>
      <trkpt lat="27.962449" lon="-15.535389">
        <ele>1473.61</ele>
        <time>2017-12-09T14:50:59Z</time>
      </trkpt>
      <trkpt lat="27.962483" lon="-15.535373">
        <ele>1473.10</ele>
        <time>2017-12-09T14:51:01Z</time>
      </trkpt>
      <trkpt lat="27.962503" lon="-15.535364">
        <ele>1473.19</ele>
        <time>2017-12-09T14:51:02Z</time>
      </trkpt>
      <trkpt lat="27.962535" lon="-15.535346">
        <ele>1473.50</ele>
        <time>2017-12-09T14:51:04Z</time>
      </trkpt>
      <trkpt lat="27.962558" lon="-15.535328">
        <ele>1473.50</ele>
        <time>2017-12-09T14:51:06Z</time>
      </trkpt>
      <trkpt lat="27.962587" lon="-15.535310">
        <ele>1473.23</ele>
        <time>2017-12-09T14:51:08Z</time>
      </trkpt>
      <trkpt lat="27.962615" lon="-15.535297">
        <ele>1472.80</ele>
        <time>2017-12-09T14:51:10Z</time>
      </trkpt>
      <trkpt lat="27.962649" lon="-15.535271">
        <ele>1472.43</ele>
        <time>2017-12-09T14:51:13Z</time>
      </trkpt>
      <trkpt lat="27.962732" lon="-15.535215">
        <ele>1471.40</ele>
        <time>2017-12-09T14:51:21Z</time>
      </trkpt>
      <trkpt lat="27.962829" lon="-15.535206">
        <ele>1470.90</ele>
        <time>2017-12-09T14:51:29Z</time>
      </trkpt>
      <trkpt lat="27.962915" lon="-15.535176">
        <ele>1469.80</ele>
        <time>2017-12-09T14:51:34Z</time>
      </trkpt>
      <trkpt lat="27.962976" lon="-15.535089">
        <ele>1469.90</ele>
        <time>2017-12-09T14:51:39Z</time>
      </trkpt>
      <trkpt lat="27.963041" lon="-15.535016">
        <ele>1470.60</ele>
        <time>2017-12-09T14:51:44Z</time>
      </trkpt>
      <trkpt lat="27.963130" lon="-15.534959">
        <ele>1471.40</ele>
        <time>2017-12-09T14:51:52Z</time>
      </trkpt>
      <trkpt lat="27.963220" lon="-15.534938">
        <ele>1473.20</ele>
        <time>2017-12-09T14:52:03Z</time>
      </trkpt>
      <trkpt lat="27.963311" lon="-15.534908">
        <ele>1473.80</ele>
        <time>2017-12-09T14:52:09Z</time>
      </trkpt>
      <trkpt lat="27.963396" lon="-15.534846">
        <ele>1476.13</ele>
        <time>2017-12-09T14:52:18Z</time>
      </trkpt>
      <trkpt lat="27.963417" lon="-15.534832">
        <ele>1476.88</ele>
        <time>2017-12-09T14:52:22Z</time>
      </trkpt>
      <trkpt lat="27.963438" lon="-15.534824">
        <ele>1477.37</ele>
        <time>2017-12-09T14:52:24Z</time>
      </trkpt>
      <trkpt lat="27.963455" lon="-15.534815">
        <ele>1478.18</ele>
        <time>2017-12-09T14:52:26Z</time>
      </trkpt>
      <trkpt lat="27.963531" lon="-15.534745">
        <ele>1478.69</ele>
        <time>2017-12-09T14:52:35Z</time>
      </trkpt>
      <trkpt lat="27.963566" lon="-15.534641">
        <ele>1480.00</ele>
        <time>2017-12-09T14:52:42Z</time>
      </trkpt>
      <trkpt lat="27.963606" lon="-15.534571">
        <ele>1480.66</ele>
        <time>2017-12-09T14:52:47Z</time>
      </trkpt>
      <trkpt lat="27.963620" lon="-15.534558">
        <ele>1480.45</ele>
        <time>2017-12-09T14:52:48Z</time>
      </trkpt>
      <trkpt lat="27.963630" lon="-15.534540">
        <ele>1480.65</ele>
        <time>2017-12-09T14:52:49Z</time>
      </trkpt>
      <trkpt lat="27.963705" lon="-15.534468">
        <ele>1480.08</ele>
        <time>2017-12-09T14:52:56Z</time>
      </trkpt>
      <trkpt lat="27.963779" lon="-15.534408">
        <ele>1479.66</ele>
        <time>2017-12-09T14:53:03Z</time>
      </trkpt>
      <trkpt lat="27.963874" lon="-15.534372">
        <ele>1480.20</ele>
        <time>2017-12-09T14:53:11Z</time>
      </trkpt>
      <trkpt lat="27.963964" lon="-15.534398">
        <ele>1481.35</ele>
        <time>2017-12-09T14:53:18Z</time>
      </trkpt>
      <trkpt lat="27.964056" lon="-15.534406">
        <ele>1482.56</ele>
        <time>2017-12-09T14:53:26Z</time>
      </trkpt>
      <trkpt lat="27.964156" lon="-15.534406">
        <ele>1483.66</ele>
        <time>2017-12-09T14:53:34Z</time>
      </trkpt>
      <trkpt lat="27.964244" lon="-15.534379">
        <ele>1485.25</ele>
        <time>2017-12-09T14:53:41Z</time>
      </trkpt>
      <trkpt lat="27.964287" lon="-15.534365">
        <ele>1485.00</ele>
        <time>2017-12-09T14:53:44Z</time>
      </trkpt>
      <trkpt lat="27.964306" lon="-15.534365">
        <ele>1485.00</ele>
        <time>2017-12-09T14:53:46Z</time>
      </trkpt>
      <trkpt lat="27.964329" lon="-15.534368">
        <ele>1485.30</ele>
        <time>2017-12-09T14:53:48Z</time>
      </trkpt>
      <trkpt lat="27.964359" lon="-15.534356">
        <ele>1485.30</ele>
        <time>2017-12-09T14:53:50Z</time>
      </trkpt>
      <trkpt lat="27.964441" lon="-15.534310">
        <ele>1485.10</ele>
        <time>2017-12-09T14:53:55Z</time>
      </trkpt>
      <trkpt lat="27.964457" lon="-15.534298">
        <ele>1484.82</ele>
        <time>2017-12-09T14:53:56Z</time>
      </trkpt>
      <trkpt lat="27.964478" lon="-15.534269">
        <ele>1484.82</ele>
        <time>2017-12-09T14:53:58Z</time>
      </trkpt>
      <trkpt lat="27.964494" lon="-15.534241">
        <ele>1484.46</ele>
        <time>2017-12-09T14:54:00Z</time>
      </trkpt>
      <trkpt lat="27.964500" lon="-15.534215">
        <ele>1484.26</ele>
        <time>2017-12-09T14:54:02Z</time>
      </trkpt>
      <trkpt lat="27.964516" lon="-15.534171">
        <ele>1483.55</ele>
        <time>2017-12-09T14:54:05Z</time>
      </trkpt>
      <trkpt lat="27.964530" lon="-15.534139">
        <ele>1483.50</ele>
        <time>2017-12-09T14:54:07Z</time>
      </trkpt>
      <trkpt lat="27.964540" lon="-15.534107">
        <ele>1483.50</ele>
        <time>2017-12-09T14:54:09Z</time>
      </trkpt>
      <trkpt lat="27.964549" lon="-15.534078">
        <ele>1483.50</ele>
        <time>2017-12-09T14:54:11Z</time>
      </trkpt>
      <trkpt lat="27.964565" lon="-15.534049">
        <ele>1483.50</ele>
        <time>2017-12-09T14:54:13Z</time>
      </trkpt>
      <trkpt lat="27.964578" lon="-15.534021">
        <ele>1482.82</ele>
        <time>2017-12-09T14:54:15Z</time>
      </trkpt>
      <trkpt lat="27.964590" lon="-15.533987">
        <ele>1482.72</ele>
        <time>2017-12-09T14:54:17Z</time>
      </trkpt>
      <trkpt lat="27.964607" lon="-15.533960">
        <ele>1482.08</ele>
        <time>2017-12-09T14:54:19Z</time>
      </trkpt>
      <trkpt lat="27.964636" lon="-15.533933">
        <ele>1481.10</ele>
        <time>2017-12-09T14:54:21Z</time>
      </trkpt>
      <trkpt lat="27.964653" lon="-15.533920">
        <ele>1480.86</ele>
        <time>2017-12-09T14:54:22Z</time>
      </trkpt>
      <trkpt lat="27.964683" lon="-15.533899">
        <ele>1480.17</ele>
        <time>2017-12-09T14:54:24Z</time>
      </trkpt>
      <trkpt lat="27.964721" lon="-15.533891">
        <ele>1479.10</ele>
        <time>2017-12-09T14:54:26Z</time>
      </trkpt>
      <trkpt lat="27.964740" lon="-15.533893">
        <ele>1478.74</ele>
        <time>2017-12-09T14:54:27Z</time>
      </trkpt>
      <trkpt lat="27.964764" lon="-15.533904">
        <ele>1478.50</ele>
        <time>2017-12-09T14:54:29Z</time>
      </trkpt>
      <trkpt lat="27.964790" lon="-15.533920">
        <ele>1477.95</ele>
        <time>2017-12-09T14:54:31Z</time>
      </trkpt>
      <trkpt lat="27.964843" lon="-15.533945">
        <ele>1476.23</ele>
        <time>2017-12-09T14:54:35Z</time>
      </trkpt>
      <trkpt lat="27.964941" lon="-15.533976">
        <ele>1474.43</ele>
        <time>2017-12-09T14:54:43Z</time>
      </trkpt>
      <trkpt lat="27.965038" lon="-15.534001">
        <ele>1472.83</ele>
        <time>2017-12-09T14:54:48Z</time>
      </trkpt>
      <trkpt lat="27.965128" lon="-15.534026">
        <ele>1471.30</ele>
        <time>2017-12-09T14:54:54Z</time>
      </trkpt>
      <trkpt lat="27.965208" lon="-15.534097">
        <ele>1469.70</ele>
        <time>2017-12-09T14:55:04Z</time>
      </trkpt>
      <trkpt lat="27.965275" lon="-15.534170">
        <ele>1469.00</ele>
        <time>2017-12-09T14:55:09Z</time>
      </trkpt>
      <trkpt lat="27.965325" lon="-15.534258">
        <ele>1467.12</ele>
        <time>2017-12-09T14:55:14Z</time>
      </trkpt>
      <trkpt lat="27.965392" lon="-15.534332">
        <ele>1466.60</ele>
        <time>2017-12-09T14:55:19Z</time>
      </trkpt>
      <trkpt lat="27.965484" lon="-15.534348">
        <ele>1466.11</ele>
        <time>2017-12-09T14:55:24Z</time>
      </trkpt>
      <trkpt lat="27.965572" lon="-15.534374">
        <ele>1465.70</ele>
        <time>2017-12-09T14:55:29Z</time>
      </trkpt>
      <trkpt lat="27.965637" lon="-15.534465">
        <ele>1465.20</ele>
        <time>2017-12-09T14:55:34Z</time>
      </trkpt>
      <trkpt lat="27.965718" lon="-15.534518">
        <ele>1464.45</ele>
        <time>2017-12-09T14:55:39Z</time>
      </trkpt>
      <trkpt lat="27.965827" lon="-15.534558">
        <ele>1463.56</ele>
        <time>2017-12-09T14:55:45Z</time>
      </trkpt>
      <trkpt lat="27.965901" lon="-15.534617">
        <ele>1463.35</ele>
        <time>2017-12-09T14:55:51Z</time>
      </trkpt>
      <trkpt lat="27.965970" lon="-15.534703">
        <ele>1463.70</ele>
        <time>2017-12-09T14:56:00Z</time>
      </trkpt>
      <trkpt lat="27.966083" lon="-15.534709">
        <ele>1462.50</ele>
        <time>2017-12-09T14:56:06Z</time>
      </trkpt>
      <trkpt lat="27.966178" lon="-15.534727">
        <ele>1461.90</ele>
        <time>2017-12-09T14:56:10Z</time>
      </trkpt>
      <trkpt lat="27.966249" lon="-15.534651">
        <ele>1460.79</ele>
        <time>2017-12-09T14:56:23Z</time>
      </trkpt>
      <trkpt lat="27.966265" lon="-15.534547">
        <ele>1461.12</ele>
        <time>2017-12-09T14:56:27Z</time>
      </trkpt>
      <trkpt lat="27.966287" lon="-15.534429">
        <ele>1460.29</ele>
        <time>2017-12-09T14:56:32Z</time>
      </trkpt>
      <trkpt lat="27.966306" lon="-15.534323">
        <ele>1458.59</ele>
        <time>2017-12-09T14:56:36Z</time>
      </trkpt>
      <trkpt lat="27.966311" lon="-15.534218">
        <ele>1456.89</ele>
        <time>2017-12-09T14:56:40Z</time>
      </trkpt>
      <trkpt lat="27.966252" lon="-15.534134">
        <ele>1454.20</ele>
        <time>2017-12-09T14:56:45Z</time>
      </trkpt>
      <trkpt lat="27.966230" lon="-15.534035">
        <ele>1453.47</ele>
        <time>2017-12-09T14:56:51Z</time>
      </trkpt>
      <trkpt lat="27.966236" lon="-15.533929">
        <ele>1451.49</ele>
        <time>2017-12-09T14:56:57Z</time>
      </trkpt>
      <trkpt lat="27.966270" lon="-15.533814">
        <ele>1449.55</ele>
        <time>2017-12-09T14:57:02Z</time>
      </trkpt>
      <trkpt lat="27.966295" lon="-15.533775">
        <ele>1448.40</ele>
        <time>2017-12-09T14:57:05Z</time>
      </trkpt>
      <trkpt lat="27.966315" lon="-15.533754">
        <ele>1447.80</ele>
        <time>2017-12-09T14:57:07Z</time>
      </trkpt>
      <trkpt lat="27.966333" lon="-15.533732">
        <ele>1447.47</ele>
        <time>2017-12-09T14:57:09Z</time>
      </trkpt>
      <trkpt lat="27.966350" lon="-15.533706">
        <ele>1447.25</ele>
        <time>2017-12-09T14:57:11Z</time>
      </trkpt>
      <trkpt lat="27.966363" lon="-15.533684">
        <ele>1447.38</ele>
        <time>2017-12-09T14:57:13Z</time>
      </trkpt>
      <trkpt lat="27.966434" lon="-15.533615">
        <ele>1446.00</ele>
        <time>2017-12-09T14:57:19Z</time>
      </trkpt>
      <trkpt lat="27.966465" lon="-15.533513">
        <ele>1445.62</ele>
        <time>2017-12-09T14:57:24Z</time>
      </trkpt>
      <trkpt lat="27.966508" lon="-15.533461">
        <ele>1443.75</ele>
        <time>2017-12-09T14:57:28Z</time>
      </trkpt>
      <trkpt lat="27.966519" lon="-15.533440">
        <ele>1443.25</ele>
        <time>2017-12-09T14:57:30Z</time>
      </trkpt>
      <trkpt lat="27.966600" lon="-15.533384">
        <ele>1442.20</ele>
        <time>2017-12-09T14:57:38Z</time>
      </trkpt>
      <trkpt lat="27.966678" lon="-15.533316">
        <ele>1442.20</ele>
        <time>2017-12-09T14:57:46Z</time>
      </trkpt>
      <trkpt lat="27.966694" lon="-15.533284">
        <ele>1442.10</ele>
        <time>2017-12-09T14:57:48Z</time>
      </trkpt>
      <trkpt lat="27.966697" lon="-15.533264">
        <ele>1442.15</ele>
        <time>2017-12-09T14:57:49Z</time>
      </trkpt>
      <trkpt lat="27.966701" lon="-15.533241">
        <ele>1442.15</ele>
        <time>2017-12-09T14:57:50Z</time>
      </trkpt>
      <trkpt lat="27.966704" lon="-15.533198">
        <ele>1441.67</ele>
        <time>2017-12-09T14:57:52Z</time>
      </trkpt>
      <trkpt lat="27.966703" lon="-15.533176">
        <ele>1441.25</ele>
        <time>2017-12-09T14:57:53Z</time>
      </trkpt>
      <trkpt lat="27.966705" lon="-15.533148">
        <ele>1441.20</ele>
        <time>2017-12-09T14:57:54Z</time>
      </trkpt>
      <trkpt lat="27.966702" lon="-15.533124">
        <ele>1441.04</ele>
        <time>2017-12-09T14:57:55Z</time>
      </trkpt>
      <trkpt lat="27.966704" lon="-15.533100">
        <ele>1440.90</ele>
        <time>2017-12-09T14:57:56Z</time>
      </trkpt>
      <trkpt lat="27.966701" lon="-15.533077">
        <ele>1440.85</ele>
        <time>2017-12-09T14:57:57Z</time>
      </trkpt>
      <trkpt lat="27.966704" lon="-15.532965">
        <ele>1439.70</ele>
        <time>2017-12-09T14:58:05Z</time>
      </trkpt>
      <trkpt lat="27.966700" lon="-15.532857">
        <ele>1440.70</ele>
        <time>2017-12-09T14:58:12Z</time>
      </trkpt>
      <trkpt lat="27.966699" lon="-15.532815">
        <ele>1440.50</ele>
        <time>2017-12-09T14:58:14Z</time>
      </trkpt>
      <trkpt lat="27.966690" lon="-15.532754">
        <ele>1440.02</ele>
        <time>2017-12-09T14:58:18Z</time>
      </trkpt>
      <trkpt lat="27.966725" lon="-15.532660">
        <ele>1440.70</ele>
        <time>2017-12-09T14:58:26Z</time>
      </trkpt>
      <trkpt lat="27.966727" lon="-15.532599">
        <ele>1441.06</ele>
        <time>2017-12-09T14:58:30Z</time>
      </trkpt>
      <trkpt lat="27.966734" lon="-15.532514">
        <ele>1442.40</ele>
        <time>2017-12-09T14:58:36Z</time>
      </trkpt>
      <trkpt lat="27.966745" lon="-15.532439">
        <ele>1442.50</ele>
        <time>2017-12-09T14:58:41Z</time>
      </trkpt>
      <trkpt lat="27.966741" lon="-15.532426">
        <ele>1442.84</ele>
        <time>2017-12-09T14:58:42Z</time>
      </trkpt>
      <trkpt lat="27.966733" lon="-15.532382">
        <ele>1443.28</ele>
        <time>2017-12-09T14:58:45Z</time>
      </trkpt>
      <trkpt lat="27.966731" lon="-15.532344">
        <ele>1443.10</ele>
        <time>2017-12-09T14:58:48Z</time>
      </trkpt>
      <trkpt lat="27.966748" lon="-15.532270">
        <ele>1443.77</ele>
        <time>2017-12-09T14:58:56Z</time>
      </trkpt>
      <trkpt lat="27.966759" lon="-15.532251">
        <ele>1444.68</ele>
        <time>2017-12-09T14:58:58Z</time>
      </trkpt>
      <trkpt lat="27.966776" lon="-15.532230">
        <ele>1444.90</ele>
        <time>2017-12-09T14:59:00Z</time>
      </trkpt>
      <trkpt lat="27.966795" lon="-15.532211">
        <ele>1445.42</ele>
        <time>2017-12-09T14:59:02Z</time>
      </trkpt>
      <trkpt lat="27.966809" lon="-15.532181">
        <ele>1445.80</ele>
        <time>2017-12-09T14:59:04Z</time>
      </trkpt>
      <trkpt lat="27.966813" lon="-15.532160">
        <ele>1445.80</ele>
        <time>2017-12-09T14:59:05Z</time>
      </trkpt>
      <trkpt lat="27.966809" lon="-15.532137">
        <ele>1446.11</ele>
        <time>2017-12-09T14:59:06Z</time>
      </trkpt>
      <trkpt lat="27.966805" lon="-15.532100">
        <ele>1445.80</ele>
        <time>2017-12-09T14:59:08Z</time>
      </trkpt>
      <trkpt lat="27.966801" lon="-15.532074">
        <ele>1445.88</ele>
        <time>2017-12-09T14:59:09Z</time>
      </trkpt>
      <trkpt lat="27.966804" lon="-15.532053">
        <ele>1445.90</ele>
        <time>2017-12-09T14:59:10Z</time>
      </trkpt>
      <trkpt lat="27.966803" lon="-15.532032">
        <ele>1445.34</ele>
        <time>2017-12-09T14:59:11Z</time>
      </trkpt>
      <trkpt lat="27.966804" lon="-15.531991">
        <ele>1444.82</ele>
        <time>2017-12-09T14:59:13Z</time>
      </trkpt>
      <trkpt lat="27.966803" lon="-15.531970">
        <ele>1444.80</ele>
        <time>2017-12-09T14:59:14Z</time>
      </trkpt>
      <trkpt lat="27.966797" lon="-15.531948">
        <ele>1444.72</ele>
        <time>2017-12-09T14:59:15Z</time>
      </trkpt>
      <trkpt lat="27.966794" lon="-15.531925">
        <ele>1444.54</ele>
        <time>2017-12-09T14:59:16Z</time>
      </trkpt>
      <trkpt lat="27.966794" lon="-15.531901">
        <ele>1444.02</ele>
        <time>2017-12-09T14:59:17Z</time>
      </trkpt>
      <trkpt lat="27.966795" lon="-15.531876">
        <ele>1443.90</ele>
        <time>2017-12-09T14:59:18Z</time>
      </trkpt>
      <trkpt lat="27.966794" lon="-15.531853">
        <ele>1443.90</ele>
        <time>2017-12-09T14:59:19Z</time>
      </trkpt>
      <trkpt lat="27.966793" lon="-15.531828">
        <ele>1443.90</ele>
        <time>2017-12-09T14:59:20Z</time>
      </trkpt>
      <trkpt lat="27.966803" lon="-15.531790">
        <ele>1443.52</ele>
        <time>2017-12-09T14:59:22Z</time>
      </trkpt>
      <trkpt lat="27.966809" lon="-15.531770">
        <ele>1442.61</ele>
        <time>2017-12-09T14:59:23Z</time>
      </trkpt>
      <trkpt lat="27.966814" lon="-15.531732">
        <ele>1442.24</ele>
        <time>2017-12-09T14:59:25Z</time>
      </trkpt>
      <trkpt lat="27.966820" lon="-15.531695">
        <ele>1440.89</ele>
        <time>2017-12-09T14:59:27Z</time>
      </trkpt>
      <trkpt lat="27.966824" lon="-15.531675">
        <ele>1440.63</ele>
        <time>2017-12-09T14:59:28Z</time>
      </trkpt>
      <trkpt lat="27.966839" lon="-15.531644">
        <ele>1439.72</ele>
        <time>2017-12-09T14:59:30Z</time>
      </trkpt>
      <trkpt lat="27.966852" lon="-15.531627">
        <ele>1439.53</ele>
        <time>2017-12-09T14:59:31Z</time>
      </trkpt>
      <trkpt lat="27.966864" lon="-15.531609">
        <ele>1439.08</ele>
        <time>2017-12-09T14:59:32Z</time>
      </trkpt>
      <trkpt lat="27.966877" lon="-15.531588">
        <ele>1438.57</ele>
        <time>2017-12-09T14:59:33Z</time>
      </trkpt>
      <trkpt lat="27.966892" lon="-15.531565">
        <ele>1438.41</ele>
        <time>2017-12-09T14:59:34Z</time>
      </trkpt>
      <trkpt lat="27.966903" lon="-15.531526">
        <ele>1438.10</ele>
        <time>2017-12-09T14:59:36Z</time>
      </trkpt>
      <trkpt lat="27.966903" lon="-15.531488">
        <ele>1436.78</ele>
        <time>2017-12-09T14:59:38Z</time>
      </trkpt>
      <trkpt lat="27.966900" lon="-15.531463">
        <ele>1436.43</ele>
        <time>2017-12-09T14:59:39Z</time>
      </trkpt>
      <trkpt lat="27.966899" lon="-15.531436">
        <ele>1436.14</ele>
        <time>2017-12-09T14:59:40Z</time>
      </trkpt>
      <trkpt lat="27.966898" lon="-15.531413">
        <ele>1435.93</ele>
        <time>2017-12-09T14:59:41Z</time>
      </trkpt>
      <trkpt lat="27.966896" lon="-15.531370">
        <ele>1434.83</ele>
        <time>2017-12-09T14:59:43Z</time>
      </trkpt>
      <trkpt lat="27.966895" lon="-15.531349">
        <ele>1433.94</ele>
        <time>2017-12-09T14:59:44Z</time>
      </trkpt>
      <trkpt lat="27.966895" lon="-15.531310">
        <ele>1432.81</ele>
        <time>2017-12-09T14:59:46Z</time>
      </trkpt>
      <trkpt lat="27.966897" lon="-15.531288">
        <ele>1432.35</ele>
        <time>2017-12-09T14:59:47Z</time>
      </trkpt>
      <trkpt lat="27.966894" lon="-15.531250">
        <ele>1430.99</ele>
        <time>2017-12-09T14:59:49Z</time>
      </trkpt>
      <trkpt lat="27.966887" lon="-15.531229">
        <ele>1430.81</ele>
        <time>2017-12-09T14:59:50Z</time>
      </trkpt>
      <trkpt lat="27.966882" lon="-15.531206">
        <ele>1430.35</ele>
        <time>2017-12-09T14:59:51Z</time>
      </trkpt>
      <trkpt lat="27.966874" lon="-15.531187">
        <ele>1430.12</ele>
        <time>2017-12-09T14:59:52Z</time>
      </trkpt>
      <trkpt lat="27.966866" lon="-15.531165">
        <ele>1430.01</ele>
        <time>2017-12-09T14:59:53Z</time>
      </trkpt>
      <trkpt lat="27.966859" lon="-15.531142">
        <ele>1430.00</ele>
        <time>2017-12-09T14:59:54Z</time>
      </trkpt>
      <trkpt lat="27.966849" lon="-15.531120">
        <ele>1429.82</ele>
        <time>2017-12-09T14:59:55Z</time>
      </trkpt>
      <trkpt lat="27.966838" lon="-15.531103">
        <ele>1429.53</ele>
        <time>2017-12-09T14:59:56Z</time>
      </trkpt>
      <trkpt lat="27.966826" lon="-15.531086">
        <ele>1428.86</ele>
        <time>2017-12-09T14:59:57Z</time>
      </trkpt>
      <trkpt lat="27.966812" lon="-15.531061">
        <ele>1428.06</ele>
        <time>2017-12-09T14:59:59Z</time>
      </trkpt>
      <trkpt lat="27.966807" lon="-15.531040">
        <ele>1428.00</ele>
        <time>2017-12-09T15:00:01Z</time>
      </trkpt>
      <trkpt lat="27.966796" lon="-15.531021">
        <ele>1426.80</ele>
        <time>2017-12-09T15:00:03Z</time>
      </trkpt>
      <trkpt lat="27.966790" lon="-15.530992">
        <ele>1425.69</ele>
        <time>2017-12-09T15:00:06Z</time>
      </trkpt>
      <trkpt lat="27.966796" lon="-15.530969">
        <ele>1424.88</ele>
        <time>2017-12-09T15:00:08Z</time>
      </trkpt>
      <trkpt lat="27.966792" lon="-15.530943">
        <ele>1424.00</ele>
        <time>2017-12-09T15:00:10Z</time>
      </trkpt>
      <trkpt lat="27.966805" lon="-15.530927">
        <ele>1422.72</ele>
        <time>2017-12-09T15:00:13Z</time>
      </trkpt>
      <trkpt lat="27.966817" lon="-15.530906">
        <ele>1421.59</ele>
        <time>2017-12-09T15:00:15Z</time>
      </trkpt>
      <trkpt lat="27.966838" lon="-15.530894">
        <ele>1421.26</ele>
        <time>2017-12-09T15:00:17Z</time>
      </trkpt>
      <trkpt lat="27.966859" lon="-15.530874">
        <ele>1420.30</ele>
        <time>2017-12-09T15:00:19Z</time>
      </trkpt>
      <trkpt lat="27.966874" lon="-15.530848">
        <ele>1420.02</ele>
        <time>2017-12-09T15:00:21Z</time>
      </trkpt>
      <trkpt lat="27.966888" lon="-15.530820">
        <ele>1419.68</ele>
        <time>2017-12-09T15:00:23Z</time>
      </trkpt>
      <trkpt lat="27.966902" lon="-15.530783">
        <ele>1419.08</ele>
        <time>2017-12-09T15:00:25Z</time>
      </trkpt>
      <trkpt lat="27.966911" lon="-15.530763">
        <ele>1418.19</ele>
        <time>2017-12-09T15:00:26Z</time>
      </trkpt>
      <trkpt lat="27.966926" lon="-15.530727">
        <ele>1416.80</ele>
        <time>2017-12-09T15:00:28Z</time>
      </trkpt>
      <trkpt lat="27.966929" lon="-15.530705">
        <ele>1416.55</ele>
        <time>2017-12-09T15:00:29Z</time>
      </trkpt>
      <trkpt lat="27.966932" lon="-15.530683">
        <ele>1416.42</ele>
        <time>2017-12-09T15:00:30Z</time>
      </trkpt>
      <trkpt lat="27.966935" lon="-15.530660">
        <ele>1415.33</ele>
        <time>2017-12-09T15:00:31Z</time>
      </trkpt>
      <trkpt lat="27.966947" lon="-15.530624">
        <ele>1414.49</ele>
        <time>2017-12-09T15:00:33Z</time>
      </trkpt>
      <trkpt lat="27.966955" lon="-15.530604">
        <ele>1414.32</ele>
        <time>2017-12-09T15:00:34Z</time>
      </trkpt>
      <trkpt lat="27.966965" lon="-15.530582">
        <ele>1413.64</ele>
        <time>2017-12-09T15:00:35Z</time>
      </trkpt>
      <trkpt lat="27.966979" lon="-15.530548">
        <ele>1412.65</ele>
        <time>2017-12-09T15:00:37Z</time>
      </trkpt>
      <trkpt lat="27.967000" lon="-15.530522">
        <ele>1411.70</ele>
        <time>2017-12-09T15:00:39Z</time>
      </trkpt>
      <trkpt lat="27.967021" lon="-15.530508">
        <ele>1411.53</ele>
        <time>2017-12-09T15:00:41Z</time>
      </trkpt>
      <trkpt lat="27.967054" lon="-15.530500">
        <ele>1410.60</ele>
        <time>2017-12-09T15:00:43Z</time>
      </trkpt>
      <trkpt lat="27.967070" lon="-15.530489">
        <ele>1410.00</ele>
        <time>2017-12-09T15:00:44Z</time>
      </trkpt>
      <trkpt lat="27.967079" lon="-15.530471">
        <ele>1409.21</ele>
        <time>2017-12-09T15:00:45Z</time>
      </trkpt>
      <trkpt lat="27.967090" lon="-15.530439">
        <ele>1408.38</ele>
        <time>2017-12-09T15:00:47Z</time>
      </trkpt>
      <trkpt lat="27.967101" lon="-15.530403">
        <ele>1407.80</ele>
        <time>2017-12-09T15:00:49Z</time>
      </trkpt>
      <trkpt lat="27.967107" lon="-15.530362">
        <ele>1406.91</ele>
        <time>2017-12-09T15:00:51Z</time>
      </trkpt>
      <trkpt lat="27.967112" lon="-15.530341">
        <ele>1406.63</ele>
        <time>2017-12-09T15:00:52Z</time>
      </trkpt>
      <trkpt lat="27.967117" lon="-15.530317">
        <ele>1406.60</ele>
        <time>2017-12-09T15:00:53Z</time>
      </trkpt>
      <trkpt lat="27.967125" lon="-15.530294">
        <ele>1405.18</ele>
        <time>2017-12-09T15:00:54Z</time>
      </trkpt>
      <trkpt lat="27.967132" lon="-15.530271">
        <ele>1404.46</ele>
        <time>2017-12-09T15:00:55Z</time>
      </trkpt>
      <trkpt lat="27.967131" lon="-15.530248">
        <ele>1404.22</ele>
        <time>2017-12-09T15:00:56Z</time>
      </trkpt>
      <trkpt lat="27.967134" lon="-15.530225">
        <ele>1404.02</ele>
        <time>2017-12-09T15:00:57Z</time>
      </trkpt>
      <trkpt lat="27.967138" lon="-15.530200">
        <ele>1403.64</ele>
        <time>2017-12-09T15:00:58Z</time>
      </trkpt>
      <trkpt lat="27.967163" lon="-15.530091">
        <ele>1402.10</ele>
        <time>2017-12-09T15:01:03Z</time>
      </trkpt>
      <trkpt lat="27.967159" lon="-15.530058">
        <ele>1401.25</ele>
        <time>2017-12-09T15:01:05Z</time>
      </trkpt>
      <trkpt lat="27.967165" lon="-15.530037">
        <ele>1400.80</ele>
        <time>2017-12-09T15:01:07Z</time>
      </trkpt>
      <trkpt lat="27.967176" lon="-15.530020">
        <ele>1400.00</ele>
        <time>2017-12-09T15:01:10Z</time>
      </trkpt>
      <trkpt lat="27.967181" lon="-15.529998">
        <ele>1399.60</ele>
        <time>2017-12-09T15:01:13Z</time>
      </trkpt>
      <trkpt lat="27.967178" lon="-15.529972">
        <ele>1399.01</ele>
        <time>2017-12-09T15:01:15Z</time>
      </trkpt>
      <trkpt lat="27.967183" lon="-15.529952">
        <ele>1398.11</ele>
        <time>2017-12-09T15:01:17Z</time>
      </trkpt>
      <trkpt lat="27.967188" lon="-15.529923">
        <ele>1397.80</ele>
        <time>2017-12-09T15:01:19Z</time>
      </trkpt>
      <trkpt lat="27.967196" lon="-15.529904">
        <ele>1397.70</ele>
        <time>2017-12-09T15:01:21Z</time>
      </trkpt>
      <trkpt lat="27.967184" lon="-15.529923">
        <ele>1397.29</ele>
        <time>2017-12-09T15:01:26Z</time>
      </trkpt>
      <trkpt lat="27.967176" lon="-15.529944">
        <ele>1396.68</ele>
        <time>2017-12-09T15:01:28Z</time>
      </trkpt>
      <trkpt lat="27.967178" lon="-15.529968">
        <ele>1396.27</ele>
        <time>2017-12-09T15:01:30Z</time>
      </trkpt>
      <trkpt lat="27.967175" lon="-15.530004">
        <ele>1395.53</ele>
        <time>2017-12-09T15:01:33Z</time>
      </trkpt>
      <trkpt lat="27.967179" lon="-15.530028">
        <ele>1394.50</ele>
        <time>2017-12-09T15:01:35Z</time>
      </trkpt>
      <trkpt lat="27.967202" lon="-15.530017">
        <ele>1394.30</ele>
        <time>2017-12-09T15:01:37Z</time>
      </trkpt>
      <trkpt lat="27.967232" lon="-15.529970">
        <ele>1394.27</ele>
        <time>2017-12-09T15:01:40Z</time>
      </trkpt>
      <trkpt lat="27.967254" lon="-15.529943">
        <ele>1393.19</ele>
        <time>2017-12-09T15:01:42Z</time>
      </trkpt>
      <trkpt lat="27.967277" lon="-15.529935">
        <ele>1393.03</ele>
        <time>2017-12-09T15:01:43Z</time>
      </trkpt>
      <trkpt lat="27.967322" lon="-15.529897">
        <ele>1390.37</ele>
        <time>2017-12-09T15:01:48Z</time>
      </trkpt>
      <trkpt lat="27.967410" lon="-15.529872">
        <ele>1388.91</ele>
        <time>2017-12-09T15:01:54Z</time>
      </trkpt>
      <trkpt lat="27.967505" lon="-15.529830">
        <ele>1385.08</ele>
        <time>2017-12-09T15:02:01Z</time>
      </trkpt>
      <trkpt lat="27.967593" lon="-15.529766">
        <ele>1382.33</ele>
        <time>2017-12-09T15:02:07Z</time>
      </trkpt>
      <trkpt lat="27.967650" lon="-15.529704">
        <ele>1381.60</ele>
        <time>2017-12-09T15:02:11Z</time>
      </trkpt>
      <trkpt lat="27.967663" lon="-15.529690">
        <ele>1381.53</ele>
        <time>2017-12-09T15:02:12Z</time>
      </trkpt>
      <trkpt lat="27.967727" lon="-15.529605">
        <ele>1379.04</ele>
        <time>2017-12-09T15:02:18Z</time>
      </trkpt>
      <trkpt lat="27.967771" lon="-15.529538">
        <ele>1374.60</ele>
        <time>2017-12-09T15:02:33Z</time>
      </trkpt>
      <trkpt lat="27.967751" lon="-15.529542">
        <ele>1375.50</ele>
        <time>2017-12-09T15:02:46Z</time>
      </trkpt>
      <trkpt lat="27.967763" lon="-15.529561">
        <ele>1375.60</ele>
        <time>2017-12-09T15:02:51Z</time>
      </trkpt>
      <trkpt lat="27.967796" lon="-15.529555">
        <ele>1374.90</ele>
        <time>2017-12-09T15:02:54Z</time>
      </trkpt>
      <trkpt lat="27.967818" lon="-15.529513">
        <ele>1374.76</ele>
        <time>2017-12-09T15:02:57Z</time>
      </trkpt>
      <trkpt lat="27.967833" lon="-15.529479">
        <ele>1374.06</ele>
        <time>2017-12-09T15:02:59Z</time>
      </trkpt>
      <trkpt lat="27.967846" lon="-15.529430">
        <ele>1372.38</ele>
        <time>2017-12-09T15:03:02Z</time>
      </trkpt>
      <trkpt lat="27.967864" lon="-15.529317">
        <ele>1370.05</ele>
        <time>2017-12-09T15:03:09Z</time>
      </trkpt>
      <trkpt lat="27.967905" lon="-15.529217">
        <ele>1367.40</ele>
        <time>2017-12-09T15:03:17Z</time>
      </trkpt>
      <trkpt lat="27.967920" lon="-15.529201">
        <ele>1366.32</ele>
        <time>2017-12-09T15:03:19Z</time>
      </trkpt>
      <trkpt lat="27.967941" lon="-15.529168">
        <ele>1365.70</ele>
        <time>2017-12-09T15:03:22Z</time>
      </trkpt>
      <trkpt lat="27.967946" lon="-15.529154">
        <ele>1365.67</ele>
        <time>2017-12-09T15:03:23Z</time>
      </trkpt>
      <trkpt lat="27.967966" lon="-15.529117">
        <ele>1364.77</ele>
        <time>2017-12-09T15:03:26Z</time>
      </trkpt>
      <trkpt lat="27.967975" lon="-15.529107">
        <ele>1364.67</ele>
        <time>2017-12-09T15:03:27Z</time>
      </trkpt>
      <trkpt lat="27.967992" lon="-15.529088">
        <ele>1363.68</ele>
        <time>2017-12-09T15:03:29Z</time>
      </trkpt>
      <trkpt lat="27.968007" lon="-15.529070">
        <ele>1363.00</ele>
        <time>2017-12-09T15:03:31Z</time>
      </trkpt>
      <trkpt lat="27.968023" lon="-15.529046">
        <ele>1362.27</ele>
        <time>2017-12-09T15:03:33Z</time>
      </trkpt>
      <trkpt lat="27.968034" lon="-15.529015">
        <ele>1361.93</ele>
        <time>2017-12-09T15:03:35Z</time>
      </trkpt>
      <trkpt lat="27.968041" lon="-15.528984">
        <ele>1361.50</ele>
        <time>2017-12-09T15:03:37Z</time>
      </trkpt>
      <trkpt lat="27.968049" lon="-15.528957">
        <ele>1360.86</ele>
        <time>2017-12-09T15:03:39Z</time>
      </trkpt>
      <trkpt lat="27.968061" lon="-15.528940">
        <ele>1360.05</ele>
        <time>2017-12-09T15:03:41Z</time>
      </trkpt>
      <trkpt lat="27.968047" lon="-15.528963">
        <ele>1358.31</ele>
        <time>2017-12-09T15:03:46Z</time>
      </trkpt>
      <trkpt lat="27.968037" lon="-15.528986">
        <ele>1357.96</ele>
        <time>2017-12-09T15:03:48Z</time>
      </trkpt>
      <trkpt lat="27.968055" lon="-15.528971">
        <ele>1357.82</ele>
        <time>2017-12-09T15:03:50Z</time>
      </trkpt>
      <trkpt lat="27.968087" lon="-15.528942">
        <ele>1356.02</ele>
        <time>2017-12-09T15:03:53Z</time>
      </trkpt>
      <trkpt lat="27.968096" lon="-15.528937">
        <ele>1355.60</ele>
        <time>2017-12-09T15:03:54Z</time>
      </trkpt>
      <trkpt lat="27.968115" lon="-15.528920">
        <ele>1355.20</ele>
        <time>2017-12-09T15:03:57Z</time>
      </trkpt>
      <trkpt lat="27.968129" lon="-15.528903">
        <ele>1355.06</ele>
        <time>2017-12-09T15:03:59Z</time>
      </trkpt>
      <trkpt lat="27.968148" lon="-15.528884">
        <ele>1353.75</ele>
        <time>2017-12-09T15:04:02Z</time>
      </trkpt>
      <trkpt lat="27.968242" lon="-15.528860">
        <ele>1351.35</ele>
        <time>2017-12-09T15:04:08Z</time>
      </trkpt>
      <trkpt lat="27.968272" lon="-15.528858">
        <ele>1350.82</ele>
        <time>2017-12-09T15:04:10Z</time>
      </trkpt>
      <trkpt lat="27.968292" lon="-15.528865">
        <ele>1349.75</ele>
        <time>2017-12-09T15:04:12Z</time>
      </trkpt>
      <trkpt lat="27.968334" lon="-15.528918">
        <ele>1348.59</ele>
        <time>2017-12-09T15:04:20Z</time>
      </trkpt>
      <trkpt lat="27.968419" lon="-15.528887">
        <ele>1345.45</ele>
        <time>2017-12-09T15:04:28Z</time>
      </trkpt>
      <trkpt lat="27.968443" lon="-15.528849">
        <ele>1344.22</ele>
        <time>2017-12-09T15:04:32Z</time>
      </trkpt>
      <trkpt lat="27.968468" lon="-15.528858">
        <ele>1344.00</ele>
        <time>2017-12-09T15:04:35Z</time>
      </trkpt>
      <trkpt lat="27.968487" lon="-15.528852">
        <ele>1343.42</ele>
        <time>2017-12-09T15:04:37Z</time>
      </trkpt>
      <trkpt lat="27.968505" lon="-15.528845">
        <ele>1343.04</ele>
        <time>2017-12-09T15:04:39Z</time>
      </trkpt>
      <trkpt lat="27.968490" lon="-15.528873">
        <ele>1341.89</ele>
        <time>2017-12-09T15:04:43Z</time>
      </trkpt>
      <trkpt lat="27.968473" lon="-15.528893">
        <ele>1341.37</ele>
        <time>2017-12-09T15:04:45Z</time>
      </trkpt>
      <trkpt lat="27.968467" lon="-15.528914">
        <ele>1340.70</ele>
        <time>2017-12-09T15:04:47Z</time>
      </trkpt>
      <trkpt lat="27.968454" lon="-15.528933">
        <ele>1340.52</ele>
        <time>2017-12-09T15:04:48Z</time>
      </trkpt>
      <trkpt lat="27.968446" lon="-15.528954">
        <ele>1340.40</ele>
        <time>2017-12-09T15:04:49Z</time>
      </trkpt>
      <trkpt lat="27.968455" lon="-15.528990">
        <ele>1339.68</ele>
        <time>2017-12-09T15:04:51Z</time>
      </trkpt>
      <trkpt lat="27.968464" lon="-15.529009">
        <ele>1339.40</ele>
        <time>2017-12-09T15:04:52Z</time>
      </trkpt>
      <trkpt lat="27.968490" lon="-15.529030">
        <ele>1339.10</ele>
        <time>2017-12-09T15:04:54Z</time>
      </trkpt>
      <trkpt lat="27.968519" lon="-15.529010">
        <ele>1338.40</ele>
        <time>2017-12-09T15:04:56Z</time>
      </trkpt>
      <trkpt lat="27.968551" lon="-15.528991">
        <ele>1337.40</ele>
        <time>2017-12-09T15:04:58Z</time>
      </trkpt>
      <trkpt lat="27.968568" lon="-15.528983">
        <ele>1336.96</ele>
        <time>2017-12-09T15:04:59Z</time>
      </trkpt>
      <trkpt lat="27.968588" lon="-15.528970">
        <ele>1336.58</ele>
        <time>2017-12-09T15:05:00Z</time>
      </trkpt>
      <trkpt lat="27.968603" lon="-15.528954">
        <ele>1336.37</ele>
        <time>2017-12-09T15:05:01Z</time>
      </trkpt>
      <trkpt lat="27.968618" lon="-15.528940">
        <ele>1336.05</ele>
        <time>2017-12-09T15:05:02Z</time>
      </trkpt>
      <trkpt lat="27.968629" lon="-15.528919">
        <ele>1335.26</ele>
        <time>2017-12-09T15:05:04Z</time>
      </trkpt>
      <trkpt lat="27.968652" lon="-15.528906">
        <ele>1334.56</ele>
        <time>2017-12-09T15:05:06Z</time>
      </trkpt>
      <trkpt lat="27.968673" lon="-15.528890">
        <ele>1334.50</ele>
        <time>2017-12-09T15:05:08Z</time>
      </trkpt>
      <trkpt lat="27.968665" lon="-15.528913">
        <ele>1332.73</ele>
        <time>2017-12-09T15:05:12Z</time>
      </trkpt>
      <trkpt lat="27.968654" lon="-15.528933">
        <ele>1332.26</ele>
        <time>2017-12-09T15:05:14Z</time>
      </trkpt>
      <trkpt lat="27.968640" lon="-15.528958">
        <ele>1331.73</ele>
        <time>2017-12-09T15:05:16Z</time>
      </trkpt>
      <trkpt lat="27.968641" lon="-15.528991">
        <ele>1331.57</ele>
        <time>2017-12-09T15:05:18Z</time>
      </trkpt>
      <trkpt lat="27.968652" lon="-15.529008">
        <ele>1331.60</ele>
        <time>2017-12-09T15:05:19Z</time>
      </trkpt>
      <trkpt lat="27.968682" lon="-15.529015">
        <ele>1331.11</ele>
        <time>2017-12-09T15:05:21Z</time>
      </trkpt>
      <trkpt lat="27.968701" lon="-15.529029">
        <ele>1330.46</ele>
        <time>2017-12-09T15:05:23Z</time>
      </trkpt>
      <trkpt lat="27.968721" lon="-15.529045">
        <ele>1330.23</ele>
        <time>2017-12-09T15:05:25Z</time>
      </trkpt>
      <trkpt lat="27.968743" lon="-15.529059">
        <ele>1329.23</ele>
        <time>2017-12-09T15:05:27Z</time>
      </trkpt>
      <trkpt lat="27.968766" lon="-15.528945">
        <ele>1326.22</ele>
        <time>2017-12-09T15:05:33Z</time>
      </trkpt>
      <trkpt lat="27.968805" lon="-15.528842">
        <ele>1324.73</ele>
        <time>2017-12-09T15:05:37Z</time>
      </trkpt>
      <trkpt lat="27.968810" lon="-15.528822">
        <ele>1324.52</ele>
        <time>2017-12-09T15:05:38Z</time>
      </trkpt>
      <trkpt lat="27.968818" lon="-15.528800">
        <ele>1324.03</ele>
        <time>2017-12-09T15:05:39Z</time>
      </trkpt>
      <trkpt lat="27.968831" lon="-15.528752">
        <ele>1322.60</ele>
        <time>2017-12-09T15:05:42Z</time>
      </trkpt>
      <trkpt lat="27.968903" lon="-15.528826">
        <ele>1320.13</ele>
        <time>2017-12-09T15:05:54Z</time>
      </trkpt>
      <trkpt lat="27.968961" lon="-15.528907">
        <ele>1317.91</ele>
        <time>2017-12-09T15:05:59Z</time>
      </trkpt>
      <trkpt lat="27.968995" lon="-15.529004">
        <ele>1316.90</ele>
        <time>2017-12-09T15:06:06Z</time>
      </trkpt>
      <trkpt lat="27.969071" lon="-15.529071">
        <ele>1312.68</ele>
        <time>2017-12-09T15:06:13Z</time>
      </trkpt>
      <trkpt lat="27.969140" lon="-15.529150">
        <ele>1311.40</ele>
        <time>2017-12-09T15:06:18Z</time>
      </trkpt>
      <trkpt lat="27.969216" lon="-15.529217">
        <ele>1310.11</ele>
        <time>2017-12-09T15:06:22Z</time>
      </trkpt>
      <trkpt lat="27.969253" lon="-15.529311">
        <ele>1308.40</ele>
        <time>2017-12-09T15:06:27Z</time>
      </trkpt>
      <trkpt lat="27.969319" lon="-15.529399">
        <ele>1307.20</ele>
        <time>2017-12-09T15:06:31Z</time>
      </trkpt>
      <trkpt lat="27.969290" lon="-15.529525">
        <ele>1305.89</ele>
        <time>2017-12-09T15:06:37Z</time>
      </trkpt>
      <trkpt lat="27.969193" lon="-15.529544">
        <ele>1304.40</ele>
        <time>2017-12-09T15:06:44Z</time>
      </trkpt>
      <trkpt lat="27.969092" lon="-15.529554">
        <ele>1304.10</ele>
        <time>2017-12-09T15:06:50Z</time>
      </trkpt>
      <trkpt lat="27.968997" lon="-15.529564">
        <ele>1303.18</ele>
        <time>2017-12-09T15:06:54Z</time>
      </trkpt>
      <trkpt lat="27.968914" lon="-15.529612">
        <ele>1301.80</ele>
        <time>2017-12-09T15:06:58Z</time>
      </trkpt>
      <trkpt lat="27.968833" lon="-15.529679">
        <ele>1300.99</ele>
        <time>2017-12-09T15:07:02Z</time>
      </trkpt>
      <trkpt lat="27.968731" lon="-15.529733">
        <ele>1299.70</ele>
        <time>2017-12-09T15:07:06Z</time>
      </trkpt>
      <trkpt lat="27.968781" lon="-15.529819">
        <ele>1296.78</ele>
        <time>2017-12-09T15:07:17Z</time>
      </trkpt>
      <trkpt lat="27.968857" lon="-15.529890">
        <ele>1294.04</ele>
        <time>2017-12-09T15:07:25Z</time>
      </trkpt>
      <trkpt lat="27.968953" lon="-15.529866">
        <ele>1291.16</ele>
        <time>2017-12-09T15:07:34Z</time>
      </trkpt>
      <trkpt lat="27.968980" lon="-15.529970">
        <ele>1287.57</ele>
        <time>2017-12-09T15:07:46Z</time>
      </trkpt>
      <trkpt lat="27.968931" lon="-15.530055">
        <ele>1284.94</ele>
        <time>2017-12-09T15:07:55Z</time>
      </trkpt>
      <trkpt lat="27.968937" lon="-15.530169">
        <ele>1279.63</ele>
        <time>2017-12-09T15:08:10Z</time>
      </trkpt>
      <trkpt lat="27.968940" lon="-15.530272">
        <ele>1277.40</ele>
        <time>2017-12-09T15:08:18Z</time>
      </trkpt>
      <trkpt lat="27.969049" lon="-15.530252">
        <ele>1275.97</ele>
        <time>2017-12-09T15:08:31Z</time>
      </trkpt>
      <trkpt lat="27.969145" lon="-15.530285">
        <ele>1273.90</ele>
        <time>2017-12-09T15:08:38Z</time>
      </trkpt>
      <trkpt lat="27.969227" lon="-15.530348">
        <ele>1273.40</ele>
        <time>2017-12-09T15:08:46Z</time>
      </trkpt>
      <trkpt lat="27.969305" lon="-15.530412">
        <ele>1273.80</ele>
        <time>2017-12-09T15:08:54Z</time>
      </trkpt>
      <trkpt lat="27.969308" lon="-15.530520">
        <ele>1274.55</ele>
        <time>2017-12-09T15:09:03Z</time>
      </trkpt>
      <trkpt lat="27.969409" lon="-15.530507">
        <ele>1275.38</ele>
        <time>2017-12-09T15:09:11Z</time>
      </trkpt>
      <trkpt lat="27.969499" lon="-15.530494">
        <ele>1273.00</ele>
        <time>2017-12-09T15:09:21Z</time>
      </trkpt>
      <trkpt lat="27.969593" lon="-15.530528">
        <ele>1268.15</ele>
        <time>2017-12-09T15:09:37Z</time>
      </trkpt>
      <trkpt lat="27.969693" lon="-15.530516">
        <ele>1265.56</ele>
        <time>2017-12-09T15:09:45Z</time>
      </trkpt>
      <trkpt lat="27.969742" lon="-15.530604">
        <ele>1263.46</ele>
        <time>2017-12-09T15:09:52Z</time>
      </trkpt>
      <trkpt lat="27.969811" lon="-15.530681">
        <ele>1261.12</ele>
        <time>2017-12-09T15:09:57Z</time>
      </trkpt>
      <trkpt lat="27.969883" lon="-15.530768">
        <ele>1258.56</ele>
        <time>2017-12-09T15:10:03Z</time>
      </trkpt>
      <trkpt lat="27.969956" lon="-15.530833">
        <ele>1258.10</ele>
        <time>2017-12-09T15:10:08Z</time>
      </trkpt>
      <trkpt lat="27.970046" lon="-15.530795">
        <ele>1257.57</ele>
        <time>2017-12-09T15:10:15Z</time>
      </trkpt>
      <trkpt lat="27.970090" lon="-15.530892">
        <ele>1257.70</ele>
        <time>2017-12-09T15:10:22Z</time>
      </trkpt>
      <trkpt lat="27.970107" lon="-15.530995">
        <ele>1256.31</ele>
        <time>2017-12-09T15:10:32Z</time>
      </trkpt>
      <trkpt lat="27.970169" lon="-15.531081">
        <ele>1256.65</ele>
        <time>2017-12-09T15:10:41Z</time>
      </trkpt>
      <trkpt lat="27.970236" lon="-15.531156">
        <ele>1257.30</ele>
        <time>2017-12-09T15:10:49Z</time>
      </trkpt>
      <trkpt lat="27.970328" lon="-15.531183">
        <ele>1257.09</ele>
        <time>2017-12-09T15:10:58Z</time>
      </trkpt>
      <trkpt lat="27.970416" lon="-15.531197">
        <ele>1255.60</ele>
        <time>2017-12-09T15:11:06Z</time>
      </trkpt>
      <trkpt lat="27.970506" lon="-15.531126">
        <ele>1255.61</ele>
        <time>2017-12-09T15:11:14Z</time>
      </trkpt>
      <trkpt lat="27.970575" lon="-15.531062">
        <ele>1258.70</ele>
        <time>2017-12-09T15:11:40Z</time>
      </trkpt>
      <trkpt lat="27.970626" lon="-15.531146">
        <ele>1260.44</ele>
        <time>2017-12-09T15:11:58Z</time>
      </trkpt>
      <trkpt lat="27.970634" lon="-15.531254">
        <ele>1264.04</ele>
        <time>2017-12-09T15:12:11Z</time>
      </trkpt>
      <trkpt lat="27.970754" lon="-15.531271">
        <ele>1267.60</ele>
        <time>2017-12-09T15:12:28Z</time>
      </trkpt>
      <trkpt lat="27.970859" lon="-15.531254">
        <ele>1271.00</ele>
        <time>2017-12-09T15:12:43Z</time>
      </trkpt>
      <trkpt lat="27.970937" lon="-15.531179">
        <ele>1272.15</ele>
        <time>2017-12-09T15:13:01Z</time>
      </trkpt>
      <trkpt lat="27.970977" lon="-15.531155">
        <ele>1271.70</ele>
        <time>2017-12-09T15:13:04Z</time>
      </trkpt>
      <trkpt lat="27.971060" lon="-15.531115">
        <ele>1270.46</ele>
        <time>2017-12-09T15:13:10Z</time>
      </trkpt>
      <trkpt lat="27.971158" lon="-15.531096">
        <ele>1268.87</ele>
        <time>2017-12-09T15:13:16Z</time>
      </trkpt>
      <trkpt lat="27.971255" lon="-15.531079">
        <ele>1267.57</ele>
        <time>2017-12-09T15:13:22Z</time>
      </trkpt>
      <trkpt lat="27.971342" lon="-15.531139">
        <ele>1265.81</ele>
        <time>2017-12-09T15:13:28Z</time>
      </trkpt>
      <trkpt lat="27.971402" lon="-15.531057">
        <ele>1263.45</ele>
        <time>2017-12-09T15:13:35Z</time>
      </trkpt>
      <trkpt lat="27.971386" lon="-15.530953">
        <ele>1261.00</ele>
        <time>2017-12-09T15:13:40Z</time>
      </trkpt>
      <trkpt lat="27.971369" lon="-15.530921">
        <ele>1260.31</ele>
        <time>2017-12-09T15:13:42Z</time>
      </trkpt>
      <trkpt lat="27.971354" lon="-15.530898">
        <ele>1259.42</ele>
        <time>2017-12-09T15:13:44Z</time>
      </trkpt>
      <trkpt lat="27.971367" lon="-15.530883">
        <ele>1258.15</ele>
        <time>2017-12-09T15:13:47Z</time>
      </trkpt>
      <trkpt lat="27.971394" lon="-15.530878">
        <ele>1257.40</ele>
        <time>2017-12-09T15:13:50Z</time>
      </trkpt>
      <trkpt lat="27.971425" lon="-15.530887">
        <ele>1256.75</ele>
        <time>2017-12-09T15:13:52Z</time>
      </trkpt>
      <trkpt lat="27.971466" lon="-15.530862">
        <ele>1254.60</ele>
        <time>2017-12-09T15:13:56Z</time>
      </trkpt>
      <trkpt lat="27.971466" lon="-15.530827">
        <ele>1253.82</ele>
        <time>2017-12-09T15:13:58Z</time>
      </trkpt>
      <trkpt lat="27.971482" lon="-15.530795">
        <ele>1252.49</ele>
        <time>2017-12-09T15:14:00Z</time>
      </trkpt>
      <trkpt lat="27.971487" lon="-15.530758">
        <ele>1251.49</ele>
        <time>2017-12-09T15:14:02Z</time>
      </trkpt>
      <trkpt lat="27.971491" lon="-15.530728">
        <ele>1251.05</ele>
        <time>2017-12-09T15:14:04Z</time>
      </trkpt>
      <trkpt lat="27.971541" lon="-15.530703">
        <ele>1249.07</ele>
        <time>2017-12-09T15:14:08Z</time>
      </trkpt>
      <trkpt lat="27.971555" lon="-15.530702">
        <ele>1248.59</ele>
        <time>2017-12-09T15:14:09Z</time>
      </trkpt>
      <trkpt lat="27.971645" lon="-15.530637">
        <ele>1244.14</ele>
        <time>2017-12-09T15:14:18Z</time>
      </trkpt>
      <trkpt lat="27.971721" lon="-15.530728">
        <ele>1240.00</ele>
        <time>2017-12-09T15:14:26Z</time>
      </trkpt>
      <trkpt lat="27.971819" lon="-15.530707">
        <ele>1237.82</ele>
        <time>2017-12-09T15:14:35Z</time>
      </trkpt>
      <trkpt lat="27.971858" lon="-15.530639">
        <ele>1234.77</ele>
        <time>2017-12-09T15:14:39Z</time>
      </trkpt>
      <trkpt lat="27.971869" lon="-15.530608">
        <ele>1232.72</ele>
        <time>2017-12-09T15:14:41Z</time>
      </trkpt>
      <trkpt lat="27.971885" lon="-15.530586">
        <ele>1231.97</ele>
        <time>2017-12-09T15:14:43Z</time>
      </trkpt>
      <trkpt lat="27.971898" lon="-15.530554">
        <ele>1231.19</ele>
        <time>2017-12-09T15:14:45Z</time>
      </trkpt>
      <trkpt lat="27.971907" lon="-15.530497">
        <ele>1230.14</ele>
        <time>2017-12-09T15:14:48Z</time>
      </trkpt>
      <trkpt lat="27.971916" lon="-15.530463">
        <ele>1229.64</ele>
        <time>2017-12-09T15:14:50Z</time>
      </trkpt>
      <trkpt lat="27.971922" lon="-15.530442">
        <ele>1228.50</ele>
        <time>2017-12-09T15:14:51Z</time>
      </trkpt>
      <trkpt lat="27.971954" lon="-15.530339">
        <ele>1225.40</ele>
        <time>2017-12-09T15:14:56Z</time>
      </trkpt>
      <trkpt lat="27.971942" lon="-15.530237">
        <ele>1222.91</ele>
        <time>2017-12-09T15:15:02Z</time>
      </trkpt>
      <trkpt lat="27.972034" lon="-15.530264">
        <ele>1216.81</ele>
        <time>2017-12-09T15:15:17Z</time>
      </trkpt>
      <trkpt lat="27.972091" lon="-15.530166">
        <ele>1215.03</ele>
        <time>2017-12-09T15:15:22Z</time>
      </trkpt>
      <trkpt lat="27.972157" lon="-15.530083">
        <ele>1209.07</ele>
        <time>2017-12-09T15:15:36Z</time>
      </trkpt>
      <trkpt lat="27.972246" lon="-15.530115">
        <ele>1205.56</ele>
        <time>2017-12-09T15:15:43Z</time>
      </trkpt>
      <trkpt lat="27.972291" lon="-15.530025">
        <ele>1203.50</ele>
        <time>2017-12-09T15:15:55Z</time>
      </trkpt>
      <trkpt lat="27.972383" lon="-15.530030">
        <ele>1197.70</ele>
        <time>2017-12-09T15:16:13Z</time>
      </trkpt>
      <trkpt lat="27.972416" lon="-15.529935">
        <ele>1195.85</ele>
        <time>2017-12-09T15:16:19Z</time>
      </trkpt>
      <trkpt lat="27.972388" lon="-15.529828">
        <ele>1192.76</ele>
        <time>2017-12-09T15:16:26Z</time>
      </trkpt>
      <trkpt lat="27.972480" lon="-15.529800">
        <ele>1186.71</ele>
        <time>2017-12-09T15:16:46Z</time>
      </trkpt>
      <trkpt lat="27.972574" lon="-15.529839">
        <ele>1182.43</ele>
        <time>2017-12-09T15:16:52Z</time>
      </trkpt>
      <trkpt lat="27.972666" lon="-15.529848">
        <ele>1181.30</ele>
        <time>2017-12-09T15:16:58Z</time>
      </trkpt>
      <trkpt lat="27.972761" lon="-15.529859">
        <ele>1177.16</ele>
        <time>2017-12-09T15:17:07Z</time>
      </trkpt>
      <trkpt lat="27.972858" lon="-15.529848">
        <ele>1174.48</ele>
        <time>2017-12-09T15:17:12Z</time>
      </trkpt>
      <trkpt lat="27.972925" lon="-15.529918">
        <ele>1172.59</ele>
        <time>2017-12-09T15:17:17Z</time>
      </trkpt>
      <trkpt lat="27.972954" lon="-15.529808">
        <ele>1168.84</ele>
        <time>2017-12-09T15:17:24Z</time>
      </trkpt>
      <trkpt lat="27.973016" lon="-15.529732">
        <ele>1163.30</ele>
        <time>2017-12-09T15:17:36Z</time>
      </trkpt>
      <trkpt lat="27.973108" lon="-15.529731">
        <ele>1160.38</ele>
        <time>2017-12-09T15:17:48Z</time>
      </trkpt>
      <trkpt lat="27.973177" lon="-15.529801">
        <ele>1157.48</ele>
        <time>2017-12-09T15:17:56Z</time>
      </trkpt>
      <trkpt lat="27.973213" lon="-15.529898">
        <ele>1156.18</ele>
        <time>2017-12-09T15:18:03Z</time>
      </trkpt>
      <trkpt lat="27.973288" lon="-15.529837">
        <ele>1149.90</ele>
        <time>2017-12-09T15:18:20Z</time>
      </trkpt>
      <trkpt lat="27.973334" lon="-15.529743">
        <ele>1149.04</ele>
        <time>2017-12-09T15:18:26Z</time>
      </trkpt>
      <trkpt lat="27.973381" lon="-15.529639">
        <ele>1143.94</ele>
        <time>2017-12-09T15:18:40Z</time>
      </trkpt>
      <trkpt lat="27.973473" lon="-15.529667">
        <ele>1138.89</ele>
        <time>2017-12-09T15:18:57Z</time>
      </trkpt>
      <trkpt lat="27.973558" lon="-15.529595">
        <ele>1134.38</ele>
        <time>2017-12-09T15:19:09Z</time>
      </trkpt>
      <trkpt lat="27.973607" lon="-15.529502">
        <ele>1131.69</ele>
        <time>2017-12-09T15:19:14Z</time>
      </trkpt>
      <trkpt lat="27.973695" lon="-15.529435">
        <ele>1127.10</ele>
        <time>2017-12-09T15:19:31Z</time>
      </trkpt>
      <trkpt lat="27.973786" lon="-15.529483">
        <ele>1123.41</ele>
        <time>2017-12-09T15:19:40Z</time>
      </trkpt>
      <trkpt lat="27.973861" lon="-15.529388">
        <ele>1120.84</ele>
        <time>2017-12-09T15:19:45Z</time>
      </trkpt>
      <trkpt lat="27.973879" lon="-15.529282">
        <ele>1115.64</ele>
        <time>2017-12-09T15:19:59Z</time>
      </trkpt>
      <trkpt lat="27.973969" lon="-15.529264">
        <ele>1109.50</ele>
        <time>2017-12-09T15:20:11Z</time>
      </trkpt>
      <trkpt lat="27.974057" lon="-15.529205">
        <ele>1108.23</ele>
        <time>2017-12-09T15:20:17Z</time>
      </trkpt>
      <trkpt lat="27.974125" lon="-15.529136">
        <ele>1106.53</ele>
        <time>2017-12-09T15:20:21Z</time>
      </trkpt>
      <trkpt lat="27.974180" lon="-15.529038">
        <ele>1102.82</ele>
        <time>2017-12-09T15:20:27Z</time>
      </trkpt>
      <trkpt lat="27.974135" lon="-15.529080">
        <ele>1097.00</ele>
        <time>2017-12-09T15:20:40Z</time>
      </trkpt>
      <trkpt lat="27.974145" lon="-15.529108">
        <ele>1097.80</ele>
        <time>2017-12-09T15:20:42Z</time>
      </trkpt>
      <trkpt lat="27.974180" lon="-15.529138">
        <ele>1096.92</ele>
        <time>2017-12-09T15:20:47Z</time>
      </trkpt>
      <trkpt lat="27.974213" lon="-15.529242">
        <ele>1094.03</ele>
        <time>2017-12-09T15:20:56Z</time>
      </trkpt>
      <trkpt lat="27.974292" lon="-15.529306">
        <ele>1092.47</ele>
        <time>2017-12-09T15:21:02Z</time>
      </trkpt>
      <trkpt lat="27.974363" lon="-15.529384">
        <ele>1090.73</ele>
        <time>2017-12-09T15:21:08Z</time>
      </trkpt>
      <trkpt lat="27.974403" lon="-15.529484">
        <ele>1089.89</ele>
        <time>2017-12-09T15:21:16Z</time>
      </trkpt>
      <trkpt lat="27.974485" lon="-15.529526">
        <ele>1086.24</ele>
        <time>2017-12-09T15:21:21Z</time>
      </trkpt>
      <trkpt lat="27.974577" lon="-15.529554">
        <ele>1085.30</ele>
        <time>2017-12-09T15:21:27Z</time>
      </trkpt>
      <trkpt lat="27.974678" lon="-15.529584">
        <ele>1084.90</ele>
        <time>2017-12-09T15:21:34Z</time>
      </trkpt>
      <trkpt lat="27.974753" lon="-15.529656">
        <ele>1083.69</ele>
        <time>2017-12-09T15:21:43Z</time>
      </trkpt>
      <trkpt lat="27.974769" lon="-15.529759">
        <ele>1081.80</ele>
        <time>2017-12-09T15:21:51Z</time>
      </trkpt>
      <trkpt lat="27.974765" lon="-15.529863">
        <ele>1082.40</ele>
        <time>2017-12-09T15:21:58Z</time>
      </trkpt>
      <trkpt lat="27.974836" lon="-15.529945">
        <ele>1082.40</ele>
        <time>2017-12-09T15:22:07Z</time>
      </trkpt>
      <trkpt lat="27.974868" lon="-15.530041">
        <ele>1082.60</ele>
        <time>2017-12-09T15:22:14Z</time>
      </trkpt>
      <trkpt lat="27.974924" lon="-15.530134">
        <ele>1082.49</ele>
        <time>2017-12-09T15:22:22Z</time>
      </trkpt>
      <trkpt lat="27.974972" lon="-15.530226">
        <ele>1082.61</ele>
        <time>2017-12-09T15:22:31Z</time>
      </trkpt>
      <trkpt lat="27.975024" lon="-15.530324">
        <ele>1083.00</ele>
        <time>2017-12-09T15:22:39Z</time>
      </trkpt>
      <trkpt lat="27.975052" lon="-15.530424">
        <ele>1083.20</ele>
        <time>2017-12-09T15:22:46Z</time>
      </trkpt>
      <trkpt lat="27.975105" lon="-15.530507">
        <ele>1082.30</ele>
        <time>2017-12-09T15:22:55Z</time>
      </trkpt>
      <trkpt lat="27.975152" lon="-15.530617">
        <ele>1080.92</ele>
        <time>2017-12-09T15:23:01Z</time>
      </trkpt>
      <trkpt lat="27.975216" lon="-15.530698">
        <ele>1079.68</ele>
        <time>2017-12-09T15:23:06Z</time>
      </trkpt>
      <trkpt lat="27.975295" lon="-15.530757">
        <ele>1077.90</ele>
        <time>2017-12-09T15:23:11Z</time>
      </trkpt>
      <trkpt lat="27.975391" lon="-15.530784">
        <ele>1075.95</ele>
        <time>2017-12-09T15:23:17Z</time>
      </trkpt>
      <trkpt lat="27.975482" lon="-15.530763">
        <ele>1073.50</ele>
        <time>2017-12-09T15:23:21Z</time>
      </trkpt>
      <trkpt lat="27.975573" lon="-15.530731">
        <ele>1071.04</ele>
        <time>2017-12-09T15:23:27Z</time>
      </trkpt>
      <trkpt lat="27.975652" lon="-15.530811">
        <ele>1070.38</ele>
        <time>2017-12-09T15:23:33Z</time>
      </trkpt>
      <trkpt lat="27.975723" lon="-15.530886">
        <ele>1070.07</ele>
        <time>2017-12-09T15:23:37Z</time>
      </trkpt>
      <trkpt lat="27.975808" lon="-15.530948">
        <ele>1070.30</ele>
        <time>2017-12-09T15:23:41Z</time>
      </trkpt>
      <trkpt lat="27.975890" lon="-15.530995">
        <ele>1070.15</ele>
        <time>2017-12-09T15:23:45Z</time>
      </trkpt>
      <trkpt lat="27.975984" lon="-15.531055">
        <ele>1069.43</ele>
        <time>2017-12-09T15:23:50Z</time>
      </trkpt>
      <trkpt lat="27.976027" lon="-15.531151">
        <ele>1069.35</ele>
        <time>2017-12-09T15:23:56Z</time>
      </trkpt>
      <trkpt lat="27.976066" lon="-15.531243">
        <ele>1067.72</ele>
        <time>2017-12-09T15:24:01Z</time>
      </trkpt>
      <trkpt lat="27.976114" lon="-15.531344">
        <ele>1065.62</ele>
        <time>2017-12-09T15:24:07Z</time>
      </trkpt>
      <trkpt lat="27.976193" lon="-15.531416">
        <ele>1065.70</ele>
        <time>2017-12-09T15:24:12Z</time>
      </trkpt>
      <trkpt lat="27.976282" lon="-15.531406">
        <ele>1065.60</ele>
        <time>2017-12-09T15:24:17Z</time>
      </trkpt>
      <trkpt lat="27.976373" lon="-15.531390">
        <ele>1064.94</ele>
        <time>2017-12-09T15:24:21Z</time>
      </trkpt>
      <trkpt lat="27.976463" lon="-15.531387">
        <ele>1063.42</ele>
        <time>2017-12-09T15:24:25Z</time>
      </trkpt>
      <trkpt lat="27.976573" lon="-15.531392">
        <ele>1060.82</ele>
        <time>2017-12-09T15:24:31Z</time>
      </trkpt>
      <trkpt lat="27.976666" lon="-15.531377">
        <ele>1058.42</ele>
        <time>2017-12-09T15:24:37Z</time>
      </trkpt>
      <trkpt lat="27.976776" lon="-15.531386">
        <ele>1055.31</ele>
        <time>2017-12-09T15:24:45Z</time>
      </trkpt>
      <trkpt lat="27.976880" lon="-15.531417">
        <ele>1050.87</ele>
        <time>2017-12-09T15:24:50Z</time>
      </trkpt>
      <trkpt lat="27.976964" lon="-15.531357">
        <ele>1050.40</ele>
        <time>2017-12-09T15:24:54Z</time>
      </trkpt>
      <trkpt lat="27.977026" lon="-15.531282">
        <ele>1049.06</ele>
        <time>2017-12-09T15:24:58Z</time>
      </trkpt>
      <trkpt lat="27.977134" lon="-15.531265">
        <ele>1045.19</ele>
        <time>2017-12-09T15:25:08Z</time>
      </trkpt>
      <trkpt lat="27.977217" lon="-15.531298">
        <ele>1042.02</ele>
        <time>2017-12-09T15:25:14Z</time>
      </trkpt>
      <trkpt lat="27.977324" lon="-15.531274">
        <ele>1040.00</ele>
        <time>2017-12-09T15:25:20Z</time>
      </trkpt>
      <trkpt lat="27.977422" lon="-15.531290">
        <ele>1038.31</ele>
        <time>2017-12-09T15:25:25Z</time>
      </trkpt>
      <trkpt lat="27.977540" lon="-15.531285">
        <ele>1034.60</ele>
        <time>2017-12-09T15:25:33Z</time>
      </trkpt>
      <trkpt lat="27.977625" lon="-15.531309">
        <ele>1031.41</ele>
        <time>2017-12-09T15:25:39Z</time>
      </trkpt>
      <trkpt lat="27.977723" lon="-15.531328">
        <ele>1029.70</ele>
        <time>2017-12-09T15:25:43Z</time>
      </trkpt>
      <trkpt lat="27.977820" lon="-15.531362">
        <ele>1027.90</ele>
        <time>2017-12-09T15:25:48Z</time>
      </trkpt>
      <trkpt lat="27.977914" lon="-15.531414">
        <ele>1027.10</ele>
        <time>2017-12-09T15:25:53Z</time>
      </trkpt>
      <trkpt lat="27.977915" lon="-15.531518">
        <ele>1026.70</ele>
        <time>2017-12-09T15:25:58Z</time>
      </trkpt>
      <trkpt lat="27.977954" lon="-15.531610">
        <ele>1026.85</ele>
        <time>2017-12-09T15:26:02Z</time>
      </trkpt>
      <trkpt lat="27.978012" lon="-15.531595">
        <ele>1026.70</ele>
        <time>2017-12-09T15:26:05Z</time>
      </trkpt>
      <trkpt lat="27.978051" lon="-15.531583">
        <ele>1026.19</ele>
        <time>2017-12-09T15:26:07Z</time>
      </trkpt>
      <trkpt lat="27.978134" lon="-15.531538">
        <ele>1025.04</ele>
        <time>2017-12-09T15:26:11Z</time>
      </trkpt>
      <trkpt lat="27.978223" lon="-15.531486">
        <ele>1023.14</ele>
        <time>2017-12-09T15:26:15Z</time>
      </trkpt>
      <trkpt lat="27.978320" lon="-15.531430">
        <ele>1021.11</ele>
        <time>2017-12-09T15:26:19Z</time>
      </trkpt>
      <trkpt lat="27.978408" lon="-15.531400">
        <ele>1019.93</ele>
        <time>2017-12-09T15:26:22Z</time>
      </trkpt>
      <trkpt lat="27.978502" lon="-15.531371">
        <ele>1018.49</ele>
        <time>2017-12-09T15:26:26Z</time>
      </trkpt>
      <trkpt lat="27.978588" lon="-15.531402">
        <ele>1016.90</ele>
        <time>2017-12-09T15:26:31Z</time>
      </trkpt>
      <trkpt lat="27.978663" lon="-15.531483">
        <ele>1016.30</ele>
        <time>2017-12-09T15:26:36Z</time>
      </trkpt>
      <trkpt lat="27.978722" lon="-15.531569">
        <ele>1013.50</ele>
        <time>2017-12-09T15:26:44Z</time>
      </trkpt>
      <trkpt lat="27.978820" lon="-15.531606">
        <ele>1013.96</ele>
        <time>2017-12-09T15:26:50Z</time>
      </trkpt>
      <trkpt lat="27.978901" lon="-15.531669">
        <ele>1015.24</ele>
        <time>2017-12-09T15:26:58Z</time>
      </trkpt>
      <trkpt lat="27.978985" lon="-15.531709">
        <ele>1016.07</ele>
        <time>2017-12-09T15:27:06Z</time>
      </trkpt>
      <trkpt lat="27.979084" lon="-15.531740">
        <ele>1018.24</ele>
        <time>2017-12-09T15:27:19Z</time>
      </trkpt>
      <trkpt lat="27.979194" lon="-15.531815">
        <ele>1019.43</ele>
        <time>2017-12-09T15:27:33Z</time>
      </trkpt>
      <trkpt lat="27.979276" lon="-15.531844">
        <ele>1018.77</ele>
        <time>2017-12-09T15:27:40Z</time>
      </trkpt>
      <trkpt lat="27.979341" lon="-15.531921">
        <ele>1018.60</ele>
        <time>2017-12-09T15:27:50Z</time>
      </trkpt>
      <trkpt lat="27.979446" lon="-15.531931">
        <ele>1018.63</ele>
        <time>2017-12-09T15:27:57Z</time>
      </trkpt>
      <trkpt lat="27.979517" lon="-15.531862">
        <ele>1016.83</ele>
        <time>2017-12-09T15:28:04Z</time>
      </trkpt>
      <trkpt lat="27.979546" lon="-15.531762">
        <ele>1014.23</ele>
        <time>2017-12-09T15:28:13Z</time>
      </trkpt>
      <trkpt lat="27.979564" lon="-15.531647">
        <ele>1012.42</ele>
        <time>2017-12-09T15:28:20Z</time>
      </trkpt>
      <trkpt lat="27.979598" lon="-15.531549">
        <ele>1010.44</ele>
        <time>2017-12-09T15:28:26Z</time>
      </trkpt>
      <trkpt lat="27.979672" lon="-15.531480">
        <ele>1009.22</ele>
        <time>2017-12-09T15:28:32Z</time>
      </trkpt>
      <trkpt lat="27.979755" lon="-15.531436">
        <ele>1006.12</ele>
        <time>2017-12-09T15:28:38Z</time>
      </trkpt>
      <trkpt lat="27.979844" lon="-15.531482">
        <ele>1005.80</ele>
        <time>2017-12-09T15:28:44Z</time>
      </trkpt>
      <trkpt lat="27.979944" lon="-15.531511">
        <ele>1004.79</ele>
        <time>2017-12-09T15:28:51Z</time>
      </trkpt>
      <trkpt lat="27.980021" lon="-15.531566">
        <ele>1003.20</ele>
        <time>2017-12-09T15:29:01Z</time>
      </trkpt>
      <trkpt lat="27.980101" lon="-15.531518">
        <ele>1003.00</ele>
        <time>2017-12-09T15:29:05Z</time>
      </trkpt>
      <trkpt lat="27.980156" lon="-15.531422">
        <ele>1000.24</ele>
        <time>2017-12-09T15:29:14Z</time>
      </trkpt>
      <trkpt lat="27.980213" lon="-15.531343">
        <ele>998.04</ele>
        <time>2017-12-09T15:29:22Z</time>
      </trkpt>
      <trkpt lat="27.980294" lon="-15.531298">
        <ele>996.80</ele>
        <time>2017-12-09T15:29:28Z</time>
      </trkpt>
      <trkpt lat="27.980367" lon="-15.531236">
        <ele>994.41</ele>
        <time>2017-12-09T15:29:34Z</time>
      </trkpt>
      <trkpt lat="27.980403" lon="-15.531130">
        <ele>992.91</ele>
        <time>2017-12-09T15:29:42Z</time>
      </trkpt>
      <trkpt lat="27.980477" lon="-15.531070">
        <ele>989.81</ele>
        <time>2017-12-09T15:29:50Z</time>
      </trkpt>
      <trkpt lat="27.980526" lon="-15.530970">
        <ele>987.30</ele>
        <time>2017-12-09T15:29:59Z</time>
      </trkpt>
      <trkpt lat="27.980563" lon="-15.530869">
        <ele>987.09</ele>
        <time>2017-12-09T15:30:07Z</time>
      </trkpt>
      <trkpt lat="27.980557" lon="-15.530762">
        <ele>983.90</ele>
        <time>2017-12-09T15:30:16Z</time>
      </trkpt>
      <trkpt lat="27.980585" lon="-15.530658">
        <ele>982.01</ele>
        <time>2017-12-09T15:30:23Z</time>
      </trkpt>
      <trkpt lat="27.980651" lon="-15.530566">
        <ele>979.39</ele>
        <time>2017-12-09T15:30:29Z</time>
      </trkpt>
      <trkpt lat="27.980712" lon="-15.530492">
        <ele>979.30</ele>
        <time>2017-12-09T15:30:35Z</time>
      </trkpt>
      <trkpt lat="27.980792" lon="-15.530442">
        <ele>976.18</ele>
        <time>2017-12-09T15:30:43Z</time>
      </trkpt>
      <trkpt lat="27.980876" lon="-15.530401">
        <ele>972.59</ele>
        <time>2017-12-09T15:30:53Z</time>
      </trkpt>
      <trkpt lat="27.980968" lon="-15.530410">
        <ele>969.48</ele>
        <time>2017-12-09T15:31:01Z</time>
      </trkpt>
      <trkpt lat="27.981056" lon="-15.530436">
        <ele>969.00</ele>
        <time>2017-12-09T15:31:07Z</time>
      </trkpt>
      <trkpt lat="27.981151" lon="-15.530416">
        <ele>968.20</ele>
        <time>2017-12-09T15:31:15Z</time>
      </trkpt>
      <trkpt lat="27.981250" lon="-15.530379">
        <ele>967.90</ele>
        <time>2017-12-09T15:31:22Z</time>
      </trkpt>
      <trkpt lat="27.981344" lon="-15.530365">
        <ele>968.32</ele>
        <time>2017-12-09T15:31:27Z</time>
      </trkpt>
      <trkpt lat="27.981424" lon="-15.530325">
        <ele>967.77</ele>
        <time>2017-12-09T15:31:31Z</time>
      </trkpt>
      <trkpt lat="27.981442" lon="-15.530323">
        <ele>967.70</ele>
        <time>2017-12-09T15:31:32Z</time>
      </trkpt>
      <trkpt lat="27.981460" lon="-15.530319">
        <ele>967.70</ele>
        <time>2017-12-09T15:31:33Z</time>
      </trkpt>
      <trkpt lat="27.981478" lon="-15.530316">
        <ele>967.61</ele>
        <time>2017-12-09T15:31:34Z</time>
      </trkpt>
      <trkpt lat="27.981576" lon="-15.530294">
        <ele>966.79</ele>
        <time>2017-12-09T15:31:39Z</time>
      </trkpt>
      <trkpt lat="27.981644" lon="-15.530274">
        <ele>965.89</ele>
        <time>2017-12-09T15:31:42Z</time>
      </trkpt>
      <trkpt lat="27.981667" lon="-15.530266">
        <ele>965.81</ele>
        <time>2017-12-09T15:31:43Z</time>
      </trkpt>
      <trkpt lat="27.981688" lon="-15.530262">
        <ele>965.88</ele>
        <time>2017-12-09T15:31:44Z</time>
      </trkpt>
      <trkpt lat="27.981722" lon="-15.530261">
        <ele>965.47</ele>
        <time>2017-12-09T15:31:46Z</time>
      </trkpt>
      <trkpt lat="27.981740" lon="-15.530261">
        <ele>965.53</ele>
        <time>2017-12-09T15:31:47Z</time>
      </trkpt>
      <trkpt lat="27.981772" lon="-15.530258">
        <ele>965.30</ele>
        <time>2017-12-09T15:31:49Z</time>
      </trkpt>
      <trkpt lat="27.981805" lon="-15.530256">
        <ele>965.20</ele>
        <time>2017-12-09T15:31:51Z</time>
      </trkpt>
      <trkpt lat="27.981913" lon="-15.530248">
        <ele>963.95</ele>
        <time>2017-12-09T15:31:56Z</time>
      </trkpt>
      <trkpt lat="27.982016" lon="-15.530232">
        <ele>962.70</ele>
        <time>2017-12-09T15:32:01Z</time>
      </trkpt>
      <trkpt lat="27.982119" lon="-15.530218">
        <ele>961.07</ele>
        <time>2017-12-09T15:32:08Z</time>
      </trkpt>
      <trkpt lat="27.982198" lon="-15.530162">
        <ele>960.50</ele>
        <time>2017-12-09T15:32:12Z</time>
      </trkpt>
      <trkpt lat="27.982286" lon="-15.530084">
        <ele>959.22</ele>
        <time>2017-12-09T15:32:16Z</time>
      </trkpt>
      <trkpt lat="27.982347" lon="-15.529986">
        <ele>957.79</ele>
        <time>2017-12-09T15:32:21Z</time>
      </trkpt>
      <trkpt lat="27.982381" lon="-15.529879">
        <ele>956.87</ele>
        <time>2017-12-09T15:32:26Z</time>
      </trkpt>
      <trkpt lat="27.982448" lon="-15.529792">
        <ele>955.33</ele>
        <time>2017-12-09T15:32:31Z</time>
      </trkpt>
      <trkpt lat="27.982503" lon="-15.529694">
        <ele>953.96</ele>
        <time>2017-12-09T15:32:36Z</time>
      </trkpt>
      <trkpt lat="27.982560" lon="-15.529614">
        <ele>953.80</ele>
        <time>2017-12-09T15:32:40Z</time>
      </trkpt>
      <trkpt lat="27.982608" lon="-15.529503">
        <ele>952.60</ele>
        <time>2017-12-09T15:32:46Z</time>
      </trkpt>
      <trkpt lat="27.982647" lon="-15.529406">
        <ele>952.50</ele>
        <time>2017-12-09T15:32:51Z</time>
      </trkpt>
      <trkpt lat="27.982696" lon="-15.529315">
        <ele>952.00</ele>
        <time>2017-12-09T15:32:56Z</time>
      </trkpt>
      <trkpt lat="27.982746" lon="-15.529221">
        <ele>952.00</ele>
        <time>2017-12-09T15:33:01Z</time>
      </trkpt>
      <trkpt lat="27.982811" lon="-15.529120">
        <ele>951.74</ele>
        <time>2017-12-09T15:33:06Z</time>
      </trkpt>
      <trkpt lat="27.982862" lon="-15.529020">
        <ele>950.90</ele>
        <time>2017-12-09T15:33:11Z</time>
      </trkpt>
      <trkpt lat="27.982928" lon="-15.528951">
        <ele>950.31</ele>
        <time>2017-12-09T15:33:17Z</time>
      </trkpt>
      <trkpt lat="27.983022" lon="-15.528948">
        <ele>950.00</ele>
        <time>2017-12-09T15:33:22Z</time>
      </trkpt>
      <trkpt lat="27.983112" lon="-15.529000">
        <ele>949.80</ele>
        <time>2017-12-09T15:33:26Z</time>
      </trkpt>
      <trkpt lat="27.983221" lon="-15.529083">
        <ele>948.30</ele>
        <time>2017-12-09T15:33:32Z</time>
      </trkpt>
      <trkpt lat="27.983270" lon="-15.529151">
        <ele>947.79</ele>
        <time>2017-12-09T15:33:36Z</time>
      </trkpt>
      <trkpt lat="27.983347" lon="-15.529205">
        <ele>946.19</ele>
        <time>2017-12-09T15:33:41Z</time>
      </trkpt>
      <trkpt lat="27.983465" lon="-15.529206">
        <ele>945.50</ele>
        <time>2017-12-09T15:33:45Z</time>
      </trkpt>
      <trkpt lat="27.983542" lon="-15.529128">
        <ele>944.38</ele>
        <time>2017-12-09T15:33:49Z</time>
      </trkpt>
      <trkpt lat="27.983538" lon="-15.529001">
        <ele>943.20</ele>
        <time>2017-12-09T15:33:53Z</time>
      </trkpt>
      <trkpt lat="27.983523" lon="-15.528865">
        <ele>941.90</ele>
        <time>2017-12-09T15:33:58Z</time>
      </trkpt>
      <trkpt lat="27.983508" lon="-15.528773">
        <ele>940.30</ele>
        <time>2017-12-09T15:34:08Z</time>
      </trkpt>
      <trkpt lat="27.983452" lon="-15.528678">
        <ele>940.38</ele>
        <time>2017-12-09T15:34:14Z</time>
      </trkpt>
      <trkpt lat="27.983450" lon="-15.528567">
        <ele>936.52</ele>
        <time>2017-12-09T15:34:25Z</time>
      </trkpt>
      <trkpt lat="27.983416" lon="-15.528458">
        <ele>934.50</ele>
        <time>2017-12-09T15:34:32Z</time>
      </trkpt>
      <trkpt lat="27.983351" lon="-15.528382">
        <ele>932.61</ele>
        <time>2017-12-09T15:34:37Z</time>
      </trkpt>
      <trkpt lat="27.983305" lon="-15.528273">
        <ele>930.17</ele>
        <time>2017-12-09T15:34:42Z</time>
      </trkpt>
      <trkpt lat="27.983289" lon="-15.528144">
        <ele>928.37</ele>
        <time>2017-12-09T15:34:46Z</time>
      </trkpt>
      <trkpt lat="27.983305" lon="-15.528036">
        <ele>916.70</ele>
        <time>2017-12-09T15:35:11Z</time>
      </trkpt>
      <trkpt lat="27.983358" lon="-15.527942">
        <ele>917.10</ele>
        <time>2017-12-09T15:35:17Z</time>
      </trkpt>
      <trkpt lat="27.983413" lon="-15.527848">
        <ele>916.33</ele>
        <time>2017-12-09T15:35:23Z</time>
      </trkpt>
      <trkpt lat="27.983457" lon="-15.527754">
        <ele>916.10</ele>
        <time>2017-12-09T15:35:29Z</time>
      </trkpt>
      <trkpt lat="27.983503" lon="-15.527652">
        <ele>915.14</ele>
        <time>2017-12-09T15:35:37Z</time>
      </trkpt>
      <trkpt lat="27.983551" lon="-15.527551">
        <ele>913.10</ele>
        <time>2017-12-09T15:35:43Z</time>
      </trkpt>
      <trkpt lat="27.983571" lon="-15.527444">
        <ele>912.66</ele>
        <time>2017-12-09T15:35:49Z</time>
      </trkpt>
      <trkpt lat="27.983578" lon="-15.527340">
        <ele>912.21</ele>
        <time>2017-12-09T15:35:54Z</time>
      </trkpt>
      <trkpt lat="27.983599" lon="-15.527234">
        <ele>911.00</ele>
        <time>2017-12-09T15:36:00Z</time>
      </trkpt>
      <trkpt lat="27.983625" lon="-15.527127">
        <ele>908.05</ele>
        <time>2017-12-09T15:36:10Z</time>
      </trkpt>
      <trkpt lat="27.983686" lon="-15.527049">
        <ele>904.80</ele>
        <time>2017-12-09T15:36:17Z</time>
      </trkpt>
      <trkpt lat="27.983740" lon="-15.526962">
        <ele>904.20</ele>
        <time>2017-12-09T15:36:24Z</time>
      </trkpt>
      <trkpt lat="27.983731" lon="-15.526942">
        <ele>903.78</ele>
        <time>2017-12-09T15:36:32Z</time>
      </trkpt>
      <trkpt lat="27.983744" lon="-15.526912">
        <ele>903.90</ele>
        <time>2017-12-09T15:36:34Z</time>
      </trkpt>
      <trkpt lat="27.983757" lon="-15.526884">
        <ele>903.90</ele>
        <time>2017-12-09T15:36:36Z</time>
      </trkpt>
      <trkpt lat="27.983778" lon="-15.526864">
        <ele>903.17</ele>
        <time>2017-12-09T15:36:38Z</time>
      </trkpt>
      <trkpt lat="27.983807" lon="-15.526832">
        <ele>902.34</ele>
        <time>2017-12-09T15:36:40Z</time>
      </trkpt>
      <trkpt lat="27.983873" lon="-15.526748">
        <ele>900.18</ele>
        <time>2017-12-09T15:36:45Z</time>
      </trkpt>
      <trkpt lat="27.983905" lon="-15.526697">
        <ele>899.52</ele>
        <time>2017-12-09T15:36:48Z</time>
      </trkpt>
      <trkpt lat="27.983969" lon="-15.526618">
        <ele>896.67</ele>
        <time>2017-12-09T15:36:55Z</time>
      </trkpt>
      <trkpt lat="27.984013" lon="-15.526526">
        <ele>894.60</ele>
        <time>2017-12-09T15:37:02Z</time>
      </trkpt>
      <trkpt lat="27.984070" lon="-15.526419">
        <ele>892.60</ele>
        <time>2017-12-09T15:37:08Z</time>
      </trkpt>
      <trkpt lat="27.984140" lon="-15.526333">
        <ele>891.39</ele>
        <time>2017-12-09T15:37:13Z</time>
      </trkpt>
      <trkpt lat="27.984178" lon="-15.526212">
        <ele>889.76</ele>
        <time>2017-12-09T15:37:18Z</time>
      </trkpt>
      <trkpt lat="27.984242" lon="-15.526117">
        <ele>886.98</ele>
        <time>2017-12-09T15:37:24Z</time>
      </trkpt>
      <trkpt lat="27.984250" lon="-15.526009">
        <ele>885.45</ele>
        <time>2017-12-09T15:37:28Z</time>
      </trkpt>
      <trkpt lat="27.984301" lon="-15.525904">
        <ele>883.46</ele>
        <time>2017-12-09T15:37:33Z</time>
      </trkpt>
      <trkpt lat="27.984308" lon="-15.525761">
        <ele>880.70</ele>
        <time>2017-12-09T15:37:39Z</time>
      </trkpt>
      <trkpt lat="27.984292" lon="-15.525667">
        <ele>878.76</ele>
        <time>2017-12-09T15:37:43Z</time>
      </trkpt>
      <trkpt lat="27.984344" lon="-15.525569">
        <ele>877.38</ele>
        <time>2017-12-09T15:37:48Z</time>
      </trkpt>
      <trkpt lat="27.984416" lon="-15.525494">
        <ele>875.87</ele>
        <time>2017-12-09T15:37:52Z</time>
      </trkpt>
      <trkpt lat="27.984464" lon="-15.525403">
        <ele>874.55</ele>
        <time>2017-12-09T15:37:56Z</time>
      </trkpt>
      <trkpt lat="27.984512" lon="-15.525294">
        <ele>872.41</ele>
        <time>2017-12-09T15:38:01Z</time>
      </trkpt>
      <trkpt lat="27.984556" lon="-15.525201">
        <ele>870.30</ele>
        <time>2017-12-09T15:38:06Z</time>
      </trkpt>
      <trkpt lat="27.984618" lon="-15.525121">
        <ele>867.70</ele>
        <time>2017-12-09T15:38:11Z</time>
      </trkpt>
      <trkpt lat="27.984652" lon="-15.525027">
        <ele>867.14</ele>
        <time>2017-12-09T15:38:15Z</time>
      </trkpt>
      <trkpt lat="27.984696" lon="-15.524923">
        <ele>863.39</ele>
        <time>2017-12-09T15:38:21Z</time>
      </trkpt>
      <trkpt lat="27.984703" lon="-15.524792">
        <ele>861.44</ele>
        <time>2017-12-09T15:38:28Z</time>
      </trkpt>
      <trkpt lat="27.984681" lon="-15.524692">
        <ele>859.93</ele>
        <time>2017-12-09T15:38:31Z</time>
      </trkpt>
      <trkpt lat="27.984705" lon="-15.524587">
        <ele>857.95</ele>
        <time>2017-12-09T15:38:35Z</time>
      </trkpt>
      <trkpt lat="27.984733" lon="-15.524485">
        <ele>857.40</ele>
        <time>2017-12-09T15:38:39Z</time>
      </trkpt>
      <trkpt lat="27.984745" lon="-15.524368">
        <ele>856.01</ele>
        <time>2017-12-09T15:38:43Z</time>
      </trkpt>
      <trkpt lat="27.984839" lon="-15.524306">
        <ele>854.30</ele>
        <time>2017-12-09T15:38:49Z</time>
      </trkpt>
      <trkpt lat="27.984925" lon="-15.524225">
        <ele>852.60</ele>
        <time>2017-12-09T15:38:54Z</time>
      </trkpt>
      <trkpt lat="27.985000" lon="-15.524161">
        <ele>851.18</ele>
        <time>2017-12-09T15:38:58Z</time>
      </trkpt>
      <trkpt lat="27.985092" lon="-15.524115">
        <ele>849.29</ele>
        <time>2017-12-09T15:39:02Z</time>
      </trkpt>
      <trkpt lat="27.985186" lon="-15.524081">
        <ele>847.07</ele>
        <time>2017-12-09T15:39:07Z</time>
      </trkpt>
      <trkpt lat="27.985215" lon="-15.523985">
        <ele>846.40</ele>
        <time>2017-12-09T15:39:11Z</time>
      </trkpt>
      <trkpt lat="27.985263" lon="-15.523869">
        <ele>844.48</ele>
        <time>2017-12-09T15:39:16Z</time>
      </trkpt>
      <trkpt lat="27.985346" lon="-15.523825">
        <ele>843.50</ele>
        <time>2017-12-09T15:39:24Z</time>
      </trkpt>
      <trkpt lat="27.985438" lon="-15.523871">
        <ele>842.40</ele>
        <time>2017-12-09T15:39:32Z</time>
      </trkpt>
      <trkpt lat="27.985507" lon="-15.523947">
        <ele>842.30</ele>
        <time>2017-12-09T15:39:36Z</time>
      </trkpt>
      <trkpt lat="27.985599" lon="-15.524019">
        <ele>841.90</ele>
        <time>2017-12-09T15:39:40Z</time>
      </trkpt>
      <trkpt lat="27.985682" lon="-15.524113">
        <ele>841.00</ele>
        <time>2017-12-09T15:39:44Z</time>
      </trkpt>
      <trkpt lat="27.985768" lon="-15.524175">
        <ele>841.00</ele>
        <time>2017-12-09T15:39:48Z</time>
      </trkpt>
      <trkpt lat="27.985852" lon="-15.524180">
        <ele>840.70</ele>
        <time>2017-12-09T15:39:53Z</time>
      </trkpt>
      <trkpt lat="27.985874" lon="-15.524192">
        <ele>840.70</ele>
        <time>2017-12-09T15:39:54Z</time>
      </trkpt>
      <trkpt lat="27.985894" lon="-15.524203">
        <ele>840.70</ele>
        <time>2017-12-09T15:39:55Z</time>
      </trkpt>
      <trkpt lat="27.985913" lon="-15.524213">
        <ele>840.70</ele>
        <time>2017-12-09T15:39:56Z</time>
      </trkpt>
      <trkpt lat="27.986001" lon="-15.524238">
        <ele>839.90</ele>
        <time>2017-12-09T15:40:00Z</time>
      </trkpt>
      <trkpt lat="27.986078" lon="-15.524130">
        <ele>839.18</ele>
        <time>2017-12-09T15:40:04Z</time>
      </trkpt>
      <trkpt lat="27.986143" lon="-15.524044">
        <ele>838.20</ele>
        <time>2017-12-09T15:40:07Z</time>
      </trkpt>
      <trkpt lat="27.986202" lon="-15.523965">
        <ele>836.48</ele>
        <time>2017-12-09T15:40:11Z</time>
      </trkpt>
      <trkpt lat="27.986266" lon="-15.523891">
        <ele>835.75</ele>
        <time>2017-12-09T15:40:16Z</time>
      </trkpt>
      <trkpt lat="27.986319" lon="-15.523798">
        <ele>833.82</ele>
        <time>2017-12-09T15:40:21Z</time>
      </trkpt>
      <trkpt lat="27.986375" lon="-15.523703">
        <ele>832.60</ele>
        <time>2017-12-09T15:40:26Z</time>
      </trkpt>
      <trkpt lat="27.986330" lon="-15.523590">
        <ele>832.32</ele>
        <time>2017-12-09T15:40:32Z</time>
      </trkpt>
      <trkpt lat="27.986234" lon="-15.523522">
        <ele>831.40</ele>
        <time>2017-12-09T15:40:37Z</time>
      </trkpt>
      <trkpt lat="27.986148" lon="-15.523463">
        <ele>830.40</ele>
        <time>2017-12-09T15:40:42Z</time>
      </trkpt>
      <trkpt lat="27.986052" lon="-15.523412">
        <ele>830.03</ele>
        <time>2017-12-09T15:40:46Z</time>
      </trkpt>
      <trkpt lat="27.985970" lon="-15.523345">
        <ele>830.31</ele>
        <time>2017-12-09T15:40:51Z</time>
      </trkpt>
      <trkpt lat="27.985884" lon="-15.523292">
        <ele>830.00</ele>
        <time>2017-12-09T15:40:57Z</time>
      </trkpt>
      <trkpt lat="27.985807" lon="-15.523225">
        <ele>829.81</ele>
        <time>2017-12-09T15:41:03Z</time>
      </trkpt>
      <trkpt lat="27.985710" lon="-15.523176">
        <ele>829.49</ele>
        <time>2017-12-09T15:41:08Z</time>
      </trkpt>
      <trkpt lat="27.985613" lon="-15.523131">
        <ele>829.00</ele>
        <time>2017-12-09T15:41:14Z</time>
      </trkpt>
      <trkpt lat="27.985590" lon="-15.523124">
        <ele>829.00</ele>
        <time>2017-12-09T15:41:16Z</time>
      </trkpt>
      <trkpt lat="27.985500" lon="-15.523079">
        <ele>829.48</ele>
        <time>2017-12-09T15:41:22Z</time>
      </trkpt>
      <trkpt lat="27.985399" lon="-15.523031">
        <ele>829.22</ele>
        <time>2017-12-09T15:41:28Z</time>
      </trkpt>
      <trkpt lat="27.985348" lon="-15.522986">
        <ele>829.10</ele>
        <time>2017-12-09T15:41:33Z</time>
      </trkpt>
      <trkpt lat="27.985332" lon="-15.522970">
        <ele>828.86</ele>
        <time>2017-12-09T15:41:35Z</time>
      </trkpt>
      <trkpt lat="27.985277" lon="-15.522900">
        <ele>828.40</ele>
        <time>2017-12-09T15:41:43Z</time>
      </trkpt>
      <trkpt lat="27.985237" lon="-15.522864">
        <ele>828.30</ele>
        <time>2017-12-09T15:41:46Z</time>
      </trkpt>
      <trkpt lat="27.985216" lon="-15.522844">
        <ele>828.30</ele>
        <time>2017-12-09T15:41:48Z</time>
      </trkpt>
      <trkpt lat="27.985201" lon="-15.522826">
        <ele>828.30</ele>
        <time>2017-12-09T15:41:51Z</time>
      </trkpt>
      <trkpt lat="27.985188" lon="-15.522801">
        <ele>828.90</ele>
        <time>2017-12-09T15:41:54Z</time>
      </trkpt>
      <trkpt lat="27.985177" lon="-15.522784">
        <ele>828.90</ele>
        <time>2017-12-09T15:41:56Z</time>
      </trkpt>
      <trkpt lat="27.985170" lon="-15.522762">
        <ele>828.80</ele>
        <time>2017-12-09T15:41:58Z</time>
      </trkpt>
    </trkseg>
  </trk>
</gpx>
